<?xml version='1.0' encoding='UTF-8'?><gpx version="1.1" creator="JPX - https://github.com/jenetics/jpx" xmlns="http://www.topografix.com/GPX/1/1"><trk><trkseg><trkpt lat="45.89611003898369" lon="13.381230042441837"><ele>25.999999999999996</ele><time>2026-04-05T13:38:42Z</time></trkpt><trkpt lat="45.89602191071836" lon="13.38129191050274"><ele>26.0</ele><time>2026-04-05T13:38:45Z</time></trkpt><trkpt lat="45.895943603456416" lon="13.381298021619708"><ele>26.0</ele><time>2026-04-05T13:38:47Z</time></trkpt><trkpt lat="45.89587926108304" lon="13.381348536387998"><ele>26.0</ele><time>2026-04-05T13:38:49Z</time></trkpt><trkpt lat="45.895859089176085" lon="13.381462992528684"><ele>25.999999999999996</ele><time>2026-04-05T13:38:51Z</time></trkpt><trkpt lat="45.895832000212415" lon="13.381598493764299"><ele>26.0</ele><time>2026-04-05T13:38:53Z</time></trkpt><trkpt lat="45.89580514127433" lon="13.381702177826599"><ele>26.166666666666664</ele><time>2026-04-05T13:38:55Z</time></trkpt><trkpt lat="45.895778104355436" lon="13.381810176955096"><ele>26.333333333333332</ele><time>2026-04-05T13:38:57Z</time></trkpt><trkpt lat="45.89575806271344" lon="13.381945624904612"><ele>26.5</ele><time>2026-04-05T13:38:59Z</time></trkpt><trkpt lat="45.89573272619814" lon="13.382036788186893"><ele>26.666666666666664</ele><time>2026-04-05T13:39:01Z</time></trkpt><trkpt lat="45.895658772034935" lon="13.382096003473468"><ele>26.833333333333332</ele><time>2026-04-05T13:39:03Z</time></trkpt><trkpt lat="45.89559693844409" lon="13.382120976884043"><ele>27.0</ele><time>2026-04-05T13:39:04Z</time></trkpt><trkpt lat="45.895516135300944" lon="13.38214750480707"><ele>26.75</ele><time>2026-04-05T13:39:05Z</time></trkpt><trkpt lat="45.89541489064345" lon="13.382197058445607"><ele>26.5</ele><time>2026-04-05T13:39:06Z</time></trkpt><trkpt lat="45.895285841475946" lon="13.38225446596764"><ele>26.25</ele><time>2026-04-05T13:39:07Z</time></trkpt><trkpt lat="45.89514272124995" lon="13.3823116495512"><ele>26.0</ele><time>2026-04-05T13:39:08Z</time></trkpt><trkpt lat="45.89498458906178" lon="13.382376241111174"><ele>26.0</ele><time>2026-04-05T13:39:09Z</time></trkpt><trkpt lat="45.89481283109256" lon="13.382443391470842"><ele>26.0</ele><time>2026-04-05T13:39:10Z</time></trkpt><trkpt lat="45.89463719855669" lon="13.382510781108493"><ele>26.0</ele><time>2026-04-05T13:39:11Z</time></trkpt><trkpt lat="45.89445175522123" lon="13.382588336656003"><ele>26.0</ele><time>2026-04-05T13:39:12Z</time></trkpt><trkpt lat="45.894261647082466" lon="13.382664687257043"><ele>26.0</ele><time>2026-04-05T13:39:13Z</time></trkpt><trkpt lat="45.894064069070645" lon="13.382744117962401"><ele>26.0</ele><time>2026-04-05T13:39:14Z</time></trkpt><trkpt lat="45.893862285142966" lon="13.38282802709226"><ele>25.333333333333332</ele><time>2026-04-05T13:39:15Z</time></trkpt><trkpt lat="45.893657221462135" lon="13.382916755994579"><ele>24.666666666666664</ele><time>2026-04-05T13:39:16Z</time></trkpt><trkpt lat="45.893447554847754" lon="13.383004022826052"><ele>24.0</ele><time>2026-04-05T13:39:17Z</time></trkpt><trkpt lat="45.89323968732161" lon="13.38308901140433"><ele>24.0</ele><time>2026-04-05T13:39:18Z</time></trkpt><trkpt lat="45.893038974858854" lon="13.383172289984119"><ele>24.0</ele><time>2026-04-05T13:39:19Z</time></trkpt><trkpt lat="45.89285136504821" lon="13.383248142156607"><ele>24.0</ele><time>2026-04-05T13:39:20Z</time></trkpt><trkpt lat="45.89268071187596" lon="13.383314992949629"><ele>24.25</ele><time>2026-04-05T13:39:21Z</time></trkpt><trkpt lat="45.89252616844803" lon="13.383380289216234"><ele>24.5</ele><time>2026-04-05T13:39:22Z</time></trkpt><trkpt lat="45.892386280343274" lon="13.383428807314363"><ele>24.75</ele><time>2026-04-05T13:39:23Z</time></trkpt><trkpt lat="45.89226022160547" lon="13.3834352804325"><ele>25.0</ele><time>2026-04-05T13:39:24Z</time></trkpt><trkpt lat="45.89215529581935" lon="13.383440085909221"><ele>25.0</ele><time>2026-04-05T13:39:25Z</time></trkpt><trkpt lat="45.8920781237034" lon="13.383449130976324"><ele>25.0</ele><time>2026-04-05T13:39:26Z</time></trkpt><trkpt lat="45.89200800112957" lon="13.383205485742783"><ele>25.0</ele><time>2026-04-05T13:39:27Z</time></trkpt><trkpt lat="45.89196324087575" lon="13.383072448186239"><ele>25.0</ele><time>2026-04-05T13:39:28Z</time></trkpt><trkpt lat="45.891935819011856" lon="13.382899077664545"><ele>25.0</ele><time>2026-04-05T13:39:29Z</time></trkpt><trkpt lat="45.89192969819685" lon="13.382670696708919"><ele>25.0</ele><time>2026-04-05T13:39:30Z</time></trkpt><trkpt lat="45.89192794096887" lon="13.382401965838396"><ele>25.0</ele><time>2026-04-05T13:39:31Z</time></trkpt><trkpt lat="45.891921807695255" lon="13.382104675738823"><ele>24.5</ele><time>2026-04-05T13:39:32Z</time></trkpt><trkpt lat="45.89191714561055" lon="13.381785070539395"><ele>24.0</ele><time>2026-04-05T13:39:33Z</time></trkpt><trkpt lat="45.8919101328302" lon="13.381447570617926"><ele>24.0</ele><time>2026-04-05T13:39:34Z</time></trkpt><trkpt lat="45.89191049798551" lon="13.381096809505065"><ele>24.0</ele><time>2026-04-05T13:39:35Z</time></trkpt><trkpt lat="45.89192882689678" lon="13.380736639032142"><ele>24.5</ele><time>2026-04-05T13:39:36Z</time></trkpt><trkpt lat="45.89196769927228" lon="13.380373438326018"><ele>25.0</ele><time>2026-04-05T13:39:37Z</time></trkpt><trkpt lat="45.89201650102502" lon="13.380006722637058"><ele>24.5</ele><time>2026-04-05T13:39:38Z</time></trkpt><trkpt lat="45.8920630410121" lon="13.37963559934996"><ele>24.0</ele><time>2026-04-05T13:39:39Z</time></trkpt><trkpt lat="45.89210943644102" lon="13.379262631203355"><ele>24.0</ele><time>2026-04-05T13:39:40Z</time></trkpt><trkpt lat="45.8921516226051" lon="13.378893369251307"><ele>24.0</ele><time>2026-04-05T13:39:41Z</time></trkpt><trkpt lat="45.89219109744005" lon="13.378528038885587"><ele>23.0</ele><time>2026-04-05T13:39:42Z</time></trkpt><trkpt lat="45.8922265802911" lon="13.37817062254036"><ele>22.0</ele><time>2026-04-05T13:39:43Z</time></trkpt><trkpt lat="45.89225166547981" lon="13.377821306611901"><ele>22.0</ele><time>2026-04-05T13:39:44Z</time></trkpt><trkpt lat="45.892265984514715" lon="13.377471262441734"><ele>22.0</ele><time>2026-04-05T13:39:45Z</time></trkpt><trkpt lat="45.892276858414384" lon="13.377119015565611"><ele>21.5</ele><time>2026-04-05T13:39:46Z</time></trkpt><trkpt lat="45.892289958361324" lon="13.376774332174397"><ele>21.0</ele><time>2026-04-05T13:39:47Z</time></trkpt><trkpt lat="45.89230552642264" lon="13.37644674535361"><ele>21.0</ele><time>2026-04-05T13:39:48Z</time></trkpt><trkpt lat="45.89231827779819" lon="13.376162097987473"><ele>21.0</ele><time>2026-04-05T13:39:49Z</time></trkpt><trkpt lat="45.892326901842445" lon="13.375911568502014"><ele>21.0</ele><time>2026-04-05T13:39:50Z</time></trkpt><trkpt lat="45.89232882585889" lon="13.37572614468399"><ele>21.0</ele><time>2026-04-05T13:39:51Z</time></trkpt><trkpt lat="45.892339722131155" lon="13.375568989509384"><ele>21.0</ele><time>2026-04-05T13:39:52Z</time></trkpt><trkpt lat="45.89234496828654" lon="13.375441047096686"><ele>21.0</ele><time>2026-04-05T13:39:53Z</time></trkpt><trkpt lat="45.892265578798536" lon="13.375331187622274"><ele>21.0</ele><time>2026-04-05T13:39:54Z</time></trkpt><trkpt lat="45.892277016227744" lon="13.375164565499867"><ele>21.0</ele><time>2026-04-05T13:39:56Z</time></trkpt><trkpt lat="45.89225731454429" lon="13.375065030435607"><ele>21.25</ele><time>2026-04-05T13:39:58Z</time></trkpt><trkpt lat="45.89215367957449" lon="13.374947038205761"><ele>21.5</ele><time>2026-04-05T13:40:00Z</time></trkpt><trkpt lat="45.8920647912878" lon="13.375131174897994"><ele>21.75</ele><time>2026-04-05T13:40:02Z</time></trkpt><trkpt lat="45.89219368877528" lon="13.375170040419587"><ele>22.0</ele><time>2026-04-05T13:40:03Z</time></trkpt><trkpt lat="45.892197762229344" lon="13.3753271999087"><ele>22.0</ele><time>2026-04-05T13:44:31Z</time></trkpt><trkpt lat="45.892240465893515" lon="13.375404071417357"><ele>22.0</ele><time>2026-04-05T13:44:32Z</time></trkpt><trkpt lat="45.89228997485854" lon="13.375490873816613"><ele>22.0</ele><time>2026-04-05T13:44:33Z</time></trkpt><trkpt lat="45.8923146928677" lon="13.375611109166087"><ele>22.0</ele><time>2026-04-05T13:44:34Z</time></trkpt><trkpt lat="45.89231394976123" lon="13.375785750018702"><ele>22.0</ele><time>2026-04-05T13:44:35Z</time></trkpt><trkpt lat="45.892298266568545" lon="13.375991438441813"><ele>21.666666666666664</ele><time>2026-04-05T13:44:36Z</time></trkpt><trkpt lat="45.89228584479222" lon="13.376227012237768"><ele>21.333333333333332</ele><time>2026-04-05T13:44:37Z</time></trkpt><trkpt lat="45.89227518953574" lon="13.376483821402559"><ele>21.0</ele><time>2026-04-05T13:44:38Z</time></trkpt><trkpt lat="45.89226493064082" lon="13.37676626589561"><ele>21.0</ele><time>2026-04-05T13:44:39Z</time></trkpt><trkpt lat="45.89225413492879" lon="13.377065409424993"><ele>21.0</ele><time>2026-04-05T13:44:40Z</time></trkpt><trkpt lat="45.892240409727236" lon="13.377374385510072"><ele>21.0</ele><time>2026-04-05T13:44:41Z</time></trkpt><trkpt lat="45.89222388784351" lon="13.377690151037015"><ele>21.5</ele><time>2026-04-05T13:44:42Z</time></trkpt><trkpt lat="45.89220581209818" lon="13.378009129415313"><ele>22.0</ele><time>2026-04-05T13:44:43Z</time></trkpt><trkpt lat="45.89218290489187" lon="13.37833844004876"><ele>22.0</ele><time>2026-04-05T13:44:44Z</time></trkpt><trkpt lat="45.89214754224713" lon="13.378670607298668"><ele>22.0</ele><time>2026-04-05T13:44:45Z</time></trkpt><trkpt lat="45.89210142787675" lon="13.379005606065421"><ele>23.0</ele><time>2026-04-05T13:44:46Z</time></trkpt><trkpt lat="45.8920581157097" lon="13.379346670841523"><ele>24.0</ele><time>2026-04-05T13:44:47Z</time></trkpt><trkpt lat="45.89201964237923" lon="13.37969514530715"><ele>24.5</ele><time>2026-04-05T13:44:48Z</time></trkpt><trkpt lat="45.891983189725316" lon="13.380054882105654"><ele>25.0</ele><time>2026-04-05T13:44:49Z</time></trkpt><trkpt lat="45.89194555467508" lon="13.380412405723144"><ele>24.5</ele><time>2026-04-05T13:44:50Z</time></trkpt><trkpt lat="45.891911027725" lon="13.380774258746838"><ele>24.0</ele><time>2026-04-05T13:44:51Z</time></trkpt><trkpt lat="45.891882110846424" lon="13.381139119366052"><ele>24.0</ele><time>2026-04-05T13:44:52Z</time></trkpt><trkpt lat="45.89187317413202" lon="13.381510451374801"><ele>24.0</ele><time>2026-04-05T13:44:53Z</time></trkpt><trkpt lat="45.8918819705832" lon="13.381882032007328"><ele>24.5</ele><time>2026-04-05T13:44:54Z</time></trkpt><trkpt lat="45.89189686868571" lon="13.38225372744743"><ele>25.0</ele><time>2026-04-05T13:44:55Z</time></trkpt><trkpt lat="45.89191227284541" lon="13.38263161700964"><ele>25.0</ele><time>2026-04-05T13:44:56Z</time></trkpt><trkpt lat="45.89192970950435" lon="13.383029700547125"><ele>25.0</ele><time>2026-04-05T13:44:57Z</time></trkpt><trkpt lat="45.89195676817817" lon="13.38343971316581"><ele>25.0</ele><time>2026-04-05T13:44:58Z</time></trkpt><trkpt lat="45.89199975399522" lon="13.383842169827181"><ele>25.0</ele><time>2026-04-05T13:44:59Z</time></trkpt><trkpt lat="45.89204871938532" lon="13.384248324848269"><ele>25.0</ele><time>2026-04-05T13:45:00Z</time></trkpt><trkpt lat="45.89209951647537" lon="13.384651079732246"><ele>25.0</ele><time>2026-04-05T13:45:01Z</time></trkpt><trkpt lat="45.89214554142208" lon="13.385048331096373"><ele>25.5</ele><time>2026-04-05T13:45:02Z</time></trkpt><trkpt lat="45.892172694514095" lon="13.385441904927841"><ele>26.0</ele><time>2026-04-05T13:45:03Z</time></trkpt><trkpt lat="45.89215178311734" lon="13.385830925117375"><ele>25.0</ele><time>2026-04-05T13:45:04Z</time></trkpt><trkpt lat="45.892123041136784" lon="13.386185946356935"><ele>24.0</ele><time>2026-04-05T13:45:05Z</time></trkpt><trkpt lat="45.89210541844097" lon="13.386512220284141"><ele>23.666666666666668</ele><time>2026-04-05T13:45:06Z</time></trkpt><trkpt lat="45.892074724205806" lon="13.386773608998565"><ele>23.333333333333336</ele><time>2026-04-05T13:45:07Z</time></trkpt><trkpt lat="45.89204819772067" lon="13.387010663861728"><ele>23.0</ele><time>2026-04-05T13:45:08Z</time></trkpt><trkpt lat="45.892023305750406" lon="13.38724361480686"><ele>23.0</ele><time>2026-04-05T13:45:09Z</time></trkpt><trkpt lat="45.89200160647793" lon="13.38746434890774"><ele>23.0</ele><time>2026-04-05T13:45:10Z</time></trkpt><trkpt lat="45.891983032053886" lon="13.387689216498755"><ele>23.0</ele><time>2026-04-05T13:45:11Z</time></trkpt><trkpt lat="45.89196486603132" lon="13.387911421731957"><ele>23.0</ele><time>2026-04-05T13:45:12Z</time></trkpt><trkpt lat="45.89194652988319" lon="13.388149074134763"><ele>23.0</ele><time>2026-04-05T13:45:13Z</time></trkpt><trkpt lat="45.89192574584211" lon="13.388399388570686"><ele>23.0</ele><time>2026-04-05T13:45:14Z</time></trkpt><trkpt lat="45.89190480496142" lon="13.388646530511636"><ele>22.666666666666668</ele><time>2026-04-05T13:45:15Z</time></trkpt><trkpt lat="45.89188497170073" lon="13.388882123480833"><ele>22.333333333333332</ele><time>2026-04-05T13:45:16Z</time></trkpt><trkpt lat="45.89186742238126" lon="13.389115175171332"><ele>22.0</ele><time>2026-04-05T13:45:17Z</time></trkpt><trkpt lat="45.891851253769396" lon="13.38934981276691"><ele>22.0</ele><time>2026-04-05T13:45:18Z</time></trkpt><trkpt lat="45.891839395310264" lon="13.389586474801119"><ele>22.0</ele><time>2026-04-05T13:45:19Z</time></trkpt><trkpt lat="45.89183083448038" lon="13.389828173067448"><ele>22.0</ele><time>2026-04-05T13:45:20Z</time></trkpt><trkpt lat="45.89182422640715" lon="13.390069360950404"><ele>22.0</ele><time>2026-04-05T13:45:21Z</time></trkpt><trkpt lat="45.891821155087065" lon="13.3903070111837"><ele>22.0</ele><time>2026-04-05T13:45:22Z</time></trkpt><trkpt lat="45.8918193832196" lon="13.39054146971409"><ele>22.0</ele><time>2026-04-05T13:45:23Z</time></trkpt><trkpt lat="45.89181593724386" lon="13.39077551846702"><ele>22.0</ele><time>2026-04-05T13:45:24Z</time></trkpt><trkpt lat="45.891814621852056" lon="13.391009885364632"><ele>22.0</ele><time>2026-04-05T13:45:25Z</time></trkpt><trkpt lat="45.891817300548055" lon="13.391244565589048"><ele>22.0</ele><time>2026-04-05T13:45:26Z</time></trkpt><trkpt lat="45.89182021417381" lon="13.391483637634144"><ele>22.0</ele><time>2026-04-05T13:45:27Z</time></trkpt><trkpt lat="45.891824181327955" lon="13.391715405353601"><ele>22.0</ele><time>2026-04-05T13:45:28Z</time></trkpt><trkpt lat="45.89183488725353" lon="13.391953150979758"><ele>22.0</ele><time>2026-04-05T13:45:29Z</time></trkpt><trkpt lat="45.89184814943037" lon="13.392211868069833"><ele>22.5</ele><time>2026-04-05T13:45:30Z</time></trkpt><trkpt lat="45.891847885563216" lon="13.392514647610724"><ele>23.0</ele><time>2026-04-05T13:45:31Z</time></trkpt><trkpt lat="45.89186759261316" lon="13.392874946368359"><ele>22.5</ele><time>2026-04-05T13:45:32Z</time></trkpt><trkpt lat="45.891890661867485" lon="13.393289330225546"><ele>22.0</ele><time>2026-04-05T13:45:33Z</time></trkpt><trkpt lat="45.891928668501926" lon="13.3937463690235"><ele>22.5</ele><time>2026-04-05T13:45:34Z</time></trkpt><trkpt lat="45.89195442627845" lon="13.394242852618385"><ele>23.0</ele><time>2026-04-05T13:45:35Z</time></trkpt><trkpt lat="45.891980303202516" lon="13.394760663779254"><ele>23.0</ele><time>2026-04-05T13:45:36Z</time></trkpt><trkpt lat="45.89201230970238" lon="13.395268608461732"><ele>23.0</ele><time>2026-04-05T13:45:37Z</time></trkpt><trkpt lat="45.892029049025" lon="13.395797418011304"><ele>23.0</ele><time>2026-04-05T13:45:38Z</time></trkpt><trkpt lat="45.89205807386298" lon="13.39632500026211"><ele>23.0</ele><time>2026-04-05T13:45:39Z</time></trkpt><trkpt lat="45.8921021767602" lon="13.396850649827416"><ele>23.0</ele><time>2026-04-05T13:45:40Z</time></trkpt><trkpt lat="45.89212159681659" lon="13.3973576855747"><ele>23.0</ele><time>2026-04-05T13:45:41Z</time></trkpt><trkpt lat="45.89214956282384" lon="13.397830385805179"><ele>23.5</ele><time>2026-04-05T13:45:42Z</time></trkpt><trkpt lat="45.8921931769094" lon="13.398270362026798"><ele>24.0</ele><time>2026-04-05T13:45:43Z</time></trkpt><trkpt lat="45.89226096083281" lon="13.398702359018747"><ele>24.0</ele><time>2026-04-05T13:45:44Z</time></trkpt><trkpt lat="45.892349728041104" lon="13.399129473486132"><ele>24.0</ele><time>2026-04-05T13:45:45Z</time></trkpt><trkpt lat="45.89244904162789" lon="13.399560897939347"><ele>24.0</ele><time>2026-04-05T13:45:46Z</time></trkpt><trkpt lat="45.892555107573195" lon="13.399992594994316"><ele>24.0</ele><time>2026-04-05T13:45:47Z</time></trkpt><trkpt lat="45.89266357052509" lon="13.400428635376615"><ele>24.5</ele><time>2026-04-05T13:45:48Z</time></trkpt><trkpt lat="45.892772196009" lon="13.400868599644477"><ele>25.0</ele><time>2026-04-05T13:45:49Z</time></trkpt><trkpt lat="45.89288032807993" lon="13.401308963769866"><ele>24.5</ele><time>2026-04-05T13:45:50Z</time></trkpt><trkpt lat="45.892989141815136" lon="13.401747355351006"><ele>24.0</ele><time>2026-04-05T13:45:51Z</time></trkpt><trkpt lat="45.893095690847574" lon="13.402183491091815"><ele>22.0</ele><time>2026-04-05T13:45:52Z</time></trkpt><trkpt lat="45.89320062247469" lon="13.402612816386963"><ele>20.0</ele><time>2026-04-05T13:45:53Z</time></trkpt><trkpt lat="45.8933055200761" lon="13.403040591700673"><ele>20.0</ele><time>2026-04-05T13:45:54Z</time></trkpt><trkpt lat="45.89340750972972" lon="13.40346277303653"><ele>20.0</ele><time>2026-04-05T13:45:55Z</time></trkpt><trkpt lat="45.893508024129076" lon="13.403883753381209"><ele>22.0</ele><time>2026-04-05T13:45:56Z</time></trkpt><trkpt lat="45.89360709960011" lon="13.404299895451814"><ele>24.0</ele><time>2026-04-05T13:45:57Z</time></trkpt><trkpt lat="45.89370777290124" lon="13.40471460714282"><ele>24.5</ele><time>2026-04-05T13:45:58Z</time></trkpt><trkpt lat="45.893807802729555" lon="13.405125925324754"><ele>25.0</ele><time>2026-04-05T13:45:59Z</time></trkpt><trkpt lat="45.89390711921399" lon="13.40553682390351"><ele>25.5</ele><time>2026-04-05T13:46:00Z</time></trkpt><trkpt lat="45.89400313583518" lon="13.40594669713776"><ele>26.0</ele><time>2026-04-05T13:46:01Z</time></trkpt><trkpt lat="45.89409740426266" lon="13.406345187241325"><ele>26.0</ele><time>2026-04-05T13:46:02Z</time></trkpt><trkpt lat="45.89418849659672" lon="13.40672351506549"><ele>26.0</ele><time>2026-04-05T13:46:03Z</time></trkpt><trkpt lat="45.894276373200825" lon="13.40708727099278"><ele>25.0</ele><time>2026-04-05T13:46:04Z</time></trkpt><trkpt lat="45.89435910099699" lon="13.407424755830242"><ele>24.0</ele><time>2026-04-05T13:46:05Z</time></trkpt><trkpt lat="45.89444040869223" lon="13.407730592726203"><ele>24.333333333333336</ele><time>2026-04-05T13:46:06Z</time></trkpt><trkpt lat="45.89452830753898" lon="13.408011629099294"><ele>24.666666666666668</ele><time>2026-04-05T13:46:07Z</time></trkpt><trkpt lat="45.89462051172061" lon="13.40828712729774"><ele>25.0</ele><time>2026-04-05T13:46:08Z</time></trkpt><trkpt lat="45.89474212922352" lon="13.408542045209444"><ele>25.0</ele><time>2026-04-05T13:46:09Z</time></trkpt><trkpt lat="45.89488142383879" lon="13.40878001968374"><ele>25.0</ele><time>2026-04-05T13:46:10Z</time></trkpt><trkpt lat="45.895043758253635" lon="13.4089962248087"><ele>25.0</ele><time>2026-04-05T13:46:11Z</time></trkpt><trkpt lat="45.895206691526134" lon="13.40922553784927"><ele>24.5</ele><time>2026-04-05T13:46:12Z</time></trkpt><trkpt lat="45.8953754756542" lon="13.409461471529289"><ele>24.0</ele><time>2026-04-05T13:46:13Z</time></trkpt><trkpt lat="45.89555043650094" lon="13.409705397720643"><ele>23.0</ele><time>2026-04-05T13:46:14Z</time></trkpt><trkpt lat="45.8957270896716" lon="13.409958334738556"><ele>22.0</ele><time>2026-04-05T13:46:15Z</time></trkpt><trkpt lat="45.895904501162875" lon="13.410216304949678"><ele>22.5</ele><time>2026-04-05T13:46:16Z</time></trkpt><trkpt lat="45.8960843569253" lon="13.410477115004552"><ele>23.0</ele><time>2026-04-05T13:46:17Z</time></trkpt><trkpt lat="45.89626705811589" lon="13.410735734944401"><ele>23.5</ele><time>2026-04-05T13:46:18Z</time></trkpt><trkpt lat="45.89644830138329" lon="13.410997738424548"><ele>24.0</ele><time>2026-04-05T13:46:19Z</time></trkpt><trkpt lat="45.89662983159382" lon="13.411259684301443"><ele>23.5</ele><time>2026-04-05T13:46:20Z</time></trkpt><trkpt lat="45.896813408430916" lon="13.411525053009072"><ele>23.0</ele><time>2026-04-05T13:46:21Z</time></trkpt><trkpt lat="45.89699919513919" lon="13.411791502654813"><ele>23.0</ele><time>2026-04-05T13:46:22Z</time></trkpt><trkpt lat="45.897190727899805" lon="13.412059073397746"><ele>23.0</ele><time>2026-04-05T13:46:23Z</time></trkpt><trkpt lat="45.89738254084454" lon="13.412330742289997"><ele>23.0</ele><time>2026-04-05T13:46:24Z</time></trkpt><trkpt lat="45.89757301182229" lon="13.412604264916373"><ele>23.0</ele><time>2026-04-05T13:46:25Z</time></trkpt><trkpt lat="45.8977595839974" lon="13.412876578213355"><ele>22.5</ele><time>2026-04-05T13:46:26Z</time></trkpt><trkpt lat="45.89794439983828" lon="13.413144566236507"><ele>22.0</ele><time>2026-04-05T13:46:27Z</time></trkpt><trkpt lat="45.898126246853025" lon="13.41340614332711"><ele>22.0</ele><time>2026-04-05T13:46:28Z</time></trkpt><trkpt lat="45.89830333153384" lon="13.413660354330869"><ele>22.0</ele><time>2026-04-05T13:46:29Z</time></trkpt><trkpt lat="45.89847588451511" lon="13.413906786490216"><ele>23.0</ele><time>2026-04-05T13:46:30Z</time></trkpt><trkpt lat="45.898642471811876" lon="13.414144082964322"><ele>24.0</ele><time>2026-04-05T13:46:31Z</time></trkpt><trkpt lat="45.898801574872344" lon="13.414368696561619"><ele>24.0</ele><time>2026-04-05T13:46:32Z</time></trkpt><trkpt lat="45.89895014710958" lon="13.41457958952129"><ele>24.0</ele><time>2026-04-05T13:46:33Z</time></trkpt><trkpt lat="45.89908688162862" lon="13.414774388836646"><ele>24.0</ele><time>2026-04-05T13:46:34Z</time></trkpt><trkpt lat="45.899210120522305" lon="13.414950081300073"><ele>24.0</ele><time>2026-04-05T13:46:35Z</time></trkpt><trkpt lat="45.89932383784945" lon="13.415113722100534"><ele>24.0</ele><time>2026-04-05T13:46:36Z</time></trkpt><trkpt lat="45.89942407900011" lon="13.415260812886492"><ele>24.0</ele><time>2026-04-05T13:46:37Z</time></trkpt><trkpt lat="45.89951882192375" lon="13.415397448620325"><ele>24.0</ele><time>2026-04-05T13:46:38Z</time></trkpt><trkpt lat="45.89961681482607" lon="13.415536315368861"><ele>24.0</ele><time>2026-04-05T13:46:39Z</time></trkpt><trkpt lat="45.89971391729776" lon="13.4156776610315"><ele>24.0</ele><time>2026-04-05T13:46:40Z</time></trkpt><trkpt lat="45.8998049597202" lon="13.415827356905673"><ele>24.0</ele><time>2026-04-05T13:46:41Z</time></trkpt><trkpt lat="45.89987678797507" lon="13.415994996282153"><ele>24.0</ele><time>2026-04-05T13:46:42Z</time></trkpt><trkpt lat="45.899935598151956" lon="13.41617471203872"><ele>24.25</ele><time>2026-04-05T13:46:43Z</time></trkpt><trkpt lat="45.899971866177125" lon="13.416354571480694"><ele>24.5</ele><time>2026-04-05T13:46:44Z</time></trkpt><trkpt lat="45.89999119611516" lon="13.416530860604222"><ele>24.75</ele><time>2026-04-05T13:46:45Z</time></trkpt><trkpt lat="45.90000962251076" lon="13.416707074847077"><ele>25.0</ele><time>2026-04-05T13:46:46Z</time></trkpt><trkpt lat="45.90003144048996" lon="13.41689065545922"><ele>25.0</ele><time>2026-04-05T13:46:47Z</time></trkpt><trkpt lat="45.90005320628811" lon="13.417079468108364"><ele>25.0</ele><time>2026-04-05T13:46:48Z</time></trkpt><trkpt lat="45.90007600639435" lon="13.4172677848979"><ele>25.0</ele><time>2026-04-05T13:46:49Z</time></trkpt><trkpt lat="45.90010073735229" lon="13.417441424643913"><ele>25.0</ele><time>2026-04-05T13:46:50Z</time></trkpt><trkpt lat="45.90012025454295" lon="13.41760095174739"><ele>25.0</ele><time>2026-04-05T13:46:51Z</time></trkpt><trkpt lat="45.900135475224445" lon="13.417750686427189"><ele>25.0</ele><time>2026-04-05T13:46:52Z</time></trkpt><trkpt lat="45.900152907183845" lon="13.417891727930309"><ele>25.0</ele><time>2026-04-05T13:46:53Z</time></trkpt><trkpt lat="45.90016854362853" lon="13.418019322393878"><ele>25.0</ele><time>2026-04-05T13:46:54Z</time></trkpt><trkpt lat="45.90017868163813" lon="13.418135558217308"><ele>25.0</ele><time>2026-04-05T13:46:55Z</time></trkpt><trkpt lat="45.90018824007261" lon="13.418267938865643"><ele>25.0</ele><time>2026-04-05T13:46:56Z</time></trkpt><trkpt lat="45.90020271050614" lon="13.418408289865226"><ele>25.0</ele><time>2026-04-05T13:46:57Z</time></trkpt><trkpt lat="45.9002165799268" lon="13.418567403896944"><ele>25.0</ele><time>2026-04-05T13:46:58Z</time></trkpt><trkpt lat="45.9002126823719" lon="13.418746714275214"><ele>25.0</ele><time>2026-04-05T13:46:59Z</time></trkpt><trkpt lat="45.900192774965504" lon="13.418939417866996"><ele>25.0</ele><time>2026-04-05T13:47:00Z</time></trkpt><trkpt lat="45.900151655509625" lon="13.419146703501378"><ele>25.0</ele><time>2026-04-05T13:47:01Z</time></trkpt><trkpt lat="45.900080466096746" lon="13.419353451803792"><ele>25.0</ele><time>2026-04-05T13:47:02Z</time></trkpt><trkpt lat="45.899977966963014" lon="13.419547544813454"><ele>24.666666666666668</ele><time>2026-04-05T13:47:03Z</time></trkpt><trkpt lat="45.8998412094647" lon="13.419714674605382"><ele>24.333333333333336</ele><time>2026-04-05T13:47:04Z</time></trkpt><trkpt lat="45.89968488561299" lon="13.419892943118903"><ele>24.0</ele><time>2026-04-05T13:47:05Z</time></trkpt><trkpt lat="45.89952288297469" lon="13.420090876885185"><ele>24.0</ele><time>2026-04-05T13:47:06Z</time></trkpt><trkpt lat="45.8993532702449" lon="13.420291688867895"><ele>24.0</ele><time>2026-04-05T13:47:07Z</time></trkpt><trkpt lat="45.89917872310329" lon="13.420500108529154"><ele>24.0</ele><time>2026-04-05T13:47:08Z</time></trkpt><trkpt lat="45.899023694963425" lon="13.420690276310287"><ele>23.666666666666668</ele><time>2026-04-05T13:47:09Z</time></trkpt><trkpt lat="45.89887560930218" lon="13.420868028222745"><ele>23.333333333333336</ele><time>2026-04-05T13:47:10Z</time></trkpt><trkpt lat="45.898727720325844" lon="13.421046174290442"><ele>23.0</ele><time>2026-04-05T13:47:11Z</time></trkpt><trkpt lat="45.89857905815463" lon="13.421227060228293"><ele>23.0</ele><time>2026-04-05T13:47:12Z</time></trkpt><trkpt lat="45.89843169005444" lon="13.421407114144998"><ele>23.0</ele><time>2026-04-05T13:47:13Z</time></trkpt><trkpt lat="45.898285004206905" lon="13.42158318407439"><ele>23.0</ele><time>2026-04-05T13:47:14Z</time></trkpt><trkpt lat="45.89813992792317" lon="13.42175931753658"><ele>23.0</ele><time>2026-04-05T13:47:15Z</time></trkpt><trkpt lat="45.89799319827496" lon="13.421934518634746"><ele>23.0</ele><time>2026-04-05T13:47:16Z</time></trkpt><trkpt lat="45.897847304524376" lon="13.422111551267879"><ele>23.0</ele><time>2026-04-05T13:47:17Z</time></trkpt><trkpt lat="45.89770392342708" lon="13.422292014109775"><ele>23.0</ele><time>2026-04-05T13:47:18Z</time></trkpt><trkpt lat="45.89756441704637" lon="13.422460555368602"><ele>23.0</ele><time>2026-04-05T13:47:19Z</time></trkpt><trkpt lat="45.897436307775955" lon="13.42260451377117"><ele>23.0</ele><time>2026-04-05T13:47:20Z</time></trkpt><trkpt lat="45.897321182435135" lon="13.422745037927486"><ele>23.0</ele><time>2026-04-05T13:47:21Z</time></trkpt><trkpt lat="45.897229646331574" lon="13.422898742748632"><ele>23.0</ele><time>2026-04-05T13:47:22Z</time></trkpt><trkpt lat="45.89714763502216" lon="13.423090494970856"><ele>23.0</ele><time>2026-04-05T13:47:23Z</time></trkpt><trkpt lat="45.89705301573132" lon="13.423304680960113"><ele>23.0</ele><time>2026-04-05T13:47:24Z</time></trkpt><trkpt lat="45.8969604562776" lon="13.423556900529812"><ele>23.0</ele><time>2026-04-05T13:47:25Z</time></trkpt><trkpt lat="45.89685281248636" lon="13.423829263006649"><ele>23.0</ele><time>2026-04-05T13:47:26Z</time></trkpt><trkpt lat="45.89674367213522" lon="13.424121156154794"><ele>23.0</ele><time>2026-04-05T13:47:27Z</time></trkpt><trkpt lat="45.89661929783034" lon="13.424402002486888"><ele>23.0</ele><time>2026-04-05T13:47:28Z</time></trkpt><trkpt lat="45.896504309987264" lon="13.424670335096266"><ele>23.333333333333336</ele><time>2026-04-05T13:47:29Z</time></trkpt><trkpt lat="45.89639578348935" lon="13.424915364235044"><ele>23.666666666666668</ele><time>2026-04-05T13:47:30Z</time></trkpt><trkpt lat="45.896295963695785" lon="13.425149679471609"><ele>24.0</ele><time>2026-04-05T13:47:31Z</time></trkpt><trkpt lat="45.89619958524167" lon="13.425368294439842"><ele>23.0</ele><time>2026-04-05T13:47:32Z</time></trkpt><trkpt lat="45.89610623921712" lon="13.42558331537659"><ele>22.0</ele><time>2026-04-05T13:47:33Z</time></trkpt><trkpt lat="45.89601783403321" lon="13.425787466840022"><ele>21.0</ele><time>2026-04-05T13:47:34Z</time></trkpt><trkpt lat="45.89593176203128" lon="13.425989869181311"><ele>21.333333333333332</ele><time>2026-04-05T13:47:35Z</time></trkpt><trkpt lat="45.89583819029401" lon="13.42621717277515"><ele>21.666666666666664</ele><time>2026-04-05T13:47:36Z</time></trkpt><trkpt lat="45.89571158959896" lon="13.426466051768138"><ele>22.0</ele><time>2026-04-05T13:47:37Z</time></trkpt><trkpt lat="45.895590708580784" lon="13.42674428615646"><ele>21.666666666666664</ele><time>2026-04-05T13:47:38Z</time></trkpt><trkpt lat="45.89546858148415" lon="13.427025196531892"><ele>21.333333333333332</ele><time>2026-04-05T13:47:39Z</time></trkpt><trkpt lat="45.89536774855781" lon="13.427297828840224"><ele>21.0</ele><time>2026-04-05T13:47:40Z</time></trkpt><trkpt lat="45.89524707082038" lon="13.427531526055061"><ele>21.0</ele><time>2026-04-05T13:47:41Z</time></trkpt><trkpt lat="45.895136636056414" lon="13.427784453233553"><ele>21.0</ele><time>2026-04-05T13:47:42Z</time></trkpt><trkpt lat="45.89502100122412" lon="13.428052365680777"><ele>21.0</ele><time>2026-04-05T13:47:43Z</time></trkpt><trkpt lat="45.89490009535067" lon="13.428330858252814"><ele>20.5</ele><time>2026-04-05T13:47:44Z</time></trkpt><trkpt lat="45.89477555898784" lon="13.42861776520778"><ele>20.0</ele><time>2026-04-05T13:47:45Z</time></trkpt><trkpt lat="45.89465629331848" lon="13.428921449255322"><ele>19.5</ele><time>2026-04-05T13:47:46Z</time></trkpt><trkpt lat="45.894521949036765" lon="13.429221169291223"><ele>19.0</ele><time>2026-04-05T13:47:47Z</time></trkpt><trkpt lat="45.89439088024053" lon="13.42952210968272"><ele>20.0</ele><time>2026-04-05T13:47:48Z</time></trkpt><trkpt lat="45.894272777129395" lon="13.429804121346722"><ele>21.0</ele><time>2026-04-05T13:47:49Z</time></trkpt><trkpt lat="45.894155554452865" lon="13.430078765456773"><ele>21.0</ele><time>2026-04-05T13:47:50Z</time></trkpt><trkpt lat="45.8940389699147" lon="13.430350578797693"><ele>21.0</ele><time>2026-04-05T13:47:51Z</time></trkpt><trkpt lat="45.89392126401996" lon="13.430616884779425"><ele>21.0</ele><time>2026-04-05T13:47:52Z</time></trkpt><trkpt lat="45.89380566978805" lon="13.43087506223443"><ele>21.0</ele><time>2026-04-05T13:47:53Z</time></trkpt><trkpt lat="45.8936927405898" lon="13.431129509976236"><ele>21.0</ele><time>2026-04-05T13:47:54Z</time></trkpt><trkpt lat="45.89358174287196" lon="13.431381742709007"><ele>21.0</ele><time>2026-04-05T13:47:55Z</time></trkpt><trkpt lat="45.89347212020059" lon="13.431630213878446"><ele>21.666666666666668</ele><time>2026-04-05T13:47:56Z</time></trkpt><trkpt lat="45.89336129480905" lon="13.43188407657761"><ele>22.333333333333336</ele><time>2026-04-05T13:47:57Z</time></trkpt><trkpt lat="45.89325450163699" lon="13.43213239623207"><ele>23.0</ele><time>2026-04-05T13:47:58Z</time></trkpt><trkpt lat="45.89314802881748" lon="13.432373048678432"><ele>23.0</ele><time>2026-04-05T13:47:59Z</time></trkpt><trkpt lat="45.89304662851075" lon="13.432608727300046"><ele>23.0</ele><time>2026-04-05T13:48:00Z</time></trkpt><trkpt lat="45.89294513856337" lon="13.432843585613234"><ele>23.0</ele><time>2026-04-05T13:48:01Z</time></trkpt><trkpt lat="45.89284340348136" lon="13.433076290494958"><ele>23.333333333333336</ele><time>2026-04-05T13:48:02Z</time></trkpt><trkpt lat="45.892743381335144" lon="13.433307227140459"><ele>23.666666666666668</ele><time>2026-04-05T13:48:03Z</time></trkpt><trkpt lat="45.892643765466204" lon="13.433537567518842"><ele>24.0</ele><time>2026-04-05T13:48:04Z</time></trkpt><trkpt lat="45.89254459083775" lon="13.433769780769117"><ele>23.0</ele><time>2026-04-05T13:48:05Z</time></trkpt><trkpt lat="45.892445170839174" lon="13.434002971539684"><ele>22.0</ele><time>2026-04-05T13:48:06Z</time></trkpt><trkpt lat="45.89234614529201" lon="13.434235672803736"><ele>21.0</ele><time>2026-04-05T13:48:07Z</time></trkpt><trkpt lat="45.892246142624415" lon="13.434466972215088"><ele>21.0</ele><time>2026-04-05T13:48:08Z</time></trkpt><trkpt lat="45.89214669666049" lon="13.43469861182881"><ele>21.0</ele><time>2026-04-05T13:48:09Z</time></trkpt><trkpt lat="45.89204652182859" lon="13.43493082696744"><ele>21.0</ele><time>2026-04-05T13:48:10Z</time></trkpt><trkpt lat="45.891946942756455" lon="13.43515901127953"><ele>21.0</ele><time>2026-04-05T13:48:11Z</time></trkpt><trkpt lat="45.891849295741295" lon="13.435389056215355"><ele>21.0</ele><time>2026-04-05T13:48:12Z</time></trkpt><trkpt lat="45.891752558022525" lon="13.435616458611516"><ele>21.0</ele><time>2026-04-05T13:48:13Z</time></trkpt><trkpt lat="45.89165582914217" lon="13.435839745442895"><ele>21.666666666666668</ele><time>2026-04-05T13:48:14Z</time></trkpt><trkpt lat="45.89155845646164" lon="13.436060845711513"><ele>22.333333333333336</ele><time>2026-04-05T13:48:15Z</time></trkpt><trkpt lat="45.891462123304706" lon="13.43627968335683"><ele>23.0</ele><time>2026-04-05T13:48:16Z</time></trkpt><trkpt lat="45.89136940876334" lon="13.436498459269593"><ele>23.0</ele><time>2026-04-05T13:48:17Z</time></trkpt><trkpt lat="45.89127695991436" lon="13.436713448176517"><ele>23.0</ele><time>2026-04-05T13:48:18Z</time></trkpt><trkpt lat="45.89118653118486" lon="13.436923075691094"><ele>23.0</ele><time>2026-04-05T13:48:19Z</time></trkpt><trkpt lat="45.89109788524875" lon="13.437128139639576"><ele>22.75</ele><time>2026-04-05T13:48:20Z</time></trkpt><trkpt lat="45.891020422241816" lon="13.437316887800346"><ele>22.5</ele><time>2026-04-05T13:48:21Z</time></trkpt><trkpt lat="45.89094734499088" lon="13.437483592060321"><ele>22.25</ele><time>2026-04-05T13:48:22Z</time></trkpt><trkpt lat="45.890886239829705" lon="13.437624175760869"><ele>22.0</ele><time>2026-04-05T13:48:23Z</time></trkpt><trkpt lat="45.89083769400131" lon="13.437741290940005"><ele>22.0</ele><time>2026-04-05T13:48:24Z</time></trkpt><trkpt lat="45.89080203926975" lon="13.437834253296147"><ele>22.0</ele><time>2026-04-05T13:48:25Z</time></trkpt><trkpt lat="45.89074669788555" lon="13.437912060098164"><ele>22.0</ele><time>2026-04-05T13:48:26Z</time></trkpt><trkpt lat="45.89096750054831" lon="13.437944048832097"><ele>22.0</ele><time>2026-04-05T13:48:29Z</time></trkpt><trkpt lat="45.891074408724684" lon="13.437838807111103"><ele>22.0</ele><time>2026-04-05T13:48:30Z</time></trkpt><trkpt lat="45.891219729136786" lon="13.437722198523282"><ele>22.0</ele><time>2026-04-05T13:48:31Z</time></trkpt><trkpt lat="45.891392279690244" lon="13.437570341607186"><ele>22.0</ele><time>2026-04-05T13:48:32Z</time></trkpt><trkpt lat="45.89156237222304" lon="13.437417498483917"><ele>22.0</ele><time>2026-04-05T13:48:33Z</time></trkpt><trkpt lat="45.891715934315584" lon="13.437295903598766"><ele>22.0</ele><time>2026-04-05T13:48:34Z</time></trkpt><trkpt lat="45.89183573365353" lon="13.437154559884226"><ele>22.0</ele><time>2026-04-05T13:48:35Z</time></trkpt><trkpt lat="45.8919438757663" lon="13.437052496383805"><ele>22.25</ele><time>2026-04-05T13:48:36Z</time></trkpt><trkpt lat="45.89205667670148" lon="13.436998805884938"><ele>22.5</ele><time>2026-04-05T13:48:37Z</time></trkpt><trkpt lat="45.892196772933005" lon="13.437030453046502"><ele>22.75</ele><time>2026-04-05T13:48:38Z</time></trkpt><trkpt lat="45.89235682874014" lon="13.437081755392164"><ele>23.0</ele><time>2026-04-05T13:48:39Z</time></trkpt><trkpt lat="45.89253133983398" lon="13.437126875106435"><ele>22.333333333333336</ele><time>2026-04-05T13:48:40Z</time></trkpt><trkpt lat="45.89272015506945" lon="13.437186776584593"><ele>21.666666666666668</ele><time>2026-04-05T13:48:41Z</time></trkpt><trkpt lat="45.89292732156239" lon="13.437253412847884"><ele>21.0</ele><time>2026-04-05T13:48:42Z</time></trkpt><trkpt lat="45.89314472786708" lon="13.437326173692636"><ele>21.0</ele><time>2026-04-05T13:48:43Z</time></trkpt><trkpt lat="45.893366205643865" lon="13.43739952081791"><ele>21.0</ele><time>2026-04-05T13:48:44Z</time></trkpt><trkpt lat="45.89358716885143" lon="13.437471072522287"><ele>21.666666666666668</ele><time>2026-04-05T13:48:45Z</time></trkpt><trkpt lat="45.893802385021665" lon="13.437536781756204"><ele>22.333333333333336</ele><time>2026-04-05T13:48:46Z</time></trkpt><trkpt lat="45.89401297497051" lon="13.43760355675288"><ele>23.0</ele><time>2026-04-05T13:48:47Z</time></trkpt><trkpt lat="45.89421977204973" lon="13.437671466535487"><ele>22.666666666666668</ele><time>2026-04-05T13:48:48Z</time></trkpt><trkpt lat="45.894427119514894" lon="13.437736138251992"><ele>22.333333333333332</ele><time>2026-04-05T13:48:49Z</time></trkpt><trkpt lat="45.89463607896647" lon="13.437802749688926"><ele>22.0</ele><time>2026-04-05T13:48:50Z</time></trkpt><trkpt lat="45.89484751876788" lon="13.437870497554268"><ele>22.0</ele><time>2026-04-05T13:48:51Z</time></trkpt><trkpt lat="45.89506216240611" lon="13.437938124290334"><ele>22.0</ele><time>2026-04-05T13:48:52Z</time></trkpt><trkpt lat="45.89527886764596" lon="13.438003760395507"><ele>22.0</ele><time>2026-04-05T13:48:53Z</time></trkpt><trkpt lat="45.89549793414274" lon="13.43807206901817"><ele>22.0</ele><time>2026-04-05T13:48:54Z</time></trkpt><trkpt lat="45.89571439023663" lon="13.438145950205017"><ele>22.0</ele><time>2026-04-05T13:48:55Z</time></trkpt><trkpt lat="45.89592343401057" lon="13.438219377048915"><ele>22.0</ele><time>2026-04-05T13:48:56Z</time></trkpt><trkpt lat="45.89612521192282" lon="13.438296875271645"><ele>22.0</ele><time>2026-04-05T13:48:57Z</time></trkpt><trkpt lat="45.89632039220799" lon="13.43838377895702"><ele>22.0</ele><time>2026-04-05T13:48:58Z</time></trkpt><trkpt lat="45.89651014884838" lon="13.438483916228053"><ele>22.0</ele><time>2026-04-05T13:48:59Z</time></trkpt><trkpt lat="45.89669626085862" lon="13.438598093462128"><ele>21.666666666666664</ele><time>2026-04-05T13:49:00Z</time></trkpt><trkpt lat="45.89687718224588" lon="13.438722852245084"><ele>21.333333333333332</ele><time>2026-04-05T13:49:01Z</time></trkpt><trkpt lat="45.89705223812179" lon="13.438855563005122"><ele>21.0</ele><time>2026-04-05T13:49:02Z</time></trkpt><trkpt lat="45.89722553576645" lon="13.438996269800477"><ele>21.0</ele><time>2026-04-05T13:49:03Z</time></trkpt><trkpt lat="45.897399059192544" lon="13.439144512900562"><ele>21.0</ele><time>2026-04-05T13:49:04Z</time></trkpt><trkpt lat="45.89757645595782" lon="13.439290724418274"><ele>21.0</ele><time>2026-04-05T13:49:05Z</time></trkpt><trkpt lat="45.89775948072403" lon="13.439431268983931"><ele>21.0</ele><time>2026-04-05T13:49:06Z</time></trkpt><trkpt lat="45.897952002204" lon="13.439565501703509"><ele>21.0</ele><time>2026-04-05T13:49:07Z</time></trkpt><trkpt lat="45.89815330440747" lon="13.439688060669027"><ele>21.0</ele><time>2026-04-05T13:49:08Z</time></trkpt><trkpt lat="45.89836507349947" lon="13.439800629732472"><ele>21.0</ele><time>2026-04-05T13:49:09Z</time></trkpt><trkpt lat="45.89858667380575" lon="13.439899860501834"><ele>21.0</ele><time>2026-04-05T13:49:10Z</time></trkpt><trkpt lat="45.898820032200604" lon="13.439983551542435"><ele>21.0</ele><time>2026-04-05T13:49:11Z</time></trkpt><trkpt lat="45.8990647791548" lon="13.440050092939243"><ele>21.0</ele><time>2026-04-05T13:49:12Z</time></trkpt><trkpt lat="45.89932553804713" lon="13.440110070463104"><ele>21.0</ele><time>2026-04-05T13:49:13Z</time></trkpt><trkpt lat="45.89960648057357" lon="13.440171416171337"><ele>21.0</ele><time>2026-04-05T13:49:14Z</time></trkpt><trkpt lat="45.89990891695638" lon="13.44021856734932"><ele>20.5</ele><time>2026-04-05T13:49:15Z</time></trkpt><trkpt lat="45.90023227645599" lon="13.4402798487126"><ele>20.0</ele><time>2026-04-05T13:49:15.999Z</time></trkpt><trkpt lat="45.90056514468058" lon="13.440349291269024"><ele>20.0</ele><time>2026-04-05T13:49:16.999Z</time></trkpt><trkpt lat="45.90089032593552" lon="13.440417385251077"><ele>20.0</ele><time>2026-04-05T13:49:17.999Z</time></trkpt><trkpt lat="45.901211051319144" lon="13.440483805653237"><ele>20.5</ele><time>2026-04-05T13:49:18.999Z</time></trkpt><trkpt lat="45.90152235012467" lon="13.44055218811394"><ele>21.0</ele><time>2026-04-05T13:49:19.999Z</time></trkpt><trkpt lat="45.90182260750207" lon="13.440632317103622"><ele>22.0</ele><time>2026-04-05T13:49:20.999Z</time></trkpt><trkpt lat="45.90211215652423" lon="13.440750866401457"><ele>23.0</ele><time>2026-04-05T13:49:21.999Z</time></trkpt><trkpt lat="45.902395760540415" lon="13.440907816455807"><ele>22.5</ele><time>2026-04-05T13:49:23Z</time></trkpt><trkpt lat="45.902676853935596" lon="13.441083921745102"><ele>22.0</ele><time>2026-04-05T13:49:24Z</time></trkpt><trkpt lat="45.902950664759416" lon="13.441280212135986"><ele>22.5</ele><time>2026-04-05T13:49:25Z</time></trkpt><trkpt lat="45.903212954549545" lon="13.441475331441325"><ele>23.0</ele><time>2026-04-05T13:49:26Z</time></trkpt><trkpt lat="45.903450277836605" lon="13.441645426018635"><ele>23.5</ele><time>2026-04-05T13:49:27Z</time></trkpt><trkpt lat="45.90367500599808" lon="13.441799556861069"><ele>24.0</ele><time>2026-04-05T13:49:28Z</time></trkpt><trkpt lat="45.903904975792976" lon="13.441934132942805"><ele>24.0</ele><time>2026-04-05T13:49:29Z</time></trkpt><trkpt lat="45.90415284329448" lon="13.442034219960936"><ele>24.0</ele><time>2026-04-05T13:49:30Z</time></trkpt><trkpt lat="45.90441554625902" lon="13.442103190763577"><ele>23.5</ele><time>2026-04-05T13:49:31Z</time></trkpt><trkpt lat="45.90468569354742" lon="13.442118064118201"><ele>23.0</ele><time>2026-04-05T13:49:32Z</time></trkpt><trkpt lat="45.904955853415025" lon="13.44207911273586"><ele>22.5</ele><time>2026-04-05T13:49:33Z</time></trkpt><trkpt lat="45.90522306591661" lon="13.442005935209554"><ele>22.0</ele><time>2026-04-05T13:49:34Z</time></trkpt><trkpt lat="45.90549680898465" lon="13.441929635238838"><ele>22.0</ele><time>2026-04-05T13:49:35Z</time></trkpt><trkpt lat="45.90576710666783" lon="13.441841250735871"><ele>22.0</ele><time>2026-04-05T13:49:36Z</time></trkpt><trkpt lat="45.90598785272399" lon="13.441403542010425"><ele>23.0</ele><time>2026-04-05T13:49:37Z</time></trkpt><trkpt lat="45.90622040501624" lon="13.441216650892505"><ele>24.0</ele><time>2026-04-05T13:49:38Z</time></trkpt><trkpt lat="45.906433822302795" lon="13.441048535516321"><ele>24.0</ele><time>2026-04-05T13:49:39Z</time></trkpt><trkpt lat="45.90663034555399" lon="13.4408911360198"><ele>24.0</ele><time>2026-04-05T13:49:40Z</time></trkpt><trkpt lat="45.90680298444521" lon="13.440739464827944"><ele>24.0</ele><time>2026-04-05T13:49:41Z</time></trkpt><trkpt lat="45.90693395994354" lon="13.44059804598473"><ele>24.333333333333336</ele><time>2026-04-05T13:49:42Z</time></trkpt><trkpt lat="45.90703714484839" lon="13.440447911234392"><ele>24.666666666666668</ele><time>2026-04-05T13:49:43Z</time></trkpt><trkpt lat="45.90711941070375" lon="13.440267961308107"><ele>25.0</ele><time>2026-04-05T13:49:44Z</time></trkpt><trkpt lat="45.907210439391676" lon="13.440058100310768"><ele>25.0</ele><time>2026-04-05T13:49:45Z</time></trkpt><trkpt lat="45.90731948012991" lon="13.439847067259377"><ele>25.0</ele><time>2026-04-05T13:49:46Z</time></trkpt><trkpt lat="45.9074328814513" lon="13.439638381327637"><ele>25.0</ele><time>2026-04-05T13:49:47Z</time></trkpt><trkpt lat="45.90754925112823" lon="13.439438464770722"><ele>25.333333333333336</ele><time>2026-04-05T13:49:48Z</time></trkpt><trkpt lat="45.90766360127728" lon="13.439250254071831"><ele>25.666666666666664</ele><time>2026-04-05T13:49:49Z</time></trkpt><trkpt lat="45.90775717836214" lon="13.439075440417776"><ele>26.0</ele><time>2026-04-05T13:49:50Z</time></trkpt><trkpt lat="45.90784466710946" lon="13.438928341308639"><ele>26.0</ele><time>2026-04-05T13:49:51Z</time></trkpt><trkpt lat="45.9079247915955" lon="13.438828591038398"><ele>26.0</ele><time>2026-04-05T13:49:52Z</time></trkpt><trkpt lat="45.90799865113521" lon="13.438757626581028"><ele>26.0</ele><time>2026-04-05T13:49:53Z</time></trkpt><trkpt lat="45.90807055925858" lon="13.438729592530775"><ele>26.0</ele><time>2026-04-05T13:49:54Z</time></trkpt><trkpt lat="45.90816612107614" lon="13.438734551434509"><ele>26.0</ele><time>2026-04-05T13:49:55Z</time></trkpt><trkpt lat="45.90826716876425" lon="13.438772798535156"><ele>26.0</ele><time>2026-04-05T13:49:56Z</time></trkpt><trkpt lat="45.9083655399946" lon="13.438850223812018"><ele>26.0</ele><time>2026-04-05T13:49:57Z</time></trkpt><trkpt lat="45.9084317102898" lon="13.438974264804255"><ele>26.0</ele><time>2026-04-05T13:49:58Z</time></trkpt><trkpt lat="45.90849137130351" lon="13.43914572729378"><ele>26.0</ele><time>2026-04-05T13:49:59Z</time></trkpt><trkpt lat="45.908561363704806" lon="13.439339443235486"><ele>26.0</ele><time>2026-04-05T13:50:00Z</time></trkpt><trkpt lat="45.90864057167612" lon="13.439544226505046"><ele>26.0</ele><time>2026-04-05T13:50:01Z</time></trkpt><trkpt lat="45.90873081251755" lon="13.439755250075233"><ele>26.0</ele><time>2026-04-05T13:50:02Z</time></trkpt><trkpt lat="45.908821191761234" lon="13.439979840870484"><ele>25.666666666666664</ele><time>2026-04-05T13:50:03Z</time></trkpt><trkpt lat="45.908923185456764" lon="13.440200635649346"><ele>25.333333333333336</ele><time>2026-04-05T13:50:04Z</time></trkpt><trkpt lat="45.90902486364251" lon="13.440440552457781"><ele>25.0</ele><time>2026-04-05T13:50:05Z</time></trkpt><trkpt lat="45.90913080875679" lon="13.440695391921368"><ele>25.0</ele><time>2026-04-05T13:50:06Z</time></trkpt><trkpt lat="45.90924530028579" lon="13.440949705155756"><ele>25.0</ele><time>2026-04-05T13:50:07Z</time></trkpt><trkpt lat="45.909356642258444" lon="13.441208795919513"><ele>25.0</ele><time>2026-04-05T13:50:08Z</time></trkpt><trkpt lat="45.909471167265096" lon="13.44148155200991"><ele>25.0</ele><time>2026-04-05T13:50:09Z</time></trkpt><trkpt lat="45.90959255372837" lon="13.441764763824324"><ele>25.0</ele><time>2026-04-05T13:50:10Z</time></trkpt><trkpt lat="45.90971639020697" lon="13.442069986609527"><ele>24.5</ele><time>2026-04-05T13:50:11Z</time></trkpt><trkpt lat="45.909834654920594" lon="13.44242006851949"><ele>24.0</ele><time>2026-04-05T13:50:12Z</time></trkpt><trkpt lat="45.90995004794263" lon="13.442821974311444"><ele>24.5</ele><time>2026-04-05T13:50:13Z</time></trkpt><trkpt lat="45.91006331253349" lon="13.443276994838516"><ele>25.0</ele><time>2026-04-05T13:50:14Z</time></trkpt><trkpt lat="45.9101832020773" lon="13.443765657958023"><ele>25.5</ele><time>2026-04-05T13:50:15Z</time></trkpt><trkpt lat="45.91031221616265" lon="13.444278704312225"><ele>26.0</ele><time>2026-04-05T13:50:16Z</time></trkpt><trkpt lat="45.91044795588601" lon="13.444806849456544"><ele>26.0</ele><time>2026-04-05T13:50:17Z</time></trkpt><trkpt lat="45.91058625172517" lon="13.445324706271482"><ele>26.0</ele><time>2026-04-05T13:50:18Z</time></trkpt><trkpt lat="45.91072662295767" lon="13.445829264959096"><ele>26.0</ele><time>2026-04-05T13:50:19Z</time></trkpt><trkpt lat="45.91086490937655" lon="13.446314787533826"><ele>26.0</ele><time>2026-04-05T13:50:20Z</time></trkpt><trkpt lat="45.91099425856924" lon="13.446785956468158"><ele>25.0</ele><time>2026-04-05T13:50:21Z</time></trkpt><trkpt lat="45.91110476074176" lon="13.447236134554238"><ele>24.0</ele><time>2026-04-05T13:50:22Z</time></trkpt><trkpt lat="45.91118691765857" lon="13.447648003970052"><ele>24.0</ele><time>2026-04-05T13:50:23Z</time></trkpt><trkpt lat="45.91124277980395" lon="13.448039736386322"><ele>24.0</ele><time>2026-04-05T13:50:24Z</time></trkpt><trkpt lat="45.91128278154667" lon="13.448409877465703"><ele>24.0</ele><time>2026-04-05T13:50:25Z</time></trkpt><trkpt lat="45.911308822307824" lon="13.448754398731065"><ele>24.0</ele><time>2026-04-05T13:50:26Z</time></trkpt><trkpt lat="45.91132595745144" lon="13.449084742119949"><ele>24.0</ele><time>2026-04-05T13:50:27Z</time></trkpt><trkpt lat="45.911337235971295" lon="13.449401756288118"><ele>24.0</ele><time>2026-04-05T13:50:28Z</time></trkpt><trkpt lat="45.91135052783296" lon="13.449697452438324"><ele>24.0</ele><time>2026-04-05T13:50:29Z</time></trkpt><trkpt lat="45.911374174209215" lon="13.450007440043025"><ele>24.0</ele><time>2026-04-05T13:50:30Z</time></trkpt><trkpt lat="45.91142519739478" lon="13.450325377531152"><ele>24.0</ele><time>2026-04-05T13:50:31Z</time></trkpt><trkpt lat="45.91149101363412" lon="13.450672102283667"><ele>25.0</ele><time>2026-04-05T13:50:32Z</time></trkpt><trkpt lat="45.91155870495992" lon="13.451044320441072"><ele>26.0</ele><time>2026-04-05T13:50:33Z</time></trkpt><trkpt lat="45.91163798759645" lon="13.451425169681464"><ele>26.5</ele><time>2026-04-05T13:50:34Z</time></trkpt><trkpt lat="45.91173423678204" lon="13.451800481307778"><ele>27.0</ele><time>2026-04-05T13:50:35Z</time></trkpt><trkpt lat="45.911835137293224" lon="13.452164871112508"><ele>27.0</ele><time>2026-04-05T13:50:36Z</time></trkpt><trkpt lat="45.91193115058233" lon="13.452514585943106"><ele>27.0</ele><time>2026-04-05T13:50:37Z</time></trkpt><trkpt lat="45.91202116890412" lon="13.452826875136399"><ele>27.5</ele><time>2026-04-05T13:50:38Z</time></trkpt><trkpt lat="45.91211585714013" lon="13.45312039546131"><ele>28.0</ele><time>2026-04-05T13:50:39Z</time></trkpt><trkpt lat="45.91223762968849" lon="13.45339669111876"><ele>28.0</ele><time>2026-04-05T13:50:40Z</time></trkpt><trkpt lat="45.91238739819011" lon="13.453654502733848"><ele>28.0</ele><time>2026-04-05T13:50:41Z</time></trkpt><trkpt lat="45.91256131582883" lon="13.453889276086777"><ele>29.0</ele><time>2026-04-05T13:50:42Z</time></trkpt><trkpt lat="45.91275833710291" lon="13.454095118001284"><ele>30.0</ele><time>2026-04-05T13:50:43Z</time></trkpt><trkpt lat="45.91296451495955" lon="13.454284658012968"><ele>30.0</ele><time>2026-04-05T13:50:44Z</time></trkpt><trkpt lat="45.91314758344437" lon="13.454486967023088"><ele>30.0</ele><time>2026-04-05T13:50:45Z</time></trkpt><trkpt lat="45.913324964662536" lon="13.454642065751118"><ele>30.0</ele><time>2026-04-05T13:50:46Z</time></trkpt><trkpt lat="45.91347499228367" lon="13.454830453178198"><ele>30.0</ele><time>2026-04-05T13:50:47Z</time></trkpt><trkpt lat="45.913614129959676" lon="13.45505032570401"><ele>30.0</ele><time>2026-04-05T13:50:48Z</time></trkpt><trkpt lat="45.9137381788319" lon="13.455283632301912"><ele>30.0</ele><time>2026-04-05T13:50:49Z</time></trkpt><trkpt lat="45.9138580040689" lon="13.455518214882543"><ele>30.0</ele><time>2026-04-05T13:50:50Z</time></trkpt><trkpt lat="45.91396950283375" lon="13.455748707422995"><ele>30.0</ele><time>2026-04-05T13:50:51Z</time></trkpt><trkpt lat="45.91405924081017" lon="13.455993419979526"><ele>30.0</ele><time>2026-04-05T13:50:52Z</time></trkpt><trkpt lat="45.914130431661114" lon="13.456252362850009"><ele>30.0</ele><time>2026-04-05T13:50:53Z</time></trkpt><trkpt lat="45.91418727905693" lon="13.456516127570845"><ele>30.0</ele><time>2026-04-05T13:50:54Z</time></trkpt><trkpt lat="45.91423986632771" lon="13.456788277901827"><ele>30.0</ele><time>2026-04-05T13:50:55Z</time></trkpt><trkpt lat="45.91429944156785" lon="13.45706550627311"><ele>30.666666666666664</ele><time>2026-04-05T13:50:56Z</time></trkpt><trkpt lat="45.91437296112147" lon="13.45732937750123"><ele>31.333333333333332</ele><time>2026-04-05T13:50:57Z</time></trkpt><trkpt lat="45.914461339964326" lon="13.457582543256581"><ele>32.0</ele><time>2026-04-05T13:50:58Z</time></trkpt><trkpt lat="45.914566497783795" lon="13.457822041744405"><ele>31.333333333333332</ele><time>2026-04-05T13:50:59Z</time></trkpt><trkpt lat="45.91467780652564" lon="13.458047362221787"><ele>30.666666666666664</ele><time>2026-04-05T13:51:00Z</time></trkpt><trkpt lat="45.914764798906" lon="13.458268773907859"><ele>30.0</ele><time>2026-04-05T13:51:01Z</time></trkpt><trkpt lat="45.91485134022186" lon="13.458443578754688"><ele>30.0</ele><time>2026-04-05T13:51:02Z</time></trkpt><trkpt lat="45.91492174558292" lon="13.458585790578176"><ele>30.0</ele><time>2026-04-05T13:51:03Z</time></trkpt><trkpt lat="45.9149866398298" lon="13.458681253302997"><ele>30.0</ele><time>2026-04-05T13:51:04Z</time></trkpt><trkpt lat="45.91502243561303" lon="13.458772591417548"><ele>30.0</ele><time>2026-04-05T13:51:05Z</time></trkpt><trkpt lat="45.91506708972892" lon="13.458913071085153"><ele>30.0</ele><time>2026-04-05T13:51:13Z</time></trkpt><trkpt lat="45.915183355565695" lon="13.458885115637164"><ele>30.666666666666664</ele><time>2026-04-05T13:51:14Z</time></trkpt><trkpt lat="45.915314933235976" lon="13.458836295081202"><ele>31.333333333333332</ele><time>2026-04-05T13:51:15Z</time></trkpt><trkpt lat="45.915485439454116" lon="13.458803237160241"><ele>32.0</ele><time>2026-04-05T13:51:16Z</time></trkpt><trkpt lat="45.91567118867723" lon="13.45878971327417"><ele>32.0</ele><time>2026-04-05T13:51:17Z</time></trkpt><trkpt lat="45.91587863195717" lon="13.45876277543663"><ele>32.0</ele><time>2026-04-05T13:51:18Z</time></trkpt><trkpt lat="45.91608535161708" lon="13.458686925933417"><ele>32.0</ele><time>2026-04-05T13:51:18.999Z</time></trkpt><trkpt lat="45.916277826469454" lon="13.458559869050339"><ele>32.0</ele><time>2026-04-05T13:51:19.999Z</time></trkpt><trkpt lat="45.916466222202246" lon="13.458401896937918"><ele>32.0</ele><time>2026-04-05T13:51:20.999Z</time></trkpt><trkpt lat="45.91665065689526" lon="13.458242325479796"><ele>32.0</ele><time>2026-04-05T13:51:21.999Z</time></trkpt><trkpt lat="45.916811590164606" lon="13.458111415239706"><ele>32.0</ele><time>2026-04-05T13:51:22.999Z</time></trkpt><trkpt lat="45.9169601485682" lon="13.457996799252518"><ele>32.0</ele><time>2026-04-05T13:51:23.999Z</time></trkpt><trkpt lat="45.91709896638583" lon="13.457914009730267"><ele>32.0</ele><time>2026-04-05T13:51:24.999Z</time></trkpt><trkpt lat="45.91724046101615" lon="13.457874033405352"><ele>32.0</ele><time>2026-04-05T13:51:25.999Z</time></trkpt><trkpt lat="45.91738348928531" lon="13.45786285404832"><ele>32.0</ele><time>2026-04-05T13:51:26.999Z</time></trkpt><trkpt lat="45.91753595390438" lon="13.457859052342794"><ele>32.0</ele><time>2026-04-05T13:51:28Z</time></trkpt><trkpt lat="45.91768754602187" lon="13.457848258858059"><ele>32.0</ele><time>2026-04-05T13:51:29Z</time></trkpt><trkpt lat="45.91784115279563" lon="13.457841549682117"><ele>32.0</ele><time>2026-04-05T13:51:30Z</time></trkpt><trkpt lat="45.91799703748696" lon="13.457841800051977"><ele>32.0</ele><time>2026-04-05T13:51:31Z</time></trkpt><trkpt lat="45.918145403434586" lon="13.457845517045431"><ele>32.0</ele><time>2026-04-05T13:51:32Z</time></trkpt><trkpt lat="45.918293266529304" lon="13.457838024442657"><ele>32.0</ele><time>2026-04-05T13:51:33Z</time></trkpt><trkpt lat="45.918442808273305" lon="13.457792645879604"><ele>32.0</ele><time>2026-04-05T13:51:34Z</time></trkpt><trkpt lat="45.9185924939506" lon="13.457737363931578"><ele>32.0</ele><time>2026-04-05T13:51:35Z</time></trkpt><trkpt lat="45.918744475217814" lon="13.457679661492831"><ele>32.0</ele><time>2026-04-05T13:51:36Z</time></trkpt><trkpt lat="45.91889943700257" lon="13.45764272476783"><ele>32.0</ele><time>2026-04-05T13:51:37Z</time></trkpt><trkpt lat="45.919050416465836" lon="13.457584163411163"><ele>32.0</ele><time>2026-04-05T13:51:38Z</time></trkpt><trkpt lat="45.919199096114504" lon="13.45751095766331"><ele>32.33333333333333</ele><time>2026-04-05T13:51:39Z</time></trkpt><trkpt lat="45.91935250756868" lon="13.457460716046146"><ele>32.666666666666664</ele><time>2026-04-05T13:51:40Z</time></trkpt><trkpt lat="45.919504687828585" lon="13.45739917072557"><ele>33.0</ele><time>2026-04-05T13:51:41Z</time></trkpt><trkpt lat="45.91965526540732" lon="13.457308433796157"><ele>33.0</ele><time>2026-04-05T13:51:42Z</time></trkpt><trkpt lat="45.91980014562562" lon="13.457184553674653"><ele>33.0</ele><time>2026-04-05T13:51:43Z</time></trkpt><trkpt lat="45.91994790188362" lon="13.4570610554489"><ele>33.0</ele><time>2026-04-05T13:51:44Z</time></trkpt><trkpt lat="45.92009839703477" lon="13.456956852683987"><ele>32.666666666666664</ele><time>2026-04-05T13:51:45Z</time></trkpt><trkpt lat="45.920254344930015" lon="13.456854404109624"><ele>32.33333333333333</ele><time>2026-04-05T13:51:46Z</time></trkpt><trkpt lat="45.92040357691898" lon="13.456741382859377"><ele>32.0</ele><time>2026-04-05T13:51:47Z</time></trkpt><trkpt lat="45.92055625498715" lon="13.456619275580918"><ele>32.0</ele><time>2026-04-05T13:51:48Z</time></trkpt><trkpt lat="45.92072343397767" lon="13.456494261367437"><ele>32.0</ele><time>2026-04-05T13:51:49Z</time></trkpt><trkpt lat="45.92089790267838" lon="13.456363607024315"><ele>32.0</ele><time>2026-04-05T13:51:50Z</time></trkpt><trkpt lat="45.92107969810421" lon="13.456224645648097"><ele>32.0</ele><time>2026-04-05T13:51:51Z</time></trkpt><trkpt lat="45.921284139038214" lon="13.456067236027875"><ele>32.0</ele><time>2026-04-05T13:51:52Z</time></trkpt><trkpt lat="45.921504097067114" lon="13.455896565702892"><ele>30.5</ele><time>2026-04-05T13:51:53Z</time></trkpt><trkpt lat="45.921735087482446" lon="13.455719588209172"><ele>29.0</ele><time>2026-04-05T13:51:54Z</time></trkpt><trkpt lat="45.92198052372556" lon="13.455535780898106"><ele>29.5</ele><time>2026-04-05T13:51:55Z</time></trkpt><trkpt lat="45.92223756206466" lon="13.455341701143713"><ele>30.0</ele><time>2026-04-05T13:51:56Z</time></trkpt><trkpt lat="45.92250439118539" lon="13.455139490876853"><ele>30.0</ele><time>2026-04-05T13:51:57Z</time></trkpt><trkpt lat="45.92277840025664" lon="13.45493518063242"><ele>30.0</ele><time>2026-04-05T13:51:58Z</time></trkpt><trkpt lat="45.923055707999254" lon="13.454728363362419"><ele>30.5</ele><time>2026-04-05T13:51:59Z</time></trkpt><trkpt lat="45.923334441082176" lon="13.454517901036509"><ele>31.0</ele><time>2026-04-05T13:52:00Z</time></trkpt><trkpt lat="45.92361421904604" lon="13.45430687445347"><ele>31.0</ele><time>2026-04-05T13:52:01Z</time></trkpt><trkpt lat="45.92389328976999" lon="13.454096592171169"><ele>31.0</ele><time>2026-04-05T13:52:02Z</time></trkpt><trkpt lat="45.924164632862585" lon="13.453896491278302"><ele>31.0</ele><time>2026-04-05T13:52:03Z</time></trkpt><trkpt lat="45.924425835687686" lon="13.45373164529488"><ele>31.0</ele><time>2026-04-05T13:52:04Z</time></trkpt><trkpt lat="45.92468594086304" lon="13.45360613461144"><ele>31.0</ele><time>2026-04-05T13:52:05Z</time></trkpt><trkpt lat="45.92494834669873" lon="13.453513067818559"><ele>31.0</ele><time>2026-04-05T13:52:06Z</time></trkpt><trkpt lat="45.92521522046983" lon="13.453461443016902"><ele>31.0</ele><time>2026-04-05T13:52:07Z</time></trkpt><trkpt lat="45.925483882782295" lon="13.453435085312394"><ele>31.0</ele><time>2026-04-05T13:52:08Z</time></trkpt><trkpt lat="45.925757280310954" lon="13.453404309379671"><ele>31.5</ele><time>2026-04-05T13:52:09Z</time></trkpt><trkpt lat="45.92603357888003" lon="13.453373214966813"><ele>32.0</ele><time>2026-04-05T13:52:10Z</time></trkpt><trkpt lat="45.92631238464412" lon="13.453343842119505"><ele>32.0</ele><time>2026-04-05T13:52:11Z</time></trkpt><trkpt lat="45.92659369644021" lon="13.453310856315365"><ele>32.0</ele><time>2026-04-05T13:52:12Z</time></trkpt><trkpt lat="45.926868294300846" lon="13.453276466946404"><ele>31.5</ele><time>2026-04-05T13:52:13Z</time></trkpt><trkpt lat="45.927133708972285" lon="13.453245939183567"><ele>31.0</ele><time>2026-04-05T13:52:14Z</time></trkpt><trkpt lat="45.92737929573522" lon="13.453220596147606"><ele>31.666666666666668</ele><time>2026-04-05T13:52:15Z</time></trkpt><trkpt lat="45.927606648918086" lon="13.45319629006862"><ele>32.333333333333336</ele><time>2026-04-05T13:52:16Z</time></trkpt><trkpt lat="45.92781465160635" lon="13.453169466616899"><ele>33.0</ele><time>2026-04-05T13:52:17Z</time></trkpt><trkpt lat="45.92799667472626" lon="13.45313651176325"><ele>33.0</ele><time>2026-04-05T13:52:18Z</time></trkpt><trkpt lat="45.92815433972596" lon="13.453086666808744"><ele>33.0</ele><time>2026-04-05T13:52:19Z</time></trkpt><trkpt lat="45.92829541478197" lon="13.45300901287799"><ele>33.0</ele><time>2026-04-05T13:52:20Z</time></trkpt><trkpt lat="45.928411808308454" lon="13.452905669849049"><ele>33.0</ele><time>2026-04-05T13:52:21Z</time></trkpt><trkpt lat="45.9285083624736" lon="13.452767605675733"><ele>33.5</ele><time>2026-04-05T13:52:22Z</time></trkpt><trkpt lat="45.92859772003213" lon="13.452582897381877"><ele>34.0</ele><time>2026-04-05T13:52:23Z</time></trkpt><trkpt lat="45.92867077815955" lon="13.452384641002912"><ele>34.5</ele><time>2026-04-05T13:52:24Z</time></trkpt><trkpt lat="45.928729279329396" lon="13.452225540531934"><ele>35.0</ele><time>2026-04-05T13:52:25Z</time></trkpt><trkpt lat="45.928785180282176" lon="13.452104573003423"><ele>35.0</ele><time>2026-04-05T13:52:26Z</time></trkpt><trkpt lat="45.92885334100922" lon="13.452024770917374"><ele>35.0</ele><time>2026-04-05T13:52:27Z</time></trkpt><trkpt lat="45.92893392316175" lon="13.452000860558481"><ele>35.0</ele><time>2026-04-05T13:52:28Z</time></trkpt><trkpt lat="45.92900482223525" lon="13.452025210271357"><ele>35.0</ele><time>2026-04-05T13:52:29Z</time></trkpt><trkpt lat="45.9290717023248" lon="13.45207604848018"><ele>35.0</ele><time>2026-04-05T13:52:30Z</time></trkpt><trkpt lat="45.929149708634704" lon="13.452164083743432"><ele>35.0</ele><time>2026-04-05T13:52:31Z</time></trkpt><trkpt lat="45.92921759845655" lon="13.452274151033224"><ele>34.25</ele><time>2026-04-05T13:52:32Z</time></trkpt><trkpt lat="45.92926070000998" lon="13.452397325381941"><ele>33.5</ele><time>2026-04-05T13:52:33Z</time></trkpt><trkpt lat="45.92927167908249" lon="13.45254472843086"><ele>32.75</ele><time>2026-04-05T13:52:34Z</time></trkpt><trkpt lat="45.92926006916139" lon="13.452720485156485"><ele>32.0</ele><time>2026-04-05T13:52:35Z</time></trkpt><trkpt lat="45.92923939772659" lon="13.452925374802257"><ele>32.25</ele><time>2026-04-05T13:52:36Z</time></trkpt><trkpt lat="45.929228440499145" lon="13.453123732777595"><ele>32.5</ele><time>2026-04-05T13:52:37Z</time></trkpt><trkpt lat="45.92922293423702" lon="13.45330078553794"><ele>32.75</ele><time>2026-04-05T13:52:38Z</time></trkpt><trkpt lat="45.92921459136657" lon="13.453447841963468"><ele>33.0</ele><time>2026-04-05T13:52:39Z</time></trkpt><trkpt lat="45.929180978221865" lon="13.453565373597304"><ele>33.4</ele><time>2026-04-05T13:52:40Z</time></trkpt><trkpt lat="45.92910160057349" lon="13.453637179674928"><ele>33.8</ele><time>2026-04-05T13:52:41Z</time></trkpt><trkpt lat="45.929003674644306" lon="13.453677507560606"><ele>34.2</ele><time>2026-04-05T13:52:42Z</time></trkpt><trkpt lat="45.92889073355072" lon="13.453698294115583"><ele>34.6</ele><time>2026-04-05T13:52:43Z</time></trkpt><trkpt lat="45.92878787680639" lon="13.453690532526146"><ele>35.0</ele><time>2026-04-05T13:52:44Z</time></trkpt><trkpt lat="45.928699339230526" lon="13.453632378518874"><ele>35.0</ele><time>2026-04-05T13:52:45Z</time></trkpt><trkpt lat="45.92864959504872" lon="13.453517735520968"><ele>35.0</ele><time>2026-04-05T13:52:46Z</time></trkpt><trkpt lat="45.9286413583642" lon="13.453385284630652"><ele>35.0</ele><time>2026-04-05T13:52:47Z</time></trkpt><trkpt lat="45.92867063993236" lon="13.45326233547205"><ele>35.0</ele><time>2026-04-05T13:52:48Z</time></trkpt><trkpt lat="45.928734919841894" lon="13.453164153921373"><ele>35.0</ele><time>2026-04-05T13:52:49Z</time></trkpt><trkpt lat="45.92882708567659" lon="13.453099991417794"><ele>35.0</ele><time>2026-04-05T13:52:50Z</time></trkpt><trkpt lat="45.92892943166861" lon="13.452996319293595"><ele>35.0</ele><time>2026-04-05T13:52:51Z</time></trkpt><trkpt lat="45.9291316340007" lon="13.453010422881219"><ele>35.0</ele><time>2026-04-05T13:52:52Z</time></trkpt><trkpt lat="45.92935561965694" lon="13.452946036932723"><ele>33.5</ele><time>2026-04-05T13:52:53Z</time></trkpt><trkpt lat="45.92960828483867" lon="13.452865462228543"><ele>32.0</ele><time>2026-04-05T13:52:54Z</time></trkpt><trkpt lat="45.92988980355607" lon="13.452776411059732"><ele>33.0</ele><time>2026-04-05T13:52:55Z</time></trkpt><trkpt lat="45.93017506334703" lon="13.452674657953049"><ele>34.0</ele><time>2026-04-05T13:52:56Z</time></trkpt><trkpt lat="45.930469973350036" lon="13.452555289444572"><ele>34.0</ele><time>2026-04-05T13:52:57Z</time></trkpt><trkpt lat="45.930766778646806" lon="13.452465156930625"><ele>34.0</ele><time>2026-04-05T13:52:58Z</time></trkpt><trkpt lat="45.931050429877324" lon="13.452351424521188"><ele>35.0</ele><time>2026-04-05T13:52:59Z</time></trkpt><trkpt lat="45.93133721218892" lon="13.4522293725254"><ele>36.0</ele><time>2026-04-05T13:53:00Z</time></trkpt><trkpt lat="45.93162444853794" lon="13.45210235786021"><ele>35.0</ele><time>2026-04-05T13:53:01Z</time></trkpt><trkpt lat="45.93191102417635" lon="13.45196926374081"><ele>34.0</ele><time>2026-04-05T13:53:02Z</time></trkpt><trkpt lat="45.932193261367956" lon="13.451830948907237"><ele>34.0</ele><time>2026-04-05T13:53:03Z</time></trkpt><trkpt lat="45.93246816771309" lon="13.451681335332086"><ele>34.0</ele><time>2026-04-05T13:53:04Z</time></trkpt><trkpt lat="45.93273771882124" lon="13.451544118668016"><ele>35.5</ele><time>2026-04-05T13:53:05Z</time></trkpt><trkpt lat="45.93298612960785" lon="13.45141211810926"><ele>37.0</ele><time>2026-04-05T13:53:06Z</time></trkpt><trkpt lat="45.93321112025954" lon="13.45128610155892"><ele>36.66666666666667</ele><time>2026-04-05T13:53:07Z</time></trkpt><trkpt lat="45.93341854081349" lon="13.45116385337565"><ele>36.333333333333336</ele><time>2026-04-05T13:53:08Z</time></trkpt><trkpt lat="45.93360263624085" lon="13.451048544957999"><ele>36.0</ele><time>2026-04-05T13:53:09Z</time></trkpt><trkpt lat="45.93375928092401" lon="13.450943416034832"><ele>36.0</ele><time>2026-04-05T13:53:10Z</time></trkpt><trkpt lat="45.933900966525606" lon="13.450848134401376"><ele>36.0</ele><time>2026-04-05T13:53:11Z</time></trkpt><trkpt lat="45.934027203012526" lon="13.450768985226103"><ele>36.0</ele><time>2026-04-05T13:53:12Z</time></trkpt><trkpt lat="45.934142213694656" lon="13.450701520944097"><ele>36.0</ele><time>2026-04-05T13:53:13Z</time></trkpt><trkpt lat="45.93424695869611" lon="13.450642192215932"><ele>36.0</ele><time>2026-04-05T13:53:14Z</time></trkpt><trkpt lat="45.93433160933455" lon="13.450599997172054"><ele>36.0</ele><time>2026-04-05T13:53:15Z</time></trkpt><trkpt lat="45.93442597861761" lon="13.450568680722748"><ele>36.0</ele><time>2026-04-05T13:53:16Z</time></trkpt><trkpt lat="45.93452742451197" lon="13.450546382284688"><ele>36.0</ele><time>2026-04-05T13:53:17Z</time></trkpt><trkpt lat="45.93463178994962" lon="13.450639255660532"><ele>36.0</ele><time>2026-04-05T13:53:17.999Z</time></trkpt><trkpt lat="45.934728827795894" lon="13.450694288371674"><ele>36.0</ele><time>2026-04-05T13:53:18.999Z</time></trkpt><trkpt lat="45.93482276872889" lon="13.450699221260482"><ele>36.0</ele><time>2026-04-05T13:53:19.999Z</time></trkpt><trkpt lat="45.93488986764995" lon="13.4508712545612"><ele>36.0</ele><time>2026-04-05T13:53:20.999Z</time></trkpt><trkpt lat="45.934952129361285" lon="13.45100283933897"><ele>36.0</ele><time>2026-04-05T13:53:21.999Z</time></trkpt><trkpt lat="45.93501771940232" lon="13.45115174001445"><ele>36.666666666666664</ele><time>2026-04-05T13:53:22.999Z</time></trkpt><trkpt lat="45.93508849777751" lon="13.451315065669762"><ele>37.33333333333333</ele><time>2026-04-05T13:53:23.999Z</time></trkpt><trkpt lat="45.935166572371415" lon="13.451500612638668"><ele>38.0</ele><time>2026-04-05T13:53:24.999Z</time></trkpt><trkpt lat="45.93524630341342" lon="13.45171365462781"><ele>38.0</ele><time>2026-04-05T13:53:25.999Z</time></trkpt><trkpt lat="45.93533303929166" lon="13.451947871292726"><ele>38.0</ele><time>2026-04-05T13:53:26.999Z</time></trkpt><trkpt lat="45.93542457830187" lon="13.452200198957067"><ele>38.0</ele><time>2026-04-05T13:53:27.999Z</time></trkpt><trkpt lat="45.93549571580497" lon="13.452479617731735"><ele>37.0</ele><time>2026-04-05T13:53:28.999Z</time></trkpt><trkpt lat="45.93559133941365" lon="13.452750965014461"><ele>36.0</ele><time>2026-04-05T13:53:29.999Z</time></trkpt><trkpt lat="45.935689949206164" lon="13.453030786058179"><ele>35.0</ele><time>2026-04-05T13:53:30.999Z</time></trkpt><trkpt lat="45.93579007179542" lon="13.453314899975142"><ele>36.5</ele><time>2026-04-05T13:53:31.999Z</time></trkpt><trkpt lat="45.935891841492236" lon="13.453603861379897"><ele>38.0</ele><time>2026-04-05T13:53:32.999Z</time></trkpt><trkpt lat="45.93599384763473" lon="13.45389381066404"><ele>38.0</ele><time>2026-04-05T13:53:34Z</time></trkpt><trkpt lat="45.936094989931256" lon="13.454181304489655"><ele>38.0</ele><time>2026-04-05T13:53:35Z</time></trkpt><trkpt lat="45.936196346903664" lon="13.454467734506345"><ele>38.0</ele><time>2026-04-05T13:53:36Z</time></trkpt><trkpt lat="45.93630647660641" lon="13.454745416565009"><ele>37.666666666666664</ele><time>2026-04-05T13:53:37Z</time></trkpt><trkpt lat="45.93640235262865" lon="13.455025978005676"><ele>37.333333333333336</ele><time>2026-04-05T13:53:38Z</time></trkpt><trkpt lat="45.93649986799205" lon="13.455302944059772"><ele>37.0</ele><time>2026-04-05T13:53:39Z</time></trkpt><trkpt lat="45.93659599760673" lon="13.455572819064153"><ele>37.0</ele><time>2026-04-05T13:53:40Z</time></trkpt><trkpt lat="45.93668997649213" lon="13.455837475903978"><ele>37.0</ele><time>2026-04-05T13:53:41Z</time></trkpt><trkpt lat="45.93677752335464" lon="13.456095763501937"><ele>37.0</ele><time>2026-04-05T13:53:42Z</time></trkpt><trkpt lat="45.93685852676542" lon="13.456334140053663"><ele>37.333333333333336</ele><time>2026-04-05T13:53:43Z</time></trkpt><trkpt lat="45.93693329097958" lon="13.456549876059805"><ele>37.666666666666664</ele><time>2026-04-05T13:53:44Z</time></trkpt><trkpt lat="45.937006990766434" lon="13.456740234046539"><ele>38.0</ele><time>2026-04-05T13:53:45Z</time></trkpt><trkpt lat="45.93709001748791" lon="13.456917934920112"><ele>38.0</ele><time>2026-04-05T13:53:46Z</time></trkpt><trkpt lat="45.93719031663482" lon="13.457090825078867"><ele>38.0</ele><time>2026-04-05T13:53:47Z</time></trkpt><trkpt lat="45.93730006745697" lon="13.457245385467035"><ele>38.0</ele><time>2026-04-05T13:53:48Z</time></trkpt><trkpt lat="45.937414722571006" lon="13.45737919568723"><ele>38.75</ele><time>2026-04-05T13:53:49Z</time></trkpt><trkpt lat="45.937530205616916" lon="13.457499694467739"><ele>39.5</ele><time>2026-04-05T13:53:50Z</time></trkpt><trkpt lat="45.93764572307569" lon="13.457616639329737"><ele>40.25</ele><time>2026-04-05T13:53:51Z</time></trkpt><trkpt lat="45.937764910052515" lon="13.457729040609273"><ele>41.0</ele><time>2026-04-05T13:53:52Z</time></trkpt><trkpt lat="45.93788816774463" lon="13.457837607308207"><ele>41.0</ele><time>2026-04-05T13:53:53Z</time></trkpt><trkpt lat="45.93801175106188" lon="13.457944991538517"><ele>41.0</ele><time>2026-04-05T13:53:54Z</time></trkpt><trkpt lat="45.938133567238864" lon="13.45805657673165"><ele>41.0</ele><time>2026-04-05T13:53:55Z</time></trkpt><trkpt lat="45.93826028674343" lon="13.45815612132926"><ele>41.0</ele><time>2026-04-05T13:53:56Z</time></trkpt><trkpt lat="45.9383919670126" lon="13.458242383299446"><ele>41.0</ele><time>2026-04-05T13:53:57Z</time></trkpt><trkpt lat="45.93854550543547" lon="13.458315653264926"><ele>41.0</ele><time>2026-04-05T13:53:58Z</time></trkpt><trkpt lat="45.93871011642201" lon="13.458409632275702"><ele>41.0</ele><time>2026-04-05T13:53:59Z</time></trkpt><trkpt lat="45.93890936490117" lon="13.45847662655161"><ele>41.0</ele><time>2026-04-05T13:54:00Z</time></trkpt><trkpt lat="45.93911911445622" lon="13.458540192679019"><ele>41.0</ele><time>2026-04-05T13:54:01Z</time></trkpt><trkpt lat="45.939342867823406" lon="13.458593075547627"><ele>41.0</ele><time>2026-04-05T13:54:02Z</time></trkpt><trkpt lat="45.93957318683126" lon="13.458666376107852"><ele>41.0</ele><time>2026-04-05T13:54:03Z</time></trkpt><trkpt lat="45.93980962275069" lon="13.458736979033418"><ele>41.0</ele><time>2026-04-05T13:54:04Z</time></trkpt><trkpt lat="45.94005158116231" lon="13.458812323613396"><ele>41.0</ele><time>2026-04-05T13:54:05Z</time></trkpt><trkpt lat="45.94029507963181" lon="13.458883001440825"><ele>41.0</ele><time>2026-04-05T13:54:06Z</time></trkpt><trkpt lat="45.94053620639621" lon="13.458953745958159"><ele>41.0</ele><time>2026-04-05T13:54:07Z</time></trkpt><trkpt lat="45.94077130200605" lon="13.459027435016331"><ele>41.0</ele><time>2026-04-05T13:54:08Z</time></trkpt><trkpt lat="45.941004343393416" lon="13.45910679841563"><ele>40.5</ele><time>2026-04-05T13:54:09Z</time></trkpt><trkpt lat="45.941228164979236" lon="13.45920637250289"><ele>40.0</ele><time>2026-04-05T13:54:10Z</time></trkpt><trkpt lat="45.94144445050833" lon="13.45932227386836"><ele>40.0</ele><time>2026-04-05T13:54:11Z</time></trkpt><trkpt lat="45.94165547363134" lon="13.459440209997295"><ele>40.0</ele><time>2026-04-05T13:54:12Z</time></trkpt><trkpt lat="45.941861294787145" lon="13.459559817632256"><ele>40.0</ele><time>2026-04-05T13:54:13Z</time></trkpt><trkpt lat="45.942066009380596" lon="13.459679930176616"><ele>40.0</ele><time>2026-04-05T13:54:14Z</time></trkpt><trkpt lat="45.9422703317117" lon="13.459798607485"><ele>40.0</ele><time>2026-04-05T13:54:15Z</time></trkpt><trkpt lat="45.942471420628834" lon="13.459914186983882"><ele>40.0</ele><time>2026-04-05T13:54:16Z</time></trkpt><trkpt lat="45.94267033659524" lon="13.460030033933368"><ele>40.0</ele><time>2026-04-05T13:54:17Z</time></trkpt><trkpt lat="45.942865925107064" lon="13.46014546415971"><ele>40.0</ele><time>2026-04-05T13:54:18Z</time></trkpt><trkpt lat="45.943060372709496" lon="13.460257352156953"><ele>40.0</ele><time>2026-04-05T13:54:19Z</time></trkpt><trkpt lat="45.94325187324723" lon="13.460365506616135"><ele>41.0</ele><time>2026-04-05T13:54:20Z</time></trkpt><trkpt lat="45.94343912876995" lon="13.4604778797728"><ele>42.0</ele><time>2026-04-05T13:54:21Z</time></trkpt><trkpt lat="45.943624567957336" lon="13.460589151074716"><ele>43.0</ele><time>2026-04-05T13:54:22Z</time></trkpt><trkpt lat="45.94381207521276" lon="13.46069784072081"><ele>43.0</ele><time>2026-04-05T13:54:23Z</time></trkpt><trkpt lat="45.943999236368334" lon="13.4608057183423"><ele>43.0</ele><time>2026-04-05T13:54:24Z</time></trkpt><trkpt lat="45.94418657831853" lon="13.460916776302428"><ele>43.0</ele><time>2026-04-05T13:54:25Z</time></trkpt><trkpt lat="45.94437426033621" lon="13.461027807697356"><ele>43.0</ele><time>2026-04-05T13:54:26Z</time></trkpt><trkpt lat="45.94456180257559" lon="13.461137674555257"><ele>43.0</ele><time>2026-04-05T13:54:27Z</time></trkpt><trkpt lat="45.94475093361708" lon="13.461244797971693"><ele>43.0</ele><time>2026-04-05T13:54:28Z</time></trkpt><trkpt lat="45.944939898383275" lon="13.461353425817745"><ele>42.66666666666667</ele><time>2026-04-05T13:54:29Z</time></trkpt><trkpt lat="45.94512758695997" lon="13.461463836365365"><ele>42.333333333333336</ele><time>2026-04-05T13:54:30Z</time></trkpt><trkpt lat="45.94531700574525" lon="13.46157048829346"><ele>42.0</ele><time>2026-04-05T13:54:31Z</time></trkpt><trkpt lat="45.94550624843716" lon="13.46168042533429"><ele>42.0</ele><time>2026-04-05T13:54:32Z</time></trkpt><trkpt lat="45.94569602023065" lon="13.461791787968913"><ele>42.0</ele><time>2026-04-05T13:54:33Z</time></trkpt><trkpt lat="45.94588577498127" lon="13.46189992112199"><ele>42.0</ele><time>2026-04-05T13:54:34Z</time></trkpt><trkpt lat="45.946076163943054" lon="13.462005894998605"><ele>42.666666666666664</ele><time>2026-04-05T13:54:35Z</time></trkpt><trkpt lat="45.946264881627805" lon="13.462115068273187"><ele>43.33333333333333</ele><time>2026-04-05T13:54:36Z</time></trkpt><trkpt lat="45.94645130088324" lon="13.462236278051094"><ele>44.0</ele><time>2026-04-05T13:54:37Z</time></trkpt><trkpt lat="45.94662969757633" lon="13.46237743535476"><ele>44.33333333333333</ele><time>2026-04-05T13:54:38Z</time></trkpt><trkpt lat="45.94679968565772" lon="13.46254112994839"><ele>44.666666666666664</ele><time>2026-04-05T13:54:39Z</time></trkpt><trkpt lat="45.9469604359154" lon="13.462723572978739"><ele>45.0</ele><time>2026-04-05T13:54:40Z</time></trkpt><trkpt lat="45.947111930678965" lon="13.462921973743455"><ele>44.666666666666664</ele><time>2026-04-05T13:54:41Z</time></trkpt><trkpt lat="45.94725297712942" lon="13.463135407306808"><ele>44.33333333333333</ele><time>2026-04-05T13:54:42Z</time></trkpt><trkpt lat="45.94738083965529" lon="13.463362703251189"><ele>44.0</ele><time>2026-04-05T13:54:43Z</time></trkpt><trkpt lat="45.947503535457706" lon="13.463596105190845"><ele>45.666666666666664</ele><time>2026-04-05T13:54:44Z</time></trkpt><trkpt lat="45.947614279143366" lon="13.463839436496889"><ele>47.33333333333333</ele><time>2026-04-05T13:54:45Z</time></trkpt><trkpt lat="45.947724544322924" lon="13.464084816785483"><ele>49.0</ele><time>2026-04-05T13:54:46Z</time></trkpt><trkpt lat="45.947834875497946" lon="13.464330111802374"><ele>49.0</ele><time>2026-04-05T13:54:47Z</time></trkpt><trkpt lat="45.94795108905869" lon="13.46456684620598"><ele>49.0</ele><time>2026-04-05T13:54:48Z</time></trkpt><trkpt lat="45.948062575295566" lon="13.46480609533792"><ele>49.0</ele><time>2026-04-05T13:54:49Z</time></trkpt><trkpt lat="45.94817392834234" lon="13.465047700398086"><ele>48.0</ele><time>2026-04-05T13:54:50Z</time></trkpt><trkpt lat="45.94828474141507" lon="13.465288277197923"><ele>47.0</ele><time>2026-04-05T13:54:51Z</time></trkpt><trkpt lat="45.94839558658634" lon="13.46552649481206"><ele>46.0</ele><time>2026-04-05T13:54:52Z</time></trkpt><trkpt lat="45.94851716821506" lon="13.465757723440426"><ele>46.0</ele><time>2026-04-05T13:54:53Z</time></trkpt><trkpt lat="45.94864645169821" lon="13.465976901773299"><ele>46.0</ele><time>2026-04-05T13:54:54Z</time></trkpt><trkpt lat="45.94878314920683" lon="13.466185293115565"><ele>46.0</ele><time>2026-04-05T13:54:55Z</time></trkpt><trkpt lat="45.94892766894213" lon="13.466381341619826"><ele>46.0</ele><time>2026-04-05T13:54:56Z</time></trkpt><trkpt lat="45.94907660642847" lon="13.46657269970257"><ele>46.0</ele><time>2026-04-05T13:54:57Z</time></trkpt><trkpt lat="45.94922201685631" lon="13.466754070033648"><ele>46.0</ele><time>2026-04-05T13:54:58Z</time></trkpt><trkpt lat="45.94936363175188" lon="13.466927566602486"><ele>45.66666666666667</ele><time>2026-04-05T13:54:59Z</time></trkpt><trkpt lat="45.949501507569636" lon="13.467096416784168"><ele>45.333333333333336</ele><time>2026-04-05T13:55:00Z</time></trkpt><trkpt lat="45.94963996158165" lon="13.467264556449305"><ele>45.0</ele><time>2026-04-05T13:55:01Z</time></trkpt><trkpt lat="45.94977820541002" lon="13.467428949382011"><ele>45.0</ele><time>2026-04-05T13:55:02Z</time></trkpt><trkpt lat="45.94991405726013" lon="13.46759110492983"><ele>45.0</ele><time>2026-04-05T13:55:03Z</time></trkpt><trkpt lat="45.95004455198961" lon="13.467755075623963"><ele>45.0</ele><time>2026-04-05T13:55:04Z</time></trkpt><trkpt lat="45.95017580997703" lon="13.467919012942286"><ele>45.666666666666664</ele><time>2026-04-05T13:55:05Z</time></trkpt><trkpt lat="45.95030915156402" lon="13.468079963427602"><ele>46.33333333333333</ele><time>2026-04-05T13:55:06Z</time></trkpt><trkpt lat="45.95044352920182" lon="13.468238473331072"><ele>47.0</ele><time>2026-04-05T13:55:07Z</time></trkpt><trkpt lat="45.950574181855586" lon="13.468402671836923"><ele>47.0</ele><time>2026-04-05T13:55:08Z</time></trkpt><trkpt lat="45.950701560806735" lon="13.46857196018566"><ele>47.0</ele><time>2026-04-05T13:55:09Z</time></trkpt><trkpt lat="45.95083024511093" lon="13.468743926095089"><ele>47.0</ele><time>2026-04-05T13:55:10Z</time></trkpt><trkpt lat="45.95095765111127" lon="13.468918104501416"><ele>48.0</ele><time>2026-04-05T13:55:11Z</time></trkpt><trkpt lat="45.95108840059274" lon="13.469089496361281"><ele>49.0</ele><time>2026-04-05T13:55:12Z</time></trkpt><trkpt lat="45.951218802052175" lon="13.46926368320913"><ele>50.0</ele><time>2026-04-05T13:55:13Z</time></trkpt><trkpt lat="45.95134691590961" lon="13.469441941931318"><ele>49.333333333333336</ele><time>2026-04-05T13:55:14Z</time></trkpt><trkpt lat="45.95147618130394" lon="13.469617104477916"><ele>48.66666666666667</ele><time>2026-04-05T13:55:15Z</time></trkpt><trkpt lat="45.95160020492609" lon="13.469797171437913"><ele>48.0</ele><time>2026-04-05T13:55:16Z</time></trkpt><trkpt lat="45.95171976032296" lon="13.469965908379722"><ele>48.0</ele><time>2026-04-05T13:55:16.999Z</time></trkpt><trkpt lat="45.9518324460173" lon="13.470119727309017"><ele>48.0</ele><time>2026-04-05T13:55:17.999Z</time></trkpt><trkpt lat="45.95193876810815" lon="13.470256252515671"><ele>48.0</ele><time>2026-04-05T13:55:18.999Z</time></trkpt><trkpt lat="45.952032727529314" lon="13.470382257088632"><ele>48.0</ele><time>2026-04-05T13:55:19.999Z</time></trkpt><trkpt lat="45.952130920062785" lon="13.47049479289467"><ele>48.0</ele><time>2026-04-05T13:55:20.999Z</time></trkpt><trkpt lat="45.95222726960927" lon="13.470601540782859"><ele>48.0</ele><time>2026-04-05T13:55:21.999Z</time></trkpt><trkpt lat="45.952323774094204" lon="13.470699308248804"><ele>48.0</ele><time>2026-04-05T13:55:22.999Z</time></trkpt><trkpt lat="45.952417015212006" lon="13.4707969846457"><ele>48.0</ele><time>2026-04-05T13:55:23.999Z</time></trkpt><trkpt lat="45.952507460705014" lon="13.470894593210625"><ele>48.166666666666664</ele><time>2026-04-05T13:55:24.999Z</time></trkpt><trkpt lat="45.952591500778446" lon="13.470985539208431"><ele>48.33333333333333</ele><time>2026-04-05T13:55:25.999Z</time></trkpt><trkpt lat="45.95266978738492" lon="13.4710726352458"><ele>48.5</ele><time>2026-04-05T13:55:26.999Z</time></trkpt><trkpt lat="45.9527379167359" lon="13.471136344738433"><ele>48.666666666666664</ele><time>2026-04-05T13:55:27.999Z</time></trkpt><trkpt lat="45.952801897316924" lon="13.471175650950775"><ele>48.83333333333333</ele><time>2026-04-05T13:55:28.999Z</time></trkpt><trkpt lat="45.95286935161235" lon="13.471180953374773"><ele>49.0</ele><time>2026-04-05T13:55:29.999Z</time></trkpt><trkpt lat="45.95293724451612" lon="13.471137917445638"><ele>49.0</ele><time>2026-04-05T13:55:30.999Z</time></trkpt><trkpt lat="45.952983175246345" lon="13.471008633876412"><ele>49.0</ele><time>2026-04-05T13:55:31.999Z</time></trkpt><trkpt lat="45.953042522129046" lon="13.470870710832445"><ele>49.0</ele><time>2026-04-05T13:55:32.999Z</time></trkpt><trkpt lat="45.95312307600137" lon="13.470713670453003"><ele>49.0</ele><time>2026-04-05T13:55:33.999Z</time></trkpt><trkpt lat="45.953218393786365" lon="13.470533268903619"><ele>49.0</ele><time>2026-04-05T13:55:34.999Z</time></trkpt><trkpt lat="45.953325058777715" lon="13.470334794583849"><ele>49.0</ele><time>2026-04-05T13:55:35.999Z</time></trkpt><trkpt lat="45.95343679586585" lon="13.47012689036821"><ele>49.0</ele><time>2026-04-05T13:55:36.999Z</time></trkpt><trkpt lat="45.953544599755084" lon="13.469923792280927"><ele>49.0</ele><time>2026-04-05T13:55:37.999Z</time></trkpt><trkpt lat="45.953652261738355" lon="13.469729102497904"><ele>49.0</ele><time>2026-04-05T13:55:38.999Z</time></trkpt><trkpt lat="45.95375633343465" lon="13.469543027112511"><ele>49.0</ele><time>2026-04-05T13:55:40Z</time></trkpt><trkpt lat="45.953852349902895" lon="13.469359726653767"><ele>49.0</ele><time>2026-04-05T13:55:41Z</time></trkpt><trkpt lat="45.95394282615253" lon="13.469181580021399"><ele>49.0</ele><time>2026-04-05T13:55:42Z</time></trkpt><trkpt lat="45.954027530073915" lon="13.469012261778204"><ele>49.0</ele><time>2026-04-05T13:55:43Z</time></trkpt><trkpt lat="45.95411014671296" lon="13.468852943001455"><ele>49.0</ele><time>2026-04-05T13:55:44Z</time></trkpt><trkpt lat="45.95419291859137" lon="13.468701895028197"><ele>49.2</ele><time>2026-04-05T13:55:45Z</time></trkpt><trkpt lat="45.95426595578366" lon="13.468561751828672"><ele>49.400000000000006</ele><time>2026-04-05T13:55:46Z</time></trkpt><trkpt lat="45.954331435205916" lon="13.468435511282001"><ele>49.6</ele><time>2026-04-05T13:55:47Z</time></trkpt><trkpt lat="45.95440060364789" lon="13.468327512041423"><ele>49.8</ele><time>2026-04-05T13:55:48Z</time></trkpt><trkpt lat="45.954473651037745" lon="13.468240968033966"><ele>50.0</ele><time>2026-04-05T13:55:49Z</time></trkpt><trkpt lat="45.95455361628317" lon="13.468167995818755"><ele>50.00000000000001</ele><time>2026-04-05T13:55:50Z</time></trkpt><trkpt lat="45.95463982770196" lon="13.468102333133569"><ele>50.0</ele><time>2026-04-05T13:55:51Z</time></trkpt><trkpt lat="45.95471387579178" lon="13.468047743623446"><ele>50.0</ele><time>2026-04-05T13:55:52Z</time></trkpt><trkpt lat="45.95477580677563" lon="13.467999409275503"><ele>50.0</ele><time>2026-04-05T13:55:53Z</time></trkpt><trkpt lat="45.95483286310768" lon="13.467956769875029"><ele>50.00000000000001</ele><time>2026-04-05T13:55:54Z</time></trkpt><trkpt lat="45.95489237170616" lon="13.467911226442714"><ele>50.0</ele><time>2026-04-05T13:55:55Z</time></trkpt><trkpt lat="45.954958196969805" lon="13.46786641263192"><ele>50.333333333333336</ele><time>2026-04-05T13:55:56Z</time></trkpt><trkpt lat="45.95502060090593" lon="13.467820047645036"><ele>50.66666666666667</ele><time>2026-04-05T13:55:57Z</time></trkpt><trkpt lat="45.95508230316107" lon="13.467775630365969"><ele>51.0</ele><time>2026-04-05T13:55:58Z</time></trkpt><trkpt lat="45.95514349506854" lon="13.467732734803485"><ele>51.33333333333333</ele><time>2026-04-05T13:55:59Z</time></trkpt><trkpt lat="45.95520153971455" lon="13.46768849509888"><ele>51.666666666666664</ele><time>2026-04-05T13:56:00Z</time></trkpt><trkpt lat="45.95530812488848" lon="13.467613318454662"><ele>52.0</ele><time>2026-04-05T13:56:02Z</time></trkpt><trkpt lat="45.95540114930091" lon="13.467550896361509"><ele>52.0</ele><time>2026-04-05T13:56:04Z</time></trkpt><trkpt lat="45.95548298793823" lon="13.46749514244354"><ele>52.0</ele><time>2026-04-05T13:56:06Z</time></trkpt><trkpt lat="45.955580195962305" lon="13.467495624666041"><ele>52.0</ele><time>2026-04-05T13:56:08Z</time></trkpt><trkpt lat="45.95567068475418" lon="13.46757286476647"><ele>52.0</ele><time>2026-04-05T13:56:10Z</time></trkpt><trkpt lat="45.955788074988334" lon="13.467634215741246"><ele>52.0</ele><time>2026-04-05T13:56:12Z</time></trkpt><trkpt lat="45.95591711110322" lon="13.467788340606269"><ele>51.99999999999999</ele><time>2026-04-05T13:56:14Z</time></trkpt><trkpt lat="45.95597124259602" lon="13.467880114491221"><ele>52.0</ele><time>2026-04-05T13:56:15Z</time></trkpt><trkpt lat="45.95602395629686" lon="13.467969384495726"><ele>52.0</ele><time>2026-04-05T13:56:16Z</time></trkpt><trkpt lat="45.9560708751744" lon="13.468059857056142"><ele>52.0</ele><time>2026-04-05T13:56:17Z</time></trkpt><trkpt lat="45.95611962792958" lon="13.46814757694658"><ele>51.99999999999999</ele><time>2026-04-05T13:56:18Z</time></trkpt><trkpt lat="45.95616891024792" lon="13.468233889752137"><ele>52.0</ele><time>2026-04-05T13:56:19Z</time></trkpt><trkpt lat="45.95621414316248" lon="13.468325581356863"><ele>52.0</ele><time>2026-04-05T13:56:20Z</time></trkpt><trkpt lat="45.956260405163626" lon="13.46840794452348"><ele>52.0</ele><time>2026-04-05T13:56:21Z</time></trkpt><trkpt lat="45.95632095785082" lon="13.468542554304987"><ele>52.0</ele><time>2026-04-05T13:56:23Z</time></trkpt><trkpt lat="45.95638636339457" lon="13.468645155210112"><ele>52.0</ele><time>2026-04-05T13:56:25Z</time></trkpt><trkpt lat="45.9564428885546" lon="13.468738265939617"><ele>52.0</ele><time>2026-04-05T13:56:27Z</time></trkpt><trkpt lat="45.95650395711805" lon="13.468842643965253"><ele>51.8</ele><time>2026-04-05T13:56:29Z</time></trkpt><trkpt lat="45.956538286871215" lon="13.46892362708653"><ele>51.6</ele><time>2026-04-05T13:56:30Z</time></trkpt><trkpt lat="45.95658085361477" lon="13.469023613145795"><ele>51.4</ele><time>2026-04-05T13:56:31Z</time></trkpt><trkpt lat="45.95663703359778" lon="13.469133107302396"><ele>51.199999999999996</ele><time>2026-04-05T13:56:32Z</time></trkpt><trkpt lat="45.956708927148654" lon="13.46925428497295"><ele>51.0</ele><time>2026-04-05T13:56:33Z</time></trkpt><trkpt lat="45.95678519976474" lon="13.46938735800004"><ele>51.0</ele><time>2026-04-05T13:56:34Z</time></trkpt><trkpt lat="45.95685561118973" lon="13.469515113253541"><ele>51.0</ele><time>2026-04-05T13:56:35Z</time></trkpt><trkpt lat="45.95691353792296" lon="13.469623394309124"><ele>51.0</ele><time>2026-04-05T13:56:36Z</time></trkpt><trkpt lat="45.95697375117653" lon="13.469724779112708"><ele>51.0</ele><time>2026-04-05T13:56:37Z</time></trkpt><trkpt lat="45.95703644657043" lon="13.469819626005249"><ele>51.0</ele><time>2026-04-05T13:56:38Z</time></trkpt><trkpt lat="45.957094528779535" lon="13.469920534618971"><ele>51.333333333333336</ele><time>2026-04-05T13:56:39Z</time></trkpt><trkpt lat="45.95714598991102" lon="13.470026020253242"><ele>51.66666666666667</ele><time>2026-04-05T13:56:40Z</time></trkpt><trkpt lat="45.957198539015515" lon="13.4701318490688"><ele>52.0</ele><time>2026-04-05T13:56:41Z</time></trkpt><trkpt lat="45.95725483203426" lon="13.470232505686045"><ele>52.333333333333336</ele><time>2026-04-05T13:56:42Z</time></trkpt><trkpt lat="45.95731489744272" lon="13.470324700306483"><ele>52.66666666666667</ele><time>2026-04-05T13:56:43Z</time></trkpt><trkpt lat="45.957372951096815" lon="13.47041449480813"><ele>53.0</ele><time>2026-04-05T13:56:44Z</time></trkpt><trkpt lat="45.9574292187382" lon="13.47050565845924"><ele>53.00000000000001</ele><time>2026-04-05T13:56:45Z</time></trkpt><trkpt lat="45.95749090273209" lon="13.470586376245313"><ele>53.0</ele><time>2026-04-05T13:56:46Z</time></trkpt><trkpt lat="45.9575507386622" lon="13.470649731659323"><ele>53.0</ele><time>2026-04-05T13:56:47Z</time></trkpt><trkpt lat="45.95760375969689" lon="13.47070467516244"><ele>53.0</ele><time>2026-04-05T13:56:48Z</time></trkpt><trkpt lat="45.95770231296794" lon="13.470779477039354"><ele>53.00000000000001</ele><time>2026-04-05T13:56:50Z</time></trkpt><trkpt lat="45.957780802205406" lon="13.470856489647835"><ele>53.0</ele><time>2026-04-05T13:56:52Z</time></trkpt><trkpt lat="45.95785002528005" lon="13.470960402959891"><ele>53.0</ele><time>2026-04-05T13:56:54Z</time></trkpt><trkpt lat="45.95791834715112" lon="13.471066583356357"><ele>53.0</ele><time>2026-04-05T13:56:56Z</time></trkpt><trkpt lat="45.9579760589932" lon="13.471188428146588"><ele>53.0</ele><time>2026-04-05T13:56:58Z</time></trkpt><trkpt lat="45.95805893852643" lon="13.47131000692294"><ele>53.0</ele><time>2026-04-05T13:57:00Z</time></trkpt><trkpt lat="45.95811625465083" lon="13.471409954729983"><ele>53.0</ele><time>2026-04-05T13:57:02Z</time></trkpt><trkpt lat="45.957986827023404" lon="13.471574595589791"><ele>53.0</ele><time>2026-04-05T13:57:56Z</time></trkpt><trkpt lat="45.95799292049648" lon="13.471479895255936"><ele>53.0</ele><time>2026-04-05T13:58:39Z</time></trkpt><trkpt lat="45.95799986964854" lon="13.471383161162215"><ele>53.0</ele><time>2026-04-05T13:58:45Z</time></trkpt><trkpt lat="45.95803034856765" lon="13.471286598925586"><ele>53.0</ele><time>2026-04-05T13:58:51Z</time></trkpt><trkpt lat="45.95804852304795" lon="13.47119962649299"><ele>53.0</ele><time>2026-04-05T13:58:56Z</time></trkpt><trkpt lat="45.95803663695056" lon="13.471104646798347"><ele>53.0</ele><time>2026-04-05T13:59:02Z</time></trkpt><trkpt lat="45.9580130998814" lon="13.470992798734201"><ele>53.0</ele><time>2026-04-05T13:59:07Z</time></trkpt><trkpt lat="45.95799721154218" lon="13.4709051453794"><ele>53.0</ele><time>2026-04-05T13:59:12Z</time></trkpt><trkpt lat="45.957969664551555" lon="13.470818599527862"><ele>53.0</ele><time>2026-04-05T13:59:18Z</time></trkpt><trkpt lat="45.957907953642696" lon="13.470782755125049"><ele>53.0</ele><time>2026-04-05T14:27:32Z</time></trkpt><trkpt lat="45.95796981889536" lon="13.470824383400693"><ele>53.0</ele><time>2026-04-05T14:27:45Z</time></trkpt><trkpt lat="45.95797995444595" lon="13.470922063965086"><ele>53.0</ele><time>2026-04-05T14:27:56Z</time></trkpt><trkpt lat="45.9579982820561" lon="13.47101282681659"><ele>53.0</ele><time>2026-04-05T14:28:05.999Z</time></trkpt><trkpt lat="45.95801075989481" lon="13.47111235237859"><ele>53.0</ele><time>2026-04-05T14:28:15.999Z</time></trkpt><trkpt lat="45.95800121861362" lon="13.471212941457468"><ele>53.16666666666667</ele><time>2026-04-05T14:28:24.999Z</time></trkpt><trkpt lat="45.9579889907415" lon="13.471320323578208"><ele>53.333333333333336</ele><time>2026-04-05T14:28:32.999Z</time></trkpt><trkpt lat="45.958005108737794" lon="13.47140869418531"><ele>53.5</ele><time>2026-04-05T14:28:39.999Z</time></trkpt><trkpt lat="45.95799409891867" lon="13.471507246981702"><ele>53.66666666666667</ele><time>2026-04-05T14:28:49.999Z</time></trkpt><trkpt lat="45.95790870806385" lon="13.471497170296544"><ele>53.833333333333336</ele><time>2026-04-05T14:33:08.999Z</time></trkpt><trkpt lat="45.95782798067522" lon="13.471517207029654"><ele>54.0</ele><time>2026-04-05T14:33:12.999Z</time></trkpt><trkpt lat="45.9577364667742" lon="13.47157290647328"><ele>54.0</ele><time>2026-04-05T14:33:15.999Z</time></trkpt><trkpt lat="45.95763584990424" lon="13.471623868285137"><ele>54.0</ele><time>2026-04-05T14:33:17.999Z</time></trkpt><trkpt lat="45.95756853177014" lon="13.471650193768488"><ele>54.0</ele><time>2026-04-05T14:33:18.999Z</time></trkpt><trkpt lat="45.95749206026673" lon="13.471679060337241"><ele>54.0</ele><time>2026-04-05T14:33:19.999Z</time></trkpt><trkpt lat="45.957408968471874" lon="13.471712951773037"><ele>54.0</ele><time>2026-04-05T14:33:20.999Z</time></trkpt><trkpt lat="45.95733605310077" lon="13.471729187696072"><ele>54.0</ele><time>2026-04-05T14:33:21.999Z</time></trkpt><trkpt lat="45.957273633222286" lon="13.471742169940491"><ele>54.0</ele><time>2026-04-05T14:33:22.999Z</time></trkpt><trkpt lat="45.9571569580324" lon="13.471763863815315"><ele>54.0</ele><time>2026-04-05T14:33:25Z</time></trkpt><trkpt lat="45.95709138576342" lon="13.471774275995259"><ele>54.0</ele><time>2026-04-05T14:33:26Z</time></trkpt><trkpt lat="45.957010445885345" lon="13.471776226777104"><ele>54.0</ele><time>2026-04-05T14:33:27Z</time></trkpt><trkpt lat="45.95692533660248" lon="13.47178855628491"><ele>54.0</ele><time>2026-04-05T14:33:28Z</time></trkpt><trkpt lat="45.95683410151166" lon="13.471778414731407"><ele>54.0</ele><time>2026-04-05T14:33:29Z</time></trkpt><trkpt lat="45.956738877137184" lon="13.471774749791066"><ele>54.0</ele><time>2026-04-05T14:33:30Z</time></trkpt><trkpt lat="45.956646429635626" lon="13.471785837126115"><ele>54.0</ele><time>2026-04-05T14:33:31Z</time></trkpt><trkpt lat="45.95655497640936" lon="13.471793303435119"><ele>54.0</ele><time>2026-04-05T14:33:32Z</time></trkpt><trkpt lat="45.95646777116104" lon="13.471811450310486"><ele>54.0</ele><time>2026-04-05T14:33:33Z</time></trkpt><trkpt lat="45.95638909490436" lon="13.471836695418952"><ele>54.0</ele><time>2026-04-05T14:33:34Z</time></trkpt><trkpt lat="45.95631774104991" lon="13.471850682947977"><ele>54.0</ele><time>2026-04-05T14:33:35Z</time></trkpt><trkpt lat="45.95619328592632" lon="13.471881340032441"><ele>54.0</ele><time>2026-04-05T14:33:37Z</time></trkpt><trkpt lat="45.956087993242356" lon="13.471890970036513"><ele>54.00000000000001</ele><time>2026-04-05T14:33:39Z</time></trkpt><trkpt lat="45.955988055926404" lon="13.47183887957355"><ele>54.00000000000001</ele><time>2026-04-05T14:33:41Z</time></trkpt><trkpt lat="45.95587232528063" lon="13.47189991086306"><ele>54.0</ele><time>2026-04-05T14:33:43Z</time></trkpt><trkpt lat="45.95580792925748" lon="13.47196421394795"><ele>54.0</ele><time>2026-04-05T14:33:44Z</time></trkpt><trkpt lat="45.95573471836234" lon="13.471999393950352"><ele>53.333333333333336</ele><time>2026-04-05T14:33:45Z</time></trkpt><trkpt lat="45.95565570481334" lon="13.472019944599392"><ele>52.66666666666667</ele><time>2026-04-05T14:33:46Z</time></trkpt><trkpt lat="45.955576671938005" lon="13.472040450215616"><ele>52.0</ele><time>2026-04-05T14:33:47Z</time></trkpt><trkpt lat="45.955500161230866" lon="13.472063392713636"><ele>51.333333333333336</ele><time>2026-04-05T14:33:48Z</time></trkpt><trkpt lat="45.95542138095571" lon="13.472082833598002"><ele>50.66666666666667</ele><time>2026-04-05T14:33:49Z</time></trkpt><trkpt lat="45.95532451692731" lon="13.47210887064008"><ele>50.0</ele><time>2026-04-05T14:33:50Z</time></trkpt><trkpt lat="45.955214443917704" lon="13.472139836601647"><ele>50.0</ele><time>2026-04-05T14:33:51Z</time></trkpt><trkpt lat="45.95509684758421" lon="13.472169891880986"><ele>50.0</ele><time>2026-04-05T14:33:52Z</time></trkpt><trkpt lat="45.9549652491941" lon="13.472201315302431"><ele>50.0</ele><time>2026-04-05T14:33:53Z</time></trkpt><trkpt lat="45.95482701652759" lon="13.472238668053427"><ele>50.0</ele><time>2026-04-05T14:33:54Z</time></trkpt><trkpt lat="45.95469544103463" lon="13.47227384459696"><ele>49.8</ele><time>2026-04-05T14:33:55Z</time></trkpt><trkpt lat="45.954584527509226" lon="13.472300479641671"><ele>49.6</ele><time>2026-04-05T14:33:56Z</time></trkpt><trkpt lat="45.954490536243924" lon="13.472322783360802"><ele>49.400000000000006</ele><time>2026-04-05T14:33:57Z</time></trkpt><trkpt lat="45.95441063193499" lon="13.47234475598865"><ele>49.2</ele><time>2026-04-05T14:33:58Z</time></trkpt><trkpt lat="45.9543421878628" lon="13.472363218326976"><ele>49.0</ele><time>2026-04-05T14:33:59Z</time></trkpt><trkpt lat="45.9542359932407" lon="13.472380479192434"><ele>49.2</ele><time>2026-04-05T14:34:01Z</time></trkpt><trkpt lat="45.95415684901698" lon="13.472434678421203"><ele>49.400000000000006</ele><time>2026-04-05T14:34:03Z</time></trkpt><trkpt lat="45.95409995145055" lon="13.472599231554431"><ele>49.6</ele><time>2026-04-05T14:34:04.999Z</time></trkpt><trkpt lat="45.95404356272057" lon="13.472670710965666"><ele>49.8</ele><time>2026-04-05T14:34:05.999Z</time></trkpt><trkpt lat="45.95396939648147" lon="13.472723903306132"><ele>50.0</ele><time>2026-04-05T14:34:06.999Z</time></trkpt><trkpt lat="45.953897260597245" lon="13.472765098433038"><ele>50.0</ele><time>2026-04-05T14:34:07.999Z</time></trkpt><trkpt lat="45.9538136775129" lon="13.472817751699479"><ele>50.0</ele><time>2026-04-05T14:34:08.999Z</time></trkpt><trkpt lat="45.9537265457789" lon="13.472874939841466"><ele>50.0</ele><time>2026-04-05T14:34:09.999Z</time></trkpt><trkpt lat="45.95362915693378" lon="13.47293474815117"><ele>50.0</ele><time>2026-04-05T14:34:10.999Z</time></trkpt><trkpt lat="45.95351997634532" lon="13.473002693059138"><ele>50.0</ele><time>2026-04-05T14:34:11.999Z</time></trkpt><trkpt lat="45.95340240832062" lon="13.473078544333124"><ele>49.5</ele><time>2026-04-05T14:34:12.999Z</time></trkpt><trkpt lat="45.953289873890775" lon="13.473148585685081"><ele>49.0</ele><time>2026-04-05T14:34:13.999Z</time></trkpt><trkpt lat="45.95317361527951" lon="13.473222567121137"><ele>48.5</ele><time>2026-04-05T14:34:14.999Z</time></trkpt><trkpt lat="45.953062635548875" lon="13.473300034201461"><ele>48.0</ele><time>2026-04-05T14:34:15.999Z</time></trkpt><trkpt lat="45.95295651553411" lon="13.473382506225807"><ele>48.0</ele><time>2026-04-05T14:34:16.999Z</time></trkpt><trkpt lat="45.95285109108348" lon="13.47347382564205"><ele>48.0</ele><time>2026-04-05T14:34:17.999Z</time></trkpt><trkpt lat="45.95273842050574" lon="13.473575134503003"><ele>48.0</ele><time>2026-04-05T14:34:18.999Z</time></trkpt><trkpt lat="45.95262104162765" lon="13.47367797122688"><ele>48.0</ele><time>2026-04-05T14:34:19.999Z</time></trkpt><trkpt lat="45.95250481567626" lon="13.473778812717958"><ele>47.75</ele><time>2026-04-05T14:34:20.999Z</time></trkpt><trkpt lat="45.952390019562124" lon="13.47387464856054"><ele>47.5</ele><time>2026-04-05T14:34:21.999Z</time></trkpt><trkpt lat="45.95227687816069" lon="13.473971397730946"><ele>47.25</ele><time>2026-04-05T14:34:22.999Z</time></trkpt><trkpt lat="45.9521601570542" lon="13.474071642249436"><ele>47.0</ele><time>2026-04-05T14:34:23.999Z</time></trkpt><trkpt lat="45.95203994766382" lon="13.474174861624073"><ele>47.0</ele><time>2026-04-05T14:34:24.999Z</time></trkpt><trkpt lat="45.95192243367461" lon="13.474290979367797"><ele>47.0</ele><time>2026-04-05T14:34:25.999Z</time></trkpt><trkpt lat="45.95180988121493" lon="13.474418219916313"><ele>47.0</ele><time>2026-04-05T14:34:26.999Z</time></trkpt><trkpt lat="45.95170409286583" lon="13.474552568654444"><ele>47.0</ele><time>2026-04-05T14:34:27.999Z</time></trkpt><trkpt lat="45.95160445462359" lon="13.474695717588867"><ele>46.75</ele><time>2026-04-05T14:34:28.999Z</time></trkpt><trkpt lat="45.95150627540695" lon="13.474846918462752"><ele>46.5</ele><time>2026-04-05T14:34:29.999Z</time></trkpt><trkpt lat="45.95141255764035" lon="13.475009149883823"><ele>46.25</ele><time>2026-04-05T14:34:30.999Z</time></trkpt><trkpt lat="45.951318838263774" lon="13.475187372414908"><ele>46.0</ele><time>2026-04-05T14:34:31.999Z</time></trkpt><trkpt lat="45.95122326300649" lon="13.475369215769991"><ele>45.333333333333336</ele><time>2026-04-05T14:34:32.999Z</time></trkpt><trkpt lat="45.951126473539844" lon="13.475554176394857"><ele>44.666666666666664</ele><time>2026-04-05T14:34:33.999Z</time></trkpt><trkpt lat="45.95103030177829" lon="13.475738577020444"><ele>44.0</ele><time>2026-04-05T14:34:34.999Z</time></trkpt><trkpt lat="45.950934190640766" lon="13.475918547035997"><ele>44.0</ele><time>2026-04-05T14:34:35.999Z</time></trkpt><trkpt lat="45.95084041901208" lon="13.476100814689959"><ele>44.0</ele><time>2026-04-05T14:34:36.999Z</time></trkpt><trkpt lat="45.950743575914075" lon="13.476285092642536"><ele>44.0</ele><time>2026-04-05T14:34:37.999Z</time></trkpt><trkpt lat="45.95064382731241" lon="13.47647486159447"><ele>44.0</ele><time>2026-04-05T14:34:38.999Z</time></trkpt><trkpt lat="45.950546095185075" lon="13.476665108672027"><ele>44.0</ele><time>2026-04-05T14:34:39.999Z</time></trkpt><trkpt lat="45.9504493941181" lon="13.476852895726779"><ele>44.0</ele><time>2026-04-05T14:34:40.999Z</time></trkpt><trkpt lat="45.950349966137004" lon="13.477040957223528"><ele>43.666666666666664</ele><time>2026-04-05T14:34:41.999Z</time></trkpt><trkpt lat="45.950249825002686" lon="13.477232170624783"><ele>43.333333333333336</ele><time>2026-04-05T14:34:42.999Z</time></trkpt><trkpt lat="45.950151520407154" lon="13.47742985341353"><ele>43.0</ele><time>2026-04-05T14:34:43.999Z</time></trkpt><trkpt lat="45.95005719276248" lon="13.4776247494231"><ele>43.333333333333336</ele><time>2026-04-05T14:34:44.999Z</time></trkpt><trkpt lat="45.94996863652781" lon="13.477810976531732"><ele>43.666666666666664</ele><time>2026-04-05T14:34:45.999Z</time></trkpt><trkpt lat="45.9498849245939" lon="13.477987711640136"><ele>44.0</ele><time>2026-04-05T14:34:46.999Z</time></trkpt><trkpt lat="45.94980410010143" lon="13.478159180017283"><ele>44.0</ele><time>2026-04-05T14:34:47.999Z</time></trkpt><trkpt lat="45.949726640698515" lon="13.47832583858039"><ele>44.0</ele><time>2026-04-05T14:34:48.999Z</time></trkpt><trkpt lat="45.94965214417963" lon="13.478487526463187"><ele>44.0</ele><time>2026-04-05T14:34:49.999Z</time></trkpt><trkpt lat="45.949577516172" lon="13.478645786282819"><ele>44.0</ele><time>2026-04-05T14:34:50.999Z</time></trkpt><trkpt lat="45.949502820621966" lon="13.478801556802296"><ele>44.0</ele><time>2026-04-05T14:34:51.999Z</time></trkpt><trkpt lat="45.94942902692261" lon="13.478954886872069"><ele>44.0</ele><time>2026-04-05T14:34:52.999Z</time></trkpt><trkpt lat="45.94935651475583" lon="13.479109117560839"><ele>44.0</ele><time>2026-04-05T14:34:53.999Z</time></trkpt><trkpt lat="45.94928167956534" lon="13.479263831958779"><ele>44.0</ele><time>2026-04-05T14:34:54.999Z</time></trkpt><trkpt lat="45.94920409387778" lon="13.479415858714917"><ele>44.5</ele><time>2026-04-05T14:34:55.999Z</time></trkpt><trkpt lat="45.9491264817049" lon="13.479565683780919"><ele>45.0</ele><time>2026-04-05T14:34:56.999Z</time></trkpt><trkpt lat="45.94904668815698" lon="13.47971242483203"><ele>45.5</ele><time>2026-04-05T14:34:57.999Z</time></trkpt><trkpt lat="45.94896305175298" lon="13.479853007559871"><ele>46.0</ele><time>2026-04-05T14:34:58.999Z</time></trkpt><trkpt lat="45.94887846217988" lon="13.479994209089568"><ele>46.0</ele><time>2026-04-05T14:34:59.999Z</time></trkpt><trkpt lat="45.94879200869988" lon="13.480136945734623"><ele>46.0</ele><time>2026-04-05T14:35:00.999Z</time></trkpt><trkpt lat="45.94870614663989" lon="13.480278829925407"><ele>46.0</ele><time>2026-04-05T14:35:01.999Z</time></trkpt><trkpt lat="45.948619296913314" lon="13.480420747189216"><ele>46.0</ele><time>2026-04-05T14:35:02.999Z</time></trkpt><trkpt lat="45.94853201894681" lon="13.48056262095264"><ele>46.25</ele><time>2026-04-05T14:35:03.999Z</time></trkpt><trkpt lat="45.94844415413774" lon="13.480706114817702"><ele>46.5</ele><time>2026-04-05T14:35:04.999Z</time></trkpt><trkpt lat="45.94835548214077" lon="13.480850445615287"><ele>46.75</ele><time>2026-04-05T14:35:05.999Z</time></trkpt><trkpt lat="45.948266428995254" lon="13.480995255952966"><ele>47.0</ele><time>2026-04-05T14:35:06.999Z</time></trkpt><trkpt lat="45.94817796631441" lon="13.481143934312167"><ele>47.0</ele><time>2026-04-05T14:35:07.999Z</time></trkpt><trkpt lat="45.948087998657606" lon="13.481294803769345"><ele>47.0</ele><time>2026-04-05T14:35:08.999Z</time></trkpt><trkpt lat="45.94799550839035" lon="13.481445276517752"><ele>47.0</ele><time>2026-04-05T14:35:09.999Z</time></trkpt><trkpt lat="45.94790563290225" lon="13.481595431990776"><ele>47.0</ele><time>2026-04-05T14:35:10.999Z</time></trkpt><trkpt lat="45.947816908192564" lon="13.481749369164039"><ele>47.0</ele><time>2026-04-05T14:35:11.999Z</time></trkpt><trkpt lat="45.94772718702685" lon="13.481903099018629"><ele>47.0</ele><time>2026-04-05T14:35:12.999Z</time></trkpt><trkpt lat="45.94763621124138" lon="13.482054820865272"><ele>47.0</ele><time>2026-04-05T14:35:13.999Z</time></trkpt><trkpt lat="45.947548099044525" lon="13.482210182497726"><ele>47.0</ele><time>2026-04-05T14:35:14.999Z</time></trkpt><trkpt lat="45.94747230417032" lon="13.482379843292371"><ele>48.25</ele><time>2026-04-05T14:35:15.999Z</time></trkpt><trkpt lat="45.94740179585974" lon="13.482548395779085"><ele>49.5</ele><time>2026-04-05T14:35:16.999Z</time></trkpt><trkpt lat="45.94732169360187" lon="13.482716948649012"><ele>50.75</ele><time>2026-04-05T14:35:17.999Z</time></trkpt><trkpt lat="45.94727052960315" lon="13.482906992491529"><ele>52.0</ele><time>2026-04-05T14:35:18.999Z</time></trkpt><trkpt lat="45.94720412168512" lon="13.483086186745478"><ele>52.25</ele><time>2026-04-05T14:35:19.999Z</time></trkpt><trkpt lat="45.947139642854566" lon="13.483270384367616"><ele>52.5</ele><time>2026-04-05T14:35:20.999Z</time></trkpt><trkpt lat="45.947076618219874" lon="13.48346038232174"><ele>52.75</ele><time>2026-04-05T14:35:21.999Z</time></trkpt><trkpt lat="45.94701199434057" lon="13.483655453914778"><ele>53.0</ele><time>2026-04-05T14:35:22.999Z</time></trkpt><trkpt lat="45.94694587321288" lon="13.48385025468964"><ele>53.0</ele><time>2026-04-05T14:35:23.999Z</time></trkpt><trkpt lat="45.946884245786144" lon="13.484050149478197"><ele>53.0</ele><time>2026-04-05T14:35:24.999Z</time></trkpt><trkpt lat="45.94682835181492" lon="13.484255492038939"><ele>53.0</ele><time>2026-04-05T14:35:25.999Z</time></trkpt><trkpt lat="45.94676924323313" lon="13.48446284220583"><ele>53.333333333333336</ele><time>2026-04-05T14:35:26.999Z</time></trkpt><trkpt lat="45.94671356468413" lon="13.48467143653693"><ele>53.66666666666667</ele><time>2026-04-05T14:35:27.999Z</time></trkpt><trkpt lat="45.94665402976329" lon="13.484879160896709"><ele>54.0</ele><time>2026-04-05T14:35:28.999Z</time></trkpt><trkpt lat="45.94659829062322" lon="13.4850902492415"><ele>54.0</ele><time>2026-04-05T14:35:29.999Z</time></trkpt><trkpt lat="45.94653521125256" lon="13.485299625496374"><ele>54.0</ele><time>2026-04-05T14:35:31Z</time></trkpt><trkpt lat="45.94648253221953" lon="13.485510493860067"><ele>54.0</ele><time>2026-04-05T14:35:32Z</time></trkpt><trkpt lat="45.94643021005459" lon="13.485723770415488"><ele>54.0</ele><time>2026-04-05T14:35:33Z</time></trkpt><trkpt lat="45.946370113815206" lon="13.485931310351727"><ele>54.0</ele><time>2026-04-05T14:35:34Z</time></trkpt><trkpt lat="45.946312387721925" lon="13.486146341418774"><ele>54.0</ele><time>2026-04-05T14:35:35Z</time></trkpt><trkpt lat="45.94625543318419" lon="13.486360652701899"><ele>54.0</ele><time>2026-04-05T14:35:36Z</time></trkpt><trkpt lat="45.9461979316651" lon="13.486575978643984"><ele>54.0</ele><time>2026-04-05T14:35:37Z</time></trkpt><trkpt lat="45.946141554679414" lon="13.486798640098314"><ele>54.0</ele><time>2026-04-05T14:35:38Z</time></trkpt><trkpt lat="45.94608353663813" lon="13.487027101939384"><ele>53.33333333333333</ele><time>2026-04-05T14:35:39Z</time></trkpt><trkpt lat="45.946024301692404" lon="13.487257782646362"><ele>52.666666666666664</ele><time>2026-04-05T14:35:40Z</time></trkpt><trkpt lat="45.945964520640544" lon="13.48748109430841"><ele>52.0</ele><time>2026-04-05T14:35:41Z</time></trkpt><trkpt lat="45.94590585722177" lon="13.487702397229768"><ele>51.33333333333333</ele><time>2026-04-05T14:35:42Z</time></trkpt><trkpt lat="45.94584700590269" lon="13.487919893925335"><ele>50.66666666666667</ele><time>2026-04-05T14:35:43Z</time></trkpt><trkpt lat="45.94578953282112" lon="13.488138105177867"><ele>50.0</ele><time>2026-04-05T14:35:44Z</time></trkpt><trkpt lat="45.945730569597835" lon="13.488357912935012"><ele>50.0</ele><time>2026-04-05T14:35:45Z</time></trkpt><trkpt lat="45.94567218073855" lon="13.488581275940227"><ele>50.0</ele><time>2026-04-05T14:35:46Z</time></trkpt><trkpt lat="45.945612412757995" lon="13.488807202660187"><ele>50.0</ele><time>2026-04-05T14:35:47Z</time></trkpt><trkpt lat="45.94555296496607" lon="13.489031794703797"><ele>49.66666666666667</ele><time>2026-04-05T14:35:48Z</time></trkpt><trkpt lat="45.945494761129154" lon="13.48925999000021"><ele>49.33333333333333</ele><time>2026-04-05T14:35:49Z</time></trkpt><trkpt lat="45.945433568553185" lon="13.489490761141704"><ele>49.0</ele><time>2026-04-05T14:35:50Z</time></trkpt><trkpt lat="45.94537408648117" lon="13.489725460673567"><ele>49.0</ele><time>2026-04-05T14:35:51Z</time></trkpt><trkpt lat="45.945316438569066" lon="13.489964363399576"><ele>49.0</ele><time>2026-04-05T14:35:52Z</time></trkpt><trkpt lat="45.94525546516053" lon="13.490206037632582"><ele>49.0</ele><time>2026-04-05T14:35:53Z</time></trkpt><trkpt lat="45.94519287304643" lon="13.490448532229806"><ele>48.666666666666664</ele><time>2026-04-05T14:35:54Z</time></trkpt><trkpt lat="45.945130005825675" lon="13.490692146101708"><ele>48.33333333333333</ele><time>2026-04-05T14:35:55Z</time></trkpt><trkpt lat="45.945061806034545" lon="13.490938466738847"><ele>48.0</ele><time>2026-04-05T14:35:56Z</time></trkpt><trkpt lat="45.94499370306737" lon="13.491189989679436"><ele>48.66666666666667</ele><time>2026-04-05T14:35:57Z</time></trkpt><trkpt lat="45.944931473730215" lon="13.491438323432936"><ele>49.333333333333336</ele><time>2026-04-05T14:35:58Z</time></trkpt><trkpt lat="45.94486974931769" lon="13.491679361933178"><ele>50.0</ele><time>2026-04-05T14:35:59Z</time></trkpt><trkpt lat="45.944801172131505" lon="13.491919956030907"><ele>51.0</ele><time>2026-04-05T14:36:00Z</time></trkpt><trkpt lat="45.94473454436744" lon="13.492159851152831"><ele>52.0</ele><time>2026-04-05T14:36:01Z</time></trkpt><trkpt lat="45.94466943729336" lon="13.492396164389532"><ele>53.0</ele><time>2026-04-05T14:36:02Z</time></trkpt><trkpt lat="45.944606370893645" lon="13.492634044159757"><ele>53.0</ele><time>2026-04-05T14:36:03Z</time></trkpt><trkpt lat="45.944544481590526" lon="13.492869467946875"><ele>53.0</ele><time>2026-04-05T14:36:04Z</time></trkpt><trkpt lat="45.944482553687834" lon="13.49309897935263"><ele>53.0</ele><time>2026-04-05T14:36:05Z</time></trkpt><trkpt lat="45.94442324157468" lon="13.493320387011108"><ele>52.75</ele><time>2026-04-05T14:36:06Z</time></trkpt><trkpt lat="45.94437610971159" lon="13.493521888600744"><ele>52.5</ele><time>2026-04-05T14:36:06.999Z</time></trkpt><trkpt lat="45.94433841881578" lon="13.493722630071872"><ele>52.25</ele><time>2026-04-05T14:36:07.999Z</time></trkpt><trkpt lat="45.9443175485531" lon="13.493927757304274"><ele>52.0</ele><time>2026-04-05T14:36:08.999Z</time></trkpt><trkpt lat="45.94430783946685" lon="13.494134233373334"><ele>52.0</ele><time>2026-04-05T14:36:09.999Z</time></trkpt><trkpt lat="45.94429394255951" lon="13.494342169600486"><ele>52.0</ele><time>2026-04-05T14:36:10.999Z</time></trkpt><trkpt lat="45.94426998467303" lon="13.494557621441826"><ele>52.0</ele><time>2026-04-05T14:36:11.999Z</time></trkpt><trkpt lat="45.94423227108332" lon="13.494779096507918"><ele>49.666666666666664</ele><time>2026-04-05T14:36:12.999Z</time></trkpt><trkpt lat="45.94418416352561" lon="13.495005483428345"><ele>47.33333333333333</ele><time>2026-04-05T14:36:13.999Z</time></trkpt><trkpt lat="45.94412772837512" lon="13.495224582089717"><ele>45.0</ele><time>2026-04-05T14:36:14.999Z</time></trkpt><trkpt lat="45.94407273705771" lon="13.495442270550516"><ele>45.0</ele><time>2026-04-05T14:36:15.999Z</time></trkpt><trkpt lat="45.9440202702752" lon="13.495649472268264"><ele>45.0</ele><time>2026-04-05T14:36:16.999Z</time></trkpt><trkpt lat="45.94397049611655" lon="13.495845508475833"><ele>45.0</ele><time>2026-04-05T14:36:17.999Z</time></trkpt><trkpt lat="45.94392122540167" lon="13.496035685645191"><ele>45.0</ele><time>2026-04-05T14:36:18.999Z</time></trkpt><trkpt lat="45.94387131321263" lon="13.496218954428334"><ele>45.0</ele><time>2026-04-05T14:36:19.999Z</time></trkpt><trkpt lat="45.94382290121101" lon="13.496402624466374"><ele>45.0</ele><time>2026-04-05T14:36:20.999Z</time></trkpt><trkpt lat="45.94378142068663" lon="13.496590640545774"><ele>45.0</ele><time>2026-04-05T14:36:21.999Z</time></trkpt><trkpt lat="45.94374892021498" lon="13.49678176163846"><ele>45.0</ele><time>2026-04-05T14:36:22.999Z</time></trkpt><trkpt lat="45.94372105273967" lon="13.496979077058365"><ele>45.0</ele><time>2026-04-05T14:36:23.999Z</time></trkpt><trkpt lat="45.94369051680096" lon="13.497173064449726"><ele>45.0</ele><time>2026-04-05T14:36:24.999Z</time></trkpt><trkpt lat="45.943662404215" lon="13.49736559407127"><ele>45.0</ele><time>2026-04-05T14:36:25.999Z</time></trkpt><trkpt lat="45.94363645401284" lon="13.497562473861647"><ele>45.0</ele><time>2026-04-05T14:36:26.999Z</time></trkpt><trkpt lat="45.943622133167054" lon="13.497758979098904"><ele>45.0</ele><time>2026-04-05T14:36:27.999Z</time></trkpt><trkpt lat="45.94362235703584" lon="13.497955478979286"><ele>45.0</ele><time>2026-04-05T14:36:28.999Z</time></trkpt><trkpt lat="45.94363471669478" lon="13.498149598908093"><ele>45.0</ele><time>2026-04-05T14:36:29.999Z</time></trkpt><trkpt lat="45.94365461742046" lon="13.498343043156005"><ele>45.0</ele><time>2026-04-05T14:36:30.999Z</time></trkpt><trkpt lat="45.94367530966237" lon="13.498538908251003"><ele>45.0</ele><time>2026-04-05T14:36:31.999Z</time></trkpt><trkpt lat="45.94369503663152" lon="13.498737387713645"><ele>45.0</ele><time>2026-04-05T14:36:32.999Z</time></trkpt><trkpt lat="45.94371496075868" lon="13.498941113678066"><ele>45.0</ele><time>2026-04-05T14:36:33.999Z</time></trkpt><trkpt lat="45.943734697570555" lon="13.499145674233157"><ele>45.0</ele><time>2026-04-05T14:36:34.999Z</time></trkpt><trkpt lat="45.943755729076365" lon="13.49935279136972"><ele>44.75</ele><time>2026-04-05T14:36:35.999Z</time></trkpt><trkpt lat="45.94377532368434" lon="13.499559788403149"><ele>44.5</ele><time>2026-04-05T14:36:36.999Z</time></trkpt><trkpt lat="45.943782845203536" lon="13.499769168730271"><ele>44.25</ele><time>2026-04-05T14:36:37.999Z</time></trkpt><trkpt lat="45.94376427561338" lon="13.499980672984428"><ele>44.0</ele><time>2026-04-05T14:36:38.999Z</time></trkpt><trkpt lat="45.943716970690446" lon="13.500183642701602"><ele>43.25</ele><time>2026-04-05T14:36:39.999Z</time></trkpt><trkpt lat="45.943655875066256" lon="13.500376694464654"><ele>42.5</ele><time>2026-04-05T14:36:40.999Z</time></trkpt><trkpt lat="45.94359629896972" lon="13.500566752165755"><ele>41.75</ele><time>2026-04-05T14:36:41.999Z</time></trkpt><trkpt lat="45.943535293282096" lon="13.5007529299209"><ele>41.0</ele><time>2026-04-05T14:36:42.999Z</time></trkpt><trkpt lat="45.94347671714906" lon="13.500932387233666"><ele>40.75</ele><time>2026-04-05T14:36:43.999Z</time></trkpt><trkpt lat="45.943421108068776" lon="13.50111049290067"><ele>40.5</ele><time>2026-04-05T14:36:44.999Z</time></trkpt><trkpt lat="45.94336434642022" lon="13.501288522067103"><ele>40.25</ele><time>2026-04-05T14:36:45.999Z</time></trkpt><trkpt lat="45.94330746239972" lon="13.501475906236776"><ele>40.0</ele><time>2026-04-05T14:36:46.999Z</time></trkpt><trkpt lat="45.94324882105442" lon="13.501668758344701"><ele>40.5</ele><time>2026-04-05T14:36:47.999Z</time></trkpt><trkpt lat="45.94318776861554" lon="13.501862569166029"><ele>41.0</ele><time>2026-04-05T14:36:48.999Z</time></trkpt><trkpt lat="45.94312684684375" lon="13.502057827473628"><ele>41.5</ele><time>2026-04-05T14:36:49.999Z</time></trkpt><trkpt lat="45.943066888096254" lon="13.502251070566667"><ele>42.0</ele><time>2026-04-05T14:36:50.999Z</time></trkpt><trkpt lat="45.94300656133544" lon="13.502439650094965"><ele>42.5</ele><time>2026-04-05T14:36:51.999Z</time></trkpt><trkpt lat="45.94294716607218" lon="13.502628159758792"><ele>43.0</ele><time>2026-04-05T14:36:52.999Z</time></trkpt><trkpt lat="45.94289001043998" lon="13.502815149259597"><ele>43.5</ele><time>2026-04-05T14:36:53.999Z</time></trkpt><trkpt lat="45.942832888606716" lon="13.503006929385382"><ele>44.0</ele><time>2026-04-05T14:36:54.999Z</time></trkpt><trkpt lat="45.942772993971914" lon="13.50320692719914"><ele>44.0</ele><time>2026-04-05T14:36:55.999Z</time></trkpt><trkpt lat="45.942707713037066" lon="13.50341194954193"><ele>44.0</ele><time>2026-04-05T14:36:56.999Z</time></trkpt><trkpt lat="45.94263988307325" lon="13.50362078785339"><ele>44.0</ele><time>2026-04-05T14:36:57.999Z</time></trkpt><trkpt lat="45.94257292725453" lon="13.503833759097914"><ele>44.33333333333333</ele><time>2026-04-05T14:36:58.999Z</time></trkpt><trkpt lat="45.94250685538112" lon="13.504046101126733"><ele>44.666666666666664</ele><time>2026-04-05T14:36:59.999Z</time></trkpt><trkpt lat="45.94244295558857" lon="13.504252781615481"><ele>45.0</ele><time>2026-04-05T14:37:00.999Z</time></trkpt><trkpt lat="45.94238095239569" lon="13.504453000839575"><ele>44.5</ele><time>2026-04-05T14:37:01.999Z</time></trkpt><trkpt lat="45.94232043655145" lon="13.504648359707868"><ele>44.0</ele><time>2026-04-05T14:37:02.999Z</time></trkpt><trkpt lat="45.942260699563306" lon="13.50484001624671"><ele>43.5</ele><time>2026-04-05T14:37:03.999Z</time></trkpt><trkpt lat="45.94220148760452" lon="13.505028811568094"><ele>43.0</ele><time>2026-04-05T14:37:04.999Z</time></trkpt><trkpt lat="45.94214199931792" lon="13.505219436796683"><ele>43.0</ele><time>2026-04-05T14:37:05.999Z</time></trkpt><trkpt lat="45.94208220701438" lon="13.505406480772463"><ele>43.0</ele><time>2026-04-05T14:37:06.999Z</time></trkpt><trkpt lat="45.94203045055809" lon="13.505575765114203"><ele>43.0</ele><time>2026-04-05T14:37:07.999Z</time></trkpt><trkpt lat="45.94198488823002" lon="13.50572374533189"><ele>43.0</ele><time>2026-04-05T14:37:08.999Z</time></trkpt><trkpt lat="45.94194408990945" lon="13.50585301892707"><ele>43.0</ele><time>2026-04-05T14:37:09.999Z</time></trkpt><trkpt lat="45.94191240256064" lon="13.505958513580191"><ele>43.0</ele><time>2026-04-05T14:37:10.999Z</time></trkpt><trkpt lat="45.94188513094956" lon="13.506045101535346"><ele>43.0</ele><time>2026-04-05T14:37:11.999Z</time></trkpt><trkpt lat="45.941835868696664" lon="13.506202842633545"><ele>43.0</ele><time>2026-04-05T14:37:13.999Z</time></trkpt><trkpt lat="45.94178723760983" lon="13.506352899972303"><ele>43.0</ele><time>2026-04-05T14:37:15.999Z</time></trkpt><trkpt lat="45.941758242305276" lon="13.506453640715272"><ele>43.16666666666667</ele><time>2026-04-05T14:37:16.999Z</time></trkpt><trkpt lat="45.941725684318506" lon="13.506564945087588"><ele>43.333333333333336</ele><time>2026-04-05T14:37:17.999Z</time></trkpt><trkpt lat="45.941691276354085" lon="13.506679125769748"><ele>43.5</ele><time>2026-04-05T14:37:18.999Z</time></trkpt><trkpt lat="45.94165730314683" lon="13.506787437845878"><ele>43.666666666666664</ele><time>2026-04-05T14:37:19.999Z</time></trkpt><trkpt lat="45.941627740037084" lon="13.506892158895138"><ele>43.83333333333333</ele><time>2026-04-05T14:37:20.999Z</time></trkpt><trkpt lat="45.941585781573565" lon="13.50703641544294"><ele>44.0</ele><time>2026-04-05T14:37:22.999Z</time></trkpt><trkpt lat="45.941533951073076" lon="13.507151913698157"><ele>44.166666666666664</ele><time>2026-04-05T14:37:24.999Z</time></trkpt><trkpt lat="45.94148064994748" lon="13.507324610101469"><ele>44.33333333333333</ele><time>2026-04-05T14:37:26.999Z</time></trkpt><trkpt lat="45.94146716369459" lon="13.507420284092882"><ele>44.5</ele><time>2026-04-05T14:37:27.999Z</time></trkpt><trkpt lat="45.941433322130074" lon="13.50749710770511"><ele>44.666666666666664</ele><time>2026-04-05T14:37:28.999Z</time></trkpt><trkpt lat="45.941398336209055" lon="13.50760558069269"><ele>44.833333333333336</ele><time>2026-04-05T14:37:29.999Z</time></trkpt><trkpt lat="45.94136647719709" lon="13.50773429042054"><ele>45.0</ele><time>2026-04-05T14:37:30.999Z</time></trkpt><trkpt lat="45.941327262317394" lon="13.507854176186068"><ele>45.0</ele><time>2026-04-05T14:37:31.999Z</time></trkpt><trkpt lat="45.94128715105782" lon="13.507990230079296"><ele>45.0</ele><time>2026-04-05T14:37:32.999Z</time></trkpt><trkpt lat="45.94125354662512" lon="13.508103928887552"><ele>45.0</ele><time>2026-04-05T14:37:33.999Z</time></trkpt><trkpt lat="45.94121997064062" lon="13.50821576892058"><ele>45.0</ele><time>2026-04-05T14:37:34.999Z</time></trkpt><trkpt lat="45.94118718357054" lon="13.5083199945959"><ele>45.0</ele><time>2026-04-05T14:37:35.999Z</time></trkpt><trkpt lat="45.9411575710078" lon="13.508410756999082"><ele>45.0</ele><time>2026-04-05T14:37:37Z</time></trkpt><trkpt lat="45.94112981336885" lon="13.508500022903373"><ele>45.0</ele><time>2026-04-05T14:37:38Z</time></trkpt><trkpt lat="45.94107378578658" lon="13.508678908484448"><ele>45.0</ele><time>2026-04-05T14:37:40Z</time></trkpt><trkpt lat="45.941031908980875" lon="13.508809425554759"><ele>45.0</ele><time>2026-04-05T14:37:41Z</time></trkpt><trkpt lat="45.9409753458104" lon="13.508965724148442"><ele>45.0</ele><time>2026-04-05T14:37:42Z</time></trkpt><trkpt lat="45.94091967045445" lon="13.509141057100509"><ele>45.25</ele><time>2026-04-05T14:37:43Z</time></trkpt><trkpt lat="45.94086655254873" lon="13.50930852699686"><ele>45.5</ele><time>2026-04-05T14:37:44Z</time></trkpt><trkpt lat="45.940816187122635" lon="13.509450271242427"><ele>45.75</ele><time>2026-04-05T14:37:45Z</time></trkpt><trkpt lat="45.94076667227016" lon="13.509598535559673"><ele>46.0</ele><time>2026-04-05T14:37:46Z</time></trkpt><trkpt lat="45.94072280670615" lon="13.509746645895728"><ele>46.0</ele><time>2026-04-05T14:37:47Z</time></trkpt><trkpt lat="45.94068265011426" lon="13.509895217999404"><ele>46.0</ele><time>2026-04-05T14:37:48Z</time></trkpt><trkpt lat="45.94064307539816" lon="13.510040302333385"><ele>46.0</ele><time>2026-04-05T14:37:49Z</time></trkpt><trkpt lat="45.940602207241234" lon="13.510186572165585"><ele>46.0</ele><time>2026-04-05T14:37:50Z</time></trkpt><trkpt lat="45.94055488275756" lon="13.510340999954927"><ele>46.0</ele><time>2026-04-05T14:37:51Z</time></trkpt><trkpt lat="45.94048912672215" lon="13.510493209502064"><ele>46.4</ele><time>2026-04-05T14:37:52Z</time></trkpt><trkpt lat="45.94044386526459" lon="13.510637701955414"><ele>46.8</ele><time>2026-04-05T14:37:53Z</time></trkpt><trkpt lat="45.940399840448144" lon="13.510778447784993"><ele>47.199999999999996</ele><time>2026-04-05T14:37:54Z</time></trkpt><trkpt lat="45.94035658475452" lon="13.510916767616546"><ele>47.599999999999994</ele><time>2026-04-05T14:37:55Z</time></trkpt><trkpt lat="45.94031182941998" lon="13.51105926285321"><ele>48.0</ele><time>2026-04-05T14:37:56Z</time></trkpt><trkpt lat="45.940264427431096" lon="13.511210428462858"><ele>48.0</ele><time>2026-04-05T14:37:57Z</time></trkpt><trkpt lat="45.9402164732144" lon="13.511363355088706"><ele>48.0</ele><time>2026-04-05T14:37:58Z</time></trkpt><trkpt lat="45.940168059187684" lon="13.511517748073459"><ele>48.0</ele><time>2026-04-05T14:37:59Z</time></trkpt><trkpt lat="45.94012093051571" lon="13.511668042063764"><ele>48.0</ele><time>2026-04-05T14:38:00Z</time></trkpt><trkpt lat="45.940073922433726" lon="13.511817951486615"><ele>48.0</ele><time>2026-04-05T14:38:01Z</time></trkpt><trkpt lat="45.94003729207114" lon="13.511978847773676"><ele>48.0</ele><time>2026-04-05T14:38:02Z</time></trkpt><trkpt lat="45.93998418971087" lon="13.51213430057667"><ele>48.0</ele><time>2026-04-05T14:38:03Z</time></trkpt><trkpt lat="45.93993992432765" lon="13.512292621241912"><ele>48.0</ele><time>2026-04-05T14:38:04Z</time></trkpt><trkpt lat="45.93991225574861" lon="13.51245473035242"><ele>48.0</ele><time>2026-04-05T14:38:05Z</time></trkpt><trkpt lat="45.939899509159645" lon="13.51261982425607"><ele>48.0</ele><time>2026-04-05T14:38:06Z</time></trkpt><trkpt lat="45.939898826108" lon="13.512783365554386"><ele>48.0</ele><time>2026-04-05T14:38:07Z</time></trkpt><trkpt lat="45.93990834185383" lon="13.512946636642013"><ele>48.0</ele><time>2026-04-05T14:38:08Z</time></trkpt><trkpt lat="45.939919761040166" lon="13.513112476582977"><ele>48.0</ele><time>2026-04-05T14:38:09Z</time></trkpt><trkpt lat="45.93994281564629" lon="13.51327912563755"><ele>48.0</ele><time>2026-04-05T14:38:10Z</time></trkpt><trkpt lat="45.939974907730736" lon="13.513439673624001"><ele>48.0</ele><time>2026-04-05T14:38:11Z</time></trkpt><trkpt lat="45.94001734458531" lon="13.513590962849314"><ele>48.0</ele><time>2026-04-05T14:38:12Z</time></trkpt><trkpt lat="45.94006288304979" lon="13.513724084792655"><ele>48.166666666666664</ele><time>2026-04-05T14:38:13Z</time></trkpt><trkpt lat="45.9401035678728" lon="13.513837265644277"><ele>48.33333333333333</ele><time>2026-04-05T14:38:14Z</time></trkpt><trkpt lat="45.94013399679265" lon="13.513926842574667"><ele>48.5</ele><time>2026-04-05T14:38:14.999Z</time></trkpt><trkpt lat="45.940165042790234" lon="13.514061272965352"><ele>48.666666666666664</ele><time>2026-04-05T14:38:16.999Z</time></trkpt><trkpt lat="45.94015170417746" lon="13.51417415956213"><ele>48.83333333333333</ele><time>2026-04-05T14:38:19.999Z</time></trkpt><trkpt lat="45.94013344880143" lon="13.514261308513515"><ele>49.0</ele><time>2026-04-05T14:38:22.999Z</time></trkpt><trkpt lat="45.939985738632494" lon="13.514256376516151"><ele>48.99999999999999</ele><time>2026-04-05T14:38:24.999Z</time></trkpt><trkpt lat="45.93991543904328" lon="13.514240950939227"><ele>49.0</ele><time>2026-04-05T14:38:25.999Z</time></trkpt><trkpt lat="45.939838816109585" lon="13.514235547376066"><ele>49.0</ele><time>2026-04-05T14:38:26.999Z</time></trkpt><trkpt lat="45.93977611940268" lon="13.51421901669035"><ele>49.0</ele><time>2026-04-05T14:38:27.999Z</time></trkpt><trkpt lat="45.93970635249313" lon="13.51421128366713"><ele>48.99999999999999</ele><time>2026-04-05T14:38:28.999Z</time></trkpt><trkpt lat="45.93963772057075" lon="13.514209117143961"><ele>49.0</ele><time>2026-04-05T14:38:29.999Z</time></trkpt><trkpt lat="45.93952327620501" lon="13.514204547715131"><ele>49.0</ele><time>2026-04-05T14:38:31.999Z</time></trkpt><trkpt lat="45.93942503639082" lon="13.514195484087042"><ele>49.0</ele><time>2026-04-05T14:38:33.999Z</time></trkpt><trkpt lat="45.9394050911051" lon="13.51440013296772"><ele>49.0</ele><time>2026-04-05T14:38:37.999Z</time></trkpt><trkpt lat="45.93949326747663" lon="13.51453889377738"><ele>49.0</ele><time>2026-04-05T14:38:39.999Z</time></trkpt><trkpt lat="45.93953494913157" lon="13.514637371398273"><ele>49.0</ele><time>2026-04-05T14:38:40.999Z</time></trkpt><trkpt lat="45.93957488470123" lon="13.514741443701212"><ele>49.0</ele><time>2026-04-05T14:38:41.999Z</time></trkpt><trkpt lat="45.93961296496332" lon="13.514832895337607"><ele>49.0</ele><time>2026-04-05T14:38:42.999Z</time></trkpt><trkpt lat="45.93964881263583" lon="13.514916180694707"><ele>49.0</ele><time>2026-04-05T14:38:43.999Z</time></trkpt><trkpt lat="45.93968963093226" lon="13.515008544104246"><ele>49.0</ele><time>2026-04-05T14:38:44.999Z</time></trkpt><trkpt lat="45.93973417466548" lon="13.515096276391816"><ele>49.0</ele><time>2026-04-05T14:38:45.999Z</time></trkpt><trkpt lat="45.93977000340531" lon="13.515178953614365"><ele>49.0</ele><time>2026-04-05T14:38:46.999Z</time></trkpt><trkpt lat="45.93981852653903" lon="13.515312987148013"><ele>48.99999999999999</ele><time>2026-04-05T14:38:48.999Z</time></trkpt><trkpt lat="45.93984237426662" lon="13.515401465967487"><ele>49.0</ele><time>2026-04-05T14:38:50.999Z</time></trkpt><trkpt lat="45.9397822727096" lon="13.515534492579299"><ele>49.0</ele><time>2026-04-05T14:38:52.999Z</time></trkpt><trkpt lat="45.939712512876326" lon="13.515597890675842"><ele>49.0</ele><time>2026-04-05T14:38:53.999Z</time></trkpt><trkpt lat="45.939651242982585" lon="13.515680105083929"><ele>48.99999999999999</ele><time>2026-04-05T14:38:54.999Z</time></trkpt><trkpt lat="45.939590362971565" lon="13.515760215943372"><ele>49.0</ele><time>2026-04-05T14:38:55.999Z</time></trkpt><trkpt lat="45.939530386258355" lon="13.515839583454632"><ele>49.0</ele><time>2026-04-05T14:38:56.999Z</time></trkpt><trkpt lat="45.939475961314045" lon="13.515910909410872"><ele>49.0</ele><time>2026-04-05T14:38:57.999Z</time></trkpt><trkpt lat="45.93939910916837" lon="13.516019134837746"><ele>49.0</ele><time>2026-04-05T14:38:59.999Z</time></trkpt><trkpt lat="45.93934180693138" lon="13.516097183339365"><ele>49.0</ele><time>2026-04-05T14:39:00.999Z</time></trkpt><trkpt lat="45.939267198006014" lon="13.516198264041936"><ele>49.0</ele><time>2026-04-05T14:39:01.999Z</time></trkpt><trkpt lat="45.93919631263292" lon="13.516312581316013"><ele>49.0</ele><time>2026-04-05T14:39:02.999Z</time></trkpt><trkpt lat="45.93913508976796" lon="13.516437369781578"><ele>49.0</ele><time>2026-04-05T14:39:03.999Z</time></trkpt><trkpt lat="45.939092118123924" lon="13.516563415312344"><ele>49.0</ele><time>2026-04-05T14:39:04.999Z</time></trkpt><trkpt lat="45.9390608678011" lon="13.516692291238828"><ele>49.0</ele><time>2026-04-05T14:39:05.999Z</time></trkpt><trkpt lat="45.9390376805755" lon="13.516825144093412"><ele>49.0</ele><time>2026-04-05T14:39:06.999Z</time></trkpt><trkpt lat="45.93902029138097" lon="13.51696941129225"><ele>49.0</ele><time>2026-04-05T14:39:07.999Z</time></trkpt><trkpt lat="45.93900446597795" lon="13.517117316094353"><ele>49.0</ele><time>2026-04-05T14:39:08.999Z</time></trkpt><trkpt lat="45.938983382704265" lon="13.517273374452111"><ele>49.0</ele><time>2026-04-05T14:39:09.999Z</time></trkpt><trkpt lat="45.93896574466958" lon="13.517438319014998"><ele>49.0</ele><time>2026-04-05T14:39:10.999Z</time></trkpt><trkpt lat="45.93894537346127" lon="13.517602581947015"><ele>49.0</ele><time>2026-04-05T14:39:11.999Z</time></trkpt><trkpt lat="45.93892250504287" lon="13.517771252457809"><ele>49.0</ele><time>2026-04-05T14:39:12.999Z</time></trkpt><trkpt lat="45.93889882854215" lon="13.517938126654219"><ele>49.0</ele><time>2026-04-05T14:39:13.999Z</time></trkpt><trkpt lat="45.93887527613499" lon="13.518104689044652"><ele>49.0</ele><time>2026-04-05T14:39:14.999Z</time></trkpt><trkpt lat="45.93885628506258" lon="13.518268076256613"><ele>49.0</ele><time>2026-04-05T14:39:15.999Z</time></trkpt><trkpt lat="45.93883323211954" lon="13.518434436861272"><ele>49.0</ele><time>2026-04-05T14:39:16.999Z</time></trkpt><trkpt lat="45.93881007423593" lon="13.518611930956103"><ele>49.0</ele><time>2026-04-05T14:39:17.999Z</time></trkpt><trkpt lat="45.938785601935194" lon="13.518797342079472"><ele>49.0</ele><time>2026-04-05T14:39:18.999Z</time></trkpt><trkpt lat="45.93876108515804" lon="13.518979099132386"><ele>49.0</ele><time>2026-04-05T14:39:19.999Z</time></trkpt><trkpt lat="45.9387356937123" lon="13.519148684332901"><ele>49.0</ele><time>2026-04-05T14:39:20.999Z</time></trkpt><trkpt lat="45.93871199077901" lon="13.519297822542672"><ele>49.0</ele><time>2026-04-05T14:39:21.999Z</time></trkpt><trkpt lat="45.938691847620944" lon="13.519436240488952"><ele>49.0</ele><time>2026-04-05T14:39:22.999Z</time></trkpt><trkpt lat="45.938673693186054" lon="13.519557990823614"><ele>49.0</ele><time>2026-04-05T14:39:23.999Z</time></trkpt><trkpt lat="45.93865881222698" lon="13.519652129706255"><ele>49.0</ele><time>2026-04-05T14:39:24.999Z</time></trkpt><trkpt lat="45.93863698231081" lon="13.519821558463626"><ele>49.0</ele><time>2026-04-05T14:39:26.999Z</time></trkpt><trkpt lat="45.93862692253399" lon="13.519925605975367"><ele>49.0</ele><time>2026-04-05T14:39:27.999Z</time></trkpt><trkpt lat="45.93861463055324" lon="13.520046331651935"><ele>49.0</ele><time>2026-04-05T14:39:28.999Z</time></trkpt><trkpt lat="45.93859516472349" lon="13.520187051510169"><ele>49.0</ele><time>2026-04-05T14:39:29.999Z</time></trkpt><trkpt lat="45.93857396775854" lon="13.520343973982904"><ele>49.0</ele><time>2026-04-05T14:39:30.999Z</time></trkpt><trkpt lat="45.93855677671337" lon="13.520502131455807"><ele>49.0</ele><time>2026-04-05T14:39:31.999Z</time></trkpt><trkpt lat="45.938535865794506" lon="13.520663113506064"><ele>49.0</ele><time>2026-04-05T14:39:32.999Z</time></trkpt><trkpt lat="45.9385130186688" lon="13.520822797558594"><ele>49.0</ele><time>2026-04-05T14:39:33.999Z</time></trkpt><trkpt lat="45.938490778886454" lon="13.520994384169201"><ele>49.0</ele><time>2026-04-05T14:39:34.999Z</time></trkpt><trkpt lat="45.93846758536162" lon="13.521172994572035"><ele>49.0</ele><time>2026-04-05T14:39:35.999Z</time></trkpt><trkpt lat="45.93844281107663" lon="13.521357690487504"><ele>49.0</ele><time>2026-04-05T14:39:36.999Z</time></trkpt><trkpt lat="45.938417919254306" lon="13.52154630761848"><ele>49.0</ele><time>2026-04-05T14:39:37.999Z</time></trkpt><trkpt lat="45.93839595360737" lon="13.521730930644903"><ele>49.0</ele><time>2026-04-05T14:39:38.999Z</time></trkpt><trkpt lat="45.93837194708614" lon="13.521914900047056"><ele>49.75</ele><time>2026-04-05T14:39:39.999Z</time></trkpt><trkpt lat="45.93834625799155" lon="13.522098329120256"><ele>50.5</ele><time>2026-04-05T14:39:40.999Z</time></trkpt><trkpt lat="45.938321449022375" lon="13.522284339669227"><ele>51.25</ele><time>2026-04-05T14:39:41.999Z</time></trkpt><trkpt lat="45.93829713231775" lon="13.522472646004065"><ele>52.0</ele><time>2026-04-05T14:39:43Z</time></trkpt><trkpt lat="45.93827181819699" lon="13.522661605167594"><ele>52.0</ele><time>2026-04-05T14:39:44Z</time></trkpt><trkpt lat="45.938247471563386" lon="13.522851974249809"><ele>52.0</ele><time>2026-04-05T14:39:45Z</time></trkpt><trkpt lat="45.93822006865927" lon="13.52304038913095"><ele>52.0</ele><time>2026-04-05T14:39:46Z</time></trkpt><trkpt lat="45.938196358309405" lon="13.523206199374293"><ele>52.0</ele><time>2026-04-05T14:39:47Z</time></trkpt><trkpt lat="45.93817555601868" lon="13.52335870095682"><ele>52.2</ele><time>2026-04-05T14:39:48Z</time></trkpt><trkpt lat="45.938158712657135" lon="13.523505159877327"><ele>52.400000000000006</ele><time>2026-04-05T14:39:49Z</time></trkpt><trkpt lat="45.938143563617096" lon="13.523637575329435"><ele>52.599999999999994</ele><time>2026-04-05T14:39:50Z</time></trkpt><trkpt lat="45.9381310261541" lon="13.523757297012136"><ele>52.8</ele><time>2026-04-05T14:39:51Z</time></trkpt><trkpt lat="45.93811792287857" lon="13.523865993730661"><ele>53.0</ele><time>2026-04-05T14:39:52Z</time></trkpt><trkpt lat="45.938076336862025" lon="13.524024401138822"><ele>52.66666666666667</ele><time>2026-04-05T14:39:54Z</time></trkpt><trkpt lat="45.93808551763245" lon="13.524142754804155"><ele>52.333333333333336</ele><time>2026-04-05T14:39:55Z</time></trkpt><trkpt lat="45.93807923893091" lon="13.52425092487477"><ele>52.0</ele><time>2026-04-05T14:39:56Z</time></trkpt><trkpt lat="45.93807390740449" lon="13.524372286286866"><ele>51.66666666666667</ele><time>2026-04-05T14:39:57Z</time></trkpt><trkpt lat="45.93806438817627" lon="13.524508439724183"><ele>51.333333333333336</ele><time>2026-04-05T14:39:58Z</time></trkpt><trkpt lat="45.93805713067928" lon="13.524664994979872"><ele>51.0</ele><time>2026-04-05T14:39:59Z</time></trkpt><trkpt lat="45.938057187717504" lon="13.52484159647096"><ele>51.0</ele><time>2026-04-05T14:40:00Z</time></trkpt><trkpt lat="45.93805344664004" lon="13.5250343299379"><ele>51.0</ele><time>2026-04-05T14:40:01Z</time></trkpt><trkpt lat="45.938053318682755" lon="13.525221432055087"><ele>51.0</ele><time>2026-04-05T14:40:02Z</time></trkpt><trkpt lat="45.93805431522619" lon="13.525378588634787"><ele>51.0</ele><time>2026-04-05T14:40:03Z</time></trkpt><trkpt lat="45.93805593075786" lon="13.525550469966852"><ele>51.0</ele><time>2026-04-05T14:40:04Z</time></trkpt><trkpt lat="45.93805110031729" lon="13.525727996861468"><ele>51.0</ele><time>2026-04-05T14:40:05Z</time></trkpt><trkpt lat="45.93803100757266" lon="13.525912760758446"><ele>51.0</ele><time>2026-04-05T14:40:06Z</time></trkpt><trkpt lat="45.93798954463187" lon="13.526092846864442"><ele>51.0</ele><time>2026-04-05T14:40:07Z</time></trkpt><trkpt lat="45.93792493021475" lon="13.52625117890642"><ele>51.0</ele><time>2026-04-05T14:40:08Z</time></trkpt><trkpt lat="45.9378519330482" lon="13.526410945795082"><ele>51.0</ele><time>2026-04-05T14:40:09Z</time></trkpt><trkpt lat="45.93778348460608" lon="13.52658454718422"><ele>51.0</ele><time>2026-04-05T14:40:10Z</time></trkpt><trkpt lat="45.93772850365825" lon="13.526759231101293"><ele>51.0</ele><time>2026-04-05T14:40:11Z</time></trkpt><trkpt lat="45.93768492448993" lon="13.526923128757817"><ele>51.25</ele><time>2026-04-05T14:40:12Z</time></trkpt><trkpt lat="45.93764567567397" lon="13.527083289640787"><ele>51.5</ele><time>2026-04-05T14:40:13Z</time></trkpt><trkpt lat="45.93760473066449" lon="13.527247838927012"><ele>51.75</ele><time>2026-04-05T14:40:14Z</time></trkpt><trkpt lat="45.93756692228411" lon="13.527413337861553"><ele>52.0</ele><time>2026-04-05T14:40:15Z</time></trkpt><trkpt lat="45.937532310547034" lon="13.527584864534756"><ele>52.0</ele><time>2026-04-05T14:40:16Z</time></trkpt><trkpt lat="45.937499709369824" lon="13.527765738785815"><ele>52.0</ele><time>2026-04-05T14:40:17Z</time></trkpt><trkpt lat="45.93746708662353" lon="13.527942168047899"><ele>52.0</ele><time>2026-04-05T14:40:18Z</time></trkpt><trkpt lat="45.937438072522056" lon="13.528117168061412"><ele>52.0</ele><time>2026-04-05T14:40:19Z</time></trkpt><trkpt lat="45.937395831962114" lon="13.528292174628147"><ele>52.0</ele><time>2026-04-05T14:40:20Z</time></trkpt><trkpt lat="45.93738826818889" lon="13.528468597572239"><ele>52.0</ele><time>2026-04-05T14:40:21Z</time></trkpt><trkpt lat="45.937370080369064" lon="13.528631721610392"><ele>52.0</ele><time>2026-04-05T14:40:22Z</time></trkpt><trkpt lat="45.93735847706378" lon="13.528796277002723"><ele>52.0</ele><time>2026-04-05T14:40:22.999Z</time></trkpt><trkpt lat="45.9373517984163" lon="13.528961172830662"><ele>52.400000000000006</ele><time>2026-04-05T14:40:23.999Z</time></trkpt><trkpt lat="45.937346395373524" lon="13.529128989716707"><ele>52.800000000000004</ele><time>2026-04-05T14:40:24.999Z</time></trkpt><trkpt lat="45.93734202854153" lon="13.529299000313419"><ele>53.2</ele><time>2026-04-05T14:40:25.999Z</time></trkpt><trkpt lat="45.93734078404764" lon="13.529447192343483"><ele>53.6</ele><time>2026-04-05T14:40:26.999Z</time></trkpt><trkpt lat="45.93734197668912" lon="13.529582932077595"><ele>54.0</ele><time>2026-04-05T14:40:27.999Z</time></trkpt><trkpt lat="45.93734537196206" lon="13.529713197431517"><ele>54.166666666666664</ele><time>2026-04-05T14:40:28.999Z</time></trkpt><trkpt lat="45.93736066831573" lon="13.529829579305483"><ele>54.33333333333333</ele><time>2026-04-05T14:40:29.999Z</time></trkpt><trkpt lat="45.93737911380833" lon="13.529927661827195"><ele>54.5</ele><time>2026-04-05T14:40:30.999Z</time></trkpt><trkpt lat="45.93744131171888" lon="13.529987955612278"><ele>54.666666666666664</ele><time>2026-04-05T14:40:31.999Z</time></trkpt><trkpt lat="45.937523894919856" lon="13.529957313265765"><ele>54.83333333333333</ele><time>2026-04-05T14:40:32.999Z</time></trkpt><trkpt lat="45.93760181087984" lon="13.529944988131392"><ele>55.0</ele><time>2026-04-05T14:40:33.999Z</time></trkpt><trkpt lat="45.93768657850882" lon="13.529940069809724"><ele>55.0</ele><time>2026-04-05T14:40:34.999Z</time></trkpt><trkpt lat="45.93778841284067" lon="13.52990653762998"><ele>55.0</ele><time>2026-04-05T14:40:35.999Z</time></trkpt><trkpt lat="45.937906351814775" lon="13.529867702483415"><ele>55.0</ele><time>2026-04-05T14:40:36.999Z</time></trkpt><trkpt lat="45.9380247254728" lon="13.52980624701768"><ele>55.0</ele><time>2026-04-05T14:40:37.999Z</time></trkpt><trkpt lat="45.93814314760187" lon="13.529765306649692"><ele>55.0</ele><time>2026-04-05T14:40:38.999Z</time></trkpt><trkpt lat="45.93825895796461" lon="13.529727683729911"><ele>55.0</ele><time>2026-04-05T14:40:39.999Z</time></trkpt><trkpt lat="45.93837052426743" lon="13.529700306045289"><ele>55.0</ele><time>2026-04-05T14:40:40.999Z</time></trkpt><trkpt lat="45.93847374729562" lon="13.529671100678101"><ele>55.0</ele><time>2026-04-05T14:40:41.999Z</time></trkpt><trkpt lat="45.93855882509514" lon="13.529638328902427"><ele>55.0</ele><time>2026-04-05T14:40:42.999Z</time></trkpt><trkpt lat="45.93863643433571" lon="13.529618997965757"><ele>55.166666666666664</ele><time>2026-04-05T14:40:43.999Z</time></trkpt><trkpt lat="45.93871521834417" lon="13.529647700469217"><ele>55.33333333333333</ele><time>2026-04-05T14:40:44.999Z</time></trkpt><trkpt lat="45.938778764183354" lon="13.529717711217318"><ele>55.5</ele><time>2026-04-05T14:40:45.999Z</time></trkpt><trkpt lat="45.938830326784945" lon="13.529803922917349"><ele>55.66666666666667</ele><time>2026-04-05T14:40:46.999Z</time></trkpt><trkpt lat="45.93885365909207" lon="13.529924091958083"><ele>55.833333333333336</ele><time>2026-04-05T14:40:47.999Z</time></trkpt><trkpt lat="45.93886471573481" lon="13.530065225448975"><ele>56.0</ele><time>2026-04-05T14:40:48.999Z</time></trkpt><trkpt lat="45.938875129983614" lon="13.530212403162631"><ele>56.0</ele><time>2026-04-05T14:40:49.999Z</time></trkpt><trkpt lat="45.938886623951724" lon="13.530363215432919"><ele>56.0</ele><time>2026-04-05T14:40:50.999Z</time></trkpt><trkpt lat="45.938902058780805" lon="13.530520503757229"><ele>56.0</ele><time>2026-04-05T14:40:51.999Z</time></trkpt><trkpt lat="45.93892974254254" lon="13.530686638891568"><ele>56.0</ele><time>2026-04-05T14:40:52.999Z</time></trkpt><trkpt lat="45.93895651870926" lon="13.530857286791461"><ele>56.25</ele><time>2026-04-05T14:40:53.999Z</time></trkpt><trkpt lat="45.939025214109726" lon="13.531008250586307"><ele>56.5</ele><time>2026-04-05T14:40:54.999Z</time></trkpt><trkpt lat="45.9391042414448" lon="13.531148016881746"><ele>56.75</ele><time>2026-04-05T14:40:55.999Z</time></trkpt><trkpt lat="45.939176779817885" lon="13.531276842575103"><ele>57.0</ele><time>2026-04-05T14:40:56.999Z</time></trkpt><trkpt lat="45.939253595003045" lon="13.531401111111713"><ele>57.6</ele><time>2026-04-05T14:40:57.999Z</time></trkpt><trkpt lat="45.939304679388314" lon="13.531542060400662"><ele>58.2</ele><time>2026-04-05T14:40:58.999Z</time></trkpt><trkpt lat="45.93934406906443" lon="13.531682829802442"><ele>58.8</ele><time>2026-04-05T14:40:59.999Z</time></trkpt><trkpt lat="45.939362266985604" lon="13.531819801544861"><ele>59.4</ele><time>2026-04-05T14:41:00.999Z</time></trkpt><trkpt lat="45.93934994267394" lon="13.531962430331852"><ele>60.0</ele><time>2026-04-05T14:41:01.999Z</time></trkpt><trkpt lat="45.9393113442495" lon="13.532091114235001"><ele>60.0</ele><time>2026-04-05T14:41:02.999Z</time></trkpt><trkpt lat="45.93926092409718" lon="13.532210438089255"><ele>60.0</ele><time>2026-04-05T14:41:03.999Z</time></trkpt><trkpt lat="45.93920187735588" lon="13.532332399443115"><ele>60.0</ele><time>2026-04-05T14:41:04.999Z</time></trkpt><trkpt lat="45.939140218357295" lon="13.532461818355653"><ele>60.0</ele><time>2026-04-05T14:41:05.999Z</time></trkpt><trkpt lat="45.939075333858405" lon="13.532595382651136"><ele>60.0</ele><time>2026-04-05T14:41:06.999Z</time></trkpt><trkpt lat="45.93901052392482" lon="13.532730871001338"><ele>59.0</ele><time>2026-04-05T14:41:07.999Z</time></trkpt><trkpt lat="45.93894745088764" lon="13.532864546202742"><ele>58.0</ele><time>2026-04-05T14:41:08.999Z</time></trkpt><trkpt lat="45.938887967671036" lon="13.532987189778927"><ele>57.0</ele><time>2026-04-05T14:41:09.999Z</time></trkpt><trkpt lat="45.938832285718384" lon="13.533096140948006"><ele>56.0</ele><time>2026-04-05T14:41:10.999Z</time></trkpt><trkpt lat="45.93877870690561" lon="13.533203184136747"><ele>55.0</ele><time>2026-04-05T14:41:11.999Z</time></trkpt><trkpt lat="45.938731182228814" lon="13.533321333205107"><ele>55.0</ele><time>2026-04-05T14:41:12.999Z</time></trkpt><trkpt lat="45.93869407662784" lon="13.533450460789982"><ele>55.0</ele><time>2026-04-05T14:41:13.999Z</time></trkpt><trkpt lat="45.93866834343448" lon="13.53358643049632"><ele>55.0</ele><time>2026-04-05T14:41:14.999Z</time></trkpt><trkpt lat="45.93864276709929" lon="13.533727406129906"><ele>55.0</ele><time>2026-04-05T14:41:15.999Z</time></trkpt><trkpt lat="45.93861676374014" lon="13.533872280578041"><ele>55.0</ele><time>2026-04-05T14:41:16.999Z</time></trkpt><trkpt lat="45.9385867248446" lon="13.534017223751288"><ele>55.5</ele><time>2026-04-05T14:41:17.999Z</time></trkpt><trkpt lat="45.93855638928948" lon="13.534170103278484"><ele>56.0</ele><time>2026-04-05T14:41:18.999Z</time></trkpt><trkpt lat="45.93852195564206" lon="13.534330917288722"><ele>56.5</ele><time>2026-04-05T14:41:19.999Z</time></trkpt><trkpt lat="45.938469097344644" lon="13.534486476983925"><ele>57.0</ele><time>2026-04-05T14:41:20.999Z</time></trkpt><trkpt lat="45.938385187549024" lon="13.534624789285267"><ele>57.0</ele><time>2026-04-05T14:41:21.999Z</time></trkpt><trkpt lat="45.9382733889515" lon="13.534731590075188"><ele>57.0</ele><time>2026-04-05T14:41:22.999Z</time></trkpt><trkpt lat="45.938169498468916" lon="13.534827807395242"><ele>57.0</ele><time>2026-04-05T14:41:23.999Z</time></trkpt><trkpt lat="45.938073830141924" lon="13.534930703809566"><ele>57.0</ele><time>2026-04-05T14:41:24.999Z</time></trkpt><trkpt lat="45.93797226005755" lon="13.535037689228012"><ele>57.0</ele><time>2026-04-05T14:41:25.999Z</time></trkpt><trkpt lat="45.937876330150225" lon="13.53515938357076"><ele>57.0</ele><time>2026-04-05T14:41:26.999Z</time></trkpt><trkpt lat="45.93778600815601" lon="13.535298641896402"><ele>57.0</ele><time>2026-04-05T14:41:27.999Z</time></trkpt><trkpt lat="45.9377099176642" lon="13.535456685320527"><ele>57.0</ele><time>2026-04-05T14:41:28.999Z</time></trkpt><trkpt lat="45.93764429560176" lon="13.53561784201575"><ele>57.5</ele><time>2026-04-05T14:41:29.999Z</time></trkpt><trkpt lat="45.937577879356965" lon="13.535776238451021"><ele>58.0</ele><time>2026-04-05T14:41:30.999Z</time></trkpt><trkpt lat="45.937504809314156" lon="13.535930720702403"><ele>58.5</ele><time>2026-04-05T14:41:31.999Z</time></trkpt><trkpt lat="45.93741822784764" lon="13.536081393698435"><ele>59.0</ele><time>2026-04-05T14:41:32.999Z</time></trkpt><trkpt lat="45.93732025384716" lon="13.536221241872694"><ele>59.25</ele><time>2026-04-05T14:41:33.999Z</time></trkpt><trkpt lat="45.9372217084307" lon="13.536354032995334"><ele>59.5</ele><time>2026-04-05T14:41:34.999Z</time></trkpt><trkpt lat="45.93712959068452" lon="13.536457302048541"><ele>59.75</ele><time>2026-04-05T14:41:35.999Z</time></trkpt><trkpt lat="45.93702900152527" lon="13.536539609522263"><ele>60.0</ele><time>2026-04-05T14:41:36.999Z</time></trkpt><trkpt lat="45.93693288838369" lon="13.536607161899276"><ele>60.0</ele><time>2026-04-05T14:41:37.999Z</time></trkpt><trkpt lat="45.93685635621336" lon="13.53667383546609"><ele>60.0</ele><time>2026-04-05T14:41:38.999Z</time></trkpt><trkpt lat="45.93680131414399" lon="13.53675657410841"><ele>60.0</ele><time>2026-04-05T14:41:39.999Z</time></trkpt><trkpt lat="45.936752476282926" lon="13.536847276663208"><ele>60.0</ele><time>2026-04-05T14:41:40.999Z</time></trkpt><trkpt lat="45.93674793286251" lon="13.536974680532477"><ele>60.0</ele><time>2026-04-05T14:41:41.999Z</time></trkpt><trkpt lat="45.9367544189975" lon="13.537099063715413"><ele>60.0</ele><time>2026-04-05T14:41:42.999Z</time></trkpt><trkpt lat="45.936761634965805" lon="13.537234516680945"><ele>60.0</ele><time>2026-04-05T14:41:43.999Z</time></trkpt><trkpt lat="45.93677082292442" lon="13.537397116545026"><ele>60.0</ele><time>2026-04-05T14:41:44.999Z</time></trkpt><trkpt lat="45.93678180083285" lon="13.537591393435982"><ele>60.0</ele><time>2026-04-05T14:41:45.999Z</time></trkpt><trkpt lat="45.93679498073947" lon="13.537818615737862"><ele>60.0</ele><time>2026-04-05T14:41:46.999Z</time></trkpt><trkpt lat="45.93680973460656" lon="13.538053729162908"><ele>60.75</ele><time>2026-04-05T14:41:47.999Z</time></trkpt><trkpt lat="45.93684403206074" lon="13.53826032595207"><ele>61.5</ele><time>2026-04-05T14:41:49Z</time></trkpt><trkpt lat="45.93684707579687" lon="13.538453297407298"><ele>62.25</ele><time>2026-04-05T14:41:50Z</time></trkpt><trkpt lat="45.936865382399645" lon="13.53863650719029"><ele>63.0</ele><time>2026-04-05T14:41:51Z</time></trkpt><trkpt lat="45.93688421766542" lon="13.538805477125505"><ele>63.0</ele><time>2026-04-05T14:41:52Z</time></trkpt><trkpt lat="45.93690255824582" lon="13.538957769455672"><ele>63.0</ele><time>2026-04-05T14:41:53Z</time></trkpt><trkpt lat="45.93691802029561" lon="13.539105653825025"><ele>63.0</ele><time>2026-04-05T14:41:54Z</time></trkpt><trkpt lat="45.93692399752997" lon="13.539231928840573"><ele>63.0</ele><time>2026-04-05T14:41:55Z</time></trkpt><trkpt lat="45.93691395741196" lon="13.539343110617068"><ele>63.0</ele><time>2026-04-05T14:41:56Z</time></trkpt><trkpt lat="45.93684432850129" lon="13.53942916775206"><ele>63.0</ele><time>2026-04-05T14:41:57Z</time></trkpt><trkpt lat="45.93675643259984" lon="13.539479590477807"><ele>63.0</ele><time>2026-04-05T14:41:58Z</time></trkpt><trkpt lat="45.93666171938756" lon="13.539524116850371"><ele>63.0</ele><time>2026-04-05T14:41:59Z</time></trkpt><trkpt lat="45.936561222537" lon="13.539580943952535"><ele>63.0</ele><time>2026-04-05T14:42:00Z</time></trkpt><trkpt lat="45.93645178305178" lon="13.539643246885396"><ele>63.0</ele><time>2026-04-05T14:42:01Z</time></trkpt><trkpt lat="45.93634119358769" lon="13.539707818721636"><ele>61.8</ele><time>2026-04-05T14:42:02Z</time></trkpt><trkpt lat="45.93623602816345" lon="13.539775487015385"><ele>60.599999999999994</ele><time>2026-04-05T14:42:03Z</time></trkpt><trkpt lat="45.9361406412276" lon="13.539849117502591"><ele>59.400000000000006</ele><time>2026-04-05T14:42:04Z</time></trkpt><trkpt lat="45.93605875652202" lon="13.539946644589547"><ele>58.2</ele><time>2026-04-05T14:42:05Z</time></trkpt><trkpt lat="45.93600148428594" lon="13.540077025982288"><ele>57.0</ele><time>2026-04-05T14:42:06Z</time></trkpt><trkpt lat="45.93593931219975" lon="13.540206223767054"><ele>57.0</ele><time>2026-04-05T14:42:07Z</time></trkpt><trkpt lat="45.93590691218842" lon="13.540351922327368"><ele>57.0</ele><time>2026-04-05T14:42:08Z</time></trkpt><trkpt lat="45.93586746556148" lon="13.540482379035913"><ele>57.0</ele><time>2026-04-05T14:42:09Z</time></trkpt><trkpt lat="45.93583053316321" lon="13.540608308695658"><ele>57.0</ele><time>2026-04-05T14:42:10Z</time></trkpt><trkpt lat="45.93582875599209" lon="13.540750578869512"><ele>57.0</ele><time>2026-04-05T14:42:11Z</time></trkpt><trkpt lat="45.93587274333303" lon="13.540883491994116"><ele>56.833333333333336</ele><time>2026-04-05T14:42:12Z</time></trkpt><trkpt lat="45.93589083707047" lon="13.541003873835882"><ele>56.66666666666667</ele><time>2026-04-05T14:42:13Z</time></trkpt><trkpt lat="45.93592832500291" lon="13.541113173437694"><ele>56.5</ele><time>2026-04-05T14:42:14Z</time></trkpt><trkpt lat="45.93596726124493" lon="13.541227292725077"><ele>56.333333333333336</ele><time>2026-04-05T14:42:15Z</time></trkpt><trkpt lat="45.9360125033101" lon="13.541320205820739"><ele>56.16666666666667</ele><time>2026-04-05T14:42:16Z</time></trkpt><trkpt lat="45.93603091489627" lon="13.541411809522437"><ele>56.0</ele><time>2026-04-05T14:42:17Z</time></trkpt><trkpt lat="45.93604498383889" lon="13.541554153163052"><ele>56.199999999999996</ele><time>2026-04-05T14:42:19Z</time></trkpt><trkpt lat="45.93605925504971" lon="13.541652560206257"><ele>56.39999999999999</ele><time>2026-04-05T14:42:21Z</time></trkpt><trkpt lat="45.935886839960936" lon="13.541739499371904"><ele>56.6</ele><time>2026-04-05T14:42:23Z</time></trkpt><trkpt lat="45.93579755325626" lon="13.541743140883222"><ele>56.8</ele><time>2026-04-05T14:42:24Z</time></trkpt><trkpt lat="45.935701894655516" lon="13.54175119051928"><ele>57.0</ele><time>2026-04-05T14:42:25Z</time></trkpt><trkpt lat="45.93560073985181" lon="13.541767982625819"><ele>57.0</ele><time>2026-04-05T14:42:26Z</time></trkpt><trkpt lat="45.93549381541572" lon="13.541783662155385"><ele>57.0</ele><time>2026-04-05T14:42:26.999Z</time></trkpt><trkpt lat="45.935381082121445" lon="13.541797614356561"><ele>57.0</ele><time>2026-04-05T14:42:27.999Z</time></trkpt><trkpt lat="45.93525951529323" lon="13.541816490140317"><ele>57.0</ele><time>2026-04-05T14:42:28.999Z</time></trkpt><trkpt lat="45.93513956860114" lon="13.541827516433383"><ele>56.25</ele><time>2026-04-05T14:42:29.999Z</time></trkpt><trkpt lat="45.93501839761338" lon="13.541843917399584"><ele>55.5</ele><time>2026-04-05T14:42:30.999Z</time></trkpt><trkpt lat="45.93489636134261" lon="13.541868620654848"><ele>54.75</ele><time>2026-04-05T14:42:31.999Z</time></trkpt><trkpt lat="45.93477957743948" lon="13.54188627692887"><ele>54.0</ele><time>2026-04-05T14:42:32.999Z</time></trkpt><trkpt lat="45.93466967348354" lon="13.54190012520364"><ele>54.0</ele><time>2026-04-05T14:42:33.999Z</time></trkpt><trkpt lat="45.93457950441281" lon="13.541908149757802"><ele>54.0</ele><time>2026-04-05T14:42:34.999Z</time></trkpt><trkpt lat="45.93450158330834" lon="13.541900696430337"><ele>54.0</ele><time>2026-04-05T14:42:35.999Z</time></trkpt><trkpt lat="45.93442516930398" lon="13.54187735474607"><ele>54.0</ele><time>2026-04-05T14:42:36.999Z</time></trkpt><trkpt lat="45.934350920730495" lon="13.541836490865096"><ele>54.0</ele><time>2026-04-05T14:42:37.999Z</time></trkpt><trkpt lat="45.9342917822851" lon="13.54179519414505"><ele>54.0</ele><time>2026-04-05T14:42:38.999Z</time></trkpt><trkpt lat="45.934181409201976" lon="13.541731326196972"><ele>54.0</ele><time>2026-04-05T14:42:40.999Z</time></trkpt><trkpt lat="45.9341601843734" lon="13.541597722705276"><ele>54.00000000000001</ele><time>2026-04-05T14:42:41.999Z</time></trkpt><trkpt lat="45.93413554420964" lon="13.541486895145235"><ele>54.00000000000001</ele><time>2026-04-05T14:42:42.999Z</time></trkpt><trkpt lat="45.93409053431256" lon="13.541373052188018"><ele>54.0</ele><time>2026-04-05T14:42:43.999Z</time></trkpt><trkpt lat="45.934022937646105" lon="13.541272228924"><ele>54.0</ele><time>2026-04-05T14:42:44.999Z</time></trkpt><trkpt lat="45.93393619876179" lon="13.541209922840709"><ele>54.0</ele><time>2026-04-05T14:42:45.999Z</time></trkpt><trkpt lat="45.93385151147759" lon="13.541184412167059"><ele>54.0</ele><time>2026-04-05T14:42:46.999Z</time></trkpt><trkpt lat="45.93377304570704" lon="13.54120304181547"><ele>54.0</ele><time>2026-04-05T14:42:47.999Z</time></trkpt><trkpt lat="45.93370124757434" lon="13.541254139191501"><ele>54.0</ele><time>2026-04-05T14:42:48.999Z</time></trkpt><trkpt lat="45.93364286894669" lon="13.54133092223077"><ele>54.0</ele><time>2026-04-05T14:42:49.999Z</time></trkpt><trkpt lat="45.93360517790712" lon="13.541428246206786"><ele>54.0</ele><time>2026-04-05T14:42:50.999Z</time></trkpt><trkpt lat="45.93358724130654" lon="13.541541273332108"><ele>53.833333333333336</ele><time>2026-04-05T14:42:51.999Z</time></trkpt><trkpt lat="45.93358989573347" lon="13.541655740391993"><ele>53.66666666666667</ele><time>2026-04-05T14:42:52.999Z</time></trkpt><trkpt lat="45.93361603924873" lon="13.54176053184718"><ele>53.5</ele><time>2026-04-05T14:42:53.999Z</time></trkpt><trkpt lat="45.93366531968269" lon="13.541848738373595"><ele>53.333333333333336</ele><time>2026-04-05T14:42:54.999Z</time></trkpt><trkpt lat="45.93373193760244" lon="13.541917469092958"><ele>53.16666666666667</ele><time>2026-04-05T14:42:55.999Z</time></trkpt><trkpt lat="45.93380516317663" lon="13.541973652397296"><ele>53.0</ele><time>2026-04-05T14:42:56.999Z</time></trkpt><trkpt lat="45.933878859595474" lon="13.542038613406605"><ele>53.4</ele><time>2026-04-05T14:42:57.999Z</time></trkpt><trkpt lat="45.933945880537685" lon="13.54214093880633"><ele>53.8</ele><time>2026-04-05T14:42:58.999Z</time></trkpt><trkpt lat="45.93398794828491" lon="13.542265217697436"><ele>54.2</ele><time>2026-04-05T14:42:59.999Z</time></trkpt><trkpt lat="45.934001151935206" lon="13.542403282531556"><ele>54.6</ele><time>2026-04-05T14:43:00.999Z</time></trkpt><trkpt lat="45.9340114883945" lon="13.542546546900882"><ele>55.0</ele><time>2026-04-05T14:43:01.999Z</time></trkpt><trkpt lat="45.9340285280362" lon="13.54269743413709"><ele>55.0</ele><time>2026-04-05T14:43:02.999Z</time></trkpt><trkpt lat="45.93404847387826" lon="13.542853111301522"><ele>55.0</ele><time>2026-04-05T14:43:03.999Z</time></trkpt><trkpt lat="45.93407156564211" lon="13.543013611811649"><ele>55.0</ele><time>2026-04-05T14:43:04.999Z</time></trkpt><trkpt lat="45.934096224264664" lon="13.543166781446004"><ele>55.0</ele><time>2026-04-05T14:43:05.999Z</time></trkpt><trkpt lat="45.934119281269545" lon="13.543318551353083"><ele>55.0</ele><time>2026-04-05T14:43:06.999Z</time></trkpt><trkpt lat="45.934147953178716" lon="13.543477664284252"><ele>55.25</ele><time>2026-04-05T14:43:07.999Z</time></trkpt><trkpt lat="45.9341774003532" lon="13.543642955964838"><ele>55.5</ele><time>2026-04-05T14:43:08.999Z</time></trkpt><trkpt lat="45.934208420580376" lon="13.543809640230343"><ele>55.75</ele><time>2026-04-05T14:43:09.999Z</time></trkpt><trkpt lat="45.93424161956208" lon="13.54397922195484"><ele>56.0</ele><time>2026-04-05T14:43:10.999Z</time></trkpt><trkpt lat="45.93427435389176" lon="13.544140090300111"><ele>56.0</ele><time>2026-04-05T14:43:11.999Z</time></trkpt><trkpt lat="45.93430521424076" lon="13.5443084577165"><ele>56.0</ele><time>2026-04-05T14:43:12.999Z</time></trkpt><trkpt lat="45.93433649293192" lon="13.544482144232111"><ele>56.0</ele><time>2026-04-05T14:43:13.999Z</time></trkpt><trkpt lat="45.934371113539925" lon="13.54465680643798"><ele>56.0</ele><time>2026-04-05T14:43:14.999Z</time></trkpt><trkpt lat="45.93440433647228" lon="13.544843251881469"><ele>56.333333333333336</ele><time>2026-04-05T14:43:15.999Z</time></trkpt><trkpt lat="45.934445875280744" lon="13.545054315244782"><ele>56.66666666666667</ele><time>2026-04-05T14:43:16.999Z</time></trkpt><trkpt lat="45.934494106187564" lon="13.545276010454272"><ele>57.0</ele><time>2026-04-05T14:43:17.999Z</time></trkpt><trkpt lat="45.93454577365992" lon="13.545499903871095"><ele>57.0</ele><time>2026-04-05T14:43:18.999Z</time></trkpt><trkpt lat="45.934597350527625" lon="13.54572905195135"><ele>57.0</ele><time>2026-04-05T14:43:19.999Z</time></trkpt><trkpt lat="45.93464469362621" lon="13.545953152148067"><ele>57.0</ele><time>2026-04-05T14:43:20.999Z</time></trkpt><trkpt lat="45.93469003231165" lon="13.546169420160323"><ele>57.33333333333333</ele><time>2026-04-05T14:43:21.999Z</time></trkpt><trkpt lat="45.93473391808552" lon="13.546379438551998"><ele>57.666666666666664</ele><time>2026-04-05T14:43:22.999Z</time></trkpt><trkpt lat="45.934772207144114" lon="13.546587735216105"><ele>58.0</ele><time>2026-04-05T14:43:23.999Z</time></trkpt><trkpt lat="45.93480237904825" lon="13.54680598616225"><ele>58.0</ele><time>2026-04-05T14:43:24.999Z</time></trkpt><trkpt lat="45.93481753462261" lon="13.547031831261284"><ele>58.0</ele><time>2026-04-05T14:43:25.999Z</time></trkpt><trkpt lat="45.93481085064158" lon="13.547271623801347"><ele>58.0</ele><time>2026-04-05T14:43:26.999Z</time></trkpt><trkpt lat="45.93480940636711" lon="13.547507440944546"><ele>58.0</ele><time>2026-04-05T14:43:27.999Z</time></trkpt><trkpt lat="45.934807458440076" lon="13.547751145975583"><ele>58.0</ele><time>2026-04-05T14:43:28.999Z</time></trkpt><trkpt lat="45.93480820003952" lon="13.547981769100982"><ele>58.0</ele><time>2026-04-05T14:43:29.999Z</time></trkpt><trkpt lat="45.93481066442707" lon="13.548202670161041"><ele>58.0</ele><time>2026-04-05T14:43:30.999Z</time></trkpt><trkpt lat="45.934817924722715" lon="13.548417359973099"><ele>58.0</ele><time>2026-04-05T14:43:31.999Z</time></trkpt><trkpt lat="45.934834733287886" lon="13.548632557993358"><ele>58.0</ele><time>2026-04-05T14:43:32.999Z</time></trkpt><trkpt lat="45.93485275299807" lon="13.548848612531787"><ele>58.0</ele><time>2026-04-05T14:43:33.999Z</time></trkpt><trkpt lat="45.934868939609565" lon="13.549051967650628"><ele>58.0</ele><time>2026-04-05T14:43:34.999Z</time></trkpt><trkpt lat="45.93488688303703" lon="13.54925098147864"><ele>58.0</ele><time>2026-04-05T14:43:35.999Z</time></trkpt><trkpt lat="45.9349045575556" lon="13.5494571468032"><ele>58.0</ele><time>2026-04-05T14:43:36.999Z</time></trkpt><trkpt lat="45.93492309627173" lon="13.549678113728891"><ele>58.0</ele><time>2026-04-05T14:43:37.999Z</time></trkpt><trkpt lat="45.93494286377048" lon="13.5499102205999"><ele>58.0</ele><time>2026-04-05T14:43:38.999Z</time></trkpt><trkpt lat="45.934960121097674" lon="13.550128282774551"><ele>58.0</ele><time>2026-04-05T14:43:39.999Z</time></trkpt><trkpt lat="45.93497966613157" lon="13.550334965062918"><ele>58.33333333333333</ele><time>2026-04-05T14:43:40.999Z</time></trkpt><trkpt lat="45.93500012711021" lon="13.55054185635341"><ele>58.66666666666667</ele><time>2026-04-05T14:43:41.999Z</time></trkpt><trkpt lat="45.93501949833773" lon="13.550759306819065"><ele>59.0</ele><time>2026-04-05T14:43:42.999Z</time></trkpt><trkpt lat="45.93504133792019" lon="13.550985369192684"><ele>58.66666666666667</ele><time>2026-04-05T14:43:43.999Z</time></trkpt><trkpt lat="45.93506353068389" lon="13.551228375530803"><ele>58.33333333333333</ele><time>2026-04-05T14:43:44.999Z</time></trkpt><trkpt lat="45.93508507727185" lon="13.551481530643422"><ele>58.0</ele><time>2026-04-05T14:43:45.999Z</time></trkpt><trkpt lat="45.93510905966676" lon="13.551751403835446"><ele>58.0</ele><time>2026-04-05T14:43:46.999Z</time></trkpt><trkpt lat="45.93513454180082" lon="13.552044171070312"><ele>58.0</ele><time>2026-04-05T14:43:47.999Z</time></trkpt><trkpt lat="45.935162563570394" lon="13.552353391621724"><ele>58.0</ele><time>2026-04-05T14:43:48.999Z</time></trkpt><trkpt lat="45.93519151466198" lon="13.552665346825819"><ele>58.33333333333333</ele><time>2026-04-05T14:43:49.999Z</time></trkpt><trkpt lat="45.93522120959761" lon="13.552958616935149"><ele>58.66666666666667</ele><time>2026-04-05T14:43:50.999Z</time></trkpt><trkpt lat="45.935254030405055" lon="13.553228804773067"><ele>59.0</ele><time>2026-04-05T14:43:51.999Z</time></trkpt><trkpt lat="45.93528695383417" lon="13.55346828955668"><ele>59.0</ele><time>2026-04-05T14:43:52.999Z</time></trkpt><trkpt lat="45.93532259117433" lon="13.553698033715575"><ele>59.0</ele><time>2026-04-05T14:43:54Z</time></trkpt><trkpt lat="45.935363390782896" lon="13.55392878094779"><ele>59.0</ele><time>2026-04-05T14:43:55Z</time></trkpt><trkpt lat="45.93540515427362" lon="13.55416119665916"><ele>59.333333333333336</ele><time>2026-04-05T14:43:56Z</time></trkpt><trkpt lat="45.93544778907033" lon="13.554396112312888"><ele>59.66666666666667</ele><time>2026-04-05T14:43:57Z</time></trkpt><trkpt lat="45.935490692525825" lon="13.554628467216526"><ele>60.0</ele><time>2026-04-05T14:43:58Z</time></trkpt><trkpt lat="45.9355335639138" lon="13.554861029144762"><ele>60.0</ele><time>2026-04-05T14:43:59Z</time></trkpt><trkpt lat="45.935574836979505" lon="13.555087569579543"><ele>60.0</ele><time>2026-04-05T14:44:00Z</time></trkpt><trkpt lat="45.935615487158806" lon="13.55530822394914"><ele>60.0</ele><time>2026-04-05T14:44:01Z</time></trkpt><trkpt lat="45.935659500017984" lon="13.555534306894058"><ele>60.0</ele><time>2026-04-05T14:44:02Z</time></trkpt><trkpt lat="45.93569901927608" lon="13.555760669162567"><ele>60.0</ele><time>2026-04-05T14:44:03Z</time></trkpt><trkpt lat="45.93574100759871" lon="13.555987187077049"><ele>60.0</ele><time>2026-04-05T14:44:04Z</time></trkpt><trkpt lat="45.935782320564904" lon="13.556210518863498"><ele>60.0</ele><time>2026-04-05T14:44:05Z</time></trkpt><trkpt lat="45.93582281088756" lon="13.55643322483527"><ele>60.0</ele><time>2026-04-05T14:44:06Z</time></trkpt><trkpt lat="45.93585970330199" lon="13.556650444641866"><ele>60.0</ele><time>2026-04-05T14:44:07Z</time></trkpt><trkpt lat="45.93590063492958" lon="13.556869021625106"><ele>60.66666666666667</ele><time>2026-04-05T14:44:08Z</time></trkpt><trkpt lat="45.93594230352582" lon="13.557085777014905"><ele>61.333333333333336</ele><time>2026-04-05T14:44:09Z</time></trkpt><trkpt lat="45.935984756157595" lon="13.55730644191998"><ele>62.0</ele><time>2026-04-05T14:44:10Z</time></trkpt><trkpt lat="45.93602816573374" lon="13.55753362454399"><ele>62.0</ele><time>2026-04-05T14:44:11Z</time></trkpt><trkpt lat="45.936069343454434" lon="13.557760424777545"><ele>62.0</ele><time>2026-04-05T14:44:12Z</time></trkpt><trkpt lat="45.93611018906193" lon="13.557990133965557"><ele>62.0</ele><time>2026-04-05T14:44:13Z</time></trkpt><trkpt lat="45.936148248807804" lon="13.558222821217054"><ele>62.0</ele><time>2026-04-05T14:44:14Z</time></trkpt><trkpt lat="45.93618071262077" lon="13.558453246814812"><ele>62.0</ele><time>2026-04-05T14:44:15Z</time></trkpt><trkpt lat="45.93620503107614" lon="13.55868170271839"><ele>62.0</ele><time>2026-04-05T14:44:16Z</time></trkpt><trkpt lat="45.93622043472297" lon="13.55890872721787"><ele>62.333333333333336</ele><time>2026-04-05T14:44:17Z</time></trkpt><trkpt lat="45.93623098159717" lon="13.559137311613899"><ele>62.66666666666667</ele><time>2026-04-05T14:44:18Z</time></trkpt><trkpt lat="45.93623077354533" lon="13.559365413551044"><ele>63.0</ele><time>2026-04-05T14:44:19Z</time></trkpt><trkpt lat="45.93622442171133" lon="13.559592178038198"><ele>62.33333333333333</ele><time>2026-04-05T14:44:20Z</time></trkpt><trkpt lat="45.93621079475261" lon="13.559814731110777"><ele>61.666666666666664</ele><time>2026-04-05T14:44:21Z</time></trkpt><trkpt lat="45.93619142435959" lon="13.560044185239912"><ele>61.0</ele><time>2026-04-05T14:44:22Z</time></trkpt><trkpt lat="45.93616472283319" lon="13.560278068756773"><ele>61.33333333333333</ele><time>2026-04-05T14:44:23Z</time></trkpt><trkpt lat="45.936127225484064" lon="13.560511949967125"><ele>61.66666666666667</ele><time>2026-04-05T14:44:24Z</time></trkpt><trkpt lat="45.93608381811191" lon="13.560747189030819"><ele>62.0</ele><time>2026-04-05T14:44:25Z</time></trkpt><trkpt lat="45.936039943275695" lon="13.560981673547799"><ele>62.0</ele><time>2026-04-05T14:44:26Z</time></trkpt><trkpt lat="45.93599600677638" lon="13.561209789612958"><ele>62.0</ele><time>2026-04-05T14:44:27Z</time></trkpt><trkpt lat="45.93595173236216" lon="13.56143156881722"><ele>62.0</ele><time>2026-04-05T14:44:28Z</time></trkpt><trkpt lat="45.93591104010778" lon="13.561656504083864"><ele>62.333333333333336</ele><time>2026-04-05T14:44:29Z</time></trkpt><trkpt lat="45.93586900529841" lon="13.56188184961601"><ele>62.66666666666667</ele><time>2026-04-05T14:44:30Z</time></trkpt><trkpt lat="45.93582612283036" lon="13.562112690972707"><ele>63.0</ele><time>2026-04-05T14:44:31Z</time></trkpt><trkpt lat="45.93578126483999" lon="13.56235033326962"><ele>63.0</ele><time>2026-04-05T14:44:32Z</time></trkpt><trkpt lat="45.93573511105155" lon="13.56259399982348"><ele>63.0</ele><time>2026-04-05T14:44:33Z</time></trkpt><trkpt lat="45.9356887333351" lon="13.562839500841763"><ele>63.0</ele><time>2026-04-05T14:44:33.999Z</time></trkpt><trkpt lat="45.935641797047516" lon="13.563085011905047"><ele>63.0</ele><time>2026-04-05T14:44:34.999Z</time></trkpt><trkpt lat="45.93559648800819" lon="13.563325766601709"><ele>63.0</ele><time>2026-04-05T14:44:35.999Z</time></trkpt><trkpt lat="45.93555241562956" lon="13.563561806146735"><ele>63.0</ele><time>2026-04-05T14:44:36.999Z</time></trkpt><trkpt lat="45.93550833683595" lon="13.56379267079308"><ele>63.33333333333333</ele><time>2026-04-05T14:44:37.999Z</time></trkpt><trkpt lat="45.93546486897984" lon="13.564024035377424"><ele>63.666666666666664</ele><time>2026-04-05T14:44:38.999Z</time></trkpt><trkpt lat="45.93542152945454" lon="13.564257174180478"><ele>64.0</ele><time>2026-04-05T14:44:39.999Z</time></trkpt><trkpt lat="45.935381024281035" lon="13.56449492098818"><ele>64.33333333333333</ele><time>2026-04-05T14:44:40.999Z</time></trkpt><trkpt lat="45.93533761464949" lon="13.564730749374444"><ele>64.66666666666667</ele><time>2026-04-05T14:44:41.999Z</time></trkpt><trkpt lat="45.93530316418616" lon="13.56496726592419"><ele>65.0</ele><time>2026-04-05T14:44:42.999Z</time></trkpt><trkpt lat="45.93526844336595" lon="13.5652004071919"><ele>65.33333333333334</ele><time>2026-04-05T14:44:43.999Z</time></trkpt><trkpt lat="45.93524105743272" lon="13.565432445358308"><ele>65.66666666666667</ele><time>2026-04-05T14:44:44.999Z</time></trkpt><trkpt lat="45.93521261669693" lon="13.565650219860304"><ele>66.0</ele><time>2026-04-05T14:44:45.999Z</time></trkpt><trkpt lat="45.9351911076298" lon="13.56586065118377"><ele>66.0</ele><time>2026-04-05T14:44:46.999Z</time></trkpt><trkpt lat="45.93516652052605" lon="13.566069859981928"><ele>66.0</ele><time>2026-04-05T14:44:47.999Z</time></trkpt><trkpt lat="45.935145086611634" lon="13.566283675724968"><ele>66.0</ele><time>2026-04-05T14:44:48.999Z</time></trkpt><trkpt lat="45.93512891030681" lon="13.566502716329929"><ele>66.0</ele><time>2026-04-05T14:44:49.999Z</time></trkpt><trkpt lat="45.9351128973224" lon="13.566724103030777"><ele>66.0</ele><time>2026-04-05T14:44:50.999Z</time></trkpt><trkpt lat="45.93509832173661" lon="13.566948921882805"><ele>66.0</ele><time>2026-04-05T14:44:51.999Z</time></trkpt><trkpt lat="45.93509020166511" lon="13.567172581927599"><ele>65.66666666666667</ele><time>2026-04-05T14:44:52.999Z</time></trkpt><trkpt lat="45.93508269489222" lon="13.567398161022146"><ele>65.33333333333334</ele><time>2026-04-05T14:44:53.999Z</time></trkpt><trkpt lat="45.93507780840199" lon="13.567626486012466"><ele>65.0</ele><time>2026-04-05T14:44:54.999Z</time></trkpt><trkpt lat="45.935072278501465" lon="13.56785155136271"><ele>65.0</ele><time>2026-04-05T14:44:55.999Z</time></trkpt><trkpt lat="45.93507044782737" lon="13.568073201979045"><ele>65.0</ele><time>2026-04-05T14:44:56.999Z</time></trkpt><trkpt lat="45.93506526433171" lon="13.568292191967766"><ele>65.0</ele><time>2026-04-05T14:44:57.999Z</time></trkpt><trkpt lat="45.93507474387946" lon="13.568508784968818"><ele>65.5</ele><time>2026-04-05T14:44:58.999Z</time></trkpt><trkpt lat="45.93508139151344" lon="13.568723886684532"><ele>66.0</ele><time>2026-04-05T14:44:59.999Z</time></trkpt><trkpt lat="45.935101070870886" lon="13.568932225840184"><ele>66.5</ele><time>2026-04-05T14:45:00.999Z</time></trkpt><trkpt lat="45.93511028489621" lon="13.569128041282138"><ele>67.0</ele><time>2026-04-05T14:45:01.999Z</time></trkpt><trkpt lat="45.9351272017936" lon="13.569317759179402"><ele>67.0</ele><time>2026-04-05T14:45:02.999Z</time></trkpt><trkpt lat="45.935151716104464" lon="13.569499120380941"><ele>67.0</ele><time>2026-04-05T14:45:03.999Z</time></trkpt><trkpt lat="45.93517823040012" lon="13.569668775714156"><ele>67.0</ele><time>2026-04-05T14:45:04.999Z</time></trkpt><trkpt lat="45.935202578361405" lon="13.569828790490476"><ele>67.0</ele><time>2026-04-05T14:45:05.999Z</time></trkpt><trkpt lat="45.935226855392166" lon="13.56999197349344"><ele>67.0</ele><time>2026-04-05T14:45:06.999Z</time></trkpt><trkpt lat="45.935248291819065" lon="13.570137515157983"><ele>67.0</ele><time>2026-04-05T14:45:07.999Z</time></trkpt><trkpt lat="45.93527233240015" lon="13.570275595048495"><ele>67.0</ele><time>2026-04-05T14:45:08.999Z</time></trkpt><trkpt lat="45.935297170121906" lon="13.570403927029194"><ele>67.0</ele><time>2026-04-05T14:45:09.999Z</time></trkpt><trkpt lat="45.935324507894" lon="13.570535601001103"><ele>67.0</ele><time>2026-04-05T14:45:10.999Z</time></trkpt><trkpt lat="45.93534881934953" lon="13.570658001312179"><ele>66.83333333333333</ele><time>2026-04-05T14:45:11.999Z</time></trkpt><trkpt lat="45.93536938018123" lon="13.57076228413025"><ele>66.66666666666666</ele><time>2026-04-05T14:45:12.999Z</time></trkpt><trkpt lat="45.93538714819246" lon="13.570854853528068"><ele>66.5</ele><time>2026-04-05T14:45:13.999Z</time></trkpt><trkpt lat="45.93541693539871" lon="13.571011731727253"><ele>66.33333333333333</ele><time>2026-04-05T14:45:15.999Z</time></trkpt><trkpt lat="45.93543587229344" lon="13.571111593515253"><ele>66.16666666666667</ele><time>2026-04-05T14:45:17.999Z</time></trkpt><trkpt lat="45.935463770460856" lon="13.57122699027413"><ele>66.0</ele><time>2026-04-05T14:45:32.999Z</time></trkpt><trkpt lat="45.93549599725193" lon="13.571361065793713"><ele>66.33333333333333</ele><time>2026-04-05T14:45:34.999Z</time></trkpt><trkpt lat="45.935526686594805" lon="13.571523134846963"><ele>66.66666666666667</ele><time>2026-04-05T14:45:36.999Z</time></trkpt><trkpt lat="45.93554205863525" lon="13.571612127204967"><ele>67.0</ele><time>2026-04-05T14:45:37.999Z</time></trkpt><trkpt lat="45.93556463975547" lon="13.57171541730759"><ele>67.33333333333334</ele><time>2026-04-05T14:45:38.999Z</time></trkpt><trkpt lat="45.935586200141266" lon="13.571807104760712"><ele>67.66666666666667</ele><time>2026-04-05T14:45:39.999Z</time></trkpt><trkpt lat="45.93560636453683" lon="13.571907623912125"><ele>68.0</ele><time>2026-04-05T14:45:40.999Z</time></trkpt><trkpt lat="45.93562710761258" lon="13.572009778721103"><ele>67.8</ele><time>2026-04-05T14:45:41.999Z</time></trkpt><trkpt lat="45.93564807386396" lon="13.572112927470078"><ele>67.6</ele><time>2026-04-05T14:45:42.999Z</time></trkpt><trkpt lat="45.9356699423646" lon="13.57222312277539"><ele>67.4</ele><time>2026-04-05T14:45:43.999Z</time></trkpt><trkpt lat="45.9356783923285" lon="13.572346489895338"><ele>67.2</ele><time>2026-04-05T14:45:44.999Z</time></trkpt><trkpt lat="45.93570641778447" lon="13.572488038587766"><ele>67.0</ele><time>2026-04-05T14:45:45.999Z</time></trkpt><trkpt lat="45.93574037200138" lon="13.572661265378432"><ele>67.0</ele><time>2026-04-05T14:45:46.999Z</time></trkpt><trkpt lat="45.935780395336444" lon="13.572866319065234"><ele>67.0</ele><time>2026-04-05T14:45:47.999Z</time></trkpt><trkpt lat="45.9358374520533" lon="13.573156293901402"><ele>67.0</ele><time>2026-04-05T14:45:48.999Z</time></trkpt><trkpt lat="45.93589275589307" lon="13.573434011885695"><ele>67.0</ele><time>2026-04-05T14:45:49.999Z</time></trkpt><trkpt lat="45.935940329954974" lon="13.573673531689588"><ele>67.0</ele><time>2026-04-05T14:45:50.999Z</time></trkpt><trkpt lat="45.93598131232766" lon="13.573887045460083"><ele>67.0</ele><time>2026-04-05T14:45:51.999Z</time></trkpt><trkpt lat="45.93602000354155" lon="13.574086581140975"><ele>67.5</ele><time>2026-04-05T14:45:52.999Z</time></trkpt><trkpt lat="45.936053983345914" lon="13.57426181928021"><ele>68.0</ele><time>2026-04-05T14:45:53.999Z</time></trkpt><trkpt lat="45.93608612697098" lon="13.574427588088499"><ele>68.5</ele><time>2026-04-05T14:45:54.999Z</time></trkpt><trkpt lat="45.93611658257769" lon="13.574584651387314"><ele>69.0</ele><time>2026-04-05T14:45:55.999Z</time></trkpt><trkpt lat="45.93614636543428" lon="13.574745333970164"><ele>69.0</ele><time>2026-04-05T14:45:56.999Z</time></trkpt><trkpt lat="45.936184492511124" lon="13.574887778871242"><ele>69.0</ele><time>2026-04-05T14:45:57.999Z</time></trkpt><trkpt lat="45.936197307361695" lon="13.575039907343108"><ele>69.0</ele><time>2026-04-05T14:45:58.999Z</time></trkpt><trkpt lat="45.936202679358665" lon="13.575198774456245"><ele>69.0</ele><time>2026-04-05T14:46:00Z</time></trkpt><trkpt lat="45.93619621597801" lon="13.575352351376006"><ele>69.0</ele><time>2026-04-05T14:46:01Z</time></trkpt><trkpt lat="45.93617632494222" lon="13.575507322976224"><ele>69.0</ele><time>2026-04-05T14:46:02Z</time></trkpt><trkpt lat="45.93614588156961" lon="13.575668534502418"><ele>69.0</ele><time>2026-04-05T14:46:03Z</time></trkpt><trkpt lat="45.93610704450727" lon="13.575837137793515"><ele>69.0</ele><time>2026-04-05T14:46:04Z</time></trkpt><trkpt lat="45.93606402230465" lon="13.576004506873009"><ele>69.0</ele><time>2026-04-05T14:46:05Z</time></trkpt><trkpt lat="45.93602109627503" lon="13.576171091713258"><ele>68.5</ele><time>2026-04-05T14:46:06Z</time></trkpt><trkpt lat="45.935986591343706" lon="13.576330871330912"><ele>68.0</ele><time>2026-04-05T14:46:07Z</time></trkpt><trkpt lat="45.93595816778924" lon="13.576497591149781"><ele>67.5</ele><time>2026-04-05T14:46:08Z</time></trkpt><trkpt lat="45.93593668250786" lon="13.576673236709217"><ele>67.0</ele><time>2026-04-05T14:46:09Z</time></trkpt><trkpt lat="45.9359210222736" lon="13.576851514941666"><ele>66.75</ele><time>2026-04-05T14:46:10Z</time></trkpt><trkpt lat="45.93590768688085" lon="13.577025819197257"><ele>66.5</ele><time>2026-04-05T14:46:11Z</time></trkpt><trkpt lat="45.935893259868685" lon="13.577216331776812"><ele>66.25</ele><time>2026-04-05T14:46:12Z</time></trkpt><trkpt lat="45.93588097356338" lon="13.577417659779725"><ele>66.0</ele><time>2026-04-05T14:46:13Z</time></trkpt><trkpt lat="45.93587675629546" lon="13.5776104055694"><ele>66.25</ele><time>2026-04-05T14:46:14Z</time></trkpt><trkpt lat="45.935884477169914" lon="13.577800116472629"><ele>66.5</ele><time>2026-04-05T14:46:15Z</time></trkpt><trkpt lat="45.93590644031783" lon="13.577999029642804"><ele>66.75</ele><time>2026-04-05T14:46:16Z</time></trkpt><trkpt lat="45.935927831547254" lon="13.578228012816489"><ele>67.0</ele><time>2026-04-05T14:46:17Z</time></trkpt><trkpt lat="45.935979438960096" lon="13.578461139480776"><ele>67.5</ele><time>2026-04-05T14:46:18Z</time></trkpt><trkpt lat="45.93604530598605" lon="13.578745314566202"><ele>68.0</ele><time>2026-04-05T14:46:19Z</time></trkpt><trkpt lat="45.936126030455206" lon="13.579080958266943"><ele>68.0</ele><time>2026-04-05T14:46:20Z</time></trkpt><trkpt lat="45.93621853588119" lon="13.579396391619879"><ele>68.0</ele><time>2026-04-05T14:46:21Z</time></trkpt><trkpt lat="45.936274130917305" lon="13.57969121186208"><ele>66.0</ele><time>2026-04-05T14:46:22Z</time></trkpt><trkpt lat="45.93631405409178" lon="13.579964791281272"><ele>64.0</ele><time>2026-04-05T14:46:23Z</time></trkpt><trkpt lat="45.93633988134064" lon="13.580235944274124"><ele>62.0</ele><time>2026-04-05T14:46:24Z</time></trkpt><trkpt lat="45.93636433845401" lon="13.580508046149687"><ele>61.0</ele><time>2026-04-05T14:46:25Z</time></trkpt><trkpt lat="45.93638314666509" lon="13.580796587676696"><ele>60.0</ele><time>2026-04-05T14:46:26Z</time></trkpt><trkpt lat="45.93638839067647" lon="13.58109033469333"><ele>59.0</ele><time>2026-04-05T14:46:27Z</time></trkpt><trkpt lat="45.93638534581957" lon="13.581399380084285"><ele>59.0</ele><time>2026-04-05T14:46:28Z</time></trkpt><trkpt lat="45.93636501591218" lon="13.581701537965271"><ele>59.0</ele><time>2026-04-05T14:46:29Z</time></trkpt><trkpt lat="45.93633838686552" lon="13.581993421035694"><ele>59.0</ele><time>2026-04-05T14:46:30Z</time></trkpt><trkpt lat="45.93631045617193" lon="13.582302933103234"><ele>56.5</ele><time>2026-04-05T14:46:31Z</time></trkpt><trkpt lat="45.93633487599486" lon="13.582630130659187"><ele>54.0</ele><time>2026-04-05T14:46:32Z</time></trkpt><trkpt lat="45.936352323543375" lon="13.582966188914916"><ele>53.0</ele><time>2026-04-05T14:46:33Z</time></trkpt><trkpt lat="45.93637466824838" lon="13.58330652129338"><ele>52.0</ele><time>2026-04-05T14:46:34Z</time></trkpt><trkpt lat="45.93637716934705" lon="13.583612835289875"><ele>51.666666666666664</ele><time>2026-04-05T14:46:35Z</time></trkpt><trkpt lat="45.93639418887866" lon="13.58389768997784"><ele>51.33333333333333</ele><time>2026-04-05T14:46:36Z</time></trkpt><trkpt lat="45.93641078008684" lon="13.584178790639019"><ele>51.0</ele><time>2026-04-05T14:46:36.999Z</time></trkpt><trkpt lat="45.936448040503535" lon="13.584454779930747"><ele>50.0</ele><time>2026-04-05T14:46:37.999Z</time></trkpt><trkpt lat="45.93646280675745" lon="13.58472698146684"><ele>49.0</ele><time>2026-04-05T14:46:38.999Z</time></trkpt><trkpt lat="45.93647662135698" lon="13.584991706491486"><ele>48.0</ele><time>2026-04-05T14:46:39.999Z</time></trkpt><trkpt lat="45.93649133730913" lon="13.585255393691348"><ele>48.33333333333333</ele><time>2026-04-05T14:46:40.999Z</time></trkpt><trkpt lat="45.936506805333394" lon="13.585510882257628"><ele>48.666666666666664</ele><time>2026-04-05T14:46:41.999Z</time></trkpt><trkpt lat="45.93652109948769" lon="13.585765005344552"><ele>49.0</ele><time>2026-04-05T14:46:42.999Z</time></trkpt><trkpt lat="45.93653268504208" lon="13.586030392741462"><ele>48.0</ele><time>2026-04-05T14:46:43.999Z</time></trkpt><trkpt lat="45.93654548537757" lon="13.586301356172862"><ele>47.0</ele><time>2026-04-05T14:46:44.999Z</time></trkpt><trkpt lat="45.93655679083952" lon="13.586575172418776"><ele>46.0</ele><time>2026-04-05T14:46:45.999Z</time></trkpt><trkpt lat="45.936571360037505" lon="13.586837763726406"><ele>45.66666666666667</ele><time>2026-04-05T14:46:46.999Z</time></trkpt><trkpt lat="45.93658668237342" lon="13.587094983735765"><ele>45.333333333333336</ele><time>2026-04-05T14:46:47.999Z</time></trkpt><trkpt lat="45.93660028460174" lon="13.587360363551527"><ele>45.0</ele><time>2026-04-05T14:46:48.999Z</time></trkpt><trkpt lat="45.9366108648722" lon="13.58763835558159"><ele>45.333333333333336</ele><time>2026-04-05T14:46:49.999Z</time></trkpt><trkpt lat="45.93661636693413" lon="13.58793754665683"><ele>45.66666666666667</ele><time>2026-04-05T14:46:50.999Z</time></trkpt><trkpt lat="45.93661166490947" lon="13.588246832619918"><ele>46.0</ele><time>2026-04-05T14:46:51.999Z</time></trkpt><trkpt lat="45.936600152968936" lon="13.588567276638939"><ele>45.0</ele><time>2026-04-05T14:46:52.999Z</time></trkpt><trkpt lat="45.93657824980667" lon="13.588897211529737"><ele>44.0</ele><time>2026-04-05T14:46:53.999Z</time></trkpt><trkpt lat="45.9365507597097" lon="13.589219457141226"><ele>44.0</ele><time>2026-04-05T14:46:54.999Z</time></trkpt><trkpt lat="45.936518709981144" lon="13.589528935828739"><ele>44.0</ele><time>2026-04-05T14:46:55.999Z</time></trkpt><trkpt lat="45.936478625599975" lon="13.589827771893876"><ele>44.0</ele><time>2026-04-05T14:46:56.999Z</time></trkpt><trkpt lat="45.93643111733641" lon="13.590123224428739"><ele>43.33333333333333</ele><time>2026-04-05T14:46:57.999Z</time></trkpt><trkpt lat="45.93638049611115" lon="13.590417302679617"><ele>42.666666666666664</ele><time>2026-04-05T14:46:58.999Z</time></trkpt><trkpt lat="45.93633414805973" lon="13.590720781708573"><ele>42.0</ele><time>2026-04-05T14:46:59.999Z</time></trkpt><trkpt lat="45.936293164661535" lon="13.591028883057396"><ele>42.666666666666664</ele><time>2026-04-05T14:47:00.999Z</time></trkpt><trkpt lat="45.936259947764576" lon="13.591306818469336"><ele>43.33333333333333</ele><time>2026-04-05T14:47:01.999Z</time></trkpt><trkpt lat="45.93623289308253" lon="13.591562062680984"><ele>44.0</ele><time>2026-04-05T14:47:02.999Z</time></trkpt><trkpt lat="45.936207158950964" lon="13.591771553730519"><ele>44.0</ele><time>2026-04-05T14:47:03.999Z</time></trkpt><trkpt lat="45.93618217161337" lon="13.591964166402036"><ele>44.0</ele><time>2026-04-05T14:47:04.999Z</time></trkpt><trkpt lat="45.936157107646245" lon="13.592136298377051"><ele>44.0</ele><time>2026-04-05T14:47:05.999Z</time></trkpt><trkpt lat="45.93612817707027" lon="13.592305211001193"><ele>44.0</ele><time>2026-04-05T14:47:06.999Z</time></trkpt><trkpt lat="45.93609288416329" lon="13.592487633685758"><ele>44.0</ele><time>2026-04-05T14:47:07.999Z</time></trkpt><trkpt lat="45.93605261966666" lon="13.592681347370528"><ele>44.0</ele><time>2026-04-05T14:47:08.999Z</time></trkpt><trkpt lat="45.936010450485746" lon="13.592885898019508"><ele>44.0</ele><time>2026-04-05T14:47:09.999Z</time></trkpt><trkpt lat="45.93596669040682" lon="13.593101498398093"><ele>44.0</ele><time>2026-04-05T14:47:10.999Z</time></trkpt><trkpt lat="45.93592481310463" lon="13.593317078498451"><ele>44.666666666666664</ele><time>2026-04-05T14:47:11.999Z</time></trkpt><trkpt lat="45.93588591590717" lon="13.59353079215665"><ele>45.333333333333336</ele><time>2026-04-05T14:47:12.999Z</time></trkpt><trkpt lat="45.93584648212943" lon="13.593746269427973"><ele>46.0</ele><time>2026-04-05T14:47:13.999Z</time></trkpt><trkpt lat="45.93580872212958" lon="13.593944063456096"><ele>46.0</ele><time>2026-04-05T14:47:14.999Z</time></trkpt><trkpt lat="45.93576987784267" lon="13.594140824768536"><ele>46.0</ele><time>2026-04-05T14:47:15.999Z</time></trkpt><trkpt lat="45.93573224097741" lon="13.594340833596016"><ele>46.0</ele><time>2026-04-05T14:47:16.999Z</time></trkpt><trkpt lat="45.93569545371013" lon="13.594541311351476"><ele>46.0</ele><time>2026-04-05T14:47:17.999Z</time></trkpt><trkpt lat="45.935659453405805" lon="13.594745650849163"><ele>46.0</ele><time>2026-04-05T14:47:18.999Z</time></trkpt><trkpt lat="45.93562091269191" lon="13.594951382100753"><ele>46.0</ele><time>2026-04-05T14:47:19.999Z</time></trkpt><trkpt lat="45.93558020772753" lon="13.595164250014552"><ele>46.0</ele><time>2026-04-05T14:47:20.999Z</time></trkpt><trkpt lat="45.935541971998404" lon="13.595375521440543"><ele>45.75</ele><time>2026-04-05T14:47:21.999Z</time></trkpt><trkpt lat="45.93550884268904" lon="13.595584452928016"><ele>45.5</ele><time>2026-04-05T14:47:22.999Z</time></trkpt><trkpt lat="45.93547709987232" lon="13.595791449798705"><ele>45.25</ele><time>2026-04-05T14:47:23.999Z</time></trkpt><trkpt lat="45.93544286758406" lon="13.59599319854335"><ele>45.0</ele><time>2026-04-05T14:47:24.999Z</time></trkpt><trkpt lat="45.93540794624327" lon="13.596183940291326"><ele>45.5</ele><time>2026-04-05T14:47:25.999Z</time></trkpt><trkpt lat="45.93537869640698" lon="13.59636414884562"><ele>46.0</ele><time>2026-04-05T14:47:26.999Z</time></trkpt><trkpt lat="45.93535056622823" lon="13.596543854546121"><ele>46.5</ele><time>2026-04-05T14:47:27.999Z</time></trkpt><trkpt lat="45.93532235762513" lon="13.596726596124892"><ele>47.0</ele><time>2026-04-05T14:47:28.999Z</time></trkpt><trkpt lat="45.935292533804216" lon="13.596906695568467"><ele>46.5</ele><time>2026-04-05T14:47:29.999Z</time></trkpt><trkpt lat="45.93526095386486" lon="13.597085892174313"><ele>46.0</ele><time>2026-04-05T14:47:30.999Z</time></trkpt><trkpt lat="45.93522831816147" lon="13.597268460739318"><ele>45.5</ele><time>2026-04-05T14:47:31.999Z</time></trkpt><trkpt lat="45.93519202701513" lon="13.5974577553902"><ele>45.0</ele><time>2026-04-05T14:47:32.999Z</time></trkpt><trkpt lat="45.93515636043494" lon="13.597650426106004"><ele>45.75</ele><time>2026-04-05T14:47:33.999Z</time></trkpt><trkpt lat="45.9351182238513" lon="13.597841390053482"><ele>46.5</ele><time>2026-04-05T14:47:34.999Z</time></trkpt><trkpt lat="45.935083628973004" lon="13.59802647996774"><ele>47.25</ele><time>2026-04-05T14:47:35.999Z</time></trkpt><trkpt lat="45.93505219499752" lon="13.598202581211444"><ele>48.0</ele><time>2026-04-05T14:47:36.999Z</time></trkpt><trkpt lat="45.93502087945567" lon="13.598379130369631"><ele>48.0</ele><time>2026-04-05T14:47:37.999Z</time></trkpt><trkpt lat="45.934983811657524" lon="13.598556371092101"><ele>48.0</ele><time>2026-04-05T14:47:38.999Z</time></trkpt><trkpt lat="45.93494840056764" lon="13.59873510159112"><ele>48.0</ele><time>2026-04-05T14:47:39.999Z</time></trkpt><trkpt lat="45.93491652260147" lon="13.598902363054243"><ele>48.0</ele><time>2026-04-05T14:47:40.999Z</time></trkpt><trkpt lat="45.93488915496814" lon="13.599053758271744"><ele>48.599999999999994</ele><time>2026-04-05T14:47:41.999Z</time></trkpt><trkpt lat="45.934861065925226" lon="13.59919724776476"><ele>49.199999999999996</ele><time>2026-04-05T14:47:42.999Z</time></trkpt><trkpt lat="45.93483399642035" lon="13.599343611744276"><ele>49.8</ele><time>2026-04-05T14:47:43.999Z</time></trkpt><trkpt lat="45.93480961414963" lon="13.599472882974906"><ele>50.4</ele><time>2026-04-05T14:47:44.999Z</time></trkpt><trkpt lat="45.934789361578595" lon="13.599568427990302"><ele>51.0</ele><time>2026-04-05T14:47:45.999Z</time></trkpt><trkpt lat="45.934745439683326" lon="13.59971743551578"><ele>51.666666666666664</ele><time>2026-04-05T14:47:47.999Z</time></trkpt><trkpt lat="45.934679231915545" lon="13.599823014023242"><ele>52.33333333333333</ele><time>2026-04-05T14:47:49.999Z</time></trkpt><trkpt lat="45.93462064840849" lon="13.599862066895884"><ele>53.0</ele><time>2026-04-05T14:47:50.999Z</time></trkpt><trkpt lat="45.93455247025794" lon="13.599889572835266"><ele>53.666666666666664</ele><time>2026-04-05T14:47:51.999Z</time></trkpt><trkpt lat="45.934476895658605" lon="13.599934493627135"><ele>54.33333333333333</ele><time>2026-04-05T14:47:52.999Z</time></trkpt><trkpt lat="45.93440327467605" lon="13.600005082864264"><ele>55.0</ele><time>2026-04-05T14:47:53.999Z</time></trkpt><trkpt lat="45.934338900408385" lon="13.60007392477998"><ele>55.0</ele><time>2026-04-05T14:47:54.999Z</time></trkpt><trkpt lat="45.93430078091569" lon="13.60019419830304"><ele>55.0</ele><time>2026-04-05T14:47:55.999Z</time></trkpt><trkpt lat="45.93426762032931" lon="13.600312922598038"><ele>55.0</ele><time>2026-04-05T14:47:56.999Z</time></trkpt><trkpt lat="45.934226108309474" lon="13.60042963363438"><ele>55.0</ele><time>2026-04-05T14:47:57.999Z</time></trkpt><trkpt lat="45.934166025594436" lon="13.600542795449526"><ele>55.0</ele><time>2026-04-05T14:47:58.999Z</time></trkpt><trkpt lat="45.93408510869445" lon="13.600641192120387"><ele>55.2</ele><time>2026-04-05T14:47:59.999Z</time></trkpt><trkpt lat="45.93399929978266" lon="13.600737605471322"><ele>55.4</ele><time>2026-04-05T14:48:00.999Z</time></trkpt><trkpt lat="45.933916843695094" lon="13.600837197331511"><ele>55.599999999999994</ele><time>2026-04-05T14:48:01.999Z</time></trkpt><trkpt lat="45.933838995686266" lon="13.600925155070371"><ele>55.8</ele><time>2026-04-05T14:48:02.999Z</time></trkpt><trkpt lat="45.93376845121667" lon="13.60100721606941"><ele>56.0</ele><time>2026-04-05T14:48:03.999Z</time></trkpt><trkpt lat="45.9337011973259" lon="13.601088363532"><ele>56.199999999999996</ele><time>2026-04-05T14:48:04.999Z</time></trkpt><trkpt lat="45.93363046021684" lon="13.601169356986041"><ele>56.39999999999999</ele><time>2026-04-05T14:48:06Z</time></trkpt><trkpt lat="45.93355843464366" lon="13.601252083033444"><ele>56.6</ele><time>2026-04-05T14:48:07Z</time></trkpt><trkpt lat="45.933486545452226" lon="13.601340482435686"><ele>56.8</ele><time>2026-04-05T14:48:08Z</time></trkpt><trkpt lat="45.93341574114037" lon="13.601437828557517"><ele>57.0</ele><time>2026-04-05T14:48:09Z</time></trkpt><trkpt lat="45.9333550094362" lon="13.601549942532642"><ele>57.0</ele><time>2026-04-05T14:48:10Z</time></trkpt><trkpt lat="45.93330706642814" lon="13.60167498823563"><ele>57.0</ele><time>2026-04-05T14:48:11Z</time></trkpt><trkpt lat="45.933275084547795" lon="13.601817133202472"><ele>57.0</ele><time>2026-04-05T14:48:12Z</time></trkpt><trkpt lat="45.93326288308578" lon="13.601966797131722"><ele>57.0</ele><time>2026-04-05T14:48:13Z</time></trkpt><trkpt lat="45.93328178422671" lon="13.602121748082673"><ele>57.0</ele><time>2026-04-05T14:48:14Z</time></trkpt><trkpt lat="45.933313764062476" lon="13.602277871677513"><ele>57.75</ele><time>2026-04-05T14:48:15Z</time></trkpt><trkpt lat="45.933338610068816" lon="13.602439647838692"><ele>58.5</ele><time>2026-04-05T14:48:16Z</time></trkpt><trkpt lat="45.93336154319988" lon="13.602596524682228"><ele>59.25</ele><time>2026-04-05T14:48:17Z</time></trkpt><trkpt lat="45.93338795534004" lon="13.602765963480604"><ele>60.0</ele><time>2026-04-05T14:48:18Z</time></trkpt><trkpt lat="45.933417209653356" lon="13.602937316044573"><ele>60.25</ele><time>2026-04-05T14:48:19Z</time></trkpt><trkpt lat="45.933441781652874" lon="13.603108260332808"><ele>60.5</ele><time>2026-04-05T14:48:20Z</time></trkpt><trkpt lat="45.933470281540366" lon="13.603272155094052"><ele>60.75</ele><time>2026-04-05T14:48:21Z</time></trkpt><trkpt lat="45.93349462158895" lon="13.603430243469662"><ele>61.0</ele><time>2026-04-05T14:48:22Z</time></trkpt><trkpt lat="45.93351889561059" lon="13.603583438073013"><ele>61.4</ele><time>2026-04-05T14:48:23Z</time></trkpt><trkpt lat="45.93354382145356" lon="13.603726569709927"><ele>61.8</ele><time>2026-04-05T14:48:24Z</time></trkpt><trkpt lat="45.93356390797933" lon="13.603864325203627"><ele>62.199999999999996</ele><time>2026-04-05T14:48:25Z</time></trkpt><trkpt lat="45.93358470839602" lon="13.603994486133905"><ele>62.599999999999994</ele><time>2026-04-05T14:48:26Z</time></trkpt><trkpt lat="45.93360579755525" lon="13.604125282814348"><ele>63.0</ele><time>2026-04-05T14:48:27Z</time></trkpt><trkpt lat="45.93362016292018" lon="13.604240325463609"><ele>63.0</ele><time>2026-04-05T14:48:28Z</time></trkpt><trkpt lat="45.93363013710302" lon="13.604342697739021"><ele>63.0</ele><time>2026-04-05T14:48:29Z</time></trkpt><trkpt lat="45.93363727949771" lon="13.604451060310794"><ele>63.0</ele><time>2026-04-05T14:48:30Z</time></trkpt><trkpt lat="45.93363970837027" lon="13.604563118869564"><ele>63.0</ele><time>2026-04-05T14:48:31Z</time></trkpt><trkpt lat="45.933634972092534" lon="13.604672694846492"><ele>63.0</ele><time>2026-04-05T14:48:32Z</time></trkpt><trkpt lat="45.933621594375644" lon="13.604774570942723"><ele>63.0</ele><time>2026-04-05T14:48:33Z</time></trkpt><trkpt lat="45.93359972054593" lon="13.604875709294983"><ele>63.0</ele><time>2026-04-05T14:48:34Z</time></trkpt><trkpt lat="45.93356926670747" lon="13.604983166648447"><ele>63.599999999999994</ele><time>2026-04-05T14:48:35Z</time></trkpt><trkpt lat="45.933531114702774" lon="13.605090797887714"><ele>64.19999999999999</ele><time>2026-04-05T14:48:36Z</time></trkpt><trkpt lat="45.933475514925085" lon="13.60521027585161"><ele>64.8</ele><time>2026-04-05T14:48:37Z</time></trkpt><trkpt lat="45.933392943803284" lon="13.605341723228468"><ele>65.39999999999999</ele><time>2026-04-05T14:48:38Z</time></trkpt><trkpt lat="45.933297602608654" lon="13.605466686178284"><ele>66.0</ele><time>2026-04-05T14:48:39Z</time></trkpt><trkpt lat="45.933192446002" lon="13.605567359142922"><ele>66.0</ele><time>2026-04-05T14:48:39.999Z</time></trkpt><trkpt lat="45.93307587823709" lon="13.605632490974738"><ele>66.0</ele><time>2026-04-05T14:48:40.999Z</time></trkpt><trkpt lat="45.93296200142428" lon="13.605666947071004"><ele>66.0</ele><time>2026-04-05T14:48:41.999Z</time></trkpt><trkpt lat="45.93285558216425" lon="13.60567731213338"><ele>66.0</ele><time>2026-04-05T14:48:42.999Z</time></trkpt><trkpt lat="45.932734868718754" lon="13.60566066352184"><ele>66.0</ele><time>2026-04-05T14:48:43.999Z</time></trkpt><trkpt lat="45.93260075437209" lon="13.60563071979143"><ele>66.0</ele><time>2026-04-05T14:48:44.999Z</time></trkpt><trkpt lat="45.932460122585546" lon="13.605602255303278"><ele>66.0</ele><time>2026-04-05T14:48:45.999Z</time></trkpt><trkpt lat="45.93232155529492" lon="13.605574419581428"><ele>66.0</ele><time>2026-04-05T14:48:46.999Z</time></trkpt><trkpt lat="45.93219302580113" lon="13.605550971051374"><ele>66.0</ele><time>2026-04-05T14:48:47.999Z</time></trkpt><trkpt lat="45.932067968269706" lon="13.60552677732759"><ele>66.0</ele><time>2026-04-05T14:48:48.999Z</time></trkpt><trkpt lat="45.931940871524326" lon="13.605497756581833"><ele>66.0</ele><time>2026-04-05T14:48:49.999Z</time></trkpt><trkpt lat="45.93180555713608" lon="13.605469917859528"><ele>66.0</ele><time>2026-04-05T14:48:50.999Z</time></trkpt><trkpt lat="45.93166244982006" lon="13.605438457818671"><ele>66.0</ele><time>2026-04-05T14:48:51.999Z</time></trkpt><trkpt lat="45.931521686431964" lon="13.605411375724254"><ele>66.0</ele><time>2026-04-05T14:48:52.999Z</time></trkpt><trkpt lat="45.93138550727895" lon="13.605385288871139"><ele>66.0</ele><time>2026-04-05T14:48:53.999Z</time></trkpt><trkpt lat="45.93125023921883" lon="13.605356661913353"><ele>66.0</ele><time>2026-04-05T14:48:54.999Z</time></trkpt><trkpt lat="45.93110705183668" lon="13.605324644876902"><ele>66.0</ele><time>2026-04-05T14:48:55.999Z</time></trkpt><trkpt lat="45.93095837616614" lon="13.605294185087192"><ele>66.0</ele><time>2026-04-05T14:48:56.999Z</time></trkpt><trkpt lat="45.93080555246641" lon="13.605266251174937"><ele>66.0</ele><time>2026-04-05T14:48:57.999Z</time></trkpt><trkpt lat="45.93064487970633" lon="13.605247276267152"><ele>66.0</ele><time>2026-04-05T14:48:58.999Z</time></trkpt><trkpt lat="45.93047865788988" lon="13.605235696190398"><ele>66.0</ele><time>2026-04-05T14:48:59.999Z</time></trkpt><trkpt lat="45.930310455972226" lon="13.605232025175177"><ele>66.0</ele><time>2026-04-05T14:49:00.999Z</time></trkpt><trkpt lat="45.930139339155964" lon="13.605234953651946"><ele>66.66666666666667</ele><time>2026-04-05T14:49:01.999Z</time></trkpt><trkpt lat="45.92996949919399" lon="13.60523495258918"><ele>67.33333333333334</ele><time>2026-04-05T14:49:02.999Z</time></trkpt><trkpt lat="45.92980073038992" lon="13.605234146813737"><ele>68.0</ele><time>2026-04-05T14:49:03.999Z</time></trkpt><trkpt lat="45.92963187293671" lon="13.60523348990731"><ele>68.0</ele><time>2026-04-05T14:49:04.999Z</time></trkpt><trkpt lat="45.92945730507221" lon="13.60523814674394"><ele>68.0</ele><time>2026-04-05T14:49:05.999Z</time></trkpt><trkpt lat="45.92928733140274" lon="13.605244274288133"><ele>68.0</ele><time>2026-04-05T14:49:06.999Z</time></trkpt><trkpt lat="45.929130581147035" lon="13.605256757543048"><ele>67.0</ele><time>2026-04-05T14:49:07.999Z</time></trkpt><trkpt lat="45.928984938851606" lon="13.605269540070022"><ele>66.0</ele><time>2026-04-05T14:49:08.999Z</time></trkpt><trkpt lat="45.92884024251604" lon="13.605283300679083"><ele>65.0</ele><time>2026-04-05T14:49:09.999Z</time></trkpt><trkpt lat="45.928699589799756" lon="13.605294602693274"><ele>64.0</ele><time>2026-04-05T14:49:10.999Z</time></trkpt><trkpt lat="45.928562924792516" lon="13.605310584990647"><ele>64.25</ele><time>2026-04-05T14:49:11.999Z</time></trkpt><trkpt lat="45.92842692473501" lon="13.605330313595598"><ele>64.5</ele><time>2026-04-05T14:49:12.999Z</time></trkpt><trkpt lat="45.92828907865582" lon="13.605342378234429"><ele>64.75</ele><time>2026-04-05T14:49:13.999Z</time></trkpt><trkpt lat="45.92813865968376" lon="13.605338855943065"><ele>65.0</ele><time>2026-04-05T14:49:14.999Z</time></trkpt><trkpt lat="45.92797674338714" lon="13.605314671154629"><ele>65.0</ele><time>2026-04-05T14:49:15.999Z</time></trkpt><trkpt lat="45.92781585665984" lon="13.60527225790284"><ele>65.0</ele><time>2026-04-05T14:49:16.999Z</time></trkpt><trkpt lat="45.92767108588013" lon="13.605236554678182"><ele>65.0</ele><time>2026-04-05T14:49:17.999Z</time></trkpt><trkpt lat="45.927538000574636" lon="13.605195909361278"><ele>65.0</ele><time>2026-04-05T14:49:18.999Z</time></trkpt><trkpt lat="45.92740234253818" lon="13.605151895871016"><ele>65.0</ele><time>2026-04-05T14:49:19.999Z</time></trkpt><trkpt lat="45.92728272312636" lon="13.605111948034507"><ele>65.0</ele><time>2026-04-05T14:49:20.999Z</time></trkpt><trkpt lat="45.92715971245922" lon="13.60506478674384"><ele>65.0</ele><time>2026-04-05T14:49:21.999Z</time></trkpt><trkpt lat="45.92704002575688" lon="13.605016382744116"><ele>65.0</ele><time>2026-04-05T14:49:22.999Z</time></trkpt><trkpt lat="45.9269269122674" lon="13.604960772946821"><ele>65.0</ele><time>2026-04-05T14:49:23.999Z</time></trkpt><trkpt lat="45.926817083115246" lon="13.60489589867894"><ele>65.0</ele><time>2026-04-05T14:49:24.999Z</time></trkpt><trkpt lat="45.926706643472585" lon="13.604829848146613"><ele>65.0</ele><time>2026-04-05T14:49:25.999Z</time></trkpt><trkpt lat="45.92660024804357" lon="13.604756157902916"><ele>65.0</ele><time>2026-04-05T14:49:26.999Z</time></trkpt><trkpt lat="45.92648710072666" lon="13.6046655902287"><ele>64.5</ele><time>2026-04-05T14:49:27.999Z</time></trkpt><trkpt lat="45.926364821009734" lon="13.604563297870998"><ele>64.0</ele><time>2026-04-05T14:49:28.999Z</time></trkpt><trkpt lat="45.92624066990536" lon="13.604464615956042"><ele>63.5</ele><time>2026-04-05T14:49:29.999Z</time></trkpt><trkpt lat="45.926115795098966" lon="13.604368989465097"><ele>63.0</ele><time>2026-04-05T14:49:30.999Z</time></trkpt><trkpt lat="45.925993261271" lon="13.604270577766444"><ele>64.0</ele><time>2026-04-05T14:49:31.999Z</time></trkpt><trkpt lat="45.92587482661981" lon="13.60417104555647"><ele>65.0</ele><time>2026-04-05T14:49:32.999Z</time></trkpt><trkpt lat="45.92575659003735" lon="13.604079069449533"><ele>66.0</ele><time>2026-04-05T14:49:33.999Z</time></trkpt><trkpt lat="45.92564044076109" lon="13.603989052739928"><ele>67.0</ele><time>2026-04-05T14:49:34.999Z</time></trkpt><trkpt lat="45.92552274324599" lon="13.60390699450034"><ele>67.0</ele><time>2026-04-05T14:49:35.999Z</time></trkpt><trkpt lat="45.92540239005237" lon="13.603822306406583"><ele>67.0</ele><time>2026-04-05T14:49:36.999Z</time></trkpt><trkpt lat="45.925292062497974" lon="13.603740027724534"><ele>67.0</ele><time>2026-04-05T14:49:37.999Z</time></trkpt><trkpt lat="45.92518768579548" lon="13.603646994037204"><ele>67.0</ele><time>2026-04-05T14:49:38.999Z</time></trkpt><trkpt lat="45.925084803250876" lon="13.603554765133742"><ele>66.2</ele><time>2026-04-05T14:49:39.999Z</time></trkpt><trkpt lat="45.92497838673018" lon="13.603467307699576"><ele>65.4</ele><time>2026-04-05T14:49:40.999Z</time></trkpt><trkpt lat="45.924876117257455" lon="13.603384054082925"><ele>64.6</ele><time>2026-04-05T14:49:41.999Z</time></trkpt><trkpt lat="45.924787441569244" lon="13.603321664277159"><ele>63.8</ele><time>2026-04-05T14:49:42.999Z</time></trkpt><trkpt lat="45.92471135979463" lon="13.60327315204512"><ele>63.0</ele><time>2026-04-05T14:49:43.999Z</time></trkpt><trkpt lat="45.92464542304516" lon="13.603237957724977"><ele>63.0</ele><time>2026-04-05T14:49:44.999Z</time></trkpt><trkpt lat="45.92452871316529" lon="13.603171151437913"><ele>63.0</ele><time>2026-04-05T14:49:46.999Z</time></trkpt><trkpt lat="45.92445831382511" lon="13.603143462718235"><ele>63.0</ele><time>2026-04-05T14:49:47.999Z</time></trkpt><trkpt lat="45.92437973793872" lon="13.603151895835138"><ele>63.0</ele><time>2026-04-05T14:49:48.999Z</time></trkpt><trkpt lat="45.92428703188456" lon="13.603172140529512"><ele>63.0</ele><time>2026-04-05T14:49:49.999Z</time></trkpt><trkpt lat="45.92417048123296" lon="13.60314288226606"><ele>64.75</ele><time>2026-04-05T14:49:50.999Z</time></trkpt><trkpt lat="45.92405329004309" lon="13.603088501155264"><ele>66.5</ele><time>2026-04-05T14:49:51.999Z</time></trkpt><trkpt lat="45.923942851924856" lon="13.603039407700248"><ele>68.25</ele><time>2026-04-05T14:49:52.999Z</time></trkpt><trkpt lat="45.923832743245384" lon="13.6029955317122"><ele>70.0</ele><time>2026-04-05T14:49:53.999Z</time></trkpt><trkpt lat="45.923726992693645" lon="13.602948868843365"><ele>70.0</ele><time>2026-04-05T14:49:54.999Z</time></trkpt><trkpt lat="45.9236263234668" lon="13.602900132645937"><ele>70.0</ele><time>2026-04-05T14:49:55.999Z</time></trkpt><trkpt lat="45.92352901098061" lon="13.602856055031285"><ele>70.0</ele><time>2026-04-05T14:49:56.999Z</time></trkpt><trkpt lat="45.92343340000116" lon="13.602812711886386"><ele>70.0</ele><time>2026-04-05T14:49:57.999Z</time></trkpt><trkpt lat="45.92334025416725" lon="13.602766692466417"><ele>70.0</ele><time>2026-04-05T14:49:58.999Z</time></trkpt><trkpt lat="45.92324605793043" lon="13.602720822045448"><ele>69.66666666666666</ele><time>2026-04-05T14:49:59.999Z</time></trkpt><trkpt lat="45.92315218334871" lon="13.602675164298265"><ele>69.33333333333333</ele><time>2026-04-05T14:50:00.999Z</time></trkpt><trkpt lat="45.923069930947705" lon="13.602635738227491"><ele>69.0</ele><time>2026-04-05T14:50:01.999Z</time></trkpt><trkpt lat="45.92299772837945" lon="13.602598586648236"><ele>68.66666666666667</ele><time>2026-04-05T14:50:02.999Z</time></trkpt><trkpt lat="45.92292799856477" lon="13.602561704272937"><ele>68.33333333333334</ele><time>2026-04-05T14:50:03.999Z</time></trkpt><trkpt lat="45.92285407300506" lon="13.602526438269482"><ele>68.0</ele><time>2026-04-05T14:50:04.999Z</time></trkpt><trkpt lat="45.92277690309984" lon="13.602492377916258"><ele>68.0</ele><time>2026-04-05T14:50:05.999Z</time></trkpt><trkpt lat="45.92270281878688" lon="13.60245537206353"><ele>68.0</ele><time>2026-04-05T14:50:06.999Z</time></trkpt><trkpt lat="45.92263800120694" lon="13.602423355740067"><ele>68.0</ele><time>2026-04-05T14:50:07.999Z</time></trkpt><trkpt lat="45.92257374094132" lon="13.60238455675068"><ele>68.0</ele><time>2026-04-05T14:50:08.999Z</time></trkpt><trkpt lat="45.92250403440959" lon="13.602339432999575"><ele>68.0</ele><time>2026-04-05T14:50:09.999Z</time></trkpt><trkpt lat="45.922426478069056" lon="13.602297731302567"><ele>68.0</ele><time>2026-04-05T14:50:10.999Z</time></trkpt><trkpt lat="45.92234115817806" lon="13.602250994009118"><ele>68.4</ele><time>2026-04-05T14:50:12Z</time></trkpt><trkpt lat="45.92225047507084" lon="13.602202126771639"><ele>68.8</ele><time>2026-04-05T14:50:13Z</time></trkpt><trkpt lat="45.9221592119907" lon="13.602153026664372"><ele>69.2</ele><time>2026-04-05T14:50:14Z</time></trkpt><trkpt lat="45.9220586874562" lon="13.602099622158082"><ele>69.6</ele><time>2026-04-05T14:50:15Z</time></trkpt><trkpt lat="45.92194486031579" lon="13.602043810815703"><ele>70.0</ele><time>2026-04-05T14:50:16Z</time></trkpt><trkpt lat="45.9218350903767" lon="13.601992282599614"><ele>68.5</ele><time>2026-04-05T14:50:17Z</time></trkpt><trkpt lat="45.92172413786868" lon="13.601947484088837"><ele>67.0</ele><time>2026-04-05T14:50:18Z</time></trkpt><trkpt lat="45.92160520149832" lon="13.601900947954283"><ele>65.5</ele><time>2026-04-05T14:50:19Z</time></trkpt><trkpt lat="45.921469967879965" lon="13.601846950102123"><ele>64.0</ele><time>2026-04-05T14:50:20Z</time></trkpt><trkpt lat="45.92132827282903" lon="13.601789430240673"><ele>64.0</ele><time>2026-04-05T14:50:21Z</time></trkpt><trkpt lat="45.92118964636981" lon="13.601737950567781"><ele>64.0</ele><time>2026-04-05T14:50:22Z</time></trkpt><trkpt lat="45.921054901184256" lon="13.601684727935638"><ele>64.0</ele><time>2026-04-05T14:50:23Z</time></trkpt><trkpt lat="45.920925059041515" lon="13.601639015872177"><ele>64.0</ele><time>2026-04-05T14:50:24Z</time></trkpt><trkpt lat="45.92079630018423" lon="13.601588844387015"><ele>64.0</ele><time>2026-04-05T14:50:25Z</time></trkpt><trkpt lat="45.92066552581584" lon="13.601537506480593"><ele>64.0</ele><time>2026-04-05T14:50:26Z</time></trkpt><trkpt lat="45.92053818531327" lon="13.601488063501117"><ele>64.0</ele><time>2026-04-05T14:50:27Z</time></trkpt><trkpt lat="45.920414447524074" lon="13.601445490043343"><ele>64.0</ele><time>2026-04-05T14:50:28Z</time></trkpt><trkpt lat="45.92029781104864" lon="13.601389685682806"><ele>64.0</ele><time>2026-04-05T14:50:29Z</time></trkpt><trkpt lat="45.920173804349815" lon="13.601317621554243"><ele>64.0</ele><time>2026-04-05T14:50:30Z</time></trkpt><trkpt lat="45.92005392282213" lon="13.601224094475857"><ele>64.0</ele><time>2026-04-05T14:50:31Z</time></trkpt><trkpt lat="45.919935797505225" lon="13.601093308195543"><ele>64.0</ele><time>2026-04-05T14:50:32Z</time></trkpt><trkpt lat="45.91981945188532" lon="13.600944245246033"><ele>64.0</ele><time>2026-04-05T14:50:33Z</time></trkpt><trkpt lat="45.919707539921255" lon="13.600784995158195"><ele>64.0</ele><time>2026-04-05T14:50:34Z</time></trkpt><trkpt lat="45.91959237163931" lon="13.60062980580767"><ele>64.0</ele><time>2026-04-05T14:50:35Z</time></trkpt><trkpt lat="45.919467474146515" lon="13.600493098991231"><ele>64.0</ele><time>2026-04-05T14:50:36Z</time></trkpt><trkpt lat="45.91934506745183" lon="13.600367655914408"><ele>64.0</ele><time>2026-04-05T14:50:37Z</time></trkpt><trkpt lat="45.9192367980307" lon="13.600247558327686"><ele>64.0</ele><time>2026-04-05T14:50:38Z</time></trkpt><trkpt lat="45.91913929007251" lon="13.600120756095164"><ele>64.0</ele><time>2026-04-05T14:50:39Z</time></trkpt><trkpt lat="45.919051272232245" lon="13.599982588237793"><ele>64.0</ele><time>2026-04-05T14:50:40Z</time></trkpt><trkpt lat="45.91896898189584" lon="13.59984109444858"><ele>64.0</ele><time>2026-04-05T14:50:41Z</time></trkpt><trkpt lat="45.91889068951418" lon="13.599695248906523"><ele>64.0</ele><time>2026-04-05T14:50:42Z</time></trkpt><trkpt lat="45.91881514445471" lon="13.599523931966969"><ele>64.0</ele><time>2026-04-05T14:50:42.999Z</time></trkpt><trkpt lat="45.91874230726677" lon="13.599332141087531"><ele>62.666666666666664</ele><time>2026-04-05T14:50:43.999Z</time></trkpt><trkpt lat="45.918662723984795" lon="13.59914456111423"><ele>61.33333333333333</ele><time>2026-04-05T14:50:44.999Z</time></trkpt><trkpt lat="45.91858236928502" lon="13.598951525741406"><ele>60.0</ele><time>2026-04-05T14:50:45.999Z</time></trkpt><trkpt lat="45.91850261838926" lon="13.598755485129498"><ele>59.25</ele><time>2026-04-05T14:50:46.999Z</time></trkpt><trkpt lat="45.91842443944789" lon="13.598565866461904"><ele>58.5</ele><time>2026-04-05T14:50:47.999Z</time></trkpt><trkpt lat="45.918348803149286" lon="13.598383727453278"><ele>57.75</ele><time>2026-04-05T14:50:48.999Z</time></trkpt><trkpt lat="45.9182730637298" lon="13.598203867884234"><ele>57.0</ele><time>2026-04-05T14:50:49.999Z</time></trkpt><trkpt lat="45.91819213394444" lon="13.598020220775926"><ele>57.0</ele><time>2026-04-05T14:50:50.999Z</time></trkpt><trkpt lat="45.91810002209665" lon="13.597859649785025"><ele>57.0</ele><time>2026-04-05T14:50:51.999Z</time></trkpt><trkpt lat="45.9179977180199" lon="13.59770983779714"><ele>57.0</ele><time>2026-04-05T14:50:52.999Z</time></trkpt><trkpt lat="45.91789097854253" lon="13.59756553098398"><ele>57.0</ele><time>2026-04-05T14:50:53.999Z</time></trkpt><trkpt lat="45.917775225244256" lon="13.597434541472024"><ele>57.0</ele><time>2026-04-05T14:50:54.999Z</time></trkpt><trkpt lat="45.917652838242105" lon="13.597322177920795"><ele>57.0</ele><time>2026-04-05T14:50:55.999Z</time></trkpt><trkpt lat="45.91752829206169" lon="13.597230910193547"><ele>57.0</ele><time>2026-04-05T14:50:56.999Z</time></trkpt><trkpt lat="45.9174038669919" lon="13.597144233711257"><ele>57.0</ele><time>2026-04-05T14:50:57.999Z</time></trkpt><trkpt lat="45.917279050926226" lon="13.597056443744199"><ele>57.5</ele><time>2026-04-05T14:50:58.999Z</time></trkpt><trkpt lat="45.91716028668768" lon="13.596972159123723"><ele>58.0</ele><time>2026-04-05T14:50:59.999Z</time></trkpt><trkpt lat="45.917043985405556" lon="13.596879910079736"><ele>58.5</ele><time>2026-04-05T14:51:00.999Z</time></trkpt><trkpt lat="45.91692994265091" lon="13.596791828525808"><ele>59.0</ele><time>2026-04-05T14:51:01.999Z</time></trkpt><trkpt lat="45.91681627617434" lon="13.596699236622225"><ele>59.0</ele><time>2026-04-05T14:51:02.999Z</time></trkpt><trkpt lat="45.916699975323006" lon="13.596602407549005"><ele>59.00000000000001</ele><time>2026-04-05T14:51:03.999Z</time></trkpt><trkpt lat="45.91660313841774" lon="13.596511146454281"><ele>59.00000000000001</ele><time>2026-04-05T14:51:04.999Z</time></trkpt><trkpt lat="45.91652456920523" lon="13.596422950588174"><ele>59.0</ele><time>2026-04-05T14:51:05.999Z</time></trkpt><trkpt lat="45.916457254958154" lon="13.596340362897104"><ele>59.0</ele><time>2026-04-05T14:51:06.999Z</time></trkpt><trkpt lat="45.916405971491244" lon="13.596276096905967"><ele>59.0</ele><time>2026-04-05T14:51:07.999Z</time></trkpt><trkpt lat="45.91632929603966" lon="13.596176626041306"><ele>59.00000000000001</ele><time>2026-04-05T14:51:09.999Z</time></trkpt><trkpt lat="45.91628293549374" lon="13.596111745022124"><ele>59.00000000000001</ele><time>2026-04-05T14:51:12.999Z</time></trkpt><trkpt lat="45.916210673437995" lon="13.59604715134161"><ele>59.0</ele><time>2026-04-05T14:52:04.999Z</time></trkpt><trkpt lat="45.91609839352688" lon="13.59612570318523"><ele>59.0</ele><time>2026-04-05T14:52:06.999Z</time></trkpt><trkpt lat="45.916046565202116" lon="13.596261877778248"><ele>59.0</ele><time>2026-04-05T14:52:07.999Z</time></trkpt><trkpt lat="45.9159884121719" lon="13.596451648522054"><ele>59.0</ele><time>2026-04-05T14:52:08.999Z</time></trkpt><trkpt lat="45.91591422621523" lon="13.596670825193662"><ele>59.0</ele><time>2026-04-05T14:52:09.999Z</time></trkpt><trkpt lat="45.91583020181578" lon="13.596896719552348"><ele>60.333333333333336</ele><time>2026-04-05T14:52:10.999Z</time></trkpt><trkpt lat="45.91574269088807" lon="13.59713520308482"><ele>61.66666666666667</ele><time>2026-04-05T14:52:11.999Z</time></trkpt><trkpt lat="45.91564295850501" lon="13.597406078300507"><ele>63.0</ele><time>2026-04-05T14:52:12.999Z</time></trkpt><trkpt lat="45.91552261431695" lon="13.5977379847281"><ele>63.5</ele><time>2026-04-05T14:52:13.999Z</time></trkpt><trkpt lat="45.91537847645466" lon="13.598196121177336"><ele>64.0</ele><time>2026-04-05T14:52:14.999Z</time></trkpt><trkpt lat="45.91523964598103" lon="13.59863137367838"><ele>64.0</ele><time>2026-04-05T14:52:15.999Z</time></trkpt><trkpt lat="45.91511993352836" lon="13.598997000012147"><ele>64.0</ele><time>2026-04-05T14:52:17Z</time></trkpt><trkpt lat="45.915018532973534" lon="13.59933677580176"><ele>64.5</ele><time>2026-04-05T14:52:18Z</time></trkpt><trkpt lat="45.91492765237445" lon="13.599656725041015"><ele>65.0</ele><time>2026-04-05T14:52:19Z</time></trkpt><trkpt lat="45.91484198097102" lon="13.59995137663068"><ele>65.0</ele><time>2026-04-05T14:52:20Z</time></trkpt><trkpt lat="45.91475117341947" lon="13.60025536622084"><ele>65.0</ele><time>2026-04-05T14:52:21Z</time></trkpt><trkpt lat="45.91467175888269" lon="13.600553831028465"><ele>65.0</ele><time>2026-04-05T14:52:22Z</time></trkpt><trkpt lat="45.91459549829541" lon="13.600852377549158"><ele>65.0</ele><time>2026-04-05T14:52:23Z</time></trkpt><trkpt lat="45.914528931478166" lon="13.601128043159582"><ele>65.0</ele><time>2026-04-05T14:52:24Z</time></trkpt><trkpt lat="45.91446914569922" lon="13.601408325501847"><ele>65.0</ele><time>2026-04-05T14:52:25Z</time></trkpt><trkpt lat="45.91439351666079" lon="13.601669760821794"><ele>65.0</ele><time>2026-04-05T14:52:26Z</time></trkpt><trkpt lat="45.91433507972481" lon="13.601937510569188"><ele>65.0</ele><time>2026-04-05T14:52:27Z</time></trkpt><trkpt lat="45.91428147135398" lon="13.602198286802016"><ele>64.0</ele><time>2026-04-05T14:52:28Z</time></trkpt><trkpt lat="45.91422394598456" lon="13.602442201274071"><ele>63.0</ele><time>2026-04-05T14:52:29Z</time></trkpt><trkpt lat="45.91417008300538" lon="13.602689239617192"><ele>62.0</ele><time>2026-04-05T14:52:30Z</time></trkpt><trkpt lat="45.914116360877074" lon="13.602942681991795"><ele>62.0</ele><time>2026-04-05T14:52:31Z</time></trkpt><trkpt lat="45.91406577966799" lon="13.603204405282854"><ele>62.0</ele><time>2026-04-05T14:52:32Z</time></trkpt><trkpt lat="45.91401259740165" lon="13.60346831757543"><ele>62.0</ele><time>2026-04-05T14:52:33Z</time></trkpt><trkpt lat="45.913960711570006" lon="13.60372990604015"><ele>62.333333333333336</ele><time>2026-04-05T14:52:34Z</time></trkpt><trkpt lat="45.91391399051834" lon="13.60399444748032"><ele>62.66666666666667</ele><time>2026-04-05T14:52:35Z</time></trkpt><trkpt lat="45.913868607918474" lon="13.604261159615339"><ele>63.0</ele><time>2026-04-05T14:52:36Z</time></trkpt><trkpt lat="45.91382301248256" lon="13.604526525236475"><ele>63.66666666666667</ele><time>2026-04-05T14:52:37Z</time></trkpt><trkpt lat="45.913776066668724" lon="13.60479325764016"><ele>64.33333333333334</ele><time>2026-04-05T14:52:38Z</time></trkpt><trkpt lat="45.91373503270456" lon="13.60505925608668"><ele>65.0</ele><time>2026-04-05T14:52:39Z</time></trkpt><trkpt lat="45.913696702438784" lon="13.605322548557659"><ele>64.33333333333334</ele><time>2026-04-05T14:52:40Z</time></trkpt><trkpt lat="45.91366156558007" lon="13.605585312573238"><ele>63.66666666666667</ele><time>2026-04-05T14:52:41Z</time></trkpt><trkpt lat="45.913626914637035" lon="13.605847991114228"><ele>63.0</ele><time>2026-04-05T14:52:42Z</time></trkpt><trkpt lat="45.91359258768915" lon="13.606113140622627"><ele>63.0</ele><time>2026-04-05T14:52:43Z</time></trkpt><trkpt lat="45.91355865160305" lon="13.606380993267825"><ele>63.0</ele><time>2026-04-05T14:52:43.999Z</time></trkpt><trkpt lat="45.91352314069111" lon="13.606648727624545"><ele>63.0</ele><time>2026-04-05T14:52:44.999Z</time></trkpt><trkpt lat="45.91348862815463" lon="13.606918358286599"><ele>63.33333333333333</ele><time>2026-04-05T14:52:45.999Z</time></trkpt><trkpt lat="45.91345536557762" lon="13.607190180675374"><ele>63.666666666666664</ele><time>2026-04-05T14:52:46.999Z</time></trkpt><trkpt lat="45.91342036610524" lon="13.607459390800859"><ele>64.0</ele><time>2026-04-05T14:52:47.999Z</time></trkpt><trkpt lat="45.91338585636931" lon="13.607726933483617"><ele>64.0</ele><time>2026-04-05T14:52:48.999Z</time></trkpt><trkpt lat="45.91335201867462" lon="13.607992223452435"><ele>64.0</ele><time>2026-04-05T14:52:49.999Z</time></trkpt><trkpt lat="45.91331902013586" lon="13.60825394176594"><ele>64.0</ele><time>2026-04-05T14:52:50.999Z</time></trkpt><trkpt lat="45.91328556872137" lon="13.608513969436741"><ele>63.666666666666664</ele><time>2026-04-05T14:52:51.999Z</time></trkpt><trkpt lat="45.91325308461716" lon="13.608775238692568"><ele>63.33333333333333</ele><time>2026-04-05T14:52:52.999Z</time></trkpt><trkpt lat="45.913219978874935" lon="13.609035725859597"><ele>63.0</ele><time>2026-04-05T14:52:53.999Z</time></trkpt><trkpt lat="45.913188168502835" lon="13.609293534509568"><ele>63.0</ele><time>2026-04-05T14:52:54.999Z</time></trkpt><trkpt lat="45.913156324453205" lon="13.609549451261312"><ele>63.0</ele><time>2026-04-05T14:52:55.999Z</time></trkpt><trkpt lat="45.9131239586684" lon="13.609803585521163"><ele>63.0</ele><time>2026-04-05T14:52:56.999Z</time></trkpt><trkpt lat="45.913089666366965" lon="13.610058757787215"><ele>63.0</ele><time>2026-04-05T14:52:57.999Z</time></trkpt><trkpt lat="45.91305600443575" lon="13.61031154835736"><ele>63.0</ele><time>2026-04-05T14:52:58.999Z</time></trkpt><trkpt lat="45.91302946697777" lon="13.61054795485881"><ele>63.0</ele><time>2026-04-05T14:52:59.999Z</time></trkpt><trkpt lat="45.91300100816272" lon="13.610770590558058"><ele>63.25</ele><time>2026-04-05T14:53:00.999Z</time></trkpt><trkpt lat="45.91297135063111" lon="13.61098238888701"><ele>63.5</ele><time>2026-04-05T14:53:01.999Z</time></trkpt><trkpt lat="45.91294066501673" lon="13.611187986770245"><ele>63.75</ele><time>2026-04-05T14:53:02.999Z</time></trkpt><trkpt lat="45.91290579722529" lon="13.611376876276461"><ele>64.0</ele><time>2026-04-05T14:53:03.999Z</time></trkpt><trkpt lat="45.91285648147727" lon="13.611556977822982"><ele>64.25</ele><time>2026-04-05T14:53:04.999Z</time></trkpt><trkpt lat="45.912792009580905" lon="13.6117201815633"><ele>64.5</ele><time>2026-04-05T14:53:05.999Z</time></trkpt><trkpt lat="45.9127107842086" lon="13.611854414857428"><ele>64.75</ele><time>2026-04-05T14:53:06.999Z</time></trkpt><trkpt lat="45.91261550908549" lon="13.611965885076733"><ele>65.0</ele><time>2026-04-05T14:53:07.999Z</time></trkpt><trkpt lat="45.912509445563664" lon="13.612048657187314"><ele>65.25</ele><time>2026-04-05T14:53:08.999Z</time></trkpt><trkpt lat="45.91238723815564" lon="13.61209759025867"><ele>65.5</ele><time>2026-04-05T14:53:09.999Z</time></trkpt><trkpt lat="45.91224694648174" lon="13.612119165826721"><ele>65.75</ele><time>2026-04-05T14:53:10.999Z</time></trkpt><trkpt lat="45.912090197517145" lon="13.612087972789308"><ele>66.0</ele><time>2026-04-05T14:53:11.999Z</time></trkpt><trkpt lat="45.911925913626185" lon="13.612032151498637"><ele>65.66666666666667</ele><time>2026-04-05T14:53:12.999Z</time></trkpt><trkpt lat="45.9117588369343" lon="13.611969026498421"><ele>65.33333333333334</ele><time>2026-04-05T14:53:13.999Z</time></trkpt><trkpt lat="45.911589259975976" lon="13.611930995543831"><ele>65.0</ele><time>2026-04-05T14:53:14.999Z</time></trkpt><trkpt lat="45.911427413882286" lon="13.611891225844577"><ele>64.66666666666667</ele><time>2026-04-05T14:53:15.999Z</time></trkpt><trkpt lat="45.9112680393729" lon="13.611847167427708"><ele>64.33333333333333</ele><time>2026-04-05T14:53:16.999Z</time></trkpt><trkpt lat="45.91111429881321" lon="13.611803050497956"><ele>64.0</ele><time>2026-04-05T14:53:17.999Z</time></trkpt><trkpt lat="45.9109629863619" lon="13.61176193531778"><ele>63.25</ele><time>2026-04-05T14:53:18.999Z</time></trkpt><trkpt lat="45.91081098639212" lon="13.611722712749174"><ele>62.5</ele><time>2026-04-05T14:53:19.999Z</time></trkpt><trkpt lat="45.91066016717438" lon="13.611691386215222"><ele>61.75</ele><time>2026-04-05T14:53:20.999Z</time></trkpt><trkpt lat="45.910521016159386" lon="13.611668514649686"><ele>61.0</ele><time>2026-04-05T14:53:21.999Z</time></trkpt><trkpt lat="45.91040412232197" lon="13.611654299577339"><ele>61.0</ele><time>2026-04-05T14:53:22.999Z</time></trkpt><trkpt lat="45.91031558538929" lon="13.611642393390339"><ele>60.99999999999999</ele><time>2026-04-05T14:53:23.999Z</time></trkpt><trkpt lat="45.91023551425484" lon="13.611633318337784"><ele>60.99999999999999</ele><time>2026-04-05T14:53:24.999Z</time></trkpt><trkpt lat="45.91015837268169" lon="13.611629168050559"><ele>61.0</ele><time>2026-04-05T14:53:25.999Z</time></trkpt><trkpt lat="45.91009075375106" lon="13.611667142928567"><ele>61.0</ele><time>2026-04-05T14:53:26.999Z</time></trkpt><trkpt lat="45.90996242541682" lon="13.611600531047621"><ele>61.666666666666664</ele><time>2026-04-05T14:53:27.999Z</time></trkpt><trkpt lat="45.909799482769714" lon="13.61157053308817"><ele>62.33333333333333</ele><time>2026-04-05T14:53:28.999Z</time></trkpt><trkpt lat="45.9096264702136" lon="13.611519168539365"><ele>63.0</ele><time>2026-04-05T14:53:29.999Z</time></trkpt><trkpt lat="45.909452386034665" lon="13.611472583408894"><ele>63.0</ele><time>2026-04-05T14:53:30.999Z</time></trkpt><trkpt lat="45.90929333951047" lon="13.611431039764824"><ele>63.0</ele><time>2026-04-05T14:53:31.999Z</time></trkpt><trkpt lat="45.90914212347542" lon="13.611388591089769"><ele>63.0</ele><time>2026-04-05T14:53:32.999Z</time></trkpt><trkpt lat="45.90899467892983" lon="13.611347449714378"><ele>62.25</ele><time>2026-04-05T14:53:33.999Z</time></trkpt><trkpt lat="45.90885202332259" lon="13.61130768291302"><ele>61.5</ele><time>2026-04-05T14:53:34.999Z</time></trkpt><trkpt lat="45.90871296661178" lon="13.611268726079103"><ele>60.75</ele><time>2026-04-05T14:53:35.999Z</time></trkpt><trkpt lat="45.908571080358186" lon="13.61123207207235"><ele>60.0</ele><time>2026-04-05T14:53:36.999Z</time></trkpt><trkpt lat="45.908427722325094" lon="13.611195088779"><ele>60.75</ele><time>2026-04-05T14:53:37.999Z</time></trkpt><trkpt lat="45.90828412228522" lon="13.611153840653836"><ele>61.5</ele><time>2026-04-05T14:53:38.999Z</time></trkpt><trkpt lat="45.9081392772622" lon="13.611112946578926"><ele>62.25</ele><time>2026-04-05T14:53:39.999Z</time></trkpt><trkpt lat="45.907994135495755" lon="13.61107171838835"><ele>63.0</ele><time>2026-04-05T14:53:40.999Z</time></trkpt><trkpt lat="45.907851478426274" lon="13.61102785013425"><ele>63.0</ele><time>2026-04-05T14:53:41.999Z</time></trkpt><trkpt lat="45.90770595930269" lon="13.610984300909374"><ele>63.0</ele><time>2026-04-05T14:53:42.999Z</time></trkpt><trkpt lat="45.90755891120672" lon="13.610938750125971"><ele>63.0</ele><time>2026-04-05T14:53:43.999Z</time></trkpt><trkpt lat="45.90741040229577" lon="13.61088992059955"><ele>62.0</ele><time>2026-04-05T14:53:44.999Z</time></trkpt><trkpt lat="45.90725830515771" lon="13.610837868999237"><ele>61.0</ele><time>2026-04-05T14:53:45.999Z</time></trkpt><trkpt lat="45.907105778915344" lon="13.610788382375247"><ele>60.0</ele><time>2026-04-05T14:53:46.999Z</time></trkpt><trkpt lat="45.906952863066266" lon="13.610738108834525"><ele>60.0</ele><time>2026-04-05T14:53:47.999Z</time></trkpt><trkpt lat="45.906799950766356" lon="13.610687714424603"><ele>60.0</ele><time>2026-04-05T14:53:48.999Z</time></trkpt><trkpt lat="45.906648342672106" lon="13.61063873133089"><ele>60.0</ele><time>2026-04-05T14:53:49.999Z</time></trkpt><trkpt lat="45.90649682628485" lon="13.610589952134506"><ele>60.0</ele><time>2026-04-05T14:53:50.999Z</time></trkpt><trkpt lat="45.906343770093024" lon="13.610540620789731"><ele>60.0</ele><time>2026-04-05T14:53:51.999Z</time></trkpt><trkpt lat="45.906191046038124" lon="13.610488621765974"><ele>60.0</ele><time>2026-04-05T14:53:52.999Z</time></trkpt><trkpt lat="45.906037047448734" lon="13.610433741279863"><ele>59.33333333333333</ele><time>2026-04-05T14:53:53.999Z</time></trkpt><trkpt lat="45.905878996817044" lon="13.610382441111888"><ele>58.666666666666664</ele><time>2026-04-05T14:53:54.999Z</time></trkpt><trkpt lat="45.90572028902451" lon="13.610330002767425"><ele>58.0</ele><time>2026-04-05T14:53:55.999Z</time></trkpt><trkpt lat="45.905561051438056" lon="13.610278045956523"><ele>57.0</ele><time>2026-04-05T14:53:56.999Z</time></trkpt><trkpt lat="45.90540188357453" lon="13.610225003508788"><ele>56.0</ele><time>2026-04-05T14:53:57.999Z</time></trkpt><trkpt lat="45.905245091618504" lon="13.610174057882347"><ele>55.0</ele><time>2026-04-05T14:53:58.999Z</time></trkpt><trkpt lat="45.905088751553" lon="13.610122837957075"><ele>54.666666666666664</ele><time>2026-04-05T14:53:59.999Z</time></trkpt><trkpt lat="45.90493295465852" lon="13.610070757662271"><ele>54.33333333333333</ele><time>2026-04-05T14:54:00.999Z</time></trkpt><trkpt lat="45.90477892694481" lon="13.610019209105754"><ele>54.0</ele><time>2026-04-05T14:54:01.999Z</time></trkpt><trkpt lat="45.904626727014644" lon="13.609969595562609"><ele>54.0</ele><time>2026-04-05T14:54:02.999Z</time></trkpt><trkpt lat="45.9044754759643" lon="13.609920481433004"><ele>54.0</ele><time>2026-04-05T14:54:03.999Z</time></trkpt><trkpt lat="45.90432408536676" lon="13.609871594532075"><ele>54.0</ele><time>2026-04-05T14:54:04.999Z</time></trkpt><trkpt lat="45.904169469686934" lon="13.609819222585303"><ele>55.0</ele><time>2026-04-05T14:54:05.999Z</time></trkpt><trkpt lat="45.90401326303151" lon="13.609766263160934"><ele>56.0</ele><time>2026-04-05T14:54:06.999Z</time></trkpt><trkpt lat="45.90385719005711" lon="13.609720090255967"><ele>57.0</ele><time>2026-04-05T14:54:07.999Z</time></trkpt><trkpt lat="45.903701770563025" lon="13.609678210861166"><ele>57.0</ele><time>2026-04-05T14:54:08.999Z</time></trkpt><trkpt lat="45.9035455848445" lon="13.609644937824982"><ele>57.0</ele><time>2026-04-05T14:54:09.999Z</time></trkpt><trkpt lat="45.903388657736315" lon="13.609616969434395"><ele>57.0</ele><time>2026-04-05T14:54:10.999Z</time></trkpt><trkpt lat="45.90323274044482" lon="13.60958587220077"><ele>56.33333333333333</ele><time>2026-04-05T14:54:11.999Z</time></trkpt><trkpt lat="45.90307692189401" lon="13.609556466608439"><ele>55.666666666666664</ele><time>2026-04-05T14:54:12.999Z</time></trkpt><trkpt lat="45.90292241607725" lon="13.609528009845086"><ele>55.0</ele><time>2026-04-05T14:54:13.999Z</time></trkpt><trkpt lat="45.90276812717312" lon="13.609495804867514"><ele>55.33333333333333</ele><time>2026-04-05T14:54:14.999Z</time></trkpt><trkpt lat="45.902613674608794" lon="13.6094669987006"><ele>55.66666666666667</ele><time>2026-04-05T14:54:15.999Z</time></trkpt><trkpt lat="45.902460574890455" lon="13.60943702105919"><ele>56.0</ele><time>2026-04-05T14:54:16.999Z</time></trkpt><trkpt lat="45.90230721437002" lon="13.609406302605764"><ele>56.333333333333336</ele><time>2026-04-05T14:54:17.999Z</time></trkpt><trkpt lat="45.902152485904594" lon="13.609379204058333"><ele>56.66666666666667</ele><time>2026-04-05T14:54:18.999Z</time></trkpt><trkpt lat="45.90199546492345" lon="13.609343798042898"><ele>57.0</ele><time>2026-04-05T14:54:19.999Z</time></trkpt><trkpt lat="45.9018420171591" lon="13.609313637356241"><ele>56.33333333333333</ele><time>2026-04-05T14:54:20.999Z</time></trkpt><trkpt lat="45.90168935824585" lon="13.609281553634752"><ele>55.666666666666664</ele><time>2026-04-05T14:54:21.999Z</time></trkpt><trkpt lat="45.9015372982533" lon="13.60925395093436"><ele>55.0</ele><time>2026-04-05T14:54:23Z</time></trkpt><trkpt lat="45.901384491441554" lon="13.609226347479716"><ele>55.0</ele><time>2026-04-05T14:54:24Z</time></trkpt><trkpt lat="45.90123547697865" lon="13.609195861365246"><ele>55.0</ele><time>2026-04-05T14:54:25Z</time></trkpt><trkpt lat="45.901087974294114" lon="13.609166087639867"><ele>55.0</ele><time>2026-04-05T14:54:26Z</time></trkpt><trkpt lat="45.900945693565276" lon="13.609137282418345"><ele>55.0</ele><time>2026-04-05T14:54:27Z</time></trkpt><trkpt lat="45.90080611465629" lon="13.609110630507457"><ele>55.0</ele><time>2026-04-05T14:54:28Z</time></trkpt><trkpt lat="45.90067177315436" lon="13.609078894883908"><ele>55.0</ele><time>2026-04-05T14:54:29Z</time></trkpt><trkpt lat="45.90054315019158" lon="13.609042189440862"><ele>55.0</ele><time>2026-04-05T14:54:30Z</time></trkpt><trkpt lat="45.90041411578074" lon="13.608998334450497"><ele>55.0</ele><time>2026-04-05T14:54:31Z</time></trkpt><trkpt lat="45.900283821905276" lon="13.608934952398805"><ele>55.0</ele><time>2026-04-05T14:54:32Z</time></trkpt><trkpt lat="45.90014899687877" lon="13.608855287210732"><ele>55.0</ele><time>2026-04-05T14:54:33Z</time></trkpt><trkpt lat="45.90001921098418" lon="13.60875298474106"><ele>55.0</ele><time>2026-04-05T14:54:34Z</time></trkpt><trkpt lat="45.89989039666139" lon="13.608637779544619"><ele>55.0</ele><time>2026-04-05T14:54:35Z</time></trkpt><trkpt lat="45.89976841301356" lon="13.60850931473989"><ele>54.33333333333333</ele><time>2026-04-05T14:54:36Z</time></trkpt><trkpt lat="45.89965236600337" lon="13.608358946060912"><ele>53.66666666666667</ele><time>2026-04-05T14:54:37Z</time></trkpt><trkpt lat="45.899546391878786" lon="13.608191983032242"><ele>53.0</ele><time>2026-04-05T14:54:38Z</time></trkpt><trkpt lat="45.899448793009185" lon="13.608014323936661"><ele>53.333333333333336</ele><time>2026-04-05T14:54:39Z</time></trkpt><trkpt lat="45.89936087524358" lon="13.607820788070628"><ele>53.66666666666667</ele><time>2026-04-05T14:54:40Z</time></trkpt><trkpt lat="45.899280399569875" lon="13.607616559533602"><ele>54.0</ele><time>2026-04-05T14:54:41Z</time></trkpt><trkpt lat="45.89920697353545" lon="13.607401101524822"><ele>54.0</ele><time>2026-04-05T14:54:42Z</time></trkpt><trkpt lat="45.89914271087347" lon="13.607176332997547"><ele>54.0</ele><time>2026-04-05T14:54:43Z</time></trkpt><trkpt lat="45.89907869241477" lon="13.606948421097316"><ele>54.0</ele><time>2026-04-05T14:54:44Z</time></trkpt><trkpt lat="45.89901469493076" lon="13.606721890111983"><ele>53.66666666666667</ele><time>2026-04-05T14:54:45Z</time></trkpt><trkpt lat="45.898951255053355" lon="13.606493094719877"><ele>53.333333333333336</ele><time>2026-04-05T14:54:45.999Z</time></trkpt><trkpt lat="45.89888680950664" lon="13.606266219436455"><ele>53.0</ele><time>2026-04-05T14:54:46.999Z</time></trkpt><trkpt lat="45.89882150958342" lon="13.606040980859193"><ele>52.66666666666667</ele><time>2026-04-05T14:54:47.999Z</time></trkpt><trkpt lat="45.898756920691994" lon="13.605820165509314"><ele>52.33333333333333</ele><time>2026-04-05T14:54:48.999Z</time></trkpt><trkpt lat="45.898693358960784" lon="13.605599409506137"><ele>52.0</ele><time>2026-04-05T14:54:49.999Z</time></trkpt><trkpt lat="45.89863016742656" lon="13.605379512064303"><ele>51.33333333333333</ele><time>2026-04-05T14:54:50.999Z</time></trkpt><trkpt lat="45.89856622978402" lon="13.605155742088257"><ele>50.66666666666667</ele><time>2026-04-05T14:54:51.999Z</time></trkpt><trkpt lat="45.898501030198766" lon="13.604929363487669"><ele>50.0</ele><time>2026-04-05T14:54:52.999Z</time></trkpt><trkpt lat="45.89843257954492" lon="13.604698988265854"><ele>50.66666666666667</ele><time>2026-04-05T14:54:53.999Z</time></trkpt><trkpt lat="45.898365018154564" lon="13.604468691307451"><ele>51.33333333333333</ele><time>2026-04-05T14:54:54.999Z</time></trkpt><trkpt lat="45.89829806359838" lon="13.60423738637735"><ele>52.0</ele><time>2026-04-05T14:54:55.999Z</time></trkpt><trkpt lat="45.898231299183585" lon="13.604001722896369"><ele>52.0</ele><time>2026-04-05T14:54:56.999Z</time></trkpt><trkpt lat="45.89816288815116" lon="13.603758967344683"><ele>52.0</ele><time>2026-04-05T14:54:57.999Z</time></trkpt><trkpt lat="45.89809129436804" lon="13.603506934528514"><ele>52.0</ele><time>2026-04-05T14:54:58.999Z</time></trkpt><trkpt lat="45.8980150056256" lon="13.603252429298534"><ele>52.0</ele><time>2026-04-05T14:54:59.999Z</time></trkpt><trkpt lat="45.89793941139929" lon="13.6029888732078"><ele>52.0</ele><time>2026-04-05T14:55:00.999Z</time></trkpt><trkpt lat="45.89786421985871" lon="13.602722985462457"><ele>52.0</ele><time>2026-04-05T14:55:01.999Z</time></trkpt><trkpt lat="45.89778638548135" lon="13.602458240971547"><ele>52.0</ele><time>2026-04-05T14:55:02.999Z</time></trkpt><trkpt lat="45.89770883153056" lon="13.602192242147462"><ele>52.0</ele><time>2026-04-05T14:55:03.999Z</time></trkpt><trkpt lat="45.8976324525836" lon="13.601924366555714"><ele>52.0</ele><time>2026-04-05T14:55:04.999Z</time></trkpt><trkpt lat="45.8975569867676" lon="13.60165389431524"><ele>51.666666666666664</ele><time>2026-04-05T14:55:05.999Z</time></trkpt><trkpt lat="45.89747863898311" lon="13.601383707294612"><ele>51.33333333333333</ele><time>2026-04-05T14:55:06.999Z</time></trkpt><trkpt lat="45.89740027897552" lon="13.601111633944223"><ele>51.0</ele><time>2026-04-05T14:55:07.999Z</time></trkpt><trkpt lat="45.89732182436519" lon="13.600837230478867"><ele>50.66666666666667</ele><time>2026-04-05T14:55:08.999Z</time></trkpt><trkpt lat="45.89724167654191" lon="13.600563600438651"><ele>50.333333333333336</ele><time>2026-04-05T14:55:09.999Z</time></trkpt><trkpt lat="45.897161631178456" lon="13.600287100062259"><ele>50.0</ele><time>2026-04-05T14:55:10.999Z</time></trkpt><trkpt lat="45.89708371979873" lon="13.600009541970833"><ele>50.0</ele><time>2026-04-05T14:55:11.999Z</time></trkpt><trkpt lat="45.897001685156944" lon="13.599728258012563"><ele>50.0</ele><time>2026-04-05T14:55:12.999Z</time></trkpt><trkpt lat="45.89692006604439" lon="13.59944373284108"><ele>50.0</ele><time>2026-04-05T14:55:13.999Z</time></trkpt><trkpt lat="45.896838382844564" lon="13.599157196117686"><ele>50.0</ele><time>2026-04-05T14:55:14.999Z</time></trkpt><trkpt lat="45.896757238598106" lon="13.598874512974207"><ele>50.0</ele><time>2026-04-05T14:55:15.999Z</time></trkpt><trkpt lat="45.896675837031594" lon="13.598591764402345"><ele>50.0</ele><time>2026-04-05T14:55:16.999Z</time></trkpt><trkpt lat="45.896594328830666" lon="13.598315849034101"><ele>50.333333333333336</ele><time>2026-04-05T14:55:17.999Z</time></trkpt><trkpt lat="45.89651371824678" lon="13.598037374926923"><ele>50.66666666666667</ele><time>2026-04-05T14:55:18.999Z</time></trkpt><trkpt lat="45.89643571317149" lon="13.597758336674284"><ele>51.0</ele><time>2026-04-05T14:55:19.999Z</time></trkpt><trkpt lat="45.89635591119594" lon="13.597479660189057"><ele>51.33333333333333</ele><time>2026-04-05T14:55:20.999Z</time></trkpt><trkpt lat="45.89627366738239" lon="13.597202534723355"><ele>51.666666666666664</ele><time>2026-04-05T14:55:21.999Z</time></trkpt><trkpt lat="45.896193169748436" lon="13.596923730353335"><ele>52.0</ele><time>2026-04-05T14:55:22.999Z</time></trkpt><trkpt lat="45.896113556300136" lon="13.596640110499102"><ele>52.0</ele><time>2026-04-05T14:55:23.999Z</time></trkpt><trkpt lat="45.89603286549031" lon="13.596357325117303"><ele>52.0</ele><time>2026-04-05T14:55:24.999Z</time></trkpt><trkpt lat="45.89594978923858" lon="13.59607193387724"><ele>52.0</ele><time>2026-04-05T14:55:25.999Z</time></trkpt><trkpt lat="45.89586819413317" lon="13.595786335584576"><ele>51.666666666666664</ele><time>2026-04-05T14:55:26.999Z</time></trkpt><trkpt lat="45.89578717732079" lon="13.595501163355978"><ele>51.33333333333333</ele><time>2026-04-05T14:55:27.999Z</time></trkpt><trkpt lat="45.89570500967121" lon="13.595216268827917"><ele>51.0</ele><time>2026-04-05T14:55:28.999Z</time></trkpt><trkpt lat="45.8956204272892" lon="13.594934742626995"><ele>50.66666666666667</ele><time>2026-04-05T14:55:29.999Z</time></trkpt><trkpt lat="45.89553827836337" lon="13.594661376915022"><ele>50.333333333333336</ele><time>2026-04-05T14:55:30.999Z</time></trkpt><trkpt lat="45.895451781990786" lon="13.59439476792182"><ele>50.0</ele><time>2026-04-05T14:55:31.999Z</time></trkpt><trkpt lat="45.895351107566476" lon="13.594140040855105"><ele>50.0</ele><time>2026-04-05T14:55:32.999Z</time></trkpt><trkpt lat="45.89523497779145" lon="13.593896925824454"><ele>50.0</ele><time>2026-04-05T14:55:33.999Z</time></trkpt><trkpt lat="45.89510633800059" lon="13.593661184232962"><ele>50.0</ele><time>2026-04-05T14:55:34.999Z</time></trkpt><trkpt lat="45.89497032203479" lon="13.593431655888034"><ele>50.0</ele><time>2026-04-05T14:55:35.999Z</time></trkpt><trkpt lat="45.89483396713636" lon="13.59320187847542"><ele>50.0</ele><time>2026-04-05T14:55:36.999Z</time></trkpt><trkpt lat="45.8946964093238" lon="13.592969575410436"><ele>50.0</ele><time>2026-04-05T14:55:37.999Z</time></trkpt><trkpt lat="45.89455616833936" lon="13.592734767294782"><ele>50.0</ele><time>2026-04-05T14:55:38.999Z</time></trkpt><trkpt lat="45.89441396012121" lon="13.59249845064569"><ele>50.0</ele><time>2026-04-05T14:55:39.999Z</time></trkpt><trkpt lat="45.89427181813168" lon="13.592259903415375"><ele>50.0</ele><time>2026-04-05T14:55:40.999Z</time></trkpt><trkpt lat="45.894129202455154" lon="13.592026079192598"><ele>50.333333333333336</ele><time>2026-04-05T14:55:41.999Z</time></trkpt><trkpt lat="45.89398610315261" lon="13.591793826856112"><ele>50.66666666666667</ele><time>2026-04-05T14:55:42.999Z</time></trkpt><trkpt lat="45.89384506966715" lon="13.5915612620756"><ele>51.0</ele><time>2026-04-05T14:55:43.999Z</time></trkpt><trkpt lat="45.8937053882362" lon="13.591327943767746"><ele>50.33333333333333</ele><time>2026-04-05T14:55:44.999Z</time></trkpt><trkpt lat="45.89356847113464" lon="13.59109799065559"><ele>49.666666666666664</ele><time>2026-04-05T14:55:45.999Z</time></trkpt><trkpt lat="45.89343033652567" lon="13.590870264715598"><ele>49.0</ele><time>2026-04-05T14:55:46.999Z</time></trkpt><trkpt lat="45.89329085082829" lon="13.590643852204291"><ele>49.0</ele><time>2026-04-05T14:55:47.999Z</time></trkpt><trkpt lat="45.89315359468788" lon="13.590417644374588"><ele>49.0</ele><time>2026-04-05T14:55:48.999Z</time></trkpt><trkpt lat="45.893014651981716" lon="13.590191127984319"><ele>49.0</ele><time>2026-04-05T14:55:49.999Z</time></trkpt><trkpt lat="45.892880618614036" lon="13.589962831632032"><ele>47.666666666666664</ele><time>2026-04-05T14:55:50.999Z</time></trkpt><trkpt lat="45.892745478947894" lon="13.589735103098619"><ele>46.33333333333333</ele><time>2026-04-05T14:55:51.999Z</time></trkpt><trkpt lat="45.89260636008866" lon="13.58951195594518"><ele>45.0</ele><time>2026-04-05T14:55:52.999Z</time></trkpt><trkpt lat="45.892460361559884" lon="13.589299202732237"><ele>44.0</ele><time>2026-04-05T14:55:53.999Z</time></trkpt><trkpt lat="45.89230286968413" lon="13.589107294135735"><ele>43.0</ele><time>2026-04-05T14:55:54.999Z</time></trkpt><trkpt lat="45.892140881606146" lon="13.58892715013472"><ele>42.0</ele><time>2026-04-05T14:55:55.999Z</time></trkpt><trkpt lat="45.89197273695069" lon="13.588765350735038"><ele>41.333333333333336</ele><time>2026-04-05T14:55:56.999Z</time></trkpt><trkpt lat="45.89180001808574" lon="13.588619847228856"><ele>40.66666666666667</ele><time>2026-04-05T14:55:57.999Z</time></trkpt><trkpt lat="45.891626639010354" lon="13.588488528670078"><ele>40.0</ele><time>2026-04-05T14:55:58.999Z</time></trkpt><trkpt lat="45.891448166011536" lon="13.588376740535475"><ele>40.0</ele><time>2026-04-05T14:55:59.999Z</time></trkpt><trkpt lat="45.89126706319082" lon="13.588277921995878"><ele>40.0</ele><time>2026-04-05T14:56:00.999Z</time></trkpt><trkpt lat="45.89108456154494" lon="13.588188009094589"><ele>40.0</ele><time>2026-04-05T14:56:01.999Z</time></trkpt><trkpt lat="45.890903018748496" lon="13.588107721436517"><ele>40.0</ele><time>2026-04-05T14:56:02.999Z</time></trkpt><trkpt lat="45.89072125127077" lon="13.588037025737675"><ele>40.0</ele><time>2026-04-05T14:56:03.999Z</time></trkpt><trkpt lat="45.89053893600845" lon="13.587970956317752"><ele>40.0</ele><time>2026-04-05T14:56:04.999Z</time></trkpt><trkpt lat="45.89036008133796" lon="13.587905067587839"><ele>39.333333333333336</ele><time>2026-04-05T14:56:05.999Z</time></trkpt><trkpt lat="45.89018116232037" lon="13.587840097138091"><ele>38.666666666666664</ele><time>2026-04-05T14:56:06.999Z</time></trkpt><trkpt lat="45.890006095366616" lon="13.587776056487495"><ele>38.0</ele><time>2026-04-05T14:56:07.999Z</time></trkpt><trkpt lat="45.88983469808163" lon="13.587713967381095"><ele>37.0</ele><time>2026-04-05T14:56:08.999Z</time></trkpt><trkpt lat="45.88966353207942" lon="13.587651016557777"><ele>36.0</ele><time>2026-04-05T14:56:09.999Z</time></trkpt><trkpt lat="45.88949428650341" lon="13.587589305860337"><ele>35.0</ele><time>2026-04-05T14:56:10.999Z</time></trkpt><trkpt lat="45.889326849940645" lon="13.587528803570503"><ele>36.666666666666664</ele><time>2026-04-05T14:56:11.999Z</time></trkpt><trkpt lat="45.88916147631543" lon="13.587468808328147"><ele>38.333333333333336</ele><time>2026-04-05T14:56:12.999Z</time></trkpt><trkpt lat="45.888998712694416" lon="13.58740764440852"><ele>40.0</ele><time>2026-04-05T14:56:13.999Z</time></trkpt><trkpt lat="45.88883587579638" lon="13.5873383702153"><ele>40.0</ele><time>2026-04-05T14:56:14.999Z</time></trkpt><trkpt lat="45.88867598805367" lon="13.58725274532269"><ele>40.0</ele><time>2026-04-05T14:56:15.999Z</time></trkpt><trkpt lat="45.888521062680496" lon="13.58715271398412"><ele>40.0</ele><time>2026-04-05T14:56:16.999Z</time></trkpt><trkpt lat="45.888369650216745" lon="13.587044319162217"><ele>38.66666666666667</ele><time>2026-04-05T14:56:17.999Z</time></trkpt><trkpt lat="45.88822274378758" lon="13.586925935244816"><ele>37.333333333333336</ele><time>2026-04-05T14:56:18.999Z</time></trkpt><trkpt lat="45.88807962700477" lon="13.586794174808558"><ele>36.0</ele><time>2026-04-05T14:56:19.999Z</time></trkpt><trkpt lat="45.88794206050696" lon="13.58665278328017"><ele>36.0</ele><time>2026-04-05T14:56:20.999Z</time></trkpt><trkpt lat="45.88780838185644" lon="13.586501015783536"><ele>36.0</ele><time>2026-04-05T14:56:21.999Z</time></trkpt><trkpt lat="45.88768011697604" lon="13.586339401787278"><ele>36.0</ele><time>2026-04-05T14:56:22.999Z</time></trkpt><trkpt lat="45.88755656504018" lon="13.58617189320963"><ele>38.0</ele><time>2026-04-05T14:56:23.999Z</time></trkpt><trkpt lat="45.887439759765755" lon="13.585998370776611"><ele>40.0</ele><time>2026-04-05T14:56:24.999Z</time></trkpt><trkpt lat="45.887335423551384" lon="13.585833836748504"><ele>42.0</ele><time>2026-04-05T14:56:25.999Z</time></trkpt><trkpt lat="45.8872371994229" lon="13.585677377055699"><ele>42.0</ele><time>2026-04-05T14:56:26.999Z</time></trkpt><trkpt lat="45.887139500109654" lon="13.585529102948138"><ele>42.0</ele><time>2026-04-05T14:56:27.999Z</time></trkpt><trkpt lat="45.88704128467505" lon="13.585380812382615"><ele>42.0</ele><time>2026-04-05T14:56:29Z</time></trkpt><trkpt lat="45.886944074634826" lon="13.585231182425293"><ele>42.0</ele><time>2026-04-05T14:56:30Z</time></trkpt><trkpt lat="45.886848056508214" lon="13.58508328928419"><ele>42.25</ele><time>2026-04-05T14:56:31Z</time></trkpt><trkpt lat="45.88675360882508" lon="13.584936961941441"><ele>42.5</ele><time>2026-04-05T14:56:32Z</time></trkpt><trkpt lat="45.88665894149188" lon="13.584791015350666"><ele>42.75</ele><time>2026-04-05T14:56:33Z</time></trkpt><trkpt lat="45.886563329354374" lon="13.584641266626027"><ele>43.0</ele><time>2026-04-05T14:56:34Z</time></trkpt><trkpt lat="45.8864665853406" lon="13.58448851112395"><ele>43.0</ele><time>2026-04-05T14:56:35Z</time></trkpt><trkpt lat="45.88636925839036" lon="13.584335075726727"><ele>43.0</ele><time>2026-04-05T14:56:36Z</time></trkpt><trkpt lat="45.88626920683893" lon="13.5841814320733"><ele>43.0</ele><time>2026-04-05T14:56:37Z</time></trkpt><trkpt lat="45.88616604482237" lon="13.58402715818097"><ele>43.0</ele><time>2026-04-05T14:56:38Z</time></trkpt><trkpt lat="45.8860664994723" lon="13.583870515276796"><ele>43.0</ele><time>2026-04-05T14:56:39Z</time></trkpt><trkpt lat="45.88596661590018" lon="13.583714957013719"><ele>43.0</ele><time>2026-04-05T14:56:40Z</time></trkpt><trkpt lat="45.88586849681447" lon="13.583559776147924"><ele>43.0</ele><time>2026-04-05T14:56:41Z</time></trkpt><trkpt lat="45.88577026101076" lon="13.583405379823311"><ele>43.0</ele><time>2026-04-05T14:56:42Z</time></trkpt><trkpt lat="45.88567281293524" lon="13.583252089469664"><ele>43.5</ele><time>2026-04-05T14:56:43Z</time></trkpt><trkpt lat="45.88557390126597" lon="13.583101267048233"><ele>44.0</ele><time>2026-04-05T14:56:44Z</time></trkpt><trkpt lat="45.885475830336205" lon="13.582951470165735"><ele>44.5</ele><time>2026-04-05T14:56:45Z</time></trkpt><trkpt lat="45.8853770537036" lon="13.58279722629765"><ele>45.0</ele><time>2026-04-05T14:56:46Z</time></trkpt><trkpt lat="45.885275715118766" lon="13.582641223518515"><ele>45.0</ele><time>2026-04-05T14:56:47Z</time></trkpt><trkpt lat="45.885171603051624" lon="13.582483863138961"><ele>45.0</ele><time>2026-04-05T14:56:47.999Z</time></trkpt><trkpt lat="45.885066444650434" lon="13.582326961948722"><ele>45.0</ele><time>2026-04-05T14:56:48.999Z</time></trkpt><trkpt lat="45.884955594616414" lon="13.582175070633278"><ele>46.33333333333333</ele><time>2026-04-05T14:56:49.999Z</time></trkpt><trkpt lat="45.88483440578647" lon="13.58203214369202"><ele>47.666666666666664</ele><time>2026-04-05T14:56:50.999Z</time></trkpt><trkpt lat="45.8847043978395" lon="13.58190021201208"><ele>49.0</ele><time>2026-04-05T14:56:51.999Z</time></trkpt><trkpt lat="45.88456707630937" lon="13.581781141874925"><ele>50.0</ele><time>2026-04-05T14:56:52.999Z</time></trkpt><trkpt lat="45.884422397323846" lon="13.581673684346095"><ele>51.0</ele><time>2026-04-05T14:56:53.999Z</time></trkpt><trkpt lat="45.88427185573267" lon="13.58157969478416"><ele>52.0</ele><time>2026-04-05T14:56:54.999Z</time></trkpt><trkpt lat="45.884113121495126" lon="13.581504398800067"><ele>54.0</ele><time>2026-04-05T14:56:55.999Z</time></trkpt><trkpt lat="45.883947454156655" lon="13.58144801197228"><ele>56.0</ele><time>2026-04-05T14:56:56.999Z</time></trkpt><trkpt lat="45.883777870403904" lon="13.581406404198729"><ele>58.0</ele><time>2026-04-05T14:56:57.999Z</time></trkpt><trkpt lat="45.883605196191176" lon="13.581373011457327"><ele>58.33333333333333</ele><time>2026-04-05T14:56:58.999Z</time></trkpt><trkpt lat="45.883430373604696" lon="13.581338309483872"><ele>58.66666666666667</ele><time>2026-04-05T14:56:59.999Z</time></trkpt><trkpt lat="45.88325334375416" lon="13.581301307368756"><ele>59.0</ele><time>2026-04-05T14:57:00.999Z</time></trkpt><trkpt lat="45.88307509365355" lon="13.581265097166783"><ele>59.0</ele><time>2026-04-05T14:57:01.999Z</time></trkpt><trkpt lat="45.88289423629602" lon="13.58122976146763"><ele>59.0</ele><time>2026-04-05T14:57:02.999Z</time></trkpt><trkpt lat="45.88271235364187" lon="13.581192471340685"><ele>59.0</ele><time>2026-04-05T14:57:03.999Z</time></trkpt><trkpt lat="45.88252793613691" lon="13.58115220891348"><ele>61.66666666666667</ele><time>2026-04-05T14:57:04.999Z</time></trkpt><trkpt lat="45.88234154409863" lon="13.58111426423114"><ele>64.33333333333333</ele><time>2026-04-05T14:57:05.999Z</time></trkpt><trkpt lat="45.88215861234493" lon="13.581080217790939"><ele>67.0</ele><time>2026-04-05T14:57:06.999Z</time></trkpt><trkpt lat="45.88197752112885" lon="13.581052080972357"><ele>67.0</ele><time>2026-04-05T14:57:07.999Z</time></trkpt><trkpt lat="45.88179717672215" lon="13.581031335201821"><ele>67.0</ele><time>2026-04-05T14:57:08.999Z</time></trkpt><trkpt lat="45.881617425970866" lon="13.581021137848097"><ele>67.0</ele><time>2026-04-05T14:57:09.999Z</time></trkpt><trkpt lat="45.881436796835786" lon="13.581015817573517"><ele>66.66666666666666</ele><time>2026-04-05T14:57:10.999Z</time></trkpt><trkpt lat="45.881259039952525" lon="13.581009196780009"><ele>66.33333333333333</ele><time>2026-04-05T14:57:11.999Z</time></trkpt><trkpt lat="45.88108553927836" lon="13.580992985525555"><ele>66.0</ele><time>2026-04-05T14:57:12.999Z</time></trkpt><trkpt lat="45.88091767569396" lon="13.580963216101129"><ele>66.66666666666667</ele><time>2026-04-05T14:57:13.999Z</time></trkpt><trkpt lat="45.880751772623" lon="13.58091731615447"><ele>67.33333333333334</ele><time>2026-04-05T14:57:14.999Z</time></trkpt><trkpt lat="45.880589719275456" lon="13.580851999305002"><ele>68.0</ele><time>2026-04-05T14:57:15.999Z</time></trkpt><trkpt lat="45.88042824448541" lon="13.580780859562282"><ele>68.0</ele><time>2026-04-05T14:57:16.999Z</time></trkpt><trkpt lat="45.88026625200483" lon="13.58070765682918"><ele>68.0</ele><time>2026-04-05T14:57:17.999Z</time></trkpt><trkpt lat="45.88010425364755" lon="13.580638045132188"><ele>68.0</ele><time>2026-04-05T14:57:18.999Z</time></trkpt><trkpt lat="45.87994226142456" lon="13.580570506815038"><ele>66.0</ele><time>2026-04-05T14:57:19.999Z</time></trkpt><trkpt lat="45.879781320663206" lon="13.580499194609388"><ele>64.0</ele><time>2026-04-05T14:57:20.999Z</time></trkpt><trkpt lat="45.879622035073034" lon="13.580429269979582"><ele>62.0</ele><time>2026-04-05T14:57:21.999Z</time></trkpt><trkpt lat="45.87946292567767" lon="13.580359300802543"><ele>65.0</ele><time>2026-04-05T14:57:22.999Z</time></trkpt><trkpt lat="45.87930485483688" lon="13.580287726275705"><ele>68.0</ele><time>2026-04-05T14:57:23.999Z</time></trkpt><trkpt lat="45.87914535709474" lon="13.580221737632128"><ele>71.0</ele><time>2026-04-05T14:57:24.999Z</time></trkpt><trkpt lat="45.87898623721888" lon="13.580151184412202"><ele>71.0</ele><time>2026-04-05T14:57:25.999Z</time></trkpt><trkpt lat="45.87882860197721" lon="13.580083235954506"><ele>71.0</ele><time>2026-04-05T14:57:26.999Z</time></trkpt><trkpt lat="45.87867235400306" lon="13.580013728809964"><ele>71.0</ele><time>2026-04-05T14:57:27.999Z</time></trkpt><trkpt lat="45.8785148578002" lon="13.579942102640658"><ele>70.0</ele><time>2026-04-05T14:57:28.999Z</time></trkpt><trkpt lat="45.878352578762545" lon="13.579872539475978"><ele>69.0</ele><time>2026-04-05T14:57:29.999Z</time></trkpt><trkpt lat="45.87818865856191" lon="13.579802209754863"><ele>68.0</ele><time>2026-04-05T14:57:30.999Z</time></trkpt><trkpt lat="45.8780237424614" lon="13.57973064454759"><ele>68.0</ele><time>2026-04-05T14:57:31.999Z</time></trkpt><trkpt lat="45.877858538592484" lon="13.57966473279468"><ele>68.0</ele><time>2026-04-05T14:57:32.999Z</time></trkpt><trkpt lat="45.87769068642759" lon="13.57962131874096"><ele>68.0</ele><time>2026-04-05T14:57:33.999Z</time></trkpt><trkpt lat="45.877516073276375" lon="13.579625526633693"><ele>68.33333333333334</ele><time>2026-04-05T14:57:34.999Z</time></trkpt><trkpt lat="45.877341978229275" lon="13.579665378168789"><ele>68.66666666666667</ele><time>2026-04-05T14:57:35.999Z</time></trkpt><trkpt lat="45.8771686469734" lon="13.579724142744775"><ele>69.0</ele><time>2026-04-05T14:57:36.999Z</time></trkpt><trkpt lat="45.876995018261944" lon="13.579774220805042"><ele>69.0</ele><time>2026-04-05T14:57:37.999Z</time></trkpt><trkpt lat="45.87682291325121" lon="13.579808126871145"><ele>69.0</ele><time>2026-04-05T14:57:38.999Z</time></trkpt><trkpt lat="45.8766535195703" lon="13.579819222556996"><ele>69.0</ele><time>2026-04-05T14:57:39.999Z</time></trkpt><trkpt lat="45.876488353747554" lon="13.579807754141354"><ele>72.0</ele><time>2026-04-05T14:57:40.999Z</time></trkpt><trkpt lat="45.87632648626687" lon="13.579775517627114"><ele>75.0</ele><time>2026-04-05T14:57:41.999Z</time></trkpt><trkpt lat="45.876169168870064" lon="13.579731516748172"><ele>78.0</ele><time>2026-04-05T14:57:42.999Z</time></trkpt><trkpt lat="45.876014728558104" lon="13.579683266878199"><ele>77.0</ele><time>2026-04-05T14:57:43.999Z</time></trkpt><trkpt lat="45.875862150099614" lon="13.579646280302159"><ele>76.0</ele><time>2026-04-05T14:57:44.999Z</time></trkpt><trkpt lat="45.87570675498271" lon="13.579631048084574"><ele>75.0</ele><time>2026-04-05T14:57:45.999Z</time></trkpt><trkpt lat="45.87555208380837" lon="13.579630826339539"><ele>75.0</ele><time>2026-04-05T14:57:46.999Z</time></trkpt><trkpt lat="45.87539732765852" lon="13.579633381444438"><ele>75.0</ele><time>2026-04-05T14:57:47.999Z</time></trkpt><trkpt lat="45.87524329784537" lon="13.579636057189926"><ele>75.0</ele><time>2026-04-05T14:57:48.999Z</time></trkpt><trkpt lat="45.87508953232732" lon="13.579634856927205"><ele>76.33333333333333</ele><time>2026-04-05T14:57:49.999Z</time></trkpt><trkpt lat="45.87493581029374" lon="13.57963288683114"><ele>77.66666666666666</ele><time>2026-04-05T14:57:50.999Z</time></trkpt><trkpt lat="45.874779191957394" lon="13.579632578831745"><ele>79.0</ele><time>2026-04-05T14:57:51.999Z</time></trkpt><trkpt lat="45.874620423833065" lon="13.579633723383868"><ele>79.0</ele><time>2026-04-05T14:57:52.999Z</time></trkpt><trkpt lat="45.87446389680552" lon="13.579625351793574"><ele>79.0</ele><time>2026-04-05T14:57:53.999Z</time></trkpt><trkpt lat="45.874309767322984" lon="13.579603479690443"><ele>79.0</ele><time>2026-04-05T14:57:54.999Z</time></trkpt><trkpt lat="45.87415539925033" lon="13.579561827235306"><ele>80.66666666666666</ele><time>2026-04-05T14:57:55.999Z</time></trkpt><trkpt lat="45.87400044709664" lon="13.579520297865352"><ele>82.33333333333333</ele><time>2026-04-05T14:57:56.999Z</time></trkpt><trkpt lat="45.87384486443453" lon="13.579485021511122"><ele>84.0</ele><time>2026-04-05T14:57:57.999Z</time></trkpt><trkpt lat="45.873691277989025" lon="13.579448433226926"><ele>87.66666666666667</ele><time>2026-04-05T14:57:58.999Z</time></trkpt><trkpt lat="45.873539825580465" lon="13.579410095650434"><ele>91.33333333333334</ele><time>2026-04-05T14:57:59.999Z</time></trkpt><trkpt lat="45.87338798027194" lon="13.579373330068202"><ele>95.0</ele><time>2026-04-05T14:58:00.999Z</time></trkpt><trkpt lat="45.87324265683221" lon="13.57934083384737"><ele>95.0</ele><time>2026-04-05T14:58:01.999Z</time></trkpt><trkpt lat="45.873099375217556" lon="13.579309920782991"><ele>95.0</ele><time>2026-04-05T14:58:02.999Z</time></trkpt><trkpt lat="45.87295516143787" lon="13.579274695890174"><ele>95.0</ele><time>2026-04-05T14:58:03.999Z</time></trkpt><trkpt lat="45.872811807351255" lon="13.57922514060139"><ele>95.0</ele><time>2026-04-05T14:58:04.999Z</time></trkpt><trkpt lat="45.87267279527897" lon="13.579160145205062"><ele>93.25</ele><time>2026-04-05T14:58:05.999Z</time></trkpt><trkpt lat="45.872543307409" lon="13.57907494718624"><ele>91.5</ele><time>2026-04-05T14:58:06.999Z</time></trkpt><trkpt lat="45.8724215226462" lon="13.578970827970478"><ele>89.75</ele><time>2026-04-05T14:58:07.999Z</time></trkpt><trkpt lat="45.87230769446241" lon="13.578850473985057"><ele>88.0</ele><time>2026-04-05T14:58:08.999Z</time></trkpt><trkpt lat="45.87220065589013" lon="13.578716110659554"><ele>91.25</ele><time>2026-04-05T14:58:09.999Z</time></trkpt><trkpt lat="45.872101954697484" lon="13.578566964216794"><ele>94.5</ele><time>2026-04-05T14:58:10.999Z</time></trkpt><trkpt lat="45.8720087066494" lon="13.578408474837763"><ele>97.75</ele><time>2026-04-05T14:58:11.999Z</time></trkpt><trkpt lat="45.871913714262604" lon="13.57824948318366"><ele>101.0</ele><time>2026-04-05T14:58:12.999Z</time></trkpt><trkpt lat="45.87181695859244" lon="13.578090350144034"><ele>98.33333333333333</ele><time>2026-04-05T14:58:13.999Z</time></trkpt><trkpt lat="45.871718457374044" lon="13.577929219745142"><ele>95.66666666666666</ele><time>2026-04-05T14:58:14.999Z</time></trkpt><trkpt lat="45.871617405703454" lon="13.577766504441716"><ele>93.0</ele><time>2026-04-05T14:58:15.999Z</time></trkpt><trkpt lat="45.87151536586385" lon="13.577603303609866"><ele>93.0</ele><time>2026-04-05T14:58:16.999Z</time></trkpt><trkpt lat="45.87141564227067" lon="13.57743548279612"><ele>93.0</ele><time>2026-04-05T14:58:17.999Z</time></trkpt><trkpt lat="45.871315359498034" lon="13.577263258489003"><ele>93.0</ele><time>2026-04-05T14:58:18.999Z</time></trkpt><trkpt lat="45.87121613297929" lon="13.577082087026362"><ele>97.66666666666666</ele><time>2026-04-05T14:58:19.999Z</time></trkpt><trkpt lat="45.871119836624146" lon="13.576897147048244"><ele>102.33333333333333</ele><time>2026-04-05T14:58:20.999Z</time></trkpt><trkpt lat="45.87102433994671" lon="13.576707014950495"><ele>107.0</ele><time>2026-04-05T14:58:21.999Z</time></trkpt><trkpt lat="45.87092881592562" lon="13.576517092633347"><ele>101.33333333333333</ele><time>2026-04-05T14:58:22.999Z</time></trkpt><trkpt lat="45.87083089650819" lon="13.576331802133467"><ele>95.66666666666666</ele><time>2026-04-05T14:58:23.999Z</time></trkpt><trkpt lat="45.87072933816345" lon="13.576150033581786"><ele>90.0</ele><time>2026-04-05T14:58:24.999Z</time></trkpt><trkpt lat="45.87062783915344" lon="13.575969862543344"><ele>90.0</ele><time>2026-04-05T14:58:25.999Z</time></trkpt><trkpt lat="45.87052243654587" lon="13.575790920208327"><ele>90.0</ele><time>2026-04-05T14:58:26.999Z</time></trkpt><trkpt lat="45.87041291540754" lon="13.575616335161744"><ele>90.0</ele><time>2026-04-05T14:58:27.999Z</time></trkpt><trkpt lat="45.870300231759295" lon="13.575445199526849"><ele>86.0</ele><time>2026-04-05T14:58:28.999Z</time></trkpt><trkpt lat="45.870186048138535" lon="13.575271588370931"><ele>82.0</ele><time>2026-04-05T14:58:29.999Z</time></trkpt><trkpt lat="45.87007365908212" lon="13.575096828598385"><ele>78.0</ele><time>2026-04-05T14:58:30.999Z</time></trkpt><trkpt lat="45.86996176512543" lon="13.574922291967795"><ele>78.0</ele><time>2026-04-05T14:58:31.999Z</time></trkpt><trkpt lat="45.869848909873" lon="13.574748675121695"><ele>78.0</ele><time>2026-04-05T14:58:32.999Z</time></trkpt><trkpt lat="45.869735495173835" lon="13.574575598938177"><ele>78.0</ele><time>2026-04-05T14:58:33.999Z</time></trkpt><trkpt lat="45.86962146859434" lon="13.574403164245807"><ele>82.66666666666667</ele><time>2026-04-05T14:58:35Z</time></trkpt><trkpt lat="45.869505770583245" lon="13.57423111814153"><ele>87.33333333333334</ele><time>2026-04-05T14:58:36Z</time></trkpt><trkpt lat="45.86939105040396" lon="13.57405731533337"><ele>92.0</ele><time>2026-04-05T14:58:37Z</time></trkpt><trkpt lat="45.86927918553841" lon="13.573883168276412"><ele>88.0</ele><time>2026-04-05T14:58:38Z</time></trkpt><trkpt lat="45.86916846081515" lon="13.573706781648802"><ele>84.0</ele><time>2026-04-05T14:58:39Z</time></trkpt><trkpt lat="45.86906600538334" lon="13.57352309240116"><ele>80.0</ele><time>2026-04-05T14:58:40Z</time></trkpt><trkpt lat="45.86897727107721" lon="13.573324861112905"><ele>80.0</ele><time>2026-04-05T14:58:41Z</time></trkpt><trkpt lat="45.86889864601482" lon="13.573119658489532"><ele>80.0</ele><time>2026-04-05T14:58:42Z</time></trkpt><trkpt lat="45.8688289973755" lon="13.572905387335483"><ele>80.0</ele><time>2026-04-05T14:58:43Z</time></trkpt><trkpt lat="45.86876319472353" lon="13.572690564738702"><ele>82.33333333333334</ele><time>2026-04-05T14:58:44Z</time></trkpt><trkpt lat="45.868697824434406" lon="13.572477307462899"><ele>84.66666666666667</ele><time>2026-04-05T14:58:45Z</time></trkpt><trkpt lat="45.86863028250999" lon="13.572266144609772"><ele>87.0</ele><time>2026-04-05T14:58:46Z</time></trkpt><trkpt lat="45.86856130447701" lon="13.572053699354383"><ele>87.33333333333333</ele><time>2026-04-05T14:58:47Z</time></trkpt><trkpt lat="45.868496664978764" lon="13.57184222184905"><ele>87.66666666666666</ele><time>2026-04-05T14:58:48Z</time></trkpt><trkpt lat="45.86843200114749" lon="13.571638067498037"><ele>88.0</ele><time>2026-04-05T14:58:49Z</time></trkpt><trkpt lat="45.86836842683564" lon="13.571437620944543"><ele>83.75</ele><time>2026-04-05T14:58:50Z</time></trkpt><trkpt lat="45.86830682762734" lon="13.571240078359175"><ele>79.5</ele><time>2026-04-05T14:58:50.999Z</time></trkpt><trkpt lat="45.868246007287" lon="13.571046035266702"><ele>75.25</ele><time>2026-04-05T14:58:51.999Z</time></trkpt><trkpt lat="45.868186911044994" lon="13.570854918803908"><ele>71.0</ele><time>2026-04-05T14:58:52.999Z</time></trkpt><trkpt lat="45.86812854931468" lon="13.570661478877714"><ele>70.5</ele><time>2026-04-05T14:58:53.999Z</time></trkpt><trkpt lat="45.86806860867689" lon="13.570472984435057"><ele>70.0</ele><time>2026-04-05T14:58:54.999Z</time></trkpt><trkpt lat="45.86800916389413" lon="13.570290589965587"><ele>69.5</ele><time>2026-04-05T14:58:55.999Z</time></trkpt><trkpt lat="45.86793520734881" lon="13.570104995538557"><ele>69.0</ele><time>2026-04-05T14:58:56.999Z</time></trkpt><trkpt lat="45.86783795356731" lon="13.569925790882909"><ele>69.33333333333333</ele><time>2026-04-05T14:58:57.999Z</time></trkpt><trkpt lat="45.86771719464088" lon="13.569774537082553"><ele>69.66666666666666</ele><time>2026-04-05T14:58:58.999Z</time></trkpt><trkpt lat="45.8675964817" lon="13.569615830715769"><ele>70.0</ele><time>2026-04-05T14:58:59.999Z</time></trkpt><trkpt lat="45.86748112349363" lon="13.56944955491215"><ele>66.66666666666666</ele><time>2026-04-05T14:59:00.999Z</time></trkpt><trkpt lat="45.86736458902076" lon="13.569284590254602"><ele>63.33333333333333</ele><time>2026-04-05T14:59:01.999Z</time></trkpt><trkpt lat="45.86725479148391" lon="13.569109521573177"><ele>60.0</ele><time>2026-04-05T14:59:02.999Z</time></trkpt><trkpt lat="45.86715401645499" lon="13.568921673287406"><ele>60.0</ele><time>2026-04-05T14:59:03.999Z</time></trkpt><trkpt lat="45.8670621101977" lon="13.568722125218798"><ele>60.0</ele><time>2026-04-05T14:59:04.999Z</time></trkpt><trkpt lat="45.86697170416622" lon="13.568520852539796"><ele>60.0</ele><time>2026-04-05T14:59:05.999Z</time></trkpt><trkpt lat="45.86688509823183" lon="13.568315502267856"><ele>60.0</ele><time>2026-04-05T14:59:06.999Z</time></trkpt><trkpt lat="45.86679542698113" lon="13.568105727844511"><ele>60.0</ele><time>2026-04-05T14:59:07.999Z</time></trkpt><trkpt lat="45.866706654276754" lon="13.567895418756247"><ele>60.0</ele><time>2026-04-05T14:59:08.999Z</time></trkpt><trkpt lat="45.86661772560701" lon="13.567683984255934"><ele>60.0</ele><time>2026-04-05T14:59:09.999Z</time></trkpt><trkpt lat="45.866526724294225" lon="13.567473333427126"><ele>60.0</ele><time>2026-04-05T14:59:10.999Z</time></trkpt><trkpt lat="45.86643613967641" lon="13.56726187572854"><ele>60.0</ele><time>2026-04-05T14:59:11.999Z</time></trkpt><trkpt lat="45.86634841241344" lon="13.56705005878895"><ele>56.66666666666667</ele><time>2026-04-05T14:59:12.999Z</time></trkpt><trkpt lat="45.866256764478386" lon="13.566837987958774"><ele>53.333333333333336</ele><time>2026-04-05T14:59:13.999Z</time></trkpt><trkpt lat="45.86616726953176" lon="13.566627702848255"><ele>50.0</ele><time>2026-04-05T14:59:14.999Z</time></trkpt><trkpt lat="45.86607892534816" lon="13.56641680948502"><ele>50.0</ele><time>2026-04-05T14:59:15.999Z</time></trkpt><trkpt lat="45.865986218481765" lon="13.566209121866764"><ele>50.0</ele><time>2026-04-05T14:59:16.999Z</time></trkpt><trkpt lat="45.86588009487872" lon="13.566012972633954"><ele>50.0</ele><time>2026-04-05T14:59:17.999Z</time></trkpt><trkpt lat="45.86575145243603" lon="13.565847191489762"><ele>51.0</ele><time>2026-04-05T14:59:18.999Z</time></trkpt><trkpt lat="45.86560640896798" lon="13.565720568441687"><ele>52.0</ele><time>2026-04-05T14:59:19.999Z</time></trkpt><trkpt lat="45.865448479631326" lon="13.565626068826255"><ele>53.0</ele><time>2026-04-05T14:59:20.999Z</time></trkpt><trkpt lat="45.86528429627628" lon="13.565561634803556"><ele>53.0</ele><time>2026-04-05T14:59:21.999Z</time></trkpt><trkpt lat="45.865118067069794" lon="13.565532001906108"><ele>53.0</ele><time>2026-04-05T14:59:22.999Z</time></trkpt><trkpt lat="45.86495037947307" lon="13.56554052998373"><ele>53.0</ele><time>2026-04-05T14:59:23.999Z</time></trkpt><trkpt lat="45.86478325116172" lon="13.565566549679899"><ele>56.333333333333336</ele><time>2026-04-05T14:59:24.999Z</time></trkpt><trkpt lat="45.864621097096496" lon="13.565628390912915"><ele>59.66666666666667</ele><time>2026-04-05T14:59:25.999Z</time></trkpt><trkpt lat="45.864468179949135" lon="13.565728312536834"><ele>63.0</ele><time>2026-04-05T14:59:26.999Z</time></trkpt><trkpt lat="45.86432213641988" lon="13.565848162761998"><ele>60.66666666666667</ele><time>2026-04-05T14:59:27.999Z</time></trkpt><trkpt lat="45.86417355826478" lon="13.565955502392967"><ele>58.333333333333336</ele><time>2026-04-05T14:59:28.999Z</time></trkpt><trkpt lat="45.86402211334531" lon="13.566049433087358"><ele>56.0</ele><time>2026-04-05T14:59:29.999Z</time></trkpt><trkpt lat="45.863867161614905" lon="13.566114281164268"><ele>56.0</ele><time>2026-04-05T14:59:30.999Z</time></trkpt><trkpt lat="45.86370702783971" lon="13.56614117693944"><ele>56.0</ele><time>2026-04-05T14:59:31.999Z</time></trkpt><trkpt lat="45.8635455185719" lon="13.566135039194204"><ele>56.0</ele><time>2026-04-05T14:59:32.999Z</time></trkpt><trkpt lat="45.86338324877346" lon="13.566112388897967"><ele>55.333333333333336</ele><time>2026-04-05T14:59:33.999Z</time></trkpt><trkpt lat="45.86322360447554" lon="13.56610952160459"><ele>54.66666666666667</ele><time>2026-04-05T14:59:34.999Z</time></trkpt><trkpt lat="45.86306801980046" lon="13.56614856677165"><ele>54.0</ele><time>2026-04-05T14:59:35.999Z</time></trkpt><trkpt lat="45.86292185565134" lon="13.566226496649385"><ele>55.66666666666667</ele><time>2026-04-05T14:59:36.999Z</time></trkpt><trkpt lat="45.8627837282512" lon="13.56633804765888"><ele>57.333333333333336</ele><time>2026-04-05T14:59:37.999Z</time></trkpt><trkpt lat="45.86265063224455" lon="13.566463717000488"><ele>59.0</ele><time>2026-04-05T14:59:38.999Z</time></trkpt><trkpt lat="45.86251753354026" lon="13.566588007631738"><ele>59.0</ele><time>2026-04-05T14:59:39.999Z</time></trkpt><trkpt lat="45.862382042056474" lon="13.566711332459079"><ele>59.0</ele><time>2026-04-05T14:59:40.999Z</time></trkpt><trkpt lat="45.862241573625134" lon="13.566837786231552"><ele>59.0</ele><time>2026-04-05T14:59:41.999Z</time></trkpt><trkpt lat="45.862097185001865" lon="13.566967113604441"><ele>59.0</ele><time>2026-04-05T14:59:42.999Z</time></trkpt><trkpt lat="45.86195033209949" lon="13.567099968562147"><ele>59.0</ele><time>2026-04-05T14:59:43.999Z</time></trkpt><trkpt lat="45.86180438600266" lon="13.567236461700615"><ele>59.0</ele><time>2026-04-05T14:59:44.999Z</time></trkpt><trkpt lat="45.86165710660141" lon="13.567370933575868"><ele>59.0</ele><time>2026-04-05T14:59:45.999Z</time></trkpt><trkpt lat="45.861511859522956" lon="13.567500414911018"><ele>59.0</ele><time>2026-04-05T14:59:46.999Z</time></trkpt><trkpt lat="45.8613694946407" lon="13.567627715524706"><ele>59.0</ele><time>2026-04-05T14:59:47.999Z</time></trkpt><trkpt lat="45.86122638036563" lon="13.567749276133984"><ele>59.0</ele><time>2026-04-05T14:59:48.999Z</time></trkpt><trkpt lat="45.861078885751795" lon="13.567858541694887"><ele>59.0</ele><time>2026-04-05T14:59:49.999Z</time></trkpt><trkpt lat="45.86092507315715" lon="13.567955545234415"><ele>59.0</ele><time>2026-04-05T14:59:50.999Z</time></trkpt><trkpt lat="45.86076930771794" lon="13.568055999920185"><ele>60.333333333333336</ele><time>2026-04-05T14:59:51.999Z</time></trkpt><trkpt lat="45.86061482972822" lon="13.568162344906336"><ele>61.66666666666667</ele><time>2026-04-05T14:59:52.999Z</time></trkpt><trkpt lat="45.8604603014956" lon="13.56827031265563"><ele>63.0</ele><time>2026-04-05T14:59:53.999Z</time></trkpt><trkpt lat="45.860307964354085" lon="13.56837589942733"><ele>63.0</ele><time>2026-04-05T14:59:54.999Z</time></trkpt><trkpt lat="45.86015837638498" lon="13.568478769965624"><ele>63.0</ele><time>2026-04-05T14:59:55.999Z</time></trkpt><trkpt lat="45.860010284254294" lon="13.568579711869708"><ele>63.0</ele><time>2026-04-05T14:59:56.999Z</time></trkpt><trkpt lat="45.85986386693809" lon="13.568678787308643"><ele>63.66666666666667</ele><time>2026-04-05T14:59:57.999Z</time></trkpt><trkpt lat="45.85972020822986" lon="13.568779130900644"><ele>64.33333333333334</ele><time>2026-04-05T14:59:58.999Z</time></trkpt><trkpt lat="45.859575434318316" lon="13.56887624034182"><ele>65.0</ele><time>2026-04-05T14:59:59.999Z</time></trkpt><trkpt lat="45.85943141686476" lon="13.568971757593914"><ele>65.0</ele><time>2026-04-05T15:00:00.999Z</time></trkpt><trkpt lat="45.85929057423712" lon="13.569068929759494"><ele>65.0</ele><time>2026-04-05T15:00:01.999Z</time></trkpt><trkpt lat="45.85915080773642" lon="13.569162886513872"><ele>65.0</ele><time>2026-04-05T15:00:02.999Z</time></trkpt><trkpt lat="45.8590027462885" lon="13.56923453558647"><ele>63.0</ele><time>2026-04-05T15:00:03.999Z</time></trkpt><trkpt lat="45.85883972089335" lon="13.569268916151161"><ele>61.0</ele><time>2026-04-05T15:00:04.999Z</time></trkpt><trkpt lat="45.85867170356161" lon="13.569270270691465"><ele>59.0</ele><time>2026-04-05T15:00:05.999Z</time></trkpt><trkpt lat="45.85851132668144" lon="13.569277599172384"><ele>58.333333333333336</ele><time>2026-04-05T15:00:06.999Z</time></trkpt><trkpt lat="45.85835533629833" lon="13.569291655525008"><ele>57.66666666666667</ele><time>2026-04-05T15:00:07.999Z</time></trkpt><trkpt lat="45.85820096416757" lon="13.569307206186158"><ele>57.0</ele><time>2026-04-05T15:00:08.999Z</time></trkpt><trkpt lat="45.85804715495477" lon="13.569318402019364"><ele>57.0</ele><time>2026-04-05T15:00:09.999Z</time></trkpt><trkpt lat="45.85789327942208" lon="13.56932976646921"><ele>57.0</ele><time>2026-04-05T15:00:10.999Z</time></trkpt><trkpt lat="45.857744167510084" lon="13.569333309641733"><ele>57.0</ele><time>2026-04-05T15:00:11.999Z</time></trkpt><trkpt lat="45.85759804536713" lon="13.569313175829341"><ele>57.0</ele><time>2026-04-05T15:00:12.999Z</time></trkpt><trkpt lat="45.85745513678545" lon="13.569256686933533"><ele>57.0</ele><time>2026-04-05T15:00:13.999Z</time></trkpt><trkpt lat="45.857312228506224" lon="13.56917116093229"><ele>57.0</ele><time>2026-04-05T15:00:14.999Z</time></trkpt><trkpt lat="45.8571724967806" lon="13.569073822711857"><ele>57.0</ele><time>2026-04-05T15:00:15.999Z</time></trkpt><trkpt lat="45.8570401530184" lon="13.568957888188397"><ele>57.0</ele><time>2026-04-05T15:00:16.999Z</time></trkpt><trkpt lat="45.856917410504956" lon="13.568822110004152"><ele>57.0</ele><time>2026-04-05T15:00:17.999Z</time></trkpt><trkpt lat="45.856811016082276" lon="13.568647815885326"><ele>57.0</ele><time>2026-04-05T15:00:18.999Z</time></trkpt><trkpt lat="45.85671299171796" lon="13.568454223339367"><ele>57.0</ele><time>2026-04-05T15:00:19.999Z</time></trkpt><trkpt lat="45.85662098877814" lon="13.568258405192987"><ele>57.0</ele><time>2026-04-05T15:00:20.999Z</time></trkpt><trkpt lat="45.856522677811476" lon="13.56807349494773"><ele>57.0</ele><time>2026-04-05T15:00:21.999Z</time></trkpt><trkpt lat="45.85641860332106" lon="13.567894523925789"><ele>57.0</ele><time>2026-04-05T15:00:22.999Z</time></trkpt><trkpt lat="45.85631179798327" lon="13.567718360518805"><ele>57.0</ele><time>2026-04-05T15:00:23.999Z</time></trkpt><trkpt lat="45.856202819806" lon="13.567543818447138"><ele>57.33333333333333</ele><time>2026-04-05T15:00:24.999Z</time></trkpt><trkpt lat="45.856094975392956" lon="13.56737097447212"><ele>57.666666666666664</ele><time>2026-04-05T15:00:25.999Z</time></trkpt><trkpt lat="45.85598753480887" lon="13.567197260538418"><ele>58.0</ele><time>2026-04-05T15:00:26.999Z</time></trkpt><trkpt lat="45.85588104481469" lon="13.56702269450867"><ele>58.33333333333333</ele><time>2026-04-05T15:00:27.999Z</time></trkpt><trkpt lat="45.85577659107483" lon="13.566844190848068"><ele>58.66666666666667</ele><time>2026-04-05T15:00:28.999Z</time></trkpt><trkpt lat="45.855675259089516" lon="13.566664625753816"><ele>59.0</ele><time>2026-04-05T15:00:29.999Z</time></trkpt><trkpt lat="45.85558520188104" lon="13.566480907665897"><ele>59.0</ele><time>2026-04-05T15:00:30.999Z</time></trkpt><trkpt lat="45.855513256739606" lon="13.566285283639802"><ele>59.0</ele><time>2026-04-05T15:00:31.999Z</time></trkpt><trkpt lat="45.85546304392317" lon="13.56608008223612"><ele>59.0</ele><time>2026-04-05T15:00:32.999Z</time></trkpt><trkpt lat="45.85543240467081" lon="13.565871651695886"><ele>61.75</ele><time>2026-04-05T15:00:33.999Z</time></trkpt><trkpt lat="45.85541347861314" lon="13.565663785345075"><ele>64.5</ele><time>2026-04-05T15:00:34.999Z</time></trkpt><trkpt lat="45.8553981793215" lon="13.565458702543864"><ele>67.25</ele><time>2026-04-05T15:00:35.999Z</time></trkpt><trkpt lat="45.855392563919665" lon="13.565253971950305"><ele>70.0</ele><time>2026-04-05T15:00:36.999Z</time></trkpt><trkpt lat="45.85538399311313" lon="13.565045928179513"><ele>70.66666666666666</ele><time>2026-04-05T15:00:37.999Z</time></trkpt><trkpt lat="45.855368552039806" lon="13.564833048505436"><ele>71.33333333333333</ele><time>2026-04-05T15:00:38.999Z</time></trkpt><trkpt lat="45.85534690875574" lon="13.56461516251377"><ele>72.0</ele><time>2026-04-05T15:00:40Z</time></trkpt><trkpt lat="45.855311897179405" lon="13.564397918761188"><ele>72.33333333333333</ele><time>2026-04-05T15:00:41Z</time></trkpt><trkpt lat="45.855252481941534" lon="13.564188230434704"><ele>72.66666666666666</ele><time>2026-04-05T15:00:42Z</time></trkpt><trkpt lat="45.85516787254184" lon="13.563992901843099"><ele>73.0</ele><time>2026-04-05T15:00:43Z</time></trkpt><trkpt lat="45.85506000763601" lon="13.563815453306947"><ele>70.66666666666666</ele><time>2026-04-05T15:00:44Z</time></trkpt><trkpt lat="45.85492854665047" lon="13.563665816292962"><ele>68.33333333333333</ele><time>2026-04-05T15:00:45Z</time></trkpt><trkpt lat="45.85478409104754" lon="13.563532617773886"><ele>66.0</ele><time>2026-04-05T15:00:46Z</time></trkpt><trkpt lat="45.85463789157142" lon="13.563402886636153"><ele>66.0</ele><time>2026-04-05T15:00:47Z</time></trkpt><trkpt lat="45.85449092401218" lon="13.563269327933908"><ele>66.0</ele><time>2026-04-05T15:00:48Z</time></trkpt><trkpt lat="45.854346411100686" lon="13.563135247380101"><ele>66.0</ele><time>2026-04-05T15:00:49Z</time></trkpt><trkpt lat="45.85419887439639" lon="13.562994626161675"><ele>66.33333333333333</ele><time>2026-04-05T15:00:50Z</time></trkpt><trkpt lat="45.85405013806223" lon="13.562856666232623"><ele>66.66666666666666</ele><time>2026-04-05T15:00:51Z</time></trkpt><trkpt lat="45.85389959496818" lon="13.562720667150597"><ele>67.0</ele><time>2026-04-05T15:00:52.001Z</time></trkpt><trkpt lat="45.853746834849986" lon="13.562583410396586"><ele>67.0</ele><time>2026-04-05T15:00:53.001Z</time></trkpt><trkpt lat="45.853592805966755" lon="13.562445309018964"><ele>67.0</ele><time>2026-04-05T15:00:54.001Z</time></trkpt><trkpt lat="45.853436904276634" lon="13.562314598759688"><ele>67.0</ele><time>2026-04-05T15:00:55Z</time></trkpt><trkpt lat="45.853273857098316" lon="13.562197370358101"><ele>68.0</ele><time>2026-04-05T15:00:56Z</time></trkpt><trkpt lat="45.85309914012465" lon="13.562102437656968"><ele>69.0</ele><time>2026-04-05T15:00:57Z</time></trkpt><trkpt lat="45.85292130170536" lon="13.562019840779138"><ele>70.0</ele><time>2026-04-05T15:00:58Z</time></trkpt><trkpt lat="45.85274327827662" lon="13.561946260299841"><ele>68.66666666666666</ele><time>2026-04-05T15:00:59Z</time></trkpt><trkpt lat="45.852563013905346" lon="13.561892163515884"><ele>67.33333333333333</ele><time>2026-04-05T15:01:00Z</time></trkpt><trkpt lat="45.85237988373658" lon="13.561857488624476"><ele>66.0</ele><time>2026-04-05T15:01:01Z</time></trkpt><trkpt lat="45.85219767737654" lon="13.561837801438653"><ele>66.0</ele><time>2026-04-05T15:01:02Z</time></trkpt><trkpt lat="45.85201551907576" lon="13.561835027323172"><ele>66.0</ele><time>2026-04-05T15:01:03Z</time></trkpt><trkpt lat="45.851834560100116" lon="13.561850612851465"><ele>66.0</ele><time>2026-04-05T15:01:04Z</time></trkpt><trkpt lat="45.85165520036891" lon="13.561880045536881"><ele>65.33333333333333</ele><time>2026-04-05T15:01:05Z</time></trkpt><trkpt lat="45.851479573425884" lon="13.561928250373532"><ele>64.66666666666666</ele><time>2026-04-05T15:01:06Z</time></trkpt><trkpt lat="45.851304330501826" lon="13.56199012701552"><ele>64.0</ele><time>2026-04-05T15:01:07Z</time></trkpt><trkpt lat="45.851130834890746" lon="13.562069047065286"><ele>63.666666666666664</ele><time>2026-04-05T15:01:08Z</time></trkpt><trkpt lat="45.85096339459529" lon="13.56216361611289"><ele>63.33333333333333</ele><time>2026-04-05T15:01:09Z</time></trkpt><trkpt lat="45.85079745854408" lon="13.562259550808022"><ele>63.0</ele><time>2026-04-05T15:01:10Z</time></trkpt><trkpt lat="45.85063406411357" lon="13.562357087894172"><ele>63.0</ele><time>2026-04-05T15:01:11Z</time></trkpt><trkpt lat="45.85046871565378" lon="13.562453448900733"><ele>63.0</ele><time>2026-04-05T15:01:12Z</time></trkpt><trkpt lat="45.85030460263682" lon="13.56254841844659"><ele>63.0</ele><time>2026-04-05T15:01:13Z</time></trkpt><trkpt lat="45.85014168675717" lon="13.562642050694123"><ele>60.33333333333333</ele><time>2026-04-05T15:01:14Z</time></trkpt><trkpt lat="45.8499791545434" lon="13.562735681887347"><ele>57.666666666666664</ele><time>2026-04-05T15:01:15Z</time></trkpt><trkpt lat="45.84981756982135" lon="13.562829538711101"><ele>55.0</ele><time>2026-04-05T15:01:16Z</time></trkpt><trkpt lat="45.8496557908719" lon="13.562922664062908"><ele>55.0</ele><time>2026-04-05T15:01:17Z</time></trkpt><trkpt lat="45.8494943721157" lon="13.56301267337841"><ele>55.0</ele><time>2026-04-05T15:01:18Z</time></trkpt><trkpt lat="45.84933175950292" lon="13.563096007892073"><ele>55.0</ele><time>2026-04-05T15:01:19Z</time></trkpt><trkpt lat="45.849165933214096" lon="13.563163148500543"><ele>57.666666666666664</ele><time>2026-04-05T15:01:20Z</time></trkpt><trkpt lat="45.84900091804388" lon="13.563217903216708"><ele>60.33333333333333</ele><time>2026-04-05T15:01:21Z</time></trkpt><trkpt lat="45.8488350365078" lon="13.563265369710663"><ele>63.0</ele><time>2026-04-05T15:01:22Z</time></trkpt><trkpt lat="45.8486680570327" lon="13.563303743016844"><ele>63.0</ele><time>2026-04-05T15:01:23Z</time></trkpt><trkpt lat="45.8484976306888" lon="13.56333285124158"><ele>63.0</ele><time>2026-04-05T15:01:24Z</time></trkpt><trkpt lat="45.84832809226371" lon="13.563356922314878"><ele>63.0</ele><time>2026-04-05T15:01:25Z</time></trkpt><trkpt lat="45.84815650544607" lon="13.563379054455377"><ele>65.66666666666667</ele><time>2026-04-05T15:01:26Z</time></trkpt><trkpt lat="45.84798865808984" lon="13.563403708620568"><ele>68.33333333333334</ele><time>2026-04-05T15:01:27Z</time></trkpt><trkpt lat="45.847820489658474" lon="13.563414763557276"><ele>71.0</ele><time>2026-04-05T15:01:28Z</time></trkpt><trkpt lat="45.84765258085642" lon="13.56340270857903"><ele>71.66666666666667</ele><time>2026-04-05T15:01:29Z</time></trkpt><trkpt lat="45.84748731579252" lon="13.563370710815967"><ele>72.33333333333333</ele><time>2026-04-05T15:01:30Z</time></trkpt><trkpt lat="45.84732380953395" lon="13.56332665885903"><ele>73.0</ele><time>2026-04-05T15:01:31Z</time></trkpt><trkpt lat="45.84716017224184" lon="13.563263485869339"><ele>73.0</ele><time>2026-04-05T15:01:32Z</time></trkpt><trkpt lat="45.84699839067144" lon="13.563190664385553"><ele>73.0</ele><time>2026-04-05T15:01:33Z</time></trkpt><trkpt lat="45.846833941677964" lon="13.563117155939384"><ele>73.0</ele><time>2026-04-05T15:01:34Z</time></trkpt><trkpt lat="45.84666753508947" lon="13.563047924126293"><ele>70.66666666666666</ele><time>2026-04-05T15:01:35Z</time></trkpt><trkpt lat="45.8465007408684" lon="13.562975156789555"><ele>68.33333333333333</ele><time>2026-04-05T15:01:36Z</time></trkpt><trkpt lat="45.84633403230209" lon="13.56289959637484"><ele>66.0</ele><time>2026-04-05T15:01:37Z</time></trkpt><trkpt lat="45.846168413259264" lon="13.562826972635655"><ele>69.66666666666667</ele><time>2026-04-05T15:01:38Z</time></trkpt><trkpt lat="45.846000426456264" lon="13.562750128557106"><ele>73.33333333333334</ele><time>2026-04-05T15:01:39Z</time></trkpt><trkpt lat="45.84582807541307" lon="13.562672990277179"><ele>77.0</ele><time>2026-04-05T15:01:40Z</time></trkpt><trkpt lat="45.845656726776916" lon="13.562596738649471"><ele>77.0</ele><time>2026-04-05T15:01:41Z</time></trkpt><trkpt lat="45.84548309353743" lon="13.562516861748229"><ele>77.0</ele><time>2026-04-05T15:01:42Z</time></trkpt><trkpt lat="45.845305148248876" lon="13.562438295086228"><ele>77.0</ele><time>2026-04-05T15:01:43Z</time></trkpt><trkpt lat="45.84512827980543" lon="13.562359796365927"><ele>75.33333333333334</ele><time>2026-04-05T15:01:44Z</time></trkpt><trkpt lat="45.844951268616505" lon="13.562281479242932"><ele>73.66666666666667</ele><time>2026-04-05T15:01:45Z</time></trkpt><trkpt lat="45.84477482045837" lon="13.562203176914654"><ele>72.0</ele><time>2026-04-05T15:01:46Z</time></trkpt><trkpt lat="45.844596806344214" lon="13.562124270447814"><ele>72.0</ele><time>2026-04-05T15:01:47Z</time></trkpt><trkpt lat="45.8444191869055" lon="13.562045518289995"><ele>72.0</ele><time>2026-04-05T15:01:48Z</time></trkpt><trkpt lat="45.84424161306077" lon="13.561967130654502"><ele>72.0</ele><time>2026-04-05T15:01:49Z</time></trkpt><trkpt lat="45.84406621898462" lon="13.561889779498195"><ele>74.0</ele><time>2026-04-05T15:01:50Z</time></trkpt><trkpt lat="45.84389193546901" lon="13.561811796652776"><ele>76.0</ele><time>2026-04-05T15:01:51Z</time></trkpt><trkpt lat="45.8437157594763" lon="13.561732982672062"><ele>78.0</ele><time>2026-04-05T15:01:52Z</time></trkpt><trkpt lat="45.843541071648886" lon="13.561657376390903"><ele>77.33333333333333</ele><time>2026-04-05T15:01:53Z</time></trkpt><trkpt lat="45.84336689783691" lon="13.561583526149063"><ele>76.66666666666666</ele><time>2026-04-05T15:01:54Z</time></trkpt><trkpt lat="45.84319153618311" lon="13.561521713318001"><ele>76.0</ele><time>2026-04-05T15:01:55Z</time></trkpt><trkpt lat="45.84301605015696" lon="13.561472947340102"><ele>76.0</ele><time>2026-04-05T15:01:56Z</time></trkpt><trkpt lat="45.84283642612031" lon="13.561437324445185"><ele>76.0</ele><time>2026-04-05T15:01:57Z</time></trkpt><trkpt lat="45.84266000117067" lon="13.561406303046533"><ele>76.0</ele><time>2026-04-05T15:01:58Z</time></trkpt><trkpt lat="45.84248213287472" lon="13.561383907649972"><ele>75.66666666666666</ele><time>2026-04-05T15:01:59Z</time></trkpt><trkpt lat="45.84230337266209" lon="13.561373369765478"><ele>75.33333333333333</ele><time>2026-04-05T15:02:00Z</time></trkpt><trkpt lat="45.84212348890872" lon="13.561372753190167"><ele>75.0</ele><time>2026-04-05T15:02:01Z</time></trkpt><trkpt lat="45.84194268036155" lon="13.561384489737613"><ele>74.33333333333333</ele><time>2026-04-05T15:02:02Z</time></trkpt><trkpt lat="45.841761028903306" lon="13.561408809726531"><ele>73.66666666666666</ele><time>2026-04-05T15:02:03Z</time></trkpt><trkpt lat="45.841579209514734" lon="13.561444118142433"><ele>73.0</ele><time>2026-04-05T15:02:04Z</time></trkpt><trkpt lat="45.84139489398714" lon="13.561490460332084"><ele>73.0</ele><time>2026-04-05T15:02:05Z</time></trkpt><trkpt lat="45.84120821076277" lon="13.561550421065933"><ele>73.0</ele><time>2026-04-05T15:02:06Z</time></trkpt><trkpt lat="45.841021102862975" lon="13.561622206192784"><ele>73.0</ele><time>2026-04-05T15:02:07Z</time></trkpt><trkpt lat="45.840835009764746" lon="13.561705966984906"><ele>72.0</ele><time>2026-04-05T15:02:08Z</time></trkpt><trkpt lat="45.84065197611573" lon="13.56180481600963"><ele>71.0</ele><time>2026-04-05T15:02:09Z</time></trkpt><trkpt lat="45.84047049521775" lon="13.56191289539333"><ele>70.0</ele><time>2026-04-05T15:02:10Z</time></trkpt><trkpt lat="45.84029193368636" lon="13.562035666622114"><ele>71.66666666666666</ele><time>2026-04-05T15:02:11Z</time></trkpt><trkpt lat="45.840116025865655" lon="13.562169030271244"><ele>73.33333333333333</ele><time>2026-04-05T15:02:12Z</time></trkpt><trkpt lat="45.8399430579065" lon="13.562309538680456"><ele>75.0</ele><time>2026-04-05T15:02:13Z</time></trkpt><trkpt lat="45.83977739072474" lon="13.562465810468368"><ele>75.0</ele><time>2026-04-05T15:02:14Z</time></trkpt><trkpt lat="45.839618332347854" lon="13.562634222672987"><ele>75.0</ele><time>2026-04-05T15:02:15Z</time></trkpt><trkpt lat="45.839463416847074" lon="13.562813012738852"><ele>75.0</ele><time>2026-04-05T15:02:16Z</time></trkpt><trkpt lat="45.83931250673081" lon="13.562996368013419"><ele>76.66666666666667</ele><time>2026-04-05T15:02:17Z</time></trkpt><trkpt lat="45.8391673919341" lon="13.563190101764189"><ele>78.33333333333334</ele><time>2026-04-05T15:02:18Z</time></trkpt><trkpt lat="45.8390315929569" lon="13.563394496576358"><ele>80.0</ele><time>2026-04-05T15:02:19Z</time></trkpt><trkpt lat="45.83890221098424" lon="13.563607025766425"><ele>77.33333333333334</ele><time>2026-04-05T15:02:20Z</time></trkpt><trkpt lat="45.838775884367124" lon="13.563819964745015"><ele>74.66666666666667</ele><time>2026-04-05T15:02:21Z</time></trkpt><trkpt lat="45.83864822284583" lon="13.564028579440212"><ele>72.0</ele><time>2026-04-05T15:02:22Z</time></trkpt><trkpt lat="45.83852143856213" lon="13.564231456771795"><ele>75.0</ele><time>2026-04-05T15:02:23Z</time></trkpt><trkpt lat="45.83840051645471" lon="13.56443013943881"><ele>78.0</ele><time>2026-04-05T15:02:24Z</time></trkpt><trkpt lat="45.838280480659606" lon="13.564624706169196"><ele>81.0</ele><time>2026-04-05T15:02:25Z</time></trkpt><trkpt lat="45.83816210487268" lon="13.564804369463598"><ele>81.0</ele><time>2026-04-05T15:02:26Z</time></trkpt><trkpt lat="45.8380356802738" lon="13.564971743404586"><ele>81.0</ele><time>2026-04-05T15:02:27Z</time></trkpt><trkpt lat="45.83790083493819" lon="13.565122667538564"><ele>81.0</ele><time>2026-04-05T15:02:28Z</time></trkpt><trkpt lat="45.837759950592705" lon="13.565263442715514"><ele>82.0</ele><time>2026-04-05T15:02:29Z</time></trkpt><trkpt lat="45.83761870507223" lon="13.565398827427565"><ele>83.0</ele><time>2026-04-05T15:02:30Z</time></trkpt><trkpt lat="45.83747749285023" lon="13.565526953524696"><ele>84.0</ele><time>2026-04-05T15:02:31Z</time></trkpt><trkpt lat="45.83733291352852" lon="13.565637178956733"><ele>84.0</ele><time>2026-04-05T15:02:32Z</time></trkpt><trkpt lat="45.837182465396744" lon="13.565721826468094"><ele>84.0</ele><time>2026-04-05T15:02:33Z</time></trkpt><trkpt lat="45.8370217665564" lon="13.565771091303121"><ele>84.0</ele><time>2026-04-05T15:02:34Z</time></trkpt><trkpt lat="45.836854472625994" lon="13.565802846171518"><ele>85.0</ele><time>2026-04-05T15:02:35Z</time></trkpt><trkpt lat="45.83668500217789" lon="13.565827308202163"><ele>86.0</ele><time>2026-04-05T15:02:36Z</time></trkpt><trkpt lat="45.83651380126173" lon="13.56585465529209"><ele>87.0</ele><time>2026-04-05T15:02:37Z</time></trkpt><trkpt lat="45.8363433029136" lon="13.565882362560538"><ele>87.0</ele><time>2026-04-05T15:02:38Z</time></trkpt><trkpt lat="45.836171838762596" lon="13.565911690504498"><ele>87.0</ele><time>2026-04-05T15:02:39Z</time></trkpt><trkpt lat="45.83599964702922" lon="13.565938204751042"><ele>87.0</ele><time>2026-04-05T15:02:40Z</time></trkpt><trkpt lat="45.835826406202756" lon="13.565964831583031"><ele>87.0</ele><time>2026-04-05T15:02:41Z</time></trkpt><trkpt lat="45.83565632131697" lon="13.565994546044758"><ele>87.0</ele><time>2026-04-05T15:02:42Z</time></trkpt><trkpt lat="45.835489372117976" lon="13.56604542528914"><ele>87.0</ele><time>2026-04-05T15:02:42.999Z</time></trkpt><trkpt lat="45.835325775228206" lon="13.566122530510073"><ele>87.33333333333333</ele><time>2026-04-05T15:02:43.999Z</time></trkpt><trkpt lat="45.83516522593456" lon="13.566218224662482"><ele>87.66666666666666</ele><time>2026-04-05T15:02:44.999Z</time></trkpt><trkpt lat="45.83500783667593" lon="13.566338562411634"><ele>88.0</ele><time>2026-04-05T15:02:46Z</time></trkpt><trkpt lat="45.834853913805176" lon="13.566477801889844"><ele>87.33333333333333</ele><time>2026-04-05T15:02:47Z</time></trkpt><trkpt lat="45.83470487580819" lon="13.566630893987147"><ele>86.66666666666667</ele><time>2026-04-05T15:02:48Z</time></trkpt><trkpt lat="45.834555647293165" lon="13.566793151493075"><ele>86.0</ele><time>2026-04-05T15:02:49Z</time></trkpt><trkpt lat="45.83440178567146" lon="13.566953421487545"><ele>85.66666666666667</ele><time>2026-04-05T15:02:50Z</time></trkpt><trkpt lat="45.83424776957914" lon="13.567113801881035"><ele>85.33333333333333</ele><time>2026-04-05T15:02:51Z</time></trkpt><trkpt lat="45.834096500389826" lon="13.567277399001494"><ele>85.0</ele><time>2026-04-05T15:02:52Z</time></trkpt><trkpt lat="45.8339466974287" lon="13.567442672126873"><ele>85.0</ele><time>2026-04-05T15:02:53Z</time></trkpt><trkpt lat="45.83380285661528" lon="13.567614059929658"><ele>85.0</ele><time>2026-04-05T15:02:54Z</time></trkpt><trkpt lat="45.83366563198582" lon="13.567795600853511"><ele>85.0</ele><time>2026-04-05T15:02:55Z</time></trkpt><trkpt lat="45.83353170907884" lon="13.567983914564847"><ele>85.0</ele><time>2026-04-05T15:02:56Z</time></trkpt><trkpt lat="45.833400490503074" lon="13.568174086957926"><ele>85.0</ele><time>2026-04-05T15:02:57Z</time></trkpt><trkpt lat="45.83327011371339" lon="13.568361561014138"><ele>85.0</ele><time>2026-04-05T15:02:58Z</time></trkpt><trkpt lat="45.83313875460553" lon="13.56853656652336"><ele>93.66666666666666</ele><time>2026-04-05T15:02:59Z</time></trkpt><trkpt lat="45.833006037018826" lon="13.568695594887641"><ele>102.33333333333333</ele><time>2026-04-05T15:03:00Z</time></trkpt><trkpt lat="45.83286844775295" lon="13.568838269530001"><ele>111.0</ele><time>2026-04-05T15:03:01Z</time></trkpt><trkpt lat="45.832721717714215" lon="13.568962605139918"><ele>101.66666666666667</ele><time>2026-04-05T15:03:02Z</time></trkpt><trkpt lat="45.8325706468275" lon="13.569072457519932"><ele>92.33333333333334</ele><time>2026-04-05T15:03:03Z</time></trkpt><trkpt lat="45.83242312836129" lon="13.569183106354899"><ele>83.0</ele><time>2026-04-05T15:03:04Z</time></trkpt><trkpt lat="45.83227746389386" lon="13.569300074528226"><ele>83.0</ele><time>2026-04-05T15:03:05Z</time></trkpt><trkpt lat="45.8321349148175" lon="13.569426080712375"><ele>83.0</ele><time>2026-04-05T15:03:06Z</time></trkpt><trkpt lat="45.83199774751094" lon="13.569567708979207"><ele>83.0</ele><time>2026-04-05T15:03:07Z</time></trkpt><trkpt lat="45.83186811311696" lon="13.569725323475144"><ele>82.0</ele><time>2026-04-05T15:03:08Z</time></trkpt><trkpt lat="45.831742600616835" lon="13.569893072713871"><ele>81.0</ele><time>2026-04-05T15:03:09Z</time></trkpt><trkpt lat="45.831613420823224" lon="13.570058907732427"><ele>80.0</ele><time>2026-04-05T15:03:10Z</time></trkpt><trkpt lat="45.83148083343744" lon="13.570225793222031"><ele>87.33333333333334</ele><time>2026-04-05T15:03:11Z</time></trkpt><trkpt lat="45.83134489504857" lon="13.570395397941152"><ele>94.66666666666667</ele><time>2026-04-05T15:03:12Z</time></trkpt><trkpt lat="45.83120601985703" lon="13.57056479953393"><ele>102.0</ele><time>2026-04-05T15:03:13Z</time></trkpt><trkpt lat="45.83107045085927" lon="13.570734914594839"><ele>97.33333333333333</ele><time>2026-04-05T15:03:14Z</time></trkpt><trkpt lat="45.83093767336817" lon="13.57090812268149"><ele>92.66666666666666</ele><time>2026-04-05T15:03:15Z</time></trkpt><trkpt lat="45.830804666388644" lon="13.57108411208864"><ele>88.0</ele><time>2026-04-05T15:03:16Z</time></trkpt><trkpt lat="45.830680154750645" lon="13.571271540723927"><ele>88.0</ele><time>2026-04-05T15:03:17Z</time></trkpt><trkpt lat="45.83056546094013" lon="13.571469538169502"><ele>88.0</ele><time>2026-04-05T15:03:18Z</time></trkpt><trkpt lat="45.83045985800622" lon="13.571679167426"><ele>88.0</ele><time>2026-04-05T15:03:19Z</time></trkpt><trkpt lat="45.83035313475879" lon="13.571885034757265"><ele>91.33333333333333</ele><time>2026-04-05T15:03:20Z</time></trkpt><trkpt lat="45.83024536641013" lon="13.572092069723483"><ele>94.66666666666666</ele><time>2026-04-05T15:03:21Z</time></trkpt><trkpt lat="45.830137804245474" lon="13.57230014595851"><ele>98.0</ele><time>2026-04-05T15:03:22Z</time></trkpt><trkpt lat="45.83002942629711" lon="13.572508996940488"><ele>91.0</ele><time>2026-04-05T15:03:23Z</time></trkpt><trkpt lat="45.82992055701312" lon="13.572717624887726"><ele>84.0</ele><time>2026-04-05T15:03:24Z</time></trkpt><trkpt lat="45.82981060461784" lon="13.572926709529543"><ele>77.0</ele><time>2026-04-05T15:03:25Z</time></trkpt><trkpt lat="45.82969859734687" lon="13.57313568766264"><ele>77.0</ele><time>2026-04-05T15:03:26Z</time></trkpt><trkpt lat="45.82958478709601" lon="13.573340706261813"><ele>77.0</ele><time>2026-04-05T15:03:27Z</time></trkpt><trkpt lat="45.829464836380374" lon="13.573544472981125"><ele>77.0</ele><time>2026-04-05T15:03:28Z</time></trkpt><trkpt lat="45.829335211693916" lon="13.573742876959045"><ele>73.33333333333334</ele><time>2026-04-05T15:03:29Z</time></trkpt><trkpt lat="45.82919118472361" lon="13.573930785861663"><ele>69.66666666666667</ele><time>2026-04-05T15:03:30Z</time></trkpt><trkpt lat="45.82904100881137" lon="13.574111862489444"><ele>66.0</ele><time>2026-04-05T15:03:31Z</time></trkpt><trkpt lat="45.82889118127255" lon="13.574292553207203"><ele>66.0</ele><time>2026-04-05T15:03:32Z</time></trkpt><trkpt lat="45.828740773969095" lon="13.574470147744501"><ele>66.0</ele><time>2026-04-05T15:03:33Z</time></trkpt><trkpt lat="45.82859377149163" lon="13.574649518280168"><ele>66.0</ele><time>2026-04-05T15:03:34Z</time></trkpt><trkpt lat="45.82845599665647" lon="13.574834556626596"><ele>66.33333333333333</ele><time>2026-04-05T15:03:35Z</time></trkpt><trkpt lat="45.82832525850505" lon="13.575024947267226"><ele>66.66666666666666</ele><time>2026-04-05T15:03:36Z</time></trkpt><trkpt lat="45.82820085537012" lon="13.575217231208642"><ele>67.0</ele><time>2026-04-05T15:03:37Z</time></trkpt><trkpt lat="45.82807653451358" lon="13.575413831569529"><ele>67.0</ele><time>2026-04-05T15:03:38Z</time></trkpt><trkpt lat="45.82795329544233" lon="13.575611780442314"><ele>67.0</ele><time>2026-04-05T15:03:39Z</time></trkpt><trkpt lat="45.827828164264744" lon="13.575802670888768"><ele>67.0</ele><time>2026-04-05T15:03:40Z</time></trkpt><trkpt lat="45.82770554554632" lon="13.57599500075063"><ele>63.666666666666664</ele><time>2026-04-05T15:03:41Z</time></trkpt><trkpt lat="45.827584508703126" lon="13.57618746456683"><ele>60.33333333333333</ele><time>2026-04-05T15:03:42Z</time></trkpt><trkpt lat="45.82746546530625" lon="13.57637539573105"><ele>57.0</ele><time>2026-04-05T15:03:43Z</time></trkpt><trkpt lat="45.82735072310049" lon="13.576558396864"><ele>57.0</ele><time>2026-04-05T15:03:44Z</time></trkpt><trkpt lat="45.827235299295964" lon="13.576738676477326"><ele>57.0</ele><time>2026-04-05T15:03:45Z</time></trkpt><trkpt lat="45.827115365689565" lon="13.576913251734561"><ele>57.0</ele><time>2026-04-05T15:03:46Z</time></trkpt><trkpt lat="45.82698170491636" lon="13.577072676411529"><ele>59.0</ele><time>2026-04-05T15:03:47Z</time></trkpt><trkpt lat="45.826835016527305" lon="13.577216123379431"><ele>61.0</ele><time>2026-04-05T15:03:48Z</time></trkpt><trkpt lat="45.8266733264015" lon="13.577340106382731"><ele>63.0</ele><time>2026-04-05T15:03:49Z</time></trkpt><trkpt lat="45.8265061960761" lon="13.57744468845841"><ele>58.66666666666667</ele><time>2026-04-05T15:03:50Z</time></trkpt><trkpt lat="45.82633501528588" lon="13.577526765442762"><ele>54.333333333333336</ele><time>2026-04-05T15:03:51Z</time></trkpt><trkpt lat="45.826159985464166" lon="13.57759094549179"><ele>50.0</ele><time>2026-04-05T15:03:52Z</time></trkpt><trkpt lat="45.82598345855876" lon="13.577642956481121"><ele>49.0</ele><time>2026-04-05T15:03:53Z</time></trkpt><trkpt lat="45.825805873497536" lon="13.577693343896291"><ele>48.0</ele><time>2026-04-05T15:03:54Z</time></trkpt><trkpt lat="45.82562934635761" lon="13.577751524478924"><ele>47.0</ele><time>2026-04-05T15:03:55Z</time></trkpt><trkpt lat="45.825452030321756" lon="13.577812427070945"><ele>46.666666666666664</ele><time>2026-04-05T15:03:56Z</time></trkpt><trkpt lat="45.825266616933014" lon="13.577872414038836"><ele>46.333333333333336</ele><time>2026-04-05T15:03:57Z</time></trkpt><trkpt lat="45.825078884010715" lon="13.577933427177475"><ele>46.0</ele><time>2026-04-05T15:03:58Z</time></trkpt><trkpt lat="45.8248893526795" lon="13.577994869348847"><ele>46.0</ele><time>2026-04-05T15:03:59Z</time></trkpt><trkpt lat="45.82469956248113" lon="13.5780587252906"><ele>46.0</ele><time>2026-04-05T15:04:00Z</time></trkpt><trkpt lat="45.8245083190425" lon="13.578120200724427"><ele>46.0</ele><time>2026-04-05T15:04:01Z</time></trkpt><trkpt lat="45.824319493080395" lon="13.578180543316922"><ele>44.0</ele><time>2026-04-05T15:04:02Z</time></trkpt><trkpt lat="45.82413246579238" lon="13.57824108599394"><ele>42.0</ele><time>2026-04-05T15:04:03Z</time></trkpt><trkpt lat="45.82395015874059" lon="13.578302819172945"><ele>40.0</ele><time>2026-04-05T15:04:04Z</time></trkpt><trkpt lat="45.82376708680032" lon="13.578364735193675"><ele>40.0</ele><time>2026-04-05T15:04:05Z</time></trkpt><trkpt lat="45.82358875307657" lon="13.578424894612828"><ele>40.0</ele><time>2026-04-05T15:04:06Z</time></trkpt><trkpt lat="45.823413173758375" lon="13.578479493072406"><ele>40.0</ele><time>2026-04-05T15:04:07Z</time></trkpt><trkpt lat="45.823240382838236" lon="13.57853649619118"><ele>39.66666666666667</ele><time>2026-04-05T15:04:08Z</time></trkpt><trkpt lat="45.823068474869956" lon="13.578590798731694"><ele>39.333333333333336</ele><time>2026-04-05T15:04:09Z</time></trkpt><trkpt lat="45.822895966673" lon="13.57864698684303"><ele>39.0</ele><time>2026-04-05T15:04:10Z</time></trkpt><trkpt lat="45.82272431571793" lon="13.578701789181892"><ele>39.0</ele><time>2026-04-05T15:04:11Z</time></trkpt><trkpt lat="45.82255702666734" lon="13.578754841042848"><ele>39.0</ele><time>2026-04-05T15:04:12Z</time></trkpt><trkpt lat="45.82239224191203" lon="13.57880817166998"><ele>39.0</ele><time>2026-04-05T15:04:13Z</time></trkpt><trkpt lat="45.822228030297545" lon="13.578863408860737"><ele>39.0</ele><time>2026-04-05T15:04:14Z</time></trkpt><trkpt lat="45.822065373731185" lon="13.578916645875191"><ele>39.0</ele><time>2026-04-05T15:04:15Z</time></trkpt><trkpt lat="45.82190251778301" lon="13.578968746327286"><ele>39.0</ele><time>2026-04-05T15:04:16Z</time></trkpt><trkpt lat="45.8217393692598" lon="13.579017532065865"><ele>39.666666666666664</ele><time>2026-04-05T15:04:17Z</time></trkpt><trkpt lat="45.821575297938075" lon="13.579071628791292"><ele>40.33333333333333</ele><time>2026-04-05T15:04:18Z</time></trkpt><trkpt lat="45.82141039495048" lon="13.579127330101429"><ele>41.0</ele><time>2026-04-05T15:04:19Z</time></trkpt><trkpt lat="45.82124797851294" lon="13.579179575190764"><ele>41.0</ele><time>2026-04-05T15:04:20Z</time></trkpt><trkpt lat="45.821091077750985" lon="13.579232360314968"><ele>41.0</ele><time>2026-04-05T15:04:21Z</time></trkpt><trkpt lat="45.82094483036796" lon="13.579287926733942"><ele>41.0</ele><time>2026-04-05T15:04:22Z</time></trkpt><trkpt lat="45.820797327219765" lon="13.579349729443638"><ele>41.0</ele><time>2026-04-05T15:04:23Z</time></trkpt><trkpt lat="45.82065336702808" lon="13.579417500418026"><ele>41.0</ele><time>2026-04-05T15:04:24Z</time></trkpt><trkpt lat="45.82048848289915" lon="13.579385699857458"><ele>41.0</ele><time>2026-04-05T15:04:25Z</time></trkpt><trkpt lat="45.8203677181903" lon="13.579551899099808"><ele>41.0</ele><time>2026-04-05T15:04:26Z</time></trkpt><trkpt lat="45.820221963674285" lon="13.579612385418775"><ele>41.0</ele><time>2026-04-05T15:04:27Z</time></trkpt><trkpt lat="45.82007230986824" lon="13.57966722504877"><ele>41.0</ele><time>2026-04-05T15:04:28Z</time></trkpt><trkpt lat="45.81991245000281" lon="13.57970530459318"><ele>42.0</ele><time>2026-04-05T15:04:29Z</time></trkpt><trkpt lat="45.81974679787966" lon="13.579720182079388"><ele>43.0</ele><time>2026-04-05T15:04:30Z</time></trkpt><trkpt lat="45.81958142912697" lon="13.579716912724644"><ele>44.0</ele><time>2026-04-05T15:04:31Z</time></trkpt><trkpt lat="45.819415171892835" lon="13.579694068193888"><ele>44.33333333333333</ele><time>2026-04-05T15:04:32Z</time></trkpt><trkpt lat="45.8192534441044" lon="13.57964660460129"><ele>44.666666666666664</ele><time>2026-04-05T15:04:33Z</time></trkpt><trkpt lat="45.81909703366334" lon="13.57957560180046"><ele>45.0</ele><time>2026-04-05T15:04:34Z</time></trkpt><trkpt lat="45.81894442809526" lon="13.579488542887947"><ele>45.666666666666664</ele><time>2026-04-05T15:04:35Z</time></trkpt><trkpt lat="45.81879850292916" lon="13.57938716371206"><ele>46.33333333333333</ele><time>2026-04-05T15:04:36Z</time></trkpt><trkpt lat="45.818659042064844" lon="13.57926373626424"><ele>47.0</ele><time>2026-04-05T15:04:37Z</time></trkpt><trkpt lat="45.81852613712931" lon="13.579123797364076"><ele>46.0</ele><time>2026-04-05T15:04:38Z</time></trkpt><trkpt lat="45.81840433212566" lon="13.578969655207954"><ele>45.0</ele><time>2026-04-05T15:04:39Z</time></trkpt><trkpt lat="45.818289967647" lon="13.578798173793828"><ele>44.0</ele><time>2026-04-05T15:04:40Z</time></trkpt><trkpt lat="45.818188302634056" lon="13.578614615641595"><ele>44.0</ele><time>2026-04-05T15:04:41Z</time></trkpt><trkpt lat="45.818098584354466" lon="13.578413185723917"><ele>44.0</ele><time>2026-04-05T15:04:42Z</time></trkpt><trkpt lat="45.818018880524" lon="13.578193841975994"><ele>44.0</ele><time>2026-04-05T15:04:42.999Z</time></trkpt><trkpt lat="45.817938069063075" lon="13.577968733182875"><ele>46.33333333333333</ele><time>2026-04-05T15:04:43.999Z</time></trkpt><trkpt lat="45.81784827355493" lon="13.57774706345185"><ele>48.666666666666664</ele><time>2026-04-05T15:04:44.999Z</time></trkpt><trkpt lat="45.817754680436444" lon="13.577533762562338"><ele>51.0</ele><time>2026-04-05T15:04:45.999Z</time></trkpt><trkpt lat="45.81765652759274" lon="13.577325921573793"><ele>48.666666666666664</ele><time>2026-04-05T15:04:46.999Z</time></trkpt><trkpt lat="45.817555638660714" lon="13.577119192385565"><ele>46.33333333333333</ele><time>2026-04-05T15:04:47.999Z</time></trkpt><trkpt lat="45.81744895471789" lon="13.576914935797278"><ele>44.0</ele><time>2026-04-05T15:04:48.999Z</time></trkpt><trkpt lat="45.817341480328416" lon="13.576712618125738"><ele>44.0</ele><time>2026-04-05T15:04:49.999Z</time></trkpt><trkpt lat="45.81723189509033" lon="13.576517205759446"><ele>44.0</ele><time>2026-04-05T15:04:50.999Z</time></trkpt><trkpt lat="45.817117799190335" lon="13.576321529576848"><ele>44.0</ele><time>2026-04-05T15:04:52Z</time></trkpt><trkpt lat="45.81700094452301" lon="13.576129355671629"><ele>43.666666666666664</ele><time>2026-04-05T15:04:53Z</time></trkpt><trkpt lat="45.81688121827298" lon="13.575942255240815"><ele>43.333333333333336</ele><time>2026-04-05T15:04:54Z</time></trkpt><trkpt lat="45.81676132546831" lon="13.575758407913872"><ele>43.0</ele><time>2026-04-05T15:04:55Z</time></trkpt><trkpt lat="45.81663837835096" lon="13.575575885730148"><ele>43.0</ele><time>2026-04-05T15:04:56Z</time></trkpt><trkpt lat="45.81651029342648" lon="13.575393775123333"><ele>43.0</ele><time>2026-04-05T15:04:57Z</time></trkpt><trkpt lat="45.816381719860594" lon="13.57520972521518"><ele>43.0</ele><time>2026-04-05T15:04:58Z</time></trkpt><trkpt lat="45.81625682131559" lon="13.575025704649313"><ele>43.333333333333336</ele><time>2026-04-05T15:04:59Z</time></trkpt><trkpt lat="45.816131282668174" lon="13.574845680437837"><ele>43.666666666666664</ele><time>2026-04-05T15:05:00Z</time></trkpt><trkpt lat="45.81600549781452" lon="13.574669607208303"><ele>44.0</ele><time>2026-04-05T15:05:01Z</time></trkpt><trkpt lat="45.81588292312106" lon="13.574494145381939"><ele>44.0</ele><time>2026-04-05T15:05:02Z</time></trkpt><trkpt lat="45.81576061399227" lon="13.574325104299056"><ele>44.0</ele><time>2026-04-05T15:05:03Z</time></trkpt><trkpt lat="45.81563267980827" lon="13.57416681370252"><ele>44.0</ele><time>2026-04-05T15:05:04Z</time></trkpt><trkpt lat="45.815491471686315" lon="13.57403244877355"><ele>44.0</ele><time>2026-04-05T15:05:05Z</time></trkpt><trkpt lat="45.81534171611399" lon="13.573921338647308"><ele>44.0</ele><time>2026-04-05T15:05:06Z</time></trkpt><trkpt lat="45.815184183759214" lon="13.57383764390772"><ele>44.0</ele><time>2026-04-05T15:05:07Z</time></trkpt><trkpt lat="45.81501474719435" lon="13.57378361756878"><ele>42.33333333333333</ele><time>2026-04-05T15:05:08Z</time></trkpt><trkpt lat="45.81484288599495" lon="13.573761705708735"><ele>40.666666666666664</ele><time>2026-04-05T15:05:09Z</time></trkpt><trkpt lat="45.81467228744063" lon="13.573765432646201"><ele>39.0</ele><time>2026-04-05T15:05:10Z</time></trkpt><trkpt lat="45.81449608299487" lon="13.573798710926724"><ele>39.0</ele><time>2026-04-05T15:05:11Z</time></trkpt><trkpt lat="45.81432267705618" lon="13.573861898818128"><ele>39.0</ele><time>2026-04-05T15:05:12Z</time></trkpt><trkpt lat="45.81415292431424" lon="13.573956313805382"><ele>39.0</ele><time>2026-04-05T15:05:13Z</time></trkpt><trkpt lat="45.813986675773684" lon="13.574081021469494"><ele>40.333333333333336</ele><time>2026-04-05T15:05:14Z</time></trkpt><trkpt lat="45.8138277474179" lon="13.574226012890751"><ele>41.66666666666667</ele><time>2026-04-05T15:05:15Z</time></trkpt><trkpt lat="45.81366985924996" lon="13.574365325799853"><ele>43.0</ele><time>2026-04-05T15:05:16Z</time></trkpt><trkpt lat="45.813510319985916" lon="13.574501899637777"><ele>44.333333333333336</ele><time>2026-04-05T15:05:17Z</time></trkpt><trkpt lat="45.813357609504294" lon="13.57463810280924"><ele>45.666666666666664</ele><time>2026-04-05T15:05:18Z</time></trkpt><trkpt lat="45.81320463869419" lon="13.574771095292387"><ele>47.0</ele><time>2026-04-05T15:05:19Z</time></trkpt><trkpt lat="45.81305180779903" lon="13.574901841443545"><ele>47.0</ele><time>2026-04-05T15:05:20Z</time></trkpt><trkpt lat="45.812900952866634" lon="13.575032824909588"><ele>47.0</ele><time>2026-04-05T15:05:21Z</time></trkpt><trkpt lat="45.81275478200407" lon="13.575164675606526"><ele>47.0</ele><time>2026-04-05T15:05:22Z</time></trkpt><trkpt lat="45.812616107459235" lon="13.57530473917748"><ele>47.33333333333333</ele><time>2026-04-05T15:05:23Z</time></trkpt><trkpt lat="45.81248438762785" lon="13.575460453214001"><ele>47.666666666666664</ele><time>2026-04-05T15:05:24Z</time></trkpt><trkpt lat="45.812363261978625" lon="13.57563513064994"><ele>48.0</ele><time>2026-04-05T15:05:25Z</time></trkpt><trkpt lat="45.81225091254966" lon="13.575818424540179"><ele>48.0</ele><time>2026-04-05T15:05:26Z</time></trkpt><trkpt lat="45.812149188949746" lon="13.576008855241305"><ele>48.0</ele><time>2026-04-05T15:05:27Z</time></trkpt><trkpt lat="45.812057644539635" lon="13.57621052213877"><ele>48.0</ele><time>2026-04-05T15:05:28Z</time></trkpt><trkpt lat="45.81197216760547" lon="13.576420147358963"><ele>46.666666666666664</ele><time>2026-04-05T15:05:29Z</time></trkpt><trkpt lat="45.81189304199235" lon="13.576633242307896"><ele>45.33333333333333</ele><time>2026-04-05T15:05:30Z</time></trkpt><trkpt lat="45.81181960599103" lon="13.576849452171631"><ele>44.0</ele><time>2026-04-05T15:05:31Z</time></trkpt><trkpt lat="45.81174987050409" lon="13.577072368931514"><ele>48.0</ele><time>2026-04-05T15:05:32Z</time></trkpt><trkpt lat="45.81168326490743" lon="13.577300046241684"><ele>52.0</ele><time>2026-04-05T15:05:33Z</time></trkpt><trkpt lat="45.81162004931237" lon="13.577531103731285"><ele>56.0</ele><time>2026-04-05T15:05:34Z</time></trkpt><trkpt lat="45.811555394813794" lon="13.577756501186126"><ele>54.333333333333336</ele><time>2026-04-05T15:05:35Z</time></trkpt><trkpt lat="45.81148976942046" lon="13.577978941683897"><ele>52.66666666666667</ele><time>2026-04-05T15:05:36Z</time></trkpt><trkpt lat="45.81142527186536" lon="13.578201266765086"><ele>51.0</ele><time>2026-04-05T15:05:37Z</time></trkpt><trkpt lat="45.81136269980573" lon="13.578422881627123"><ele>51.0</ele><time>2026-04-05T15:05:38Z</time></trkpt><trkpt lat="45.81129780843229" lon="13.578637566403607"><ele>51.0</ele><time>2026-04-05T15:05:39Z</time></trkpt><trkpt lat="45.81121643795635" lon="13.578836723050193"><ele>51.0</ele><time>2026-04-05T15:05:40Z</time></trkpt><trkpt lat="45.811118705177385" lon="13.579018985315216"><ele>49.333333333333336</ele><time>2026-04-05T15:05:41Z</time></trkpt><trkpt lat="45.811009525879676" lon="13.579177789935443"><ele>47.66666666666667</ele><time>2026-04-05T15:05:42Z</time></trkpt><trkpt lat="45.8108913227209" lon="13.579309220246955"><ele>46.0</ele><time>2026-04-05T15:05:43Z</time></trkpt><trkpt lat="45.81076623847163" lon="13.579430334924291"><ele>49.0</ele><time>2026-04-05T15:05:44Z</time></trkpt><trkpt lat="45.8106419044173" lon="13.579548703759492"><ele>52.0</ele><time>2026-04-05T15:05:45Z</time></trkpt><trkpt lat="45.81052619930975" lon="13.57966131030797"><ele>55.0</ele><time>2026-04-05T15:05:46Z</time></trkpt><trkpt lat="45.81041104395106" lon="13.579773633195163"><ele>58.0</ele><time>2026-04-05T15:05:47Z</time></trkpt><trkpt lat="45.81029314490679" lon="13.579874043660292"><ele>58.0</ele><time>2026-04-05T15:05:48Z</time></trkpt><trkpt lat="45.81017248024808" lon="13.579958206563688"><ele>58.0</ele><time>2026-04-05T15:05:49Z</time></trkpt><trkpt lat="45.81004288118438" lon="13.580010365315033"><ele>58.0</ele><time>2026-04-05T15:05:50Z</time></trkpt><trkpt lat="45.80990294968356" lon="13.580048489639516"><ele>58.0</ele><time>2026-04-05T15:05:51Z</time></trkpt><trkpt lat="45.80975112021326" lon="13.580082350509025"><ele>60.666666666666664</ele><time>2026-04-05T15:05:52Z</time></trkpt><trkpt lat="45.80959379215834" lon="13.58012268376379"><ele>63.33333333333333</ele><time>2026-04-05T15:05:53Z</time></trkpt><trkpt lat="45.80942495823969" lon="13.58016398949724"><ele>66.0</ele><time>2026-04-05T15:05:54Z</time></trkpt><trkpt lat="45.8092458825815" lon="13.580205203344947"><ele>66.33333333333333</ele><time>2026-04-05T15:05:55Z</time></trkpt><trkpt lat="45.8090691004338" lon="13.580251548491407"><ele>66.66666666666666</ele><time>2026-04-05T15:05:56Z</time></trkpt><trkpt lat="45.80888670025549" lon="13.580299969397165"><ele>67.0</ele><time>2026-04-05T15:05:57Z</time></trkpt><trkpt lat="45.80869839627654" lon="13.580357060331425"><ele>67.66666666666666</ele><time>2026-04-05T15:05:58Z</time></trkpt><trkpt lat="45.808503827610856" lon="13.580427060574706"><ele>68.33333333333333</ele><time>2026-04-05T15:05:59Z</time></trkpt><trkpt lat="45.80830102394889" lon="13.580496483377594"><ele>69.0</ele><time>2026-04-05T15:06:00Z</time></trkpt><trkpt lat="45.80808898211912" lon="13.580558329646303"><ele>69.0</ele><time>2026-04-05T15:06:01Z</time></trkpt><trkpt lat="45.807881085667425" lon="13.580624778118068"><ele>69.0</ele><time>2026-04-05T15:06:02Z</time></trkpt><trkpt lat="45.807679862331284" lon="13.580690909114594"><ele>69.0</ele><time>2026-04-05T15:06:03Z</time></trkpt><trkpt lat="45.807486543479676" lon="13.580757581306889"><ele>66.0</ele><time>2026-04-05T15:06:04Z</time></trkpt><trkpt lat="45.80730693980323" lon="13.580839816305739"><ele>63.0</ele><time>2026-04-05T15:06:05Z</time></trkpt><trkpt lat="45.807140317691015" lon="13.58096424782251"><ele>60.0</ele><time>2026-04-05T15:06:06Z</time></trkpt><trkpt lat="45.806983376664746" lon="13.581131192646868"><ele>60.0</ele><time>2026-04-05T15:06:07Z</time></trkpt><trkpt lat="45.80683911175374" lon="13.581325783262653"><ele>60.0</ele><time>2026-04-05T15:06:08Z</time></trkpt><trkpt lat="45.8067107081602" lon="13.58153306963852"><ele>60.0</ele><time>2026-04-05T15:06:09Z</time></trkpt><trkpt lat="45.806582113597536" lon="13.58173398516074"><ele>60.0</ele><time>2026-04-05T15:06:10Z</time></trkpt><trkpt lat="45.80643509115457" lon="13.58190364782912"><ele>60.0</ele><time>2026-04-05T15:06:11Z</time></trkpt><trkpt lat="45.80627025490379" lon="13.58202224582804"><ele>60.0</ele><time>2026-04-05T15:06:12Z</time></trkpt><trkpt lat="45.806090107163115" lon="13.58208771173563"><ele>61.66666666666667</ele><time>2026-04-05T15:06:13Z</time></trkpt><trkpt lat="45.805893813775384" lon="13.582087255139541"><ele>63.333333333333336</ele><time>2026-04-05T15:06:14Z</time></trkpt><trkpt lat="45.80568826863911" lon="13.582063463223063"><ele>65.0</ele><time>2026-04-05T15:06:15Z</time></trkpt><trkpt lat="45.80548399629388" lon="13.582045647649435"><ele>65.0</ele><time>2026-04-05T15:06:16Z</time></trkpt><trkpt lat="45.80529037738243" lon="13.582034394044861"><ele>65.0</ele><time>2026-04-05T15:06:17Z</time></trkpt><trkpt lat="45.805103912684814" lon="13.582035889462736"><ele>65.0</ele><time>2026-04-05T15:06:18Z</time></trkpt><trkpt lat="45.804928021289925" lon="13.582077666861798"><ele>64.33333333333334</ele><time>2026-04-05T15:06:19Z</time></trkpt><trkpt lat="45.80477062611168" lon="13.582170294158354"><ele>63.66666666666667</ele><time>2026-04-05T15:06:20Z</time></trkpt><trkpt lat="45.80463049399862" lon="13.582304220010228"><ele>63.0</ele><time>2026-04-05T15:06:21Z</time></trkpt><trkpt lat="45.80451413163877" lon="13.582482914565233"><ele>63.0</ele><time>2026-04-05T15:06:22Z</time></trkpt><trkpt lat="45.80442367444756" lon="13.582686616349745"><ele>63.0</ele><time>2026-04-05T15:06:23Z</time></trkpt><trkpt lat="45.80436367206737" lon="13.582919912750482"><ele>63.0</ele><time>2026-04-05T15:06:24Z</time></trkpt><trkpt lat="45.804329513459784" lon="13.583168738295697"><ele>59.0</ele><time>2026-04-05T15:06:25Z</time></trkpt><trkpt lat="45.80431954913244" lon="13.583430376128081"><ele>55.0</ele><time>2026-04-05T15:06:26Z</time></trkpt><trkpt lat="45.804299954492095" lon="13.583694902567574"><ele>51.0</ele><time>2026-04-05T15:06:27Z</time></trkpt><trkpt lat="45.80428877995941" lon="13.5839380607572"><ele>51.0</ele><time>2026-04-05T15:06:28Z</time></trkpt><trkpt lat="45.804292998686684" lon="13.584162242916861"><ele>51.0</ele><time>2026-04-05T15:06:29Z</time></trkpt><trkpt lat="45.80426366711024" lon="13.584376780489618"><ele>51.0</ele><time>2026-04-05T15:06:30Z</time></trkpt><trkpt lat="45.80421035979964" lon="13.584592870031054"><ele>53.66666666666667</ele><time>2026-04-05T15:06:31Z</time></trkpt><trkpt lat="45.80412545832464" lon="13.58479845138885"><ele>56.333333333333336</ele><time>2026-04-05T15:06:32Z</time></trkpt><trkpt lat="45.804010411341935" lon="13.584987101037589"><ele>59.0</ele><time>2026-04-05T15:06:33Z</time></trkpt><trkpt lat="45.80386749646722" lon="13.585149994541082"><ele>59.0</ele><time>2026-04-05T15:06:34Z</time></trkpt><trkpt lat="45.80370129969399" lon="13.585299788998022"><ele>59.0</ele><time>2026-04-05T15:06:35Z</time></trkpt><trkpt lat="45.803526819067635" lon="13.585455656921868"><ele>59.0</ele><time>2026-04-05T15:06:36Z</time></trkpt><trkpt lat="45.80334781723042" lon="13.585620664395696"><ele>57.0</ele><time>2026-04-05T15:06:37Z</time></trkpt><trkpt lat="45.80316222042225" lon="13.585792428744808"><ele>55.0</ele><time>2026-04-05T15:06:38Z</time></trkpt><trkpt lat="45.802978224353396" lon="13.585969361549878"><ele>53.0</ele><time>2026-04-05T15:06:39Z</time></trkpt><trkpt lat="45.802801583454" lon="13.586142433527638"><ele>52.66666666666667</ele><time>2026-04-05T15:06:40Z</time></trkpt><trkpt lat="45.80263086390093" lon="13.586308986725326"><ele>52.33333333333333</ele><time>2026-04-05T15:06:41Z</time></trkpt><trkpt lat="45.80247455593408" lon="13.586490539869311"><ele>52.0</ele><time>2026-04-05T15:06:42Z</time></trkpt><trkpt lat="45.802329707441665" lon="13.58668283469836"><ele>52.0</ele><time>2026-04-05T15:06:43Z</time></trkpt><trkpt lat="45.802197956839706" lon="13.58688296277185"><ele>52.0</ele><time>2026-04-05T15:06:44Z</time></trkpt><trkpt lat="45.802072574192614" lon="13.587079615334758"><ele>52.0</ele><time>2026-04-05T15:06:45Z</time></trkpt><trkpt lat="45.801947875176005" lon="13.587265143205073"><ele>51.0</ele><time>2026-04-05T15:06:46Z</time></trkpt><trkpt lat="45.80183743011041" lon="13.587431536440672"><ele>50.0</ele><time>2026-04-05T15:06:47Z</time></trkpt><trkpt lat="45.80173419289048" lon="13.587582071235149"><ele>49.0</ele><time>2026-04-05T15:06:48Z</time></trkpt><trkpt lat="45.80163369656309" lon="13.587707199472376"><ele>48.0</ele><time>2026-04-05T15:06:49Z</time></trkpt><trkpt lat="45.80151482455709" lon="13.587794761099733"><ele>48.0</ele><time>2026-04-05T15:06:50Z</time></trkpt><trkpt lat="45.80137641307785" lon="13.587825028486682"><ele>48.0</ele><time>2026-04-05T15:06:51Z</time></trkpt><trkpt lat="45.80122618012258" lon="13.587779924631603"><ele>48.0</ele><time>2026-04-05T15:06:51.999Z</time></trkpt><trkpt lat="45.801082626396585" lon="13.587701038713039"><ele>48.0</ele><time>2026-04-05T15:06:52.999Z</time></trkpt><trkpt lat="45.80097252702956" lon="13.58762227559138"><ele>48.25</ele><time>2026-04-05T15:06:53.999Z</time></trkpt><trkpt lat="45.80088945060756" lon="13.587519587163458"><ele>48.5</ele><time>2026-04-05T15:06:54.999Z</time></trkpt><trkpt lat="45.8008272792879" lon="13.587378922888666"><ele>48.75</ele><time>2026-04-05T15:06:55.999Z</time></trkpt><trkpt lat="45.80078580274221" lon="13.587215269139087"><ele>49.0</ele><time>2026-04-05T15:06:56.999Z</time></trkpt><trkpt lat="45.80072355387384" lon="13.587081365703158"><ele>45.0</ele><time>2026-04-05T15:06:58Z</time></trkpt><trkpt lat="45.80062214153364" lon="13.586991931621121"><ele>41.0</ele><time>2026-04-05T15:06:59Z</time></trkpt><trkpt lat="45.80049421331737" lon="13.586938607245152"><ele>37.0</ele><time>2026-04-05T15:07:00Z</time></trkpt><trkpt lat="45.80035276075561" lon="13.586914593204137"><ele>33.0</ele><time>2026-04-05T15:07:01Z</time></trkpt><trkpt lat="45.80020490947537" lon="13.586886161358848"><ele>34.0</ele><time>2026-04-05T15:07:02Z</time></trkpt><trkpt lat="45.80006003996052" lon="13.586850457114764"><ele>35.0</ele><time>2026-04-05T15:07:03Z</time></trkpt><trkpt lat="45.799915210227596" lon="13.586837281715434"><ele>36.0</ele><time>2026-04-05T15:07:04Z</time></trkpt><trkpt lat="45.799780511717756" lon="13.586889266681899"><ele>37.0</ele><time>2026-04-05T15:07:05Z</time></trkpt><trkpt lat="45.79966353064223" lon="13.587015274168897"><ele>42.333333333333336</ele><time>2026-04-05T15:07:06Z</time></trkpt><trkpt lat="45.79956638689467" lon="13.58719698466662"><ele>47.66666666666667</ele><time>2026-04-05T15:07:07Z</time></trkpt><trkpt lat="45.79948743571125" lon="13.587407429630506"><ele>53.0</ele><time>2026-04-05T15:07:08Z</time></trkpt><trkpt lat="45.79940616598586" lon="13.58761539682338"><ele>52.0</ele><time>2026-04-05T15:07:09Z</time></trkpt><trkpt lat="45.799298614738774" lon="13.587796535947612"><ele>51.0</ele><time>2026-04-05T15:07:10Z</time></trkpt><trkpt lat="45.79916492994674" lon="13.587943957239567"><ele>50.0</ele><time>2026-04-05T15:07:11Z</time></trkpt><trkpt lat="45.79900637762247" lon="13.588052265442247"><ele>50.0</ele><time>2026-04-05T15:07:12Z</time></trkpt><trkpt lat="45.798824561849756" lon="13.588139030850964"><ele>50.0</ele><time>2026-04-05T15:07:13Z</time></trkpt><trkpt lat="45.79863174751873" lon="13.588232738799666"><ele>50.0</ele><time>2026-04-05T15:07:14Z</time></trkpt><trkpt lat="45.798433512473295" lon="13.588335062320704"><ele>47.0</ele><time>2026-04-05T15:07:15Z</time></trkpt><trkpt lat="45.798226129474166" lon="13.58844321480382"><ele>44.0</ele><time>2026-04-05T15:07:16Z</time></trkpt><trkpt lat="45.79802971288879" lon="13.588542410096718"><ele>41.0</ele><time>2026-04-05T15:07:17Z</time></trkpt><trkpt lat="45.797855719324666" lon="13.588629258962335"><ele>42.0</ele><time>2026-04-05T15:07:18Z</time></trkpt><trkpt lat="45.79769434787639" lon="13.588710061792758"><ele>43.0</ele><time>2026-04-05T15:07:19Z</time></trkpt><trkpt lat="45.797539235481054" lon="13.588790551190431"><ele>44.0</ele><time>2026-04-05T15:07:20Z</time></trkpt><trkpt lat="45.797387506777" lon="13.588864550280904"><ele>44.0</ele><time>2026-04-05T15:07:21Z</time></trkpt><trkpt lat="45.79723781448675" lon="13.588900430955885"><ele>44.0</ele><time>2026-04-05T15:07:22Z</time></trkpt><trkpt lat="45.79709253137279" lon="13.588873029899204"><ele>44.0</ele><time>2026-04-05T15:07:23Z</time></trkpt><trkpt lat="45.796960428730834" lon="13.5887868598234"><ele>44.0</ele><time>2026-04-05T15:07:24Z</time></trkpt><trkpt lat="45.796850283141886" lon="13.588633501565159"><ele>42.33333333333333</ele><time>2026-04-05T15:07:25Z</time></trkpt><trkpt lat="45.79674859827142" lon="13.588452311455006"><ele>40.666666666666664</ele><time>2026-04-05T15:07:26Z</time></trkpt><trkpt lat="45.79663972500461" lon="13.588250803090995"><ele>39.0</ele><time>2026-04-05T15:07:27Z</time></trkpt><trkpt lat="45.79651828907869" lon="13.58804884587613"><ele>39.0</ele><time>2026-04-05T15:07:28Z</time></trkpt><trkpt lat="45.796398320854266" lon="13.587854116676676"><ele>39.0</ele><time>2026-04-05T15:07:29Z</time></trkpt><trkpt lat="45.796268633756675" lon="13.587672521942993"><ele>39.0</ele><time>2026-04-05T15:07:30Z</time></trkpt><trkpt lat="45.796120333767256" lon="13.587521137842993"><ele>39.666666666666664</ele><time>2026-04-05T15:07:31Z</time></trkpt><trkpt lat="45.79596383751481" lon="13.587390344659575"><ele>40.33333333333333</ele><time>2026-04-05T15:07:32Z</time></trkpt><trkpt lat="45.79581047864967" lon="13.587261053295775"><ele>41.0</ele><time>2026-04-05T15:07:33Z</time></trkpt><trkpt lat="45.795661323361884" lon="13.587134818318352"><ele>41.0</ele><time>2026-04-05T15:07:34Z</time></trkpt><trkpt lat="45.79550951788096" lon="13.587036843891662"><ele>41.0</ele><time>2026-04-05T15:07:35Z</time></trkpt><trkpt lat="45.79535400191624" lon="13.586974986987242"><ele>41.0</ele><time>2026-04-05T15:07:36Z</time></trkpt><trkpt lat="45.79519570728178" lon="13.586956965418738"><ele>41.0</ele><time>2026-04-05T15:07:37Z</time></trkpt><trkpt lat="45.79503615637672" lon="13.586983590729437"><ele>41.0</ele><time>2026-04-05T15:07:38Z</time></trkpt><trkpt lat="45.7948800138873" lon="13.58705305902076"><ele>41.0</ele><time>2026-04-05T15:07:39Z</time></trkpt><trkpt lat="45.794735346587544" lon="13.587168325895432"><ele>41.0</ele><time>2026-04-05T15:07:40Z</time></trkpt><trkpt lat="45.794603163647096" lon="13.587324705448529"><ele>41.0</ele><time>2026-04-05T15:07:41Z</time></trkpt><trkpt lat="45.79448663114945" lon="13.587515866947227"><ele>41.0</ele><time>2026-04-05T15:07:42Z</time></trkpt><trkpt lat="45.794379521233324" lon="13.587730185820524"><ele>38.666666666666664</ele><time>2026-04-05T15:07:43Z</time></trkpt><trkpt lat="45.7942639422998" lon="13.587944975900147"><ele>36.333333333333336</ele><time>2026-04-05T15:07:44Z</time></trkpt><trkpt lat="45.79414178174967" lon="13.588153410641889"><ele>34.0</ele><time>2026-04-05T15:07:45Z</time></trkpt><trkpt lat="45.79402379401751" lon="13.588366544927405"><ele>34.0</ele><time>2026-04-05T15:07:46Z</time></trkpt><trkpt lat="45.793907190717576" lon="13.588580495823164"><ele>34.0</ele><time>2026-04-05T15:07:47Z</time></trkpt><trkpt lat="45.79379117598505" lon="13.588789760474471"><ele>34.0</ele><time>2026-04-05T15:07:48Z</time></trkpt><trkpt lat="45.79367899922376" lon="13.588995623810106"><ele>35.333333333333336</ele><time>2026-04-05T15:07:49Z</time></trkpt><trkpt lat="45.793569028403276" lon="13.58919627214812"><ele>36.666666666666664</ele><time>2026-04-05T15:07:50Z</time></trkpt><trkpt lat="45.79346127933852" lon="13.589391533909778"><ele>38.0</ele><time>2026-04-05T15:07:51Z</time></trkpt><trkpt lat="45.79335742911029" lon="13.589583423539459"><ele>35.0</ele><time>2026-04-05T15:07:52Z</time></trkpt><trkpt lat="45.79325073293544" lon="13.589767248447268"><ele>32.0</ele><time>2026-04-05T15:07:53Z</time></trkpt><trkpt lat="45.79313540929689" lon="13.58993508631495"><ele>29.0</ele><time>2026-04-05T15:07:54Z</time></trkpt><trkpt lat="45.79300700866847" lon="13.590080418530151"><ele>29.0</ele><time>2026-04-05T15:07:55Z</time></trkpt><trkpt lat="45.792866746000364" lon="13.590207339071997"><ele>29.0</ele><time>2026-04-05T15:07:56Z</time></trkpt><trkpt lat="45.79271722782675" lon="13.590313716002022"><ele>29.0</ele><time>2026-04-05T15:07:57Z</time></trkpt><trkpt lat="45.79256063033488" lon="13.590395674702911"><ele>28.0</ele><time>2026-04-05T15:07:58Z</time></trkpt><trkpt lat="45.792395026738625" lon="13.590447477473331"><ele>27.0</ele><time>2026-04-05T15:07:59Z</time></trkpt><trkpt lat="45.79222605969951" lon="13.590498538629362"><ele>26.0</ele><time>2026-04-05T15:08:00Z</time></trkpt><trkpt lat="45.79205242682202" lon="13.590555120072679"><ele>26.0</ele><time>2026-04-05T15:08:01Z</time></trkpt><trkpt lat="45.791875003771494" lon="13.590612464972645"><ele>26.0</ele><time>2026-04-05T15:08:02Z</time></trkpt><trkpt lat="45.7916953167211" lon="13.590668874935663"><ele>26.0</ele><time>2026-04-05T15:08:03Z</time></trkpt><trkpt lat="45.79152011013788" lon="13.590721345922256"><ele>25.0</ele><time>2026-04-05T15:08:04Z</time></trkpt><trkpt lat="45.79134737414006" lon="13.590774545445322"><ele>24.0</ele><time>2026-04-05T15:08:05Z</time></trkpt><trkpt lat="45.791177372155175" lon="13.590825873939103"><ele>23.0</ele><time>2026-04-05T15:08:06Z</time></trkpt><trkpt lat="45.79101001796444" lon="13.590879404268723"><ele>21.0</ele><time>2026-04-05T15:08:07Z</time></trkpt><trkpt lat="45.790849237925336" lon="13.590931279819904"><ele>19.0</ele><time>2026-04-05T15:08:08Z</time></trkpt><trkpt lat="45.79069270063753" lon="13.590974364765394"><ele>17.0</ele><time>2026-04-05T15:08:09Z</time></trkpt><trkpt lat="45.790541012525544" lon="13.591020250981085"><ele>17.0</ele><time>2026-04-05T15:08:10Z</time></trkpt><trkpt lat="45.790388788293846" lon="13.591065829811356"><ele>17.0</ele><time>2026-04-05T15:08:11Z</time></trkpt><trkpt lat="45.790234380554274" lon="13.591112190466742"><ele>17.0</ele><time>2026-04-05T15:08:12Z</time></trkpt><trkpt lat="45.79008045142423" lon="13.59115995204478"><ele>17.5</ele><time>2026-04-05T15:08:13Z</time></trkpt><trkpt lat="45.78992987317236" lon="13.59120773206587"><ele>18.0</ele><time>2026-04-05T15:08:14Z</time></trkpt><trkpt lat="45.78978716184421" lon="13.591252134971263"><ele>18.5</ele><time>2026-04-05T15:08:15Z</time></trkpt><trkpt lat="45.789654069627865" lon="13.591296931378439"><ele>19.0</ele><time>2026-04-05T15:08:16Z</time></trkpt><trkpt lat="45.78952019742046" lon="13.591341758165184"><ele>19.0</ele><time>2026-04-05T15:08:17Z</time></trkpt><trkpt lat="45.789396945753744" lon="13.591382165246875"><ele>19.0</ele><time>2026-04-05T15:08:18Z</time></trkpt><trkpt lat="45.78927785053534" lon="13.591426553209704"><ele>19.0</ele><time>2026-04-05T15:08:19Z</time></trkpt><trkpt lat="45.78915490831841" lon="13.591470329036966"><ele>19.0</ele><time>2026-04-05T15:08:20Z</time></trkpt><trkpt lat="45.789038278317705" lon="13.591510539071493"><ele>18.2</ele><time>2026-04-05T15:08:21Z</time></trkpt><trkpt lat="45.788932768365235" lon="13.591545015364291"><ele>17.4</ele><time>2026-04-05T15:08:22Z</time></trkpt><trkpt lat="45.78883376243041" lon="13.591582159664393"><ele>16.6</ele><time>2026-04-05T15:08:23Z</time></trkpt><trkpt lat="45.78874092054448" lon="13.591619793689667"><ele>15.8</ele><time>2026-04-05T15:08:24Z</time></trkpt><trkpt lat="45.78865306530317" lon="13.591650454926505"><ele>15.0</ele><time>2026-04-05T15:08:25Z</time></trkpt><trkpt lat="45.78857950560625" lon="13.59167297484174"><ele>13.5</ele><time>2026-04-05T15:08:26Z</time></trkpt><trkpt lat="45.78846737193682" lon="13.591714446179727"><ele>12.0</ele><time>2026-04-05T15:08:28Z</time></trkpt><trkpt lat="45.788395771737356" lon="13.591741767555934"><ele>10.5</ele><time>2026-04-05T15:08:30Z</time></trkpt><trkpt lat="45.788321436841386" lon="13.591766254889041"><ele>9.0</ele><time>2026-04-05T15:08:33Z</time></trkpt><trkpt lat="45.78824232417907" lon="13.591793382883022"><ele>7.5</ele><time>2026-04-05T15:08:36Z</time></trkpt><trkpt lat="45.788175377412315" lon="13.591814834894302"><ele>6.0</ele><time>2026-04-05T15:08:38Z</time></trkpt><trkpt lat="45.78810164759018" lon="13.591805390705485"><ele>6.0</ele><time>2026-04-05T15:08:41Z</time></trkpt><trkpt lat="45.78802567548805" lon="13.591775373589897"><ele>6.0</ele><time>2026-04-05T15:08:45Z</time></trkpt><trkpt lat="45.78796052336756" lon="13.591788109443817"><ele>6.0</ele><time>2026-04-05T15:08:46Z</time></trkpt><trkpt lat="45.78789999527058" lon="13.591855000155626"><ele>6.0</ele><time>2026-04-05T15:08:47Z</time></trkpt><trkpt lat="45.78783584522688" lon="13.591946463237285"><ele>6.0</ele><time>2026-04-05T15:08:48Z</time></trkpt><trkpt lat="45.78776227934743" lon="13.592042441193538"><ele>6.0</ele><time>2026-04-05T15:08:49Z</time></trkpt><trkpt lat="45.78768402183034" lon="13.592134662773333"><ele>6.6</ele><time>2026-04-05T15:08:50Z</time></trkpt><trkpt lat="45.78760747790904" lon="13.59223025909355"><ele>7.199999999999999</ele><time>2026-04-05T15:08:51Z</time></trkpt><trkpt lat="45.78753105609181" lon="13.592329231996574"><ele>7.800000000000001</ele><time>2026-04-05T15:08:52Z</time></trkpt><trkpt lat="45.787452927802555" lon="13.592425275462233"><ele>8.4</ele><time>2026-04-05T15:08:53Z</time></trkpt><trkpt lat="45.78737518085601" lon="13.592523969978489"><ele>9.0</ele><time>2026-04-05T15:08:54Z</time></trkpt><trkpt lat="45.78729586146043" lon="13.59262375637283"><ele>9.0</ele><time>2026-04-05T15:08:55Z</time></trkpt><trkpt lat="45.78721633202915" lon="13.592726426987634"><ele>9.0</ele><time>2026-04-05T15:08:56Z</time></trkpt><trkpt lat="45.78713351968637" lon="13.592828064037743"><ele>9.0</ele><time>2026-04-05T15:08:57Z</time></trkpt><trkpt lat="45.78705014191856" lon="13.592931425233434"><ele>9.0</ele><time>2026-04-05T15:08:58Z</time></trkpt><trkpt lat="45.786966081248615" lon="13.59303778077576"><ele>9.0</ele><time>2026-04-05T15:08:58.999Z</time></trkpt><trkpt lat="45.78688092508969" lon="13.593147122829247"><ele>9.5</ele><time>2026-04-05T15:08:59.999Z</time></trkpt><trkpt lat="45.786792737955345" lon="13.59325593801782"><ele>10.0</ele><time>2026-04-05T15:09:00.999Z</time></trkpt><trkpt lat="45.786699592353656" lon="13.593364463968575"><ele>10.5</ele><time>2026-04-05T15:09:01.999Z</time></trkpt><trkpt lat="45.78659545095586" lon="13.593471114604752"><ele>11.0</ele><time>2026-04-05T15:09:03Z</time></trkpt><trkpt lat="45.78647595034909" lon="13.593564496965387"><ele>11.0</ele><time>2026-04-05T15:09:04Z</time></trkpt><trkpt lat="45.78634240028913" lon="13.593647216383026"><ele>11.0</ele><time>2026-04-05T15:09:05Z</time></trkpt><trkpt lat="45.78619715794585" lon="13.593721354734669"><ele>11.0</ele><time>2026-04-05T15:09:06Z</time></trkpt><trkpt lat="45.78603691373389" lon="13.593775144433135"><ele>13.666666666666666</ele><time>2026-04-05T15:09:07Z</time></trkpt><trkpt lat="45.785858032148845" lon="13.593799313211287"><ele>16.333333333333332</ele><time>2026-04-05T15:09:08Z</time></trkpt><trkpt lat="45.785676101182425" lon="13.593816959907896"><ele>19.0</ele><time>2026-04-05T15:09:09Z</time></trkpt><trkpt lat="45.78549584852258" lon="13.593857175427376"><ele>19.0</ele><time>2026-04-05T15:09:10Z</time></trkpt><trkpt lat="45.785324277859914" lon="13.593931615245536"><ele>19.0</ele><time>2026-04-05T15:09:11Z</time></trkpt><trkpt lat="45.78517048127194" lon="13.59405552086343"><ele>19.0</ele><time>2026-04-05T15:09:12Z</time></trkpt><trkpt lat="45.78503501240335" lon="13.59422157661294"><ele>19.0</ele><time>2026-04-05T15:09:13Z</time></trkpt><trkpt lat="45.78492201254898" lon="13.594417048565168"><ele>19.0</ele><time>2026-04-05T15:09:14Z</time></trkpt><trkpt lat="45.784830538009956" lon="13.594636074544004"><ele>19.0</ele><time>2026-04-05T15:09:15Z</time></trkpt><trkpt lat="45.78474616550068" lon="13.594857435580318"><ele>19.666666666666664</ele><time>2026-04-05T15:09:16Z</time></trkpt><trkpt lat="45.78466232503672" lon="13.595067656751247"><ele>20.333333333333332</ele><time>2026-04-05T15:09:17Z</time></trkpt><trkpt lat="45.784580725492816" lon="13.59527338231552"><ele>21.0</ele><time>2026-04-05T15:09:18Z</time></trkpt><trkpt lat="45.7845021794389" lon="13.595475164756587"><ele>22.0</ele><time>2026-04-05T15:09:19Z</time></trkpt><trkpt lat="45.784423430050865" lon="13.59567036081422"><ele>23.0</ele><time>2026-04-05T15:09:20Z</time></trkpt><trkpt lat="45.784340653692276" lon="13.595856680938903"><ele>24.0</ele><time>2026-04-05T15:09:21Z</time></trkpt><trkpt lat="45.784252036163046" lon="13.596033135663776"><ele>23.666666666666668</ele><time>2026-04-05T15:09:22Z</time></trkpt><trkpt lat="45.78415379595079" lon="13.596196357305288"><ele>23.333333333333336</ele><time>2026-04-05T15:09:23Z</time></trkpt><trkpt lat="45.784034293824014" lon="13.596348419745043"><ele>23.0</ele><time>2026-04-05T15:09:24Z</time></trkpt><trkpt lat="45.78390245077119" lon="13.596484331569242"><ele>23.0</ele><time>2026-04-05T15:09:25Z</time></trkpt><trkpt lat="45.783758319499526" lon="13.596601603806274"><ele>23.0</ele><time>2026-04-05T15:09:26Z</time></trkpt><trkpt lat="45.78360115298149" lon="13.596701148579458"><ele>23.0</ele><time>2026-04-05T15:09:27Z</time></trkpt><trkpt lat="45.78344091058224" lon="13.596776935306712"><ele>23.0</ele><time>2026-04-05T15:09:28Z</time></trkpt><trkpt lat="45.78327676355622" lon="13.596831498514163"><ele>23.0</ele><time>2026-04-05T15:09:29Z</time></trkpt><trkpt lat="45.78310671001326" lon="13.596860139281256"><ele>23.0</ele><time>2026-04-05T15:09:30Z</time></trkpt><trkpt lat="45.78293657772154" lon="13.59687496327208"><ele>23.0</ele><time>2026-04-05T15:09:31Z</time></trkpt><trkpt lat="45.78276562874665" lon="13.596885489099648"><ele>23.0</ele><time>2026-04-05T15:09:32Z</time></trkpt><trkpt lat="45.78259785090941" lon="13.596898365638884"><ele>23.0</ele><time>2026-04-05T15:09:33Z</time></trkpt><trkpt lat="45.78243177855739" lon="13.59691393246697"><ele>22.333333333333336</ele><time>2026-04-05T15:09:34Z</time></trkpt><trkpt lat="45.78226546014729" lon="13.59693028539026"><ele>21.666666666666668</ele><time>2026-04-05T15:09:35Z</time></trkpt><trkpt lat="45.78209362444525" lon="13.596936157336875"><ele>21.0</ele><time>2026-04-05T15:09:36Z</time></trkpt><trkpt lat="45.781923189658066" lon="13.596941792174569"><ele>21.333333333333332</ele><time>2026-04-05T15:09:37Z</time></trkpt><trkpt lat="45.78175708069999" lon="13.59695179809943"><ele>21.666666666666664</ele><time>2026-04-05T15:09:38Z</time></trkpt><trkpt lat="45.7815956666051" lon="13.596959792127793"><ele>22.0</ele><time>2026-04-05T15:09:39Z</time></trkpt><trkpt lat="45.78143936249787" lon="13.596965288299096"><ele>22.0</ele><time>2026-04-05T15:09:40Z</time></trkpt><trkpt lat="45.78128827120492" lon="13.596969592742257"><ele>22.0</ele><time>2026-04-05T15:09:41Z</time></trkpt><trkpt lat="45.7811400020748" lon="13.596976034479832"><ele>22.0</ele><time>2026-04-05T15:09:42Z</time></trkpt><trkpt lat="45.78099322864474" lon="13.596983664581686"><ele>22.0</ele><time>2026-04-05T15:09:43Z</time></trkpt><trkpt lat="45.780847154334936" lon="13.596992980892267"><ele>24.5</ele><time>2026-04-05T15:09:44Z</time></trkpt><trkpt lat="45.780698048315855" lon="13.59701088963713"><ele>27.0</ele><time>2026-04-05T15:09:45Z</time></trkpt><trkpt lat="45.78055489595085" lon="13.597050212939529"><ele>29.5</ele><time>2026-04-05T15:09:46Z</time></trkpt><trkpt lat="45.78042049500722" lon="13.597114210775057"><ele>32.0</ele><time>2026-04-05T15:09:47Z</time></trkpt><trkpt lat="45.78029476127247" lon="13.597197491041825"><ele>31.75</ele><time>2026-04-05T15:09:48Z</time></trkpt><trkpt lat="45.78018073446047" lon="13.597305876302167"><ele>31.5</ele><time>2026-04-05T15:09:49Z</time></trkpt><trkpt lat="45.7800724214352" lon="13.59742220145255"><ele>31.25</ele><time>2026-04-05T15:09:50Z</time></trkpt><trkpt lat="45.77996581223792" lon="13.597534424734764"><ele>31.0</ele><time>2026-04-05T15:09:51Z</time></trkpt><trkpt lat="45.779861634295905" lon="13.597650610052126"><ele>31.0</ele><time>2026-04-05T15:09:52Z</time></trkpt><trkpt lat="45.7797587742146" lon="13.597770722141771"><ele>31.0</ele><time>2026-04-05T15:09:53Z</time></trkpt><trkpt lat="45.779656806580654" lon="13.59788840860358"><ele>31.0</ele><time>2026-04-05T15:09:54Z</time></trkpt><trkpt lat="45.779556651445354" lon="13.598003158053897"><ele>31.0</ele><time>2026-04-05T15:09:55Z</time></trkpt><trkpt lat="45.779458310223625" lon="13.598119375098955"><ele>30.75</ele><time>2026-04-05T15:09:56Z</time></trkpt><trkpt lat="45.77936030614114" lon="13.598233968900145"><ele>30.5</ele><time>2026-04-05T15:09:57Z</time></trkpt><trkpt lat="45.77926025867503" lon="13.598346039105087"><ele>30.25</ele><time>2026-04-05T15:09:58Z</time></trkpt><trkpt lat="45.77915465525411" lon="13.598465400821983"><ele>30.0</ele><time>2026-04-05T15:09:59Z</time></trkpt><trkpt lat="45.77904798985193" lon="13.59858612101645"><ele>31.0</ele><time>2026-04-05T15:10:00Z</time></trkpt><trkpt lat="45.778938100524186" lon="13.598709711920796"><ele>32.0</ele><time>2026-04-05T15:10:01Z</time></trkpt><trkpt lat="45.77882953338235" lon="13.59883428154823"><ele>33.0</ele><time>2026-04-05T15:10:02Z</time></trkpt><trkpt lat="45.778724642791595" lon="13.59895839732332"><ele>34.0</ele><time>2026-04-05T15:10:03Z</time></trkpt><trkpt lat="45.77862165139058" lon="13.599078924487264"><ele>34.0</ele><time>2026-04-05T15:10:04Z</time></trkpt><trkpt lat="45.77852027633258" lon="13.599195240281"><ele>34.0</ele><time>2026-04-05T15:10:05Z</time></trkpt><trkpt lat="45.77841724268054" lon="13.599313078135085"><ele>34.0</ele><time>2026-04-05T15:10:06Z</time></trkpt><trkpt lat="45.77831283787924" lon="13.599435192310398"><ele>34.0</ele><time>2026-04-05T15:10:07Z</time></trkpt><trkpt lat="45.778206307747254" lon="13.599558646623338"><ele>35.25</ele><time>2026-04-05T15:10:08Z</time></trkpt><trkpt lat="45.77809814782187" lon="13.599682198039991"><ele>36.5</ele><time>2026-04-05T15:10:09Z</time></trkpt><trkpt lat="45.777991309530506" lon="13.599808375194497"><ele>37.75</ele><time>2026-04-05T15:10:10Z</time></trkpt><trkpt lat="45.77788399434971" lon="13.599934214166693"><ele>39.0</ele><time>2026-04-05T15:10:11Z</time></trkpt><trkpt lat="45.777775178750424" lon="13.60005901320997"><ele>39.0</ele><time>2026-04-05T15:10:12Z</time></trkpt><trkpt lat="45.77766545684851" lon="13.600186035594968"><ele>39.0</ele><time>2026-04-05T15:10:13Z</time></trkpt><trkpt lat="45.77755594485819" lon="13.60031373773931"><ele>39.0</ele><time>2026-04-05T15:10:14Z</time></trkpt><trkpt lat="45.777450118243124" lon="13.600441307227912"><ele>39.0</ele><time>2026-04-05T15:10:15Z</time></trkpt><trkpt lat="45.7773458712922" lon="13.600565149067965"><ele>39.0</ele><time>2026-04-05T15:10:16Z</time></trkpt><trkpt lat="45.777246865800336" lon="13.600692867392377"><ele>39.0</ele><time>2026-04-05T15:10:17Z</time></trkpt><trkpt lat="45.77715537719685" lon="13.600832916531902"><ele>39.0</ele><time>2026-04-05T15:10:18Z</time></trkpt><trkpt lat="45.77706914778821" lon="13.600988175072061"><ele>39.0</ele><time>2026-04-05T15:10:19Z</time></trkpt><trkpt lat="45.7769881776519" lon="13.601154613434744"><ele>37.666666666666664</ele><time>2026-04-05T15:10:20Z</time></trkpt><trkpt lat="45.776912405141545" lon="13.601332408829066"><ele>36.33333333333333</ele><time>2026-04-05T15:10:21Z</time></trkpt><trkpt lat="45.77684029374917" lon="13.601523731350955"><ele>35.0</ele><time>2026-04-05T15:10:22Z</time></trkpt><trkpt lat="45.776772997773854" lon="13.601723914497894"><ele>34.666666666666664</ele><time>2026-04-05T15:10:23Z</time></trkpt><trkpt lat="45.776705668198936" lon="13.601927944772388"><ele>34.333333333333336</ele><time>2026-04-05T15:10:24Z</time></trkpt><trkpt lat="45.77664151913231" lon="13.602131185680001"><ele>34.0</ele><time>2026-04-05T15:10:25Z</time></trkpt><trkpt lat="45.77657785080359" lon="13.602330350181745"><ele>34.0</ele><time>2026-04-05T15:10:26Z</time></trkpt><trkpt lat="45.77651484490403" lon="13.602525808736257"><ele>34.0</ele><time>2026-04-05T15:10:27Z</time></trkpt><trkpt lat="45.77645233533089" lon="13.602717605471115"><ele>34.0</ele><time>2026-04-05T15:10:28Z</time></trkpt><trkpt lat="45.77639253149496" lon="13.602906270502311"><ele>34.0</ele><time>2026-04-05T15:10:29Z</time></trkpt><trkpt lat="45.776333089163984" lon="13.603092558213966"><ele>35.0</ele><time>2026-04-05T15:10:30Z</time></trkpt><trkpt lat="45.776274421643215" lon="13.603277318518861"><ele>36.0</ele><time>2026-04-05T15:10:31Z</time></trkpt><trkpt lat="45.77621328430083" lon="13.603465666909479"><ele>37.0</ele><time>2026-04-05T15:10:32Z</time></trkpt><trkpt lat="45.77615286927535" lon="13.603655713377462"><ele>38.0</ele><time>2026-04-05T15:10:33Z</time></trkpt><trkpt lat="45.77609215607752" lon="13.60384470000813"><ele>38.0</ele><time>2026-04-05T15:10:34Z</time></trkpt><trkpt lat="45.77603071156852" lon="13.604031275289024"><ele>38.0</ele><time>2026-04-05T15:10:35Z</time></trkpt><trkpt lat="45.775970837611965" lon="13.604219157401298"><ele>38.0</ele><time>2026-04-05T15:10:36Z</time></trkpt><trkpt lat="45.775909427271436" lon="13.604409831877954"><ele>38.0</ele><time>2026-04-05T15:10:37Z</time></trkpt><trkpt lat="45.775845077450185" lon="13.604605874422028"><ele>39.0</ele><time>2026-04-05T15:10:38Z</time></trkpt><trkpt lat="45.77577799895767" lon="13.604807336510168"><ele>40.0</ele><time>2026-04-05T15:10:39Z</time></trkpt><trkpt lat="45.77571145682926" lon="13.605012586262331"><ele>41.0</ele><time>2026-04-05T15:10:40Z</time></trkpt><trkpt lat="45.775645857172385" lon="13.60521302119173"><ele>41.75</ele><time>2026-04-05T15:10:41Z</time></trkpt><trkpt lat="45.775584031239056" lon="13.60540854586034"><ele>42.5</ele><time>2026-04-05T15:10:42Z</time></trkpt><trkpt lat="45.77552235916061" lon="13.605600243462547"><ele>43.25</ele><time>2026-04-05T15:10:43Z</time></trkpt><trkpt lat="45.77546308138145" lon="13.605782795578671"><ele>44.0</ele><time>2026-04-05T15:10:44Z</time></trkpt><trkpt lat="45.77540527254543" lon="13.605959019414316"><ele>44.0</ele><time>2026-04-05T15:10:45Z</time></trkpt><trkpt lat="45.77535047203432" lon="13.606136632078337"><ele>44.0</ele><time>2026-04-05T15:10:46Z</time></trkpt><trkpt lat="45.77529328360423" lon="13.606315888720639"><ele>44.0</ele><time>2026-04-05T15:10:47Z</time></trkpt><trkpt lat="45.775234254654485" lon="13.606493758445687"><ele>44.0</ele><time>2026-04-05T15:10:48Z</time></trkpt><trkpt lat="45.77517682151335" lon="13.60667250999643"><ele>44.5</ele><time>2026-04-05T15:10:49Z</time></trkpt><trkpt lat="45.77512032872023" lon="13.606848401680383"><ele>45.0</ele><time>2026-04-05T15:10:50Z</time></trkpt><trkpt lat="45.77506476940142" lon="13.60702024434239"><ele>45.5</ele><time>2026-04-05T15:10:51Z</time></trkpt><trkpt lat="45.77501038413017" lon="13.607191122640437"><ele>46.0</ele><time>2026-04-05T15:10:52Z</time></trkpt><trkpt lat="45.77495419201503" lon="13.607359883880902"><ele>46.5</ele><time>2026-04-05T15:10:53Z</time></trkpt><trkpt lat="45.77489627790616" lon="13.607535409169515"><ele>47.0</ele><time>2026-04-05T15:10:54Z</time></trkpt><trkpt lat="45.774836893227516" lon="13.60771794582644"><ele>47.5</ele><time>2026-04-05T15:10:55Z</time></trkpt><trkpt lat="45.77477689386307" lon="13.607906005250124"><ele>48.0</ele><time>2026-04-05T15:10:56Z</time></trkpt><trkpt lat="45.774716136383915" lon="13.608091064357955"><ele>48.0</ele><time>2026-04-05T15:10:57Z</time></trkpt><trkpt lat="45.77465924905408" lon="13.608270415921536"><ele>48.0</ele><time>2026-04-05T15:10:58Z</time></trkpt><trkpt lat="45.77461464922968" lon="13.608427010036115"><ele>48.0</ele><time>2026-04-05T15:10:59Z</time></trkpt><trkpt lat="45.77457759066876" lon="13.608564359924234"><ele>48.0</ele><time>2026-04-05T15:11:00Z</time></trkpt><trkpt lat="45.774549180534144" lon="13.608674628216836"><ele>48.0</ele><time>2026-04-05T15:11:01Z</time></trkpt><trkpt lat="45.7745276501522" lon="13.608769713068623"><ele>48.4</ele><time>2026-04-05T15:11:01.999Z</time></trkpt><trkpt lat="45.77451087344316" lon="13.608879797041421"><ele>48.8</ele><time>2026-04-05T15:11:03.999Z</time></trkpt><trkpt lat="45.77449938902756" lon="13.60897748260426"><ele>49.2</ele><time>2026-04-05T15:11:40Z</time></trkpt><trkpt lat="45.77449507502295" lon="13.609163999566041"><ele>49.6</ele><time>2026-04-05T15:11:42Z</time></trkpt><trkpt lat="45.77448998132819" lon="13.609306948723969"><ele>50.0</ele><time>2026-04-05T15:11:43Z</time></trkpt><trkpt lat="45.77449322222894" lon="13.609477899396445"><ele>50.66666666666667</ele><time>2026-04-05T15:11:44Z</time></trkpt><trkpt lat="45.774487526578696" lon="13.609682104904502"><ele>51.33333333333333</ele><time>2026-04-05T15:11:45Z</time></trkpt><trkpt lat="45.77452170583711" lon="13.609875171014165"><ele>52.0</ele><time>2026-04-05T15:11:46Z</time></trkpt><trkpt lat="45.774595301802094" lon="13.610147346249043"><ele>53.666666666666664</ele><time>2026-04-05T15:11:47Z</time></trkpt><trkpt lat="45.77464706091342" lon="13.610418093327299"><ele>55.33333333333333</ele><time>2026-04-05T15:11:48Z</time></trkpt><trkpt lat="45.774695357702115" lon="13.610696663805285"><ele>57.0</ele><time>2026-04-05T15:11:49Z</time></trkpt><trkpt lat="45.77473901818565" lon="13.610960020698382"><ele>56.66666666666667</ele><time>2026-04-05T15:11:50Z</time></trkpt><trkpt lat="45.7747795328215" lon="13.611214881476716"><ele>56.333333333333336</ele><time>2026-04-05T15:11:51Z</time></trkpt><trkpt lat="45.77480996549947" lon="13.61143626744653"><ele>56.0</ele><time>2026-04-05T15:11:52Z</time></trkpt><trkpt lat="45.77482043241973" lon="13.611628507301146"><ele>56.0</ele><time>2026-04-05T15:11:53Z</time></trkpt><trkpt lat="45.77481287108748" lon="13.611790758040014"><ele>56.0</ele><time>2026-04-05T15:11:54Z</time></trkpt><trkpt lat="45.77480065164215" lon="13.611944370722298"><ele>56.0</ele><time>2026-04-05T15:11:55Z</time></trkpt><trkpt lat="45.77478972850732" lon="13.612107168169508"><ele>56.0</ele><time>2026-04-05T15:11:56Z</time></trkpt><trkpt lat="45.774779508737794" lon="13.612281768325387"><ele>56.333333333333336</ele><time>2026-04-05T15:11:57Z</time></trkpt><trkpt lat="45.774753209375405" lon="13.612461386960385"><ele>56.66666666666667</ele><time>2026-04-05T15:11:58Z</time></trkpt><trkpt lat="45.7747372013533" lon="13.612683309870821"><ele>57.0</ele><time>2026-04-05T15:11:59Z</time></trkpt><trkpt lat="45.77471801133299" lon="13.612949494049223"><ele>57.33333333333333</ele><time>2026-04-05T15:12:00Z</time></trkpt><trkpt lat="45.77470671024097" lon="13.613244375100436"><ele>57.666666666666664</ele><time>2026-04-05T15:12:01Z</time></trkpt><trkpt lat="45.77468671135057" lon="13.613544408710853"><ele>58.0</ele><time>2026-04-05T15:12:02Z</time></trkpt><trkpt lat="45.774662922752775" lon="13.613836300974203"><ele>58.666666666666664</ele><time>2026-04-05T15:12:03Z</time></trkpt><trkpt lat="45.774620731890266" lon="13.614116758982526"><ele>59.33333333333333</ele><time>2026-04-05T15:12:04Z</time></trkpt><trkpt lat="45.77455732102879" lon="13.61438586655413"><ele>60.0</ele><time>2026-04-05T15:12:05Z</time></trkpt><trkpt lat="45.774484814167835" lon="13.614642965763114"><ele>60.0</ele><time>2026-04-05T15:12:06Z</time></trkpt><trkpt lat="45.77441127020634" lon="13.614891947360933"><ele>60.0</ele><time>2026-04-05T15:12:07Z</time></trkpt><trkpt lat="45.77433508318784" lon="13.61513224581054"><ele>60.0</ele><time>2026-04-05T15:12:08Z</time></trkpt><trkpt lat="45.774248500991504" lon="13.615363137460301"><ele>60.66666666666667</ele><time>2026-04-05T15:12:09Z</time></trkpt><trkpt lat="45.77415933280176" lon="13.61559582485287"><ele>61.333333333333336</ele><time>2026-04-05T15:12:10Z</time></trkpt><trkpt lat="45.77406737798496" lon="13.61582497583173"><ele>62.0</ele><time>2026-04-05T15:12:11Z</time></trkpt><trkpt lat="45.77397476287884" lon="13.61605214367057"><ele>61.333333333333336</ele><time>2026-04-05T15:12:12Z</time></trkpt><trkpt lat="45.77388426065129" lon="13.616279888615727"><ele>60.66666666666667</ele><time>2026-04-05T15:12:13Z</time></trkpt><trkpt lat="45.77379377377532" lon="13.616507441313457"><ele>60.0</ele><time>2026-04-05T15:12:14Z</time></trkpt><trkpt lat="45.773705671541855" lon="13.616734447794277"><ele>60.0</ele><time>2026-04-05T15:12:15Z</time></trkpt><trkpt lat="45.77363200316211" lon="13.61697458342824"><ele>60.0</ele><time>2026-04-05T15:12:16Z</time></trkpt><trkpt lat="45.77357371854514" lon="13.617231980281899"><ele>60.0</ele><time>2026-04-05T15:12:17Z</time></trkpt><trkpt lat="45.773533568112896" lon="13.61751014049642"><ele>60.66666666666667</ele><time>2026-04-05T15:12:18Z</time></trkpt><trkpt lat="45.77351315401013" lon="13.617799994829412"><ele>61.333333333333336</ele><time>2026-04-05T15:12:19Z</time></trkpt><trkpt lat="45.773496635099576" lon="13.618101399959565"><ele>62.0</ele><time>2026-04-05T15:12:20Z</time></trkpt><trkpt lat="45.77347265153279" lon="13.618417037676899"><ele>59.5</ele><time>2026-04-05T15:12:21Z</time></trkpt><trkpt lat="45.773446615680726" lon="13.618747899053933"><ele>57.0</ele><time>2026-04-05T15:12:22Z</time></trkpt><trkpt lat="45.77342222598024" lon="13.61908485764115"><ele>57.0</ele><time>2026-04-05T15:12:23Z</time></trkpt><trkpt lat="45.773397207172096" lon="13.619430195938035"><ele>57.0</ele><time>2026-04-05T15:12:24Z</time></trkpt><trkpt lat="45.773370921950075" lon="13.619777686997061"><ele>59.0</ele><time>2026-04-05T15:12:25Z</time></trkpt><trkpt lat="45.773344206552245" lon="13.620124386673885"><ele>61.0</ele><time>2026-04-05T15:12:26Z</time></trkpt><trkpt lat="45.773320490968246" lon="13.620466055918865"><ele>61.0</ele><time>2026-04-05T15:12:27Z</time></trkpt><trkpt lat="45.77329710081243" lon="13.620802832604495"><ele>61.0</ele><time>2026-04-05T15:12:28Z</time></trkpt><trkpt lat="45.7732700501558" lon="13.621139731944597"><ele>61.0</ele><time>2026-04-05T15:12:29Z</time></trkpt><trkpt lat="45.77323941966924" lon="13.621472342904656"><ele>61.0</ele><time>2026-04-05T15:12:30Z</time></trkpt><trkpt lat="45.77320452290346" lon="13.62179687325848"><ele>60.0</ele><time>2026-04-05T15:12:31Z</time></trkpt><trkpt lat="45.773168889777665" lon="13.622120660521661"><ele>59.0</ele><time>2026-04-05T15:12:32Z</time></trkpt><trkpt lat="45.77314079231276" lon="13.622440441875579"><ele>59.0</ele><time>2026-04-05T15:12:33Z</time></trkpt><trkpt lat="45.773120120774465" lon="13.622749081199046"><ele>59.0</ele><time>2026-04-05T15:12:34Z</time></trkpt><trkpt lat="45.773103197465204" lon="13.623049734809356"><ele>59.0</ele><time>2026-04-05T15:12:35Z</time></trkpt><trkpt lat="45.77308302001534" lon="13.62334221254286"><ele>59.66666666666667</ele><time>2026-04-05T15:12:36Z</time></trkpt><trkpt lat="45.77306128555575" lon="13.623625620532856"><ele>60.33333333333333</ele><time>2026-04-05T15:12:37Z</time></trkpt><trkpt lat="45.77303615582796" lon="13.623911112587669"><ele>61.0</ele><time>2026-04-05T15:12:38Z</time></trkpt><trkpt lat="45.77300395880396" lon="13.624194266804427"><ele>61.33333333333333</ele><time>2026-04-05T15:12:39Z</time></trkpt><trkpt lat="45.772971779612625" lon="13.62447511839559"><ele>61.66666666666667</ele><time>2026-04-05T15:12:40Z</time></trkpt><trkpt lat="45.77294007230027" lon="13.624753818606203"><ele>62.0</ele><time>2026-04-05T15:12:41Z</time></trkpt><trkpt lat="45.77291076870594" lon="13.625027315486374"><ele>62.0</ele><time>2026-04-05T15:12:42Z</time></trkpt><trkpt lat="45.77288280424398" lon="13.625298786586855"><ele>62.0</ele><time>2026-04-05T15:12:43Z</time></trkpt><trkpt lat="45.77285189936022" lon="13.625569509657469"><ele>62.0</ele><time>2026-04-05T15:12:44Z</time></trkpt><trkpt lat="45.772819747466265" lon="13.625834917302562"><ele>61.66666666666667</ele><time>2026-04-05T15:12:45Z</time></trkpt><trkpt lat="45.77279254044421" lon="13.626102599337687"><ele>61.33333333333333</ele><time>2026-04-05T15:12:46Z</time></trkpt><trkpt lat="45.77277079016" lon="13.626373261419495"><ele>61.0</ele><time>2026-04-05T15:12:47Z</time></trkpt><trkpt lat="45.77275837815503" lon="13.626646596886195"><ele>59.666666666666664</ele><time>2026-04-05T15:12:48Z</time></trkpt><trkpt lat="45.772756237284966" lon="13.62691985394801"><ele>58.33333333333333</ele><time>2026-04-05T15:12:49Z</time></trkpt><trkpt lat="45.772767829734434" lon="13.6271972059949"><ele>57.0</ele><time>2026-04-05T15:12:50Z</time></trkpt><trkpt lat="45.772797761581366" lon="13.627476392178272"><ele>56.33333333333333</ele><time>2026-04-05T15:12:51Z</time></trkpt><trkpt lat="45.77283831182461" lon="13.627754249592954"><ele>55.666666666666664</ele><time>2026-04-05T15:12:52Z</time></trkpt><trkpt lat="45.77287972054743" lon="13.628022955851282"><ele>55.0</ele><time>2026-04-05T15:12:53Z</time></trkpt><trkpt lat="45.772915849063" lon="13.62827869750587"><ele>56.33333333333333</ele><time>2026-04-05T15:12:54Z</time></trkpt><trkpt lat="45.77295029213861" lon="13.628507365620033"><ele>57.66666666666667</ele><time>2026-04-05T15:12:55Z</time></trkpt><trkpt lat="45.772986005888086" lon="13.62873714743999"><ele>59.0</ele><time>2026-04-05T15:12:56Z</time></trkpt><trkpt lat="45.77302374856637" lon="13.628977503691715"><ele>60.333333333333336</ele><time>2026-04-05T15:12:57Z</time></trkpt><trkpt lat="45.77305904627953" lon="13.629223554190954"><ele>61.66666666666667</ele><time>2026-04-05T15:12:58Z</time></trkpt><trkpt lat="45.773094229508835" lon="13.629461082999526"><ele>63.0</ele><time>2026-04-05T15:12:59Z</time></trkpt><trkpt lat="45.77313043347367" lon="13.629687045186097"><ele>63.5</ele><time>2026-04-05T15:13:00Z</time></trkpt><trkpt lat="45.773164556968666" lon="13.629907141056709"><ele>64.0</ele><time>2026-04-05T15:13:01Z</time></trkpt><trkpt lat="45.77319425445727" lon="13.63011663629496"><ele>64.5</ele><time>2026-04-05T15:13:02Z</time></trkpt><trkpt lat="45.77322348656617" lon="13.630315037843767"><ele>65.0</ele><time>2026-04-05T15:13:02.999Z</time></trkpt><trkpt lat="45.773250540267625" lon="13.630492509675557"><ele>65.5</ele><time>2026-04-05T15:13:03.999Z</time></trkpt><trkpt lat="45.77327526481404" lon="13.630656723367572"><ele>66.0</ele><time>2026-04-05T15:13:04.999Z</time></trkpt><trkpt lat="45.77329918280419" lon="13.630811634830696"><ele>66.5</ele><time>2026-04-05T15:13:05.999Z</time></trkpt><trkpt lat="45.77332403549266" lon="13.630970245241057"><ele>67.0</ele><time>2026-04-05T15:13:06.999Z</time></trkpt><trkpt lat="45.77335214725271" lon="13.631138865602674"><ele>67.0</ele><time>2026-04-05T15:13:07.999Z</time></trkpt><trkpt lat="45.77337883819241" lon="13.631310938968452"><ele>67.0</ele><time>2026-04-05T15:13:08.999Z</time></trkpt><trkpt lat="45.77340383453919" lon="13.631484831284515"><ele>67.0</ele><time>2026-04-05T15:13:09.999Z</time></trkpt><trkpt lat="45.77343543262837" lon="13.631670287968998"><ele>67.0</ele><time>2026-04-05T15:13:10.999Z</time></trkpt><trkpt lat="45.77347122573088" lon="13.631877867497213"><ele>66.66666666666666</ele><time>2026-04-05T15:13:11.999Z</time></trkpt><trkpt lat="45.77350865338757" lon="13.632128631982772"><ele>66.33333333333333</ele><time>2026-04-05T15:13:12.999Z</time></trkpt><trkpt lat="45.77354428692772" lon="13.632395814029094"><ele>66.0</ele><time>2026-04-05T15:13:13.999Z</time></trkpt><trkpt lat="45.77358539281652" lon="13.632670218368352"><ele>68.66666666666667</ele><time>2026-04-05T15:13:15Z</time></trkpt><trkpt lat="45.77362360586745" lon="13.6329354699263"><ele>71.33333333333334</ele><time>2026-04-05T15:13:16Z</time></trkpt><trkpt lat="45.77365704643467" lon="13.633190361668705"><ele>74.0</ele><time>2026-04-05T15:13:17Z</time></trkpt><trkpt lat="45.773680448006694" lon="13.63343051459608"><ele>74.33333333333334</ele><time>2026-04-05T15:13:18Z</time></trkpt><trkpt lat="45.77368007845999" lon="13.633662246999736"><ele>74.66666666666667</ele><time>2026-04-05T15:13:19Z</time></trkpt><trkpt lat="45.77364369231876" lon="13.633882008215519"><ele>75.0</ele><time>2026-04-05T15:13:20Z</time></trkpt><trkpt lat="45.77357131028154" lon="13.63409180399605"><ele>76.0</ele><time>2026-04-05T15:13:21Z</time></trkpt><trkpt lat="45.77346928173772" lon="13.634281743570908"><ele>77.0</ele><time>2026-04-05T15:13:22Z</time></trkpt><trkpt lat="45.773343157642394" lon="13.634452258174147"><ele>78.0</ele><time>2026-04-05T15:13:23Z</time></trkpt><trkpt lat="45.7731990484965" lon="13.634613188795603"><ele>78.0</ele><time>2026-04-05T15:13:24Z</time></trkpt><trkpt lat="45.77305105504842" lon="13.63478299267208"><ele>78.0</ele><time>2026-04-05T15:13:25Z</time></trkpt><trkpt lat="45.772900530148306" lon="13.634942566816115"><ele>78.0</ele><time>2026-04-05T15:13:26Z</time></trkpt><trkpt lat="45.7727499093334" lon="13.635089935256199"><ele>76.66666666666667</ele><time>2026-04-05T15:13:27Z</time></trkpt><trkpt lat="45.77261136415213" lon="13.635236838008582"><ele>75.33333333333334</ele><time>2026-04-05T15:13:28Z</time></trkpt><trkpt lat="45.77249408778048" lon="13.635401021230061"><ele>74.0</ele><time>2026-04-05T15:13:29Z</time></trkpt><trkpt lat="45.772398725974085" lon="13.635583754888263"><ele>74.0</ele><time>2026-04-05T15:13:30Z</time></trkpt><trkpt lat="45.77231858021495" lon="13.635776488896818"><ele>74.0</ele><time>2026-04-05T15:13:31Z</time></trkpt><trkpt lat="45.77223930505802" lon="13.635967488525488"><ele>74.0</ele><time>2026-04-05T15:13:32Z</time></trkpt><trkpt lat="45.77215471352054" lon="13.636148143086587"><ele>74.0</ele><time>2026-04-05T15:13:33Z</time></trkpt><trkpt lat="45.772062780661706" lon="13.636319833887654"><ele>74.0</ele><time>2026-04-05T15:13:34Z</time></trkpt><trkpt lat="45.771970230924175" lon="13.636484690141396"><ele>74.0</ele><time>2026-04-05T15:13:35Z</time></trkpt><trkpt lat="45.77187889394494" lon="13.636640886999498"><ele>74.0</ele><time>2026-04-05T15:13:36Z</time></trkpt><trkpt lat="45.7717952439179" lon="13.636773676262159"><ele>74.0</ele><time>2026-04-05T15:13:37Z</time></trkpt><trkpt lat="45.7717223764016" lon="13.636895016073542"><ele>74.0</ele><time>2026-04-05T15:13:38Z</time></trkpt><trkpt lat="45.77166611118225" lon="13.636992413182005"><ele>74.0</ele><time>2026-04-05T15:13:39Z</time></trkpt><trkpt lat="45.77162001624615" lon="13.637067032834484"><ele>74.0</ele><time>2026-04-05T15:13:41Z</time></trkpt><trkpt lat="45.771568303372675" lon="13.637151384018454"><ele>74.0</ele><time>2026-04-05T15:13:43Z</time></trkpt><trkpt lat="45.77152554775034" lon="13.637218773853109"><ele>74.0</ele><time>2026-04-05T15:13:44Z</time></trkpt><trkpt lat="45.771473445471266" lon="13.637304113865165"><ele>74.0</ele><time>2026-04-05T15:13:45Z</time></trkpt><trkpt lat="45.771415386899236" lon="13.63740588074593"><ele>74.0</ele><time>2026-04-05T15:13:46Z</time></trkpt><trkpt lat="45.771340976524485" lon="13.637527102816621"><ele>74.0</ele><time>2026-04-05T15:13:47Z</time></trkpt><trkpt lat="45.77126086566229" lon="13.637656297217102"><ele>74.0</ele><time>2026-04-05T15:13:48Z</time></trkpt><trkpt lat="45.77117712827175" lon="13.637784349656153"><ele>74.0</ele><time>2026-04-05T15:13:49Z</time></trkpt><trkpt lat="45.77110894405833" lon="13.63789130441919"><ele>74.0</ele><time>2026-04-05T15:13:50Z</time></trkpt><trkpt lat="45.77105017137343" lon="13.637983377364773"><ele>74.0</ele><time>2026-04-05T15:13:51Z</time></trkpt><trkpt lat="45.77099467328561" lon="13.638068429528285"><ele>74.0</ele><time>2026-04-05T15:13:52Z</time></trkpt><trkpt lat="45.77093934882327" lon="13.63815022548969"><ele>74.0</ele><time>2026-04-05T15:13:53Z</time></trkpt><trkpt lat="45.77089064427265" lon="13.638217317611861"><ele>74.0</ele><time>2026-04-05T15:13:54Z</time></trkpt><trkpt lat="45.770839029426355" lon="13.638285699646588"><ele>74.0</ele><time>2026-04-05T15:13:55Z</time></trkpt><trkpt lat="45.7707866950799" lon="13.63835087862584"><ele>75.0</ele><time>2026-04-05T15:13:56Z</time></trkpt><trkpt lat="45.7706877559073" lon="13.638461493092052"><ele>76.0</ele><time>2026-04-05T15:13:58Z</time></trkpt><trkpt lat="45.77062820646225" lon="13.63850958878764"><ele>77.0</ele><time>2026-04-05T15:13:59Z</time></trkpt><trkpt lat="45.7705535179974" lon="13.638533819678333"><ele>78.0</ele><time>2026-04-05T15:14:00Z</time></trkpt><trkpt lat="45.77046242046055" lon="13.638527003859823"><ele>79.0</ele><time>2026-04-05T15:14:01Z</time></trkpt><trkpt lat="45.770359083500594" lon="13.638506647130324"><ele>79.0</ele><time>2026-04-05T15:14:02Z</time></trkpt><trkpt lat="45.770260082281744" lon="13.63853778941454"><ele>79.0</ele><time>2026-04-05T15:14:03Z</time></trkpt><trkpt lat="45.77016061800602" lon="13.638620507364694"><ele>79.0</ele><time>2026-04-05T15:14:04Z</time></trkpt><trkpt lat="45.77006890894233" lon="13.638733840191307"><ele>79.0</ele><time>2026-04-05T15:14:05Z</time></trkpt><trkpt lat="45.76996715223407" lon="13.63884457955321"><ele>79.25</ele><time>2026-04-05T15:14:06Z</time></trkpt><trkpt lat="45.769858175013944" lon="13.63894616079897"><ele>79.5</ele><time>2026-04-05T15:14:07Z</time></trkpt><trkpt lat="45.769738080480096" lon="13.63904402213282"><ele>79.75</ele><time>2026-04-05T15:14:08Z</time></trkpt><trkpt lat="45.76960830407545" lon="13.639116373863425"><ele>80.0</ele><time>2026-04-05T15:14:09Z</time></trkpt><trkpt lat="45.76947428227486" lon="13.639157460275351"><ele>80.25</ele><time>2026-04-05T15:14:10Z</time></trkpt><trkpt lat="45.76934171706574" lon="13.639178067138191"><ele>80.5</ele><time>2026-04-05T15:14:11Z</time></trkpt><trkpt lat="45.76921058364178" lon="13.639185914469053"><ele>80.75</ele><time>2026-04-05T15:14:12Z</time></trkpt><trkpt lat="45.76907829778902" lon="13.639191668355146"><ele>81.0</ele><time>2026-04-05T15:14:13Z</time></trkpt><trkpt lat="45.76894261768104" lon="13.639198216167294"><ele>81.0</ele><time>2026-04-05T15:14:14Z</time></trkpt><trkpt lat="45.7688012266315" lon="13.639207744700593"><ele>81.0</ele><time>2026-04-05T15:14:15Z</time></trkpt><trkpt lat="45.768656582417606" lon="13.639215843026289"><ele>81.0</ele><time>2026-04-05T15:14:16Z</time></trkpt><trkpt lat="45.76851215727295" lon="13.639222091796375"><ele>81.0</ele><time>2026-04-05T15:14:17Z</time></trkpt><trkpt lat="45.768378283075045" lon="13.639225006058986"><ele>81.5</ele><time>2026-04-05T15:14:18Z</time></trkpt><trkpt lat="45.7682449080506" lon="13.639228287435035"><ele>82.0</ele><time>2026-04-05T15:14:19Z</time></trkpt><trkpt lat="45.76810984009372" lon="13.639231569757678"><ele>82.5</ele><time>2026-04-05T15:14:20Z</time></trkpt><trkpt lat="45.76797011235723" lon="13.63922791600876"><ele>83.0</ele><time>2026-04-05T15:14:21Z</time></trkpt><trkpt lat="45.76782572595711" lon="13.639223588941555"><ele>83.0</ele><time>2026-04-05T15:14:22Z</time></trkpt><trkpt lat="45.767679392600265" lon="13.639215596583771"><ele>83.0</ele><time>2026-04-05T15:14:23Z</time></trkpt><trkpt lat="45.76753164565669" lon="13.639204289695835"><ele>83.0</ele><time>2026-04-05T15:14:24Z</time></trkpt><trkpt lat="45.76738973109823" lon="13.639197929854113"><ele>83.0</ele><time>2026-04-05T15:14:25Z</time></trkpt><trkpt lat="45.7672549627865" lon="13.639197445488822"><ele>83.0</ele><time>2026-04-05T15:14:26Z</time></trkpt><trkpt lat="45.767138316526434" lon="13.639201801540159"><ele>83.0</ele><time>2026-04-05T15:14:27Z</time></trkpt><trkpt lat="45.76702723116908" lon="13.639199162220939"><ele>83.0</ele><time>2026-04-05T15:14:28Z</time></trkpt><trkpt lat="45.76692239999916" lon="13.639195319714226"><ele>83.0</ele><time>2026-04-05T15:14:29Z</time></trkpt><trkpt lat="45.76682074037035" lon="13.639199323517683"><ele>83.0</ele><time>2026-04-05T15:14:30Z</time></trkpt><trkpt lat="45.76671820154783" lon="13.639191851380424"><ele>83.0</ele><time>2026-04-05T15:14:31Z</time></trkpt><trkpt lat="45.76661332294343" lon="13.639188776450917"><ele>83.0</ele><time>2026-04-05T15:14:32Z</time></trkpt><trkpt lat="45.76649223663404" lon="13.63919970356925"><ele>83.0</ele><time>2026-04-05T15:14:33Z</time></trkpt><trkpt lat="45.766363184079005" lon="13.63920297590937"><ele>83.0</ele><time>2026-04-05T15:14:34Z</time></trkpt><trkpt lat="45.76623736032855" lon="13.63920602653219"><ele>83.0</ele><time>2026-04-05T15:14:35Z</time></trkpt><trkpt lat="45.76611186145948" lon="13.639207724265379"><ele>83.0</ele><time>2026-04-05T15:14:36Z</time></trkpt><trkpt lat="45.76598802899619" lon="13.63920083790235"><ele>83.0</ele><time>2026-04-05T15:14:37Z</time></trkpt><trkpt lat="45.76586703873911" lon="13.63919936323114"><ele>83.0</ele><time>2026-04-05T15:14:38Z</time></trkpt><trkpt lat="45.765747465209316" lon="13.63919492918133"><ele>82.5</ele><time>2026-04-05T15:14:39Z</time></trkpt><trkpt lat="45.76562809775571" lon="13.63917827197923"><ele>82.0</ele><time>2026-04-05T15:14:40Z</time></trkpt><trkpt lat="45.76551084927258" lon="13.639181759816557"><ele>81.5</ele><time>2026-04-05T15:14:41Z</time></trkpt><trkpt lat="45.765392432930426" lon="13.639195258328629"><ele>81.0</ele><time>2026-04-05T15:14:42Z</time></trkpt><trkpt lat="45.76527332351189" lon="13.63920393781761"><ele>81.5</ele><time>2026-04-05T15:14:43Z</time></trkpt><trkpt lat="45.765156717691134" lon="13.639215662079641"><ele>82.0</ele><time>2026-04-05T15:14:44Z</time></trkpt><trkpt lat="45.765039538525116" lon="13.639219881952183"><ele>82.5</ele><time>2026-04-05T15:14:45Z</time></trkpt><trkpt lat="45.76492559662254" lon="13.639221639586719"><ele>83.0</ele><time>2026-04-05T15:14:46Z</time></trkpt><trkpt lat="45.764812191924435" lon="13.639225447909574"><ele>83.0</ele><time>2026-04-05T15:14:47Z</time></trkpt><trkpt lat="45.76469930608594" lon="13.639228354162022"><ele>83.0</ele><time>2026-04-05T15:14:48Z</time></trkpt><trkpt lat="45.76458659305313" lon="13.639234422377458"><ele>83.0</ele><time>2026-04-05T15:14:49Z</time></trkpt><trkpt lat="45.76447450271376" lon="13.639239912004653"><ele>83.0</ele><time>2026-04-05T15:14:50Z</time></trkpt><trkpt lat="45.76436041937232" lon="13.639239305568296"><ele>83.25</ele><time>2026-04-05T15:14:51Z</time></trkpt><trkpt lat="45.76424260624407" lon="13.639238334267144"><ele>83.5</ele><time>2026-04-05T15:14:52Z</time></trkpt><trkpt lat="45.76412146009018" lon="13.639236849797829"><ele>83.75</ele><time>2026-04-05T15:14:53Z</time></trkpt><trkpt lat="45.763995558569626" lon="13.63923611505068"><ele>84.0</ele><time>2026-04-05T15:14:54Z</time></trkpt><trkpt lat="45.76387078665551" lon="13.639242566024588"><ele>84.0</ele><time>2026-04-05T15:14:55Z</time></trkpt><trkpt lat="45.76375052775033" lon="13.639256804042622"><ele>84.0</ele><time>2026-04-05T15:14:56Z</time></trkpt><trkpt lat="45.76363163454588" lon="13.63926728718926"><ele>84.0</ele><time>2026-04-05T15:14:57Z</time></trkpt><trkpt lat="45.76351526137441" lon="13.639289604168031"><ele>84.0</ele><time>2026-04-05T15:14:58Z</time></trkpt><trkpt lat="45.76340105321546" lon="13.639317133314377"><ele>83.75</ele><time>2026-04-05T15:14:59Z</time></trkpt><trkpt lat="45.763285768575216" lon="13.639344702093993"><ele>83.5</ele><time>2026-04-05T15:15:00Z</time></trkpt><trkpt lat="45.7631696437093" lon="13.639370205397777"><ele>83.25</ele><time>2026-04-05T15:15:01Z</time></trkpt><trkpt lat="45.76305003622719" lon="13.639402979463712"><ele>83.0</ele><time>2026-04-05T15:15:02Z</time></trkpt><trkpt lat="45.76292396016583" lon="13.639443754597341"><ele>85.75</ele><time>2026-04-05T15:15:03Z</time></trkpt><trkpt lat="45.762793562453496" lon="13.63948493504519"><ele>88.5</ele><time>2026-04-05T15:15:04Z</time></trkpt><trkpt lat="45.76265658799799" lon="13.63953251922865"><ele>91.25</ele><time>2026-04-05T15:15:05Z</time></trkpt><trkpt lat="45.76251888229037" lon="13.639591493997743"><ele>94.0</ele><time>2026-04-05T15:15:05.999Z</time></trkpt><trkpt lat="45.76238119325907" lon="13.639653150416384"><ele>94.5</ele><time>2026-04-05T15:15:06.999Z</time></trkpt><trkpt lat="45.76224316964031" lon="13.639721358364095"><ele>95.0</ele><time>2026-04-05T15:15:07.999Z</time></trkpt><trkpt lat="45.76210583361435" lon="13.639793625134498"><ele>95.5</ele><time>2026-04-05T15:15:08.999Z</time></trkpt><trkpt lat="45.76196972382257" lon="13.639870131212566"><ele>96.0</ele><time>2026-04-05T15:15:09.999Z</time></trkpt><trkpt lat="45.761831857275226" lon="13.639954844641473"><ele>93.33333333333333</ele><time>2026-04-05T15:15:10.999Z</time></trkpt><trkpt lat="45.76169070944593" lon="13.64004387727018"><ele>90.66666666666666</ele><time>2026-04-05T15:15:11.999Z</time></trkpt><trkpt lat="45.76154694651537" lon="13.640143928621658"><ele>88.0</ele><time>2026-04-05T15:15:12.999Z</time></trkpt><trkpt lat="45.76140367090775" lon="13.64025695643035"><ele>88.33333333333333</ele><time>2026-04-05T15:15:13.999Z</time></trkpt><trkpt lat="45.761258713742194" lon="13.640368768486873"><ele>88.66666666666667</ele><time>2026-04-05T15:15:14.999Z</time></trkpt><trkpt lat="45.7611134755216" lon="13.640476075372606"><ele>89.0</ele><time>2026-04-05T15:15:15.999Z</time></trkpt><trkpt lat="45.76096965681864" lon="13.640583510169785"><ele>89.0</ele><time>2026-04-05T15:15:16.999Z</time></trkpt><trkpt lat="45.760831051398995" lon="13.64069756240594"><ele>89.0</ele><time>2026-04-05T15:15:17.999Z</time></trkpt><trkpt lat="45.760697085097135" lon="13.640804736982476"><ele>89.0</ele><time>2026-04-05T15:15:18.999Z</time></trkpt><trkpt lat="45.76056264495392" lon="13.64091134441496"><ele>89.0</ele><time>2026-04-05T15:15:19.999Z</time></trkpt><trkpt lat="45.76043116239816" lon="13.641020698729072"><ele>89.0</ele><time>2026-04-05T15:15:21Z</time></trkpt><trkpt lat="45.76030059825148" lon="13.641128166105519"><ele>89.0</ele><time>2026-04-05T15:15:22Z</time></trkpt><trkpt lat="45.76016994839468" lon="13.641235521116897"><ele>91.66666666666667</ele><time>2026-04-05T15:15:23Z</time></trkpt><trkpt lat="45.76003414809908" lon="13.641349598308517"><ele>94.33333333333334</ele><time>2026-04-05T15:15:24Z</time></trkpt><trkpt lat="45.75989241858186" lon="13.641466984561696"><ele>97.0</ele><time>2026-04-05T15:15:25Z</time></trkpt><trkpt lat="45.759742894582445" lon="13.641582750761192"><ele>97.0</ele><time>2026-04-05T15:15:26Z</time></trkpt><trkpt lat="45.75959425454635" lon="13.641703937384685"><ele>97.0</ele><time>2026-04-05T15:15:27Z</time></trkpt><trkpt lat="45.75944662144811" lon="13.64182174816635"><ele>97.0</ele><time>2026-04-05T15:15:28Z</time></trkpt><trkpt lat="45.75929456000111" lon="13.641943505929232"><ele>100.33333333333334</ele><time>2026-04-05T15:15:29Z</time></trkpt><trkpt lat="45.75914192328008" lon="13.642063326301004"><ele>103.66666666666666</ele><time>2026-04-05T15:15:30Z</time></trkpt><trkpt lat="45.75898497437983" lon="13.6421863622828"><ele>107.0</ele><time>2026-04-05T15:15:31Z</time></trkpt><trkpt lat="45.75882705915855" lon="13.642306397136254"><ele>107.0</ele><time>2026-04-05T15:15:32Z</time></trkpt><trkpt lat="45.758667235740845" lon="13.642431903831783"><ele>107.0</ele><time>2026-04-05T15:15:33Z</time></trkpt><trkpt lat="45.75851035025594" lon="13.642571294586968"><ele>107.0</ele><time>2026-04-05T15:15:34Z</time></trkpt><trkpt lat="45.758362029466056" lon="13.642735399477452"><ele>105.66666666666666</ele><time>2026-04-05T15:15:35Z</time></trkpt><trkpt lat="45.75821910369596" lon="13.642925141117797"><ele>104.33333333333334</ele><time>2026-04-05T15:15:36Z</time></trkpt><trkpt lat="45.75808541927805" lon="13.643135588864512"><ele>103.0</ele><time>2026-04-05T15:15:37Z</time></trkpt><trkpt lat="45.757954803142894" lon="13.643349969716423"><ele>103.0</ele><time>2026-04-05T15:15:38Z</time></trkpt><trkpt lat="45.75782507513741" lon="13.643561503748199"><ele>103.0</ele><time>2026-04-05T15:15:39Z</time></trkpt><trkpt lat="45.757693952929806" lon="13.643773233271004"><ele>103.0</ele><time>2026-04-05T15:15:40Z</time></trkpt><trkpt lat="45.757565183308266" lon="13.643984745686437"><ele>105.33333333333334</ele><time>2026-04-05T15:15:41Z</time></trkpt><trkpt lat="45.75743756713675" lon="13.644188722790028"><ele>107.66666666666666</ele><time>2026-04-05T15:15:42Z</time></trkpt><trkpt lat="45.75731318665325" lon="13.644390989867535"><ele>110.0</ele><time>2026-04-05T15:15:43Z</time></trkpt><trkpt lat="45.75719319718908" lon="13.644594950968337"><ele>110.0</ele><time>2026-04-05T15:15:44Z</time></trkpt><trkpt lat="45.757079905082776" lon="13.644799528242784"><ele>110.0</ele><time>2026-04-05T15:15:45Z</time></trkpt><trkpt lat="45.75697581314612" lon="13.645005465490184"><ele>110.0</ele><time>2026-04-05T15:15:46Z</time></trkpt><trkpt lat="45.75687835300415" lon="13.645208720020937"><ele>103.0</ele><time>2026-04-05T15:15:47Z</time></trkpt><trkpt lat="45.75678627238471" lon="13.645417325998814"><ele>96.0</ele><time>2026-04-05T15:15:48Z</time></trkpt><trkpt lat="45.75669709033016" lon="13.645629467693952"><ele>89.0</ele><time>2026-04-05T15:15:49Z</time></trkpt><trkpt lat="45.75661052352491" lon="13.645841331741954"><ele>89.0</ele><time>2026-04-05T15:15:50Z</time></trkpt><trkpt lat="45.756532209293354" lon="13.646057275309039"><ele>89.0</ele><time>2026-04-05T15:15:51Z</time></trkpt><trkpt lat="45.756457396544555" lon="13.646275304972871"><ele>89.0</ele><time>2026-04-05T15:15:52Z</time></trkpt><trkpt lat="45.75638213822533" lon="13.646489045663422"><ele>95.33333333333334</ele><time>2026-04-05T15:15:53Z</time></trkpt><trkpt lat="45.756310363463164" lon="13.64669876771024"><ele>101.66666666666667</ele><time>2026-04-05T15:15:54Z</time></trkpt><trkpt lat="45.75623839273564" lon="13.646903680360667"><ele>108.0</ele><time>2026-04-05T15:15:55Z</time></trkpt><trkpt lat="45.756164508668554" lon="13.647109325449199"><ele>111.66666666666666</ele><time>2026-04-05T15:15:56Z</time></trkpt><trkpt lat="45.75609190539215" lon="13.647320532078712"><ele>115.33333333333333</ele><time>2026-04-05T15:15:57Z</time></trkpt><trkpt lat="45.75601942810696" lon="13.64753638801116"><ele>119.0</ele><time>2026-04-05T15:15:58Z</time></trkpt><trkpt lat="45.75594485715003" lon="13.647750173607243"><ele>110.0</ele><time>2026-04-05T15:15:59Z</time></trkpt><trkpt lat="45.755868407079475" lon="13.647962214587427"><ele>101.0</ele><time>2026-04-05T15:16:00Z</time></trkpt><trkpt lat="45.75579337704287" lon="13.648176288638634"><ele>92.0</ele><time>2026-04-05T15:16:01Z</time></trkpt><trkpt lat="45.75571440022108" lon="13.648385655981743"><ele>92.0</ele><time>2026-04-05T15:16:02Z</time></trkpt><trkpt lat="45.7556318252274" lon="13.648589699867628"><ele>92.0</ele><time>2026-04-05T15:16:03Z</time></trkpt><trkpt lat="45.7555433651586" lon="13.648783933713048"><ele>92.0</ele><time>2026-04-05T15:16:04Z</time></trkpt><trkpt lat="45.75544929966435" lon="13.648966116174732"><ele>93.0</ele><time>2026-04-05T15:16:05Z</time></trkpt><trkpt lat="45.755349230185" lon="13.6491451198495"><ele>94.0</ele><time>2026-04-05T15:16:06Z</time></trkpt><trkpt lat="45.75524469956472" lon="13.649319678764607"><ele>95.0</ele><time>2026-04-05T15:16:07Z</time></trkpt><trkpt lat="45.75513637761783" lon="13.649491865980353"><ele>95.0</ele><time>2026-04-05T15:16:08Z</time></trkpt><trkpt lat="45.75502509277753" lon="13.64966280788363"><ele>95.0</ele><time>2026-04-05T15:16:09Z</time></trkpt><trkpt lat="45.754913162065996" lon="13.649829400580332"><ele>95.0</ele><time>2026-04-05T15:16:10Z</time></trkpt><trkpt lat="45.754808572871106" lon="13.649995856407216"><ele>95.0</ele><time>2026-04-05T15:16:11Z</time></trkpt><trkpt lat="45.75470234922894" lon="13.650157653893071"><ele>95.0</ele><time>2026-04-05T15:16:12Z</time></trkpt><trkpt lat="45.75459467334965" lon="13.650321245202116"><ele>95.0</ele><time>2026-04-05T15:16:13Z</time></trkpt><trkpt lat="45.75448187659629" lon="13.650490745665044"><ele>88.0</ele><time>2026-04-05T15:16:14Z</time></trkpt><trkpt lat="45.75436891920419" lon="13.650663764393988"><ele>81.0</ele><time>2026-04-05T15:16:15Z</time></trkpt><trkpt lat="45.75425426485276" lon="13.650836012947476"><ele>74.0</ele><time>2026-04-05T15:16:16Z</time></trkpt><trkpt lat="45.754139336018966" lon="13.651011482142243"><ele>84.33333333333334</ele><time>2026-04-05T15:16:17Z</time></trkpt><trkpt lat="45.754027963838645" lon="13.651180601973035"><ele>94.66666666666667</ele><time>2026-04-05T15:16:18Z</time></trkpt><trkpt lat="45.75392342018172" lon="13.651345685884682"><ele>105.0</ele><time>2026-04-05T15:16:19Z</time></trkpt><trkpt lat="45.753819607867754" lon="13.65150220194395"><ele>105.0</ele><time>2026-04-05T15:16:20Z</time></trkpt><trkpt lat="45.75371594855125" lon="13.651655338390967"><ele>105.0</ele><time>2026-04-05T15:16:21Z</time></trkpt><trkpt lat="45.75361464044619" lon="13.651816217442272"><ele>105.0</ele><time>2026-04-05T15:16:22Z</time></trkpt><trkpt lat="45.75351142442263" lon="13.651974838705312"><ele>100.66666666666667</ele><time>2026-04-05T15:16:23Z</time></trkpt><trkpt lat="45.75340580641042" lon="13.652135146868316"><ele>96.33333333333334</ele><time>2026-04-05T15:16:24Z</time></trkpt><trkpt lat="45.75329790832521" lon="13.652298213882784"><ele>92.0</ele><time>2026-04-05T15:16:25Z</time></trkpt><trkpt lat="45.75319069357406" lon="13.652462614146993"><ele>92.0</ele><time>2026-04-05T15:16:26Z</time></trkpt><trkpt lat="45.75308355977555" lon="13.652627063770751"><ele>92.0</ele><time>2026-04-05T15:16:27Z</time></trkpt><trkpt lat="45.752974748347725" lon="13.652790431065005"><ele>92.0</ele><time>2026-04-05T15:16:28Z</time></trkpt><trkpt lat="45.75286724708553" lon="13.652956305099913"><ele>85.0</ele><time>2026-04-05T15:16:29Z</time></trkpt><trkpt lat="45.752759208429396" lon="13.653121307343776"><ele>78.0</ele><time>2026-04-05T15:16:30Z</time></trkpt><trkpt lat="45.752653554461325" lon="13.653286057629805"><ele>71.0</ele><time>2026-04-05T15:16:31Z</time></trkpt><trkpt lat="45.752554030908584" lon="13.653450905261431"><ele>71.0</ele><time>2026-04-05T15:16:32Z</time></trkpt><trkpt lat="45.752458761827526" lon="13.653615712363493"><ele>71.0</ele><time>2026-04-05T15:16:33Z</time></trkpt><trkpt lat="45.75236853984374" lon="13.653781610525087"><ele>71.0</ele><time>2026-04-05T15:16:34Z</time></trkpt><trkpt lat="45.75228272417881" lon="13.65394919052772"><ele>71.0</ele><time>2026-04-05T15:16:35Z</time></trkpt><trkpt lat="45.752179353847524" lon="13.654107205834311"><ele>82.0</ele><time>2026-04-05T15:16:36Z</time></trkpt><trkpt lat="45.75208809733619" lon="13.654295739981842"><ele>93.0</ele><time>2026-04-05T15:16:37Z</time></trkpt><trkpt lat="45.751996973290886" lon="13.654494824554755"><ele>104.0</ele><time>2026-04-05T15:16:38Z</time></trkpt><trkpt lat="45.751907422000734" lon="13.654699110418308"><ele>99.66666666666666</ele><time>2026-04-05T15:16:39Z</time></trkpt><trkpt lat="45.751820344142644" lon="13.654908675626443"><ele>95.33333333333333</ele><time>2026-04-05T15:16:40Z</time></trkpt><trkpt lat="45.75173536889291" lon="13.655123505790487"><ele>91.0</ele><time>2026-04-05T15:16:41Z</time></trkpt><trkpt lat="45.75165269113635" lon="13.655340388838301"><ele>91.0</ele><time>2026-04-05T15:16:42Z</time></trkpt><trkpt lat="45.75158314915781" lon="13.65556716167128"><ele>91.0</ele><time>2026-04-05T15:16:43Z</time></trkpt><trkpt lat="45.7514951201869" lon="13.655778394211373"><ele>91.0</ele><time>2026-04-05T15:16:44Z</time></trkpt><trkpt lat="45.751403742837795" lon="13.655984053072986"><ele>99.66666666666666</ele><time>2026-04-05T15:16:45Z</time></trkpt><trkpt lat="45.75130881451824" lon="13.656186162700049"><ele>108.33333333333333</ele><time>2026-04-05T15:16:46Z</time></trkpt><trkpt lat="45.751210359784686" lon="13.656382388115517"><ele>117.0</ele><time>2026-04-05T15:16:47Z</time></trkpt><trkpt lat="45.751111529077555" lon="13.656576833532768"><ele>109.66666666666667</ele><time>2026-04-05T15:16:48Z</time></trkpt><trkpt lat="45.75101527268792" lon="13.656772432213012"><ele>102.33333333333334</ele><time>2026-04-05T15:16:49Z</time></trkpt><trkpt lat="45.75091832029347" lon="13.656966903924413"><ele>95.0</ele><time>2026-04-05T15:16:50Z</time></trkpt><trkpt lat="45.75082168999773" lon="13.657161531039606"><ele>95.0</ele><time>2026-04-05T15:16:51Z</time></trkpt><trkpt lat="45.75072551352392" lon="13.657356005702235"><ele>95.0</ele><time>2026-04-05T15:16:52Z</time></trkpt><trkpt lat="45.7506275437533" lon="13.65754646506602"><ele>95.0</ele><time>2026-04-05T15:16:53Z</time></trkpt><trkpt lat="45.75052319431504" lon="13.65772543892228"><ele>90.0</ele><time>2026-04-05T15:16:54Z</time></trkpt><trkpt lat="45.75041281638808" lon="13.657894459310878"><ele>85.0</ele><time>2026-04-05T15:16:55Z</time></trkpt><trkpt lat="45.75029772397254" lon="13.658058398758312"><ele>80.0</ele><time>2026-04-05T15:16:56Z</time></trkpt><trkpt lat="45.75018125644184" lon="13.658215239950495"><ele>80.0</ele><time>2026-04-05T15:16:57Z</time></trkpt><trkpt lat="45.750062607432326" lon="13.658367743949446"><ele>80.0</ele><time>2026-04-05T15:16:58Z</time></trkpt><trkpt lat="45.7499439724703" lon="13.658518524817067"><ele>80.0</ele><time>2026-04-05T15:16:59Z</time></trkpt><trkpt lat="45.74982635064682" lon="13.658671244772046"><ele>91.66666666666667</ele><time>2026-04-05T15:17:00Z</time></trkpt><trkpt lat="45.74970827007387" lon="13.658821488547368"><ele>103.33333333333334</ele><time>2026-04-05T15:17:01Z</time></trkpt><trkpt lat="45.74958929254384" lon="13.658974688214043"><ele>115.0</ele><time>2026-04-05T15:17:02Z</time></trkpt><trkpt lat="45.74946935687558" lon="13.659127837903958"><ele>111.33333333333334</ele><time>2026-04-05T15:17:03Z</time></trkpt><trkpt lat="45.74934700925732" lon="13.65927865065924"><ele>107.66666666666666</ele><time>2026-04-05T15:17:04Z</time></trkpt><trkpt lat="45.74922184020127" lon="13.659433939208125"><ele>104.0</ele><time>2026-04-05T15:17:05Z</time></trkpt><trkpt lat="45.74909849282742" lon="13.659587819391579"><ele>104.0</ele><time>2026-04-05T15:17:06Z</time></trkpt><trkpt lat="45.74897126828323" lon="13.659734949193606"><ele>104.0</ele><time>2026-04-05T15:17:07Z</time></trkpt><trkpt lat="45.74884226382875" lon="13.659876966451398"><ele>104.0</ele><time>2026-04-05T15:17:08Z</time></trkpt><trkpt lat="45.74870879986051" lon="13.660008488851778"><ele>104.0</ele><time>2026-04-05T15:17:09Z</time></trkpt><trkpt lat="45.748578701563886" lon="13.660143230108389"><ele>104.0</ele><time>2026-04-05T15:17:09.999Z</time></trkpt><trkpt lat="45.74844903716524" lon="13.66027570082295"><ele>104.0</ele><time>2026-04-05T15:17:10.999Z</time></trkpt><trkpt lat="45.74831858428818" lon="13.660407074731479"><ele>104.33333333333333</ele><time>2026-04-05T15:17:11.999Z</time></trkpt><trkpt lat="45.74819023684344" lon="13.660542899308046"><ele>104.66666666666666</ele><time>2026-04-05T15:17:12.999Z</time></trkpt><trkpt lat="45.74806269620391" lon="13.660677035633064"><ele>105.0</ele><time>2026-04-05T15:17:13.999Z</time></trkpt><trkpt lat="45.74793465553322" lon="13.66080678108782"><ele>105.0</ele><time>2026-04-05T15:17:14.999Z</time></trkpt><trkpt lat="45.74780941678802" lon="13.660938034064424"><ele>105.0</ele><time>2026-04-05T15:17:15.999Z</time></trkpt><trkpt lat="45.747685715452235" lon="13.661065833295456"><ele>105.0</ele><time>2026-04-05T15:17:16.999Z</time></trkpt><trkpt lat="45.74756692700153" lon="13.661182121943353"><ele>107.5</ele><time>2026-04-05T15:17:17.999Z</time></trkpt><trkpt lat="45.747448482543994" lon="13.661294718259178"><ele>110.0</ele><time>2026-04-05T15:17:18.999Z</time></trkpt><trkpt lat="45.74732589372924" lon="13.66139982555869"><ele>112.5</ele><time>2026-04-05T15:17:19.999Z</time></trkpt><trkpt lat="45.74720585127992" lon="13.661503810431881"><ele>115.0</ele><time>2026-04-05T15:17:20.999Z</time></trkpt><trkpt lat="45.74708468538228" lon="13.66161090460955"><ele>115.0</ele><time>2026-04-05T15:17:21.999Z</time></trkpt><trkpt lat="45.74695903907678" lon="13.661721057490004"><ele>115.0</ele><time>2026-04-05T15:17:22.999Z</time></trkpt><trkpt lat="45.74683341179185" lon="13.66183762383538"><ele>115.0</ele><time>2026-04-05T15:17:23.999Z</time></trkpt><trkpt lat="45.746710810064926" lon="13.661974220556159"><ele>116.33333333333334</ele><time>2026-04-05T15:17:24.999Z</time></trkpt><trkpt lat="45.74658609701288" lon="13.662111983810721"><ele>117.66666666666666</ele><time>2026-04-05T15:17:25.999Z</time></trkpt><trkpt lat="45.74645931042455" lon="13.662257533317373"><ele>119.0</ele><time>2026-04-05T15:17:27Z</time></trkpt><trkpt lat="45.74633629809406" lon="13.662412592453773"><ele>119.0</ele><time>2026-04-05T15:17:28Z</time></trkpt><trkpt lat="45.746214302016824" lon="13.662573806855162"><ele>119.0</ele><time>2026-04-05T15:17:29Z</time></trkpt><trkpt lat="45.746093458829584" lon="13.662743525633841"><ele>119.0</ele><time>2026-04-05T15:17:30Z</time></trkpt><trkpt lat="45.7459743881033" lon="13.662914525891019"><ele>115.33333333333333</ele><time>2026-04-05T15:17:31Z</time></trkpt><trkpt lat="45.745857470750025" lon="13.66308906877267"><ele>111.66666666666666</ele><time>2026-04-05T15:17:32Z</time></trkpt><trkpt lat="45.74574143088653" lon="13.66326227922795"><ele>108.0</ele><time>2026-04-05T15:17:33Z</time></trkpt><trkpt lat="45.74562305786748" lon="13.663424555983156"><ele>108.0</ele><time>2026-04-05T15:17:34Z</time></trkpt><trkpt lat="45.74550871934395" lon="13.66358503660071"><ele>108.0</ele><time>2026-04-05T15:17:35Z</time></trkpt><trkpt lat="45.7453972100328" lon="13.663740040584491"><ele>108.0</ele><time>2026-04-05T15:17:36Z</time></trkpt><trkpt lat="45.74528803178322" lon="13.663878240246714"><ele>102.5</ele><time>2026-04-05T15:17:37Z</time></trkpt><trkpt lat="45.74517358875339" lon="13.664005506478285"><ele>97.0</ele><time>2026-04-05T15:17:38Z</time></trkpt><trkpt lat="45.745061715616934" lon="13.66413686907689"><ele>91.5</ele><time>2026-04-05T15:17:39Z</time></trkpt><trkpt lat="45.744950714273905" lon="13.664267122871104"><ele>86.0</ele><time>2026-04-05T15:17:40Z</time></trkpt><trkpt lat="45.74484032604132" lon="13.664402345811443"><ele>97.0</ele><time>2026-04-05T15:17:41Z</time></trkpt><trkpt lat="45.74472788061291" lon="13.664535428693792"><ele>108.0</ele><time>2026-04-05T15:17:42Z</time></trkpt><trkpt lat="45.74461934436819" lon="13.664673731419821"><ele>119.0</ele><time>2026-04-05T15:17:43Z</time></trkpt><trkpt lat="45.74451413110445" lon="13.664814034758743"><ele>130.0</ele><time>2026-04-05T15:17:44Z</time></trkpt><trkpt lat="45.7444189392886" lon="13.664963080584988"><ele>122.0</ele><time>2026-04-05T15:17:45Z</time></trkpt><trkpt lat="45.744327770062206" lon="13.665113130449635"><ele>114.0</ele><time>2026-04-05T15:17:46Z</time></trkpt><trkpt lat="45.74424468277132" lon="13.665258861154054"><ele>106.0</ele><time>2026-04-05T15:17:47Z</time></trkpt><trkpt lat="45.744158881925195" lon="13.665391659172133"><ele>98.0</ele><time>2026-04-05T15:17:48Z</time></trkpt><trkpt lat="45.74407562481696" lon="13.665551906188014"><ele>98.0</ele><time>2026-04-05T15:17:49Z</time></trkpt><trkpt lat="45.743994786535914" lon="13.665667231889469"><ele>98.0</ele><time>2026-04-05T15:17:50Z</time></trkpt><trkpt lat="45.743915438173616" lon="13.665786446931296"><ele>98.0</ele><time>2026-04-05T15:17:51Z</time></trkpt><trkpt lat="45.74384846515598" lon="13.665899969425466"><ele>98.0</ele><time>2026-04-05T15:17:52Z</time></trkpt><trkpt lat="45.74378759015743" lon="13.666009393407219"><ele>98.0</ele><time>2026-04-05T15:17:53Z</time></trkpt><trkpt lat="45.74372320063334" lon="13.666115758558186"><ele>102.2</ele><time>2026-04-05T15:17:54Z</time></trkpt><trkpt lat="45.74366021273294" lon="13.666225070965494"><ele>106.4</ele><time>2026-04-05T15:17:55Z</time></trkpt><trkpt lat="45.74359875008982" lon="13.666336094912381"><ele>110.60000000000001</ele><time>2026-04-05T15:17:56Z</time></trkpt><trkpt lat="45.74353965612659" lon="13.66646004771877"><ele>114.80000000000001</ele><time>2026-04-05T15:17:57Z</time></trkpt><trkpt lat="45.74348489591387" lon="13.666594723293343"><ele>119.0</ele><time>2026-04-05T15:17:58Z</time></trkpt><trkpt lat="45.74342696125836" lon="13.666729506541586"><ele>111.75</ele><time>2026-04-05T15:17:59Z</time></trkpt><trkpt lat="45.743372262551546" lon="13.666872953523225"><ele>104.5</ele><time>2026-04-05T15:18:00Z</time></trkpt><trkpt lat="45.74331728479624" lon="13.667018895015074"><ele>97.25</ele><time>2026-04-05T15:18:01Z</time></trkpt><trkpt lat="45.7432598014534" lon="13.66717358758194"><ele>90.0</ele><time>2026-04-05T15:18:02Z</time></trkpt><trkpt lat="45.743203193229256" lon="13.667330407586661"><ele>90.0</ele><time>2026-04-05T15:18:03Z</time></trkpt><trkpt lat="45.74313951249628" lon="13.667490373529537"><ele>90.0</ele><time>2026-04-05T15:18:04Z</time></trkpt><trkpt lat="45.7430691138633" lon="13.66766211782025"><ele>90.0</ele><time>2026-04-05T15:18:05Z</time></trkpt><trkpt lat="45.74298734721139" lon="13.667838545104996"><ele>90.0</ele><time>2026-04-05T15:18:06Z</time></trkpt><trkpt lat="45.74289896584491" lon="13.668018946044624"><ele>95.33333333333334</ele><time>2026-04-05T15:18:07Z</time></trkpt><trkpt lat="45.74281271329365" lon="13.668207113942204"><ele>100.66666666666667</ele><time>2026-04-05T15:18:08Z</time></trkpt><trkpt lat="45.74272315458378" lon="13.668400685107441"><ele>106.0</ele><time>2026-04-05T15:18:09Z</time></trkpt><trkpt lat="45.74262768378851" lon="13.668593138809594"><ele>98.0</ele><time>2026-04-05T15:18:10Z</time></trkpt><trkpt lat="45.7425319048605" lon="13.668794909528003"><ele>90.0</ele><time>2026-04-05T15:18:11Z</time></trkpt><trkpt lat="45.74243337579675" lon="13.668998505370272"><ele>82.0</ele><time>2026-04-05T15:18:12Z</time></trkpt><trkpt lat="45.74233514627819" lon="13.669204555832767"><ele>82.0</ele><time>2026-04-05T15:18:13Z</time></trkpt><trkpt lat="45.74224055559689" lon="13.669410471025218"><ele>82.0</ele><time>2026-04-05T15:18:14Z</time></trkpt><trkpt lat="45.74214849641378" lon="13.669617602805737"><ele>82.0</ele><time>2026-04-05T15:18:15Z</time></trkpt><trkpt lat="45.74206108229518" lon="13.66983011339717"><ele>79.33333333333333</ele><time>2026-04-05T15:18:16Z</time></trkpt><trkpt lat="45.74197476130206" lon="13.670045636726782"><ele>76.66666666666667</ele><time>2026-04-05T15:18:17Z</time></trkpt><trkpt lat="45.74189139256614" lon="13.670262345787426"><ele>74.0</ele><time>2026-04-05T15:18:18Z</time></trkpt><trkpt lat="45.7418134230124" lon="13.670480962961662"><ele>74.0</ele><time>2026-04-05T15:18:19Z</time></trkpt><trkpt lat="45.741733751931264" lon="13.67069144136975"><ele>74.0</ele><time>2026-04-05T15:18:20Z</time></trkpt><trkpt lat="45.741657868239486" lon="13.670894804846967"><ele>74.0</ele><time>2026-04-05T15:18:21Z</time></trkpt><trkpt lat="45.7415850527279" lon="13.671093498996676"><ele>80.33333333333334</ele><time>2026-04-05T15:18:22Z</time></trkpt><trkpt lat="45.74151202538855" lon="13.67128820374767"><ele>86.66666666666667</ele><time>2026-04-05T15:18:23Z</time></trkpt><trkpt lat="45.741440750120184" lon="13.671477627149939"><ele>93.0</ele><time>2026-04-05T15:18:24Z</time></trkpt><trkpt lat="45.7413724001213" lon="13.671662942452652"><ele>93.0</ele><time>2026-04-05T15:18:25Z</time></trkpt><trkpt lat="45.74130533250497" lon="13.671845986786824"><ele>93.0</ele><time>2026-04-05T15:18:26Z</time></trkpt><trkpt lat="45.741236051519046" lon="13.67202813024269"><ele>93.0</ele><time>2026-04-05T15:18:27Z</time></trkpt><trkpt lat="45.74116280221822" lon="13.672210053283125"><ele>93.0</ele><time>2026-04-05T15:18:28Z</time></trkpt><trkpt lat="45.74108077138751" lon="13.672395985228688"><ele>89.0</ele><time>2026-04-05T15:18:29Z</time></trkpt><trkpt lat="45.74099761457957" lon="13.672587825102136"><ele>85.0</ele><time>2026-04-05T15:18:30Z</time></trkpt><trkpt lat="45.74091460380283" lon="13.672779429165976"><ele>81.0</ele><time>2026-04-05T15:18:31Z</time></trkpt><trkpt lat="45.740830139270166" lon="13.672971815152914"><ele>81.0</ele><time>2026-04-05T15:18:32Z</time></trkpt><trkpt lat="45.740746851298766" lon="13.673165750043358"><ele>81.0</ele><time>2026-04-05T15:18:33Z</time></trkpt><trkpt lat="45.740662031232276" lon="13.673361481286033"><ele>81.0</ele><time>2026-04-05T15:18:34Z</time></trkpt><trkpt lat="45.740578724728714" lon="13.673556019534162"><ele>87.66666666666666</ele><time>2026-04-05T15:18:35Z</time></trkpt><trkpt lat="45.740494999288266" lon="13.673747123516662"><ele>94.33333333333333</ele><time>2026-04-05T15:18:36Z</time></trkpt><trkpt lat="45.74041237174858" lon="13.67393693485244"><ele>101.0</ele><time>2026-04-05T15:18:37Z</time></trkpt><trkpt lat="45.74032653183421" lon="13.674120993982903"><ele>101.0</ele><time>2026-04-05T15:18:38Z</time></trkpt><trkpt lat="45.740239546437344" lon="13.674301849080791"><ele>101.0</ele><time>2026-04-05T15:18:39Z</time></trkpt><trkpt lat="45.74014600406614" lon="13.674474400678323"><ele>101.0</ele><time>2026-04-05T15:18:40Z</time></trkpt><trkpt lat="45.74005234847852" lon="13.674645854726172"><ele>96.33333333333333</ele><time>2026-04-05T15:18:41Z</time></trkpt><trkpt lat="45.739952369172514" lon="13.67481240602579"><ele>91.66666666666666</ele><time>2026-04-05T15:18:42Z</time></trkpt><trkpt lat="45.73984874218868" lon="13.674976748425676"><ele>87.0</ele><time>2026-04-05T15:18:43Z</time></trkpt><trkpt lat="45.73974309030315" lon="13.675141277617362"><ele>95.0</ele><time>2026-04-05T15:18:44Z</time></trkpt><trkpt lat="45.739639259646424" lon="13.675307177193497"><ele>103.0</ele><time>2026-04-05T15:18:45Z</time></trkpt><trkpt lat="45.739534113641696" lon="13.675473074701717"><ele>111.0</ele><time>2026-04-05T15:18:46Z</time></trkpt><trkpt lat="45.73942411831471" lon="13.675635566603654"><ele>105.33333333333333</ele><time>2026-04-05T15:18:47Z</time></trkpt><trkpt lat="45.739316046288515" lon="13.675805067948332"><ele>99.66666666666666</ele><time>2026-04-05T15:18:48Z</time></trkpt><trkpt lat="45.739205480050686" lon="13.675976811880863"><ele>94.0</ele><time>2026-04-05T15:18:49Z</time></trkpt><trkpt lat="45.73909340662396" lon="13.676148115206304"><ele>94.0</ele><time>2026-04-05T15:18:50Z</time></trkpt><trkpt lat="45.73897874497481" lon="13.67631511332724"><ele>94.0</ele><time>2026-04-05T15:18:51Z</time></trkpt><trkpt lat="45.73886451414436" lon="13.67647947035436"><ele>94.0</ele><time>2026-04-05T15:18:52Z</time></trkpt><trkpt lat="45.73874735690351" lon="13.676641350632757"><ele>94.0</ele><time>2026-04-05T15:18:53Z</time></trkpt><trkpt lat="45.73862693969012" lon="13.676795925327873"><ele>94.0</ele><time>2026-04-05T15:18:54Z</time></trkpt><trkpt lat="45.738499385485675" lon="13.676940302761574"><ele>94.0</ele><time>2026-04-05T15:18:55Z</time></trkpt><trkpt lat="45.738370639862005" lon="13.67708024649792"><ele>91.0</ele><time>2026-04-05T15:18:56Z</time></trkpt><trkpt lat="45.73824265559399" lon="13.677224928278733"><ele>88.0</ele><time>2026-04-05T15:18:57Z</time></trkpt><trkpt lat="45.738112582532715" lon="13.677367972254142"><ele>85.0</ele><time>2026-04-05T15:18:58Z</time></trkpt><trkpt lat="45.73798021043621" lon="13.67751146276541"><ele>85.0</ele><time>2026-04-05T15:18:59Z</time></trkpt><trkpt lat="45.73784920013735" lon="13.677660702434734"><ele>85.0</ele><time>2026-04-05T15:19:00Z</time></trkpt><trkpt lat="45.737715151522515" lon="13.677809795485892"><ele>85.0</ele><time>2026-04-05T15:19:01Z</time></trkpt><trkpt lat="45.73758432945429" lon="13.677968649002146"><ele>81.33333333333333</ele><time>2026-04-05T15:19:02Z</time></trkpt><trkpt lat="45.73745809516364" lon="13.678135250512206"><ele>77.66666666666667</ele><time>2026-04-05T15:19:03Z</time></trkpt><trkpt lat="45.73733929466958" lon="13.6783165823232"><ele>74.0</ele><time>2026-04-05T15:19:04Z</time></trkpt><trkpt lat="45.73722640554692" lon="13.678508119050568"><ele>85.0</ele><time>2026-04-05T15:19:05Z</time></trkpt><trkpt lat="45.737123613149905" lon="13.678712813029007"><ele>96.0</ele><time>2026-04-05T15:19:06Z</time></trkpt><trkpt lat="45.7370243862891" lon="13.678919589969466"><ele>107.0</ele><time>2026-04-05T15:19:07Z</time></trkpt><trkpt lat="45.73692024454888" lon="13.679121670566394"><ele>103.33333333333333</ele><time>2026-04-05T15:19:08Z</time></trkpt><trkpt lat="45.73679788012836" lon="13.679303760043345"><ele>99.66666666666666</ele><time>2026-04-05T15:19:09Z</time></trkpt><trkpt lat="45.736674737028856" lon="13.679476668379158"><ele>96.0</ele><time>2026-04-05T15:19:09.999Z</time></trkpt><trkpt lat="45.736543350042204" lon="13.679628950693711"><ele>96.0</ele><time>2026-04-05T15:19:10.999Z</time></trkpt><trkpt lat="45.736407495571136" lon="13.679769525568732"><ele>96.0</ele><time>2026-04-05T15:19:11.999Z</time></trkpt><trkpt lat="45.736271498946856" lon="13.679905484398613"><ele>96.0</ele><time>2026-04-05T15:19:12.999Z</time></trkpt><trkpt lat="45.73613988179754" lon="13.68004559708735"><ele>93.33333333333333</ele><time>2026-04-05T15:19:13.999Z</time></trkpt><trkpt lat="45.736011413134" lon="13.680185437660322"><ele>90.66666666666666</ele><time>2026-04-05T15:19:14.999Z</time></trkpt><trkpt lat="45.735888077053495" lon="13.68033150823363"><ele>88.0</ele><time>2026-04-05T15:19:15.999Z</time></trkpt><trkpt lat="45.73576995895204" lon="13.680488381938245"><ele>88.0</ele><time>2026-04-05T15:19:16.999Z</time></trkpt><trkpt lat="45.73565575678806" lon="13.68065222124824"><ele>88.0</ele><time>2026-04-05T15:19:17.999Z</time></trkpt><trkpt lat="45.73554137602038" lon="13.680815918416467"><ele>88.0</ele><time>2026-04-05T15:19:18.999Z</time></trkpt><trkpt lat="45.735423824472434" lon="13.680974463419085"><ele>84.0</ele><time>2026-04-05T15:19:19.999Z</time></trkpt><trkpt lat="45.735307281518516" lon="13.68113003353973"><ele>80.0</ele><time>2026-04-05T15:19:20.999Z</time></trkpt><trkpt lat="45.735193749224756" lon="13.68128425915927"><ele>76.0</ele><time>2026-04-05T15:19:21.999Z</time></trkpt><trkpt lat="45.73508077126541" lon="13.681438059280776"><ele>76.0</ele><time>2026-04-05T15:19:22.999Z</time></trkpt><trkpt lat="45.73496393975097" lon="13.68158632530941"><ele>76.0</ele><time>2026-04-05T15:19:23.999Z</time></trkpt><trkpt lat="45.73484333970018" lon="13.681729202039309"><ele>76.0</ele><time>2026-04-05T15:19:24.999Z</time></trkpt><trkpt lat="45.734717227348135" lon="13.681861748154407"><ele>74.33333333333333</ele><time>2026-04-05T15:19:25.999Z</time></trkpt><trkpt lat="45.73458721141636" lon="13.681986928500343"><ele>72.66666666666667</ele><time>2026-04-05T15:19:26.999Z</time></trkpt><trkpt lat="45.73445713180561" lon="13.682109541218162"><ele>71.0</ele><time>2026-04-05T15:19:27.999Z</time></trkpt><trkpt lat="45.73432926217006" lon="13.682227839193862"><ele>71.0</ele><time>2026-04-05T15:19:28.999Z</time></trkpt><trkpt lat="45.73420430352863" lon="13.682344779954771"><ele>71.0</ele><time>2026-04-05T15:19:29.999Z</time></trkpt><trkpt lat="45.73407977185909" lon="13.682461387391244"><ele>71.0</ele><time>2026-04-05T15:19:30.999Z</time></trkpt><trkpt lat="45.733956040009794" lon="13.682576396725864"><ele>71.0</ele><time>2026-04-05T15:19:31.999Z</time></trkpt><trkpt lat="45.73383389093503" lon="13.682693432501038"><ele>70.5</ele><time>2026-04-05T15:19:33Z</time></trkpt><trkpt lat="45.733712310977" lon="13.682807360579895"><ele>70.0</ele><time>2026-04-05T15:19:34Z</time></trkpt><trkpt lat="45.73359081259518" lon="13.682920212456352"><ele>69.5</ele><time>2026-04-05T15:19:35Z</time></trkpt><trkpt lat="45.7334689586973" lon="13.68303260931632"><ele>69.0</ele><time>2026-04-05T15:19:36Z</time></trkpt><trkpt lat="45.733349179050165" lon="13.683148199159222"><ele>69.0</ele><time>2026-04-05T15:19:37Z</time></trkpt><trkpt lat="45.73323445120811" lon="13.68326576029809"><ele>69.0</ele><time>2026-04-05T15:19:38Z</time></trkpt><trkpt lat="45.73312245585141" lon="13.68338468712842"><ele>69.0</ele><time>2026-04-05T15:19:39Z</time></trkpt><trkpt lat="45.733014379935604" lon="13.683514351492247"><ele>69.0</ele><time>2026-04-05T15:19:40Z</time></trkpt><trkpt lat="45.732911133520005" lon="13.683652872314848"><ele>67.0</ele><time>2026-04-05T15:19:41Z</time></trkpt><trkpt lat="45.73280539077809" lon="13.683794214419422"><ele>65.0</ele><time>2026-04-05T15:19:42Z</time></trkpt><trkpt lat="45.73270029826947" lon="13.683939495150867"><ele>63.0</ele><time>2026-04-05T15:19:43Z</time></trkpt><trkpt lat="45.73259504930367" lon="13.684088057635073"><ele>61.0</ele><time>2026-04-05T15:19:44Z</time></trkpt><trkpt lat="45.7324895358244" lon="13.684236348784868"><ele>61.0</ele><time>2026-04-05T15:19:45Z</time></trkpt><trkpt lat="45.732386304141365" lon="13.68439029703746"><ele>61.0</ele><time>2026-04-05T15:19:46Z</time></trkpt><trkpt lat="45.73228256250859" lon="13.684544999267121"><ele>61.0</ele><time>2026-04-05T15:19:47Z</time></trkpt><trkpt lat="45.732178135371235" lon="13.68469833769459"><ele>61.0</ele><time>2026-04-05T15:19:48Z</time></trkpt><trkpt lat="45.73207191968771" lon="13.684847386448595"><ele>58.5</ele><time>2026-04-05T15:19:49Z</time></trkpt><trkpt lat="45.731967375624656" lon="13.684996012407524"><ele>56.0</ele><time>2026-04-05T15:19:50Z</time></trkpt><trkpt lat="45.73186321592184" lon="13.68514493492017"><ele>53.5</ele><time>2026-04-05T15:19:51Z</time></trkpt><trkpt lat="45.73175919402633" lon="13.685295154619435"><ele>51.0</ele><time>2026-04-05T15:19:52Z</time></trkpt><trkpt lat="45.73165235521078" lon="13.685443093568708"><ele>56.0</ele><time>2026-04-05T15:19:53Z</time></trkpt><trkpt lat="45.73154786106752" lon="13.685593792975055"><ele>61.0</ele><time>2026-04-05T15:19:54Z</time></trkpt><trkpt lat="45.731445119306784" lon="13.68574557082504"><ele>66.0</ele><time>2026-04-05T15:19:55Z</time></trkpt><trkpt lat="45.73135191383847" lon="13.685900755151405"><ele>71.0</ele><time>2026-04-05T15:19:56Z</time></trkpt><trkpt lat="45.73126669870086" lon="13.686044750979518"><ele>67.75</ele><time>2026-04-05T15:19:57Z</time></trkpt><trkpt lat="45.73118997095638" lon="13.686194469950879"><ele>64.5</ele><time>2026-04-05T15:19:58Z</time></trkpt><trkpt lat="45.731113800058544" lon="13.686347881297635"><ele>61.25</ele><time>2026-04-05T15:19:59Z</time></trkpt><trkpt lat="45.73103595815703" lon="13.686504553942601"><ele>58.0</ele><time>2026-04-05T15:20:00Z</time></trkpt><trkpt lat="45.730951884137966" lon="13.686656786391943"><ele>58.0</ele><time>2026-04-05T15:20:01Z</time></trkpt><trkpt lat="45.7308579355118" lon="13.686801670533995"><ele>58.0</ele><time>2026-04-05T15:20:02Z</time></trkpt><trkpt lat="45.73075931204816" lon="13.686942389541429"><ele>58.0</ele><time>2026-04-05T15:20:03Z</time></trkpt><trkpt lat="45.730656914342056" lon="13.68707380991425"><ele>58.0</ele><time>2026-04-05T15:20:04Z</time></trkpt><trkpt lat="45.73054670005032" lon="13.687190352676776"><ele>55.75</ele><time>2026-04-05T15:20:05Z</time></trkpt><trkpt lat="45.730431565579735" lon="13.687300534950866"><ele>53.5</ele><time>2026-04-05T15:20:06Z</time></trkpt><trkpt lat="45.73031120738902" lon="13.687405478861914"><ele>51.25</ele><time>2026-04-05T15:20:07Z</time></trkpt><trkpt lat="45.73019461490775" lon="13.687519967026535"><ele>49.0</ele><time>2026-04-05T15:20:08Z</time></trkpt><trkpt lat="45.73008440196387" lon="13.687642499698098"><ele>54.25</ele><time>2026-04-05T15:20:09Z</time></trkpt><trkpt lat="45.729975719790495" lon="13.68776968104188"><ele>59.5</ele><time>2026-04-05T15:20:10Z</time></trkpt><trkpt lat="45.72986547438058" lon="13.687902284266857"><ele>64.75</ele><time>2026-04-05T15:20:11Z</time></trkpt><trkpt lat="45.729760155904614" lon="13.688054154036696"><ele>70.0</ele><time>2026-04-05T15:20:12Z</time></trkpt><trkpt lat="45.72966233580551" lon="13.688221006033004"><ele>70.0</ele><time>2026-04-05T15:20:13Z</time></trkpt><trkpt lat="45.72957086203426" lon="13.688399035115491"><ele>70.0</ele><time>2026-04-05T15:20:14Z</time></trkpt><trkpt lat="45.72948380823588" lon="13.688578134167503"><ele>70.0</ele><time>2026-04-05T15:20:15Z</time></trkpt><trkpt lat="45.729393700749334" lon="13.6887561195081"><ele>68.0</ele><time>2026-04-05T15:20:16Z</time></trkpt><trkpt lat="45.729299991795" lon="13.688925014179421"><ele>66.0</ele><time>2026-04-05T15:20:17Z</time></trkpt><trkpt lat="45.72920161309302" lon="13.689089323469359"><ele>64.0</ele><time>2026-04-05T15:20:18Z</time></trkpt><trkpt lat="45.72909250107623" lon="13.689237982593854"><ele>64.0</ele><time>2026-04-05T15:20:19Z</time></trkpt><trkpt lat="45.72897916458753" lon="13.68937933932954"><ele>64.0</ele><time>2026-04-05T15:20:20Z</time></trkpt><trkpt lat="45.72886148585112" lon="13.689513605396797"><ele>64.0</ele><time>2026-04-05T15:20:21Z</time></trkpt><trkpt lat="45.72874045478635" lon="13.689647445685827"><ele>61.666666666666664</ele><time>2026-04-05T15:20:22Z</time></trkpt><trkpt lat="45.72862419866701" lon="13.689788954013723"><ele>59.33333333333333</ele><time>2026-04-05T15:20:23Z</time></trkpt><trkpt lat="45.72851150295405" lon="13.689939850542869"><ele>57.0</ele><time>2026-04-05T15:20:24Z</time></trkpt><trkpt lat="45.728400578780516" lon="13.690091164396431"><ele>57.0</ele><time>2026-04-05T15:20:25Z</time></trkpt><trkpt lat="45.72829153930863" lon="13.69024873854577"><ele>57.0</ele><time>2026-04-05T15:20:26Z</time></trkpt><trkpt lat="45.728180228267426" lon="13.690395712435418"><ele>57.0</ele><time>2026-04-05T15:20:27Z</time></trkpt><trkpt lat="45.728076155728466" lon="13.690543131311324"><ele>60.5</ele><time>2026-04-05T15:20:28Z</time></trkpt><trkpt lat="45.72797648621956" lon="13.690688374079448"><ele>64.0</ele><time>2026-04-05T15:20:29Z</time></trkpt><trkpt lat="45.72787825821361" lon="13.69082677806982"><ele>67.5</ele><time>2026-04-05T15:20:30Z</time></trkpt><trkpt lat="45.72777771705416" lon="13.690960309774445"><ele>71.0</ele><time>2026-04-05T15:20:31Z</time></trkpt><trkpt lat="45.727679596579286" lon="13.691097572394558"><ele>71.0</ele><time>2026-04-05T15:20:32Z</time></trkpt><trkpt lat="45.72757848402619" lon="13.691226425604944"><ele>71.0</ele><time>2026-04-05T15:20:33Z</time></trkpt><trkpt lat="45.72747383024009" lon="13.691348324296957"><ele>71.0</ele><time>2026-04-05T15:20:34Z</time></trkpt><trkpt lat="45.72736347128232" lon="13.691456307695073"><ele>71.0</ele><time>2026-04-05T15:20:35Z</time></trkpt><trkpt lat="45.727249667743536" lon="13.691556192552676"><ele>71.0</ele><time>2026-04-05T15:20:36Z</time></trkpt><trkpt lat="45.72713705754252" lon="13.691654096313219"><ele>71.0</ele><time>2026-04-05T15:20:37Z</time></trkpt><trkpt lat="45.72702397010906" lon="13.691749258512264"><ele>71.0</ele><time>2026-04-05T15:20:38Z</time></trkpt><trkpt lat="45.72691078138804" lon="13.691843062833517"><ele>71.0</ele><time>2026-04-05T15:20:39Z</time></trkpt><trkpt lat="45.726804059430314" lon="13.691942283397639"><ele>70.75</ele><time>2026-04-05T15:20:40Z</time></trkpt><trkpt lat="45.72669966381482" lon="13.692047187376861"><ele>70.5</ele><time>2026-04-05T15:20:41Z</time></trkpt><trkpt lat="45.726596769565255" lon="13.692166947840258"><ele>70.25</ele><time>2026-04-05T15:20:42Z</time></trkpt><trkpt lat="45.72648985174535" lon="13.692300897584246"><ele>70.0</ele><time>2026-04-05T15:20:43Z</time></trkpt><trkpt lat="45.72638493221263" lon="13.69245269566722"><ele>70.0</ele><time>2026-04-05T15:20:44Z</time></trkpt><trkpt lat="45.72628151175162" lon="13.692615692295563"><ele>70.0</ele><time>2026-04-05T15:20:45Z</time></trkpt><trkpt lat="45.7261787445443" lon="13.692780303134278"><ele>70.0</ele><time>2026-04-05T15:20:46Z</time></trkpt><trkpt lat="45.72607656678542" lon="13.692938214843402"><ele>68.0</ele><time>2026-04-05T15:20:47Z</time></trkpt><trkpt lat="45.72597714027435" lon="13.693091190252833"><ele>66.0</ele><time>2026-04-05T15:20:48Z</time></trkpt><trkpt lat="45.72587950914759" lon="13.693239908714313"><ele>64.0</ele><time>2026-04-05T15:20:49Z</time></trkpt><trkpt lat="45.72577837931335" lon="13.693378542885291"><ele>62.0</ele><time>2026-04-05T15:20:50Z</time></trkpt><trkpt lat="45.72567371991349" lon="13.69350489334085"><ele>63.75</ele><time>2026-04-05T15:20:51Z</time></trkpt><trkpt lat="45.72556007155245" lon="13.693612943647189"><ele>65.5</ele><time>2026-04-05T15:20:52Z</time></trkpt><trkpt lat="45.725442026497596" lon="13.693705323567999"><ele>67.25</ele><time>2026-04-05T15:20:53Z</time></trkpt><trkpt lat="45.72532123509726" lon="13.693784633153012"><ele>69.0</ele><time>2026-04-05T15:20:54Z</time></trkpt><trkpt lat="45.72519579918583" lon="13.69385086748523"><ele>69.0</ele><time>2026-04-05T15:20:55Z</time></trkpt><trkpt lat="45.72506569524252" lon="13.693908559208328"><ele>69.0</ele><time>2026-04-05T15:20:56Z</time></trkpt><trkpt lat="45.724931033517194" lon="13.693957254213931"><ele>69.0</ele><time>2026-04-05T15:20:57Z</time></trkpt><trkpt lat="45.724794569947356" lon="13.694002521405023"><ele>69.0</ele><time>2026-04-05T15:20:58Z</time></trkpt><trkpt lat="45.72465699958132" lon="13.69406028713509"><ele>69.0</ele><time>2026-04-05T15:20:59Z</time></trkpt><trkpt lat="45.72452807723685" lon="13.694132775566898"><ele>69.0</ele><time>2026-04-05T15:21:00Z</time></trkpt><trkpt lat="45.72440089671151" lon="13.694208264094806"><ele>69.0</ele><time>2026-04-05T15:21:01Z</time></trkpt><trkpt lat="45.72427549480456" lon="13.694285911925183"><ele>69.0</ele><time>2026-04-05T15:21:02Z</time></trkpt><trkpt lat="45.72415100473446" lon="13.694364762864048"><ele>72.0</ele><time>2026-04-05T15:21:03Z</time></trkpt><trkpt lat="45.72402924103419" lon="13.69444941133138"><ele>75.0</ele><time>2026-04-05T15:21:04Z</time></trkpt><trkpt lat="45.72390646368682" lon="13.694535787166627"><ele>78.0</ele><time>2026-04-05T15:21:05Z</time></trkpt><trkpt lat="45.72378387574682" lon="13.694619605066467"><ele>81.0</ele><time>2026-04-05T15:21:06Z</time></trkpt><trkpt lat="45.72366352001677" lon="13.694711901016591"><ele>75.25</ele><time>2026-04-05T15:21:07Z</time></trkpt><trkpt lat="45.723548859464586" lon="13.69481799866647"><ele>69.5</ele><time>2026-04-05T15:21:08Z</time></trkpt><trkpt lat="45.72343920854305" lon="13.694935599826078"><ele>63.75</ele><time>2026-04-05T15:21:09Z</time></trkpt><trkpt lat="45.72333822664015" lon="13.695061734918857"><ele>58.0</ele><time>2026-04-05T15:21:10Z</time></trkpt><trkpt lat="45.72324119506521" lon="13.695188420626287"><ele>62.5</ele><time>2026-04-05T15:21:11Z</time></trkpt><trkpt lat="45.723146978573496" lon="13.695318140064435"><ele>67.0</ele><time>2026-04-05T15:21:12Z</time></trkpt><trkpt lat="45.723049320170404" lon="13.695443617749898"><ele>71.5</ele><time>2026-04-05T15:21:13Z</time></trkpt><trkpt lat="45.72295408241142" lon="13.695573464377773"><ele>76.0</ele><time>2026-04-05T15:21:13.999Z</time></trkpt><trkpt lat="45.72285666801811" lon="13.695701212124243"><ele>76.0</ele><time>2026-04-05T15:21:14.999Z</time></trkpt><trkpt lat="45.72275895499423" lon="13.695835037226239"><ele>76.0</ele><time>2026-04-05T15:21:15.999Z</time></trkpt><trkpt lat="45.72265917264935" lon="13.695971117261939"><ele>76.0</ele><time>2026-04-05T15:21:16.999Z</time></trkpt><trkpt lat="45.72255742149512" lon="13.696106594650772"><ele>76.0</ele><time>2026-04-05T15:21:17.999Z</time></trkpt><trkpt lat="45.72245391083062" lon="13.696247685320985"><ele>76.0</ele><time>2026-04-05T15:21:18.999Z</time></trkpt><trkpt lat="45.722345324751714" lon="13.696389143401582"><ele>76.0</ele><time>2026-04-05T15:21:19.999Z</time></trkpt><trkpt lat="45.722234628693975" lon="13.696527168789911"><ele>76.0</ele><time>2026-04-05T15:21:20.999Z</time></trkpt><trkpt lat="45.72212178152597" lon="13.6966601779746"><ele>76.0</ele><time>2026-04-05T15:21:21.999Z</time></trkpt><trkpt lat="45.72200986231467" lon="13.696792661975842"><ele>73.75</ele><time>2026-04-05T15:21:22.999Z</time></trkpt><trkpt lat="45.72189850943745" lon="13.696926910239698"><ele>71.5</ele><time>2026-04-05T15:21:23.999Z</time></trkpt><trkpt lat="45.7217893657902" lon="13.697067267034955"><ele>69.25</ele><time>2026-04-05T15:21:24.999Z</time></trkpt><trkpt lat="45.72168073854488" lon="13.69721105381564"><ele>67.0</ele><time>2026-04-05T15:21:25.999Z</time></trkpt><trkpt lat="45.7215715463386" lon="13.697356489564875"><ele>67.0</ele><time>2026-04-05T15:21:26.999Z</time></trkpt><trkpt lat="45.72145713556187" lon="13.697500422193745"><ele>67.0</ele><time>2026-04-05T15:21:27.999Z</time></trkpt><trkpt lat="45.721342761589895" lon="13.697647806726282"><ele>67.0</ele><time>2026-04-05T15:21:28.999Z</time></trkpt><trkpt lat="45.72122858738464" lon="13.697793715923291"><ele>63.666666666666664</ele><time>2026-04-05T15:21:29.999Z</time></trkpt><trkpt lat="45.721114124023494" lon="13.69794593121844"><ele>60.33333333333333</ele><time>2026-04-05T15:21:30.999Z</time></trkpt><trkpt lat="45.721001658957405" lon="13.698097507155385"><ele>57.0</ele><time>2026-04-05T15:21:31.999Z</time></trkpt><trkpt lat="45.72089119534842" lon="13.698248821994188"><ele>57.0</ele><time>2026-04-05T15:21:32.999Z</time></trkpt><trkpt lat="45.72078017179008" lon="13.698395234123781"><ele>57.0</ele><time>2026-04-05T15:21:33.999Z</time></trkpt><trkpt lat="45.7206688352261" lon="13.69854098426693"><ele>57.0</ele><time>2026-04-05T15:21:34.999Z</time></trkpt><trkpt lat="45.720558993999056" lon="13.698685674537016"><ele>54.66666666666667</ele><time>2026-04-05T15:21:35.999Z</time></trkpt><trkpt lat="45.72044830669487" lon="13.698831690394536"><ele>52.333333333333336</ele><time>2026-04-05T15:21:36.999Z</time></trkpt><trkpt lat="45.72033894319776" lon="13.698977703106056"><ele>50.0</ele><time>2026-04-05T15:21:37.999Z</time></trkpt><trkpt lat="45.72022736305056" lon="13.69912163438953"><ele>50.0</ele><time>2026-04-05T15:21:39Z</time></trkpt><trkpt lat="45.720118581978255" lon="13.699265704713774"><ele>50.0</ele><time>2026-04-05T15:21:40Z</time></trkpt><trkpt lat="45.72001015976598" lon="13.699408205132734"><ele>50.0</ele><time>2026-04-05T15:21:41Z</time></trkpt><trkpt lat="45.71989813795878" lon="13.699546836404831"><ele>50.0</ele><time>2026-04-05T15:21:42Z</time></trkpt><trkpt lat="45.7197876326575" lon="13.699686579771013"><ele>53.5</ele><time>2026-04-05T15:21:43Z</time></trkpt><trkpt lat="45.71967663226665" lon="13.69982273675193"><ele>57.0</ele><time>2026-04-05T15:21:44Z</time></trkpt><trkpt lat="45.71956553622656" lon="13.699961339198747"><ele>60.5</ele><time>2026-04-05T15:21:45Z</time></trkpt><trkpt lat="45.719453435362816" lon="13.700104947013166"><ele>64.0</ele><time>2026-04-05T15:21:46Z</time></trkpt><trkpt lat="45.719343436388606" lon="13.700257622420374"><ele>64.0</ele><time>2026-04-05T15:21:47Z</time></trkpt><trkpt lat="45.71924116318051" lon="13.700424304990795"><ele>64.0</ele><time>2026-04-05T15:21:48Z</time></trkpt><trkpt lat="45.71913987996082" lon="13.70060347054946"><ele>64.0</ele><time>2026-04-05T15:21:49Z</time></trkpt><trkpt lat="45.719049767919934" lon="13.700791936324729"><ele>64.0</ele><time>2026-04-05T15:21:50Z</time></trkpt><trkpt lat="45.71895883377542" lon="13.700981448253033"><ele>64.0</ele><time>2026-04-05T15:21:51Z</time></trkpt><trkpt lat="45.71886421678538" lon="13.701166885527325"><ele>64.0</ele><time>2026-04-05T15:21:52Z</time></trkpt><trkpt lat="45.71876414481159" lon="13.701346153077107"><ele>61.33333333333333</ele><time>2026-04-05T15:21:53Z</time></trkpt><trkpt lat="45.71865880645691" lon="13.70151480830723"><ele>58.66666666666667</ele><time>2026-04-05T15:21:54Z</time></trkpt><trkpt lat="45.718549851352385" lon="13.70167555028216"><ele>56.0</ele><time>2026-04-05T15:21:55Z</time></trkpt><trkpt lat="45.71843779653465" lon="13.701826472921155"><ele>63.333333333333336</ele><time>2026-04-05T15:21:56Z</time></trkpt><trkpt lat="45.71832437129084" lon="13.701972941091606"><ele>70.66666666666667</ele><time>2026-04-05T15:21:57Z</time></trkpt><trkpt lat="45.71820926555162" lon="13.702105904434669"><ele>78.0</ele><time>2026-04-05T15:21:58Z</time></trkpt><trkpt lat="45.718087802690256" lon="13.702230000426015"><ele>78.0</ele><time>2026-04-05T15:21:59Z</time></trkpt><trkpt lat="45.717973405403214" lon="13.702357878884646"><ele>78.0</ele><time>2026-04-05T15:22:00Z</time></trkpt><trkpt lat="45.71786009472178" lon="13.702497385875294"><ele>78.0</ele><time>2026-04-05T15:22:01Z</time></trkpt><trkpt lat="45.71774622542782" lon="13.70264259167746"><ele>78.0</ele><time>2026-04-05T15:22:02Z</time></trkpt><trkpt lat="45.71763734953653" lon="13.702797066399219"><ele>74.0</ele><time>2026-04-05T15:22:03Z</time></trkpt><trkpt lat="45.717529066807074" lon="13.70295709888503"><ele>70.0</ele><time>2026-04-05T15:22:04Z</time></trkpt><trkpt lat="45.71742473997927" lon="13.70312238183198"><ele>66.0</ele><time>2026-04-05T15:22:05Z</time></trkpt><trkpt lat="45.717321760042495" lon="13.703285032014978"><ele>66.0</ele><time>2026-04-05T15:22:06Z</time></trkpt><trkpt lat="45.71721966700774" lon="13.7034413005911"><ele>66.0</ele><time>2026-04-05T15:22:07Z</time></trkpt><trkpt lat="45.717119733733455" lon="13.70359731964227"><ele>66.0</ele><time>2026-04-05T15:22:08Z</time></trkpt><trkpt lat="45.71701990867487" lon="13.70374933966226"><ele>66.0</ele><time>2026-04-05T15:22:09Z</time></trkpt><trkpt lat="45.71692205619141" lon="13.703902070609418"><ele>67.75</ele><time>2026-04-05T15:22:10Z</time></trkpt><trkpt lat="45.71682354236127" lon="13.704055928200333"><ele>69.5</ele><time>2026-04-05T15:22:11Z</time></trkpt><trkpt lat="45.716726130284506" lon="13.704211311986988"><ele>71.25</ele><time>2026-04-05T15:22:12Z</time></trkpt><trkpt lat="45.71663188698339" lon="13.704373172651882"><ele>73.0</ele><time>2026-04-05T15:22:13Z</time></trkpt><trkpt lat="45.71654494817485" lon="13.70456323482678"><ele>73.0</ele><time>2026-04-05T15:22:14Z</time></trkpt><trkpt lat="45.71646341692949" lon="13.704751832225233"><ele>73.0</ele><time>2026-04-05T15:22:15Z</time></trkpt><trkpt lat="45.716381271002014" lon="13.704943097975901"><ele>73.0</ele><time>2026-04-05T15:22:16Z</time></trkpt><trkpt lat="45.7163002324683" lon="13.705136194925872"><ele>69.5</ele><time>2026-04-05T15:22:17Z</time></trkpt><trkpt lat="45.716212741484284" lon="13.705316842180775"><ele>66.0</ele><time>2026-04-05T15:22:18Z</time></trkpt><trkpt lat="45.71611907400238" lon="13.705483947976512"><ele>62.5</ele><time>2026-04-05T15:22:19Z</time></trkpt><trkpt lat="45.71601805802197" lon="13.705631147985443"><ele>59.0</ele><time>2026-04-05T15:22:20Z</time></trkpt><trkpt lat="45.715910545111534" lon="13.705763319943648"><ele>59.0</ele><time>2026-04-05T15:22:21Z</time></trkpt><trkpt lat="45.715797121144426" lon="13.705883393895345"><ele>59.0</ele><time>2026-04-05T15:22:22Z</time></trkpt><trkpt lat="45.71567704552747" lon="13.705993405450972"><ele>59.0</ele><time>2026-04-05T15:22:23Z</time></trkpt><trkpt lat="45.715554504130154" lon="13.706097932463821"><ele>59.0</ele><time>2026-04-05T15:22:24Z</time></trkpt><trkpt lat="45.715433706827376" lon="13.706211278324163"><ele>57.0</ele><time>2026-04-05T15:22:25Z</time></trkpt><trkpt lat="45.715323260965455" lon="13.706339302440286"><ele>55.0</ele><time>2026-04-05T15:22:26Z</time></trkpt><trkpt lat="45.71521962278307" lon="13.706482392332001"><ele>53.0</ele><time>2026-04-05T15:22:27Z</time></trkpt><trkpt lat="45.71511816650034" lon="13.706633851658502"><ele>51.0</ele><time>2026-04-05T15:22:28Z</time></trkpt><trkpt lat="45.715014991222276" lon="13.706783269529831"><ele>56.5</ele><time>2026-04-05T15:22:29Z</time></trkpt><trkpt lat="45.71491035731408" lon="13.706931792597583"><ele>62.0</ele><time>2026-04-05T15:22:30Z</time></trkpt><trkpt lat="45.714806217738484" lon="13.70708120061491"><ele>67.5</ele><time>2026-04-05T15:22:31Z</time></trkpt><trkpt lat="45.714699396307765" lon="13.707233877148013"><ele>73.0</ele><time>2026-04-05T15:22:32Z</time></trkpt><trkpt lat="45.71459119849605" lon="13.707387008907986"><ele>73.0</ele><time>2026-04-05T15:22:33Z</time></trkpt><trkpt lat="45.714481647493905" lon="13.707541114825558"><ele>73.0</ele><time>2026-04-05T15:22:34Z</time></trkpt><trkpt lat="45.714373105946876" lon="13.707700211022171"><ele>73.0</ele><time>2026-04-05T15:22:35Z</time></trkpt><trkpt lat="45.71426447577333" lon="13.707861279655951"><ele>70.33333333333333</ele><time>2026-04-05T15:22:36Z</time></trkpt><trkpt lat="45.71415218995302" lon="13.70802107509147"><ele>67.66666666666667</ele><time>2026-04-05T15:22:37Z</time></trkpt><trkpt lat="45.71403896128734" lon="13.708181247585422"><ele>65.0</ele><time>2026-04-05T15:22:38Z</time></trkpt><trkpt lat="45.71392768869586" lon="13.70834166293324"><ele>65.0</ele><time>2026-04-05T15:22:39Z</time></trkpt><trkpt lat="45.713814886567356" lon="13.708498410368296"><ele>65.0</ele><time>2026-04-05T15:22:40Z</time></trkpt><trkpt lat="45.71370655899369" lon="13.708652849393225"><ele>65.0</ele><time>2026-04-05T15:22:41Z</time></trkpt><trkpt lat="45.71359836440388" lon="13.708803958164443"><ele>61.5</ele><time>2026-04-05T15:22:42Z</time></trkpt><trkpt lat="45.713494505116294" lon="13.708952310395732"><ele>58.0</ele><time>2026-04-05T15:22:43Z</time></trkpt><trkpt lat="45.713390313351454" lon="13.709100597711302"><ele>54.5</ele><time>2026-04-05T15:22:44Z</time></trkpt><trkpt lat="45.71328691542138" lon="13.709246655687167"><ele>51.0</ele><time>2026-04-05T15:22:45Z</time></trkpt><trkpt lat="45.713184621076536" lon="13.709394321322218"><ele>58.66666666666667</ele><time>2026-04-05T15:22:46Z</time></trkpt><trkpt lat="45.71307849637189" lon="13.709543292362182"><ele>66.33333333333334</ele><time>2026-04-05T15:22:47Z</time></trkpt><trkpt lat="45.71297205691008" lon="13.709695805009785"><ele>74.0</ele><time>2026-04-05T15:22:48Z</time></trkpt><trkpt lat="45.71286498266813" lon="13.709853251692628"><ele>74.0</ele><time>2026-04-05T15:22:49Z</time></trkpt><trkpt lat="45.71275729715194" lon="13.710012849874586"><ele>74.0</ele><time>2026-04-05T15:22:50Z</time></trkpt><trkpt lat="45.71265730586916" lon="13.7101784483632"><ele>74.0</ele><time>2026-04-05T15:22:51Z</time></trkpt><trkpt lat="45.71255868743133" lon="13.710345517551396"><ele>69.33333333333334</ele><time>2026-04-05T15:22:52Z</time></trkpt><trkpt lat="45.71246129782316" lon="13.710513911719152"><ele>64.66666666666667</ele><time>2026-04-05T15:22:53Z</time></trkpt><trkpt lat="45.71236224537658" lon="13.71067948833373"><ele>60.0</ele><time>2026-04-05T15:22:54Z</time></trkpt><trkpt lat="45.71226363975337" lon="13.710846180713062"><ele>60.0</ele><time>2026-04-05T15:22:55Z</time></trkpt><trkpt lat="45.712166957401685" lon="13.711016264457399"><ele>60.0</ele><time>2026-04-05T15:22:56Z</time></trkpt><trkpt lat="45.71207056753892" lon="13.71118637354787"><ele>60.0</ele><time>2026-04-05T15:22:57Z</time></trkpt><trkpt lat="45.71197356912002" lon="13.71135221963098"><ele>54.333333333333336</ele><time>2026-04-05T15:22:58Z</time></trkpt><trkpt lat="45.71187887291945" lon="13.711519121070767"><ele>48.66666666666667</ele><time>2026-04-05T15:22:59Z</time></trkpt><trkpt lat="45.711784558248524" lon="13.71168602806457"><ele>43.0</ele><time>2026-04-05T15:23:00Z</time></trkpt><trkpt lat="45.71168908913269" lon="13.71185198872933"><ele>50.0</ele><time>2026-04-05T15:23:01Z</time></trkpt><trkpt lat="45.711594351817894" lon="13.712018653788949"><ele>57.0</ele><time>2026-04-05T15:23:02Z</time></trkpt><trkpt lat="45.71150023853991" lon="13.712187221500185"><ele>64.0</ele><time>2026-04-05T15:23:03Z</time></trkpt><trkpt lat="45.71140086012383" lon="13.712359430286352"><ele>64.0</ele><time>2026-04-05T15:23:04Z</time></trkpt><trkpt lat="45.71130119027041" lon="13.712536634666884"><ele>64.0</ele><time>2026-04-05T15:23:05Z</time></trkpt><trkpt lat="45.71120192079812" lon="13.71271505083015"><ele>64.0</ele><time>2026-04-05T15:23:06Z</time></trkpt><trkpt lat="45.711100629380766" lon="13.712888819497326"><ele>59.33333333333333</ele><time>2026-04-05T15:23:07Z</time></trkpt><trkpt lat="45.71099995168466" lon="13.713060977940279"><ele>54.66666666666667</ele><time>2026-04-05T15:23:08Z</time></trkpt><trkpt lat="45.710899616498274" lon="13.713236552537781"><ele>50.0</ele><time>2026-04-05T15:23:09Z</time></trkpt><trkpt lat="45.71080099927779" lon="13.713411974271244"><ele>55.66666666666667</ele><time>2026-04-05T15:23:10Z</time></trkpt><trkpt lat="45.710702599076335" lon="13.713588887476911"><ele>61.33333333333333</ele><time>2026-04-05T15:23:11Z</time></trkpt><trkpt lat="45.71060456099475" lon="13.713763210673527"><ele>67.0</ele><time>2026-04-05T15:23:12Z</time></trkpt><trkpt lat="45.71050388427063" lon="13.713934330500155"><ele>67.0</ele><time>2026-04-05T15:23:13Z</time></trkpt><trkpt lat="45.71040272617833" lon="13.714102586481149"><ele>67.0</ele><time>2026-04-05T15:23:13.999Z</time></trkpt><trkpt lat="45.71029718645732" lon="13.714263271041993"><ele>67.0</ele><time>2026-04-05T15:23:14.999Z</time></trkpt><trkpt lat="45.71018664423739" lon="13.714416657086193"><ele>63.33333333333333</ele><time>2026-04-05T15:23:15.999Z</time></trkpt><trkpt lat="45.71007085526173" lon="13.714556156894751"><ele>59.66666666666667</ele><time>2026-04-05T15:23:16.999Z</time></trkpt><trkpt lat="45.70994844180847" lon="13.71468524173848"><ele>56.0</ele><time>2026-04-05T15:23:17.999Z</time></trkpt><trkpt lat="45.70981868723624" lon="13.71480517434636"><ele>56.0</ele><time>2026-04-05T15:23:18.999Z</time></trkpt><trkpt lat="45.70968271754881" lon="13.714912030715272"><ele>56.0</ele><time>2026-04-05T15:23:19.999Z</time></trkpt><trkpt lat="45.70954199232405" lon="13.715006251527937"><ele>56.0</ele><time>2026-04-05T15:23:20.999Z</time></trkpt><trkpt lat="45.70939852262942" lon="13.715094289990274"><ele>55.75</ele><time>2026-04-05T15:23:21.999Z</time></trkpt><trkpt lat="45.70925405262045" lon="13.71516615624662"><ele>55.5</ele><time>2026-04-05T15:23:22.999Z</time></trkpt><trkpt lat="45.70911889983412" lon="13.715220300887289"><ele>55.25</ele><time>2026-04-05T15:23:23.999Z</time></trkpt><trkpt lat="45.70899526521036" lon="13.71526421600442"><ele>55.0</ele><time>2026-04-05T15:23:24.999Z</time></trkpt><trkpt lat="45.7088883947899" lon="13.715296183958042"><ele>54.99999999999999</ele><time>2026-04-05T15:23:25.999Z</time></trkpt><trkpt lat="45.70880507733062" lon="13.715321548753092"><ele>55.0</ele><time>2026-04-05T15:23:26.999Z</time></trkpt><trkpt lat="45.708697240857745" lon="13.715354235605579"><ele>55.0</ele><time>2026-04-05T15:23:28.999Z</time></trkpt><trkpt lat="45.70862217219399" lon="13.71537516533461"><ele>55.0</ele><time>2026-04-05T15:23:30.999Z</time></trkpt><trkpt lat="45.70855859691623" lon="13.715396127596797"><ele>54.99999999999999</ele><time>2026-04-05T15:23:32.999Z</time></trkpt><trkpt lat="45.70847680622774" lon="13.715421794507167"><ele>55.0</ele><time>2026-04-05T15:23:35.999Z</time></trkpt><trkpt lat="45.7083938735564" lon="13.715445730679507"><ele>53.285714285714285</ele><time>2026-04-05T15:23:39.999Z</time></trkpt><trkpt lat="45.7083199819447" lon="13.715473810923555"><ele>51.57142857142857</ele><time>2026-04-05T15:23:42.999Z</time></trkpt><trkpt lat="45.70825492518013" lon="13.71548658035525"><ele>49.85714285714286</ele><time>2026-04-05T15:23:46Z</time></trkpt><trkpt lat="45.70818063714622" lon="13.715513470004327"><ele>48.14285714285714</ele><time>2026-04-05T15:23:49Z</time></trkpt><trkpt lat="45.7081093795749" lon="13.715536156628334"><ele>46.42857142857143</ele><time>2026-04-05T15:23:52Z</time></trkpt><trkpt lat="45.708027349905706" lon="13.715560827797251"><ele>44.714285714285715</ele><time>2026-04-05T15:23:55Z</time></trkpt><trkpt lat="45.70797799644098" lon="13.71550344999554"><ele>43.0</ele><time>2026-04-05T15:23:58Z</time></trkpt><trkpt lat="45.70802425562697" lon="13.715425077632919"><ele>43.0</ele><time>2026-04-05T15:24:00Z</time></trkpt><trkpt lat="45.708069101300936" lon="13.715349062959621"><ele>43.0</ele><time>2026-04-05T15:24:01Z</time></trkpt><trkpt lat="45.70812444357825" lon="13.715283935414135"><ele>43.0</ele><time>2026-04-05T15:24:02Z</time></trkpt><trkpt lat="45.70818324993598" lon="13.7152036906224"><ele>43.0</ele><time>2026-04-05T15:24:03Z</time></trkpt><trkpt lat="45.70824558892758" lon="13.715117230487833"><ele>43.0</ele><time>2026-04-05T15:24:04Z</time></trkpt><trkpt lat="45.70831309163204" lon="13.715024794393017"><ele>43.0</ele><time>2026-04-05T15:24:05Z</time></trkpt><trkpt lat="45.708373871716475" lon="13.714935192096675"><ele>41.5</ele><time>2026-04-05T15:24:06Z</time></trkpt><trkpt lat="45.70842548551166" lon="13.714853039755821"><ele>40.0</ele><time>2026-04-05T15:24:07Z</time></trkpt><trkpt lat="45.70846048935821" lon="13.714762316421673"><ele>38.5</ele><time>2026-04-05T15:24:08Z</time></trkpt><trkpt lat="45.70846741050894" lon="13.71465725128159"><ele>37.0</ele><time>2026-04-05T15:24:09Z</time></trkpt><trkpt lat="45.708433313043706" lon="13.71455175140853"><ele>35.5</ele><time>2026-04-05T15:24:10Z</time></trkpt><trkpt lat="45.708370899818824" lon="13.714468867697132"><ele>34.0</ele><time>2026-04-05T15:24:11Z</time></trkpt><trkpt lat="45.7082922351145" lon="13.71442014039297"><ele>34.0</ele><time>2026-04-05T15:24:12Z</time></trkpt><trkpt lat="45.708209785916175" lon="13.714393714105638"><ele>34.0</ele><time>2026-04-05T15:24:13Z</time></trkpt><trkpt lat="45.7081200503652" lon="13.714402233428858"><ele>34.0</ele><time>2026-04-05T15:24:14Z</time></trkpt><trkpt lat="45.70803773539726" lon="13.714450379976231"><ele>34.0</ele><time>2026-04-05T15:24:15Z</time></trkpt><trkpt lat="45.70796561763256" lon="13.714538844557222"><ele>34.0</ele><time>2026-04-05T15:24:16Z</time></trkpt><trkpt lat="45.707924751953946" lon="13.714645967751348"><ele>34.0</ele><time>2026-04-05T15:24:17Z</time></trkpt><trkpt lat="45.707898764383806" lon="13.714762612049661"><ele>34.0</ele><time>2026-04-05T15:24:18Z</time></trkpt><trkpt lat="45.707889024570235" lon="13.71488539315971"><ele>34.0</ele><time>2026-04-05T15:24:19Z</time></trkpt><trkpt lat="45.70787171566816" lon="13.714991147136805"><ele>34.0</ele><time>2026-04-05T15:24:20Z</time></trkpt><trkpt lat="45.70783135949375" lon="13.715070504821739"><ele>34.0</ele><time>2026-04-05T15:24:21Z</time></trkpt><trkpt lat="45.70770799130166" lon="13.715022459594575"><ele>34.0</ele><time>2026-04-05T15:24:23Z</time></trkpt><trkpt lat="45.70769247841187" lon="13.714891627559107"><ele>34.0</ele><time>2026-04-05T15:24:24Z</time></trkpt><trkpt lat="45.70775270059435" lon="13.714783051121735"><ele>34.0</ele><time>2026-04-05T15:24:25Z</time></trkpt><trkpt lat="45.707792400543106" lon="13.714667584234896"><ele>34.0</ele><time>2026-04-05T15:24:26Z</time></trkpt><trkpt lat="45.70782088749611" lon="13.714559570169168"><ele>34.0</ele><time>2026-04-05T15:24:27Z</time></trkpt><trkpt lat="45.70780678553127" lon="13.714456422324803"><ele>34.0</ele><time>2026-04-05T15:24:28Z</time></trkpt><trkpt lat="45.70775493771328" lon="13.71438877906296"><ele>34.0</ele><time>2026-04-05T15:24:29Z</time></trkpt><trkpt lat="45.70767368192617" lon="13.714354524864747"><ele>32.99999999999999</ele><time>2026-04-05T15:24:30Z</time></trkpt><trkpt lat="45.707609160000935" lon="13.714387087919912"><ele>32.0</ele><time>2026-04-05T15:24:31Z</time></trkpt><trkpt lat="45.707562695841176" lon="13.714468611317699"><ele>31.0</ele><time>2026-04-05T15:24:32Z</time></trkpt><trkpt lat="45.70755295187181" lon="13.714569974309075"><ele>30.0</ele><time>2026-04-05T15:24:33Z</time></trkpt><trkpt lat="45.707571598940454" lon="13.714659490547273"><ele>29.0</ele><time>2026-04-05T15:24:34Z</time></trkpt><trkpt lat="45.70756247816206" lon="13.71474936782859"><ele>28.0</ele><time>2026-04-05T15:24:35Z</time></trkpt><trkpt lat="45.70751729746731" lon="13.714831563954993"><ele>27.0</ele><time>2026-04-05T15:24:36Z</time></trkpt><trkpt lat="45.707452082668674" lon="13.714884301696232"><ele>27.0</ele><time>2026-04-05T15:24:37Z</time></trkpt><trkpt lat="45.70736696213825" lon="13.714898311861948"><ele>27.000000000000004</ele><time>2026-04-05T15:24:38Z</time></trkpt><trkpt lat="45.70728360017359" lon="13.714877401315835"><ele>27.000000000000004</ele><time>2026-04-05T15:24:39Z</time></trkpt><trkpt lat="45.707208001472154" lon="13.714812002564791"><ele>27.0</ele><time>2026-04-05T15:24:40Z</time></trkpt><trkpt lat="45.707145202113225" lon="13.71470959066633"><ele>27.0</ele><time>2026-04-05T15:24:41Z</time></trkpt><trkpt lat="45.707086888736676" lon="13.714597934369056"><ele>27.0</ele><time>2026-04-05T15:24:42Z</time></trkpt><trkpt lat="45.70703785018602" lon="13.714511549106346"><ele>27.0</ele><time>2026-04-05T15:24:43Z</time></trkpt><trkpt lat="45.70701186471795" lon="13.714413963649768"><ele>27.0</ele><time>2026-04-05T15:24:44Z</time></trkpt><trkpt lat="45.70699671454051" lon="13.714311044468204"><ele>27.0</ele><time>2026-04-05T15:24:45Z</time></trkpt><trkpt lat="45.706996845102" lon="13.714200354912506"><ele>27.0</ele><time>2026-04-05T15:24:46Z</time></trkpt><trkpt lat="45.706988341612856" lon="13.714092320126921"><ele>27.0</ele><time>2026-04-05T15:24:47Z</time></trkpt><trkpt lat="45.706986433059726" lon="13.713990055594042"><ele>27.0</ele><time>2026-04-05T15:24:48Z</time></trkpt><trkpt lat="45.70699568868132" lon="13.71389679477635"><ele>24.166666666666668</ele><time>2026-04-05T15:24:49Z</time></trkpt><trkpt lat="45.707033503211235" lon="13.713741687273176"><ele>21.333333333333332</ele><time>2026-04-05T15:24:51Z</time></trkpt><trkpt lat="45.707027444844435" lon="13.713623516800451"><ele>18.5</ele><time>2026-04-05T15:24:53Z</time></trkpt><trkpt lat="45.70694792855934" lon="13.713549708453634"><ele>15.666666666666668</ele><time>2026-04-05T15:24:55Z</time></trkpt><trkpt lat="45.70687271475235" lon="13.713524471164055"><ele>12.833333333333334</ele><time>2026-04-05T15:24:57Z</time></trkpt><trkpt lat="45.706803317043246" lon="13.713498908533259"><ele>10.0</ele><time>2026-04-05T15:24:59Z</time></trkpt><trkpt lat="45.706732161779044" lon="13.71347896895171"><ele>8.857142857142858</ele><time>2026-04-05T15:25:01Z</time></trkpt><trkpt lat="45.70666929636533" lon="13.713459586198528"><ele>7.714285714285714</ele><time>2026-04-05T15:25:03Z</time></trkpt><trkpt lat="45.706590581714885" lon="13.713435201115725"><ele>6.571428571428571</ele><time>2026-04-05T15:25:05Z</time></trkpt><trkpt lat="45.706508182590206" lon="13.713410076220416"><ele>5.428571428571429</ele><time>2026-04-05T15:25:07Z</time></trkpt><trkpt lat="45.70643972095236" lon="13.713382100197263"><ele>4.285714285714286</ele><time>2026-04-05T15:25:09Z</time></trkpt><trkpt lat="45.70637135802814" lon="13.71336133480095"><ele>3.142857142857143</ele><time>2026-04-05T15:25:11.999Z</time></trkpt><trkpt lat="45.70630860472139" lon="13.713329649023503"><ele>2.0</ele><time>2026-04-05T15:25:16.999Z</time></trkpt><trkpt lat="45.70624695570615" lon="13.713234443254366"><ele>1.9999999999999998</ele><time>2026-04-05T15:25:20.999Z</time></trkpt><trkpt lat="45.70619869346687" lon="13.713141364956062"><ele>2.0</ele><time>2026-04-05T15:25:24.999Z</time></trkpt><trkpt lat="45.70614107528782" lon="13.713081108391147"><ele>2.0</ele><time>2026-04-05T15:25:40.999Z</time></trkpt><trkpt lat="45.7060791732684" lon="13.713003038813268"><ele>2.0</ele><time>2026-04-05T15:25:43.999Z</time></trkpt><trkpt lat="45.70601578160102" lon="13.713013289998155"><ele>1.9999999999999998</ele><time>2026-04-05T15:25:47.999Z</time></trkpt><trkpt lat="45.70608005003474" lon="13.713041262958418"><ele>2.0</ele><time>2026-04-05T15:27:30.999Z</time></trkpt><trkpt lat="45.70617527988571" lon="13.713117853152829"><ele>2.0</ele><time>2026-04-05T15:29:11Z</time></trkpt><trkpt lat="45.706219895785765" lon="13.713195758486346"><ele>1.9999999999999998</ele><time>2026-04-05T15:30:16Z</time></trkpt><trkpt lat="45.70627006551713" lon="13.71325870354597"><ele>2.0</ele><time>2026-04-05T15:30:26Z</time></trkpt><trkpt lat="45.70631727258577" lon="13.71331869986747"><ele>2.0</ele><time>2026-04-05T15:30:39Z</time></trkpt><trkpt lat="45.70638017125199" lon="13.713369821830224"><ele>1.9999999999999998</ele><time>2026-04-05T15:30:49Z</time></trkpt><trkpt lat="45.706448655297194" lon="13.713378922460457"><ele>2.0</ele><time>2026-04-05T15:31:00Z</time></trkpt><trkpt lat="45.7065098746221" lon="13.713421213718075"><ele>2.0</ele><time>2026-04-05T15:31:09Z</time></trkpt><trkpt lat="45.70655223084797" lon="13.713492185963108"><ele>2.0</ele><time>2026-04-05T15:31:22Z</time></trkpt><trkpt lat="45.706481797751174" lon="13.713512501553724"><ele>1.9999999999999998</ele><time>2026-04-05T15:31:53.999Z</time></trkpt><trkpt lat="45.7065213139082" lon="13.713433974518683"><ele>2.0</ele><time>2026-04-05T16:00:14Z</time></trkpt><trkpt lat="45.706457883539315" lon="13.713426594317648"><ele>2.0</ele><time>2026-04-05T16:00:27.999Z</time></trkpt><trkpt lat="45.70639104188177" lon="13.713418593063402"><ele>1.9999999999999998</ele><time>2026-04-05T16:00:38.999Z</time></trkpt><trkpt lat="45.706334280522604" lon="13.713369742230844"><ele>2.0</ele><time>2026-04-05T16:00:45.999Z</time></trkpt><trkpt lat="45.70627501376446" lon="13.713320369707787"><ele>2.0</ele><time>2026-04-05T16:00:55.999Z</time></trkpt><trkpt lat="45.70622979613546" lon="13.713243154484616"><ele>2.0</ele><time>2026-04-05T16:01:03.999Z</time></trkpt><trkpt lat="45.70618820335726" lon="13.713168131066805"><ele>1.9999999999999998</ele><time>2026-04-05T16:01:12.999Z</time></trkpt><trkpt lat="45.706136343508255" lon="13.71311452448272"><ele>2.0</ele><time>2026-04-05T16:01:22.999Z</time></trkpt><trkpt lat="45.70610898997253" lon="13.713021698945855"><ele>2.0</ele><time>2026-04-05T16:01:32Z</time></trkpt><trkpt lat="45.706042183656955" lon="13.713016694899306"><ele>1.9999999999999998</ele><time>2026-04-05T16:01:39Z</time></trkpt><trkpt lat="45.70608367414111" lon="13.713090087876765"><ele>2.0</ele><time>2026-04-05T16:04:04Z</time></trkpt><trkpt lat="45.706141009022524" lon="13.71313403831184"><ele>2.0</ele><time>2026-04-05T16:05:30.999Z</time></trkpt><trkpt lat="45.70619684468539" lon="13.713186753597517"><ele>1.9999999999999998</ele><time>2026-04-05T16:05:33.999Z</time></trkpt><trkpt lat="45.70624936694248" lon="13.713260744632155"><ele>2.0</ele><time>2026-04-05T16:05:35.999Z</time></trkpt><trkpt lat="45.70629496936714" lon="13.713330506374362"><ele>2.0</ele><time>2026-04-05T16:05:37.999Z</time></trkpt><trkpt lat="45.7063557724522" lon="13.713392319289518"><ele>2.0</ele><time>2026-04-05T16:05:39.999Z</time></trkpt><trkpt lat="45.70642877788902" lon="13.713417101569382"><ele>1.9999999999999998</ele><time>2026-04-05T16:05:42Z</time></trkpt><trkpt lat="45.70650176947638" lon="13.713440977855917"><ele>2.0</ele><time>2026-04-05T16:05:44Z</time></trkpt><trkpt lat="45.70659045028973" lon="13.713484498759128"><ele>2.0</ele><time>2026-04-05T16:05:46Z</time></trkpt><trkpt lat="45.70670805778782" lon="13.713526287258087"><ele>2.0</ele><time>2026-04-05T16:05:48Z</time></trkpt><trkpt lat="45.7067733201754" lon="13.71355249150446"><ele>2.0</ele><time>2026-04-05T16:05:49Z</time></trkpt><trkpt lat="45.7068722184519" lon="13.71361103246534"><ele>2.0</ele><time>2026-04-05T16:05:51Z</time></trkpt><trkpt lat="45.706924333125315" lon="13.71371756421825"><ele>2.0</ele><time>2026-04-05T16:05:53Z</time></trkpt><trkpt lat="45.70694254344267" lon="13.713898756204255"><ele>3.6</ele><time>2026-04-05T16:05:55Z</time></trkpt><trkpt lat="45.70695276804238" lon="13.714012649226655"><ele>5.2</ele><time>2026-04-05T16:05:56Z</time></trkpt><trkpt lat="45.706958540562105" lon="13.714130504362279"><ele>6.8</ele><time>2026-04-05T16:05:57Z</time></trkpt><trkpt lat="45.706956882693255" lon="13.714264115405737"><ele>8.4</ele><time>2026-04-05T16:05:58Z</time></trkpt><trkpt lat="45.70695760496212" lon="13.714401470364137"><ele>10.0</ele><time>2026-04-05T16:05:59Z</time></trkpt><trkpt lat="45.70697184998117" lon="13.71454458604034"><ele>13.4</ele><time>2026-04-05T16:06:00Z</time></trkpt><trkpt lat="45.70702900588546" lon="13.714674746874067"><ele>16.8</ele><time>2026-04-05T16:06:01Z</time></trkpt><trkpt lat="45.70709069446757" lon="13.714796420575052"><ele>20.200000000000003</ele><time>2026-04-05T16:06:02Z</time></trkpt><trkpt lat="45.70712416219719" lon="13.71494084886248"><ele>23.6</ele><time>2026-04-05T16:06:03Z</time></trkpt><trkpt lat="45.70722893571978" lon="13.714969455776428"><ele>27.0</ele><time>2026-04-05T16:06:04Z</time></trkpt><trkpt lat="45.70733250818625" lon="13.714990899306208"><ele>27.0</ele><time>2026-04-05T16:06:05Z</time></trkpt><trkpt lat="45.70743297988123" lon="13.714975288777657"><ele>27.0</ele><time>2026-04-05T16:06:06Z</time></trkpt><trkpt lat="45.7075182415839" lon="13.714915033566001"><ele>27.0</ele><time>2026-04-05T16:06:07Z</time></trkpt><trkpt lat="45.70757774449309" lon="13.714824969553284"><ele>27.0</ele><time>2026-04-05T16:06:08Z</time></trkpt><trkpt lat="45.70759507206208" lon="13.714717717113663"><ele>27.0</ele><time>2026-04-05T16:06:09Z</time></trkpt><trkpt lat="45.7075888179319" lon="13.714600985128527"><ele>27.0</ele><time>2026-04-05T16:06:10Z</time></trkpt><trkpt lat="45.70757926512852" lon="13.714498726866328"><ele>27.0</ele><time>2026-04-05T16:06:11Z</time></trkpt><trkpt lat="45.70767248117302" lon="13.714426021554411"><ele>27.0</ele><time>2026-04-05T16:06:13Z</time></trkpt><trkpt lat="45.707762513984804" lon="13.714546882203056"><ele>27.0</ele><time>2026-04-05T16:06:15Z</time></trkpt><trkpt lat="45.70774817141201" lon="13.714710058997818"><ele>27.0</ele><time>2026-04-05T16:06:17Z</time></trkpt><trkpt lat="45.70768004506295" lon="13.714853915521312"><ele>27.0</ele><time>2026-04-05T16:06:19Z</time></trkpt><trkpt lat="45.70766332688181" lon="13.714948656945687"><ele>27.0</ele><time>2026-04-05T16:06:20Z</time></trkpt><trkpt lat="45.70770853792433" lon="13.71511665426585"><ele>27.0</ele><time>2026-04-05T16:06:22Z</time></trkpt><trkpt lat="45.70778090940454" lon="13.715160939816627"><ele>27.0</ele><time>2026-04-05T16:06:23Z</time></trkpt><trkpt lat="45.7078610061507" lon="13.715123835127185"><ele>27.0</ele><time>2026-04-05T16:06:24Z</time></trkpt><trkpt lat="45.70790760482363" lon="13.715029237707537"><ele>27.0</ele><time>2026-04-05T16:06:24.999Z</time></trkpt><trkpt lat="45.70790655671174" lon="13.714901956135119"><ele>28.400000000000002</ele><time>2026-04-05T16:06:25.999Z</time></trkpt><trkpt lat="45.707894026725214" lon="13.71481147672286"><ele>29.800000000000004</ele><time>2026-04-05T16:06:26.999Z</time></trkpt><trkpt lat="45.70796029613707" lon="13.71464584557568"><ele>31.2</ele><time>2026-04-05T16:06:28.999Z</time></trkpt><trkpt lat="45.70802434592769" lon="13.714512017220443"><ele>32.6</ele><time>2026-04-05T16:06:29.999Z</time></trkpt><trkpt lat="45.708110853262475" lon="13.714477705489267"><ele>34.0</ele><time>2026-04-05T16:06:30.999Z</time></trkpt><trkpt lat="45.708185709151294" lon="13.714438832727877"><ele>34.0</ele><time>2026-04-05T16:06:31.999Z</time></trkpt><trkpt lat="45.708275349061275" lon="13.714474242548299"><ele>34.0</ele><time>2026-04-05T16:06:32.999Z</time></trkpt><trkpt lat="45.708340040446714" lon="13.714562751553323"><ele>34.0</ele><time>2026-04-05T16:06:33.999Z</time></trkpt><trkpt lat="45.708408330248915" lon="13.714609162874348"><ele>34.0</ele><time>2026-04-05T16:06:34.999Z</time></trkpt><trkpt lat="45.708426614030365" lon="13.71475263257736"><ele>34.0</ele><time>2026-04-05T16:06:36.999Z</time></trkpt><trkpt lat="45.708393457668116" lon="13.714838052664833"><ele>34.0</ele><time>2026-04-05T16:06:37.999Z</time></trkpt><trkpt lat="45.7083490145012" lon="13.714904549837538"><ele>34.0</ele><time>2026-04-05T16:06:38.999Z</time></trkpt><trkpt lat="45.70825473440246" lon="13.71503380607717"><ele>34.0</ele><time>2026-04-05T16:06:40.999Z</time></trkpt><trkpt lat="45.70820319747981" lon="13.715110491479162"><ele>34.0</ele><time>2026-04-05T16:06:41.999Z</time></trkpt><trkpt lat="45.70814653568989" lon="13.715191394047359"><ele>34.0</ele><time>2026-04-05T16:06:42.999Z</time></trkpt><trkpt lat="45.708084431869075" lon="13.715274202338698"><ele>34.0</ele><time>2026-04-05T16:06:43.999Z</time></trkpt><trkpt lat="45.708020313881065" lon="13.715361681025549"><ele>35.8</ele><time>2026-04-05T16:06:44.999Z</time></trkpt><trkpt lat="45.70797028865407" lon="13.71542391124417"><ele>37.599999999999994</ele><time>2026-04-05T16:06:45.999Z</time></trkpt><trkpt lat="45.707907680636886" lon="13.715498795392023"><ele>39.4</ele><time>2026-04-05T16:06:47.999Z</time></trkpt><trkpt lat="45.70788565601061" lon="13.715589450393042"><ele>41.199999999999996</ele><time>2026-04-05T16:06:57.999Z</time></trkpt><trkpt lat="45.708003308563015" lon="13.715653311196927"><ele>43.0</ele><time>2026-04-05T16:06:59.999Z</time></trkpt><trkpt lat="45.70814072864726" lon="13.715611417855916"><ele>43.0</ele><time>2026-04-05T16:07:00.999Z</time></trkpt><trkpt lat="45.708307412959606" lon="13.715554791418052"><ele>43.0</ele><time>2026-04-05T16:07:01.999Z</time></trkpt><trkpt lat="45.70848035602641" lon="13.715490372480568"><ele>43.0</ele><time>2026-04-05T16:07:02.999Z</time></trkpt><trkpt lat="45.708626632996925" lon="13.715435184549547"><ele>46.0</ele><time>2026-04-05T16:07:03.999Z</time></trkpt><trkpt lat="45.708754015591474" lon="13.715392190281271"><ele>49.0</ele><time>2026-04-05T16:07:04.999Z</time></trkpt><trkpt lat="45.708873854588106" lon="13.715356087194207"><ele>52.0</ele><time>2026-04-05T16:07:05.999Z</time></trkpt><trkpt lat="45.70899284920607" lon="13.715340701698523"><ele>55.0</ele><time>2026-04-05T16:07:06.999Z</time></trkpt><trkpt lat="45.70909770812643" lon="13.715281944216548"><ele>55.0</ele><time>2026-04-05T16:07:07.999Z</time></trkpt><trkpt lat="45.70920057200112" lon="13.71524211474924"><ele>55.0</ele><time>2026-04-05T16:07:08.999Z</time></trkpt><trkpt lat="45.709302947150654" lon="13.71519230090946"><ele>55.0</ele><time>2026-04-05T16:07:09.999Z</time></trkpt><trkpt lat="45.70940836061481" lon="13.71514138241345"><ele>55.0</ele><time>2026-04-05T16:07:10.999Z</time></trkpt><trkpt lat="45.70951636487453" lon="13.715078065345983"><ele>55.0</ele><time>2026-04-05T16:07:11.999Z</time></trkpt><trkpt lat="45.70962453038354" lon="13.71500763993064"><ele>55.25</ele><time>2026-04-05T16:07:12.999Z</time></trkpt><trkpt lat="45.709736044749285" lon="13.714929459872506"><ele>55.5</ele><time>2026-04-05T16:07:13.999Z</time></trkpt><trkpt lat="45.709845788363225" lon="13.71483169304862"><ele>55.75</ele><time>2026-04-05T16:07:14.999Z</time></trkpt><trkpt lat="45.70995802433224" lon="13.714729901970083"><ele>56.0</ele><time>2026-04-05T16:07:15.999Z</time></trkpt><trkpt lat="45.71006516533701" lon="13.714618286134664"><ele>56.0</ele><time>2026-04-05T16:07:16.999Z</time></trkpt><trkpt lat="45.710170148704975" lon="13.71449634359923"><ele>56.0</ele><time>2026-04-05T16:07:17.999Z</time></trkpt><trkpt lat="45.71027961353698" lon="13.71436667666143"><ele>56.0</ele><time>2026-04-05T16:07:18.999Z</time></trkpt><trkpt lat="45.71038806312959" lon="13.714210074786672"><ele>56.0</ele><time>2026-04-05T16:07:19.999Z</time></trkpt><trkpt lat="45.71049237436881" lon="13.714044491290595"><ele>54.0</ele><time>2026-04-05T16:07:20.999Z</time></trkpt><trkpt lat="45.710592206103165" lon="13.7138717765234"><ele>52.0</ele><time>2026-04-05T16:07:21.999Z</time></trkpt><trkpt lat="45.71069277600098" lon="13.713687991074064"><ele>50.0</ele><time>2026-04-05T16:07:22.999Z</time></trkpt><trkpt lat="45.7107998179714" lon="13.71350808998135"><ele>50.0</ele><time>2026-04-05T16:07:23.999Z</time></trkpt><trkpt lat="45.71090814505009" lon="13.7133201705558"><ele>50.0</ele><time>2026-04-05T16:07:24.999Z</time></trkpt><trkpt lat="45.71101039036168" lon="13.713135983489614"><ele>50.0</ele><time>2026-04-05T16:07:25.999Z</time></trkpt><trkpt lat="45.71111615211705" lon="13.71295121900831"><ele>54.66666666666667</ele><time>2026-04-05T16:07:26.999Z</time></trkpt><trkpt lat="45.71122069845952" lon="13.712768032749869"><ele>59.33333333333333</ele><time>2026-04-05T16:07:27.999Z</time></trkpt><trkpt lat="45.71132213117322" lon="13.712585949926886"><ele>64.0</ele><time>2026-04-05T16:07:28.999Z</time></trkpt><trkpt lat="45.711424036716025" lon="13.712410695930135"><ele>64.0</ele><time>2026-04-05T16:07:29.999Z</time></trkpt><trkpt lat="45.71152372227798" lon="13.71223649727111"><ele>64.0</ele><time>2026-04-05T16:07:30.999Z</time></trkpt><trkpt lat="45.711621419910344" lon="13.712066635115882"><ele>64.0</ele><time>2026-04-05T16:07:31.999Z</time></trkpt><trkpt lat="45.71172009334235" lon="13.711895271781533"><ele>67.66666666666666</ele><time>2026-04-05T16:07:32.999Z</time></trkpt><trkpt lat="45.71181926548159" lon="13.711726697036882"><ele>71.33333333333333</ele><time>2026-04-05T16:07:33.999Z</time></trkpt><trkpt lat="45.71191733064067" lon="13.711555264218529"><ele>75.0</ele><time>2026-04-05T16:07:34.999Z</time></trkpt><trkpt lat="45.712014127158795" lon="13.71138012126998"><ele>75.0</ele><time>2026-04-05T16:07:35.999Z</time></trkpt><trkpt lat="45.71211290511243" lon="13.711208599549801"><ele>75.0</ele><time>2026-04-05T16:07:36.999Z</time></trkpt><trkpt lat="45.71221318755834" lon="13.71103284970733"><ele>75.0</ele><time>2026-04-05T16:07:37.999Z</time></trkpt><trkpt lat="45.712318669583375" lon="13.71084513316579"><ele>70.0</ele><time>2026-04-05T16:07:38.999Z</time></trkpt><trkpt lat="45.71243081284896" lon="13.710650561039841"><ele>65.0</ele><time>2026-04-05T16:07:39.999Z</time></trkpt><trkpt lat="45.71254012860274" lon="13.710456240614496"><ele>60.0</ele><time>2026-04-05T16:07:40.999Z</time></trkpt><trkpt lat="45.71265436461673" lon="13.71025789785868"><ele>64.66666666666667</ele><time>2026-04-05T16:07:41.999Z</time></trkpt><trkpt lat="45.71277012222255" lon="13.710064395764071"><ele>69.33333333333334</ele><time>2026-04-05T16:07:42.999Z</time></trkpt><trkpt lat="45.712900162854304" lon="13.709870151970316"><ele>74.0</ele><time>2026-04-05T16:07:43.999Z</time></trkpt><trkpt lat="45.71303430254435" lon="13.709679097858078"><ele>74.0</ele><time>2026-04-05T16:07:44.999Z</time></trkpt><trkpt lat="45.71316737377034" lon="13.709488313247938"><ele>74.0</ele><time>2026-04-05T16:07:45.999Z</time></trkpt><trkpt lat="45.713303547769286" lon="13.70929622616127"><ele>74.0</ele><time>2026-04-05T16:07:46.999Z</time></trkpt><trkpt lat="45.7134408448072" lon="13.709099385750818"><ele>71.0</ele><time>2026-04-05T16:07:48Z</time></trkpt><trkpt lat="45.71357609478058" lon="13.708902922248985"><ele>68.0</ele><time>2026-04-05T16:07:49Z</time></trkpt><trkpt lat="45.7137149936286" lon="13.708702853949374"><ele>65.0</ele><time>2026-04-05T16:07:50Z</time></trkpt><trkpt lat="45.71385673451438" lon="13.708501579918348"><ele>65.0</ele><time>2026-04-05T16:07:51Z</time></trkpt><trkpt lat="45.7140036066895" lon="13.708293630791308"><ele>65.0</ele><time>2026-04-05T16:07:52Z</time></trkpt><trkpt lat="45.71415648608311" lon="13.708075048861605"><ele>65.0</ele><time>2026-04-05T16:07:53Z</time></trkpt><trkpt lat="45.714312831466316" lon="13.707851146446515"><ele>69.0</ele><time>2026-04-05T16:07:54Z</time></trkpt><trkpt lat="45.714471476159666" lon="13.707624241219229"><ele>73.0</ele><time>2026-04-05T16:07:55Z</time></trkpt><trkpt lat="45.71463096060104" lon="13.707396056031548"><ele>73.0</ele><time>2026-04-05T16:07:56Z</time></trkpt><trkpt lat="45.71478548143267" lon="13.7071740633504"><ele>73.0</ele><time>2026-04-05T16:07:57Z</time></trkpt><trkpt lat="45.71493738931429" lon="13.70695741758024"><ele>73.0</ele><time>2026-04-05T16:07:58Z</time></trkpt><trkpt lat="45.715082954921364" lon="13.706749593134683"><ele>76.33333333333333</ele><time>2026-04-05T16:07:59Z</time></trkpt><trkpt lat="45.71522466911771" lon="13.706546760288324"><ele>79.66666666666667</ele><time>2026-04-05T16:08:00Z</time></trkpt><trkpt lat="45.71536817051243" lon="13.706360752856835"><ele>83.0</ele><time>2026-04-05T16:08:01Z</time></trkpt><trkpt lat="45.71552656672625" lon="13.706190857206888"><ele>75.0</ele><time>2026-04-05T16:08:02Z</time></trkpt><trkpt lat="45.715704061127475" lon="13.706036894563896"><ele>67.0</ele><time>2026-04-05T16:08:03Z</time></trkpt><trkpt lat="45.71587719834888" lon="13.70587323586285"><ele>59.0</ele><time>2026-04-05T16:08:04Z</time></trkpt><trkpt lat="45.7160349202517" lon="13.705687809354764"><ele>63.66666666666667</ele><time>2026-04-05T16:08:05Z</time></trkpt><trkpt lat="45.716177507014315" lon="13.705473885269623"><ele>68.33333333333333</ele><time>2026-04-05T16:08:06Z</time></trkpt><trkpt lat="45.7162956153579" lon="13.705238146230075"><ele>73.0</ele><time>2026-04-05T16:08:07Z</time></trkpt><trkpt lat="45.71639740358218" lon="13.704989967529258"><ele>73.0</ele><time>2026-04-05T16:08:08Z</time></trkpt><trkpt lat="45.716497383482746" lon="13.70474369375305"><ele>73.0</ele><time>2026-04-05T16:08:09Z</time></trkpt><trkpt lat="45.716606487422105" lon="13.704510696875515"><ele>73.0</ele><time>2026-04-05T16:08:10Z</time></trkpt><trkpt lat="45.716723225315974" lon="13.704293483109288"><ele>78.66666666666666</ele><time>2026-04-05T16:08:11Z</time></trkpt><trkpt lat="45.71684276618685" lon="13.704090570801212"><ele>84.33333333333333</ele><time>2026-04-05T16:08:12Z</time></trkpt><trkpt lat="45.716961534768885" lon="13.703895097108092"><ele>90.0</ele><time>2026-04-05T16:08:13Z</time></trkpt><trkpt lat="45.717084857863036" lon="13.703704330207367"><ele>82.0</ele><time>2026-04-05T16:08:14Z</time></trkpt><trkpt lat="45.71721227369266" lon="13.70351665550741"><ele>74.0</ele><time>2026-04-05T16:08:15Z</time></trkpt><trkpt lat="45.71733332241787" lon="13.70332342733449"><ele>66.0</ele><time>2026-04-05T16:08:16Z</time></trkpt><trkpt lat="45.71745556376396" lon="13.703134919817444"><ele>66.0</ele><time>2026-04-05T16:08:17Z</time></trkpt><trkpt lat="45.71757765156328" lon="13.70294897296329"><ele>66.0</ele><time>2026-04-05T16:08:18Z</time></trkpt><trkpt lat="45.717700254282015" lon="13.702767434480188"><ele>66.0</ele><time>2026-04-05T16:08:19Z</time></trkpt><trkpt lat="45.71782822913345" lon="13.702587069758248"><ele>70.0</ele><time>2026-04-05T16:08:20Z</time></trkpt><trkpt lat="45.71796657931445" lon="13.702421651506427"><ele>74.0</ele><time>2026-04-05T16:08:21Z</time></trkpt><trkpt lat="45.718113540407316" lon="13.70226471065102"><ele>78.0</ele><time>2026-04-05T16:08:22Z</time></trkpt><trkpt lat="45.71826051235037" lon="13.70210729331361"><ele>78.0</ele><time>2026-04-05T16:08:23Z</time></trkpt><trkpt lat="45.718407197961085" lon="13.701947401387702"><ele>78.0</ele><time>2026-04-05T16:08:24Z</time></trkpt><trkpt lat="45.71854484396496" lon="13.701768647694214"><ele>78.0</ele><time>2026-04-05T16:08:25Z</time></trkpt><trkpt lat="45.718672882629576" lon="13.70157031485735"><ele>79.0</ele><time>2026-04-05T16:08:26Z</time></trkpt><trkpt lat="45.71879990284579" lon="13.701359951548906"><ele>80.0</ele><time>2026-04-05T16:08:26.999Z</time></trkpt><trkpt lat="45.718919732649574" lon="13.701135233108607"><ele>81.0</ele><time>2026-04-05T16:08:27.999Z</time></trkpt><trkpt lat="45.719031999051445" lon="13.70090280018033"><ele>75.33333333333333</ele><time>2026-04-05T16:08:28.999Z</time></trkpt><trkpt lat="45.71914527966348" lon="13.7006744978563"><ele>69.66666666666666</ele><time>2026-04-05T16:08:29.999Z</time></trkpt><trkpt lat="45.719265786903684" lon="13.700460511331432"><ele>64.0</ele><time>2026-04-05T16:08:30.999Z</time></trkpt><trkpt lat="45.719399364671766" lon="13.70026133030644"><ele>66.33333333333333</ele><time>2026-04-05T16:08:31.999Z</time></trkpt><trkpt lat="45.71954223308749" lon="13.700067205397607"><ele>68.66666666666667</ele><time>2026-04-05T16:08:32.999Z</time></trkpt><trkpt lat="45.71969180526705" lon="13.699876674465948"><ele>71.0</ele><time>2026-04-05T16:08:33.999Z</time></trkpt><trkpt lat="45.71984298179568" lon="13.699685454974087"><ele>71.0</ele><time>2026-04-05T16:08:34.999Z</time></trkpt><trkpt lat="45.71999391548047" lon="13.699491716060868"><ele>71.0</ele><time>2026-04-05T16:08:35.999Z</time></trkpt><trkpt lat="45.72014258392036" lon="13.699297598634697"><ele>71.0</ele><time>2026-04-05T16:08:36.999Z</time></trkpt><trkpt lat="45.720287097903686" lon="13.69910140848987"><ele>72.66666666666667</ele><time>2026-04-05T16:08:37.999Z</time></trkpt><trkpt lat="45.72043224521807" lon="13.698907087188077"><ele>74.33333333333333</ele><time>2026-04-05T16:08:38.999Z</time></trkpt><trkpt lat="45.720589045528186" lon="13.698706020896168"><ele>76.0</ele><time>2026-04-05T16:08:39.999Z</time></trkpt><trkpt lat="45.720748739806815" lon="13.698498108481665"><ele>81.0</ele><time>2026-04-05T16:08:40.999Z</time></trkpt><trkpt lat="45.7209108817854" lon="13.698287921933312"><ele>86.0</ele><time>2026-04-05T16:08:41.999Z</time></trkpt><trkpt lat="45.721074405133145" lon="13.698078310445839"><ele>91.0</ele><time>2026-04-05T16:08:42.999Z</time></trkpt><trkpt lat="45.72123833171726" lon="13.697864536724882"><ele>79.0</ele><time>2026-04-05T16:08:43.999Z</time></trkpt><trkpt lat="45.721407159061194" lon="13.6976402431845"><ele>67.0</ele><time>2026-04-05T16:08:44.999Z</time></trkpt><trkpt lat="45.72158319336091" lon="13.697411276597554"><ele>67.0</ele><time>2026-04-05T16:08:45.999Z</time></trkpt><trkpt lat="45.72176089133985" lon="13.697185792009686"><ele>67.0</ele><time>2026-04-05T16:08:46.999Z</time></trkpt><trkpt lat="45.721934881979024" lon="13.696963152460807"><ele>71.5</ele><time>2026-04-05T16:08:47.999Z</time></trkpt><trkpt lat="45.722113818496624" lon="13.696743212954393"><ele>76.0</ele><time>2026-04-05T16:08:48.999Z</time></trkpt><trkpt lat="45.72230130942544" lon="13.696526172594654"><ele>76.0</ele><time>2026-04-05T16:08:49.999Z</time></trkpt><trkpt lat="45.72248276631203" lon="13.696298608254201"><ele>76.0</ele><time>2026-04-05T16:08:50.999Z</time></trkpt><trkpt lat="45.72265626111121" lon="13.696059707175994"><ele>76.0</ele><time>2026-04-05T16:08:51.999Z</time></trkpt><trkpt lat="45.72282594118868" lon="13.695827737982906"><ele>76.0</ele><time>2026-04-05T16:08:52.999Z</time></trkpt><trkpt lat="45.722997997997" lon="13.695601020620709"><ele>76.0</ele><time>2026-04-05T16:08:53.999Z</time></trkpt><trkpt lat="45.72315847805414" lon="13.695382003106866"><ele>76.0</ele><time>2026-04-05T16:08:54.999Z</time></trkpt><trkpt lat="45.72330834877564" lon="13.695178300027134"><ele>76.0</ele><time>2026-04-05T16:08:55.999Z</time></trkpt><trkpt lat="45.723459246342905" lon="13.694982561972651"><ele>77.66666666666666</ele><time>2026-04-05T16:08:56.999Z</time></trkpt><trkpt lat="45.72362309447316" lon="13.694814953481279"><ele>79.33333333333333</ele><time>2026-04-05T16:08:57.999Z</time></trkpt><trkpt lat="45.723807536586136" lon="13.69466533257465"><ele>81.0</ele><time>2026-04-05T16:08:58.999Z</time></trkpt><trkpt lat="45.72400570505352" lon="13.694536236184536"><ele>77.0</ele><time>2026-04-05T16:08:59.999Z</time></trkpt><trkpt lat="45.724210263442835" lon="13.694409410272232"><ele>73.0</ele><time>2026-04-05T16:09:00.999Z</time></trkpt><trkpt lat="45.724405988084314" lon="13.694282588023643"><ele>69.0</ele><time>2026-04-05T16:09:01.999Z</time></trkpt><trkpt lat="45.724593425486496" lon="13.694165051679922"><ele>69.0</ele><time>2026-04-05T16:09:02.999Z</time></trkpt><trkpt lat="45.72479020695936" lon="13.694078506651259"><ele>69.0</ele><time>2026-04-05T16:09:03.999Z</time></trkpt><trkpt lat="45.724987127843164" lon="13.69400633284249"><ele>69.0</ele><time>2026-04-05T16:09:04.999Z</time></trkpt><trkpt lat="45.72518107903657" lon="13.69392665252789"><ele>66.66666666666667</ele><time>2026-04-05T16:09:05.999Z</time></trkpt><trkpt lat="45.7253714640308" lon="13.693821372657496"><ele>64.33333333333334</ele><time>2026-04-05T16:09:06.999Z</time></trkpt><trkpt lat="45.725552170571405" lon="13.69368162579585"><ele>62.0</ele><time>2026-04-05T16:09:07.999Z</time></trkpt><trkpt lat="45.725720366136635" lon="13.693509479796667"><ele>62.0</ele><time>2026-04-05T16:09:08.999Z</time></trkpt><trkpt lat="45.725875734657365" lon="13.693301062148693"><ele>62.0</ele><time>2026-04-05T16:09:09.999Z</time></trkpt><trkpt lat="45.72602728524248" lon="13.693078230196443"><ele>62.0</ele><time>2026-04-05T16:09:10.999Z</time></trkpt><trkpt lat="45.72617384398142" lon="13.692853013698311"><ele>64.66666666666667</ele><time>2026-04-05T16:09:11.999Z</time></trkpt><trkpt lat="45.72631256144693" lon="13.692638262831977"><ele>67.33333333333333</ele><time>2026-04-05T16:09:12.999Z</time></trkpt><trkpt lat="45.72644384027666" lon="13.6924395864339"><ele>70.0</ele><time>2026-04-05T16:09:13.999Z</time></trkpt><trkpt lat="45.72657248082894" lon="13.69225971054182"><ele>70.0</ele><time>2026-04-05T16:09:14.999Z</time></trkpt><trkpt lat="45.72670886099219" lon="13.692105429144087"><ele>70.0</ele><time>2026-04-05T16:09:15.999Z</time></trkpt><trkpt lat="45.726855358086496" lon="13.69197183880983"><ele>70.0</ele><time>2026-04-05T16:09:16.999Z</time></trkpt><trkpt lat="45.72700358026502" lon="13.691848656039587"><ele>70.33333333333333</ele><time>2026-04-05T16:09:17.999Z</time></trkpt><trkpt lat="45.7271491558396" lon="13.691726778184366"><ele>70.66666666666667</ele><time>2026-04-05T16:09:18.999Z</time></trkpt><trkpt lat="45.727288128010215" lon="13.691601976141712"><ele>71.0</ele><time>2026-04-05T16:09:19.999Z</time></trkpt><trkpt lat="45.727422594765734" lon="13.691476388268375"><ele>71.0</ele><time>2026-04-05T16:09:20.999Z</time></trkpt><trkpt lat="45.72754766130513" lon="13.691342563418756"><ele>71.0</ele><time>2026-04-05T16:09:21.999Z</time></trkpt><trkpt lat="45.727660195530106" lon="13.691203521773366"><ele>71.0</ele><time>2026-04-05T16:09:22.999Z</time></trkpt><trkpt lat="45.72776233475214" lon="13.691054185808497"><ele>73.66666666666667</ele><time>2026-04-05T16:09:23.999Z</time></trkpt><trkpt lat="45.727869069791474" lon="13.690904236210224"><ele>76.33333333333333</ele><time>2026-04-05T16:09:24.999Z</time></trkpt><trkpt lat="45.72798061780928" lon="13.690743778883505"><ele>79.0</ele><time>2026-04-05T16:09:25.999Z</time></trkpt><trkpt lat="45.7280934503659" lon="13.690584829608522"><ele>79.0</ele><time>2026-04-05T16:09:26.999Z</time></trkpt><trkpt lat="45.72820200743999" lon="13.69043012707371"><ele>79.0</ele><time>2026-04-05T16:09:27.999Z</time></trkpt><trkpt lat="45.728307686144255" lon="13.690281529486558"><ele>79.0</ele><time>2026-04-05T16:09:28.999Z</time></trkpt><trkpt lat="45.72841460157789" lon="13.690133589679297"><ele>82.0</ele><time>2026-04-05T16:09:29.999Z</time></trkpt><trkpt lat="45.72852617049142" lon="13.689987344545907"><ele>85.0</ele><time>2026-04-05T16:09:30.999Z</time></trkpt><trkpt lat="45.728645047777704" lon="13.68983911721048"><ele>88.0</ele><time>2026-04-05T16:09:31.999Z</time></trkpt><trkpt lat="45.728766067382004" lon="13.689697019663472"><ele>88.0</ele><time>2026-04-05T16:09:32.999Z</time></trkpt><trkpt lat="45.728889486079396" lon="13.689566571630355"><ele>88.0</ele><time>2026-04-05T16:09:33.999Z</time></trkpt><trkpt lat="45.72900655404312" lon="13.689438691508789"><ele>88.0</ele><time>2026-04-05T16:09:34.999Z</time></trkpt><trkpt lat="45.72911593728189" lon="13.689303799397463"><ele>88.0</ele><time>2026-04-05T16:09:35.999Z</time></trkpt><trkpt lat="45.729221435389945" lon="13.689152978327664"><ele>89.0</ele><time>2026-04-05T16:09:36.999Z</time></trkpt><trkpt lat="45.729319671181486" lon="13.68899068121302"><ele>90.0</ele><time>2026-04-05T16:09:37.999Z</time></trkpt><trkpt lat="45.729411490557844" lon="13.688820087616302"><ele>91.0</ele><time>2026-04-05T16:09:38.999Z</time></trkpt><trkpt lat="45.72949419839179" lon="13.688644987277229"><ele>92.0</ele><time>2026-04-05T16:09:39.999Z</time></trkpt><trkpt lat="45.72957887529121" lon="13.688475218538368"><ele>86.5</ele><time>2026-04-05T16:09:40.999Z</time></trkpt><trkpt lat="45.729662133103666" lon="13.688310777662537"><ele>81.0</ele><time>2026-04-05T16:09:41.999Z</time></trkpt><trkpt lat="45.7297485513332" lon="13.688164035741044"><ele>75.5</ele><time>2026-04-05T16:09:42.999Z</time></trkpt><trkpt lat="45.72984240481943" lon="13.688024654012457"><ele>70.0</ele><time>2026-04-05T16:09:43.999Z</time></trkpt><trkpt lat="45.72994340800512" lon="13.687889731390074"><ele>70.0</ele><time>2026-04-05T16:09:44.999Z</time></trkpt><trkpt lat="45.730051841923256" lon="13.687764634554012"><ele>70.0</ele><time>2026-04-05T16:09:45.999Z</time></trkpt><trkpt lat="45.73016694817557" lon="13.687648443369723"><ele>70.0</ele><time>2026-04-05T16:09:46.999Z</time></trkpt><trkpt lat="45.730281268665664" lon="13.687533772787438"><ele>70.0</ele><time>2026-04-05T16:09:47.999Z</time></trkpt><trkpt lat="45.730400901465856" lon="13.687420791805842"><ele>71.5</ele><time>2026-04-05T16:09:48.999Z</time></trkpt><trkpt lat="45.73052425705272" lon="13.68730729452838"><ele>73.0</ele><time>2026-04-05T16:09:49.999Z</time></trkpt><trkpt lat="45.73064578224773" lon="13.687190299633324"><ele>74.5</ele><time>2026-04-05T16:09:50.999Z</time></trkpt><trkpt lat="45.730758795988976" lon="13.687055084104902"><ele>76.0</ele><time>2026-04-05T16:09:51.999Z</time></trkpt><trkpt lat="45.73085939947941" lon="13.68690379695117"><ele>79.25</ele><time>2026-04-05T16:09:52.999Z</time></trkpt><trkpt lat="45.73095499181812" lon="13.686746245578277"><ele>82.5</ele><time>2026-04-05T16:09:54Z</time></trkpt><trkpt lat="45.7310436412724" lon="13.68658527401965"><ele>85.75</ele><time>2026-04-05T16:09:55Z</time></trkpt><trkpt lat="45.731124148655596" lon="13.686420379632722"><ele>89.0</ele><time>2026-04-05T16:09:56Z</time></trkpt><trkpt lat="45.73120089227921" lon="13.68625939431748"><ele>89.0</ele><time>2026-04-05T16:09:57Z</time></trkpt><trkpt lat="45.73127492111736" lon="13.68610559591111"><ele>89.0</ele><time>2026-04-05T16:09:58Z</time></trkpt><trkpt lat="45.73135367941789" lon="13.685963918386935"><ele>89.0</ele><time>2026-04-05T16:09:59Z</time></trkpt><trkpt lat="45.731439414030405" lon="13.685837529091621"><ele>89.0</ele><time>2026-04-05T16:10:00Z</time></trkpt><trkpt lat="45.73152816301901" lon="13.685714435066707"><ele>86.5</ele><time>2026-04-05T16:10:01Z</time></trkpt><trkpt lat="45.7316170716323" lon="13.68558768070703"><ele>84.0</ele><time>2026-04-05T16:10:02Z</time></trkpt><trkpt lat="45.731712207078886" lon="13.68545238908523"><ele>81.5</ele><time>2026-04-05T16:10:03Z</time></trkpt><trkpt lat="45.73181509781878" lon="13.685304696278413"><ele>79.0</ele><time>2026-04-05T16:10:04Z</time></trkpt><trkpt lat="45.7319196665249" lon="13.685152954418598"><ele>79.0</ele><time>2026-04-05T16:10:05Z</time></trkpt><trkpt lat="45.732023851927224" lon="13.684998758975594"><ele>79.0</ele><time>2026-04-05T16:10:06Z</time></trkpt><trkpt lat="45.732128595740186" lon="13.684844556599629"><ele>79.0</ele><time>2026-04-05T16:10:07Z</time></trkpt><trkpt lat="45.73223497260431" lon="13.684689180338987"><ele>79.0</ele><time>2026-04-05T16:10:08Z</time></trkpt><trkpt lat="45.73233809642992" lon="13.684537772080875"><ele>79.0</ele><time>2026-04-05T16:10:09Z</time></trkpt><trkpt lat="45.73243958222155" lon="13.684388756620026"><ele>79.0</ele><time>2026-04-05T16:10:10Z</time></trkpt><trkpt lat="45.73253963747524" lon="13.6842428390127"><ele>79.0</ele><time>2026-04-05T16:10:11Z</time></trkpt><trkpt lat="45.73263793967339" lon="13.684102814044746"><ele>76.5</ele><time>2026-04-05T16:10:12Z</time></trkpt><trkpt lat="45.732734742204265" lon="13.68396042442685"><ele>74.0</ele><time>2026-04-05T16:10:13Z</time></trkpt><trkpt lat="45.7328350987579" lon="13.683823062256256"><ele>71.5</ele><time>2026-04-05T16:10:14Z</time></trkpt><trkpt lat="45.73293633450373" lon="13.683691660262848"><ele>69.0</ele><time>2026-04-05T16:10:15Z</time></trkpt><trkpt lat="45.733037523551104" lon="13.68356204372672"><ele>69.0</ele><time>2026-04-05T16:10:16Z</time></trkpt><trkpt lat="45.73314242689803" lon="13.683436591467757"><ele>69.0</ele><time>2026-04-05T16:10:17Z</time></trkpt><trkpt lat="45.73325407963679" lon="13.683318026214415"><ele>69.0</ele><time>2026-04-05T16:10:18Z</time></trkpt><trkpt lat="45.73337063200094" lon="13.683202404365865"><ele>69.0</ele><time>2026-04-05T16:10:19Z</time></trkpt><trkpt lat="45.73349147300213" lon="13.683089133305922"><ele>69.5</ele><time>2026-04-05T16:10:20Z</time></trkpt><trkpt lat="45.73361374146979" lon="13.68297596971115"><ele>70.0</ele><time>2026-04-05T16:10:21Z</time></trkpt><trkpt lat="45.73373646772986" lon="13.682859376597586"><ele>70.5</ele><time>2026-04-05T16:10:22Z</time></trkpt><trkpt lat="45.73385966441719" lon="13.68274471952847"><ele>71.0</ele><time>2026-04-05T16:10:23Z</time></trkpt><trkpt lat="45.733982921870904" lon="13.68262757783685"><ele>71.0</ele><time>2026-04-05T16:10:24Z</time></trkpt><trkpt lat="45.734107888183644" lon="13.682509834773409"><ele>71.0</ele><time>2026-04-05T16:10:25Z</time></trkpt><trkpt lat="45.73423811821647" lon="13.682391257674757"><ele>71.0</ele><time>2026-04-05T16:10:26Z</time></trkpt><trkpt lat="45.73436805779734" lon="13.682268476004724"><ele>72.66666666666667</ele><time>2026-04-05T16:10:27Z</time></trkpt><trkpt lat="45.734498247298575" lon="13.68214414971933"><ele>74.33333333333333</ele><time>2026-04-05T16:10:28Z</time></trkpt><trkpt lat="45.73462591413502" lon="13.682016942552854"><ele>76.0</ele><time>2026-04-05T16:10:29Z</time></trkpt><trkpt lat="45.734756735570485" lon="13.681897900005724"><ele>76.0</ele><time>2026-04-05T16:10:30Z</time></trkpt><trkpt lat="45.73488357591001" lon="13.681769209426735"><ele>76.0</ele><time>2026-04-05T16:10:31Z</time></trkpt><trkpt lat="45.73500185079892" lon="13.681622714215349"><ele>76.0</ele><time>2026-04-05T16:10:31.999Z</time></trkpt><trkpt lat="45.73510614504889" lon="13.681468914014005"><ele>76.0</ele><time>2026-04-05T16:10:32.999Z</time></trkpt><trkpt lat="45.73520942027365" lon="13.681325391092374"><ele>76.0</ele><time>2026-04-05T16:10:33.999Z</time></trkpt><trkpt lat="45.735316766388316" lon="13.681180164674343"><ele>76.0</ele><time>2026-04-05T16:10:34.999Z</time></trkpt><trkpt lat="45.73542048071738" lon="13.681038783096135"><ele>76.0</ele><time>2026-04-05T16:10:35.999Z</time></trkpt><trkpt lat="45.73551741966322" lon="13.68090470631214"><ele>79.0</ele><time>2026-04-05T16:10:36.999Z</time></trkpt><trkpt lat="45.73561606165393" lon="13.680769591311982"><ele>82.0</ele><time>2026-04-05T16:10:37.999Z</time></trkpt><trkpt lat="45.73571524338097" lon="13.680644153947716"><ele>85.0</ele><time>2026-04-05T16:10:38.999Z</time></trkpt><trkpt lat="45.735808763872335" lon="13.68051966978817"><ele>88.0</ele><time>2026-04-05T16:10:39.999Z</time></trkpt><trkpt lat="45.73590829168538" lon="13.680378826093914"><ele>90.0</ele><time>2026-04-05T16:10:40.999Z</time></trkpt><trkpt lat="45.73601787551042" lon="13.680259410339085"><ele>92.0</ele><time>2026-04-05T16:10:41.999Z</time></trkpt><trkpt lat="45.736128465937774" lon="13.68014209714068"><ele>94.0</ele><time>2026-04-05T16:10:42.999Z</time></trkpt><trkpt lat="45.736243122228565" lon="13.680028186957928"><ele>96.0</ele><time>2026-04-05T16:10:43.999Z</time></trkpt><trkpt lat="45.7363572550692" lon="13.679904361836002"><ele>96.0</ele><time>2026-04-05T16:10:44.999Z</time></trkpt><trkpt lat="45.73646961166475" lon="13.679793903071522"><ele>96.0</ele><time>2026-04-05T16:10:45.999Z</time></trkpt><trkpt lat="45.736576635012916" lon="13.679679919562629"><ele>96.0</ele><time>2026-04-05T16:10:46.999Z</time></trkpt><trkpt lat="45.73667961445236" lon="13.679569395831477"><ele>96.0</ele><time>2026-04-05T16:10:47.999Z</time></trkpt><trkpt lat="45.73678109839105" lon="13.679444485500001"><ele>98.75</ele><time>2026-04-05T16:10:48.999Z</time></trkpt><trkpt lat="45.736873589008496" lon="13.679303483708805"><ele>101.5</ele><time>2026-04-05T16:10:49.999Z</time></trkpt><trkpt lat="45.73695706180203" lon="13.679156019857768"><ele>104.25</ele><time>2026-04-05T16:10:50.999Z</time></trkpt><trkpt lat="45.73702768129722" lon="13.678992988789668"><ele>107.0</ele><time>2026-04-05T16:10:51.999Z</time></trkpt><trkpt lat="45.737110972624386" lon="13.678836495092579"><ele>107.0</ele><time>2026-04-05T16:10:52.999Z</time></trkpt><trkpt lat="45.737197204635514" lon="13.67866179875192"><ele>107.0</ele><time>2026-04-05T16:10:53.999Z</time></trkpt><trkpt lat="45.73726933166091" lon="13.67851780663328"><ele>107.0</ele><time>2026-04-05T16:10:54.999Z</time></trkpt><trkpt lat="45.73735175445659" lon="13.67838434962818"><ele>107.0</ele><time>2026-04-05T16:10:55.999Z</time></trkpt><trkpt lat="45.737431095052365" lon="13.678261468646497"><ele>108.49999999999999</ele><time>2026-04-05T16:10:56.999Z</time></trkpt><trkpt lat="45.7374987382715" lon="13.678157782987531"><ele>110.0</ele><time>2026-04-05T16:10:57.999Z</time></trkpt><trkpt lat="45.73756154999848" lon="13.67807411670212"><ele>111.5</ele><time>2026-04-05T16:10:58.999Z</time></trkpt><trkpt lat="45.73761641539074" lon="13.678005324224156"><ele>113.0</ele><time>2026-04-05T16:10:59.999Z</time></trkpt><trkpt lat="45.73767834403668" lon="13.677938124490291"><ele>114.49999999999999</ele><time>2026-04-05T16:11:00.999Z</time></trkpt><trkpt lat="45.73773326935059" lon="13.677869385359196"><ele>116.0</ele><time>2026-04-05T16:11:01.999Z</time></trkpt><trkpt lat="45.73778784370046" lon="13.677808699314022"><ele>109.8</ele><time>2026-04-05T16:11:02.999Z</time></trkpt><trkpt lat="45.737878089996926" lon="13.67771480005225"><ele>103.6</ele><time>2026-04-05T16:11:04.999Z</time></trkpt><trkpt lat="45.73797306399739" lon="13.677624177470014"><ele>97.4</ele><time>2026-04-05T16:11:06.999Z</time></trkpt><trkpt lat="45.73805418159929" lon="13.677518875481173"><ele>91.2</ele><time>2026-04-05T16:11:08.999Z</time></trkpt><trkpt lat="45.73811688140265" lon="13.677451002027121"><ele>85.0</ele><time>2026-04-05T16:11:10.999Z</time></trkpt><trkpt lat="45.73819604650119" lon="13.677365348091747"><ele>85.0</ele><time>2026-04-05T16:11:12.999Z</time></trkpt><trkpt lat="45.7382699891591" lon="13.677281240906275"><ele>85.0</ele><time>2026-04-05T16:11:14.999Z</time></trkpt><trkpt lat="45.738355074043824" lon="13.677188981414409"><ele>85.0</ele><time>2026-04-05T16:11:16.999Z</time></trkpt><trkpt lat="45.738463598912915" lon="13.677073202558171"><ele>85.0</ele><time>2026-04-05T16:11:18.999Z</time></trkpt><trkpt lat="45.73852610870313" lon="13.676997075787213"><ele>85.0</ele><time>2026-04-05T16:11:19.999Z</time></trkpt><trkpt lat="45.73859151294711" lon="13.676922488004639"><ele>86.5</ele><time>2026-04-05T16:11:20.999Z</time></trkpt><trkpt lat="45.738651161669225" lon="13.676848762089127"><ele>88.0</ele><time>2026-04-05T16:11:21.999Z</time></trkpt><trkpt lat="45.73869971776969" lon="13.67677964311294"><ele>89.5</ele><time>2026-04-05T16:11:22.999Z</time></trkpt><trkpt lat="45.73876938576876" lon="13.67669958417937"><ele>91.0</ele><time>2026-04-05T16:11:23.999Z</time></trkpt><trkpt lat="45.73883433046811" lon="13.676625168319143"><ele>92.5</ele><time>2026-04-05T16:11:24.999Z</time></trkpt><trkpt lat="45.738894877813664" lon="13.676534492265715"><ele>94.0</ele><time>2026-04-05T16:11:25.999Z</time></trkpt><trkpt lat="45.73895798085289" lon="13.676452204441855"><ele>94.0</ele><time>2026-04-05T16:11:26.999Z</time></trkpt><trkpt lat="45.73901623348579" lon="13.67637174981318"><ele>94.0</ele><time>2026-04-05T16:11:27.999Z</time></trkpt><trkpt lat="45.73906720855655" lon="13.676276455846745"><ele>94.0</ele><time>2026-04-05T16:11:28.999Z</time></trkpt><trkpt lat="45.73912209485263" lon="13.676204778508431"><ele>94.0</ele><time>2026-04-05T16:11:29.999Z</time></trkpt><trkpt lat="45.739178070635866" lon="13.676121419058171"><ele>94.0</ele><time>2026-04-05T16:11:30.999Z</time></trkpt><trkpt lat="45.7392390314219" lon="13.676022584565661"><ele>94.0</ele><time>2026-04-05T16:11:31.999Z</time></trkpt><trkpt lat="45.73929682403754" lon="13.67594966120639"><ele>98.25</ele><time>2026-04-05T16:11:32.999Z</time></trkpt><trkpt lat="45.739352058990626" lon="13.675860123096635"><ele>102.5</ele><time>2026-04-05T16:11:33.999Z</time></trkpt><trkpt lat="45.73941144607411" lon="13.675751227064156"><ele>106.75</ele><time>2026-04-05T16:11:34.999Z</time></trkpt><trkpt lat="45.739492151934186" lon="13.675613834530594"><ele>111.0</ele><time>2026-04-05T16:11:35.999Z</time></trkpt><trkpt lat="45.73959044457591" lon="13.675451047057434"><ele>111.0</ele><time>2026-04-05T16:11:36.999Z</time></trkpt><trkpt lat="45.73972362949272" lon="13.675330463729775"><ele>111.0</ele><time>2026-04-05T16:11:37.999Z</time></trkpt><trkpt lat="45.73985774142303" lon="13.675050976801401"><ele>111.0</ele><time>2026-04-05T16:11:38.999Z</time></trkpt><trkpt lat="45.740004980269845" lon="13.674805211883745"><ele>107.66666666666666</ele><time>2026-04-05T16:11:39.999Z</time></trkpt><trkpt lat="45.740149085039576" lon="13.674564356874779"><ele>104.33333333333333</ele><time>2026-04-05T16:11:40.999Z</time></trkpt><trkpt lat="45.74027357726447" lon="13.674318749202133"><ele>101.0</ele><time>2026-04-05T16:11:41.999Z</time></trkpt><trkpt lat="45.74039322835658" lon="13.674047254645927"><ele>101.0</ele><time>2026-04-05T16:11:42.999Z</time></trkpt><trkpt lat="45.740519886571334" lon="13.673773123001952"><ele>101.0</ele><time>2026-04-05T16:11:43.999Z</time></trkpt><trkpt lat="45.74063399792319" lon="13.673521934637012"><ele>101.0</ele><time>2026-04-05T16:11:44.999Z</time></trkpt><trkpt lat="45.74074192102271" lon="13.673285160942605"><ele>94.33333333333333</ele><time>2026-04-05T16:11:45.999Z</time></trkpt><trkpt lat="45.74084131878015" lon="13.673058379333288"><ele>87.66666666666666</ele><time>2026-04-05T16:11:46.999Z</time></trkpt><trkpt lat="45.74093127573815" lon="13.672852513824813"><ele>81.0</ele><time>2026-04-05T16:11:47.999Z</time></trkpt><trkpt lat="45.74101339555354" lon="13.672664966456518"><ele>87.75</ele><time>2026-04-05T16:11:48.999Z</time></trkpt><trkpt lat="45.741091340380805" lon="13.672487339347546"><ele>94.5</ele><time>2026-04-05T16:11:49.999Z</time></trkpt><trkpt lat="45.74116874999547" lon="13.672307496943585"><ele>101.25</ele><time>2026-04-05T16:11:50.999Z</time></trkpt><trkpt lat="45.74124401022615" lon="13.672127933219455"><ele>108.0</ele><time>2026-04-05T16:11:51.999Z</time></trkpt><trkpt lat="45.74131790904736" lon="13.671941550727947"><ele>103.0</ele><time>2026-04-05T16:11:52.999Z</time></trkpt><trkpt lat="45.741389282200906" lon="13.671747433687022"><ele>98.0</ele><time>2026-04-05T16:11:53.999Z</time></trkpt><trkpt lat="45.74145961885577" lon="13.671558438793038"><ele>93.0</ele><time>2026-04-05T16:11:54.999Z</time></trkpt><trkpt lat="45.741530724822844" lon="13.671369601853074"><ele>93.0</ele><time>2026-04-05T16:11:55.999Z</time></trkpt><trkpt lat="45.741599927852164" lon="13.671179483542037"><ele>93.0</ele><time>2026-04-05T16:11:56.999Z</time></trkpt><trkpt lat="45.74167293615758" lon="13.670984350681968"><ele>93.0</ele><time>2026-04-05T16:11:57.999Z</time></trkpt><trkpt lat="45.7417493048668" lon="13.670783727913369"><ele>96.0</ele><time>2026-04-05T16:11:58.999Z</time></trkpt><trkpt lat="45.7418286736922" lon="13.670577045796191"><ele>99.0</ele><time>2026-04-05T16:12:00Z</time></trkpt><trkpt lat="45.7419099041548" lon="13.670360893557856"><ele>102.0</ele><time>2026-04-05T16:12:01Z</time></trkpt><trkpt lat="45.741993565019264" lon="13.670141129675978"><ele>102.0</ele><time>2026-04-05T16:12:02Z</time></trkpt><trkpt lat="45.74208161692894" lon="13.669918619630858"><ele>102.0</ele><time>2026-04-05T16:12:03Z</time></trkpt><trkpt lat="45.74217328819073" lon="13.66969528319262"><ele>102.0</ele><time>2026-04-05T16:12:04Z</time></trkpt><trkpt lat="45.742274517191554" lon="13.669461888561582"><ele>95.33333333333333</ele><time>2026-04-05T16:12:05Z</time></trkpt><trkpt lat="45.74238550149866" lon="13.669216585428181"><ele>88.66666666666666</ele><time>2026-04-05T16:12:06Z</time></trkpt><trkpt lat="45.74250468967966" lon="13.668957082175163"><ele>82.0</ele><time>2026-04-05T16:12:07Z</time></trkpt><trkpt lat="45.742634961646935" lon="13.66867755009137"><ele>94.0</ele><time>2026-04-05T16:12:08Z</time></trkpt><trkpt lat="45.742772102603574" lon="13.668391712217492"><ele>106.0</ele><time>2026-04-05T16:12:09Z</time></trkpt><trkpt lat="45.74290312193847" lon="13.668119039917514"><ele>106.0</ele><time>2026-04-05T16:12:10Z</time></trkpt><trkpt lat="45.74302854412405" lon="13.667863402943762"><ele>106.0</ele><time>2026-04-05T16:12:11Z</time></trkpt><trkpt lat="45.74313779939802" lon="13.667630053776605"><ele>106.0</ele><time>2026-04-05T16:12:12Z</time></trkpt><trkpt lat="45.74322726645207" lon="13.66739888897249"><ele>100.66666666666667</ele><time>2026-04-05T16:12:13Z</time></trkpt><trkpt lat="45.74330329958305" lon="13.667176089693918"><ele>95.33333333333334</ele><time>2026-04-05T16:12:14Z</time></trkpt><trkpt lat="45.74337132411176" lon="13.66697948042434"><ele>90.0</ele><time>2026-04-05T16:12:15Z</time></trkpt><trkpt lat="45.74344153586644" lon="13.666800429002805"><ele>84.0</ele><time>2026-04-05T16:12:16Z</time></trkpt><trkpt lat="45.74350912627451" lon="13.666636335138884"><ele>78.0</ele><time>2026-04-05T16:12:17Z</time></trkpt><trkpt lat="45.74357933850109" lon="13.666479548090907"><ele>72.0</ele><time>2026-04-05T16:12:18Z</time></trkpt><trkpt lat="45.743658930212895" lon="13.666322398584906"><ele>66.0</ele><time>2026-04-05T16:12:19Z</time></trkpt><trkpt lat="45.74374277711335" lon="13.666168914732141"><ele>74.0</ele><time>2026-04-05T16:12:20Z</time></trkpt><trkpt lat="45.743831890359914" lon="13.666021772968836"><ele>82.0</ele><time>2026-04-05T16:12:21Z</time></trkpt><trkpt lat="45.743927435529976" lon="13.665864193470613"><ele>90.0</ele><time>2026-04-05T16:12:22Z</time></trkpt><trkpt lat="45.74403161996716" lon="13.665696390506707"><ele>98.0</ele><time>2026-04-05T16:12:23Z</time></trkpt><trkpt lat="45.744144346585465" lon="13.665518352387295"><ele>98.0</ele><time>2026-04-05T16:12:24Z</time></trkpt><trkpt lat="45.744258609977315" lon="13.665333492931534"><ele>98.0</ele><time>2026-04-05T16:12:25Z</time></trkpt><trkpt lat="45.74436415390925" lon="13.665160611803513"><ele>98.0</ele><time>2026-04-05T16:12:26Z</time></trkpt><trkpt lat="45.74446663900193" lon="13.664997031086921"><ele>95.0</ele><time>2026-04-05T16:12:27Z</time></trkpt><trkpt lat="45.74456709203452" lon="13.664841648154537"><ele>92.0</ele><time>2026-04-05T16:12:28Z</time></trkpt><trkpt lat="45.74467501880629" lon="13.664685693350938"><ele>89.0</ele><time>2026-04-05T16:12:29Z</time></trkpt><trkpt lat="45.74478798497796" lon="13.664551124834727"><ele>86.0</ele><time>2026-04-05T16:12:30Z</time></trkpt><trkpt lat="45.7449032125336" lon="13.664418990631464"><ele>86.0</ele><time>2026-04-05T16:12:31Z</time></trkpt><trkpt lat="45.74501130226715" lon="13.664291210528727"><ele>86.0</ele><time>2026-04-05T16:12:32Z</time></trkpt><trkpt lat="45.745121777213264" lon="13.664166220999267"><ele>86.0</ele><time>2026-04-05T16:12:33Z</time></trkpt><trkpt lat="45.74523406717976" lon="13.664034783206777"><ele>86.0</ele><time>2026-04-05T16:12:34Z</time></trkpt><trkpt lat="45.74534461991702" lon="13.663890279492197"><ele>91.5</ele><time>2026-04-05T16:12:35Z</time></trkpt><trkpt lat="45.74545246236305" lon="13.663756565813722"><ele>97.0</ele><time>2026-04-05T16:12:36Z</time></trkpt><trkpt lat="45.7455594083717" lon="13.663613118907124"><ele>102.5</ele><time>2026-04-05T16:12:36.999Z</time></trkpt><trkpt lat="45.745668807488016" lon="13.663460644629229"><ele>108.0</ele><time>2026-04-05T16:12:37.999Z</time></trkpt><trkpt lat="45.74578551248072" lon="13.663297200807891"><ele>108.0</ele><time>2026-04-05T16:12:38.999Z</time></trkpt><trkpt lat="45.74590554196941" lon="13.663118056777515"><ele>108.0</ele><time>2026-04-05T16:12:39.999Z</time></trkpt><trkpt lat="45.74602264421593" lon="13.66294597799404"><ele>108.0</ele><time>2026-04-05T16:12:40.999Z</time></trkpt><trkpt lat="45.746137478019506" lon="13.662779011127151"><ele>111.66666666666666</ele><time>2026-04-05T16:12:41.999Z</time></trkpt><trkpt lat="45.74625647319918" lon="13.662620023451517"><ele>115.33333333333333</ele><time>2026-04-05T16:12:42.999Z</time></trkpt><trkpt lat="45.74637441941248" lon="13.662465886182979"><ele>119.0</ele><time>2026-04-05T16:12:43.999Z</time></trkpt><trkpt lat="45.74649963565751" lon="13.662312733972403"><ele>119.0</ele><time>2026-04-05T16:12:44.999Z</time></trkpt><trkpt lat="45.74663119303576" lon="13.662159603604527"><ele>119.0</ele><time>2026-04-05T16:12:45.999Z</time></trkpt><trkpt lat="45.74676727650985" lon="13.662003255811811"><ele>119.0</ele><time>2026-04-05T16:12:46.999Z</time></trkpt><trkpt lat="45.74690962102273" lon="13.661855354866628"><ele>117.66666666666666</ele><time>2026-04-05T16:12:47.999Z</time></trkpt><trkpt lat="45.74705525485815" lon="13.661716682648274"><ele>116.33333333333334</ele><time>2026-04-05T16:12:48.999Z</time></trkpt><trkpt lat="45.747205290620926" lon="13.661581532905489"><ele>115.0</ele><time>2026-04-05T16:12:49.999Z</time></trkpt><trkpt lat="45.74735556122433" lon="13.661445763147036"><ele>115.0</ele><time>2026-04-05T16:12:50.999Z</time></trkpt><trkpt lat="45.7475017023295" lon="13.661307420211914"><ele>115.0</ele><time>2026-04-05T16:12:51.999Z</time></trkpt><trkpt lat="45.74764696511163" lon="13.661166291531528"><ele>115.0</ele><time>2026-04-05T16:12:52.999Z</time></trkpt><trkpt lat="45.74778929767969" lon="13.661015846949555"><ele>111.66666666666667</ele><time>2026-04-05T16:12:53.999Z</time></trkpt><trkpt lat="45.74792515206992" lon="13.660874409645013"><ele>108.33333333333334</ele><time>2026-04-05T16:12:54.999Z</time></trkpt><trkpt lat="45.748061140441855" lon="13.660737597907191"><ele>105.0</ele><time>2026-04-05T16:12:55.999Z</time></trkpt><trkpt lat="45.74819644912486" lon="13.66060219216881"><ele>105.0</ele><time>2026-04-05T16:12:56.999Z</time></trkpt><trkpt lat="45.74833204025406" lon="13.660467210139132"><ele>105.0</ele><time>2026-04-05T16:12:57.999Z</time></trkpt><trkpt lat="45.74846747702393" lon="13.660334996564837"><ele>105.0</ele><time>2026-04-05T16:12:58.999Z</time></trkpt><trkpt lat="45.7486010881584" lon="13.660201361327363"><ele>104.66666666666666</ele><time>2026-04-05T16:12:59.999Z</time></trkpt><trkpt lat="45.748733457785406" lon="13.66006926296158"><ele>104.33333333333333</ele><time>2026-04-05T16:13:00.999Z</time></trkpt><trkpt lat="45.748865138198674" lon="13.659934548236981"><ele>104.0</ele><time>2026-04-05T16:13:01.999Z</time></trkpt><trkpt lat="45.74899052205382" lon="13.659802942984523"><ele>104.0</ele><time>2026-04-05T16:13:02.999Z</time></trkpt><trkpt lat="45.7491098279241" lon="13.65967306482679"><ele>104.0</ele><time>2026-04-05T16:13:03.999Z</time></trkpt><trkpt lat="45.7492273410773" lon="13.659533458436439"><ele>104.0</ele><time>2026-04-05T16:13:04.999Z</time></trkpt><trkpt lat="45.7493410048648" lon="13.659380632342788"><ele>107.66666666666666</ele><time>2026-04-05T16:13:05.999Z</time></trkpt><trkpt lat="45.74945873793247" lon="13.65922730603207"><ele>111.33333333333334</ele><time>2026-04-05T16:13:06.999Z</time></trkpt><trkpt lat="45.74958359966169" lon="13.659069145755604"><ele>115.0</ele><time>2026-04-05T16:13:07.999Z</time></trkpt><trkpt lat="45.74969744764722" lon="13.658915093132439"><ele>115.0</ele><time>2026-04-05T16:13:08.999Z</time></trkpt><trkpt lat="45.74981507820086" lon="13.65877006666474"><ele>115.0</ele><time>2026-04-05T16:13:09.999Z</time></trkpt><trkpt lat="45.74993550790222" lon="13.65861747608581"><ele>115.0</ele><time>2026-04-05T16:13:10.999Z</time></trkpt><trkpt lat="45.750052463704215" lon="13.658468617898963"><ele>117.0</ele><time>2026-04-05T16:13:11.999Z</time></trkpt><trkpt lat="45.75016199333232" lon="13.658321527645711"><ele>119.0</ele><time>2026-04-05T16:13:12.999Z</time></trkpt><trkpt lat="45.75027470576475" lon="13.658182693701647"><ele>121.0</ele><time>2026-04-05T16:13:13.999Z</time></trkpt><trkpt lat="45.75038575017381" lon="13.658040497744036"><ele>123.0</ele><time>2026-04-05T16:13:14.999Z</time></trkpt><trkpt lat="45.75048066000033" lon="13.657897301685454"><ele>116.0</ele><time>2026-04-05T16:13:15.999Z</time></trkpt><trkpt lat="45.75057829155818" lon="13.6577388629477"><ele>109.0</ele><time>2026-04-05T16:13:16.999Z</time></trkpt><trkpt lat="45.75067674062118" lon="13.657577705212203"><ele>102.0</ele><time>2026-04-05T16:13:17.999Z</time></trkpt><trkpt lat="45.75075682648188" lon="13.657418782420315"><ele>95.0</ele><time>2026-04-05T16:13:18.999Z</time></trkpt><trkpt lat="45.75084147031012" lon="13.65725010387104"><ele>95.0</ele><time>2026-04-05T16:13:19.999Z</time></trkpt><trkpt lat="45.75092271369544" lon="13.657087831151866"><ele>95.0</ele><time>2026-04-05T16:13:20.999Z</time></trkpt><trkpt lat="45.75100750430196" lon="13.656915567327372"><ele>95.0</ele><time>2026-04-05T16:13:21.999Z</time></trkpt><trkpt lat="45.75109142082134" lon="13.656757141796438"><ele>95.0</ele><time>2026-04-05T16:13:22.999Z</time></trkpt><trkpt lat="45.751176764751335" lon="13.656582923989497"><ele>93.66666666666667</ele><time>2026-04-05T16:13:23.999Z</time></trkpt><trkpt lat="45.751263684622" lon="13.656401536546477"><ele>92.33333333333333</ele><time>2026-04-05T16:13:24.999Z</time></trkpt><trkpt lat="45.751352153463024" lon="13.656230538782387"><ele>91.0</ele><time>2026-04-05T16:13:25.999Z</time></trkpt><trkpt lat="45.751434184435155" lon="13.65604910300639"><ele>91.0</ele><time>2026-04-05T16:13:26.999Z</time></trkpt><trkpt lat="45.751509748612406" lon="13.655870373566506"><ele>91.0</ele><time>2026-04-05T16:13:27.999Z</time></trkpt><trkpt lat="45.75158827034715" lon="13.655690129835095"><ele>91.0</ele><time>2026-04-05T16:13:28.999Z</time></trkpt><trkpt lat="45.75165889847879" lon="13.655498459355249"><ele>91.0</ele><time>2026-04-05T16:13:29.999Z</time></trkpt><trkpt lat="45.7517242671658" lon="13.655318234400363"><ele>86.75</ele><time>2026-04-05T16:13:30.999Z</time></trkpt><trkpt lat="45.751796887103055" lon="13.655137884256606"><ele>82.5</ele><time>2026-04-05T16:13:31.999Z</time></trkpt><trkpt lat="45.75186348780489" lon="13.65495156296916"><ele>78.25</ele><time>2026-04-05T16:13:32.999Z</time></trkpt><trkpt lat="45.751937256775356" lon="13.65476937537997"><ele>74.0</ele><time>2026-04-05T16:13:33.999Z</time></trkpt><trkpt lat="45.75202024445" lon="13.654592413097525"><ele>84.0</ele><time>2026-04-05T16:13:34.999Z</time></trkpt><trkpt lat="45.752107076101474" lon="13.654413502224765"><ele>94.0</ele><time>2026-04-05T16:13:35.999Z</time></trkpt><trkpt lat="45.75219437167763" lon="13.654232976374708"><ele>104.0</ele><time>2026-04-05T16:13:36.999Z</time></trkpt><trkpt lat="45.75229069212713" lon="13.654047668457489"><ele>104.0</ele><time>2026-04-05T16:13:37.999Z</time></trkpt><trkpt lat="45.75238429576585" lon="13.65386266037614"><ele>104.0</ele><time>2026-04-05T16:13:38.999Z</time></trkpt><trkpt lat="45.75248346800409" lon="13.653676933144427"><ele>104.0</ele><time>2026-04-05T16:13:39.999Z</time></trkpt><trkpt lat="45.752593719563414" lon="13.653497377087586"><ele>110.66666666666666</ele><time>2026-04-05T16:13:40.999Z</time></trkpt><trkpt lat="45.75270471770618" lon="13.653330513492012"><ele>117.33333333333334</ele><time>2026-04-05T16:13:41.999Z</time></trkpt><trkpt lat="45.75281493562427" lon="13.653154701546548"><ele>124.0</ele><time>2026-04-05T16:13:42.999Z</time></trkpt><trkpt lat="45.75293149361048" lon="13.652976292595588"><ele>124.0</ele><time>2026-04-05T16:13:43.999Z</time></trkpt><trkpt lat="45.75304626770936" lon="13.652801321858979"><ele>124.0</ele><time>2026-04-05T16:13:44.999Z</time></trkpt><trkpt lat="45.75316519380693" lon="13.652621114564019"><ele>124.0</ele><time>2026-04-05T16:13:45.999Z</time></trkpt><trkpt lat="45.75326984725416" lon="13.652451831682129"><ele>127.0</ele><time>2026-04-05T16:13:46.999Z</time></trkpt><trkpt lat="45.7533732055832" lon="13.652295200478209"><ele>130.0</ele><time>2026-04-05T16:13:47.999Z</time></trkpt><trkpt lat="45.753488989244886" lon="13.652120050602099"><ele>133.0</ele><time>2026-04-05T16:13:48.999Z</time></trkpt><trkpt lat="45.75359316883157" lon="13.651964829226538"><ele>123.66666666666667</ele><time>2026-04-05T16:13:49.999Z</time></trkpt><trkpt lat="45.75370583925174" lon="13.651793134897114"><ele>114.33333333333334</ele><time>2026-04-05T16:13:50.999Z</time></trkpt><trkpt lat="45.75381185343323" lon="13.651621625065278"><ele>105.0</ele><time>2026-04-05T16:13:51.999Z</time></trkpt><trkpt lat="45.75391986562083" lon="13.651457555980139"><ele>105.0</ele><time>2026-04-05T16:13:52.999Z</time></trkpt><trkpt lat="45.75403383962504" lon="13.651287170823977"><ele>105.0</ele><time>2026-04-05T16:13:53.999Z</time></trkpt><trkpt lat="45.75414638109887" lon="13.6511137986808"><ele>105.0</ele><time>2026-04-05T16:13:54.999Z</time></trkpt><trkpt lat="45.75426616262459" lon="13.650937526574989"><ele>109.33333333333334</ele><time>2026-04-05T16:13:55.999Z</time></trkpt><trkpt lat="45.75437860445446" lon="13.650760377172457"><ele>113.66666666666667</ele><time>2026-04-05T16:13:56.999Z</time></trkpt><trkpt lat="45.75448904503363" lon="13.650589374366353"><ele>118.0</ele><time>2026-04-05T16:13:57.999Z</time></trkpt><trkpt lat="45.75459909837558" lon="13.650428153367898"><ele>110.33333333333334</ele><time>2026-04-05T16:13:58.999Z</time></trkpt><trkpt lat="45.75470733705254" lon="13.65026751002274"><ele>102.66666666666667</ele><time>2026-04-05T16:13:59.999Z</time></trkpt><trkpt lat="45.75481472664359" lon="13.650105342690614"><ele>95.0</ele><time>2026-04-05T16:14:00.999Z</time></trkpt><trkpt lat="45.754926231164" lon="13.649930283287198"><ele>95.0</ele><time>2026-04-05T16:14:01.999Z</time></trkpt><trkpt lat="45.75503425713357" lon="13.649768712300212"><ele>95.0</ele><time>2026-04-05T16:14:02.999Z</time></trkpt><trkpt lat="45.75513706295358" lon="13.64960988813344"><ele>95.0</ele><time>2026-04-05T16:14:03.999Z</time></trkpt><trkpt lat="45.755246292234695" lon="13.649428422735129"><ele>98.66666666666667</ele><time>2026-04-05T16:14:05Z</time></trkpt><trkpt lat="45.75535690256752" lon="13.649263008697158"><ele>102.33333333333334</ele><time>2026-04-05T16:14:06Z</time></trkpt><trkpt lat="45.75545456205329" lon="13.649098625948083"><ele>106.0</ele><time>2026-04-05T16:14:07Z</time></trkpt><trkpt lat="45.755552847162" lon="13.648912659988975"><ele>106.0</ele><time>2026-04-05T16:14:08Z</time></trkpt><trkpt lat="45.755645659202635" lon="13.648705486373371"><ele>106.0</ele><time>2026-04-05T16:14:09Z</time></trkpt><trkpt lat="45.7557260579736" lon="13.648517800289607"><ele>106.0</ele><time>2026-04-05T16:14:10Z</time></trkpt><trkpt lat="45.755812673762875" lon="13.648302504947806"><ele>101.33333333333334</ele><time>2026-04-05T16:14:11Z</time></trkpt><trkpt lat="45.75588754702693" lon="13.648097544295574"><ele>96.66666666666667</ele><time>2026-04-05T16:14:12Z</time></trkpt><trkpt lat="45.75595886763759" lon="13.6478836347825"><ele>92.0</ele><time>2026-04-05T16:14:13Z</time></trkpt><trkpt lat="45.756032442095595" lon="13.647676149071547"><ele>101.0</ele><time>2026-04-05T16:14:14Z</time></trkpt><trkpt lat="45.75612278744882" lon="13.64746568090559"><ele>110.0</ele><time>2026-04-05T16:14:15Z</time></trkpt><trkpt lat="45.756198945939126" lon="13.647245971828768"><ele>119.0</ele><time>2026-04-05T16:14:16Z</time></trkpt><trkpt lat="45.756283501803956" lon="13.647017283797114"><ele>115.33333333333333</ele><time>2026-04-05T16:14:17Z</time></trkpt><trkpt lat="45.756366797531605" lon="13.646784665315536"><ele>111.66666666666666</ele><time>2026-04-05T16:14:18Z</time></trkpt><trkpt lat="45.75645100226023" lon="13.64653645730155"><ele>108.0</ele><time>2026-04-05T16:14:19Z</time></trkpt><trkpt lat="45.75654026659695" lon="13.646283653462136"><ele>101.66666666666667</ele><time>2026-04-05T16:14:20Z</time></trkpt><trkpt lat="45.75663000043661" lon="13.646035667522904"><ele>95.33333333333334</ele><time>2026-04-05T16:14:21Z</time></trkpt><trkpt lat="45.75672239920958" lon="13.645791279973823"><ele>89.0</ele><time>2026-04-05T16:14:22Z</time></trkpt><trkpt lat="45.75681459606069" lon="13.645553158765784"><ele>96.0</ele><time>2026-04-05T16:14:23Z</time></trkpt><trkpt lat="45.75691417426271" lon="13.645318001932244"><ele>103.0</ele><time>2026-04-05T16:14:24Z</time></trkpt><trkpt lat="45.757016008358335" lon="13.645095979518917"><ele>110.0</ele><time>2026-04-05T16:14:25Z</time></trkpt><trkpt lat="45.75712247826867" lon="13.644889228602828"><ele>110.0</ele><time>2026-04-05T16:14:26Z</time></trkpt><trkpt lat="45.75723133811668" lon="13.644683052348627"><ele>110.0</ele><time>2026-04-05T16:14:27Z</time></trkpt><trkpt lat="45.75734872923181" lon="13.644489762085508"><ele>110.0</ele><time>2026-04-05T16:14:28Z</time></trkpt><trkpt lat="45.75746724984148" lon="13.644289756298264"><ele>113.0</ele><time>2026-04-05T16:14:29Z</time></trkpt><trkpt lat="45.75758163586787" lon="13.644092678502071"><ele>116.0</ele><time>2026-04-05T16:14:30Z</time></trkpt><trkpt lat="45.75770649449288" lon="13.643896964935387"><ele>119.0</ele><time>2026-04-05T16:14:31Z</time></trkpt><trkpt lat="45.75783090577802" lon="13.643699742497212"><ele>113.66666666666666</ele><time>2026-04-05T16:14:32Z</time></trkpt><trkpt lat="45.75795290609959" lon="13.643495339342833"><ele>108.33333333333334</ele><time>2026-04-05T16:14:33Z</time></trkpt><trkpt lat="45.758079169838986" lon="13.643281917154775"><ele>103.0</ele><time>2026-04-05T16:14:34Z</time></trkpt><trkpt lat="45.75820405237088" lon="13.64309051177104"><ele>103.0</ele><time>2026-04-05T16:14:35Z</time></trkpt><trkpt lat="45.75832262299024" lon="13.642906727471345"><ele>103.0</ele><time>2026-04-05T16:14:36Z</time></trkpt><trkpt lat="45.75844073598837" lon="13.642736432777719"><ele>103.0</ele><time>2026-04-05T16:14:37Z</time></trkpt><trkpt lat="45.75857032554748" lon="13.642597310912995"><ele>104.33333333333334</ele><time>2026-04-05T16:14:37.999Z</time></trkpt><trkpt lat="45.758727785969064" lon="13.642497114006398"><ele>105.66666666666666</ele><time>2026-04-05T16:14:38.999Z</time></trkpt><trkpt lat="45.7588754334515" lon="13.642379733274097"><ele>107.0</ele><time>2026-04-05T16:14:39.999Z</time></trkpt><trkpt lat="45.75902482289724" lon="13.6422641895613"><ele>107.0</ele><time>2026-04-05T16:14:40.999Z</time></trkpt><trkpt lat="45.75918157247156" lon="13.642144601318524"><ele>107.0</ele><time>2026-04-05T16:14:41.999Z</time></trkpt><trkpt lat="45.75933677690887" lon="13.642022185635355"><ele>107.0</ele><time>2026-04-05T16:14:42.999Z</time></trkpt><trkpt lat="45.759485967713" lon="13.64190096641954"><ele>103.66666666666666</ele><time>2026-04-05T16:14:43.999Z</time></trkpt><trkpt lat="45.7596308902697" lon="13.641784072284779"><ele>100.33333333333334</ele><time>2026-04-05T16:14:44.999Z</time></trkpt><trkpt lat="45.75977203713793" lon="13.641671698289016"><ele>97.0</ele><time>2026-04-05T16:14:45.999Z</time></trkpt><trkpt lat="45.75990659051054" lon="13.641555985209072"><ele>97.0</ele><time>2026-04-05T16:14:46.999Z</time></trkpt><trkpt lat="45.76004448538012" lon="13.641442889995824"><ele>97.0</ele><time>2026-04-05T16:14:47.999Z</time></trkpt><trkpt lat="45.760181293045754" lon="13.641334774174457"><ele>97.0</ele><time>2026-04-05T16:14:48.999Z</time></trkpt><trkpt lat="45.76031089656503" lon="13.641228880959671"><ele>95.0</ele><time>2026-04-05T16:14:49.999Z</time></trkpt><trkpt lat="45.760442381220265" lon="13.64112309869053"><ele>93.0</ele><time>2026-04-05T16:14:50.999Z</time></trkpt><trkpt lat="45.76057043332594" lon="13.641018301456445"><ele>91.0</ele><time>2026-04-05T16:14:51.999Z</time></trkpt><trkpt lat="45.76069501481052" lon="13.64092024286448"><ele>89.0</ele><time>2026-04-05T16:14:52.999Z</time></trkpt><trkpt lat="45.76081958026034" lon="13.640821706872428"><ele>89.0</ele><time>2026-04-05T16:14:53.999Z</time></trkpt><trkpt lat="45.7609515375927" lon="13.640715335785265"><ele>89.0</ele><time>2026-04-05T16:14:54.999Z</time></trkpt><trkpt lat="45.76108771169109" lon="13.640602963365966"><ele>89.0</ele><time>2026-04-05T16:14:55.999Z</time></trkpt><trkpt lat="45.76122866416133" lon="13.640490500848728"><ele>88.66666666666667</ele><time>2026-04-05T16:14:56.999Z</time></trkpt><trkpt lat="45.761371187263926" lon="13.640380604825054"><ele>88.33333333333333</ele><time>2026-04-05T16:14:57.999Z</time></trkpt><trkpt lat="45.761522602070066" lon="13.640266224250036"><ele>88.0</ele><time>2026-04-05T16:14:58.999Z</time></trkpt><trkpt lat="45.76167568077376" lon="13.640147979871722"><ele>88.0</ele><time>2026-04-05T16:14:59.999Z</time></trkpt><trkpt lat="45.761835717155975" lon="13.640036436164337"><ele>88.0</ele><time>2026-04-05T16:15:00.999Z</time></trkpt><trkpt lat="45.761998462508565" lon="13.639929421358783"><ele>88.0</ele><time>2026-04-05T16:15:01.999Z</time></trkpt><trkpt lat="45.762162164225074" lon="13.639838877186897"><ele>90.66666666666666</ele><time>2026-04-05T16:15:02.999Z</time></trkpt><trkpt lat="45.76232940272207" lon="13.639754516111692"><ele>93.33333333333333</ele><time>2026-04-05T16:15:03.999Z</time></trkpt><trkpt lat="45.76250622253841" lon="13.639678147308455"><ele>96.0</ele><time>2026-04-05T16:15:04.999Z</time></trkpt><trkpt lat="45.76267448955477" lon="13.639598714921789"><ele>95.33333333333333</ele><time>2026-04-05T16:15:05.999Z</time></trkpt><trkpt lat="45.76284188656982" lon="13.639534326991816"><ele>94.66666666666666</ele><time>2026-04-05T16:15:06.999Z</time></trkpt><trkpt lat="45.76300966944993" lon="13.639479427454875"><ele>94.0</ele><time>2026-04-05T16:15:07.999Z</time></trkpt><trkpt lat="45.76317511673899" lon="13.639428626059429"><ele>90.66666666666666</ele><time>2026-04-05T16:15:08.999Z</time></trkpt><trkpt lat="45.7633408738002" lon="13.639384515284524"><ele>87.33333333333333</ele><time>2026-04-05T16:15:09.999Z</time></trkpt><trkpt lat="45.76350404629085" lon="13.639347052972804"><ele>84.0</ele><time>2026-04-05T16:15:10.999Z</time></trkpt><trkpt lat="45.76366371084403" lon="13.639315203149756"><ele>84.0</ele><time>2026-04-05T16:15:11.999Z</time></trkpt><trkpt lat="45.76382202209035" lon="13.639293860792165"><ele>84.0</ele><time>2026-04-05T16:15:12.999Z</time></trkpt><trkpt lat="45.7639823197059" lon="13.639283342922758"><ele>84.0</ele><time>2026-04-05T16:15:13.999Z</time></trkpt><trkpt lat="45.76414503961512" lon="13.639274280854288"><ele>84.0</ele><time>2026-04-05T16:15:14.999Z</time></trkpt><trkpt lat="45.764310993818455" lon="13.639274361808615"><ele>84.0</ele><time>2026-04-05T16:15:15.999Z</time></trkpt><trkpt lat="45.76447858933427" lon="13.639274448970955"><ele>84.0</ele><time>2026-04-05T16:15:16.999Z</time></trkpt><trkpt lat="45.7646445790267" lon="13.639274706479057"><ele>83.66666666666667</ele><time>2026-04-05T16:15:17.999Z</time></trkpt><trkpt lat="45.76480930835508" lon="13.639275411587963"><ele>83.33333333333334</ele><time>2026-04-05T16:15:18.999Z</time></trkpt><trkpt lat="45.764970912057734" lon="13.639275383569235"><ele>83.0</ele><time>2026-04-05T16:15:19.999Z</time></trkpt><trkpt lat="45.765135566105734" lon="13.639273379170447"><ele>82.33333333333334</ele><time>2026-04-05T16:15:20.999Z</time></trkpt><trkpt lat="45.7653004538263" lon="13.63927202695701"><ele>81.66666666666667</ele><time>2026-04-05T16:15:21.999Z</time></trkpt><trkpt lat="45.765466028914325" lon="13.639269360076609"><ele>81.0</ele><time>2026-04-05T16:15:22.999Z</time></trkpt><trkpt lat="45.765626410214125" lon="13.639265921979502"><ele>81.0</ele><time>2026-04-05T16:15:23.999Z</time></trkpt><trkpt lat="45.76578252431098" lon="13.639263167760697"><ele>81.0</ele><time>2026-04-05T16:15:24.999Z</time></trkpt><trkpt lat="45.76593009450045" lon="13.639262539831163"><ele>81.0</ele><time>2026-04-05T16:15:25.999Z</time></trkpt><trkpt lat="45.766072405275764" lon="13.63926348286061"><ele>81.0</ele><time>2026-04-05T16:15:26.999Z</time></trkpt><trkpt lat="45.76621036556436" lon="13.63926400369917"><ele>81.5</ele><time>2026-04-05T16:15:27.999Z</time></trkpt><trkpt lat="45.766347264398554" lon="13.639264174151032"><ele>82.0</ele><time>2026-04-05T16:15:28.999Z</time></trkpt><trkpt lat="45.76648824014056" lon="13.639266082591858"><ele>82.5</ele><time>2026-04-05T16:15:29.999Z</time></trkpt><trkpt lat="45.76664129432036" lon="13.63926307824211"><ele>83.0</ele><time>2026-04-05T16:15:30.999Z</time></trkpt><trkpt lat="45.76679776422249" lon="13.639261132927205"><ele>83.0</ele><time>2026-04-05T16:15:31.999Z</time></trkpt><trkpt lat="45.76695333614877" lon="13.639261612965871"><ele>83.0</ele><time>2026-04-05T16:15:32.999Z</time></trkpt><trkpt lat="45.76711541313953" lon="13.639264782197788"><ele>83.0</ele><time>2026-04-05T16:15:33.999Z</time></trkpt><trkpt lat="45.767279815621606" lon="13.639266737468278"><ele>83.0</ele><time>2026-04-05T16:15:34.999Z</time></trkpt><trkpt lat="45.767452193549026" lon="13.639264876058101"><ele>83.0</ele><time>2026-04-05T16:15:35.999Z</time></trkpt><trkpt lat="45.767629233276296" lon="13.639265836590798"><ele>83.0</ele><time>2026-04-05T16:15:36.999Z</time></trkpt><trkpt lat="45.76780822612435" lon="13.639264215048186"><ele>83.0</ele><time>2026-04-05T16:15:37.999Z</time></trkpt><trkpt lat="45.767999033453414" lon="13.639261429768977"><ele>83.0</ele><time>2026-04-05T16:15:38.999Z</time></trkpt><trkpt lat="45.76819040819146" lon="13.639258886102311"><ele>83.0</ele><time>2026-04-05T16:15:39.999Z</time></trkpt><trkpt lat="45.76835969149546" lon="13.639257170097258"><ele>83.0</ele><time>2026-04-05T16:15:40.999Z</time></trkpt><trkpt lat="45.76851264137588" lon="13.63925474194443"><ele>83.0</ele><time>2026-04-05T16:15:41.999Z</time></trkpt><trkpt lat="45.768653598582794" lon="13.639252142730971"><ele>83.0</ele><time>2026-04-05T16:15:42.999Z</time></trkpt><trkpt lat="45.76879075166138" lon="13.639247236305485"><ele>83.0</ele><time>2026-04-05T16:15:43.999Z</time></trkpt><trkpt lat="45.768928996469064" lon="13.639239968290898"><ele>82.60000000000001</ele><time>2026-04-05T16:15:44.999Z</time></trkpt><trkpt lat="45.76905981386556" lon="13.639231156053054"><ele>82.2</ele><time>2026-04-05T16:15:45.999Z</time></trkpt><trkpt lat="45.76917551639691" lon="13.639224258577713"><ele>81.8</ele><time>2026-04-05T16:15:46.999Z</time></trkpt><trkpt lat="45.76927509284428" lon="13.639218586939812"><ele>81.4</ele><time>2026-04-05T16:15:47.999Z</time></trkpt><trkpt lat="45.76935804231309" lon="13.639210081814673"><ele>81.0</ele><time>2026-04-05T16:15:48.999Z</time></trkpt><trkpt lat="45.76943760288651" lon="13.639204329850678"><ele>80.83333333333333</ele><time>2026-04-05T16:15:49.999Z</time></trkpt><trkpt lat="45.76951687427887" lon="13.639190976319274"><ele>80.66666666666667</ele><time>2026-04-05T16:15:50.999Z</time></trkpt><trkpt lat="45.76958783603341" lon="13.639173091933381"><ele>80.5</ele><time>2026-04-05T16:15:51.999Z</time></trkpt><trkpt lat="45.76969238263881" lon="13.63911975264084"><ele>80.33333333333334</ele><time>2026-04-05T16:15:53.999Z</time></trkpt><trkpt lat="45.76976933129482" lon="13.639060686051323"><ele>80.16666666666667</ele><time>2026-04-05T16:15:55.999Z</time></trkpt><trkpt lat="45.76982933935124" lon="13.639013721033093"><ele>80.0</ele><time>2026-04-05T16:15:59.999Z</time></trkpt><trkpt lat="45.76989745156389" lon="13.638991966940813"><ele>80.0</ele><time>2026-04-05T16:16:03.999Z</time></trkpt><trkpt lat="45.76997943185161" lon="13.638943132209736"><ele>80.0</ele><time>2026-04-05T16:16:06.999Z</time></trkpt><trkpt lat="45.77007189010982" lon="13.638885495414613"><ele>80.0</ele><time>2026-04-05T16:16:09.999Z</time></trkpt><trkpt lat="45.77017348198506" lon="13.638965363027172"><ele>80.0</ele><time>2026-04-05T16:16:12Z</time></trkpt><trkpt lat="45.77022644587406" lon="13.639021253812805"><ele>80.0</ele><time>2026-04-05T16:16:13Z</time></trkpt><trkpt lat="45.77029401696782" lon="13.639064461111143"><ele>80.0</ele><time>2026-04-05T16:16:14Z</time></trkpt><trkpt lat="45.770371941801834" lon="13.63907307145858"><ele>79.83333333333334</ele><time>2026-04-05T16:16:15Z</time></trkpt><trkpt lat="45.77045183660585" lon="13.639046614960654"><ele>79.66666666666667</ele><time>2026-04-05T16:16:16Z</time></trkpt><trkpt lat="45.770523230163505" lon="13.63898030308158"><ele>79.5</ele><time>2026-04-05T16:16:17Z</time></trkpt><trkpt lat="45.77056731950529" lon="13.638876524891405"><ele>79.33333333333333</ele><time>2026-04-05T16:16:18Z</time></trkpt><trkpt lat="45.7706026756542" lon="13.638755148266066"><ele>79.16666666666666</ele><time>2026-04-05T16:16:19Z</time></trkpt><trkpt lat="45.770648017075274" lon="13.638644244539808"><ele>79.0</ele><time>2026-04-05T16:16:20Z</time></trkpt><trkpt lat="45.7707038088321" lon="13.638536920911127"><ele>79.0</ele><time>2026-04-05T16:16:21Z</time></trkpt><trkpt lat="45.77076703822653" lon="13.638433442306619"><ele>79.0</ele><time>2026-04-05T16:16:22Z</time></trkpt><trkpt lat="45.77083196324011" lon="13.63833468240098"><ele>79.0</ele><time>2026-04-05T16:16:23Z</time></trkpt><trkpt lat="45.770892656917006" lon="13.638246844067881"><ele>79.0</ele><time>2026-04-05T16:16:24Z</time></trkpt><trkpt lat="45.77095222195233" lon="13.638158479357608"><ele>79.0</ele><time>2026-04-05T16:16:25Z</time></trkpt><trkpt lat="45.771010919289985" lon="13.638068121218392"><ele>79.0</ele><time>2026-04-05T16:16:26Z</time></trkpt><trkpt lat="45.771062851360846" lon="13.637986718274831"><ele>78.42857142857143</ele><time>2026-04-05T16:16:27Z</time></trkpt><trkpt lat="45.77111257017358" lon="13.637910719338663"><ele>77.85714285714286</ele><time>2026-04-05T16:16:28Z</time></trkpt><trkpt lat="45.77116769104619" lon="13.637832453831995"><ele>77.28571428571428</ele><time>2026-04-05T16:16:29Z</time></trkpt><trkpt lat="45.77122283308766" lon="13.637751217921156"><ele>76.71428571428572</ele><time>2026-04-05T16:16:30Z</time></trkpt><trkpt lat="45.77127201383921" lon="13.637672199282338"><ele>76.14285714285714</ele><time>2026-04-05T16:16:31Z</time></trkpt><trkpt lat="45.771317825160935" lon="13.637599085858403"><ele>75.57142857142857</ele><time>2026-04-05T16:16:32Z</time></trkpt><trkpt lat="45.771364820109405" lon="13.637524047075098"><ele>75.0</ele><time>2026-04-05T16:16:33Z</time></trkpt><trkpt lat="45.77140822972975" lon="13.63745168845418"><ele>75.0</ele><time>2026-04-05T16:16:34Z</time></trkpt><trkpt lat="45.771499199044534" lon="13.637309266271863"><ele>75.0</ele><time>2026-04-05T16:16:36Z</time></trkpt><trkpt lat="45.77154556936448" lon="13.63723438494493"><ele>75.0</ele><time>2026-04-05T16:16:37Z</time></trkpt><trkpt lat="45.77161707127458" lon="13.637116596980201"><ele>75.0</ele><time>2026-04-05T16:16:39Z</time></trkpt><trkpt lat="45.771671382021566" lon="13.637028130748442"><ele>75.0</ele><time>2026-04-05T16:16:41Z</time></trkpt><trkpt lat="45.771742257975916" lon="13.636917956896438"><ele>74.83333333333333</ele><time>2026-04-05T16:16:43Z</time></trkpt><trkpt lat="45.77182039155184" lon="13.636792215433067"><ele>74.66666666666667</ele><time>2026-04-05T16:16:45Z</time></trkpt><trkpt lat="45.77186471699133" lon="13.63672264445582"><ele>74.5</ele><time>2026-04-05T16:16:46Z</time></trkpt><trkpt lat="45.7719119038244" lon="13.636642766021794"><ele>74.33333333333334</ele><time>2026-04-05T16:16:46.999Z</time></trkpt><trkpt lat="45.771962420309386" lon="13.636561302608163"><ele>74.16666666666667</ele><time>2026-04-05T16:16:47.999Z</time></trkpt><trkpt lat="45.77201772471613" lon="13.636475884772684"><ele>74.0</ele><time>2026-04-05T16:16:48.999Z</time></trkpt><trkpt lat="45.772070217542264" lon="13.636384444359027"><ele>74.0</ele><time>2026-04-05T16:16:49.999Z</time></trkpt><trkpt lat="45.7721221212958" lon="13.63628300327606"><ele>74.0</ele><time>2026-04-05T16:16:50.999Z</time></trkpt><trkpt lat="45.772175356031696" lon="13.636166005469633"><ele>74.0</ele><time>2026-04-05T16:16:51.999Z</time></trkpt><trkpt lat="45.77223583589291" lon="13.636034903555446"><ele>74.0</ele><time>2026-04-05T16:16:52.999Z</time></trkpt><trkpt lat="45.772295589428126" lon="13.635900810356109"><ele>74.0</ele><time>2026-04-05T16:16:53.999Z</time></trkpt><trkpt lat="45.772352625679346" lon="13.635760221826361"><ele>74.0</ele><time>2026-04-05T16:16:54.999Z</time></trkpt><trkpt lat="45.77241968759929" lon="13.635616162088281"><ele>74.0</ele><time>2026-04-05T16:16:55.999Z</time></trkpt><trkpt lat="45.77249787012023" lon="13.635469775316258"><ele>74.0</ele><time>2026-04-05T16:16:56.999Z</time></trkpt><trkpt lat="45.77259312037695" lon="13.63532622594242"><ele>74.0</ele><time>2026-04-05T16:16:57.999Z</time></trkpt><trkpt lat="45.77271029959629" lon="13.635183067560314"><ele>75.33333333333334</ele><time>2026-04-05T16:16:58.999Z</time></trkpt><trkpt lat="45.772842841990034" lon="13.635042764345148"><ele>76.66666666666667</ele><time>2026-04-05T16:16:59.999Z</time></trkpt><trkpt lat="45.77297957966245" lon="13.634906537463161"><ele>78.0</ele><time>2026-04-05T16:17:00.999Z</time></trkpt><trkpt lat="45.77310804973485" lon="13.634778024910279"><ele>78.0</ele><time>2026-04-05T16:17:01.999Z</time></trkpt><trkpt lat="45.773212500729414" lon="13.634652786584388"><ele>78.0</ele><time>2026-04-05T16:17:02.999Z</time></trkpt><trkpt lat="45.77330689481946" lon="13.634533652288537"><ele>78.0</ele><time>2026-04-05T16:17:03.999Z</time></trkpt><trkpt lat="45.773400288042765" lon="13.634419529004012"><ele>78.0</ele><time>2026-04-05T16:17:04.999Z</time></trkpt><trkpt lat="45.77348876396109" lon="13.634304905177109"><ele>77.25</ele><time>2026-04-05T16:17:05.999Z</time></trkpt><trkpt lat="45.773568101152456" lon="13.634172496414267"><ele>76.5</ele><time>2026-04-05T16:17:06.999Z</time></trkpt><trkpt lat="45.77362965213447" lon="13.634022766732093"><ele>75.75</ele><time>2026-04-05T16:17:07.999Z</time></trkpt><trkpt lat="45.77367684117919" lon="13.633869973227961"><ele>75.0</ele><time>2026-04-05T16:17:08.999Z</time></trkpt><trkpt lat="45.773708754050986" lon="13.633710692625035"><ele>74.75</ele><time>2026-04-05T16:17:09.999Z</time></trkpt><trkpt lat="45.77372273781643" lon="13.633531519799813"><ele>74.5</ele><time>2026-04-05T16:17:10.999Z</time></trkpt><trkpt lat="45.773720669936175" lon="13.633349599527513"><ele>74.25</ele><time>2026-04-05T16:17:11.999Z</time></trkpt><trkpt lat="45.773695780405546" lon="13.633174670372886"><ele>74.0</ele><time>2026-04-05T16:17:12.999Z</time></trkpt><trkpt lat="45.77366343109668" lon="13.632999779229685"><ele>74.0</ele><time>2026-04-05T16:17:13.999Z</time></trkpt><trkpt lat="45.77363689316876" lon="13.632817676242277"><ele>74.0</ele><time>2026-04-05T16:17:14.999Z</time></trkpt><trkpt lat="45.77360855110813" lon="13.632630372093054"><ele>74.0</ele><time>2026-04-05T16:17:15.999Z</time></trkpt><trkpt lat="45.77357748959642" lon="13.63243752115011"><ele>74.0</ele><time>2026-04-05T16:17:16.999Z</time></trkpt><trkpt lat="45.773547190420345" lon="13.632243268125846"><ele>72.25</ele><time>2026-04-05T16:17:17.999Z</time></trkpt><trkpt lat="45.773519936568185" lon="13.632068710889666"><ele>70.5</ele><time>2026-04-05T16:17:18.999Z</time></trkpt><trkpt lat="45.7734953400572" lon="13.631903079436833"><ele>68.75</ele><time>2026-04-05T16:17:19.999Z</time></trkpt><trkpt lat="45.77347019977732" lon="13.631742581956823"><ele>67.0</ele><time>2026-04-05T16:17:20.999Z</time></trkpt><trkpt lat="45.77344703283973" lon="13.631586931146328"><ele>67.0</ele><time>2026-04-05T16:17:21.999Z</time></trkpt><trkpt lat="45.77342350575338" lon="13.631432148339261"><ele>67.0</ele><time>2026-04-05T16:17:22.999Z</time></trkpt><trkpt lat="45.77339932417746" lon="13.631273452575147"><ele>67.0</ele><time>2026-04-05T16:17:23.999Z</time></trkpt><trkpt lat="45.773373774847144" lon="13.631107823773098"><ele>67.0</ele><time>2026-04-05T16:17:24.999Z</time></trkpt><trkpt lat="45.77334737110148" lon="13.63093779189018"><ele>67.0</ele><time>2026-04-05T16:17:25.999Z</time></trkpt><trkpt lat="45.773320052343735" lon="13.6307642041816"><ele>67.0</ele><time>2026-04-05T16:17:26.999Z</time></trkpt><trkpt lat="45.77329455024215" lon="13.630585849171501"><ele>67.0</ele><time>2026-04-05T16:17:27.999Z</time></trkpt><trkpt lat="45.773268624722014" lon="13.63040250163707"><ele>67.0</ele><time>2026-04-05T16:17:28.999Z</time></trkpt><trkpt lat="45.77324069525553" lon="13.630220356917707"><ele>66.5</ele><time>2026-04-05T16:17:29.999Z</time></trkpt><trkpt lat="45.77321332662368" lon="13.63003733367726"><ele>66.0</ele><time>2026-04-05T16:17:30.999Z</time></trkpt><trkpt lat="45.773187253255124" lon="13.629855928717832"><ele>65.5</ele><time>2026-04-05T16:17:31.999Z</time></trkpt><trkpt lat="45.77316100492759" lon="13.629675561791588"><ele>65.0</ele><time>2026-04-05T16:17:32.999Z</time></trkpt><trkpt lat="45.773134530734424" lon="13.629493235757066"><ele>64.5</ele><time>2026-04-05T16:17:33.999Z</time></trkpt><trkpt lat="45.77310757743512" lon="13.62931130498972"><ele>64.0</ele><time>2026-04-05T16:17:34.999Z</time></trkpt><trkpt lat="45.77307945794912" lon="13.629132400221959"><ele>63.5</ele><time>2026-04-05T16:17:35.999Z</time></trkpt><trkpt lat="45.77305213355328" lon="13.62896024190051"><ele>63.0</ele><time>2026-04-05T16:17:36.999Z</time></trkpt><trkpt lat="45.77302864506787" lon="13.62879898585974"><ele>62.2</ele><time>2026-04-05T16:17:37.999Z</time></trkpt><trkpt lat="45.773007178165386" lon="13.628641659254827"><ele>61.4</ele><time>2026-04-05T16:17:38.999Z</time></trkpt><trkpt lat="45.77298656629183" lon="13.628488867909471"><ele>60.60000000000001</ele><time>2026-04-05T16:17:39.999Z</time></trkpt><trkpt lat="45.77296424639778" lon="13.628330320312932"><ele>59.800000000000004</ele><time>2026-04-05T16:17:40.999Z</time></trkpt><trkpt lat="45.7729407453333" lon="13.62816797191772"><ele>59.0</ele><time>2026-04-05T16:17:41.999Z</time></trkpt><trkpt lat="45.772917012461086" lon="13.628004061195506"><ele>59.0</ele><time>2026-04-05T16:17:42.999Z</time></trkpt><trkpt lat="45.77289222782187" lon="13.627831428082818"><ele>59.0</ele><time>2026-04-05T16:17:43.999Z</time></trkpt><trkpt lat="45.772868302288515" lon="13.6276537029813"><ele>59.0</ele><time>2026-04-05T16:17:44.999Z</time></trkpt><trkpt lat="45.77284654715471" lon="13.627472711335926"><ele>59.0</ele><time>2026-04-05T16:17:45.999Z</time></trkpt><trkpt lat="45.77282769197592" lon="13.627287191357091"><ele>58.5</ele><time>2026-04-05T16:17:46.999Z</time></trkpt><trkpt lat="45.77281213169403" lon="13.627098062547127"><ele>58.0</ele><time>2026-04-05T16:17:47.999Z</time></trkpt><trkpt lat="45.77280605955837" lon="13.626906907280652"><ele>57.5</ele><time>2026-04-05T16:17:48.999Z</time></trkpt><trkpt lat="45.77280287170517" lon="13.626704829443431"><ele>57.0</ele><time>2026-04-05T16:17:49.999Z</time></trkpt><trkpt lat="45.77280279166392" lon="13.626488412680322"><ele>57.0</ele><time>2026-04-05T16:17:50.999Z</time></trkpt><trkpt lat="45.77281256392124" lon="13.626265357199015"><ele>57.0</ele><time>2026-04-05T16:17:51.999Z</time></trkpt><trkpt lat="45.77283244479407" lon="13.626047937947272"><ele>57.0</ele><time>2026-04-05T16:17:52.999Z</time></trkpt><trkpt lat="45.77285505976323" lon="13.625816417135004"><ele>58.33333333333333</ele><time>2026-04-05T16:17:53.999Z</time></trkpt><trkpt lat="45.77287816306124" lon="13.62559273818176"><ele>59.666666666666664</ele><time>2026-04-05T16:17:54.999Z</time></trkpt><trkpt lat="45.772903172235935" lon="13.625379549544967"><ele>61.0</ele><time>2026-04-05T16:17:55.999Z</time></trkpt><trkpt lat="45.77292632617098" lon="13.625172392341668"><ele>61.25</ele><time>2026-04-05T16:17:56.999Z</time></trkpt><trkpt lat="45.77294736073445" lon="13.62498097785502"><ele>61.5</ele><time>2026-04-05T16:17:57.999Z</time></trkpt><trkpt lat="45.772965600892284" lon="13.624811825968331"><ele>61.75</ele><time>2026-04-05T16:17:58.999Z</time></trkpt><trkpt lat="45.77298554728478" lon="13.624641587496916"><ele>62.0</ele><time>2026-04-05T16:17:59.999Z</time></trkpt><trkpt lat="45.77300564425423" lon="13.624474109652148"><ele>62.0</ele><time>2026-04-05T16:18:00.999Z</time></trkpt><trkpt lat="45.77302439435529" lon="13.624310476550516"><ele>62.0</ele><time>2026-04-05T16:18:01.999Z</time></trkpt><trkpt lat="45.7730448087953" lon="13.62414946179705"><ele>62.0</ele><time>2026-04-05T16:18:02.999Z</time></trkpt><trkpt lat="45.77306358854489" lon="13.623991342664182"><ele>62.0</ele><time>2026-04-05T16:18:03.999Z</time></trkpt><trkpt lat="45.77308051874338" lon="13.623834798620932"><ele>62.0</ele><time>2026-04-05T16:18:04.999Z</time></trkpt><trkpt lat="45.773096318934044" lon="13.62368081676489"><ele>62.0</ele><time>2026-04-05T16:18:05.999Z</time></trkpt><trkpt lat="45.77310981638558" lon="13.623525150463852"><ele>62.0</ele><time>2026-04-05T16:18:06.999Z</time></trkpt><trkpt lat="45.773117475628325" lon="13.623367204654897"><ele>62.0</ele><time>2026-04-05T16:18:07.999Z</time></trkpt><trkpt lat="45.77312638227398" lon="13.62320513251539"><ele>62.0</ele><time>2026-04-05T16:18:08.999Z</time></trkpt><trkpt lat="45.77313526191298" lon="13.62302666778271"><ele>61.75</ele><time>2026-04-05T16:18:09.999Z</time></trkpt><trkpt lat="45.77314804622114" lon="13.62281609924922"><ele>61.5</ele><time>2026-04-05T16:18:10.999Z</time></trkpt><trkpt lat="45.773162692032756" lon="13.622610170341835"><ele>61.25</ele><time>2026-04-05T16:18:11.999Z</time></trkpt><trkpt lat="45.773177130249785" lon="13.62241259820795"><ele>61.0</ele><time>2026-04-05T16:18:12.999Z</time></trkpt><trkpt lat="45.77319677809302" lon="13.622212581524671"><ele>61.0</ele><time>2026-04-05T16:18:13.999Z</time></trkpt><trkpt lat="45.77322162429535" lon="13.622003570617597"><ele>61.0</ele><time>2026-04-05T16:18:14.999Z</time></trkpt><trkpt lat="45.77324868742852" lon="13.621773905071489"><ele>61.0</ele><time>2026-04-05T16:18:15.999Z</time></trkpt><trkpt lat="45.77327378782383" lon="13.621519249517041"><ele>61.0</ele><time>2026-04-05T16:18:17Z</time></trkpt><trkpt lat="45.77329866467818" lon="13.621245753610395"><ele>61.0</ele><time>2026-04-05T16:18:18Z</time></trkpt><trkpt lat="45.77331893435229" lon="13.620976933986816"><ele>61.0</ele><time>2026-04-05T16:18:19Z</time></trkpt><trkpt lat="45.77333596558326" lon="13.620715473959214"><ele>61.0</ele><time>2026-04-05T16:18:20Z</time></trkpt><trkpt lat="45.773352513510495" lon="13.620459353810318"><ele>61.0</ele><time>2026-04-05T16:18:21Z</time></trkpt><trkpt lat="45.77337084333618" lon="13.620212859681057"><ele>61.0</ele><time>2026-04-05T16:18:22Z</time></trkpt><trkpt lat="45.773390205125835" lon="13.6199757523279"><ele>61.33333333333333</ele><time>2026-04-05T16:18:23Z</time></trkpt><trkpt lat="45.773406042435916" lon="13.619740763628363"><ele>61.66666666666667</ele><time>2026-04-05T16:18:24Z</time></trkpt><trkpt lat="45.773422774437925" lon="13.619506727525241"><ele>62.0</ele><time>2026-04-05T16:18:25Z</time></trkpt><trkpt lat="45.77344022602967" lon="13.619276830006552"><ele>60.66666666666667</ele><time>2026-04-05T16:18:26Z</time></trkpt><trkpt lat="45.773455360442036" lon="13.619050531242735"><ele>59.33333333333333</ele><time>2026-04-05T16:18:27Z</time></trkpt><trkpt lat="45.773471962984345" lon="13.618818648532754"><ele>58.0</ele><time>2026-04-05T16:18:28Z</time></trkpt><trkpt lat="45.77348998012411" lon="13.618582887247175"><ele>58.0</ele><time>2026-04-05T16:18:29Z</time></trkpt><trkpt lat="45.773507726047804" lon="13.618356137810386"><ele>58.0</ele><time>2026-04-05T16:18:30Z</time></trkpt><trkpt lat="45.77352549451861" lon="13.618132283348585"><ele>58.0</ele><time>2026-04-05T16:18:31Z</time></trkpt><trkpt lat="45.77354299018377" lon="13.617915145009835"><ele>57.75</ele><time>2026-04-05T16:18:32Z</time></trkpt><trkpt lat="45.77355931447501" lon="13.617706096344316"><ele>57.5</ele><time>2026-04-05T16:18:33Z</time></trkpt><trkpt lat="45.773576001082354" lon="13.617503032773431"><ele>57.25</ele><time>2026-04-05T16:18:34Z</time></trkpt><trkpt lat="45.773599606076246" lon="13.61729870009586"><ele>57.0</ele><time>2026-04-05T16:18:35Z</time></trkpt><trkpt lat="45.773636084054154" lon="13.617107476574175"><ele>57.75</ele><time>2026-04-05T16:18:36Z</time></trkpt><trkpt lat="45.77368557287794" lon="13.61692256741643"><ele>58.5</ele><time>2026-04-05T16:18:37Z</time></trkpt><trkpt lat="45.77374693110863" lon="13.616739782889857"><ele>59.25</ele><time>2026-04-05T16:18:38Z</time></trkpt><trkpt lat="45.77381909153659" lon="13.616545322200835"><ele>60.0</ele><time>2026-04-05T16:18:39Z</time></trkpt><trkpt lat="45.77389845985109" lon="13.616344998360688"><ele>60.66666666666667</ele><time>2026-04-05T16:18:40Z</time></trkpt><trkpt lat="45.773981227529184" lon="13.616137233203462"><ele>61.333333333333336</ele><time>2026-04-05T16:18:41Z</time></trkpt><trkpt lat="45.774059829760716" lon="13.615938018587642"><ele>62.0</ele><time>2026-04-05T16:18:42Z</time></trkpt><trkpt lat="45.77413230576089" lon="13.615758322344963"><ele>62.0</ele><time>2026-04-05T16:18:43Z</time></trkpt><trkpt lat="45.77420019633805" lon="13.615588644208446"><ele>62.0</ele><time>2026-04-05T16:18:44Z</time></trkpt><trkpt lat="45.774265206459944" lon="13.615419742371135"><ele>62.0</ele><time>2026-04-05T16:18:45Z</time></trkpt><trkpt lat="45.77432733315084" lon="13.615248526183438"><ele>62.0</ele><time>2026-04-05T16:18:46Z</time></trkpt><trkpt lat="45.77438823971541" lon="13.615074680848231"><ele>61.5</ele><time>2026-04-05T16:18:47Z</time></trkpt><trkpt lat="45.774445966904636" lon="13.614897565414571"><ele>61.0</ele><time>2026-04-05T16:18:48Z</time></trkpt><trkpt lat="45.77450040065939" lon="13.614718695461917"><ele>60.5</ele><time>2026-04-05T16:18:49Z</time></trkpt><trkpt lat="45.77455406501359" lon="13.614539772153014"><ele>60.0</ele><time>2026-04-05T16:18:50Z</time></trkpt><trkpt lat="45.77460198426455" lon="13.61436501811002"><ele>60.0</ele><time>2026-04-05T16:18:51Z</time></trkpt><trkpt lat="45.7746405767601" lon="13.614187540799026"><ele>60.0</ele><time>2026-04-05T16:18:52Z</time></trkpt><trkpt lat="45.77466741577377" lon="13.61400078631333"><ele>60.0</ele><time>2026-04-05T16:18:53Z</time></trkpt><trkpt lat="45.774685592936194" lon="13.61381048521012"><ele>60.0</ele><time>2026-04-05T16:18:54Z</time></trkpt><trkpt lat="45.77469976456926" lon="13.613624966949637"><ele>59.5</ele><time>2026-04-05T16:18:54.999Z</time></trkpt><trkpt lat="45.77471297590985" lon="13.613446388142068"><ele>59.0</ele><time>2026-04-05T16:18:55.999Z</time></trkpt><trkpt lat="45.77472689101874" lon="13.613276660663434"><ele>58.5</ele><time>2026-04-05T16:18:56.999Z</time></trkpt><trkpt lat="45.7747407400766" lon="13.613113136866692"><ele>58.0</ele><time>2026-04-05T16:18:57.999Z</time></trkpt><trkpt lat="45.77475006216083" lon="13.612966754375138"><ele>57.99999999999999</ele><time>2026-04-05T16:18:58.999Z</time></trkpt><trkpt lat="45.77475942327338" lon="13.612839025701433"><ele>58.0</ele><time>2026-04-05T16:18:59.999Z</time></trkpt><trkpt lat="45.774767972070904" lon="13.61271660379962"><ele>58.0</ele><time>2026-04-05T16:19:00.999Z</time></trkpt><trkpt lat="45.774776404030916" lon="13.612592559769467"><ele>58.0</ele><time>2026-04-05T16:19:01.999Z</time></trkpt><trkpt lat="45.77478366841824" lon="13.612474202184051"><ele>57.99999999999999</ele><time>2026-04-05T16:19:02.999Z</time></trkpt><trkpt lat="45.774792838046494" lon="13.61236577963849"><ele>58.0</ele><time>2026-04-05T16:19:03.999Z</time></trkpt><trkpt lat="45.77480394813212" lon="13.612253099716405"><ele>57.83333333333333</ele><time>2026-04-05T16:19:04.999Z</time></trkpt><trkpt lat="45.77481282048814" lon="13.612137696364144"><ele>57.666666666666664</ele><time>2026-04-05T16:19:05.999Z</time></trkpt><trkpt lat="45.77481938792998" lon="13.612019005547678"><ele>57.5</ele><time>2026-04-05T16:19:06.999Z</time></trkpt><trkpt lat="45.77482705146696" lon="13.611895801917028"><ele>57.33333333333333</ele><time>2026-04-05T16:19:07.999Z</time></trkpt><trkpt lat="45.77483512264921" lon="13.611762537701326"><ele>57.166666666666664</ele><time>2026-04-05T16:19:08.999Z</time></trkpt><trkpt lat="45.77483987750149" lon="13.611623502962265"><ele>57.0</ele><time>2026-04-05T16:19:09.999Z</time></trkpt><trkpt lat="45.77483918775864" lon="13.611498739085834"><ele>57.0</ele><time>2026-04-05T16:19:10.999Z</time></trkpt><trkpt lat="45.774824507648944" lon="13.611370660938334"><ele>57.0</ele><time>2026-04-05T16:19:11.999Z</time></trkpt><trkpt lat="45.774806152506834" lon="13.61124023875369"><ele>57.0</ele><time>2026-04-05T16:19:12.999Z</time></trkpt><trkpt lat="45.77478516482725" lon="13.611109045047048"><ele>57.0</ele><time>2026-04-05T16:19:13.999Z</time></trkpt><trkpt lat="45.774764547207596" lon="13.610990372561856"><ele>57.0</ele><time>2026-04-05T16:19:14.999Z</time></trkpt><trkpt lat="45.77474614806542" lon="13.61088232181684"><ele>57.0</ele><time>2026-04-05T16:19:15.999Z</time></trkpt><trkpt lat="45.774730917984236" lon="13.610783652491548"><ele>57.0</ele><time>2026-04-05T16:19:16.999Z</time></trkpt><trkpt lat="45.774705883643286" lon="13.61063005241906"><ele>57.0</ele><time>2026-04-05T16:19:18.999Z</time></trkpt><trkpt lat="45.774680681459586" lon="13.610514500582545"><ele>57.0</ele><time>2026-04-05T16:19:21.999Z</time></trkpt><trkpt lat="45.774666896730714" lon="13.61040692149033"><ele>57.0</ele><time>2026-04-05T16:19:26.999Z</time></trkpt><trkpt lat="45.774645038674684" lon="13.61025914058759"><ele>57.0</ele><time>2026-04-05T16:19:28.999Z</time></trkpt><trkpt lat="45.77462987754358" lon="13.610160389530648"><ele>57.0</ele><time>2026-04-05T16:19:29.999Z</time></trkpt><trkpt lat="45.77460994207604" lon="13.610043511013384"><ele>56.0</ele><time>2026-04-05T16:19:30.999Z</time></trkpt><trkpt lat="45.7745890626317" lon="13.60991735184194"><ele>55.0</ele><time>2026-04-05T16:19:31.999Z</time></trkpt><trkpt lat="45.77457044258105" lon="13.609789984407792"><ele>54.0</ele><time>2026-04-05T16:19:32.999Z</time></trkpt><trkpt lat="45.774557341920094" lon="13.609662961061018"><ele>53.0</ele><time>2026-04-05T16:19:33.999Z</time></trkpt><trkpt lat="45.774554534906684" lon="13.609528464271603"><ele>52.0</ele><time>2026-04-05T16:19:34.999Z</time></trkpt><trkpt lat="45.77455159823859" lon="13.609384596953825"><ele>51.6</ele><time>2026-04-05T16:19:35.999Z</time></trkpt><trkpt lat="45.77455170545991" lon="13.609233495853967"><ele>51.2</ele><time>2026-04-05T16:19:36.999Z</time></trkpt><trkpt lat="45.774559476325535" lon="13.60907594467325"><ele>50.8</ele><time>2026-04-05T16:19:37.999Z</time></trkpt><trkpt lat="45.77457507824677" lon="13.608913990579552"><ele>50.4</ele><time>2026-04-05T16:19:38.999Z</time></trkpt><trkpt lat="45.774596385048575" lon="13.608749585358147"><ele>50.0</ele><time>2026-04-05T16:19:39.999Z</time></trkpt><trkpt lat="45.774626050484954" lon="13.608585656138843"><ele>49.6</ele><time>2026-04-05T16:19:40.999Z</time></trkpt><trkpt lat="45.77466222222751" lon="13.608425754619722"><ele>49.2</ele><time>2026-04-05T16:19:41.999Z</time></trkpt><trkpt lat="45.77470288339593" lon="13.608276993376444"><ele>48.8</ele><time>2026-04-05T16:19:42.999Z</time></trkpt><trkpt lat="45.77474557993739" lon="13.608139266848541"><ele>48.4</ele><time>2026-04-05T16:19:43.999Z</time></trkpt><trkpt lat="45.774789578792536" lon="13.60800660640638"><ele>48.0</ele><time>2026-04-05T16:19:44.999Z</time></trkpt><trkpt lat="45.77483223686187" lon="13.607870502710753"><ele>48.0</ele><time>2026-04-05T16:19:45.999Z</time></trkpt><trkpt lat="45.77487741866878" lon="13.607730450531083"><ele>48.0</ele><time>2026-04-05T16:19:46.999Z</time></trkpt><trkpt lat="45.77492450761816" lon="13.607583741621674"><ele>48.0</ele><time>2026-04-05T16:19:47.999Z</time></trkpt><trkpt lat="45.7749720137521" lon="13.607435604405703"><ele>48.0</ele><time>2026-04-05T16:19:48.999Z</time></trkpt><trkpt lat="45.77501980851865" lon="13.607284060959019"><ele>48.0</ele><time>2026-04-05T16:19:49.999Z</time></trkpt><trkpt lat="45.775067654880175" lon="13.607129832951884"><ele>48.0</ele><time>2026-04-05T16:19:50.999Z</time></trkpt><trkpt lat="45.77511798672345" lon="13.606973130510568"><ele>48.0</ele><time>2026-04-05T16:19:51.999Z</time></trkpt><trkpt lat="45.775172080076715" lon="13.606805015679399"><ele>48.0</ele><time>2026-04-05T16:19:52.999Z</time></trkpt><trkpt lat="45.77522863773996" lon="13.606629892639942"><ele>48.0</ele><time>2026-04-05T16:19:53.999Z</time></trkpt><trkpt lat="45.77528667383988" lon="13.606453571305584"><ele>48.0</ele><time>2026-04-05T16:19:54.999Z</time></trkpt><trkpt lat="45.775342627834654" lon="13.606279131022035"><ele>48.0</ele><time>2026-04-05T16:19:55.999Z</time></trkpt><trkpt lat="45.775396379326274" lon="13.606104832361847"><ele>48.0</ele><time>2026-04-05T16:19:56.999Z</time></trkpt><trkpt lat="45.77544959143482" lon="13.605935441242156"><ele>47.0</ele><time>2026-04-05T16:19:57.999Z</time></trkpt><trkpt lat="45.77550467285969" lon="13.605768707108595"><ele>46.0</ele><time>2026-04-05T16:19:58.999Z</time></trkpt><trkpt lat="45.775559778263585" lon="13.60560024267736"><ele>45.0</ele><time>2026-04-05T16:19:59.999Z</time></trkpt><trkpt lat="45.775614273750634" lon="13.60542660317479"><ele>44.0</ele><time>2026-04-05T16:20:00.999Z</time></trkpt><trkpt lat="45.77566996950008" lon="13.605250671175344"><ele>43.25</ele><time>2026-04-05T16:20:01.999Z</time></trkpt><trkpt lat="45.775724055108114" lon="13.605082241515552"><ele>42.5</ele><time>2026-04-05T16:20:02.999Z</time></trkpt><trkpt lat="45.77577390327754" lon="13.604924788495554"><ele>41.75</ele><time>2026-04-05T16:20:03.999Z</time></trkpt><trkpt lat="45.775823497590274" lon="13.604772470001784"><ele>41.0</ele><time>2026-04-05T16:20:04.999Z</time></trkpt><trkpt lat="45.77587275784118" lon="13.60462131163874"><ele>40.8</ele><time>2026-04-05T16:20:05.999Z</time></trkpt><trkpt lat="45.77592254976517" lon="13.604471669344482"><ele>40.599999999999994</ele><time>2026-04-05T16:20:06.999Z</time></trkpt><trkpt lat="45.77596555110446" lon="13.604336534494198"><ele>40.4</ele><time>2026-04-05T16:20:07.999Z</time></trkpt><trkpt lat="45.776009817846" lon="13.60419506415046"><ele>40.2</ele><time>2026-04-05T16:20:08.999Z</time></trkpt><trkpt lat="45.77605724362683" lon="13.60405026351879"><ele>40.0</ele><time>2026-04-05T16:20:09.999Z</time></trkpt><trkpt lat="45.77610290120296" lon="13.603907620013848"><ele>40.0</ele><time>2026-04-05T16:20:10.999Z</time></trkpt><trkpt lat="45.776150233314816" lon="13.603760076707"><ele>40.0</ele><time>2026-04-05T16:20:11.999Z</time></trkpt><trkpt lat="45.77619772010542" lon="13.603611324180745"><ele>40.0</ele><time>2026-04-05T16:20:12.999Z</time></trkpt><trkpt lat="45.776249034782865" lon="13.603450620825665"><ele>40.0</ele><time>2026-04-05T16:20:13.999Z</time></trkpt><trkpt lat="45.77630162116092" lon="13.603276157695575"><ele>39.5</ele><time>2026-04-05T16:20:14.999Z</time></trkpt><trkpt lat="45.77635901934668" lon="13.603101800554615"><ele>39.0</ele><time>2026-04-05T16:20:15.999Z</time></trkpt><trkpt lat="45.776417599191284" lon="13.602928637337774"><ele>38.5</ele><time>2026-04-05T16:20:16.999Z</time></trkpt><trkpt lat="45.776476804045615" lon="13.602752141640185"><ele>38.0</ele><time>2026-04-05T16:20:17.999Z</time></trkpt><trkpt lat="45.7765378679082" lon="13.602571998166344"><ele>37.0</ele><time>2026-04-05T16:20:18.999Z</time></trkpt><trkpt lat="45.77659525587756" lon="13.602388696617082"><ele>36.0</ele><time>2026-04-05T16:20:19.999Z</time></trkpt><trkpt lat="45.77665271241212" lon="13.60220193701059"><ele>35.0</ele><time>2026-04-05T16:20:20.999Z</time></trkpt><trkpt lat="45.77670509715719" lon="13.602031846666488"><ele>34.0</ele><time>2026-04-05T16:20:21.999Z</time></trkpt><trkpt lat="45.77675536023335" lon="13.601886554362402"><ele>34.25</ele><time>2026-04-05T16:20:23Z</time></trkpt><trkpt lat="45.77680453474512" lon="13.601747815061694"><ele>34.5</ele><time>2026-04-05T16:20:24Z</time></trkpt><trkpt lat="45.7768546883243" lon="13.601592578850843"><ele>34.75</ele><time>2026-04-05T16:20:25Z</time></trkpt><trkpt lat="45.77690837916869" lon="13.601434878048192"><ele>35.0</ele><time>2026-04-05T16:20:26Z</time></trkpt><trkpt lat="45.776969492820655" lon="13.60128488696576"><ele>36.0</ele><time>2026-04-05T16:20:27Z</time></trkpt><trkpt lat="45.77703419406458" lon="13.601137506790433"><ele>37.0</ele><time>2026-04-05T16:20:28Z</time></trkpt><trkpt lat="45.777107799993225" lon="13.600997233103014"><ele>38.0</ele><time>2026-04-05T16:20:29Z</time></trkpt><trkpt lat="45.77718493228927" lon="13.600860844883067"><ele>39.0</ele><time>2026-04-05T16:20:30Z</time></trkpt><trkpt lat="45.777262525480204" lon="13.600733420570302"><ele>39.0</ele><time>2026-04-05T16:20:31Z</time></trkpt><trkpt lat="45.77734388384026" lon="13.600622509006861"><ele>39.0</ele><time>2026-04-05T16:20:32Z</time></trkpt><trkpt lat="45.777426714710096" lon="13.600517398296137"><ele>39.0</ele><time>2026-04-05T16:20:33Z</time></trkpt><trkpt lat="45.77751283257049" lon="13.600413853198704"><ele>39.0</ele><time>2026-04-05T16:20:34Z</time></trkpt><trkpt lat="45.77760379277562" lon="13.60031100533201"><ele>39.0</ele><time>2026-04-05T16:20:35Z</time></trkpt><trkpt lat="45.77770313113647" lon="13.600196683342778"><ele>39.0</ele><time>2026-04-05T16:20:36Z</time></trkpt><trkpt lat="45.77780648031938" lon="13.60007079874788"><ele>39.0</ele><time>2026-04-05T16:20:37Z</time></trkpt><trkpt lat="45.77791851099185" lon="13.599939894408868"><ele>39.0</ele><time>2026-04-05T16:20:38Z</time></trkpt><trkpt lat="45.77803536757528" lon="13.599790772264463"><ele>39.0</ele><time>2026-04-05T16:20:39Z</time></trkpt><trkpt lat="45.77816671916304" lon="13.599630818370779"><ele>39.0</ele><time>2026-04-05T16:20:40Z</time></trkpt><trkpt lat="45.77831050454048" lon="13.599463427933276"><ele>39.0</ele><time>2026-04-05T16:20:41Z</time></trkpt><trkpt lat="45.77845957622877" lon="13.59931971481008"><ele>37.333333333333336</ele><time>2026-04-05T16:20:42Z</time></trkpt><trkpt lat="45.7785824742017" lon="13.599152812366832"><ele>35.66666666666667</ele><time>2026-04-05T16:20:43Z</time></trkpt><trkpt lat="45.77870112760053" lon="13.59901845928818"><ele>34.0</ele><time>2026-04-05T16:20:44Z</time></trkpt><trkpt lat="45.77881452807663" lon="13.598890947738797"><ele>34.0</ele><time>2026-04-05T16:20:45Z</time></trkpt><trkpt lat="45.77893065360236" lon="13.598762751350836"><ele>34.0</ele><time>2026-04-05T16:20:46Z</time></trkpt><trkpt lat="45.779049046486506" lon="13.598629866012535"><ele>34.0</ele><time>2026-04-05T16:20:47Z</time></trkpt><trkpt lat="45.779166565476075" lon="13.59849200313997"><ele>34.0</ele><time>2026-04-05T16:20:48Z</time></trkpt><trkpt lat="45.779286085249964" lon="13.598353724523028"><ele>33.75</ele><time>2026-04-05T16:20:49Z</time></trkpt><trkpt lat="45.77940221880029" lon="13.598220497065393"><ele>33.5</ele><time>2026-04-05T16:20:50Z</time></trkpt><trkpt lat="45.77951574789328" lon="13.598087884817291"><ele>33.25</ele><time>2026-04-05T16:20:51Z</time></trkpt><trkpt lat="45.77963253451089" lon="13.597955964273593"><ele>33.0</ele><time>2026-04-05T16:20:52Z</time></trkpt><trkpt lat="45.7797500706723" lon="13.597818485726318"><ele>32.75</ele><time>2026-04-05T16:20:53Z</time></trkpt><trkpt lat="45.779866892041845" lon="13.597680270069095"><ele>32.5</ele><time>2026-04-05T16:20:54Z</time></trkpt><trkpt lat="45.77998213278033" lon="13.59755236022593"><ele>32.25</ele><time>2026-04-05T16:20:55Z</time></trkpt><trkpt lat="45.780100486937776" lon="13.59742283808209"><ele>32.0</ele><time>2026-04-05T16:20:56Z</time></trkpt><trkpt lat="45.7802265828717" lon="13.597301775691482"><ele>32.0</ele><time>2026-04-05T16:20:57Z</time></trkpt><trkpt lat="45.78036307381057" lon="13.597201022599648"><ele>32.0</ele><time>2026-04-05T16:20:58Z</time></trkpt><trkpt lat="45.780502511553706" lon="13.59711400708479"><ele>32.0</ele><time>2026-04-05T16:20:58.999Z</time></trkpt><trkpt lat="45.780649880737684" lon="13.597057628606715"><ele>32.0</ele><time>2026-04-05T16:20:59.999Z</time></trkpt><trkpt lat="45.780803796914945" lon="13.59702817307675"><ele>32.0</ele><time>2026-04-05T16:21:00.999Z</time></trkpt><trkpt lat="45.780961926697564" lon="13.597009994315025"><ele>32.0</ele><time>2026-04-05T16:21:01.999Z</time></trkpt><trkpt lat="45.78112512429195" lon="13.59700459338862"><ele>28.666666666666664</ele><time>2026-04-05T16:21:02.999Z</time></trkpt><trkpt lat="45.78128250802652" lon="13.596995559522265"><ele>25.333333333333332</ele><time>2026-04-05T16:21:03.999Z</time></trkpt><trkpt lat="45.781434447987024" lon="13.596986238511725"><ele>22.0</ele><time>2026-04-05T16:21:04.999Z</time></trkpt><trkpt lat="45.781578293617436" lon="13.596981180696831"><ele>22.0</ele><time>2026-04-05T16:21:05.999Z</time></trkpt><trkpt lat="45.78171565878384" lon="13.596977511520386"><ele>22.0</ele><time>2026-04-05T16:21:06.999Z</time></trkpt><trkpt lat="45.78184657724858" lon="13.596970685611218"><ele>22.0</ele><time>2026-04-05T16:21:07.999Z</time></trkpt><trkpt lat="45.78197577714914" lon="13.596965499413386"><ele>22.0</ele><time>2026-04-05T16:21:08.999Z</time></trkpt><trkpt lat="45.782103102484946" lon="13.596960284907855"><ele>21.75</ele><time>2026-04-05T16:21:09.999Z</time></trkpt><trkpt lat="45.782228421155395" lon="13.59695324412854"><ele>21.5</ele><time>2026-04-05T16:21:10.999Z</time></trkpt><trkpt lat="45.782351544673766" lon="13.596945910968886"><ele>21.25</ele><time>2026-04-05T16:21:11.999Z</time></trkpt><trkpt lat="45.782474372311384" lon="13.596939250014458"><ele>21.0</ele><time>2026-04-05T16:21:12.999Z</time></trkpt><trkpt lat="45.78259395596254" lon="13.596931943111096"><ele>21.5</ele><time>2026-04-05T16:21:13.999Z</time></trkpt><trkpt lat="45.782709063178544" lon="13.596949302690984"><ele>22.0</ele><time>2026-04-05T16:21:14.999Z</time></trkpt><trkpt lat="45.782828302679775" lon="13.596944847005515"><ele>22.5</ele><time>2026-04-05T16:21:15.999Z</time></trkpt><trkpt lat="45.782951166950994" lon="13.596938062927405"><ele>23.0</ele><time>2026-04-05T16:21:16.999Z</time></trkpt><trkpt lat="45.783077509143254" lon="13.596929283907478"><ele>23.0</ele><time>2026-04-05T16:21:17.999Z</time></trkpt><trkpt lat="45.78320094110411" lon="13.596890703850201"><ele>23.0</ele><time>2026-04-05T16:21:18.999Z</time></trkpt><trkpt lat="45.78332174380031" lon="13.596863906272663"><ele>23.0</ele><time>2026-04-05T16:21:19.999Z</time></trkpt><trkpt lat="45.7834458323434" lon="13.596823265112768"><ele>23.0</ele><time>2026-04-05T16:21:20.999Z</time></trkpt><trkpt lat="45.78356943747401" lon="13.596765476340162"><ele>23.0</ele><time>2026-04-05T16:21:21.999Z</time></trkpt><trkpt lat="45.783693743680104" lon="13.59669175765749"><ele>23.0</ele><time>2026-04-05T16:21:22.999Z</time></trkpt><trkpt lat="45.78381562586369" lon="13.596601830580932"><ele>23.0</ele><time>2026-04-05T16:21:23.999Z</time></trkpt><trkpt lat="45.78393101971268" lon="13.596502733295743"><ele>23.0</ele><time>2026-04-05T16:21:24.999Z</time></trkpt><trkpt lat="45.78403838824902" lon="13.596392623178417"><ele>23.0</ele><time>2026-04-05T16:21:25.999Z</time></trkpt><trkpt lat="45.78413677391419" lon="13.596269469704302"><ele>23.0</ele><time>2026-04-05T16:21:26.999Z</time></trkpt><trkpt lat="45.78423087737093" lon="13.59613337241864"><ele>23.0</ele><time>2026-04-05T16:21:27.999Z</time></trkpt><trkpt lat="45.784318415958175" lon="13.595978432270352"><ele>23.0</ele><time>2026-04-05T16:21:28.999Z</time></trkpt><trkpt lat="45.784394258480795" lon="13.595808875734132"><ele>23.25</ele><time>2026-04-05T16:21:29.999Z</time></trkpt><trkpt lat="45.784462839919215" lon="13.595631198759863"><ele>23.5</ele><time>2026-04-05T16:21:30.999Z</time></trkpt><trkpt lat="45.784533326846486" lon="13.595460112550752"><ele>23.75</ele><time>2026-04-05T16:21:31.999Z</time></trkpt><trkpt lat="45.78460355742555" lon="13.59528797206361"><ele>24.0</ele><time>2026-04-05T16:21:32.999Z</time></trkpt><trkpt lat="45.78467567695789" lon="13.595113615693084"><ele>23.25</ele><time>2026-04-05T16:21:33.999Z</time></trkpt><trkpt lat="45.784745516051586" lon="13.594935678325783"><ele>22.5</ele><time>2026-04-05T16:21:34.999Z</time></trkpt><trkpt lat="45.78481276980278" lon="13.594758012293019"><ele>21.75</ele><time>2026-04-05T16:21:35.999Z</time></trkpt><trkpt lat="45.78488293902685" lon="13.59458333451173"><ele>21.0</ele><time>2026-04-05T16:21:36.999Z</time></trkpt><trkpt lat="45.78495794069584" lon="13.59442023389123"><ele>20.5</ele><time>2026-04-05T16:21:37.999Z</time></trkpt><trkpt lat="45.78504086734519" lon="13.594272092999013"><ele>20.0</ele><time>2026-04-05T16:21:38.999Z</time></trkpt><trkpt lat="45.78513462819624" lon="13.594153528926999"><ele>19.5</ele><time>2026-04-05T16:21:39.999Z</time></trkpt><trkpt lat="45.78523995298381" lon="13.59404939535526"><ele>19.0</ele><time>2026-04-05T16:21:40.999Z</time></trkpt><trkpt lat="45.78535396567399" lon="13.593960671207137"><ele>19.0</ele><time>2026-04-05T16:21:41.999Z</time></trkpt><trkpt lat="45.78548640699475" lon="13.593929052078357"><ele>19.0</ele><time>2026-04-05T16:21:42.999Z</time></trkpt><trkpt lat="45.785619526293196" lon="13.59387379123016"><ele>19.0</ele><time>2026-04-05T16:21:43.999Z</time></trkpt><trkpt lat="45.785763509403054" lon="13.59385766222993"><ele>19.0</ele><time>2026-04-05T16:21:44.999Z</time></trkpt><trkpt lat="45.78590355681931" lon="13.593847641503835"><ele>19.25</ele><time>2026-04-05T16:21:45.999Z</time></trkpt><trkpt lat="45.78602796079177" lon="13.593830714480987"><ele>19.5</ele><time>2026-04-05T16:21:46.999Z</time></trkpt><trkpt lat="45.78615298805016" lon="13.59379680542714"><ele>19.75</ele><time>2026-04-05T16:21:47.999Z</time></trkpt><trkpt lat="45.78628210401569" lon="13.593740083127614"><ele>20.0</ele><time>2026-04-05T16:21:48.999Z</time></trkpt><trkpt lat="45.7864058703407" lon="13.593670323151468"><ele>19.0</ele><time>2026-04-05T16:21:49.999Z</time></trkpt><trkpt lat="45.786525942915844" lon="13.593589369792708"><ele>18.0</ele><time>2026-04-05T16:21:50.999Z</time></trkpt><trkpt lat="45.786639501036944" lon="13.593490903219502"><ele>17.0</ele><time>2026-04-05T16:21:51.999Z</time></trkpt><trkpt lat="45.78674455836313" lon="13.593381884634853"><ele>16.0</ele><time>2026-04-05T16:21:52.999Z</time></trkpt><trkpt lat="45.78684508450228" lon="13.593263688772238"><ele>16.0</ele><time>2026-04-05T16:21:53.999Z</time></trkpt><trkpt lat="45.78694176409706" lon="13.593137297662015"><ele>16.0</ele><time>2026-04-05T16:21:54.999Z</time></trkpt><trkpt lat="45.78703825913129" lon="13.593014530825327"><ele>16.0</ele><time>2026-04-05T16:21:55.999Z</time></trkpt><trkpt lat="45.787131472521324" lon="13.592899141793174"><ele>16.0</ele><time>2026-04-05T16:21:56.999Z</time></trkpt><trkpt lat="45.787221538526786" lon="13.592785082786211"><ele>14.25</ele><time>2026-04-05T16:21:57.999Z</time></trkpt><trkpt lat="45.78731284089789" lon="13.592672810836882"><ele>12.5</ele><time>2026-04-05T16:21:58.999Z</time></trkpt><trkpt lat="45.7874064424627" lon="13.592556188970159"><ele>10.75</ele><time>2026-04-05T16:21:59.999Z</time></trkpt><trkpt lat="45.78750120540523" lon="13.592437000714893"><ele>9.0</ele><time>2026-04-05T16:22:00.999Z</time></trkpt><trkpt lat="45.787591260119726" lon="13.59232452531147"><ele>9.0</ele><time>2026-04-05T16:22:01.999Z</time></trkpt><trkpt lat="45.787674582720506" lon="13.592220166329708"><ele>9.0</ele><time>2026-04-05T16:22:02.999Z</time></trkpt><trkpt lat="45.7877528242601" lon="13.59212566584246"><ele>9.0</ele><time>2026-04-05T16:22:03.999Z</time></trkpt><trkpt lat="45.78783739298892" lon="13.59202894259646"><ele>9.0</ele><time>2026-04-05T16:22:04.999Z</time></trkpt><trkpt lat="45.78791844584569" lon="13.5919342998769"><ele>9.0</ele><time>2026-04-05T16:22:05.999Z</time></trkpt><trkpt lat="45.78799604102009" lon="13.591821152968267"><ele>8.25</ele><time>2026-04-05T16:22:06.999Z</time></trkpt><trkpt lat="45.78809723165611" lon="13.591690489040541"><ele>7.5</ele><time>2026-04-05T16:22:07.999Z</time></trkpt><trkpt lat="45.78820131756013" lon="13.591564959051338"><ele>6.75</ele><time>2026-04-05T16:22:08.999Z</time></trkpt><trkpt lat="45.78829886221102" lon="13.591438670700883"><ele>6.0</ele><time>2026-04-05T16:22:09.999Z</time></trkpt><trkpt lat="45.788401006035734" lon="13.591312177546417"><ele>6.0</ele><time>2026-04-05T16:22:10.999Z</time></trkpt><trkpt lat="45.788503821986055" lon="13.591180827289472"><ele>6.0</ele><time>2026-04-05T16:22:11.999Z</time></trkpt><trkpt lat="45.78860157454566" lon="13.59105159214925"><ele>6.0</ele><time>2026-04-05T16:22:12.999Z</time></trkpt><trkpt lat="45.788700216559214" lon="13.590911203051759"><ele>6.0</ele><time>2026-04-05T16:22:13.999Z</time></trkpt><trkpt lat="45.78880412903382" lon="13.590763491403143"><ele>6.666666666666666</ele><time>2026-04-05T16:22:14.999Z</time></trkpt><trkpt lat="45.788909790558264" lon="13.590608008681164"><ele>7.333333333333333</ele><time>2026-04-05T16:22:15.999Z</time></trkpt><trkpt lat="45.78901919548367" lon="13.590447080856844"><ele>8.0</ele><time>2026-04-05T16:22:16.999Z</time></trkpt><trkpt lat="45.78913320853999" lon="13.590277212913971"><ele>8.0</ele><time>2026-04-05T16:22:17.999Z</time></trkpt><trkpt lat="45.7892513618155" lon="13.59010377670392"><ele>8.0</ele><time>2026-04-05T16:22:18.999Z</time></trkpt><trkpt lat="45.78936998566204" lon="13.589921621009745"><ele>8.0</ele><time>2026-04-05T16:22:19.999Z</time></trkpt><trkpt lat="45.78948890629411" lon="13.589740120620442"><ele>8.666666666666666</ele><time>2026-04-05T16:22:20.999Z</time></trkpt><trkpt lat="45.78960472872133" lon="13.589562597351792"><ele>9.333333333333334</ele><time>2026-04-05T16:22:21.999Z</time></trkpt><trkpt lat="45.78971812176168" lon="13.589393118586043"><ele>10.0</ele><time>2026-04-05T16:22:22.999Z</time></trkpt><trkpt lat="45.78983030445864" lon="13.589224552887629"><ele>10.0</ele><time>2026-04-05T16:22:23.999Z</time></trkpt><trkpt lat="45.78994268363975" lon="13.589051878914967"><ele>10.0</ele><time>2026-04-05T16:22:24.999Z</time></trkpt><trkpt lat="45.79006086368329" lon="13.58887590183288"><ele>10.0</ele><time>2026-04-05T16:22:25.999Z</time></trkpt><trkpt lat="45.79018174244015" lon="13.588694939882133"><ele>8.0</ele><time>2026-04-05T16:22:26.999Z</time></trkpt><trkpt lat="45.79030297036513" lon="13.588510719491014"><ele>6.0</ele><time>2026-04-05T16:22:27.999Z</time></trkpt><trkpt lat="45.7904260642052" lon="13.588323034052445"><ele>4.0</ele><time>2026-04-05T16:22:29Z</time></trkpt><trkpt lat="45.790554237612874" lon="13.588128497460007"><ele>4.0</ele><time>2026-04-05T16:22:30Z</time></trkpt><trkpt lat="45.79068357296999" lon="13.587930833453735"><ele>4.0</ele><time>2026-04-05T16:22:31Z</time></trkpt><trkpt lat="45.790815401936904" lon="13.587734282684712"><ele>4.0</ele><time>2026-04-05T16:22:32Z</time></trkpt><trkpt lat="45.79094697984486" lon="13.587541087134541"><ele>4.666666666666666</ele><time>2026-04-05T16:22:33Z</time></trkpt><trkpt lat="45.79108012222052" lon="13.587347367469818"><ele>5.333333333333333</ele><time>2026-04-05T16:22:34Z</time></trkpt><trkpt lat="45.79121619891738" lon="13.587159402839996"><ele>6.0</ele><time>2026-04-05T16:22:35Z</time></trkpt><trkpt lat="45.79135440532095" lon="13.586976961538296"><ele>6.0</ele><time>2026-04-05T16:22:36Z</time></trkpt><trkpt lat="45.7914975704002" lon="13.586797322697116"><ele>6.0</ele><time>2026-04-05T16:22:37Z</time></trkpt><trkpt lat="45.791641344941986" lon="13.586618380912634"><ele>6.0</ele><time>2026-04-05T16:22:38Z</time></trkpt><trkpt lat="45.79178480089204" lon="13.58645219001852"><ele>6.333333333333334</ele><time>2026-04-05T16:22:39Z</time></trkpt><trkpt lat="45.79192141054811" lon="13.586298518946949"><ele>6.666666666666667</ele><time>2026-04-05T16:22:40Z</time></trkpt><trkpt lat="45.79205467973863" lon="13.586157790791766"><ele>7.0</ele><time>2026-04-05T16:22:41Z</time></trkpt><trkpt lat="45.79218933427805" lon="13.5860213510147"><ele>7.0</ele><time>2026-04-05T16:22:42Z</time></trkpt><trkpt lat="45.79232574309149" lon="13.585883153285343"><ele>7.0</ele><time>2026-04-05T16:22:43Z</time></trkpt><trkpt lat="45.79246410331509" lon="13.585741875048669"><ele>7.0</ele><time>2026-04-05T16:22:44Z</time></trkpt><trkpt lat="45.79259986399615" lon="13.585600742061938"><ele>6.666666666666667</ele><time>2026-04-05T16:22:45Z</time></trkpt><trkpt lat="45.79273556854029" lon="13.585465956196119"><ele>6.333333333333334</ele><time>2026-04-05T16:22:46Z</time></trkpt><trkpt lat="45.79286549133961" lon="13.585331698311318"><ele>6.0</ele><time>2026-04-05T16:22:47Z</time></trkpt><trkpt lat="45.792995718573415" lon="13.585199524548473"><ele>6.0</ele><time>2026-04-05T16:22:48Z</time></trkpt><trkpt lat="45.7931235997153" lon="13.58506887791585"><ele>6.0</ele><time>2026-04-05T16:22:49Z</time></trkpt><trkpt lat="45.7932491968613" lon="13.584942105759179"><ele>6.0</ele><time>2026-04-05T16:22:50Z</time></trkpt><trkpt lat="45.793374373530774" lon="13.58481272644766"><ele>6.0</ele><time>2026-04-05T16:22:51Z</time></trkpt><trkpt lat="45.79349652613385" lon="13.584687300819821"><ele>6.0</ele><time>2026-04-05T16:22:52Z</time></trkpt><trkpt lat="45.79361958450845" lon="13.584565487142173"><ele>6.0</ele><time>2026-04-05T16:22:53Z</time></trkpt><trkpt lat="45.793744497193444" lon="13.584442204436625"><ele>6.0</ele><time>2026-04-05T16:22:54Z</time></trkpt><trkpt lat="45.79387061171059" lon="13.584311110442314"><ele>6.0</ele><time>2026-04-05T16:22:55Z</time></trkpt><trkpt lat="45.793989537397856" lon="13.584186564947295"><ele>6.0</ele><time>2026-04-05T16:22:56Z</time></trkpt><trkpt lat="45.794110232998214" lon="13.584067656943668"><ele>6.0</ele><time>2026-04-05T16:22:57Z</time></trkpt><trkpt lat="45.79423043371349" lon="13.583952183189352"><ele>6.0</ele><time>2026-04-05T16:22:58Z</time></trkpt><trkpt lat="45.7943500564721" lon="13.583830563008894"><ele>6.0</ele><time>2026-04-05T16:22:59Z</time></trkpt><trkpt lat="45.79447605084623" lon="13.583704291372847"><ele>6.0</ele><time>2026-04-05T16:23:00Z</time></trkpt><trkpt lat="45.794601125317485" lon="13.583583319467156"><ele>6.0</ele><time>2026-04-05T16:23:01Z</time></trkpt><trkpt lat="45.79472115707863" lon="13.58346343090962"><ele>6.0</ele><time>2026-04-05T16:23:01.999Z</time></trkpt><trkpt lat="45.79483677910864" lon="13.583341698422265"><ele>6.0</ele><time>2026-04-05T16:23:02.999Z</time></trkpt><trkpt lat="45.794953476838074" lon="13.583226743681806"><ele>6.0</ele><time>2026-04-05T16:23:03.999Z</time></trkpt><trkpt lat="45.795071435618006" lon="13.583110633394666"><ele>4.75</ele><time>2026-04-05T16:23:04.999Z</time></trkpt><trkpt lat="45.795192149565146" lon="13.582990877594645"><ele>3.5</ele><time>2026-04-05T16:23:05.999Z</time></trkpt><trkpt lat="45.79531171019257" lon="13.582868421589552"><ele>2.25</ele><time>2026-04-05T16:23:06.999Z</time></trkpt><trkpt lat="45.795432778140515" lon="13.582745230768468"><ele>1.0</ele><time>2026-04-05T16:23:07.999Z</time></trkpt><trkpt lat="45.79555306424883" lon="13.582616213174854"><ele>1.0</ele><time>2026-04-05T16:23:08.999Z</time></trkpt><trkpt lat="45.795677915979255" lon="13.582495018129382"><ele>1.0</ele><time>2026-04-05T16:23:09.999Z</time></trkpt><trkpt lat="45.795810738693966" lon="13.582362305190768"><ele>1.0</ele><time>2026-04-05T16:23:10.999Z</time></trkpt><trkpt lat="45.79594653968654" lon="13.582227358727197"><ele>1.0</ele><time>2026-04-05T16:23:11.999Z</time></trkpt><trkpt lat="45.79608080845637" lon="13.582087577401351"><ele>1.0</ele><time>2026-04-05T16:23:12.999Z</time></trkpt><trkpt lat="45.79621521537719" lon="13.581937010162449"><ele>1.0</ele><time>2026-04-05T16:23:13.999Z</time></trkpt><trkpt lat="45.796357213584976" lon="13.58179184676854"><ele>1.3333333333333333</ele><time>2026-04-05T16:23:14.999Z</time></trkpt><trkpt lat="45.796503775970834" lon="13.5816473476473"><ele>1.6666666666666665</ele><time>2026-04-05T16:23:15.999Z</time></trkpt><trkpt lat="45.796646364080985" lon="13.581514026306621"><ele>2.0</ele><time>2026-04-05T16:23:16.999Z</time></trkpt><trkpt lat="45.79678426956707" lon="13.581373423273721"><ele>4.0</ele><time>2026-04-05T16:23:17.999Z</time></trkpt><trkpt lat="45.79691691202969" lon="13.581234608442179"><ele>6.0</ele><time>2026-04-05T16:23:18.999Z</time></trkpt><trkpt lat="45.79704554308361" lon="13.58109261651728"><ele>8.0</ele><time>2026-04-05T16:23:19.999Z</time></trkpt><trkpt lat="45.79716886523723" lon="13.580951094555228"><ele>8.0</ele><time>2026-04-05T16:23:20.999Z</time></trkpt><trkpt lat="45.797287602838026" lon="13.58079989184795"><ele>8.0</ele><time>2026-04-05T16:23:21.999Z</time></trkpt><trkpt lat="45.79740020113603" lon="13.580644378004308"><ele>8.0</ele><time>2026-04-05T16:23:22.999Z</time></trkpt><trkpt lat="45.797510445814886" lon="13.580481227148532"><ele>6.333333333333333</ele><time>2026-04-05T16:23:23.999Z</time></trkpt><trkpt lat="45.79762005479635" lon="13.580310840214342"><ele>4.666666666666666</ele><time>2026-04-05T16:23:24.999Z</time></trkpt><trkpt lat="45.797724996918355" lon="13.58013782578608"><ele>3.0</ele><time>2026-04-05T16:23:25.999Z</time></trkpt><trkpt lat="45.79782868194494" lon="13.579952592503625"><ele>4.666666666666666</ele><time>2026-04-05T16:23:26.999Z</time></trkpt><trkpt lat="45.79792669126681" lon="13.579763452057023"><ele>6.333333333333333</ele><time>2026-04-05T16:23:27.999Z</time></trkpt><trkpt lat="45.79802459834385" lon="13.57956341500511"><ele>8.0</ele><time>2026-04-05T16:23:28.999Z</time></trkpt><trkpt lat="45.79811282720511" lon="13.579358044702492"><ele>8.0</ele><time>2026-04-05T16:23:29.999Z</time></trkpt><trkpt lat="45.798195328013485" lon="13.579142140888134"><ele>8.0</ele><time>2026-04-05T16:23:30.999Z</time></trkpt><trkpt lat="45.79827096381272" lon="13.578922691934693"><ele>8.0</ele><time>2026-04-05T16:23:31.999Z</time></trkpt><trkpt lat="45.79834202621739" lon="13.578703342485628"><ele>6.0</ele><time>2026-04-05T16:23:32.999Z</time></trkpt><trkpt lat="45.79841361611391" lon="13.578489553232655"><ele>4.0</ele><time>2026-04-05T16:23:33.999Z</time></trkpt><trkpt lat="45.79848455632331" lon="13.578281673647634"><ele>2.0</ele><time>2026-04-05T16:23:34.999Z</time></trkpt><trkpt lat="45.79855541072548" lon="13.578077557251074"><ele>5.0</ele><time>2026-04-05T16:23:35.999Z</time></trkpt><trkpt lat="45.79862664521807" lon="13.577873578441972"><ele>8.0</ele><time>2026-04-05T16:23:36.999Z</time></trkpt><trkpt lat="45.79869907321671" lon="13.577673543588173"><ele>11.0</ele><time>2026-04-05T16:23:37.999Z</time></trkpt><trkpt lat="45.79876929271306" lon="13.577472207191432"><ele>11.0</ele><time>2026-04-05T16:23:38.999Z</time></trkpt><trkpt lat="45.79883935666665" lon="13.577267325252894"><ele>11.0</ele><time>2026-04-05T16:23:39.999Z</time></trkpt><trkpt lat="45.79891208986796" lon="13.577059859039974"><ele>11.0</ele><time>2026-04-05T16:23:40.999Z</time></trkpt><trkpt lat="45.798986050006675" lon="13.576842417420956"><ele>10.666666666666666</ele><time>2026-04-05T16:23:41.999Z</time></trkpt><trkpt lat="45.79906618121341" lon="13.576611355049852"><ele>10.333333333333334</ele><time>2026-04-05T16:23:42.999Z</time></trkpt><trkpt lat="45.79915045961896" lon="13.576366858289253"><ele>10.0</ele><time>2026-04-05T16:23:43.999Z</time></trkpt><trkpt lat="45.79924318258852" lon="13.57609386130039"><ele>15.5</ele><time>2026-04-05T16:23:44.999Z</time></trkpt><trkpt lat="45.79934768597369" lon="13.575790638678797"><ele>21.0</ele><time>2026-04-05T16:23:45.999Z</time></trkpt><trkpt lat="45.79946823239275" lon="13.575452276450237"><ele>17.0</ele><time>2026-04-05T16:23:46.999Z</time></trkpt><trkpt lat="45.79960051424645" lon="13.575081570849148"><ele>13.0</ele><time>2026-04-05T16:23:47.999Z</time></trkpt><trkpt lat="45.799737669703205" lon="13.574687281299248"><ele>8.5</ele><time>2026-04-05T16:23:48.999Z</time></trkpt><trkpt lat="45.79988029828905" lon="13.574283479818178"><ele>4.0</ele><time>2026-04-05T16:23:49.999Z</time></trkpt><trkpt lat="45.80001712223154" lon="13.573911555734053"><ele>6.0</ele><time>2026-04-05T16:23:50.999Z</time></trkpt><trkpt lat="45.80014556561336" lon="13.573547953703061"><ele>8.0</ele><time>2026-04-05T16:23:51.999Z</time></trkpt><trkpt lat="45.800258528902326" lon="13.573189073640489"><ele>7.5</ele><time>2026-04-05T16:23:52.999Z</time></trkpt><trkpt lat="45.800351942285594" lon="13.57282897783224"><ele>7.0</ele><time>2026-04-05T16:23:53.999Z</time></trkpt><trkpt lat="45.800427763464405" lon="13.572465682836437"><ele>7.0</ele><time>2026-04-05T16:23:54.999Z</time></trkpt><trkpt lat="45.80048307884053" lon="13.572106050879134"><ele>7.0</ele><time>2026-04-05T16:23:55.999Z</time></trkpt><trkpt lat="45.800524728658104" lon="13.571761069492611"><ele>6.5</ele><time>2026-04-05T16:23:56.999Z</time></trkpt><trkpt lat="45.80055506026815" lon="13.571425679321878"><ele>6.0</ele><time>2026-04-05T16:23:57.999Z</time></trkpt><trkpt lat="45.80057438167066" lon="13.57110100680549"><ele>5.5</ele><time>2026-04-05T16:23:58.999Z</time></trkpt><trkpt lat="45.80059305500683" lon="13.57077853216584"><ele>5.0</ele><time>2026-04-05T16:23:59.999Z</time></trkpt><trkpt lat="45.80061702235304" lon="13.570456676558827"><ele>4.666666666666667</ele><time>2026-04-05T16:24:00.999Z</time></trkpt><trkpt lat="45.80064304985173" lon="13.570157964841199"><ele>4.333333333333333</ele><time>2026-04-05T16:24:01.999Z</time></trkpt><trkpt lat="45.80066509856432" lon="13.569877184263722"><ele>4.0</ele><time>2026-04-05T16:24:02.999Z</time></trkpt><trkpt lat="45.80068675213582" lon="13.569591780314859"><ele>4.333333333333333</ele><time>2026-04-05T16:24:03.999Z</time></trkpt><trkpt lat="45.800708408630776" lon="13.569301204942503"><ele>4.666666666666667</ele><time>2026-04-05T16:24:04.999Z</time></trkpt><trkpt lat="45.80072443788208" lon="13.569003962110184"><ele>5.0</ele><time>2026-04-05T16:24:05.999Z</time></trkpt><trkpt lat="45.8007416007589" lon="13.568703254689874"><ele>5.333333333333334</ele><time>2026-04-05T16:24:06.999Z</time></trkpt><trkpt lat="45.80075932100081" lon="13.568417916289272"><ele>5.666666666666667</ele><time>2026-04-05T16:24:07.999Z</time></trkpt><trkpt lat="45.80077461214683" lon="13.568154050062455"><ele>6.0</ele><time>2026-04-05T16:24:08.999Z</time></trkpt><trkpt lat="45.80078649424008" lon="13.567906298087983"><ele>6.333333333333334</ele><time>2026-04-05T16:24:09.999Z</time></trkpt><trkpt lat="45.80079929802888" lon="13.567666454068604"><ele>6.666666666666667</ele><time>2026-04-05T16:24:10.999Z</time></trkpt><trkpt lat="45.80081009865656" lon="13.567427856175915"><ele>7.0</ele><time>2026-04-05T16:24:11.999Z</time></trkpt><trkpt lat="45.800829038915204" lon="13.567197707383032"><ele>6.0</ele><time>2026-04-05T16:24:12.999Z</time></trkpt><trkpt lat="45.80084315743192" lon="13.566968041727682"><ele>5.0</ele><time>2026-04-05T16:24:13.999Z</time></trkpt><trkpt lat="45.80085576464319" lon="13.566734210353708"><ele>4.0</ele><time>2026-04-05T16:24:14.999Z</time></trkpt><trkpt lat="45.80086958945023" lon="13.566494810012241"><ele>4.0</ele><time>2026-04-05T16:24:15.999Z</time></trkpt><trkpt lat="45.800885941331536" lon="13.566252728736371"><ele>4.0</ele><time>2026-04-05T16:24:16.999Z</time></trkpt><trkpt lat="45.800902592355456" lon="13.566011973717256"><ele>4.0</ele><time>2026-04-05T16:24:17.999Z</time></trkpt><trkpt lat="45.800915949575796" lon="13.56577236005749"><ele>4.0</ele><time>2026-04-05T16:24:18.999Z</time></trkpt><trkpt lat="45.800928570241226" lon="13.565541332918604"><ele>4.0</ele><time>2026-04-05T16:24:19.999Z</time></trkpt><trkpt lat="45.80094290694056" lon="13.565313702483952"><ele>4.0</ele><time>2026-04-05T16:24:20.999Z</time></trkpt><trkpt lat="45.80095575667385" lon="13.56508393826383"><ele>4.0</ele><time>2026-04-05T16:24:21.999Z</time></trkpt><trkpt lat="45.80096956898582" lon="13.564851117066425"><ele>4.0</ele><time>2026-04-05T16:24:22.999Z</time></trkpt><trkpt lat="45.800984401558004" lon="13.564613063678472"><ele>4.0</ele><time>2026-04-05T16:24:23.999Z</time></trkpt><trkpt lat="45.80099996569919" lon="13.56437445094841"><ele>6.0</ele><time>2026-04-05T16:24:24.999Z</time></trkpt><trkpt lat="45.801014174870105" lon="13.564136725048074"><ele>8.0</ele><time>2026-04-05T16:24:25.999Z</time></trkpt><trkpt lat="45.801027598806925" lon="13.563895673642755"><ele>10.0</ele><time>2026-04-05T16:24:26.999Z</time></trkpt><trkpt lat="45.801043284140256" lon="13.563654007090506"><ele>10.0</ele><time>2026-04-05T16:24:27.999Z</time></trkpt><trkpt lat="45.80106088212122" lon="13.56341258228557"><ele>10.0</ele><time>2026-04-05T16:24:28.999Z</time></trkpt><trkpt lat="45.8010736345217" lon="13.563169800101695"><ele>10.0</ele><time>2026-04-05T16:24:29.999Z</time></trkpt><trkpt lat="45.80108305347625" lon="13.562927626145342"><ele>9.666666666666668</ele><time>2026-04-05T16:24:30.999Z</time></trkpt><trkpt lat="45.80109592783747" lon="13.562690395847676"><ele>9.333333333333334</ele><time>2026-04-05T16:24:31.999Z</time></trkpt><trkpt lat="45.801111943664004" lon="13.562452270550311"><ele>9.0</ele><time>2026-04-05T16:24:32.999Z</time></trkpt><trkpt lat="45.801124890379825" lon="13.562213960720111"><ele>8.666666666666666</ele><time>2026-04-05T16:24:33.999Z</time></trkpt><trkpt lat="45.80114033334358" lon="13.561976597178772"><ele>8.333333333333332</ele><time>2026-04-05T16:24:35Z</time></trkpt><trkpt lat="45.80115624738587" lon="13.561739303321952"><ele>8.0</ele><time>2026-04-05T16:24:36Z</time></trkpt><trkpt lat="45.80117284998172" lon="13.561506544492236"><ele>8.0</ele><time>2026-04-05T16:24:37Z</time></trkpt><trkpt lat="45.80118843454197" lon="13.561278334097965"><ele>8.0</ele><time>2026-04-05T16:24:38Z</time></trkpt><trkpt lat="45.801202658607046" lon="13.561066588068035"><ele>8.0</ele><time>2026-04-05T16:24:39Z</time></trkpt><trkpt lat="45.80121640385779" lon="13.560871620971753"><ele>8.0</ele><time>2026-04-05T16:24:40Z</time></trkpt><trkpt lat="45.801232497351045" lon="13.560680717108225"><ele>7.75</ele><time>2026-04-05T16:24:41Z</time></trkpt><trkpt lat="45.80124945355907" lon="13.560500271407763"><ele>7.5</ele><time>2026-04-05T16:24:42Z</time></trkpt><trkpt lat="45.801273185966046" lon="13.560341964378184"><ele>7.25</ele><time>2026-04-05T16:24:43Z</time></trkpt><trkpt lat="45.801305531968566" lon="13.560185708904548"><ele>7.0</ele><time>2026-04-05T16:24:44Z</time></trkpt><trkpt lat="45.801338706057905" lon="13.560039938309833"><ele>7.0</ele><time>2026-04-05T16:24:45Z</time></trkpt><trkpt lat="45.801357848125356" lon="13.559889909991835"><ele>6.999999999999999</ele><time>2026-04-05T16:24:46Z</time></trkpt><trkpt lat="45.8013548587082" lon="13.559756694671098"><ele>6.999999999999999</ele><time>2026-04-05T16:24:47Z</time></trkpt><trkpt lat="45.801337178167934" lon="13.559632854700672"><ele>7.0</ele><time>2026-04-05T16:24:48Z</time></trkpt><trkpt lat="45.80131994976869" lon="13.559505460508738"><ele>7.0</ele><time>2026-04-05T16:24:49Z</time></trkpt><trkpt lat="45.801318163969775" lon="13.559374710905944"><ele>6.6</ele><time>2026-04-05T16:24:50Z</time></trkpt><trkpt lat="45.80131967005496" lon="13.559244120504482"><ele>6.199999999999999</ele><time>2026-04-05T16:24:51Z</time></trkpt><trkpt lat="45.80132859090958" lon="13.559116635772162"><ele>5.8</ele><time>2026-04-05T16:24:52Z</time></trkpt><trkpt lat="45.80133945416215" lon="13.558995478388221"><ele>5.4</ele><time>2026-04-05T16:24:53Z</time></trkpt><trkpt lat="45.801346907331244" lon="13.558863246123376"><ele>5.0</ele><time>2026-04-05T16:24:54Z</time></trkpt><trkpt lat="45.80135658069366" lon="13.558727349007174"><ele>4.6</ele><time>2026-04-05T16:24:55Z</time></trkpt><trkpt lat="45.80136561961095" lon="13.558581621675268"><ele>4.2</ele><time>2026-04-05T16:24:56Z</time></trkpt><trkpt lat="45.80137552149667" lon="13.558426553432431"><ele>3.8</ele><time>2026-04-05T16:24:57Z</time></trkpt><trkpt lat="45.801387799639734" lon="13.558263695932178"><ele>3.4</ele><time>2026-04-05T16:24:58Z</time></trkpt><trkpt lat="45.80139828709042" lon="13.558090380184629"><ele>3.0</ele><time>2026-04-05T16:24:59Z</time></trkpt><trkpt lat="45.801408108526175" lon="13.55791136717202"><ele>2.75</ele><time>2026-04-05T16:25:00Z</time></trkpt><trkpt lat="45.80141862739616" lon="13.557735717060277"><ele>2.5</ele><time>2026-04-05T16:25:01Z</time></trkpt><trkpt lat="45.80143096801663" lon="13.557564228406052"><ele>2.25</ele><time>2026-04-05T16:25:02Z</time></trkpt><trkpt lat="45.80144278502138" lon="13.557395089511267"><ele>2.0</ele><time>2026-04-05T16:25:03Z</time></trkpt><trkpt lat="45.80145159371368" lon="13.557227360883179"><ele>2.0</ele><time>2026-04-05T16:25:03.999Z</time></trkpt><trkpt lat="45.801460531604675" lon="13.557070498680734"><ele>2.0</ele><time>2026-04-05T16:25:04.999Z</time></trkpt><trkpt lat="45.80146945192374" lon="13.556925408953285"><ele>2.0</ele><time>2026-04-05T16:25:05.999Z</time></trkpt><trkpt lat="45.801475160138686" lon="13.556778292036046"><ele>2.0</ele><time>2026-04-05T16:25:06.999Z</time></trkpt><trkpt lat="45.80148643391049" lon="13.55663024067198"><ele>2.0</ele><time>2026-04-05T16:25:07.999Z</time></trkpt><trkpt lat="45.80149919879361" lon="13.556493972759204"><ele>2.0</ele><time>2026-04-05T16:25:08.999Z</time></trkpt><trkpt lat="45.801506639549764" lon="13.55637042773833"><ele>2.0</ele><time>2026-04-05T16:25:09.999Z</time></trkpt><trkpt lat="45.801517071694484" lon="13.556240902111671"><ele>2.0</ele><time>2026-04-05T16:25:10.999Z</time></trkpt><trkpt lat="45.80152598770175" lon="13.556106768662918"><ele>2.0</ele><time>2026-04-05T16:25:11.999Z</time></trkpt><trkpt lat="45.801532654451826" lon="13.555971144694357"><ele>2.0</ele><time>2026-04-05T16:25:12.999Z</time></trkpt><trkpt lat="45.80154144404127" lon="13.555828503287842"><ele>2.0</ele><time>2026-04-05T16:25:13.999Z</time></trkpt><trkpt lat="45.801552119020904" lon="13.555684326514605"><ele>2.0</ele><time>2026-04-05T16:25:14.999Z</time></trkpt><trkpt lat="45.801560865708474" lon="13.555538857336153"><ele>2.0</ele><time>2026-04-05T16:25:15.999Z</time></trkpt><trkpt lat="45.801570848157525" lon="13.555388258537588"><ele>2.0</ele><time>2026-04-05T16:25:16.999Z</time></trkpt><trkpt lat="45.801578662155706" lon="13.55524763756264"><ele>2.0</ele><time>2026-04-05T16:25:17.999Z</time></trkpt><trkpt lat="45.80158766289776" lon="13.555108144605056"><ele>1.8333333333333333</ele><time>2026-04-05T16:25:18.999Z</time></trkpt><trkpt lat="45.801594466621104" lon="13.554979139462947"><ele>1.6666666666666665</ele><time>2026-04-05T16:25:19.999Z</time></trkpt><trkpt lat="45.80159924071912" lon="13.554862790510867"><ele>1.5</ele><time>2026-04-05T16:25:20.999Z</time></trkpt><trkpt lat="45.80160582155571" lon="13.554742654124347"><ele>1.3333333333333333</ele><time>2026-04-05T16:25:21.999Z</time></trkpt><trkpt lat="45.80161412723013" lon="13.554634034376951"><ele>1.1666666666666665</ele><time>2026-04-05T16:25:22.999Z</time></trkpt><trkpt lat="45.80162268183965" lon="13.554528737564203"><ele>1.0</ele><time>2026-04-05T16:25:23.999Z</time></trkpt><trkpt lat="45.80163272768745" lon="13.55440314255058"><ele>0.9999999999999999</ele><time>2026-04-05T16:25:24.999Z</time></trkpt><trkpt lat="45.80163869804106" lon="13.554288790519832"><ele>1.0</ele><time>2026-04-05T16:25:25.999Z</time></trkpt><trkpt lat="45.801646899873695" lon="13.554177460256359"><ele>1.0</ele><time>2026-04-05T16:25:26.999Z</time></trkpt><trkpt lat="45.80165157226462" lon="13.554058303972301"><ele>1.0</ele><time>2026-04-05T16:25:27.999Z</time></trkpt><trkpt lat="45.80165676787541" lon="13.553931178549432"><ele>0.9999999999999999</ele><time>2026-04-05T16:25:28.999Z</time></trkpt><trkpt lat="45.80166685199718" lon="13.553801549585035"><ele>1.0</ele><time>2026-04-05T16:25:29.999Z</time></trkpt><trkpt lat="45.80167495783144" lon="13.553665235381889"><ele>1.5</ele><time>2026-04-05T16:25:30.999Z</time></trkpt><trkpt lat="45.80167902283641" lon="13.55353639818316"><ele>2.0</ele><time>2026-04-05T16:25:31.999Z</time></trkpt><trkpt lat="45.80168446631394" lon="13.553415031784969"><ele>2.5</ele><time>2026-04-05T16:25:32.999Z</time></trkpt><trkpt lat="45.80169055684963" lon="13.553292399269383"><ele>3.0</ele><time>2026-04-05T16:25:33.999Z</time></trkpt><trkpt lat="45.80169494136865" lon="13.553184121033627"><ele>3.4999999999999996</ele><time>2026-04-05T16:25:34.999Z</time></trkpt><trkpt lat="45.80169855896573" lon="13.55307554127673"><ele>4.0</ele><time>2026-04-05T16:25:35.999Z</time></trkpt><trkpt lat="45.801697728024685" lon="13.552953768757916"><ele>3.8000000000000003</ele><time>2026-04-05T16:25:36.999Z</time></trkpt><trkpt lat="45.80168393985617" lon="13.552826751376841"><ele>3.6000000000000005</ele><time>2026-04-05T16:25:37.999Z</time></trkpt><trkpt lat="45.801664924843315" lon="13.552684891310255"><ele>3.4</ele><time>2026-04-05T16:25:38.999Z</time></trkpt><trkpt lat="45.80165726396915" lon="13.552520476641035"><ele>3.2</ele><time>2026-04-05T16:25:39.999Z</time></trkpt><trkpt lat="45.80166601063166" lon="13.552343418271265"><ele>3.0</ele><time>2026-04-05T16:25:40.999Z</time></trkpt><trkpt lat="45.80166705454635" lon="13.552171257015791"><ele>3.0</ele><time>2026-04-05T16:25:41.999Z</time></trkpt><trkpt lat="45.8016754888285" lon="13.552000541461693"><ele>3.0</ele><time>2026-04-05T16:25:42.999Z</time></trkpt><trkpt lat="45.801713630650596" lon="13.551814272039605"><ele>3.0</ele><time>2026-04-05T16:25:43.999Z</time></trkpt><trkpt lat="45.80176531890768" lon="13.55162649114399"><ele>3.0</ele><time>2026-04-05T16:25:44.999Z</time></trkpt><trkpt lat="45.801798890228284" lon="13.551441487540687"><ele>3.0</ele><time>2026-04-05T16:25:45.999Z</time></trkpt><trkpt lat="45.80180572820125" lon="13.551283603560927"><ele>3.0</ele><time>2026-04-05T16:25:46.999Z</time></trkpt><trkpt lat="45.80181496530951" lon="13.551139567680544"><ele>3.0</ele><time>2026-04-05T16:25:47.999Z</time></trkpt><trkpt lat="45.80182716508585" lon="13.551003598582076"><ele>3.0</ele><time>2026-04-05T16:25:48.999Z</time></trkpt><trkpt lat="45.80183741960658" lon="13.55086336634726"><ele>3.0</ele><time>2026-04-05T16:25:49.999Z</time></trkpt><trkpt lat="45.80184820027422" lon="13.550715363110994"><ele>3.0</ele><time>2026-04-05T16:25:50.999Z</time></trkpt><trkpt lat="45.8018620608628" lon="13.550563140315042"><ele>3.0</ele><time>2026-04-05T16:25:51.999Z</time></trkpt><trkpt lat="45.80187036114518" lon="13.550401097642991"><ele>3.0</ele><time>2026-04-05T16:25:52.999Z</time></trkpt><trkpt lat="45.80188055060991" lon="13.550230491537407"><ele>3.0</ele><time>2026-04-05T16:25:53.999Z</time></trkpt><trkpt lat="45.80189001730774" lon="13.550071259423346"><ele>3.0</ele><time>2026-04-05T16:25:54.999Z</time></trkpt><trkpt lat="45.80189818576547" lon="13.54991351247489"><ele>3.0</ele><time>2026-04-05T16:25:55.999Z</time></trkpt><trkpt lat="45.801907825970396" lon="13.549758469082885"><ele>3.0</ele><time>2026-04-05T16:25:56.999Z</time></trkpt><trkpt lat="45.80192057216468" lon="13.5496106704369"><ele>3.0</ele><time>2026-04-05T16:25:57.999Z</time></trkpt><trkpt lat="45.80192949240134" lon="13.549469081356294"><ele>3.0</ele><time>2026-04-05T16:25:58.999Z</time></trkpt><trkpt lat="45.801938294585504" lon="13.549328163696467"><ele>3.0</ele><time>2026-04-05T16:25:59.999Z</time></trkpt><trkpt lat="45.80194971992043" lon="13.549190039817432"><ele>3.0</ele><time>2026-04-05T16:26:00.999Z</time></trkpt><trkpt lat="45.801960702320805" lon="13.549056921915474"><ele>3.0</ele><time>2026-04-05T16:26:01.999Z</time></trkpt><trkpt lat="45.80197689464859" lon="13.548927931360973"><ele>3.0</ele><time>2026-04-05T16:26:02.999Z</time></trkpt><trkpt lat="45.801998502523" lon="13.548806803645471"><ele>3.0</ele><time>2026-04-05T16:26:03.999Z</time></trkpt><trkpt lat="45.80202169961737" lon="13.54867123071183"><ele>3.5</ele><time>2026-04-05T16:26:04.999Z</time></trkpt><trkpt lat="45.80201828689062" lon="13.548520427680778"><ele>4.0</ele><time>2026-04-05T16:26:05.999Z</time></trkpt><trkpt lat="45.8020126185373" lon="13.548355697008992"><ele>4.5</ele><time>2026-04-05T16:26:06.999Z</time></trkpt><trkpt lat="45.8020227443269" lon="13.548180002979118"><ele>5.0</ele><time>2026-04-05T16:26:07.999Z</time></trkpt><trkpt lat="45.8020338708968" lon="13.547994654567951"><ele>4.5</ele><time>2026-04-05T16:26:08.999Z</time></trkpt><trkpt lat="45.80204330191263" lon="13.547794798312884"><ele>4.0</ele><time>2026-04-05T16:26:09.999Z</time></trkpt><trkpt lat="45.802056028003946" lon="13.547601526974058"><ele>3.5</ele><time>2026-04-05T16:26:10.999Z</time></trkpt><trkpt lat="45.80206849033094" lon="13.547417173871452"><ele>3.0</ele><time>2026-04-05T16:26:11.999Z</time></trkpt><trkpt lat="45.80207793009783" lon="13.54723824039118"><ele>3.0</ele><time>2026-04-05T16:26:12.999Z</time></trkpt><trkpt lat="45.8020889393676" lon="13.547074078654648"><ele>3.0</ele><time>2026-04-05T16:26:13.999Z</time></trkpt><trkpt lat="45.80209828853863" lon="13.546914607556344"><ele>3.0</ele><time>2026-04-05T16:26:14.999Z</time></trkpt><trkpt lat="45.80210676332323" lon="13.546753949044032"><ele>3.0</ele><time>2026-04-05T16:26:15.999Z</time></trkpt><trkpt lat="45.80211884582203" lon="13.546591832946543"><ele>2.8</ele><time>2026-04-05T16:26:16.999Z</time></trkpt><trkpt lat="45.80213224015573" lon="13.546430153784184"><ele>2.5999999999999996</ele><time>2026-04-05T16:26:17.999Z</time></trkpt><trkpt lat="45.802143893090545" lon="13.54627425587137"><ele>2.4000000000000004</ele><time>2026-04-05T16:26:18.999Z</time></trkpt><trkpt lat="45.80215885355557" lon="13.546126287363993"><ele>2.2</ele><time>2026-04-05T16:26:19.999Z</time></trkpt><trkpt lat="45.80217623596703" lon="13.545985849539385"><ele>2.0</ele><time>2026-04-05T16:26:20.999Z</time></trkpt><trkpt lat="45.802197988217046" lon="13.545845981841651"><ele>2.0</ele><time>2026-04-05T16:26:21.999Z</time></trkpt><trkpt lat="45.80222519854699" lon="13.545711513837832"><ele>2.0</ele><time>2026-04-05T16:26:22.999Z</time></trkpt><trkpt lat="45.80227608893049" lon="13.54558676668328"><ele>2.0</ele><time>2026-04-05T16:26:23.999Z</time></trkpt><trkpt lat="45.802325390389846" lon="13.54545548655254"><ele>2.0</ele><time>2026-04-05T16:26:24.999Z</time></trkpt><trkpt lat="45.802321833625236" lon="13.54528526414686"><ele>2.0</ele><time>2026-04-05T16:26:25.999Z</time></trkpt><trkpt lat="45.80228142671438" lon="13.54511279008162"><ele>3.5</ele><time>2026-04-05T16:26:26.999Z</time></trkpt><trkpt lat="45.80224704463738" lon="13.54494340847738"><ele>5.0</ele><time>2026-04-05T16:26:27.999Z</time></trkpt><trkpt lat="45.802243090032995" lon="13.544771547687164"><ele>6.5</ele><time>2026-04-05T16:26:28.999Z</time></trkpt><trkpt lat="45.80224541468783" lon="13.544592309295867"><ele>8.0</ele><time>2026-04-05T16:26:29.999Z</time></trkpt><trkpt lat="45.80225229341946" lon="13.544419257912367"><ele>8.0</ele><time>2026-04-05T16:26:30.999Z</time></trkpt><trkpt lat="45.80226591618719" lon="13.5442557128387"><ele>8.0</ele><time>2026-04-05T16:26:31.999Z</time></trkpt><trkpt lat="45.80227588470571" lon="13.544093521793346"><ele>8.0</ele><time>2026-04-05T16:26:32.999Z</time></trkpt><trkpt lat="45.80228577048519" lon="13.54392782693792"><ele>8.0</ele><time>2026-04-05T16:26:33.999Z</time></trkpt><trkpt lat="45.80229729324663" lon="13.543761120942895"><ele>7.4</ele><time>2026-04-05T16:26:34.999Z</time></trkpt><trkpt lat="45.80230998082983" lon="13.543600007138826"><ele>6.800000000000001</ele><time>2026-04-05T16:26:35.999Z</time></trkpt><trkpt lat="45.802323806562406" lon="13.54345527488508"><ele>6.2</ele><time>2026-04-05T16:26:36.999Z</time></trkpt><trkpt lat="45.802333324332956" lon="13.543323155481993"><ele>5.6</ele><time>2026-04-05T16:26:37.999Z</time></trkpt><trkpt lat="45.80234420586787" lon="13.54318970324656"><ele>5.0</ele><time>2026-04-05T16:26:38.999Z</time></trkpt><trkpt lat="45.802353285137016" lon="13.543075910597997"><ele>5.0</ele><time>2026-04-05T16:26:39.999Z</time></trkpt><trkpt lat="45.80235892242888" lon="13.54295713028096"><ele>5.0</ele><time>2026-04-05T16:26:41Z</time></trkpt><trkpt lat="45.80236618073611" lon="13.542831788753134"><ele>5.0</ele><time>2026-04-05T16:26:42Z</time></trkpt><trkpt lat="45.80237763057549" lon="13.542703063120356"><ele>5.0</ele><time>2026-04-05T16:26:43Z</time></trkpt><trkpt lat="45.8023889136044" lon="13.542553015571949"><ele>5.0</ele><time>2026-04-05T16:26:44Z</time></trkpt><trkpt lat="45.80239717521241" lon="13.542380146308943"><ele>5.0</ele><time>2026-04-05T16:26:45Z</time></trkpt><trkpt lat="45.802407557861514" lon="13.54219932768838"><ele>5.0</ele><time>2026-04-05T16:26:46Z</time></trkpt><trkpt lat="45.80241940051127" lon="13.542018417049793"><ele>5.0</ele><time>2026-04-05T16:26:47Z</time></trkpt><trkpt lat="45.8024310348726" lon="13.5418378896104"><ele>5.0</ele><time>2026-04-05T16:26:48Z</time></trkpt><trkpt lat="45.802441929899786" lon="13.541664705024985"><ele>4.25</ele><time>2026-04-05T16:26:49Z</time></trkpt><trkpt lat="45.80245006388359" lon="13.541498267796342"><ele>3.5</ele><time>2026-04-05T16:26:50Z</time></trkpt><trkpt lat="45.80245998330614" lon="13.541335960003876"><ele>2.75</ele><time>2026-04-05T16:26:51Z</time></trkpt><trkpt lat="45.802472581905775" lon="13.541171403354499"><ele>2.0</ele><time>2026-04-05T16:26:52Z</time></trkpt><trkpt lat="45.80249357812058" lon="13.54100208358409"><ele>2.0</ele><time>2026-04-05T16:26:53Z</time></trkpt><trkpt lat="45.802518230888175" lon="13.540838742664372"><ele>2.0</ele><time>2026-04-05T16:26:54Z</time></trkpt><trkpt lat="45.80254076253154" lon="13.540684305412794"><ele>2.0</ele><time>2026-04-05T16:26:55Z</time></trkpt><trkpt lat="45.80256760046406" lon="13.540526361838475"><ele>2.0</ele><time>2026-04-05T16:26:56Z</time></trkpt><trkpt lat="45.80259907979602" lon="13.540371852114278"><ele>1.8</ele><time>2026-04-05T16:26:57Z</time></trkpt><trkpt lat="45.802630364389245" lon="13.540219669691071"><ele>1.6</ele><time>2026-04-05T16:26:58Z</time></trkpt><trkpt lat="45.80266024550842" lon="13.540075779298418"><ele>1.4000000000000001</ele><time>2026-04-05T16:26:59Z</time></trkpt><trkpt lat="45.802692406172206" lon="13.53993887733034"><ele>1.2000000000000002</ele><time>2026-04-05T16:27:00Z</time></trkpt><trkpt lat="45.80272464089208" lon="13.539801037532191"><ele>1.0</ele><time>2026-04-05T16:27:01Z</time></trkpt><trkpt lat="45.80276219143972" lon="13.539648634746062"><ele>0.5</ele><time>2026-04-05T16:27:02Z</time></trkpt><trkpt lat="45.80280641274659" lon="13.539494087795156"><ele>0.0</ele><time>2026-04-05T16:27:03Z</time></trkpt><trkpt lat="45.80285506791845" lon="13.539335613969904"><ele>-0.5</ele><time>2026-04-05T16:27:04Z</time></trkpt><trkpt lat="45.80291067874366" lon="13.539170618387145"><ele>-1.0</ele><time>2026-04-05T16:27:05Z</time></trkpt><trkpt lat="45.80297344537199" lon="13.538985865704262"><ele>-1.0</ele><time>2026-04-05T16:27:06Z</time></trkpt><trkpt lat="45.80304638161866" lon="13.538789897936061"><ele>-1.0</ele><time>2026-04-05T16:27:06.999Z</time></trkpt><trkpt lat="45.80312309374157" lon="13.538581611555575"><ele>-1.0</ele><time>2026-04-05T16:27:07.999Z</time></trkpt><trkpt lat="45.803197345045604" lon="13.538382390058594"><ele>-1.25</ele><time>2026-04-05T16:27:08.999Z</time></trkpt><trkpt lat="45.80326451768543" lon="13.538197090646552"><ele>-1.5</ele><time>2026-04-05T16:27:09.999Z</time></trkpt><trkpt lat="45.80332775452813" lon="13.538020434334209"><ele>-1.75</ele><time>2026-04-05T16:27:10.999Z</time></trkpt><trkpt lat="45.80338624543868" lon="13.537856804322539"><ele>-2.0</ele><time>2026-04-05T16:27:11.999Z</time></trkpt><trkpt lat="45.80344288715259" lon="13.53770290947986"><ele>-1.25</ele><time>2026-04-05T16:27:12.999Z</time></trkpt><trkpt lat="45.80349906919685" lon="13.537544557260375"><ele>-0.5</ele><time>2026-04-05T16:27:13.999Z</time></trkpt><trkpt lat="45.803555418631255" lon="13.537388573769098"><ele>0.25</ele><time>2026-04-05T16:27:14.999Z</time></trkpt><trkpt lat="45.8036124285719" lon="13.53723108093415"><ele>1.0</ele><time>2026-04-05T16:27:15.999Z</time></trkpt><trkpt lat="45.80366941626006" lon="13.537074079809654"><ele>1.2000000000000002</ele><time>2026-04-05T16:27:16.999Z</time></trkpt><trkpt lat="45.80372585094592" lon="13.536924339125322"><ele>1.4000000000000001</ele><time>2026-04-05T16:27:17.999Z</time></trkpt><trkpt lat="45.803776332286205" lon="13.536789433868703"><ele>1.6</ele><time>2026-04-05T16:27:18.999Z</time></trkpt><trkpt lat="45.803824158818664" lon="13.536654377382815"><ele>1.8</ele><time>2026-04-05T16:27:19.999Z</time></trkpt><trkpt lat="45.80387111626091" lon="13.536525633020638"><ele>2.0</ele><time>2026-04-05T16:27:20.999Z</time></trkpt><trkpt lat="45.80391073217602" lon="13.536419442611852"><ele>1.9999999999999998</ele><time>2026-04-05T16:27:21.999Z</time></trkpt><trkpt lat="45.803946300314145" lon="13.536319382386226"><ele>2.0</ele><time>2026-04-05T16:27:22.999Z</time></trkpt><trkpt lat="45.80398409913139" lon="13.536215421279467"><ele>2.0</ele><time>2026-04-05T16:27:23.999Z</time></trkpt><trkpt lat="45.80402344544931" lon="13.536108880341473"><ele>2.0</ele><time>2026-04-05T16:27:24.999Z</time></trkpt><trkpt lat="45.80406131196799" lon="13.536008176992148"><ele>1.9999999999999998</ele><time>2026-04-05T16:27:25.999Z</time></trkpt><trkpt lat="45.80409878686925" lon="13.535911725990589"><ele>2.0</ele><time>2026-04-05T16:27:26.999Z</time></trkpt><trkpt lat="45.804133111606475" lon="13.53581585393134"><ele>2.0</ele><time>2026-04-05T16:27:27.999Z</time></trkpt><trkpt lat="45.804163935619606" lon="13.535724371021361"><ele>1.9999999999999998</ele><time>2026-04-05T16:27:28.999Z</time></trkpt><trkpt lat="45.80419825304805" lon="13.535631412374409"><ele>2.0</ele><time>2026-04-05T16:27:29.999Z</time></trkpt><trkpt lat="45.80423164563053" lon="13.535541112630531"><ele>2.0</ele><time>2026-04-05T16:27:30.999Z</time></trkpt><trkpt lat="45.804263465477845" lon="13.535452105979166"><ele>1.9999999999999998</ele><time>2026-04-05T16:27:31.999Z</time></trkpt><trkpt lat="45.80429711505419" lon="13.535353760563813"><ele>2.0</ele><time>2026-04-05T16:27:32.999Z</time></trkpt><trkpt lat="45.80433426534878" lon="13.53525084592871"><ele>2.0</ele><time>2026-04-05T16:27:33.999Z</time></trkpt><trkpt lat="45.80437510580812" lon="13.535144641369072"><ele>2.8</ele><time>2026-04-05T16:27:34.999Z</time></trkpt><trkpt lat="45.804417035406175" lon="13.535030575959107"><ele>3.6</ele><time>2026-04-05T16:27:35.999Z</time></trkpt><trkpt lat="45.804463244729135" lon="13.534907238913885"><ele>4.3999999999999995</ele><time>2026-04-05T16:27:36.999Z</time></trkpt><trkpt lat="45.80451293372905" lon="13.534770100816864"><ele>5.2</ele><time>2026-04-05T16:27:37.999Z</time></trkpt><trkpt lat="45.804563935234285" lon="13.53463000622834"><ele>6.0</ele><time>2026-04-05T16:27:38.999Z</time></trkpt><trkpt lat="45.80461859071292" lon="13.534483161148573"><ele>6.0</ele><time>2026-04-05T16:27:39.999Z</time></trkpt><trkpt lat="45.804665417166035" lon="13.534349820963502"><ele>6.0</ele><time>2026-04-05T16:27:40.999Z</time></trkpt><trkpt lat="45.80471279872083" lon="13.53422717368075"><ele>6.0</ele><time>2026-04-05T16:27:41.999Z</time></trkpt><trkpt lat="45.804759640105296" lon="13.534104467625863"><ele>6.0</ele><time>2026-04-05T16:27:42.999Z</time></trkpt><trkpt lat="45.80480446368358" lon="13.53398167740962"><ele>6.0</ele><time>2026-04-05T16:27:43.999Z</time></trkpt><trkpt lat="45.80485128676313" lon="13.533863205715868"><ele>6.0</ele><time>2026-04-05T16:27:44.999Z</time></trkpt><trkpt lat="45.80489094147159" lon="13.533759171136488"><ele>6.0</ele><time>2026-04-05T16:27:45.999Z</time></trkpt><trkpt lat="45.804924505059326" lon="13.533673121406895"><ele>6.0</ele><time>2026-04-05T16:27:46.999Z</time></trkpt><trkpt lat="45.80495779786915" lon="13.533586939582795"><ele>6.0</ele><time>2026-04-05T16:27:48.999Z</time></trkpt><trkpt lat="45.80498925394988" lon="13.533497070249961"><ele>6.0</ele><time>2026-04-05T16:27:51.999Z</time></trkpt><trkpt lat="45.80505280748242" lon="13.533401421603777"><ele>6.0</ele><time>2026-04-05T16:27:53.999Z</time></trkpt><trkpt lat="45.8051350128097" lon="13.533250695493788"><ele>6.0</ele><time>2026-04-05T16:27:55.999Z</time></trkpt><trkpt lat="45.80514006526726" lon="13.533127047124522"><ele>6.0</ele><time>2026-04-05T16:27:56.999Z</time></trkpt><trkpt lat="45.805129820415885" lon="13.532969726984474"><ele>6.0</ele><time>2026-04-05T16:27:57.999Z</time></trkpt><trkpt lat="45.805104842296096" lon="13.532796835846103"><ele>6.0</ele><time>2026-04-05T16:27:58.999Z</time></trkpt><trkpt lat="45.80517258884551" lon="13.53260478111175"><ele>6.0</ele><time>2026-04-05T16:27:59.999Z</time></trkpt><trkpt lat="45.80520760410674" lon="13.532408194339085"><ele>6.0</ele><time>2026-04-05T16:28:00.999Z</time></trkpt><trkpt lat="45.80524179724419" lon="13.5322171987209"><ele>6.0</ele><time>2026-04-05T16:28:01.999Z</time></trkpt><trkpt lat="45.805275904495545" lon="13.532037388029519"><ele>6.0</ele><time>2026-04-05T16:28:02.999Z</time></trkpt><trkpt lat="45.80530683953123" lon="13.531864649246403"><ele>6.5</ele><time>2026-04-05T16:28:03.999Z</time></trkpt><trkpt lat="45.805335700409266" lon="13.53169948365853"><ele>7.0</ele><time>2026-04-05T16:28:04.999Z</time></trkpt><trkpt lat="45.805367972324596" lon="13.531540300298616"><ele>7.5</ele><time>2026-04-05T16:28:05.999Z</time></trkpt><trkpt lat="45.805406328170164" lon="13.531384712183357"><ele>8.0</ele><time>2026-04-05T16:28:06.999Z</time></trkpt><trkpt lat="45.80545145547856" lon="13.531234595890302"><ele>8.0</ele><time>2026-04-05T16:28:07.999Z</time></trkpt><trkpt lat="45.80549895451655" lon="13.53109605593163"><ele>8.0</ele><time>2026-04-05T16:28:08.999Z</time></trkpt><trkpt lat="45.80554047016758" lon="13.530960289195306"><ele>8.0</ele><time>2026-04-05T16:28:09.999Z</time></trkpt><trkpt lat="45.80558313006895" lon="13.530826437667262"><ele>8.0</ele><time>2026-04-05T16:28:10.999Z</time></trkpt><trkpt lat="45.80562576542387" lon="13.53069496225555"><ele>8.0</ele><time>2026-04-05T16:28:11.999Z</time></trkpt><trkpt lat="45.805670241672836" lon="13.530566987795046"><ele>8.0</ele><time>2026-04-05T16:28:12.999Z</time></trkpt><trkpt lat="45.80571732504091" lon="13.530437040053888"><ele>8.0</ele><time>2026-04-05T16:28:13.999Z</time></trkpt><trkpt lat="45.80577154320734" lon="13.530308960048528"><ele>8.0</ele><time>2026-04-05T16:28:14.999Z</time></trkpt><trkpt lat="45.80582953376514" lon="13.530186846786242"><ele>8.0</ele><time>2026-04-05T16:28:15.999Z</time></trkpt><trkpt lat="45.8058842321502" lon="13.530077926000395"><ele>8.0</ele><time>2026-04-05T16:28:16.999Z</time></trkpt><trkpt lat="45.80593769193404" lon="13.52998081111475"><ele>8.200000000000001</ele><time>2026-04-05T16:28:17.999Z</time></trkpt><trkpt lat="45.80598348042102" lon="13.529886632658185"><ele>8.4</ele><time>2026-04-05T16:28:18.999Z</time></trkpt><trkpt lat="45.80602863289439" lon="13.529801921653117"><ele>8.600000000000001</ele><time>2026-04-05T16:28:19.999Z</time></trkpt><trkpt lat="45.8060853608588" lon="13.529688195130875"><ele>8.8</ele><time>2026-04-05T16:28:21.999Z</time></trkpt><trkpt lat="45.80614207007697" lon="13.52958160542762"><ele>9.0</ele><time>2026-04-05T16:28:23.999Z</time></trkpt><trkpt lat="45.80621186513714" lon="13.5294322443095"><ele>8.0</ele><time>2026-04-05T16:28:25.999Z</time></trkpt><trkpt lat="45.8062576937399" lon="13.529337039955983"><ele>7.0</ele><time>2026-04-05T16:28:26.999Z</time></trkpt><trkpt lat="45.80632012821904" lon="13.529210594802516"><ele>6.0</ele><time>2026-04-05T16:28:27.999Z</time></trkpt><trkpt lat="45.80640518370351" lon="13.529043762950211"><ele>5.0</ele><time>2026-04-05T16:28:28.999Z</time></trkpt><trkpt lat="45.80649117607726" lon="13.528887893671357"><ele>4.5</ele><time>2026-04-05T16:28:29.999Z</time></trkpt><trkpt lat="45.80656988608079" lon="13.528723320419287"><ele>4.0</ele><time>2026-04-05T16:28:30.999Z</time></trkpt><trkpt lat="45.8066493687894" lon="13.528562153114425"><ele>3.5</ele><time>2026-04-05T16:28:31.999Z</time></trkpt><trkpt lat="45.806733995742235" lon="13.528408497154594"><ele>3.0</ele><time>2026-04-05T16:28:32.999Z</time></trkpt><trkpt lat="45.80681621499071" lon="13.528283520039528"><ele>3.25</ele><time>2026-04-05T16:28:33.999Z</time></trkpt><trkpt lat="45.80688450932636" lon="13.52814625914043"><ele>3.5</ele><time>2026-04-05T16:28:34.999Z</time></trkpt><trkpt lat="45.80695875380233" lon="13.528004957207315"><ele>3.75</ele><time>2026-04-05T16:28:35.999Z</time></trkpt><trkpt lat="45.80703796768877" lon="13.52786363337672"><ele>4.0</ele><time>2026-04-05T16:28:36.999Z</time></trkpt><trkpt lat="45.80710936616606" lon="13.527721257251368"><ele>4.0</ele><time>2026-04-05T16:28:37.999Z</time></trkpt><trkpt lat="45.8071794799188" lon="13.527592113449918"><ele>4.0</ele><time>2026-04-05T16:28:38.999Z</time></trkpt><trkpt lat="45.807241898833766" lon="13.527467647465889"><ele>4.0</ele><time>2026-04-05T16:28:39.999Z</time></trkpt><trkpt lat="45.807308979262885" lon="13.527330675869372"><ele>4.0</ele><time>2026-04-05T16:28:40.999Z</time></trkpt><trkpt lat="45.80738031437752" lon="13.527191944180842"><ele>4.0</ele><time>2026-04-05T16:28:41.999Z</time></trkpt><trkpt lat="45.80744979767715" lon="13.527049777144587"><ele>4.0</ele><time>2026-04-05T16:28:42.999Z</time></trkpt><trkpt lat="45.80752940206577" lon="13.52689614964724"><ele>4.0</ele><time>2026-04-05T16:28:43.999Z</time></trkpt><trkpt lat="45.80761637500386" lon="13.526739416458335"><ele>4.0</ele><time>2026-04-05T16:28:44.999Z</time></trkpt><trkpt lat="45.80769476866269" lon="13.526586702828064"><ele>4.0</ele><time>2026-04-05T16:28:45.999Z</time></trkpt><trkpt lat="45.80777340205946" lon="13.526434256263709"><ele>4.0</ele><time>2026-04-05T16:28:47Z</time></trkpt><trkpt lat="45.807860925779" lon="13.526262689813022"><ele>4.0</ele><time>2026-04-05T16:28:48Z</time></trkpt><trkpt lat="45.80794837985225" lon="13.52610169130222"><ele>4.0</ele><time>2026-04-05T16:28:49Z</time></trkpt><trkpt lat="45.808025545453674" lon="13.525957498475758"><ele>4.0</ele><time>2026-04-05T16:28:50Z</time></trkpt><trkpt lat="45.80810370134884" lon="13.525805390462569"><ele>4.0</ele><time>2026-04-05T16:28:51Z</time></trkpt><trkpt lat="45.80817802080832" lon="13.525669726482167"><ele>4.0</ele><time>2026-04-05T16:28:52Z</time></trkpt><trkpt lat="45.808250183496256" lon="13.525546841653298"><ele>4.0</ele><time>2026-04-05T16:28:53Z</time></trkpt><trkpt lat="45.80833171367453" lon="13.525428637082838"><ele>4.25</ele><time>2026-04-05T16:28:54Z</time></trkpt><trkpt lat="45.80842202391502" lon="13.525325307257923"><ele>4.5</ele><time>2026-04-05T16:28:55Z</time></trkpt><trkpt lat="45.80852586863406" lon="13.525244609994262"><ele>4.75</ele><time>2026-04-05T16:28:56Z</time></trkpt><trkpt lat="45.80864074547591" lon="13.5251710699475"><ele>5.0</ele><time>2026-04-05T16:28:57Z</time></trkpt><trkpt lat="45.80876213567529" lon="13.525115694827164"><ele>6.4</ele><time>2026-04-05T16:28:58Z</time></trkpt><trkpt lat="45.808881078491446" lon="13.52507871722836"><ele>7.8</ele><time>2026-04-05T16:28:59Z</time></trkpt><trkpt lat="45.80898513467717" lon="13.525048978837333"><ele>9.2</ele><time>2026-04-05T16:29:00Z</time></trkpt><trkpt lat="45.809080139683694" lon="13.52502162267566"><ele>10.6</ele><time>2026-04-05T16:29:01Z</time></trkpt><trkpt lat="45.809166958953035" lon="13.524998869008282"><ele>12.0</ele><time>2026-04-05T16:29:02Z</time></trkpt><trkpt lat="45.809253454965805" lon="13.524978942975153"><ele>11.285714285714285</ele><time>2026-04-05T16:29:03Z</time></trkpt><trkpt lat="45.80934122859823" lon="13.524965189491825"><ele>10.571428571428571</ele><time>2026-04-05T16:29:04Z</time></trkpt><trkpt lat="45.80941728509473" lon="13.52495130678743"><ele>9.857142857142858</ele><time>2026-04-05T16:29:05Z</time></trkpt><trkpt lat="45.80949689356917" lon="13.52493952330009"><ele>9.142857142857142</ele><time>2026-04-05T16:29:06Z</time></trkpt><trkpt lat="45.809565190671854" lon="13.524930327516673"><ele>8.428571428571429</ele><time>2026-04-05T16:29:07Z</time></trkpt><trkpt lat="45.80963091552941" lon="13.524932249138503"><ele>7.714285714285714</ele><time>2026-04-05T16:29:07.999Z</time></trkpt><trkpt lat="45.80969255847058" lon="13.524961503393554"><ele>7.0</ele><time>2026-04-05T16:29:08.999Z</time></trkpt><trkpt lat="45.80974408728078" lon="13.525016809278892"><ele>7.0</ele><time>2026-04-05T16:29:09.999Z</time></trkpt><trkpt lat="45.80978148865521" lon="13.525095495703322"><ele>6.999999999999999</ele><time>2026-04-05T16:29:10.999Z</time></trkpt><trkpt lat="45.80983830790047" lon="13.525225322758667"><ele>6.999999999999999</ele><time>2026-04-05T16:29:12.999Z</time></trkpt><trkpt lat="45.80993636340698" lon="13.52526165894981"><ele>7.0</ele><time>2026-04-05T16:29:14.999Z</time></trkpt><trkpt lat="45.810031368829435" lon="13.525172600199632"><ele>7.0</ele><time>2026-04-05T16:29:16.999Z</time></trkpt><trkpt lat="45.810070947741416" lon="13.525002008284517"><ele>7.000000000000001</ele><time>2026-04-05T16:29:18.999Z</time></trkpt><trkpt lat="45.81008315884252" lon="13.524899859612399"><ele>7.0</ele><time>2026-04-05T16:29:19.999Z</time></trkpt><trkpt lat="45.810102309027265" lon="13.524788036571001"><ele>7.0</ele><time>2026-04-05T16:29:20.999Z</time></trkpt><trkpt lat="45.810122505720706" lon="13.524677614384304"><ele>7.0</ele><time>2026-04-05T16:29:21.999Z</time></trkpt><trkpt lat="45.8101400302614" lon="13.524589582376398"><ele>7.000000000000001</ele><time>2026-04-05T16:29:23Z</time></trkpt><trkpt lat="45.810171009286705" lon="13.524464852359289"><ele>7.0</ele><time>2026-04-05T16:29:25Z</time></trkpt><trkpt lat="45.81020259278352" lon="13.524364485992159"><ele>6.199999999999999</ele><time>2026-04-05T16:29:28Z</time></trkpt><trkpt lat="45.8102458754463" lon="13.524270347720478"><ele>5.3999999999999995</ele><time>2026-04-05T16:29:57Z</time></trkpt><trkpt lat="45.8102797228236" lon="13.524192473232743"><ele>4.6</ele><time>2026-04-05T16:29:58Z</time></trkpt><trkpt lat="45.810324880783305" lon="13.524096115013055"><ele>3.8</ele><time>2026-04-05T16:29:59Z</time></trkpt><trkpt lat="45.81037955602597" lon="13.523969228520057"><ele>3.0</ele><time>2026-04-05T16:30:00Z</time></trkpt><trkpt lat="45.81044659831102" lon="13.523816310919017"><ele>3.333333333333333</ele><time>2026-04-05T16:30:01Z</time></trkpt><trkpt lat="45.810525226642326" lon="13.523623995835326"><ele>3.6666666666666665</ele><time>2026-04-05T16:30:02Z</time></trkpt><trkpt lat="45.81062331700303" lon="13.523393429080631"><ele>4.0</ele><time>2026-04-05T16:30:03Z</time></trkpt><trkpt lat="45.81071429286095" lon="13.52318273297312"><ele>4.0</ele><time>2026-04-05T16:30:04Z</time></trkpt><trkpt lat="45.81078987591679" lon="13.523002254456085"><ele>4.0</ele><time>2026-04-05T16:30:05Z</time></trkpt><trkpt lat="45.810861849478925" lon="13.522842479899966"><ele>4.0</ele><time>2026-04-05T16:30:06Z</time></trkpt><trkpt lat="45.81093983700397" lon="13.522670588426685"><ele>4.0</ele><time>2026-04-05T16:30:07Z</time></trkpt><trkpt lat="45.811021123735294" lon="13.522499885718934"><ele>4.333333333333333</ele><time>2026-04-05T16:30:08Z</time></trkpt><trkpt lat="45.811112379728854" lon="13.522342264336029"><ele>4.666666666666667</ele><time>2026-04-05T16:30:09Z</time></trkpt><trkpt lat="45.81121622772615" lon="13.522184919143838"><ele>5.0</ele><time>2026-04-05T16:30:10Z</time></trkpt><trkpt lat="45.8113292630073" lon="13.522019392323237"><ele>5.666666666666667</ele><time>2026-04-05T16:30:11Z</time></trkpt><trkpt lat="45.81144341969424" lon="13.521841600580593"><ele>6.333333333333334</ele><time>2026-04-05T16:30:12Z</time></trkpt><trkpt lat="45.81155482823248" lon="13.521674305608483"><ele>7.0</ele><time>2026-04-05T16:30:13Z</time></trkpt><trkpt lat="45.811655855527924" lon="13.52151545652649"><ele>7.0</ele><time>2026-04-05T16:30:14Z</time></trkpt><trkpt lat="45.81175191888778" lon="13.521366448971179"><ele>7.0</ele><time>2026-04-05T16:30:15Z</time></trkpt><trkpt lat="45.81186811921627" lon="13.521194135701505"><ele>7.0</ele><time>2026-04-05T16:30:16Z</time></trkpt><trkpt lat="45.812019683150055" lon="13.520984362425008"><ele>6.0</ele><time>2026-04-05T16:30:17Z</time></trkpt><trkpt lat="45.81217314891919" lon="13.520781474516049"><ele>5.0</ele><time>2026-04-05T16:30:18Z</time></trkpt><trkpt lat="45.81230173013083" lon="13.520603213852144"><ele>4.0</ele><time>2026-04-05T16:30:19Z</time></trkpt><trkpt lat="45.812423732032116" lon="13.52044009994964"><ele>4.333333333333333</ele><time>2026-04-05T16:30:20Z</time></trkpt><trkpt lat="45.8125489794105" lon="13.520272060952763"><ele>4.666666666666667</ele><time>2026-04-05T16:30:21Z</time></trkpt><trkpt lat="45.81267494389013" lon="13.520103269474387"><ele>5.0</ele><time>2026-04-05T16:30:22Z</time></trkpt><trkpt lat="45.812812593032426" lon="13.519950120455881"><ele>5.333333333333334</ele><time>2026-04-05T16:30:23Z</time></trkpt><trkpt lat="45.81295480279297" lon="13.519813782866443"><ele>5.666666666666667</ele><time>2026-04-05T16:30:24Z</time></trkpt><trkpt lat="45.81309298867747" lon="13.519690487227397"><ele>6.0</ele><time>2026-04-05T16:30:25Z</time></trkpt><trkpt lat="45.81322463642782" lon="13.519580372986944"><ele>5.8</ele><time>2026-04-05T16:30:26Z</time></trkpt><trkpt lat="45.81333885916648" lon="13.519481797452281"><ele>5.6</ele><time>2026-04-05T16:30:27Z</time></trkpt><trkpt lat="45.81343590463633" lon="13.519400119628832"><ele>5.4</ele><time>2026-04-05T16:30:28Z</time></trkpt><trkpt lat="45.81351814096901" lon="13.519341034068631"><ele>5.2</ele><time>2026-04-05T16:30:29Z</time></trkpt><trkpt lat="45.813594734085214" lon="13.519303266823817"><ele>5.0</ele><time>2026-04-05T16:30:30Z</time></trkpt><trkpt lat="45.813673285586454" lon="13.5192868081928"><ele>5.0</ele><time>2026-04-05T16:30:31Z</time></trkpt><trkpt lat="45.81376236371105" lon="13.519297632667277"><ele>5.0</ele><time>2026-04-05T16:30:32Z</time></trkpt><trkpt lat="45.81385817392309" lon="13.519317942394574"><ele>5.0</ele><time>2026-04-05T16:30:33Z</time></trkpt><trkpt lat="45.81394385847441" lon="13.519315960883093"><ele>5.0</ele><time>2026-04-05T16:30:34Z</time></trkpt><trkpt lat="45.814019324786265" lon="13.519254167353283"><ele>5.0</ele><time>2026-04-05T16:30:35Z</time></trkpt><trkpt lat="45.81406325630871" lon="13.519139164111003"><ele>5.0</ele><time>2026-04-05T16:30:36Z</time></trkpt><trkpt lat="45.81408968915603" lon="13.519001215851958"><ele>5.0</ele><time>2026-04-05T16:30:37Z</time></trkpt><trkpt lat="45.81412845897007" lon="13.518852376793355"><ele>5.0</ele><time>2026-04-05T16:30:38Z</time></trkpt><trkpt lat="45.81418559755195" lon="13.51870423177362"><ele>5.0</ele><time>2026-04-05T16:30:39Z</time></trkpt><trkpt lat="45.81424294670779" lon="13.51853358312677"><ele>5.333333333333334</ele><time>2026-04-05T16:30:40Z</time></trkpt><trkpt lat="45.81433113381093" lon="13.518370663589687"><ele>5.666666666666667</ele><time>2026-04-05T16:30:41Z</time></trkpt><trkpt lat="45.81445019258447" lon="13.518197031629484"><ele>6.0</ele><time>2026-04-05T16:30:42Z</time></trkpt><trkpt lat="45.81458907237569" lon="13.518024262117125"><ele>5.666666666666667</ele><time>2026-04-05T16:30:43Z</time></trkpt><trkpt lat="45.81472033432121" lon="13.517862427524449"><ele>5.333333333333334</ele><time>2026-04-05T16:30:44Z</time></trkpt><trkpt lat="45.81483989100598" lon="13.51771833650195"><ele>5.0</ele><time>2026-04-05T16:30:45Z</time></trkpt><trkpt lat="45.81497206012291" lon="13.517591346849382"><ele>5.0</ele><time>2026-04-05T16:30:46Z</time></trkpt><trkpt lat="45.81510251669595" lon="13.517484616615137"><ele>5.0</ele><time>2026-04-05T16:30:47Z</time></trkpt><trkpt lat="45.815227912846225" lon="13.517387549919329"><ele>5.0</ele><time>2026-04-05T16:30:48Z</time></trkpt><trkpt lat="45.81535241998162" lon="13.517289593354613"><ele>5.0</ele><time>2026-04-05T16:30:49Z</time></trkpt><trkpt lat="45.815481045398286" lon="13.517191807541659"><ele>4.75</ele><time>2026-04-05T16:30:50Z</time></trkpt><trkpt lat="45.81560491765661" lon="13.517096971108032"><ele>4.5</ele><time>2026-04-05T16:30:51Z</time></trkpt><trkpt lat="45.81572314354515" lon="13.516993108277203"><ele>4.25</ele><time>2026-04-05T16:30:51.999Z</time></trkpt><trkpt lat="45.81583729579925" lon="13.516879515272326"><ele>4.0</ele><time>2026-04-05T16:30:53.001Z</time></trkpt><trkpt lat="45.81595053896729" lon="13.516745739293029"><ele>4.0</ele><time>2026-04-05T16:30:54.001Z</time></trkpt><trkpt lat="45.81605867356651" lon="13.516605009105085"><ele>4.0</ele><time>2026-04-05T16:30:55.001Z</time></trkpt><trkpt lat="45.8161610941148" lon="13.516460494267701"><ele>4.0</ele><time>2026-04-05T16:30:56.001Z</time></trkpt><trkpt lat="45.81626111623904" lon="13.516326691615248"><ele>4.0</ele><time>2026-04-05T16:30:57.001Z</time></trkpt><trkpt lat="45.81635818783155" lon="13.51619498677426"><ele>4.0</ele><time>2026-04-05T16:30:58.001Z</time></trkpt><trkpt lat="45.81645205691679" lon="13.516065476900724"><ele>4.0</ele><time>2026-04-05T16:30:59.001Z</time></trkpt><trkpt lat="45.816545101185184" lon="13.515940741008775"><ele>4.0</ele><time>2026-04-05T16:31:00.001Z</time></trkpt><trkpt lat="45.81663656938487" lon="13.515819285930766"><ele>4.0</ele><time>2026-04-05T16:31:01.001Z</time></trkpt><trkpt lat="45.81672093133636" lon="13.515703410153186"><ele>3.9999999999999996</ele><time>2026-04-05T16:31:02.001Z</time></trkpt><trkpt lat="45.81678710941309" lon="13.515597239348716"><ele>4.0</ele><time>2026-04-05T16:31:03.001Z</time></trkpt><trkpt lat="45.81683652906193" lon="13.51550157623422"><ele>4.0</ele><time>2026-04-05T16:31:04.001Z</time></trkpt><trkpt lat="45.8168887859648" lon="13.51540198796806"><ele>4.0</ele><time>2026-04-05T16:31:05.001Z</time></trkpt><trkpt lat="45.81696068912338" lon="13.515337181353072"><ele>3.9999999999999996</ele><time>2026-04-05T16:31:06.001Z</time></trkpt><trkpt lat="45.81704279656588" lon="13.515286361579335"><ele>4.0</ele><time>2026-04-05T16:31:07.001Z</time></trkpt><trkpt lat="45.817116800314004" lon="13.515196200718073"><ele>4.25</ele><time>2026-04-05T16:31:08.001Z</time></trkpt><trkpt lat="45.81719673592851" lon="13.515069949456313"><ele>4.5</ele><time>2026-04-05T16:31:09.001Z</time></trkpt><trkpt lat="45.817299410791705" lon="13.514944173724835"><ele>4.75</ele><time>2026-04-05T16:31:10Z</time></trkpt><trkpt lat="45.8174219339667" lon="13.514830768390697"><ele>5.0</ele><time>2026-04-05T16:31:11Z</time></trkpt><trkpt lat="45.817560681281556" lon="13.514712979210406"><ele>5.333333333333334</ele><time>2026-04-05T16:31:12Z</time></trkpt><trkpt lat="45.81770008994908" lon="13.514606409395936"><ele>5.666666666666667</ele><time>2026-04-05T16:31:13Z</time></trkpt><trkpt lat="45.81783967513412" lon="13.514517862815747"><ele>6.0</ele><time>2026-04-05T16:31:14Z</time></trkpt><trkpt lat="45.81798057347244" lon="13.514442741535362"><ele>6.666666666666666</ele><time>2026-04-05T16:31:15Z</time></trkpt><trkpt lat="45.8181345846454" lon="13.514379188681907"><ele>7.333333333333333</ele><time>2026-04-05T16:31:16Z</time></trkpt><trkpt lat="45.81830169847696" lon="13.514312583517397"><ele>8.0</ele><time>2026-04-05T16:31:17Z</time></trkpt><trkpt lat="45.81847951288694" lon="13.514251367739554"><ele>7.666666666666666</ele><time>2026-04-05T16:31:18Z</time></trkpt><trkpt lat="45.8186572938311" lon="13.514183486806047"><ele>7.333333333333334</ele><time>2026-04-05T16:31:19Z</time></trkpt><trkpt lat="45.81883649910723" lon="13.514116924493369"><ele>7.0</ele><time>2026-04-05T16:31:20Z</time></trkpt><trkpt lat="45.81901444259274" lon="13.514055450590298"><ele>7.0</ele><time>2026-04-05T16:31:21Z</time></trkpt><trkpt lat="45.81919420403106" lon="13.513991329023229"><ele>7.0</ele><time>2026-04-05T16:31:22Z</time></trkpt><trkpt lat="45.81938255722775" lon="13.513919823963922"><ele>7.0</ele><time>2026-04-05T16:31:23Z</time></trkpt><trkpt lat="45.81959303558659" lon="13.513864329999409"><ele>7.0</ele><time>2026-04-05T16:31:24Z</time></trkpt><trkpt lat="45.81980463987501" lon="13.513770427507673"><ele>7.0</ele><time>2026-04-05T16:31:25Z</time></trkpt><trkpt lat="45.82001242613189" lon="13.51369416720423"><ele>7.0</ele><time>2026-04-05T16:31:26Z</time></trkpt><trkpt lat="45.82020742191477" lon="13.513628722685704"><ele>7.0</ele><time>2026-04-05T16:31:27Z</time></trkpt><trkpt lat="45.820387875870466" lon="13.513563452231828"><ele>7.0</ele><time>2026-04-05T16:31:28Z</time></trkpt><trkpt lat="45.82054899270561" lon="13.51350230273255"><ele>7.0</ele><time>2026-04-05T16:31:29Z</time></trkpt><trkpt lat="45.82069790233909" lon="13.513442074028092"><ele>7.0</ele><time>2026-04-05T16:31:30Z</time></trkpt><trkpt lat="45.8208428282294" lon="13.513371473188514"><ele>7.0</ele><time>2026-04-05T16:31:31Z</time></trkpt><trkpt lat="45.82097911047614" lon="13.513285752246711"><ele>7.0</ele><time>2026-04-05T16:31:32Z</time></trkpt><trkpt lat="45.82110360952386" lon="13.513182304400246"><ele>7.0</ele><time>2026-04-05T16:31:33Z</time></trkpt><trkpt lat="45.821222284125845" lon="13.51306387267358"><ele>7.0</ele><time>2026-04-05T16:31:34Z</time></trkpt><trkpt lat="45.821334687883706" lon="13.512935553356428"><ele>7.0</ele><time>2026-04-05T16:31:35Z</time></trkpt><trkpt lat="45.82143510918682" lon="13.51279757987446"><ele>7.0</ele><time>2026-04-05T16:31:36Z</time></trkpt><trkpt lat="45.82152419222705" lon="13.512656787545405"><ele>7.0</ele><time>2026-04-05T16:31:37Z</time></trkpt><trkpt lat="45.821606719105006" lon="13.512516193702991"><ele>7.0</ele><time>2026-04-05T16:31:38Z</time></trkpt><trkpt lat="45.821672752048904" lon="13.512383491365082"><ele>6.999999999999999</ele><time>2026-04-05T16:31:39Z</time></trkpt><trkpt lat="45.82172563888522" lon="13.512261149357204"><ele>6.999999999999999</ele><time>2026-04-05T16:31:40Z</time></trkpt><trkpt lat="45.821776429007784" lon="13.512130572632024"><ele>7.0</ele><time>2026-04-05T16:31:41Z</time></trkpt><trkpt lat="45.821819760126886" lon="13.51200383999893"><ele>7.0</ele><time>2026-04-05T16:31:42Z</time></trkpt><trkpt lat="45.82186916850295" lon="13.51187145136941"><ele>7.25</ele><time>2026-04-05T16:31:43Z</time></trkpt><trkpt lat="45.82191678740302" lon="13.511725199407417"><ele>7.5</ele><time>2026-04-05T16:31:44Z</time></trkpt><trkpt lat="45.82197083545637" lon="13.511560670025435"><ele>7.75</ele><time>2026-04-05T16:31:45Z</time></trkpt><trkpt lat="45.822037892287156" lon="13.511390608837358"><ele>8.0</ele><time>2026-04-05T16:31:46Z</time></trkpt><trkpt lat="45.82211252284464" lon="13.5112095869264"><ele>8.0</ele><time>2026-04-05T16:31:47Z</time></trkpt><trkpt lat="45.822198225694855" lon="13.511032762419617"><ele>8.0</ele><time>2026-04-05T16:31:48Z</time></trkpt><trkpt lat="45.82228654890556" lon="13.510867227761064"><ele>8.0</ele><time>2026-04-05T16:31:49Z</time></trkpt><trkpt lat="45.82237037508342" lon="13.510720837413972"><ele>8.0</ele><time>2026-04-05T16:31:50Z</time></trkpt><trkpt lat="45.822451289526086" lon="13.51059975379466"><ele>8.0</ele><time>2026-04-05T16:31:51Z</time></trkpt><trkpt lat="45.8225357902438" lon="13.510478297473309"><ele>8.0</ele><time>2026-04-05T16:31:52Z</time></trkpt><trkpt lat="45.82261864078027" lon="13.510354683433155"><ele>8.0</ele><time>2026-04-05T16:31:53Z</time></trkpt><trkpt lat="45.82271435149964" lon="13.510225127851545"><ele>8.0</ele><time>2026-04-05T16:31:54Z</time></trkpt><trkpt lat="45.82281918527722" lon="13.510099085108624"><ele>8.75</ele><time>2026-04-05T16:31:55Z</time></trkpt><trkpt lat="45.82293203038146" lon="13.509974134127985"><ele>9.5</ele><time>2026-04-05T16:31:56Z</time></trkpt><trkpt lat="45.82305218569693" lon="13.509847782934564"><ele>10.25</ele><time>2026-04-05T16:31:57Z</time></trkpt><trkpt lat="45.82317439186442" lon="13.509724827302785"><ele>11.0</ele><time>2026-04-05T16:31:58Z</time></trkpt><trkpt lat="45.823295245484395" lon="13.509615608492592"><ele>11.25</ele><time>2026-04-05T16:31:59Z</time></trkpt><trkpt lat="45.823415561953595" lon="13.509519532173973"><ele>11.5</ele><time>2026-04-05T16:32:00Z</time></trkpt><trkpt lat="45.82353345788679" lon="13.509428471811399"><ele>11.75</ele><time>2026-04-05T16:32:01Z</time></trkpt><trkpt lat="45.82364811575359" lon="13.50934125429577"><ele>12.0</ele><time>2026-04-05T16:32:02Z</time></trkpt><trkpt lat="45.82376310504736" lon="13.509253830460812"><ele>11.25</ele><time>2026-04-05T16:32:03Z</time></trkpt><trkpt lat="45.82387440173565" lon="13.509165450166375"><ele>10.5</ele><time>2026-04-05T16:32:04Z</time></trkpt><trkpt lat="45.82398130918402" lon="13.509081820382093"><ele>9.75</ele><time>2026-04-05T16:32:05Z</time></trkpt><trkpt lat="45.82408791022865" lon="13.50899666390579"><ele>9.0</ele><time>2026-04-05T16:32:06Z</time></trkpt><trkpt lat="45.82420489348612" lon="13.508894144793276"><ele>8.333333333333334</ele><time>2026-04-05T16:32:07Z</time></trkpt><trkpt lat="45.82432388245484" lon="13.508770173787381"><ele>7.666666666666667</ele><time>2026-04-05T16:32:08Z</time></trkpt><trkpt lat="45.824437582897104" lon="13.508627215654702"><ele>7.0</ele><time>2026-04-05T16:32:09Z</time></trkpt><trkpt lat="45.824545563393364" lon="13.508466323092643"><ele>7.0</ele><time>2026-04-05T16:32:10Z</time></trkpt><trkpt lat="45.82465060200398" lon="13.508300184591935"><ele>7.0</ele><time>2026-04-05T16:32:11Z</time></trkpt><trkpt lat="45.82475381740739" lon="13.508131256983685"><ele>7.0</ele><time>2026-04-05T16:32:12Z</time></trkpt><trkpt lat="45.82485188821183" lon="13.507963141332812"><ele>7.25</ele><time>2026-04-05T16:32:13Z</time></trkpt><trkpt lat="45.82494118525694" lon="13.507805376641606"><ele>7.5</ele><time>2026-04-05T16:32:14Z</time></trkpt><trkpt lat="45.825023756888854" lon="13.507664618739533"><ele>7.75</ele><time>2026-04-05T16:32:15Z</time></trkpt><trkpt lat="45.82510705813128" lon="13.507524178328957"><ele>8.0</ele><time>2026-04-05T16:32:16Z</time></trkpt><trkpt lat="45.825189464640296" lon="13.507383263800948"><ele>8.0</ele><time>2026-04-05T16:32:17Z</time></trkpt><trkpt lat="45.82527495315378" lon="13.507244844869996"><ele>8.0</ele><time>2026-04-05T16:32:18Z</time></trkpt><trkpt lat="45.82536248842233" lon="13.50710120907271"><ele>8.0</ele><time>2026-04-05T16:32:19Z</time></trkpt><trkpt lat="45.825446218133706" lon="13.506952005752947"><ele>8.0</ele><time>2026-04-05T16:32:20Z</time></trkpt><trkpt lat="45.82552979256767" lon="13.50681266296193"><ele>7.999999999999999</ele><time>2026-04-05T16:32:21Z</time></trkpt><trkpt lat="45.82560584118493" lon="13.506684128779582"><ele>8.0</ele><time>2026-04-05T16:32:22Z</time></trkpt><trkpt lat="45.8256639458753" lon="13.50658618726319"><ele>8.0</ele><time>2026-04-05T16:32:23Z</time></trkpt><trkpt lat="45.82571422233064" lon="13.506506100537813"><ele>8.0</ele><time>2026-04-05T16:32:24Z</time></trkpt><trkpt lat="45.825760522261334" lon="13.506429120258929"><ele>7.999999999999999</ele><time>2026-04-05T16:32:25Z</time></trkpt><trkpt lat="45.825806327631604" lon="13.506356022076721"><ele>8.0</ele><time>2026-04-05T16:32:26Z</time></trkpt><trkpt lat="45.8258788433174" lon="13.506234071168313"><ele>7.833333333333333</ele><time>2026-04-05T16:32:28Z</time></trkpt><trkpt lat="45.825933363862006" lon="13.506144963954556"><ele>7.666666666666666</ele><time>2026-04-05T16:32:30Z</time></trkpt><trkpt lat="45.825983449803644" lon="13.506058279395416"><ele>7.5</ele><time>2026-04-05T16:32:32Z</time></trkpt><trkpt lat="45.826058255055834" lon="13.505930758809825"><ele>7.333333333333334</ele><time>2026-04-05T16:32:34Z</time></trkpt><trkpt lat="45.82610991143429" lon="13.505852262962984"><ele>7.166666666666667</ele><time>2026-04-05T16:32:35Z</time></trkpt><trkpt lat="45.82616493492949" lon="13.505761156975636"><ele>7.0</ele><time>2026-04-05T16:32:36Z</time></trkpt><trkpt lat="45.8262237883736" lon="13.505655420063349"><ele>7.333333333333334</ele><time>2026-04-05T16:32:37Z</time></trkpt><trkpt lat="45.82628961770311" lon="13.50555656568216"><ele>7.666666666666667</ele><time>2026-04-05T16:32:38Z</time></trkpt><trkpt lat="45.82635001835714" lon="13.505461357948674"><ele>8.0</ele><time>2026-04-05T16:32:39Z</time></trkpt><trkpt lat="45.82640022822592" lon="13.505379314457425"><ele>8.333333333333334</ele><time>2026-04-05T16:32:40Z</time></trkpt><trkpt lat="45.82644740787317" lon="13.505306459990749"><ele>8.666666666666666</ele><time>2026-04-05T16:32:41Z</time></trkpt><trkpt lat="45.82652464048829" lon="13.505179804667597"><ele>9.0</ele><time>2026-04-05T16:32:43Z</time></trkpt><trkpt lat="45.82658991661772" lon="13.505070647126097"><ele>9.0</ele><time>2026-04-05T16:32:45Z</time></trkpt><trkpt lat="45.82663703110187" lon="13.504989532648302"><ele>9.0</ele><time>2026-04-05T16:32:47Z</time></trkpt><trkpt lat="45.82668644208632" lon="13.504911572807014"><ele>9.0</ele><time>2026-04-05T16:32:51Z</time></trkpt><trkpt lat="45.82674561315292" lon="13.504806069042559"><ele>9.0</ele><time>2026-04-05T16:33:15Z</time></trkpt><trkpt lat="45.82679152145295" lon="13.504725035712859"><ele>9.0</ele><time>2026-04-05T16:33:16Z</time></trkpt><trkpt lat="45.82683942558116" lon="13.504638020709983"><ele>9.0</ele><time>2026-04-05T16:33:17Z</time></trkpt><trkpt lat="45.826887496585435" lon="13.50454960212039"><ele>9.0</ele><time>2026-04-05T16:33:18Z</time></trkpt><trkpt lat="45.826932749226096" lon="13.504454956359583"><ele>9.0</ele><time>2026-04-05T16:33:19Z</time></trkpt><trkpt lat="45.82696577479457" lon="13.504362455316562"><ele>9.0</ele><time>2026-04-05T16:33:20Z</time></trkpt><trkpt lat="45.82699526462743" lon="13.50425965498109"><ele>9.0</ele><time>2026-04-05T16:33:21Z</time></trkpt><trkpt lat="45.82701701650612" lon="13.504141308227775"><ele>9.0</ele><time>2026-04-05T16:33:22Z</time></trkpt><trkpt lat="45.8270302822171" lon="13.504015997534621"><ele>9.0</ele><time>2026-04-05T16:33:23Z</time></trkpt><trkpt lat="45.827043400027485" lon="13.503887882540024"><ele>9.0</ele><time>2026-04-05T16:33:24Z</time></trkpt><trkpt lat="45.82705966198194" lon="13.503751256580205"><ele>9.0</ele><time>2026-04-05T16:33:25Z</time></trkpt><trkpt lat="45.82707830766918" lon="13.50361360916442"><ele>9.0</ele><time>2026-04-05T16:33:26Z</time></trkpt><trkpt lat="45.82709123925213" lon="13.503476949729237"><ele>9.0</ele><time>2026-04-05T16:33:27Z</time></trkpt><trkpt lat="45.82709885701542" lon="13.503337381581396"><ele>9.0</ele><time>2026-04-05T16:33:28Z</time></trkpt><trkpt lat="45.82710797896487" lon="13.50320670992066"><ele>9.0</ele><time>2026-04-05T16:33:29Z</time></trkpt><trkpt lat="45.827114558858355" lon="13.503099148548637"><ele>9.0</ele><time>2026-04-05T16:33:30Z</time></trkpt><trkpt lat="45.827114407707" lon="13.502935772433004"><ele>9.0</ele><time>2026-04-05T16:33:32Z</time></trkpt><trkpt lat="45.82712037571568" lon="13.502802436892905"><ele>9.0</ele><time>2026-04-05T16:33:34Z</time></trkpt><trkpt lat="45.82712013294176" lon="13.502678310779954"><ele>9.0</ele><time>2026-04-05T16:33:37Z</time></trkpt><trkpt lat="45.827108944172195" lon="13.50245237444799"><ele>8.8</ele><time>2026-04-05T16:34:39Z</time></trkpt><trkpt lat="45.82714042664449" lon="13.502337407957455"><ele>8.600000000000001</ele><time>2026-04-05T16:34:40Z</time></trkpt><trkpt lat="45.827205923165366" lon="13.502214229386105"><ele>8.4</ele><time>2026-04-05T16:34:41Z</time></trkpt><trkpt lat="45.8272989575062" lon="13.502107633520522"><ele>8.200000000000001</ele><time>2026-04-05T16:34:42Z</time></trkpt><trkpt lat="45.82740173189287" lon="13.502023535479347"><ele>8.0</ele><time>2026-04-05T16:34:43Z</time></trkpt><trkpt lat="45.82751341232157" lon="13.501961833461555"><ele>8.0</ele><time>2026-04-05T16:34:44Z</time></trkpt><trkpt lat="45.827633705307036" lon="13.50194812205616"><ele>8.0</ele><time>2026-04-05T16:34:45Z</time></trkpt><trkpt lat="45.82774464071911" lon="13.501916665802216"><ele>8.0</ele><time>2026-04-05T16:34:46Z</time></trkpt><trkpt lat="45.827857309578114" lon="13.50186659191043"><ele>8.0</ele><time>2026-04-05T16:34:47Z</time></trkpt><trkpt lat="45.82796205750407" lon="13.501843999748058"><ele>8.25</ele><time>2026-04-05T16:34:48Z</time></trkpt><trkpt lat="45.828073878459875" lon="13.501807103827662"><ele>8.5</ele><time>2026-04-05T16:34:49Z</time></trkpt><trkpt lat="45.82819333104373" lon="13.501748633643652"><ele>8.75</ele><time>2026-04-05T16:34:50Z</time></trkpt><trkpt lat="45.82830787443436" lon="13.501697162529744"><ele>9.0</ele><time>2026-04-05T16:34:51Z</time></trkpt><trkpt lat="45.828419605703004" lon="13.501653119700043"><ele>9.75</ele><time>2026-04-05T16:34:52Z</time></trkpt><trkpt lat="45.828539177722874" lon="13.501614700010348"><ele>10.5</ele><time>2026-04-05T16:34:53Z</time></trkpt><trkpt lat="45.82865044650302" lon="13.501572782922928"><ele>11.25</ele><time>2026-04-05T16:34:54Z</time></trkpt><trkpt lat="45.82876331226095" lon="13.501534824273207"><ele>12.0</ele><time>2026-04-05T16:34:55Z</time></trkpt><trkpt lat="45.82887401391715" lon="13.501489848638158"><ele>12.0</ele><time>2026-04-05T16:34:55.999Z</time></trkpt><trkpt lat="45.828979000351666" lon="13.50144729787408"><ele>12.0</ele><time>2026-04-05T16:34:56.999Z</time></trkpt><trkpt lat="45.82908130060606" lon="13.50140852998908"><ele>12.0</ele><time>2026-04-05T16:34:57.999Z</time></trkpt><trkpt lat="45.82918803671841" lon="13.501357716315256"><ele>12.0</ele><time>2026-04-05T16:34:58.999Z</time></trkpt><trkpt lat="45.829303007909374" lon="13.501306052271614"><ele>12.0</ele><time>2026-04-05T16:34:59.999Z</time></trkpt><trkpt lat="45.82941259685002" lon="13.501245312543096"><ele>12.0</ele><time>2026-04-05T16:35:00.999Z</time></trkpt><trkpt lat="45.82951578476855" lon="13.501185050631253"><ele>12.0</ele><time>2026-04-05T16:35:01.999Z</time></trkpt><trkpt lat="45.82962022001882" lon="13.501120232956259"><ele>12.0</ele><time>2026-04-05T16:35:02.999Z</time></trkpt><trkpt lat="45.82972288179559" lon="13.501050582862515"><ele>12.0</ele><time>2026-04-05T16:35:03.999Z</time></trkpt><trkpt lat="45.8298325464397" lon="13.500976516091189"><ele>12.0</ele><time>2026-04-05T16:35:05Z</time></trkpt><trkpt lat="45.829949213100846" lon="13.500892365825417"><ele>12.0</ele><time>2026-04-05T16:35:06Z</time></trkpt><trkpt lat="45.83007189848155" lon="13.500803079538818"><ele>12.0</ele><time>2026-04-05T16:35:07Z</time></trkpt><trkpt lat="45.83019872199697" lon="13.50070978376551"><ele>12.0</ele><time>2026-04-05T16:35:08Z</time></trkpt><trkpt lat="45.83032971704653" lon="13.500612610499228"><ele>11.5</ele><time>2026-04-05T16:35:09Z</time></trkpt><trkpt lat="45.830466645013665" lon="13.500511269719528"><ele>11.0</ele><time>2026-04-05T16:35:10Z</time></trkpt><trkpt lat="45.83059997899623" lon="13.500408715443681"><ele>10.5</ele><time>2026-04-05T16:35:11Z</time></trkpt><trkpt lat="45.83072536508424" lon="13.50031250274874"><ele>10.0</ele><time>2026-04-05T16:35:12Z</time></trkpt><trkpt lat="45.830857744438404" lon="13.50021434686896"><ele>9.666666666666668</ele><time>2026-04-05T16:35:13Z</time></trkpt><trkpt lat="45.83100157550765" lon="13.50010946632207"><ele>9.333333333333334</ele><time>2026-04-05T16:35:14Z</time></trkpt><trkpt lat="45.83114917982778" lon="13.50000078630632"><ele>9.0</ele><time>2026-04-05T16:35:15Z</time></trkpt><trkpt lat="45.83130007230464" lon="13.499888310639712"><ele>9.0</ele><time>2026-04-05T16:35:16Z</time></trkpt><trkpt lat="45.83145614623476" lon="13.499774275796844"><ele>9.0</ele><time>2026-04-05T16:35:17Z</time></trkpt><trkpt lat="45.83161334027045" lon="13.49965741785474"><ele>9.0</ele><time>2026-04-05T16:35:18Z</time></trkpt><trkpt lat="45.8317659896786" lon="13.49954174553604"><ele>9.0</ele><time>2026-04-05T16:35:19Z</time></trkpt><trkpt lat="45.831915037844695" lon="13.49943094813325"><ele>9.0</ele><time>2026-04-05T16:35:20Z</time></trkpt><trkpt lat="45.83205478852918" lon="13.49932678632632"><ele>9.0</ele><time>2026-04-05T16:35:21Z</time></trkpt><trkpt lat="45.83219675322946" lon="13.499220887945024"><ele>9.0</ele><time>2026-04-05T16:35:22Z</time></trkpt><trkpt lat="45.83234391186888" lon="13.49911009846957"><ele>9.0</ele><time>2026-04-05T16:35:23Z</time></trkpt><trkpt lat="45.83249570473706" lon="13.49899621604603"><ele>9.0</ele><time>2026-04-05T16:35:24Z</time></trkpt><trkpt lat="45.83265538670132" lon="13.498879402593756"><ele>9.333333333333334</ele><time>2026-04-05T16:35:25Z</time></trkpt><trkpt lat="45.832813867757416" lon="13.498761793388999"><ele>9.666666666666668</ele><time>2026-04-05T16:35:26Z</time></trkpt><trkpt lat="45.83297764037805" lon="13.498637973422438"><ele>10.0</ele><time>2026-04-05T16:35:27Z</time></trkpt><trkpt lat="45.83314051833141" lon="13.498514884013924"><ele>10.0</ele><time>2026-04-05T16:35:28Z</time></trkpt><trkpt lat="45.83329964799751" lon="13.498392575772383"><ele>10.0</ele><time>2026-04-05T16:35:29Z</time></trkpt><trkpt lat="45.83345412915094" lon="13.49827602169925"><ele>10.0</ele><time>2026-04-05T16:35:30Z</time></trkpt><trkpt lat="45.83360655631868" lon="13.498162827088807"><ele>10.0</ele><time>2026-04-05T16:35:31Z</time></trkpt><trkpt lat="45.83375459803383" lon="13.498051702068913"><ele>10.0</ele><time>2026-04-05T16:35:32Z</time></trkpt><trkpt lat="45.83389902913756" lon="13.497946407777897"><ele>10.0</ele><time>2026-04-05T16:35:33Z</time></trkpt><trkpt lat="45.83403657971174" lon="13.49784680414265"><ele>10.25</ele><time>2026-04-05T16:35:34Z</time></trkpt><trkpt lat="45.834171239743384" lon="13.497743196721329"><ele>10.5</ele><time>2026-04-05T16:35:35Z</time></trkpt><trkpt lat="45.83430291553085" lon="13.497644411852274"><ele>10.75</ele><time>2026-04-05T16:35:36Z</time></trkpt><trkpt lat="45.834429683514905" lon="13.497553399664694"><ele>11.0</ele><time>2026-04-05T16:35:37Z</time></trkpt><trkpt lat="45.83455275807938" lon="13.497465386274564"><ele>11.0</ele><time>2026-04-05T16:35:38Z</time></trkpt><trkpt lat="45.83466894097018" lon="13.497377454877116"><ele>11.0</ele><time>2026-04-05T16:35:39Z</time></trkpt><trkpt lat="45.83477925968055" lon="13.49728980922937"><ele>11.0</ele><time>2026-04-05T16:35:40Z</time></trkpt><trkpt lat="45.83488936067696" lon="13.49720554606317"><ele>11.0</ele><time>2026-04-05T16:35:41Z</time></trkpt><trkpt lat="45.834999009294854" lon="13.497124548238666"><ele>11.0</ele><time>2026-04-05T16:35:42Z</time></trkpt><trkpt lat="45.835099679215034" lon="13.497046021450426"><ele>11.0</ele><time>2026-04-05T16:35:43Z</time></trkpt><trkpt lat="45.83518930253647" lon="13.496978799100821"><ele>11.0</ele><time>2026-04-05T16:35:44Z</time></trkpt><trkpt lat="45.83528279749429" lon="13.496911776197466"><ele>11.0</ele><time>2026-04-05T16:35:45Z</time></trkpt><trkpt lat="45.83538169703761" lon="13.496837516029677"><ele>11.0</ele><time>2026-04-05T16:35:46Z</time></trkpt><trkpt lat="45.835484949804794" lon="13.496760304316952"><ele>11.0</ele><time>2026-04-05T16:35:47Z</time></trkpt><trkpt lat="45.83559678425026" lon="13.496678578712345"><ele>11.0</ele><time>2026-04-05T16:35:48Z</time></trkpt><trkpt lat="45.83571494135948" lon="13.496591856058565"><ele>11.0</ele><time>2026-04-05T16:35:49Z</time></trkpt><trkpt lat="45.83583700437998" lon="13.496500379709971"><ele>11.0</ele><time>2026-04-05T16:35:50Z</time></trkpt><trkpt lat="45.83596789836729" lon="13.49640366227709"><ele>11.0</ele><time>2026-04-05T16:35:51Z</time></trkpt><trkpt lat="45.83610920296822" lon="13.496295947664581"><ele>11.0</ele><time>2026-04-05T16:35:52Z</time></trkpt><trkpt lat="45.83625606001058" lon="13.496185556949928"><ele>11.0</ele><time>2026-04-05T16:35:53Z</time></trkpt><trkpt lat="45.83639538942281" lon="13.496080327613068"><ele>11.0</ele><time>2026-04-05T16:35:54Z</time></trkpt><trkpt lat="45.836527831265514" lon="13.495982422620703"><ele>11.0</ele><time>2026-04-05T16:35:55Z</time></trkpt><trkpt lat="45.83665767159762" lon="13.495884597927997"><ele>11.0</ele><time>2026-04-05T16:35:56Z</time></trkpt><trkpt lat="45.83678711342961" lon="13.495785153308256"><ele>11.0</ele><time>2026-04-05T16:35:57Z</time></trkpt><trkpt lat="45.836913422095826" lon="13.49569104902028"><ele>11.0</ele><time>2026-04-05T16:35:58Z</time></trkpt><trkpt lat="45.83703572245022" lon="13.495600493773159"><ele>11.0</ele><time>2026-04-05T16:35:59Z</time></trkpt><trkpt lat="45.837161041401494" lon="13.49550912326701"><ele>11.0</ele><time>2026-04-05T16:36:00Z</time></trkpt><trkpt lat="45.837291857411586" lon="13.49541315285254"><ele>11.0</ele><time>2026-04-05T16:36:01Z</time></trkpt><trkpt lat="45.83742937338254" lon="13.495309715949446"><ele>11.333333333333332</ele><time>2026-04-05T16:36:02Z</time></trkpt><trkpt lat="45.83757929942723" lon="13.495197760227398"><ele>11.666666666666666</ele><time>2026-04-05T16:36:03Z</time></trkpt><trkpt lat="45.837733314634825" lon="13.495084482398969"><ele>12.0</ele><time>2026-04-05T16:36:04Z</time></trkpt><trkpt lat="45.83787945111297" lon="13.49497305372877"><ele>12.0</ele><time>2026-04-05T16:36:05Z</time></trkpt><trkpt lat="45.838015734862395" lon="13.494869955932302"><ele>12.0</ele><time>2026-04-05T16:36:06Z</time></trkpt><trkpt lat="45.838134402814426" lon="13.494772701437485"><ele>12.0</ele><time>2026-04-05T16:36:07Z</time></trkpt><trkpt lat="45.838250412013245" lon="13.494679629300583"><ele>12.0</ele><time>2026-04-05T16:36:08Z</time></trkpt><trkpt lat="45.83834740610566" lon="13.494594939451657"><ele>12.166666666666666</ele><time>2026-04-05T16:36:09Z</time></trkpt><trkpt lat="45.8384315564721" lon="13.494523104991597"><ele>12.333333333333332</ele><time>2026-04-05T16:36:10Z</time></trkpt><trkpt lat="45.838503646536566" lon="13.494453330412272"><ele>12.5</ele><time>2026-04-05T16:36:11Z</time></trkpt><trkpt lat="45.838566574042666" lon="13.49438845367265"><ele>12.666666666666666</ele><time>2026-04-05T16:36:12Z</time></trkpt><trkpt lat="45.838624413172575" lon="13.494334343199094"><ele>12.833333333333332</ele><time>2026-04-05T16:36:13Z</time></trkpt><trkpt lat="45.83868203873983" lon="13.49428726618265"><ele>13.0</ele><time>2026-04-05T16:36:14Z</time></trkpt><trkpt lat="45.83875391361294" lon="13.49424448542712"><ele>13.0</ele><time>2026-04-05T16:36:15Z</time></trkpt><trkpt lat="45.838819511455384" lon="13.494233217419067"><ele>13.0</ele><time>2026-04-05T16:36:16Z</time></trkpt><trkpt lat="45.83887810624019" lon="13.494154343976225"><ele>13.0</ele><time>2026-04-05T16:36:17Z</time></trkpt><trkpt lat="45.838948846484755" lon="13.494077231152623"><ele>13.0</ele><time>2026-04-05T16:36:18Z</time></trkpt><trkpt lat="45.839042366925895" lon="13.494006821901785"><ele>13.0</ele><time>2026-04-05T16:36:19Z</time></trkpt><trkpt lat="45.83915425180184" lon="13.493942906524508"><ele>13.0</ele><time>2026-04-05T16:36:20Z</time></trkpt><trkpt lat="45.83927764412608" lon="13.493870927780813"><ele>13.0</ele><time>2026-04-05T16:36:21Z</time></trkpt><trkpt lat="45.83940782173045" lon="13.493792636486447"><ele>13.0</ele><time>2026-04-05T16:36:22Z</time></trkpt><trkpt lat="45.83954128949736" lon="13.493706927261671"><ele>13.0</ele><time>2026-04-05T16:36:23Z</time></trkpt><trkpt lat="45.839671069716886" lon="13.493621378458302"><ele>13.5</ele><time>2026-04-05T16:36:24Z</time></trkpt><trkpt lat="45.83979709665982" lon="13.493538741427693"><ele>14.0</ele><time>2026-04-05T16:36:25Z</time></trkpt><trkpt lat="45.839913875932375" lon="13.493453199271187"><ele>14.5</ele><time>2026-04-05T16:36:26Z</time></trkpt><trkpt lat="45.84002431489863" lon="13.49337576957286"><ele>15.0</ele><time>2026-04-05T16:36:27Z</time></trkpt><trkpt lat="45.84013190601641" lon="13.493302328499096"><ele>14.25</ele><time>2026-04-05T16:36:28Z</time></trkpt><trkpt lat="45.84024398514698" lon="13.493215958464473"><ele>13.5</ele><time>2026-04-05T16:36:29Z</time></trkpt><trkpt lat="45.84035982031184" lon="13.493130018629044"><ele>12.75</ele><time>2026-04-05T16:36:30Z</time></trkpt><trkpt lat="45.84047682638127" lon="13.493043337675442"><ele>12.0</ele><time>2026-04-05T16:36:31Z</time></trkpt><trkpt lat="45.84058933947476" lon="13.492955588590908"><ele>12.25</ele><time>2026-04-05T16:36:32Z</time></trkpt><trkpt lat="45.84070308094791" lon="13.492867599378265"><ele>12.5</ele><time>2026-04-05T16:36:33Z</time></trkpt><trkpt lat="45.84081742539095" lon="13.492781135291377"><ele>12.75</ele><time>2026-04-05T16:36:34Z</time></trkpt><trkpt lat="45.84093120810911" lon="13.492692070443074"><ele>13.0</ele><time>2026-04-05T16:36:35Z</time></trkpt><trkpt lat="45.84104639924333" lon="13.492607301462126"><ele>13.0</ele><time>2026-04-05T16:36:36Z</time></trkpt><trkpt lat="45.84115905588394" lon="13.492524915537404"><ele>13.0</ele><time>2026-04-05T16:36:37Z</time></trkpt><trkpt lat="45.841268320951805" lon="13.492440734409431"><ele>13.0</ele><time>2026-04-05T16:36:38Z</time></trkpt><trkpt lat="45.84137342522141" lon="13.492360856814273"><ele>13.0</ele><time>2026-04-05T16:36:39Z</time></trkpt><trkpt lat="45.841473585526494" lon="13.492285302335214"><ele>13.0</ele><time>2026-04-05T16:36:40Z</time></trkpt><trkpt lat="45.841566932509274" lon="13.492209768515231"><ele>13.0</ele><time>2026-04-05T16:36:41Z</time></trkpt><trkpt lat="45.84166025453733" lon="13.492131820347309"><ele>13.0</ele><time>2026-04-05T16:36:42Z</time></trkpt><trkpt lat="45.84175573418337" lon="13.49205760632808"><ele>13.0</ele><time>2026-04-05T16:36:43Z</time></trkpt><trkpt lat="45.84185272946071" lon="13.491986905389206"><ele>13.0</ele><time>2026-04-05T16:36:44Z</time></trkpt><trkpt lat="45.84194616346207" lon="13.491912052909955"><ele>12.75</ele><time>2026-04-05T16:36:45Z</time></trkpt><trkpt lat="45.842039339474276" lon="13.491835406393719"><ele>12.5</ele><time>2026-04-05T16:36:46Z</time></trkpt><trkpt lat="45.84213909124097" lon="13.491761015948782"><ele>12.25</ele><time>2026-04-05T16:36:47Z</time></trkpt><trkpt lat="45.842247754942235" lon="13.491687387718798"><ele>12.0</ele><time>2026-04-05T16:36:48Z</time></trkpt><trkpt lat="45.842358134401586" lon="13.491607804717242"><ele>12.0</ele><time>2026-04-05T16:36:49Z</time></trkpt><trkpt lat="45.842466718050595" lon="13.49152952485698"><ele>12.0</ele><time>2026-04-05T16:36:50Z</time></trkpt><trkpt lat="45.842573770912274" lon="13.491456460071232"><ele>12.0</ele><time>2026-04-05T16:36:51Z</time></trkpt><trkpt lat="45.842683767061885" lon="13.491388536458988"><ele>12.0</ele><time>2026-04-05T16:36:52Z</time></trkpt><trkpt lat="45.842801120192846" lon="13.491308670192401"><ele>11.0</ele><time>2026-04-05T16:36:53Z</time></trkpt><trkpt lat="45.84292055420861" lon="13.491220402158595"><ele>10.0</ele><time>2026-04-05T16:36:54Z</time></trkpt><trkpt lat="45.84304024395041" lon="13.491120872458232"><ele>9.0</ele><time>2026-04-05T16:36:55Z</time></trkpt><trkpt lat="45.843166596619895" lon="13.491032604848469"><ele>8.0</ele><time>2026-04-05T16:36:55.999Z</time></trkpt><trkpt lat="45.84329785056663" lon="13.490936631058947"><ele>8.0</ele><time>2026-04-05T16:36:56.999Z</time></trkpt><trkpt lat="45.843425184370304" lon="13.490833639846885"><ele>8.0</ele><time>2026-04-05T16:36:57.999Z</time></trkpt><trkpt lat="45.843552379326816" lon="13.490729525330012"><ele>8.0</ele><time>2026-04-05T16:36:58.999Z</time></trkpt><trkpt lat="45.843684383071555" lon="13.49063828327943"><ele>8.0</ele><time>2026-04-05T16:36:59.999Z</time></trkpt><trkpt lat="45.84381552124944" lon="13.49053910204493"><ele>9.0</ele><time>2026-04-05T16:37:00.999Z</time></trkpt><trkpt lat="45.84394635718415" lon="13.490440116811298"><ele>10.0</ele><time>2026-04-05T16:37:01.999Z</time></trkpt><trkpt lat="45.84407987369226" lon="13.49034872701804"><ele>11.0</ele><time>2026-04-05T16:37:02.999Z</time></trkpt><trkpt lat="45.844213316683614" lon="13.490245588251888"><ele>12.0</ele><time>2026-04-05T16:37:03.999Z</time></trkpt><trkpt lat="45.84435293686995" lon="13.490134174805483"><ele>12.666666666666668</ele><time>2026-04-05T16:37:04.999Z</time></trkpt><trkpt lat="45.84449888596852" lon="13.490027938192647"><ele>13.333333333333334</ele><time>2026-04-05T16:37:05.999Z</time></trkpt><trkpt lat="45.84464526198802" lon="13.489915947974257"><ele>14.0</ele><time>2026-04-05T16:37:06.999Z</time></trkpt><trkpt lat="45.84479055741869" lon="13.489804620725412"><ele>14.0</ele><time>2026-04-05T16:37:07.999Z</time></trkpt><trkpt lat="45.84492127002191" lon="13.489707056076638"><ele>14.0</ele><time>2026-04-05T16:37:08.999Z</time></trkpt><trkpt lat="45.84504694907546" lon="13.489615662900128"><ele>14.0</ele><time>2026-04-05T16:37:10Z</time></trkpt><trkpt lat="45.845171247047645" lon="13.48952832558397"><ele>14.0</ele><time>2026-04-05T16:37:11Z</time></trkpt><trkpt lat="45.84529912462185" lon="13.489446098545294"><ele>14.25</ele><time>2026-04-05T16:37:12Z</time></trkpt><trkpt lat="45.8454187605853" lon="13.489354914633227"><ele>14.5</ele><time>2026-04-05T16:37:13Z</time></trkpt><trkpt lat="45.84554081418712" lon="13.489256446181145"><ele>14.75</ele><time>2026-04-05T16:37:14Z</time></trkpt><trkpt lat="45.845670972494304" lon="13.489153284354469"><ele>15.0</ele><time>2026-04-05T16:37:15Z</time></trkpt><trkpt lat="45.84581164277145" lon="13.489047379990238"><ele>15.0</ele><time>2026-04-05T16:37:16Z</time></trkpt><trkpt lat="45.84595487427379" lon="13.488937394176155"><ele>15.0</ele><time>2026-04-05T16:37:17Z</time></trkpt><trkpt lat="45.84610273294633" lon="13.488823753243363"><ele>15.0</ele><time>2026-04-05T16:37:18Z</time></trkpt><trkpt lat="45.84625400616396" lon="13.4887040240188"><ele>14.666666666666668</ele><time>2026-04-05T16:37:19Z</time></trkpt><trkpt lat="45.84640673284935" lon="13.488588293147659"><ele>14.333333333333334</ele><time>2026-04-05T16:37:20Z</time></trkpt><trkpt lat="45.846565814973815" lon="13.488476077981105"><ele>14.0</ele><time>2026-04-05T16:37:21Z</time></trkpt><trkpt lat="45.84672263869467" lon="13.488359907659376"><ele>14.666666666666668</ele><time>2026-04-05T16:37:22Z</time></trkpt><trkpt lat="45.84688173391946" lon="13.488239939538618"><ele>15.333333333333332</ele><time>2026-04-05T16:37:23Z</time></trkpt><trkpt lat="45.847041970068744" lon="13.488119081032167"><ele>16.0</ele><time>2026-04-05T16:37:24Z</time></trkpt><trkpt lat="45.84719958803107" lon="13.487987288965266"><ele>15.666666666666666</ele><time>2026-04-05T16:37:25Z</time></trkpt><trkpt lat="45.84735235585818" lon="13.48784562762716"><ele>15.333333333333332</ele><time>2026-04-05T16:37:26Z</time></trkpt><trkpt lat="45.847508114618954" lon="13.487705604231587"><ele>15.0</ele><time>2026-04-05T16:37:27Z</time></trkpt><trkpt lat="45.84767207521523" lon="13.48758507162675"><ele>15.0</ele><time>2026-04-05T16:37:28Z</time></trkpt><trkpt lat="45.847848533157574" lon="13.487511177495582"><ele>15.0</ele><time>2026-04-05T16:37:29Z</time></trkpt><trkpt lat="45.84802064181875" lon="13.487453691161868"><ele>15.0</ele><time>2026-04-05T16:37:30Z</time></trkpt><trkpt lat="45.84819060699953" lon="13.48739172335412"><ele>15.0</ele><time>2026-04-05T16:37:31Z</time></trkpt><trkpt lat="45.84835378209373" lon="13.487343500361998"><ele>15.0</ele><time>2026-04-05T16:37:32Z</time></trkpt><trkpt lat="45.84851498145594" lon="13.487295151341005"><ele>15.0</ele><time>2026-04-05T16:37:33Z</time></trkpt><trkpt lat="45.84867075003715" lon="13.48723384818857"><ele>15.333333333333332</ele><time>2026-04-05T16:37:34Z</time></trkpt><trkpt lat="45.84882483752818" lon="13.487180492773714"><ele>15.666666666666666</ele><time>2026-04-05T16:37:35Z</time></trkpt><trkpt lat="45.84897818250862" lon="13.487132808373211"><ele>16.0</ele><time>2026-04-05T16:37:36Z</time></trkpt><trkpt lat="45.84912866294521" lon="13.487084938450236"><ele>17.5</ele><time>2026-04-05T16:37:37Z</time></trkpt><trkpt lat="45.849272963173135" lon="13.487033319624313"><ele>19.0</ele><time>2026-04-05T16:37:38Z</time></trkpt><trkpt lat="45.84940635063905" lon="13.486987423107648"><ele>20.5</ele><time>2026-04-05T16:37:39Z</time></trkpt><trkpt lat="45.8495217390073" lon="13.486949852034712"><ele>22.0</ele><time>2026-04-05T16:37:40Z</time></trkpt><trkpt lat="45.84963105284699" lon="13.486915221592756"><ele>22.0</ele><time>2026-04-05T16:37:41Z</time></trkpt><trkpt lat="45.84973605077344" lon="13.486880947985126"><ele>22.0</ele><time>2026-04-05T16:37:42Z</time></trkpt><trkpt lat="45.849841103580104" lon="13.486842233344921"><ele>22.0</ele><time>2026-04-05T16:37:43Z</time></trkpt><trkpt lat="45.84994193623253" lon="13.486789854426778"><ele>22.0</ele><time>2026-04-05T16:37:44Z</time></trkpt><trkpt lat="45.85003986921043" lon="13.486763951410866"><ele>22.0</ele><time>2026-04-05T16:37:45Z</time></trkpt><trkpt lat="45.85012994780121" lon="13.486731798887002"><ele>22.200000000000003</ele><time>2026-04-05T16:37:46Z</time></trkpt><trkpt lat="45.85022937342858" lon="13.486696310096217"><ele>22.4</ele><time>2026-04-05T16:37:47Z</time></trkpt><trkpt lat="45.8503242212804" lon="13.486662455266922"><ele>22.6</ele><time>2026-04-05T16:37:48Z</time></trkpt><trkpt lat="45.850427894818" lon="13.486625450227203"><ele>22.799999999999997</ele><time>2026-04-05T16:37:49Z</time></trkpt><trkpt lat="45.850534851793626" lon="13.486587249106472"><ele>23.0</ele><time>2026-04-05T16:37:50Z</time></trkpt><trkpt lat="45.85063305230419" lon="13.486551759825545"><ele>23.0</ele><time>2026-04-05T16:37:51Z</time></trkpt><trkpt lat="45.850720841172894" lon="13.486520033241575"><ele>23.0</ele><time>2026-04-05T16:37:52Z</time></trkpt><trkpt lat="45.85080556586607" lon="13.486489414060733"><ele>23.0</ele><time>2026-04-05T16:37:53Z</time></trkpt><trkpt lat="45.85088749585778" lon="13.486459804883685"><ele>23.0</ele><time>2026-04-05T16:37:54Z</time></trkpt><trkpt lat="45.850965169706306" lon="13.486432771490552"><ele>23.0</ele><time>2026-04-05T16:37:55Z</time></trkpt><trkpt lat="45.85103884878173" lon="13.486396319045886"><ele>23.0</ele><time>2026-04-05T16:37:56Z</time></trkpt><trkpt lat="45.85114462131963" lon="13.486393046924505"><ele>22.5</ele><time>2026-04-05T16:37:57Z</time></trkpt><trkpt lat="45.851254779822185" lon="13.486360297986458"><ele>22.0</ele><time>2026-04-05T16:37:58Z</time></trkpt><trkpt lat="45.85136664563162" lon="13.486322073324287"><ele>21.5</ele><time>2026-04-05T16:37:59Z</time></trkpt><trkpt lat="45.85147703571578" lon="13.486283492147239"><ele>21.0</ele><time>2026-04-05T16:38:00Z</time></trkpt><trkpt lat="45.85158670237743" lon="13.486247300547886"><ele>20.5</ele><time>2026-04-05T16:38:01Z</time></trkpt><trkpt lat="45.8516932312936" lon="13.48621173978006"><ele>20.0</ele><time>2026-04-05T16:38:02Z</time></trkpt><trkpt lat="45.85180265191228" lon="13.486178147667236"><ele>19.5</ele><time>2026-04-05T16:38:03Z</time></trkpt><trkpt lat="45.85191481198715" lon="13.486142045268252"><ele>19.0</ele><time>2026-04-05T16:38:04Z</time></trkpt><trkpt lat="45.852027220592234" lon="13.486103169540465"><ele>19.0</ele><time>2026-04-05T16:38:05Z</time></trkpt><trkpt lat="45.85214129973176" lon="13.486069060573193"><ele>19.0</ele><time>2026-04-05T16:38:06Z</time></trkpt><trkpt lat="45.85225605100391" lon="13.486034186401012"><ele>19.0</ele><time>2026-04-05T16:38:07Z</time></trkpt><trkpt lat="45.852371705161325" lon="13.485999196318634"><ele>19.0</ele><time>2026-04-05T16:38:08Z</time></trkpt><trkpt lat="45.85248599861293" lon="13.485961977094739"><ele>19.0</ele><time>2026-04-05T16:38:09Z</time></trkpt><trkpt lat="45.852598721119314" lon="13.485921436744366"><ele>19.0</ele><time>2026-04-05T16:38:10Z</time></trkpt><trkpt lat="45.852713503039496" lon="13.485883070274278"><ele>19.0</ele><time>2026-04-05T16:38:11Z</time></trkpt><trkpt lat="45.85283064363565" lon="13.485840747877427"><ele>19.0</ele><time>2026-04-05T16:38:12Z</time></trkpt><trkpt lat="45.85295012771621" lon="13.485800548617611"><ele>18.5</ele><time>2026-04-05T16:38:13Z</time></trkpt><trkpt lat="45.85306955245969" lon="13.485760532631367"><ele>18.0</ele><time>2026-04-05T16:38:14Z</time></trkpt><trkpt lat="45.853191451058855" lon="13.485719038290044"><ele>17.5</ele><time>2026-04-05T16:38:15Z</time></trkpt><trkpt lat="45.85331618451744" lon="13.48567955270634"><ele>17.0</ele><time>2026-04-05T16:38:16Z</time></trkpt><trkpt lat="45.853443349736" lon="13.485636747670009"><ele>17.25</ele><time>2026-04-05T16:38:17Z</time></trkpt><trkpt lat="45.85357934693577" lon="13.485593133076058"><ele>17.5</ele><time>2026-04-05T16:38:18Z</time></trkpt><trkpt lat="45.853721927122535" lon="13.48554915056833"><ele>17.75</ele><time>2026-04-05T16:38:19Z</time></trkpt><trkpt lat="45.85386840004042" lon="13.485502163638749"><ele>18.0</ele><time>2026-04-05T16:38:20Z</time></trkpt><trkpt lat="45.85402022401262" lon="13.485453905392916"><ele>18.333333333333332</ele><time>2026-04-05T16:38:21Z</time></trkpt><trkpt lat="45.854178349449406" lon="13.485402852816094"><ele>18.666666666666664</ele><time>2026-04-05T16:38:22Z</time></trkpt><trkpt lat="45.854337352348246" lon="13.485351815917419"><ele>19.0</ele><time>2026-04-05T16:38:23Z</time></trkpt><trkpt lat="45.85449574166936" lon="13.485295128162525"><ele>18.0</ele><time>2026-04-05T16:38:24Z</time></trkpt><trkpt lat="45.85465512752382" lon="13.485239796321927"><ele>17.0</ele><time>2026-04-05T16:38:25Z</time></trkpt><trkpt lat="45.854818474205366" lon="13.485190404752165"><ele>16.0</ele><time>2026-04-05T16:38:26Z</time></trkpt><trkpt lat="45.854980304329295" lon="13.485139096200625"><ele>16.0</ele><time>2026-04-05T16:38:27Z</time></trkpt><trkpt lat="45.855129169669965" lon="13.485086429099894"><ele>16.0</ele><time>2026-04-05T16:38:28Z</time></trkpt><trkpt lat="45.85526339881261" lon="13.485045900110785"><ele>16.0</ele><time>2026-04-05T16:38:29Z</time></trkpt><trkpt lat="45.85539459498296" lon="13.48500270296299"><ele>16.0</ele><time>2026-04-05T16:38:30Z</time></trkpt><trkpt lat="45.85552163263914" lon="13.484962128299115"><ele>16.0</ele><time>2026-04-05T16:38:31Z</time></trkpt><trkpt lat="45.85564652595582" lon="13.484925545494171"><ele>16.0</ele><time>2026-04-05T16:38:32Z</time></trkpt><trkpt lat="45.85577302642568" lon="13.484881862221004"><ele>16.0</ele><time>2026-04-05T16:38:33Z</time></trkpt><trkpt lat="45.85589901732889" lon="13.484836202731953"><ele>16.0</ele><time>2026-04-05T16:38:34Z</time></trkpt><trkpt lat="45.85602563815681" lon="13.48479392753821"><ele>16.5</ele><time>2026-04-05T16:38:35Z</time></trkpt><trkpt lat="45.85615139786711" lon="13.484755502075712"><ele>17.0</ele><time>2026-04-05T16:38:36Z</time></trkpt><trkpt lat="45.85627586455047" lon="13.484714216980512"><ele>17.5</ele><time>2026-04-05T16:38:37Z</time></trkpt><trkpt lat="45.85640052445303" lon="13.484677836356154"><ele>18.0</ele><time>2026-04-05T16:38:38Z</time></trkpt><trkpt lat="45.8565265079497" lon="13.484639627566557"><ele>18.0</ele><time>2026-04-05T16:38:39Z</time></trkpt><trkpt lat="45.85665256182569" lon="13.484598988193795"><ele>18.0</ele><time>2026-04-05T16:38:40Z</time></trkpt><trkpt lat="45.856777778095996" lon="13.484556861717511"><ele>18.0</ele><time>2026-04-05T16:38:41Z</time></trkpt><trkpt lat="45.856904731775124" lon="13.48451688384772"><ele>18.0</ele><time>2026-04-05T16:38:42Z</time></trkpt><trkpt lat="45.85703117544387" lon="13.484474742504645"><ele>18.0</ele><time>2026-04-05T16:38:43Z</time></trkpt><trkpt lat="45.85715639801564" lon="13.484430907882533"><ele>18.0</ele><time>2026-04-05T16:38:44Z</time></trkpt><trkpt lat="45.857282664639136" lon="13.484387626506413"><ele>18.0</ele><time>2026-04-05T16:38:45Z</time></trkpt><trkpt lat="45.85740930564084" lon="13.484348047061438"><ele>18.0</ele><time>2026-04-05T16:38:46Z</time></trkpt><trkpt lat="45.857536645758366" lon="13.484308234810447"><ele>17.5</ele><time>2026-04-05T16:38:47Z</time></trkpt><trkpt lat="45.857663692689044" lon="13.48426526773374"><ele>17.0</ele><time>2026-04-05T16:38:48Z</time></trkpt><trkpt lat="45.857790288812325" lon="13.48422422958518"><ele>16.5</ele><time>2026-04-05T16:38:49Z</time></trkpt><trkpt lat="45.85791756557774" lon="13.484183399429929"><ele>16.0</ele><time>2026-04-05T16:38:50Z</time></trkpt><trkpt lat="45.858044984987615" lon="13.484144116072256"><ele>16.0</ele><time>2026-04-05T16:38:51Z</time></trkpt><trkpt lat="45.8581705067676" lon="13.484101651884489"><ele>16.0</ele><time>2026-04-05T16:38:52Z</time></trkpt><trkpt lat="45.858296998660634" lon="13.484063426188099"><ele>16.0</ele><time>2026-04-05T16:38:53Z</time></trkpt><trkpt lat="45.85842610466674" lon="13.484021874435662"><ele>16.0</ele><time>2026-04-05T16:38:54Z</time></trkpt><trkpt lat="45.85856160670813" lon="13.483978835404935"><ele>16.75</ele><time>2026-04-05T16:38:55Z</time></trkpt><trkpt lat="45.85870154717139" lon="13.483933532888843"><ele>17.5</ele><time>2026-04-05T16:38:56Z</time></trkpt><trkpt lat="45.858845824708474" lon="13.48389165976363"><ele>18.25</ele><time>2026-04-05T16:38:57Z</time></trkpt><trkpt lat="45.85899229648686" lon="13.48385332342014"><ele>19.0</ele><time>2026-04-05T16:38:57.999Z</time></trkpt><trkpt lat="45.85914674488603" lon="13.483800795695927"><ele>19.0</ele><time>2026-04-05T16:38:58.999Z</time></trkpt><trkpt lat="45.859309742711154" lon="13.483742259027908"><ele>19.0</ele><time>2026-04-05T16:38:59.999Z</time></trkpt><trkpt lat="45.859480572636045" lon="13.483683794528956"><ele>19.0</ele><time>2026-04-05T16:39:00.999Z</time></trkpt><trkpt lat="45.85965554598862" lon="13.483628053074563"><ele>19.0</ele><time>2026-04-05T16:39:01.999Z</time></trkpt><trkpt lat="45.85983075784464" lon="13.483570764582769"><ele>19.0</ele><time>2026-04-05T16:39:02.999Z</time></trkpt><trkpt lat="45.860007450737584" lon="13.483513321064814"><ele>19.0</ele><time>2026-04-05T16:39:03.999Z</time></trkpt><trkpt lat="45.86018333906853" lon="13.48345724763334"><ele>19.333333333333332</ele><time>2026-04-05T16:39:04.999Z</time></trkpt><trkpt lat="45.86035532782275" lon="13.483399860409568"><ele>19.666666666666668</ele><time>2026-04-05T16:39:05.999Z</time></trkpt><trkpt lat="45.86052395010232" lon="13.483346086338276"><ele>20.0</ele><time>2026-04-05T16:39:06.999Z</time></trkpt><trkpt lat="45.860682889242774" lon="13.483295759375425"><ele>20.0</ele><time>2026-04-05T16:39:07.999Z</time></trkpt><trkpt lat="45.86082567442397" lon="13.483251010926006"><ele>20.0</ele><time>2026-04-05T16:39:08.999Z</time></trkpt><trkpt lat="45.86096331232598" lon="13.483206197117374"><ele>20.0</ele><time>2026-04-05T16:39:09.999Z</time></trkpt><trkpt lat="45.86109584013167" lon="13.483164088280784"><ele>20.0</ele><time>2026-04-05T16:39:10.999Z</time></trkpt><trkpt lat="45.86122326588052" lon="13.483123464071753"><ele>19.75</ele><time>2026-04-05T16:39:11.999Z</time></trkpt><trkpt lat="45.861348162951536" lon="13.483083212108578"><ele>19.5</ele><time>2026-04-05T16:39:12.999Z</time></trkpt><trkpt lat="45.86146639207679" lon="13.483041675535986"><ele>19.25</ele><time>2026-04-05T16:39:13.999Z</time></trkpt><trkpt lat="45.86158066007547" lon="13.483002425534798"><ele>19.0</ele><time>2026-04-05T16:39:14.999Z</time></trkpt><trkpt lat="45.8616873730163" lon="13.482969663630882"><ele>19.2</ele><time>2026-04-05T16:39:16Z</time></trkpt><trkpt lat="45.861795121370996" lon="13.482934873372972"><ele>19.4</ele><time>2026-04-05T16:39:17Z</time></trkpt><trkpt lat="45.86190341870119" lon="13.48289817066906"><ele>19.6</ele><time>2026-04-05T16:39:18Z</time></trkpt><trkpt lat="45.862015731406075" lon="13.482885598697528"><ele>19.8</ele><time>2026-04-05T16:39:19Z</time></trkpt><trkpt lat="45.86212081556562" lon="13.482828112438733"><ele>20.0</ele><time>2026-04-05T16:39:20Z</time></trkpt><trkpt lat="45.86222695023734" lon="13.482792393751"><ele>20.0</ele><time>2026-04-05T16:39:21Z</time></trkpt><trkpt lat="45.86231874069113" lon="13.482752522838952"><ele>20.0</ele><time>2026-04-05T16:39:22Z</time></trkpt><trkpt lat="45.86240689132404" lon="13.482710063663873"><ele>20.0</ele><time>2026-04-05T16:39:23Z</time></trkpt><trkpt lat="45.8624849243124" lon="13.482662660798802"><ele>20.0</ele><time>2026-04-05T16:39:24Z</time></trkpt><trkpt lat="45.86254557304656" lon="13.482616365795733"><ele>20.0</ele><time>2026-04-05T16:39:25Z</time></trkpt><trkpt lat="45.862627060377086" lon="13.48254654577596"><ele>20.0</ele><time>2026-04-05T16:39:27Z</time></trkpt><trkpt lat="45.86270602185549" lon="13.482509750862476"><ele>20.0</ele><time>2026-04-05T16:39:29Z</time></trkpt><trkpt lat="45.86282462257764" lon="13.482519652077086"><ele>20.0</ele><time>2026-04-05T16:39:31Z</time></trkpt><trkpt lat="45.862891515463836" lon="13.482519535982856"><ele>20.0</ele><time>2026-04-05T16:39:32Z</time></trkpt><trkpt lat="45.86296185338174" lon="13.482500950639817"><ele>20.0</ele><time>2026-04-05T16:39:33Z</time></trkpt><trkpt lat="45.863033147645446" lon="13.482478798711927"><ele>20.0</ele><time>2026-04-05T16:39:34Z</time></trkpt><trkpt lat="45.86310630233373" lon="13.482469439594256"><ele>20.0</ele><time>2026-04-05T16:39:35Z</time></trkpt><trkpt lat="45.863186309180165" lon="13.482465945268482"><ele>20.0</ele><time>2026-04-05T16:39:36Z</time></trkpt><trkpt lat="45.8632706764424" lon="13.482462193329475"><ele>20.0</ele><time>2026-04-05T16:39:37Z</time></trkpt><trkpt lat="45.86335972508489" lon="13.4824502422187"><ele>20.0</ele><time>2026-04-05T16:39:38Z</time></trkpt><trkpt lat="45.86345029784258" lon="13.482426742990478"><ele>20.0</ele><time>2026-04-05T16:39:39Z</time></trkpt><trkpt lat="45.8635428489426" lon="13.482402512102006"><ele>20.0</ele><time>2026-04-05T16:39:40Z</time></trkpt><trkpt lat="45.86363632538335" lon="13.482378053769468"><ele>20.166666666666668</ele><time>2026-04-05T16:39:41Z</time></trkpt><trkpt lat="45.86372924538496" lon="13.48235012557474"><ele>20.333333333333336</ele><time>2026-04-05T16:39:42Z</time></trkpt><trkpt lat="45.86382301525382" lon="13.482320143979075"><ele>20.5</ele><time>2026-04-05T16:39:43Z</time></trkpt><trkpt lat="45.863909311828756" lon="13.482292407938987"><ele>20.666666666666668</ele><time>2026-04-05T16:39:44Z</time></trkpt><trkpt lat="45.863992895254476" lon="13.482265536572575"><ele>20.833333333333332</ele><time>2026-04-05T16:39:45Z</time></trkpt><trkpt lat="45.86407179484254" lon="13.482240921131115"><ele>21.0</ele><time>2026-04-05T16:39:46Z</time></trkpt><trkpt lat="45.86414834664667" lon="13.482216426528943"><ele>21.0</ele><time>2026-04-05T16:39:47Z</time></trkpt><trkpt lat="45.86422409594711" lon="13.48219426658093"><ele>21.0</ele><time>2026-04-05T16:39:48Z</time></trkpt><trkpt lat="45.864303348002316" lon="13.482169635451305"><ele>21.0</ele><time>2026-04-05T16:39:49Z</time></trkpt><trkpt lat="45.86438473830528" lon="13.482142563632593"><ele>21.0</ele><time>2026-04-05T16:39:50Z</time></trkpt><trkpt lat="45.864471561145315" lon="13.482113904348571"><ele>21.0</ele><time>2026-04-05T16:39:51Z</time></trkpt><trkpt lat="45.864562602395374" lon="13.482086172954402"><ele>21.0</ele><time>2026-04-05T16:39:52Z</time></trkpt><trkpt lat="45.8646563887094" lon="13.482060499245987"><ele>21.200000000000003</ele><time>2026-04-05T16:39:53Z</time></trkpt><trkpt lat="45.86475073294835" lon="13.482030397803952"><ele>21.400000000000002</ele><time>2026-04-05T16:39:54Z</time></trkpt><trkpt lat="45.86484466664547" lon="13.482004329969579"><ele>21.6</ele><time>2026-04-05T16:39:55Z</time></trkpt><trkpt lat="45.864937858769224" lon="13.481975667138329"><ele>21.8</ele><time>2026-04-05T16:39:56Z</time></trkpt><trkpt lat="45.865032842759426" lon="13.481945070006507"><ele>22.0</ele><time>2026-04-05T16:39:57Z</time></trkpt><trkpt lat="45.865128787327606" lon="13.481914821901988"><ele>22.166666666666664</ele><time>2026-04-05T16:39:58Z</time></trkpt><trkpt lat="45.86522485474744" lon="13.481883248474892"><ele>22.333333333333332</ele><time>2026-04-05T16:39:59Z</time></trkpt><trkpt lat="45.86531154695565" lon="13.481853949836982"><ele>22.5</ele><time>2026-04-05T16:40:00Z</time></trkpt><trkpt lat="45.865394929260205" lon="13.48182537546895"><ele>22.666666666666668</ele><time>2026-04-05T16:40:01Z</time></trkpt><trkpt lat="45.86547655996169" lon="13.481802681388112"><ele>22.833333333333336</ele><time>2026-04-05T16:40:02Z</time></trkpt><trkpt lat="45.86556209820525" lon="13.48177540055719"><ele>23.0</ele><time>2026-04-05T16:40:03Z</time></trkpt><trkpt lat="45.86564757388582" lon="13.481739593502345"><ele>23.0</ele><time>2026-04-05T16:40:04Z</time></trkpt><trkpt lat="45.865736041369765" lon="13.481704086683992"><ele>23.0</ele><time>2026-04-05T16:40:05Z</time></trkpt><trkpt lat="45.865827539985425" lon="13.481658841516158"><ele>23.0</ele><time>2026-04-05T16:40:06Z</time></trkpt><trkpt lat="45.865922052343954" lon="13.481616283136209"><ele>23.0</ele><time>2026-04-05T16:40:07Z</time></trkpt><trkpt lat="45.86601680219672" lon="13.481580727726117"><ele>23.0</ele><time>2026-04-05T16:40:08Z</time></trkpt><trkpt lat="45.866105769619715" lon="13.481549078750446"><ele>22.833333333333336</ele><time>2026-04-05T16:40:09Z</time></trkpt><trkpt lat="45.86619542988124" lon="13.481526893713218"><ele>22.666666666666668</ele><time>2026-04-05T16:40:10Z</time></trkpt><trkpt lat="45.86628511547862" lon="13.48151143478524"><ele>22.5</ele><time>2026-04-05T16:40:11Z</time></trkpt><trkpt lat="45.86637264356025" lon="13.481489642815777"><ele>22.333333333333332</ele><time>2026-04-05T16:40:12Z</time></trkpt><trkpt lat="45.86644815493345" lon="13.481477846386817"><ele>22.166666666666664</ele><time>2026-04-05T16:40:13Z</time></trkpt><trkpt lat="45.866516575426985" lon="13.481485682403573"><ele>22.0</ele><time>2026-04-05T16:40:14Z</time></trkpt><trkpt lat="45.86658158537073" lon="13.481513548959608"><ele>22.0</ele><time>2026-04-05T16:40:15Z</time></trkpt><trkpt lat="45.86663717540907" lon="13.4815755151664"><ele>22.0</ele><time>2026-04-05T16:40:16Z</time></trkpt><trkpt lat="45.86668466520726" lon="13.481658088264265"><ele>22.0</ele><time>2026-04-05T16:40:17Z</time></trkpt><trkpt lat="45.86673998492647" lon="13.481726023285823"><ele>22.0</ele><time>2026-04-05T16:40:18Z</time></trkpt><trkpt lat="45.866821894622525" lon="13.481740864457164"><ele>22.0</ele><time>2026-04-05T16:40:19Z</time></trkpt><trkpt lat="45.86689337976544" lon="13.481705919251059"><ele>22.0</ele><time>2026-04-05T16:40:20Z</time></trkpt><trkpt lat="45.866950300521886" lon="13.481633961245779"><ele>21.714285714285715</ele><time>2026-04-05T16:40:21Z</time></trkpt><trkpt lat="45.866998416429254" lon="13.481553097914123"><ele>21.428571428571427</ele><time>2026-04-05T16:40:22Z</time></trkpt><trkpt lat="45.86705607541004" lon="13.481483811703205"><ele>21.142857142857142</ele><time>2026-04-05T16:40:23Z</time></trkpt><trkpt lat="45.86712672705478" lon="13.48143774932371"><ele>20.857142857142858</ele><time>2026-04-05T16:40:24Z</time></trkpt><trkpt lat="45.86719289173057" lon="13.48141452157624"><ele>20.571428571428573</ele><time>2026-04-05T16:40:25Z</time></trkpt><trkpt lat="45.86725765484666" lon="13.481408683647693"><ele>20.285714285714285</ele><time>2026-04-05T16:40:26Z</time></trkpt><trkpt lat="45.86732716321239" lon="13.481414466535856"><ele>20.0</ele><time>2026-04-05T16:40:27Z</time></trkpt><trkpt lat="45.867390842267895" lon="13.481412768346356"><ele>20.0</ele><time>2026-04-05T16:40:28Z</time></trkpt><trkpt lat="45.86751456899273" lon="13.481390327874697"><ele>20.0</ele><time>2026-04-05T16:40:30Z</time></trkpt><trkpt lat="45.86758259316044" lon="13.481374801418108"><ele>20.0</ele><time>2026-04-05T16:40:31Z</time></trkpt><trkpt lat="45.867658061567305" lon="13.48135489850353"><ele>20.0</ele><time>2026-04-05T16:40:32Z</time></trkpt><trkpt lat="45.867741507917515" lon="13.481309997160336"><ele>20.0</ele><time>2026-04-05T16:40:33Z</time></trkpt><trkpt lat="45.867839638268315" lon="13.481249163493075"><ele>20.0</ele><time>2026-04-05T16:40:34Z</time></trkpt><trkpt lat="45.867951877880515" lon="13.481190646835019"><ele>20.0</ele><time>2026-04-05T16:40:35Z</time></trkpt><trkpt lat="45.86806873681181" lon="13.481119579528121"><ele>20.0</ele><time>2026-04-05T16:40:36Z</time></trkpt><trkpt lat="45.868192233738185" lon="13.481044705515943"><ele>20.0</ele><time>2026-04-05T16:40:37Z</time></trkpt><trkpt lat="45.8683237248697" lon="13.480971578343738"><ele>21.25</ele><time>2026-04-05T16:40:38Z</time></trkpt><trkpt lat="45.86845373855867" lon="13.480895413500846"><ele>22.5</ele><time>2026-04-05T16:40:39Z</time></trkpt><trkpt lat="45.86857770430565" lon="13.480822673506497"><ele>23.75</ele><time>2026-04-05T16:40:40Z</time></trkpt><trkpt lat="45.86869519694103" lon="13.480755435423855"><ele>25.0</ele><time>2026-04-05T16:40:41Z</time></trkpt><trkpt lat="45.868819898408354" lon="13.480686302705768"><ele>25.0</ele><time>2026-04-05T16:40:42Z</time></trkpt><trkpt lat="45.8689567060335" lon="13.480607341349005"><ele>25.0</ele><time>2026-04-05T16:40:43Z</time></trkpt><trkpt lat="45.869085544883525" lon="13.480529240521092"><ele>25.0</ele><time>2026-04-05T16:40:44Z</time></trkpt><trkpt lat="45.86921446834527" lon="13.480452532188648"><ele>25.0</ele><time>2026-04-05T16:40:45Z</time></trkpt><trkpt lat="45.86932876458326" lon="13.480392610100665"><ele>24.0</ele><time>2026-04-05T16:40:46Z</time></trkpt><trkpt lat="45.86944133083612" lon="13.48034844376419"><ele>23.0</ele><time>2026-04-05T16:40:47Z</time></trkpt><trkpt lat="45.86955782351571" lon="13.480322247761702"><ele>22.0</ele><time>2026-04-05T16:40:48Z</time></trkpt><trkpt lat="45.86967295030829" lon="13.480332648226584"><ele>21.0</ele><time>2026-04-05T16:40:49Z</time></trkpt><trkpt lat="45.86979195917581" lon="13.480372925063248"><ele>21.0</ele><time>2026-04-05T16:40:50Z</time></trkpt><trkpt lat="45.86991714201903" lon="13.480420776888511"><ele>21.0</ele><time>2026-04-05T16:40:51Z</time></trkpt><trkpt lat="45.87004723400497" lon="13.480467114788087"><ele>21.0</ele><time>2026-04-05T16:40:52Z</time></trkpt><trkpt lat="45.87017221762409" lon="13.480530580013205"><ele>21.0</ele><time>2026-04-05T16:40:53Z</time></trkpt><trkpt lat="45.87028335301055" lon="13.480602259182126"><ele>21.25</ele><time>2026-04-05T16:40:54Z</time></trkpt><trkpt lat="45.87037977420617" lon="13.480700154482639"><ele>21.5</ele><time>2026-04-05T16:40:55Z</time></trkpt><trkpt lat="45.87046232283561" lon="13.48081685517275"><ele>21.75</ele><time>2026-04-05T16:40:56Z</time></trkpt><trkpt lat="45.87052809340972" lon="13.48095137152826"><ele>22.0</ele><time>2026-04-05T16:40:57Z</time></trkpt><trkpt lat="45.87057847010549" lon="13.481096612614389"><ele>22.0</ele><time>2026-04-05T16:40:58Z</time></trkpt><trkpt lat="45.870630108790685" lon="13.48124493907133"><ele>22.0</ele><time>2026-04-05T16:40:59Z</time></trkpt><trkpt lat="45.870688689205494" lon="13.48139033651519"><ele>22.0</ele><time>2026-04-05T16:41:00Z</time></trkpt><trkpt lat="45.87074998947153" lon="13.481509478608803"><ele>22.0</ele><time>2026-04-05T16:41:00.999Z</time></trkpt><trkpt lat="45.8708129963435" lon="13.481614286137313"><ele>22.0</ele><time>2026-04-05T16:41:01.999Z</time></trkpt><trkpt lat="45.870877104623474" lon="13.481710580579648"><ele>22.0</ele><time>2026-04-05T16:41:02.999Z</time></trkpt><trkpt lat="45.87095390911613" lon="13.481795277440943"><ele>22.0</ele><time>2026-04-05T16:41:03.999Z</time></trkpt><trkpt lat="45.87102925436966" lon="13.481867926763766"><ele>22.0</ele><time>2026-04-05T16:41:04.999Z</time></trkpt><trkpt lat="45.87110111128908" lon="13.481939270394154"><ele>22.0</ele><time>2026-04-05T16:41:05.999Z</time></trkpt><trkpt lat="45.8711747207789" lon="13.482008747982249"><ele>22.0</ele><time>2026-04-05T16:41:06.999Z</time></trkpt><trkpt lat="45.8712363173177" lon="13.48206312018752"><ele>22.0</ele><time>2026-04-05T16:41:07.999Z</time></trkpt><trkpt lat="45.871299158607286" lon="13.482124054043348"><ele>22.333333333333332</ele><time>2026-04-05T16:41:08.999Z</time></trkpt><trkpt lat="45.87136948625435" lon="13.482187872836699"><ele>22.666666666666664</ele><time>2026-04-05T16:41:09.999Z</time></trkpt><trkpt lat="45.87144345705037" lon="13.48225410862626"><ele>23.0</ele><time>2026-04-05T16:41:10.999Z</time></trkpt><trkpt lat="45.871519662065545" lon="13.48232504185427"><ele>23.333333333333332</ele><time>2026-04-05T16:41:11.999Z</time></trkpt><trkpt lat="45.871596687614975" lon="13.48239584713545"><ele>23.666666666666668</ele><time>2026-04-05T16:41:12.999Z</time></trkpt><trkpt lat="45.871666965425355" lon="13.482459252623352"><ele>24.0</ele><time>2026-04-05T16:41:13.999Z</time></trkpt><trkpt lat="45.871737504411556" lon="13.48252345155039"><ele>23.666666666666668</ele><time>2026-04-05T16:41:14.999Z</time></trkpt><trkpt lat="45.87181033131318" lon="13.482592385344157"><ele>23.333333333333332</ele><time>2026-04-05T16:41:15.999Z</time></trkpt><trkpt lat="45.87188100548971" lon="13.48265780335815"><ele>23.0</ele><time>2026-04-05T16:41:16.999Z</time></trkpt><trkpt lat="45.87195109883914" lon="13.482720966763656"><ele>22.666666666666664</ele><time>2026-04-05T16:41:17.999Z</time></trkpt><trkpt lat="45.872018660316286" lon="13.482782966190053"><ele>22.333333333333332</ele><time>2026-04-05T16:41:18.999Z</time></trkpt><trkpt lat="45.87208145203158" lon="13.48284078516286"><ele>22.0</ele><time>2026-04-05T16:41:19.999Z</time></trkpt><trkpt lat="45.87214092654949" lon="13.48289266805731"><ele>22.285714285714285</ele><time>2026-04-05T16:41:20.999Z</time></trkpt><trkpt lat="45.87219371520475" lon="13.482944012357745"><ele>22.57142857142857</ele><time>2026-04-05T16:41:22Z</time></trkpt><trkpt lat="45.872250510651625" lon="13.482996524863756"><ele>22.857142857142854</ele><time>2026-04-05T16:41:23Z</time></trkpt><trkpt lat="45.87230804124268" lon="13.483052355540382"><ele>23.142857142857142</ele><time>2026-04-05T16:41:24Z</time></trkpt><trkpt lat="45.87237047813879" lon="13.483109161900927"><ele>23.428571428571427</ele><time>2026-04-05T16:41:25Z</time></trkpt><trkpt lat="45.87243529488053" lon="13.48317135338988"><ele>23.71428571428571</ele><time>2026-04-05T16:41:26Z</time></trkpt><trkpt lat="45.872503017834106" lon="13.483234779553007"><ele>24.0</ele><time>2026-04-05T16:41:27Z</time></trkpt><trkpt lat="45.87257380444185" lon="13.483297597721164"><ele>23.6</ele><time>2026-04-05T16:41:28Z</time></trkpt><trkpt lat="45.87264588679038" lon="13.483363471379729"><ele>23.2</ele><time>2026-04-05T16:41:29Z</time></trkpt><trkpt lat="45.872716939729806" lon="13.483426982228087"><ele>22.8</ele><time>2026-04-05T16:41:30Z</time></trkpt><trkpt lat="45.872793610761484" lon="13.483496614470688"><ele>22.400000000000002</ele><time>2026-04-05T16:41:31Z</time></trkpt><trkpt lat="45.87287403343171" lon="13.483568321970179"><ele>22.0</ele><time>2026-04-05T16:41:32Z</time></trkpt><trkpt lat="45.87296798632495" lon="13.48365527472964"><ele>22.0</ele><time>2026-04-05T16:41:33Z</time></trkpt><trkpt lat="45.87307252801135" lon="13.483748093939797"><ele>22.0</ele><time>2026-04-05T16:41:34Z</time></trkpt><trkpt lat="45.87318170308303" lon="13.483849824812102"><ele>22.0</ele><time>2026-04-05T16:41:35Z</time></trkpt><trkpt lat="45.8732851084645" lon="13.483944469129911"><ele>22.0</ele><time>2026-04-05T16:41:36Z</time></trkpt><trkpt lat="45.87338146945695" lon="13.484030666213133"><ele>22.0</ele><time>2026-04-05T16:41:37Z</time></trkpt><trkpt lat="45.873470339210684" lon="13.484111900725251"><ele>22.0</ele><time>2026-04-05T16:41:38Z</time></trkpt><trkpt lat="45.873553018824886" lon="13.484184695693353"><ele>22.0</ele><time>2026-04-05T16:41:39Z</time></trkpt><trkpt lat="45.87363277238601" lon="13.484257491925412"><ele>22.0</ele><time>2026-04-05T16:41:40Z</time></trkpt><trkpt lat="45.87371358778256" lon="13.484332951076695"><ele>22.0</ele><time>2026-04-05T16:41:41Z</time></trkpt><trkpt lat="45.873784209243375" lon="13.48439568369864"><ele>22.0</ele><time>2026-04-05T16:41:42Z</time></trkpt><trkpt lat="45.87384122932607" lon="13.484457907883726"><ele>22.0</ele><time>2026-04-05T16:41:43Z</time></trkpt><trkpt lat="45.87388222243625" lon="13.484532043000236"><ele>22.0</ele><time>2026-04-05T16:41:44Z</time></trkpt><trkpt lat="45.87390978830954" lon="13.484620586902821"><ele>22.0</ele><time>2026-04-05T16:41:45Z</time></trkpt><trkpt lat="45.873926144787795" lon="13.48470797120002"><ele>22.0</ele><time>2026-04-05T16:41:46Z</time></trkpt><trkpt lat="45.87394684146853" lon="13.484865977735389"><ele>22.0</ele><time>2026-04-05T16:41:48Z</time></trkpt><trkpt lat="45.87400214013184" lon="13.485020251174483"><ele>22.0</ele><time>2026-04-05T16:41:50Z</time></trkpt><trkpt lat="45.87405397965688" lon="13.485097798929853"><ele>22.0</ele><time>2026-04-05T16:41:51Z</time></trkpt><trkpt lat="45.874118828287685" lon="13.485167735109219"><ele>22.0</ele><time>2026-04-05T16:41:52Z</time></trkpt><trkpt lat="45.87419144985941" lon="13.48523818633363"><ele>22.0</ele><time>2026-04-05T16:41:53Z</time></trkpt><trkpt lat="45.87428146068185" lon="13.485318689726908"><ele>22.0</ele><time>2026-04-05T16:41:54Z</time></trkpt><trkpt lat="45.87438211100538" lon="13.485409320348351"><ele>22.25</ele><time>2026-04-05T16:41:55Z</time></trkpt><trkpt lat="45.87448418666693" lon="13.485502093920399"><ele>22.5</ele><time>2026-04-05T16:41:56Z</time></trkpt><trkpt lat="45.87459358195433" lon="13.485604434121125"><ele>22.75</ele><time>2026-04-05T16:41:57Z</time></trkpt><trkpt lat="45.874712103958664" lon="13.485711817846118"><ele>23.0</ele><time>2026-04-05T16:41:58Z</time></trkpt><trkpt lat="45.87483030105989" lon="13.485811432609609"><ele>23.0</ele><time>2026-04-05T16:41:59Z</time></trkpt><trkpt lat="45.874929285936865" lon="13.48590212761755"><ele>23.0</ele><time>2026-04-05T16:42:00Z</time></trkpt><trkpt lat="45.87502667775135" lon="13.485987279245613"><ele>23.0</ele><time>2026-04-05T16:42:01Z</time></trkpt><trkpt lat="45.87513004152797" lon="13.486077393998"><ele>23.0</ele><time>2026-04-05T16:42:02Z</time></trkpt><trkpt lat="45.875232548222" lon="13.486166928082243"><ele>23.25</ele><time>2026-04-05T16:42:03Z</time></trkpt><trkpt lat="45.87533105595575" lon="13.486255809389274"><ele>23.5</ele><time>2026-04-05T16:42:04Z</time></trkpt><trkpt lat="45.87543308254687" lon="13.486345579439515"><ele>23.75</ele><time>2026-04-05T16:42:05Z</time></trkpt><trkpt lat="45.87554059878298" lon="13.486439917661084"><ele>24.0</ele><time>2026-04-05T16:42:06Z</time></trkpt><trkpt lat="45.87564652589658" lon="13.486533440157753"><ele>24.0</ele><time>2026-04-05T16:42:07Z</time></trkpt><trkpt lat="45.875750407751106" lon="13.486623168518422"><ele>24.0</ele><time>2026-04-05T16:42:08Z</time></trkpt><trkpt lat="45.875849401110855" lon="13.486711397237553"><ele>24.0</ele><time>2026-04-05T16:42:09Z</time></trkpt><trkpt lat="45.87595122705289" lon="13.486799022979376"><ele>24.0</ele><time>2026-04-05T16:42:10Z</time></trkpt><trkpt lat="45.87605152401544" lon="13.48688632998828"><ele>24.0</ele><time>2026-04-05T16:42:11Z</time></trkpt><trkpt lat="45.87614955766474" lon="13.486973731811188"><ele>24.0</ele><time>2026-04-05T16:42:12Z</time></trkpt><trkpt lat="45.876245561324914" lon="13.487060282208363"><ele>24.0</ele><time>2026-04-05T16:42:13Z</time></trkpt><trkpt lat="45.87634094071116" lon="13.487143736164471"><ele>24.0</ele><time>2026-04-05T16:42:14Z</time></trkpt><trkpt lat="45.87642366844334" lon="13.487212323959232"><ele>24.0</ele><time>2026-04-05T16:42:15Z</time></trkpt><trkpt lat="45.876510959331796" lon="13.48728153921144"><ele>24.0</ele><time>2026-04-05T16:42:16Z</time></trkpt><trkpt lat="45.87659248680086" lon="13.487346936445917"><ele>24.0</ele><time>2026-04-05T16:42:17Z</time></trkpt><trkpt lat="45.87667142150938" lon="13.487393136185606"><ele>24.0</ele><time>2026-04-05T16:42:18Z</time></trkpt><trkpt lat="45.87675130449932" lon="13.487427081077303"><ele>24.0</ele><time>2026-04-05T16:42:19Z</time></trkpt><trkpt lat="45.8768445653049" lon="13.487448892185817"><ele>24.0</ele><time>2026-04-05T16:42:20Z</time></trkpt><trkpt lat="45.87693693443178" lon="13.487458442293601"><ele>24.0</ele><time>2026-04-05T16:42:21Z</time></trkpt><trkpt lat="45.87701840687851" lon="13.487450926484298"><ele>24.0</ele><time>2026-04-05T16:42:22Z</time></trkpt><trkpt lat="45.87708921696555" lon="13.487446989670014"><ele>24.0</ele><time>2026-04-05T16:42:23Z</time></trkpt><trkpt lat="45.87715659687989" lon="13.487449402741621"><ele>24.0</ele><time>2026-04-05T16:42:24Z</time></trkpt><trkpt lat="45.87722780297405" lon="13.487459552673435"><ele>24.0</ele><time>2026-04-05T16:42:25Z</time></trkpt><trkpt lat="45.8773431913084" lon="13.487519804498886"><ele>24.0</ele><time>2026-04-05T16:42:27Z</time></trkpt><trkpt lat="45.877401473277786" lon="13.48756272084869"><ele>24.0</ele><time>2026-04-05T16:42:28Z</time></trkpt><trkpt lat="45.87746651179187" lon="13.487579488100831"><ele>24.0</ele><time>2026-04-05T16:42:29Z</time></trkpt><trkpt lat="45.87759169192596" lon="13.487510010120316"><ele>24.0</ele><time>2026-04-05T16:42:31Z</time></trkpt><trkpt lat="45.87762627999816" lon="13.487421726124763"><ele>24.0</ele><time>2026-04-05T16:42:32Z</time></trkpt><trkpt lat="45.87762399993525" lon="13.487319793828044"><ele>24.0</ele><time>2026-04-05T16:42:33Z</time></trkpt><trkpt lat="45.87759785700902" lon="13.487222232142244"><ele>24.0</ele><time>2026-04-05T16:42:34Z</time></trkpt><trkpt lat="45.877572200584936" lon="13.487139112511095"><ele>24.0</ele><time>2026-04-05T16:42:35Z</time></trkpt><trkpt lat="45.87753119257064" lon="13.487000295008823"><ele>23.71428571428571</ele><time>2026-04-05T16:42:37Z</time></trkpt><trkpt lat="45.87750235148789" lon="13.486917607046395"><ele>23.428571428571427</ele><time>2026-04-05T16:42:38Z</time></trkpt><trkpt lat="45.87747203219847" lon="13.486821650486847"><ele>23.142857142857142</ele><time>2026-04-05T16:42:39Z</time></trkpt><trkpt lat="45.87744315293276" lon="13.486724344318716"><ele>22.857142857142854</ele><time>2026-04-05T16:42:40Z</time></trkpt><trkpt lat="45.877419811312315" lon="13.486628990808999"><ele>22.57142857142857</ele><time>2026-04-05T16:42:41Z</time></trkpt><trkpt lat="45.87740654797219" lon="13.486530640784533"><ele>22.285714285714285</ele><time>2026-04-05T16:42:42Z</time></trkpt><trkpt lat="45.87739825265383" lon="13.48642804122768"><ele>22.0</ele><time>2026-04-05T16:42:43Z</time></trkpt><trkpt lat="45.87739217574745" lon="13.486322710290395"><ele>22.333333333333332</ele><time>2026-04-05T16:42:44Z</time></trkpt><trkpt lat="45.87738666567229" lon="13.48621955048507"><ele>22.666666666666664</ele><time>2026-04-05T16:42:45Z</time></trkpt><trkpt lat="45.877384092634436" lon="13.48611800443561"><ele>23.0</ele><time>2026-04-05T16:42:46Z</time></trkpt><trkpt lat="45.877379484115735" lon="13.486021483008408"><ele>23.333333333333332</ele><time>2026-04-05T16:42:47Z</time></trkpt><trkpt lat="45.87737538218661" lon="13.485870744390965"><ele>23.666666666666668</ele><time>2026-04-05T16:42:49Z</time></trkpt><trkpt lat="45.877353505404216" lon="13.485737117142062"><ele>24.0</ele><time>2026-04-05T16:42:51Z</time></trkpt><trkpt lat="45.877524467930826" lon="13.485659329488977"><ele>24.0</ele><time>2026-04-05T16:42:53Z</time></trkpt><trkpt lat="45.87760180082546" lon="13.48561859788102"><ele>24.0</ele><time>2026-04-05T16:42:54Z</time></trkpt><trkpt lat="45.87768562284389" lon="13.485574348835842"><ele>24.0</ele><time>2026-04-05T16:42:55Z</time></trkpt><trkpt lat="45.87776443896375" lon="13.48553078650184"><ele>24.0</ele><time>2026-04-05T16:42:56Z</time></trkpt><trkpt lat="45.87784499857025" lon="13.48548504172587"><ele>24.0</ele><time>2026-04-05T16:42:57Z</time></trkpt><trkpt lat="45.87792914949483" lon="13.485439015400347"><ele>24.0</ele><time>2026-04-05T16:42:58Z</time></trkpt><trkpt lat="45.87801438947449" lon="13.485391128667608"><ele>23.799999999999997</ele><time>2026-04-05T16:42:59Z</time></trkpt><trkpt lat="45.878102538124686" lon="13.485340803032615"><ele>23.599999999999998</ele><time>2026-04-05T16:43:00Z</time></trkpt><trkpt lat="45.87819488047734" lon="13.485292058218235"><ele>23.4</ele><time>2026-04-05T16:43:01Z</time></trkpt><trkpt lat="45.87829897562436" lon="13.485232018179394"><ele>23.2</ele><time>2026-04-05T16:43:02Z</time></trkpt><trkpt lat="45.878409373138666" lon="13.485171652464569"><ele>23.0</ele><time>2026-04-05T16:43:03Z</time></trkpt><trkpt lat="45.87851979101341" lon="13.48511192316883"><ele>22.5</ele><time>2026-04-05T16:43:03.999Z</time></trkpt><trkpt lat="45.87862587967041" lon="13.48504898912613"><ele>22.0</ele><time>2026-04-05T16:43:04.999Z</time></trkpt><trkpt lat="45.87873977320365" lon="13.484988036152725"><ele>21.5</ele><time>2026-04-05T16:43:05.999Z</time></trkpt><trkpt lat="45.878857625454295" lon="13.484924146855025"><ele>21.0</ele><time>2026-04-05T16:43:06.999Z</time></trkpt><trkpt lat="45.87896901795851" lon="13.48486013027055"><ele>21.0</ele><time>2026-04-05T16:43:07.999Z</time></trkpt><trkpt lat="45.87907527278576" lon="13.484800668567171"><ele>21.0</ele><time>2026-04-05T16:43:08.999Z</time></trkpt><trkpt lat="45.87917667970834" lon="13.484744850094858"><ele>21.0</ele><time>2026-04-05T16:43:09.999Z</time></trkpt><trkpt lat="45.87927186395491" lon="13.484691063011532"><ele>21.0</ele><time>2026-04-05T16:43:10.999Z</time></trkpt><trkpt lat="45.87936391246573" lon="13.48464070086625"><ele>21.0</ele><time>2026-04-05T16:43:11.999Z</time></trkpt><trkpt lat="45.87945519910192" lon="13.484589058253878"><ele>21.666666666666668</ele><time>2026-04-05T16:43:12.999Z</time></trkpt><trkpt lat="45.87953880969047" lon="13.484543216839025"><ele>22.333333333333336</ele><time>2026-04-05T16:43:13.999Z</time></trkpt><trkpt lat="45.87961219216166" lon="13.484501567916235"><ele>23.0</ele><time>2026-04-05T16:43:14.999Z</time></trkpt><trkpt lat="45.879685177985195" lon="13.484462761849485"><ele>23.666666666666668</ele><time>2026-04-05T16:43:15.999Z</time></trkpt><trkpt lat="45.87975087421417" lon="13.484430980801784"><ele>24.333333333333336</ele><time>2026-04-05T16:43:16.999Z</time></trkpt><trkpt lat="45.879868369486424" lon="13.48436438971134"><ele>25.0</ele><time>2026-04-05T16:43:18.999Z</time></trkpt><trkpt lat="45.87997984503925" lon="13.484331205852794"><ele>25.000000000000004</ele><time>2026-04-05T16:43:20.999Z</time></trkpt><trkpt lat="45.880071398419894" lon="13.484297360032826"><ele>25.0</ele><time>2026-04-05T16:43:22.999Z</time></trkpt><trkpt lat="45.88015242642071" lon="13.48427659116424"><ele>25.0</ele><time>2026-04-05T16:43:25.999Z</time></trkpt><trkpt lat="45.880246922293445" lon="13.484245359294077"><ele>25.0</ele><time>2026-04-05T16:43:28Z</time></trkpt><trkpt lat="45.88032485406417" lon="13.484285307454552"><ele>25.000000000000004</ele><time>2026-04-05T16:43:29Z</time></trkpt><trkpt lat="45.88039547044764" lon="13.484247151359476"><ele>25.0</ele><time>2026-04-05T16:43:30Z</time></trkpt><trkpt lat="45.88045883618792" lon="13.484239325842394"><ele>25.0</ele><time>2026-04-05T16:43:31Z</time></trkpt><trkpt lat="45.880487871778456" lon="13.484102245406206"><ele>25.0</ele><time>2026-04-05T16:43:32Z</time></trkpt><trkpt lat="45.88048386230188" lon="13.483936848506522"><ele>25.0</ele><time>2026-04-05T16:43:34Z</time></trkpt><trkpt lat="45.88042971959197" lon="13.483864822623383"><ele>25.0</ele><time>2026-04-05T16:43:35Z</time></trkpt><trkpt lat="45.88039085669629" lon="13.48376974544198"><ele>25.0</ele><time>2026-04-05T16:43:36Z</time></trkpt><trkpt lat="45.88043230238035" lon="13.483606151706086"><ele>24.8</ele><time>2026-04-05T16:43:37Z</time></trkpt><trkpt lat="45.88044282902666" lon="13.483478726792764"><ele>24.6</ele><time>2026-04-05T16:43:38Z</time></trkpt><trkpt lat="45.880463969215455" lon="13.48334254572887"><ele>24.4</ele><time>2026-04-05T16:43:39Z</time></trkpt><trkpt lat="45.88048540858238" lon="13.48319537863478"><ele>24.2</ele><time>2026-04-05T16:43:40Z</time></trkpt><trkpt lat="45.880515696581156" lon="13.483034953208636"><ele>24.0</ele><time>2026-04-05T16:43:41Z</time></trkpt><trkpt lat="45.88055242557285" lon="13.482883719595955"><ele>24.0</ele><time>2026-04-05T16:43:42Z</time></trkpt><trkpt lat="45.880597320656115" lon="13.482743476083279"><ele>24.0</ele><time>2026-04-05T16:43:43Z</time></trkpt><trkpt lat="45.88064031838498" lon="13.482622453065341"><ele>24.0</ele><time>2026-04-05T16:43:44Z</time></trkpt><trkpt lat="45.88068596168194" lon="13.48250799979031"><ele>24.0</ele><time>2026-04-05T16:43:45Z</time></trkpt><trkpt lat="45.880758708100984" lon="13.482404236844657"><ele>24.0</ele><time>2026-04-05T16:43:46Z</time></trkpt><trkpt lat="45.8808602281522" lon="13.48229662043163"><ele>24.0</ele><time>2026-04-05T16:43:47Z</time></trkpt><trkpt lat="45.88099280969554" lon="13.482170213903457"><ele>24.0</ele><time>2026-04-05T16:43:48Z</time></trkpt><trkpt lat="45.88116757190285" lon="13.482072566721307"><ele>24.0</ele><time>2026-04-05T16:43:49Z</time></trkpt><trkpt lat="45.881351245777616" lon="13.481994762764538"><ele>24.0</ele><time>2026-04-05T16:43:50Z</time></trkpt><trkpt lat="45.88151484809446" lon="13.481927499899683"><ele>24.0</ele><time>2026-04-05T16:43:51Z</time></trkpt><trkpt lat="45.881658424003085" lon="13.481864826361361"><ele>24.0</ele><time>2026-04-05T16:43:52Z</time></trkpt><trkpt lat="45.88178682018625" lon="13.481811889256758"><ele>24.25</ele><time>2026-04-05T16:43:53Z</time></trkpt><trkpt lat="45.88190986267743" lon="13.481759749242688"><ele>24.5</ele><time>2026-04-05T16:43:54Z</time></trkpt><trkpt lat="45.88204547894161" lon="13.481694838103577"><ele>24.75</ele><time>2026-04-05T16:43:55Z</time></trkpt><trkpt lat="45.88218072932015" lon="13.48163391236635"><ele>25.0</ele><time>2026-04-05T16:43:56Z</time></trkpt><trkpt lat="45.882299215483485" lon="13.481578805207073"><ele>25.0</ele><time>2026-04-05T16:43:57Z</time></trkpt><trkpt lat="45.88242521492753" lon="13.481519081705335"><ele>25.0</ele><time>2026-04-05T16:43:58Z</time></trkpt><trkpt lat="45.88255030725767" lon="13.48145937088732"><ele>25.0</ele><time>2026-04-05T16:43:59Z</time></trkpt><trkpt lat="45.88267139591154" lon="13.481405194429685"><ele>25.0</ele><time>2026-04-05T16:44:00Z</time></trkpt><trkpt lat="45.88279686003782" lon="13.481346738617916"><ele>25.0</ele><time>2026-04-05T16:44:01Z</time></trkpt><trkpt lat="45.8829319717796" lon="13.48127998063536"><ele>25.0</ele><time>2026-04-05T16:44:02Z</time></trkpt><trkpt lat="45.88307865942025" lon="13.481211760229225"><ele>25.0</ele><time>2026-04-05T16:44:03Z</time></trkpt><trkpt lat="45.883236865877016" lon="13.48113815852556"><ele>24.333333333333336</ele><time>2026-04-05T16:44:04Z</time></trkpt><trkpt lat="45.88339747603434" lon="13.481060812593702"><ele>23.666666666666668</ele><time>2026-04-05T16:44:05Z</time></trkpt><trkpt lat="45.883555591305125" lon="13.480988854652468"><ele>23.0</ele><time>2026-04-05T16:44:06Z</time></trkpt><trkpt lat="45.8837258585334" lon="13.480912718985255"><ele>23.0</ele><time>2026-04-05T16:44:07Z</time></trkpt><trkpt lat="45.883909691962955" lon="13.480833110399514"><ele>23.0</ele><time>2026-04-05T16:44:08Z</time></trkpt><trkpt lat="45.88408543894561" lon="13.48076006498407"><ele>23.0</ele><time>2026-04-05T16:44:09Z</time></trkpt><trkpt lat="45.884252784191965" lon="13.480708331521075"><ele>23.0</ele><time>2026-04-05T16:44:10Z</time></trkpt><trkpt lat="45.88442421340686" lon="13.480676247775284"><ele>23.0</ele><time>2026-04-05T16:44:11Z</time></trkpt><trkpt lat="45.88460855448619" lon="13.480643427230008"><ele>23.0</ele><time>2026-04-05T16:44:12Z</time></trkpt><trkpt lat="45.88480571411257" lon="13.4806062809762"><ele>23.0</ele><time>2026-04-05T16:44:13Z</time></trkpt><trkpt lat="45.88500383912509" lon="13.48057022610302"><ele>23.0</ele><time>2026-04-05T16:44:14Z</time></trkpt><trkpt lat="45.88518421408084" lon="13.48053077066286"><ele>23.0</ele><time>2026-04-05T16:44:15Z</time></trkpt><trkpt lat="45.885353868837996" lon="13.480481973466791"><ele>23.666666666666668</ele><time>2026-04-05T16:44:16Z</time></trkpt><trkpt lat="45.885525722879564" lon="13.480421695063756"><ele>24.333333333333336</ele><time>2026-04-05T16:44:17Z</time></trkpt><trkpt lat="45.88570033303432" lon="13.480350452833727"><ele>25.0</ele><time>2026-04-05T16:44:18Z</time></trkpt><trkpt lat="45.885865696459206" lon="13.480272715303515"><ele>25.0</ele><time>2026-04-05T16:44:19Z</time></trkpt><trkpt lat="45.88603211914428" lon="13.480186926605871"><ele>25.0</ele><time>2026-04-05T16:44:20Z</time></trkpt><trkpt lat="45.88620072389313" lon="13.480092223879495"><ele>25.0</ele><time>2026-04-05T16:44:21Z</time></trkpt><trkpt lat="45.88637068953436" lon="13.479983732794677"><ele>25.0</ele><time>2026-04-05T16:44:22Z</time></trkpt><trkpt lat="45.886541777436115" lon="13.47986572405011"><ele>25.0</ele><time>2026-04-05T16:44:23Z</time></trkpt><trkpt lat="45.886705482293756" lon="13.479740278467837"><ele>25.0</ele><time>2026-04-05T16:44:24Z</time></trkpt><trkpt lat="45.88686615496405" lon="13.479619619163014"><ele>26.0</ele><time>2026-04-05T16:44:25Z</time></trkpt><trkpt lat="45.88702993156397" lon="13.479501439902638"><ele>27.0</ele><time>2026-04-05T16:44:26Z</time></trkpt><trkpt lat="45.887200190182554" lon="13.479376469121878"><ele>28.0</ele><time>2026-04-05T16:44:27Z</time></trkpt><trkpt lat="45.88737785406697" lon="13.479248233728864"><ele>28.0</ele><time>2026-04-05T16:44:28Z</time></trkpt><trkpt lat="45.88755255279063" lon="13.479120022102148"><ele>28.0</ele><time>2026-04-05T16:44:29Z</time></trkpt><trkpt lat="45.88771578080829" lon="13.4789982531726"><ele>28.0</ele><time>2026-04-05T16:44:30Z</time></trkpt><trkpt lat="45.887869192991786" lon="13.478883264973005"><ele>28.0</ele><time>2026-04-05T16:44:31Z</time></trkpt><trkpt lat="45.88802758489308" lon="13.47876565031416"><ele>28.0</ele><time>2026-04-05T16:44:32Z</time></trkpt><trkpt lat="45.88818093931438" lon="13.478650854890587"><ele>28.0</ele><time>2026-04-05T16:44:33Z</time></trkpt><trkpt lat="45.88832634077827" lon="13.478544323892839"><ele>28.0</ele><time>2026-04-05T16:44:34Z</time></trkpt><trkpt lat="45.88846469955197" lon="13.478436808602774"><ele>28.0</ele><time>2026-04-05T16:44:35Z</time></trkpt><trkpt lat="45.888600173571895" lon="13.478332683836225"><ele>28.0</ele><time>2026-04-05T16:44:36Z</time></trkpt><trkpt lat="45.88873208697497" lon="13.478233533270252"><ele>28.0</ele><time>2026-04-05T16:44:37Z</time></trkpt><trkpt lat="45.888861528811425" lon="13.478134108952856"><ele>28.0</ele><time>2026-04-05T16:44:38Z</time></trkpt><trkpt lat="45.888989853678154" lon="13.4780377494342"><ele>28.0</ele><time>2026-04-05T16:44:39Z</time></trkpt><trkpt lat="45.88912491387307" lon="13.477942314703864"><ele>28.0</ele><time>2026-04-05T16:44:40Z</time></trkpt><trkpt lat="45.8892727546127" lon="13.477842336180943"><ele>29.0</ele><time>2026-04-05T16:44:41Z</time></trkpt><trkpt lat="45.88942768706211" lon="13.477767250788046"><ele>30.0</ele><time>2026-04-05T16:44:42Z</time></trkpt><trkpt lat="45.889582453815486" lon="13.477670255034209"><ele>31.0</ele><time>2026-04-05T16:44:43Z</time></trkpt><trkpt lat="45.88975865480364" lon="13.477603430604399"><ele>31.0</ele><time>2026-04-05T16:44:44Z</time></trkpt><trkpt lat="45.88994253076979" lon="13.477539182774803"><ele>31.0</ele><time>2026-04-05T16:44:45Z</time></trkpt><trkpt lat="45.890131382666034" lon="13.477480612521369"><ele>31.0</ele><time>2026-04-05T16:44:46Z</time></trkpt><trkpt lat="45.89031375449747" lon="13.477423557689477"><ele>30.0</ele><time>2026-04-05T16:44:47Z</time></trkpt><trkpt lat="45.89048746752061" lon="13.477367937471389"><ele>29.0</ele><time>2026-04-05T16:44:48Z</time></trkpt><trkpt lat="45.890664845894804" lon="13.477335086065308"><ele>28.0</ele><time>2026-04-05T16:44:49Z</time></trkpt><trkpt lat="45.89084125223681" lon="13.477287268872617"><ele>28.666666666666668</ele><time>2026-04-05T16:44:50Z</time></trkpt><trkpt lat="45.89100985330752" lon="13.47725891599908"><ele>29.333333333333336</ele><time>2026-04-05T16:44:51Z</time></trkpt><trkpt lat="45.891158305838964" lon="13.477222652150596"><ele>30.0</ele><time>2026-04-05T16:44:52Z</time></trkpt><trkpt lat="45.89129474042339" lon="13.477172194610445"><ele>30.0</ele><time>2026-04-05T16:44:53Z</time></trkpt><trkpt lat="45.89141589326754" lon="13.477120227023464"><ele>30.0</ele><time>2026-04-05T16:44:54Z</time></trkpt><trkpt lat="45.891516115588225" lon="13.477072939500713"><ele>30.0</ele><time>2026-04-05T16:44:55Z</time></trkpt><trkpt lat="45.89158973912767" lon="13.477035871601535"><ele>30.0</ele><time>2026-04-05T16:44:56Z</time></trkpt><trkpt lat="45.89165641807557" lon="13.476998829079907"><ele>30.0</ele><time>2026-04-05T16:44:58Z</time></trkpt><trkpt lat="45.891711149306396" lon="13.476938848622407"><ele>30.0</ele><time>2026-04-05T16:45:00Z</time></trkpt><trkpt lat="45.891782143492016" lon="13.476929347649625"><ele>30.0</ele><time>2026-04-05T16:45:01Z</time></trkpt><trkpt lat="45.89185648130698" lon="13.476893681684084"><ele>30.0</ele><time>2026-04-05T16:45:02Z</time></trkpt><trkpt lat="45.89195172355855" lon="13.476840007353747"><ele>30.0</ele><time>2026-04-05T16:45:03Z</time></trkpt><trkpt lat="45.892041115094976" lon="13.476738882052949"><ele>30.0</ele><time>2026-04-05T16:45:04Z</time></trkpt><trkpt lat="45.8921289044172" lon="13.476649326078793"><ele>30.0</ele><time>2026-04-05T16:45:05Z</time></trkpt><trkpt lat="45.892207103172915" lon="13.47659942452622"><ele>30.0</ele><time>2026-04-05T16:45:06Z</time></trkpt><trkpt lat="45.89226921672055" lon="13.476508751872819"><ele>30.0</ele><time>2026-04-05T16:45:07Z</time></trkpt><trkpt lat="45.89228120044275" lon="13.476378781687478"><ele>30.0</ele><time>2026-04-05T16:45:07.999Z</time></trkpt><trkpt lat="45.892213543184106" lon="13.47624509421199"><ele>30.0</ele><time>2026-04-05T16:45:08.999Z</time></trkpt><trkpt lat="45.89215276478894" lon="13.476103858066287"><ele>30.0</ele><time>2026-04-05T16:45:09.999Z</time></trkpt><trkpt lat="45.89210947595668" lon="13.475931652091427"><ele>30.0</ele><time>2026-04-05T16:45:10.999Z</time></trkpt><trkpt lat="45.892275169802296" lon="13.475671729873604"><ele>30.0</ele><time>2026-04-05T16:45:11.999Z</time></trkpt><trkpt lat="45.89234466136257" lon="13.475419176238137"><ele>30.0</ele><time>2026-04-05T16:45:12.999Z</time></trkpt><trkpt lat="45.89244687847878" lon="13.475151575616088"><ele>30.0</ele><time>2026-04-05T16:45:13.999Z</time></trkpt><trkpt lat="45.892554349807156" lon="13.474826860902704"><ele>30.5</ele><time>2026-04-05T16:45:14.999Z</time></trkpt><trkpt lat="45.89267253345984" lon="13.474471163637437"><ele>31.0</ele><time>2026-04-05T16:45:15.999Z</time></trkpt><trkpt lat="45.892784376871" lon="13.474119230515148"><ele>31.0</ele><time>2026-04-05T16:45:16.999Z</time></trkpt><trkpt lat="45.89290163545817" lon="13.473781618114401"><ele>31.0</ele><time>2026-04-05T16:45:17.999Z</time></trkpt><trkpt lat="45.893008613038475" lon="13.473456271864634"><ele>31.0</ele><time>2026-04-05T16:45:18.999Z</time></trkpt><trkpt lat="45.89311198692422" lon="13.473147672768805"><ele>31.0</ele><time>2026-04-05T16:45:19.999Z</time></trkpt><trkpt lat="45.89322761480258" lon="13.472863483361813"><ele>30.0</ele><time>2026-04-05T16:45:20.999Z</time></trkpt><trkpt lat="45.89331925540831" lon="13.472581850720514"><ele>29.0</ele><time>2026-04-05T16:45:21.999Z</time></trkpt><trkpt lat="45.893398533874624" lon="13.47230200514774"><ele>28.0</ele><time>2026-04-05T16:45:22.999Z</time></trkpt><trkpt lat="45.893451853997114" lon="13.472018421934912"><ele>28.0</ele><time>2026-04-05T16:45:23.999Z</time></trkpt><trkpt lat="45.89347263315327" lon="13.471703276666345"><ele>28.0</ele><time>2026-04-05T16:45:24.999Z</time></trkpt><trkpt lat="45.89347100374474" lon="13.471361629605008"><ele>29.0</ele><time>2026-04-05T16:45:25.999Z</time></trkpt><trkpt lat="45.89345088253777" lon="13.470971136843573"><ele>30.0</ele><time>2026-04-05T16:45:26.999Z</time></trkpt><trkpt lat="45.89345782892008" lon="13.470571261942409"><ele>30.0</ele><time>2026-04-05T16:45:27.999Z</time></trkpt><trkpt lat="45.893471416074064" lon="13.470130963502273"><ele>30.0</ele><time>2026-04-05T16:45:28.999Z</time></trkpt><trkpt lat="45.893478967650196" lon="13.469678342893735"><ele>29.5</ele><time>2026-04-05T16:45:29.999Z</time></trkpt><trkpt lat="45.89348715453594" lon="13.469219269768624"><ele>29.0</ele><time>2026-04-05T16:45:30.999Z</time></trkpt><trkpt lat="45.89349273676197" lon="13.468765401210334"><ele>29.0</ele><time>2026-04-05T16:45:31.999Z</time></trkpt><trkpt lat="45.89350077521362" lon="13.4683138658794"><ele>29.0</ele><time>2026-04-05T16:45:33Z</time></trkpt><trkpt lat="45.893511339421124" lon="13.467862693399603"><ele>28.5</ele><time>2026-04-05T16:45:34Z</time></trkpt><trkpt lat="45.89352035751001" lon="13.467418468752733"><ele>28.0</ele><time>2026-04-05T16:45:35Z</time></trkpt><trkpt lat="45.89353147439847" lon="13.466973663805309"><ele>27.5</ele><time>2026-04-05T16:45:36Z</time></trkpt><trkpt lat="45.893542302012115" lon="13.46653522016268"><ele>27.0</ele><time>2026-04-05T16:45:37Z</time></trkpt><trkpt lat="45.8935553135312" lon="13.466110603090074"><ele>27.5</ele><time>2026-04-05T16:45:38Z</time></trkpt><trkpt lat="45.893564908165686" lon="13.46570081691422"><ele>28.0</ele><time>2026-04-05T16:45:39Z</time></trkpt><trkpt lat="45.893567608569995" lon="13.465306451445525"><ele>28.0</ele><time>2026-04-05T16:45:40Z</time></trkpt><trkpt lat="45.89355750188519" lon="13.464926194684287"><ele>28.0</ele><time>2026-04-05T16:45:41Z</time></trkpt><trkpt lat="45.8935277056751" lon="13.464550261862172"><ele>28.0</ele><time>2026-04-05T16:45:42Z</time></trkpt><trkpt lat="45.89347711606793" lon="13.46418637432056"><ele>28.0</ele><time>2026-04-05T16:45:43Z</time></trkpt><trkpt lat="45.8934074644193" lon="13.463829048849297"><ele>28.0</ele><time>2026-04-05T16:45:44Z</time></trkpt><trkpt lat="45.89332761213348" lon="13.463469075291957"><ele>28.0</ele><time>2026-04-05T16:45:45Z</time></trkpt><trkpt lat="45.89324668110319" lon="13.463105690402848"><ele>27.5</ele><time>2026-04-05T16:45:46Z</time></trkpt><trkpt lat="45.89316957752438" lon="13.46274229280922"><ele>27.0</ele><time>2026-04-05T16:45:47Z</time></trkpt><trkpt lat="45.89309066402605" lon="13.462373837716239"><ele>27.5</ele><time>2026-04-05T16:45:48Z</time></trkpt><trkpt lat="45.89301312176421" lon="13.461999775767598"><ele>28.0</ele><time>2026-04-05T16:45:49Z</time></trkpt><trkpt lat="45.892935570431675" lon="13.461621987243126"><ele>27.5</ele><time>2026-04-05T16:45:50Z</time></trkpt><trkpt lat="45.89285556162756" lon="13.461238979973892"><ele>27.0</ele><time>2026-04-05T16:45:51Z</time></trkpt><trkpt lat="45.89277321106309" lon="13.46085323356766"><ele>27.0</ele><time>2026-04-05T16:45:52Z</time></trkpt><trkpt lat="45.89269247561423" lon="13.460462840079357"><ele>27.0</ele><time>2026-04-05T16:45:53Z</time></trkpt><trkpt lat="45.892609002441354" lon="13.460072442062623"><ele>26.0</ele><time>2026-04-05T16:45:54Z</time></trkpt><trkpt lat="45.89252603187272" lon="13.45968630187601"><ele>25.0</ele><time>2026-04-05T16:45:55Z</time></trkpt><trkpt lat="45.89244414250888" lon="13.459305002357882"><ele>25.0</ele><time>2026-04-05T16:45:56Z</time></trkpt><trkpt lat="45.89235820169812" lon="13.458930215199613"><ele>25.0</ele><time>2026-04-05T16:45:57Z</time></trkpt><trkpt lat="45.89227527875982" lon="13.45855541081"><ele>25.5</ele><time>2026-04-05T16:45:58Z</time></trkpt><trkpt lat="45.89219702430357" lon="13.458186004126247"><ele>26.0</ele><time>2026-04-05T16:45:59Z</time></trkpt><trkpt lat="45.892120474227426" lon="13.457826384171852"><ele>26.0</ele><time>2026-04-05T16:46:00Z</time></trkpt><trkpt lat="45.89204657859613" lon="13.457474001782412"><ele>26.0</ele><time>2026-04-05T16:46:01Z</time></trkpt><trkpt lat="45.89197113478022" lon="13.45712348602556"><ele>25.5</ele><time>2026-04-05T16:46:02Z</time></trkpt><trkpt lat="45.89189844583565" lon="13.456780152168559"><ele>25.0</ele><time>2026-04-05T16:46:03Z</time></trkpt><trkpt lat="45.89183092575675" lon="13.456467115821342"><ele>25.0</ele><time>2026-04-05T16:46:04Z</time></trkpt><trkpt lat="45.89176734176641" lon="13.45617407083416"><ele>25.0</ele><time>2026-04-05T16:46:05Z</time></trkpt><trkpt lat="45.89170621584359" lon="13.455896197604293"><ele>25.0</ele><time>2026-04-05T16:46:06Z</time></trkpt><trkpt lat="45.891646818627656" lon="13.455620206392727"><ele>25.0</ele><time>2026-04-05T16:46:07Z</time></trkpt><trkpt lat="45.89158892159714" lon="13.455347100213919"><ele>25.0</ele><time>2026-04-05T16:46:08Z</time></trkpt><trkpt lat="45.89152976613976" lon="13.455076918306816"><ele>25.0</ele><time>2026-04-05T16:46:09Z</time></trkpt><trkpt lat="45.891473652396776" lon="13.454807422129631"><ele>25.333333333333336</ele><time>2026-04-05T16:46:10Z</time></trkpt><trkpt lat="45.89141777926922" lon="13.454540434037277"><ele>25.666666666666664</ele><time>2026-04-05T16:46:11Z</time></trkpt><trkpt lat="45.891362731880086" lon="13.454281123859895"><ele>26.0</ele><time>2026-04-05T16:46:12Z</time></trkpt><trkpt lat="45.89130731596941" lon="13.454022447450736"><ele>25.666666666666664</ele><time>2026-04-05T16:46:13Z</time></trkpt><trkpt lat="45.89125229060121" lon="13.4537660994903"><ele>25.333333333333336</ele><time>2026-04-05T16:46:14Z</time></trkpt><trkpt lat="45.89119562934431" lon="13.453509578421029"><ele>25.0</ele><time>2026-04-05T16:46:15Z</time></trkpt><trkpt lat="45.89113958868372" lon="13.453253145094232"><ele>25.0</ele><time>2026-04-05T16:46:16Z</time></trkpt><trkpt lat="45.891088110557234" lon="13.452997021092767"><ele>25.0</ele><time>2026-04-05T16:46:17Z</time></trkpt><trkpt lat="45.891036920475656" lon="13.452738957372464"><ele>25.0</ele><time>2026-04-05T16:46:18Z</time></trkpt><trkpt lat="45.89098167685468" lon="13.452476882898932"><ele>25.0</ele><time>2026-04-05T16:46:19Z</time></trkpt><trkpt lat="45.890925497203966" lon="13.452213946680734"><ele>25.0</ele><time>2026-04-05T16:46:20Z</time></trkpt><trkpt lat="45.890868010066534" lon="13.451948384441662"><ele>25.0</ele><time>2026-04-05T16:46:21Z</time></trkpt><trkpt lat="45.890810224337706" lon="13.451678805376838"><ele>25.333333333333336</ele><time>2026-04-05T16:46:22Z</time></trkpt><trkpt lat="45.89075282860268" lon="13.451407124541474"><ele>25.666666666666664</ele><time>2026-04-05T16:46:23Z</time></trkpt><trkpt lat="45.89069599084587" lon="13.451132285038065"><ele>26.0</ele><time>2026-04-05T16:46:24Z</time></trkpt><trkpt lat="45.89063565681089" lon="13.450857583033002"><ele>25.0</ele><time>2026-04-05T16:46:25Z</time></trkpt><trkpt lat="45.89057328017546" lon="13.450583063866278"><ele>24.0</ele><time>2026-04-05T16:46:26Z</time></trkpt><trkpt lat="45.89051494110493" lon="13.450304688086838"><ele>23.0</ele><time>2026-04-05T16:46:27Z</time></trkpt><trkpt lat="45.8904575351299" lon="13.450020744214074"><ele>22.666666666666668</ele><time>2026-04-05T16:46:28Z</time></trkpt><trkpt lat="45.89040028037677" lon="13.449735131813757"><ele>22.333333333333332</ele><time>2026-04-05T16:46:29Z</time></trkpt><trkpt lat="45.89034470231786" lon="13.449449322076193"><ele>22.0</ele><time>2026-04-05T16:46:30Z</time></trkpt><trkpt lat="45.890290012977644" lon="13.449168668523855"><ele>22.0</ele><time>2026-04-05T16:46:31Z</time></trkpt><trkpt lat="45.8902319906437" lon="13.448891118688923"><ele>22.0</ele><time>2026-04-05T16:46:32Z</time></trkpt><trkpt lat="45.89017611877597" lon="13.448616320547602"><ele>22.0</ele><time>2026-04-05T16:46:33Z</time></trkpt><trkpt lat="45.89012021794597" lon="13.448345331583397"><ele>22.666666666666664</ele><time>2026-04-05T16:46:34Z</time></trkpt><trkpt lat="45.8900646371858" lon="13.448092966599873"><ele>23.333333333333332</ele><time>2026-04-05T16:46:35Z</time></trkpt><trkpt lat="45.89001779422069" lon="13.447851796233591"><ele>24.0</ele><time>2026-04-05T16:46:36Z</time></trkpt><trkpt lat="45.8899925260475" lon="13.447621243016469"><ele>24.0</ele><time>2026-04-05T16:46:37Z</time></trkpt><trkpt lat="45.88999957817799" lon="13.44740133835138"><ele>24.0</ele><time>2026-04-05T16:46:38Z</time></trkpt><trkpt lat="45.890048185738245" lon="13.447175834618621"><ele>24.0</ele><time>2026-04-05T16:46:39Z</time></trkpt><trkpt lat="45.890137722914716" lon="13.446971686859138"><ele>24.0</ele><time>2026-04-05T16:46:40Z</time></trkpt><trkpt lat="45.890252681461405" lon="13.446780305904586"><ele>24.0</ele><time>2026-04-05T16:46:41Z</time></trkpt><trkpt lat="45.890394924321534" lon="13.446586219097249"><ele>24.0</ele><time>2026-04-05T16:46:42Z</time></trkpt><trkpt lat="45.89053884164335" lon="13.446351319061248"><ele>23.0</ele><time>2026-04-05T16:46:43Z</time></trkpt><trkpt lat="45.890703726886194" lon="13.446100340112732"><ele>22.0</ele><time>2026-04-05T16:46:44Z</time></trkpt><trkpt lat="45.89085796863234" lon="13.44584741104821"><ele>22.333333333333332</ele><time>2026-04-05T16:46:45Z</time></trkpt><trkpt lat="45.891006104866506" lon="13.445605505640746"><ele>22.666666666666668</ele><time>2026-04-05T16:46:46Z</time></trkpt><trkpt lat="45.891141986955695" lon="13.445390798902304"><ele>23.0</ele><time>2026-04-05T16:46:47Z</time></trkpt><trkpt lat="45.89126605695279" lon="13.445196504524189"><ele>23.0</ele><time>2026-04-05T16:46:48Z</time></trkpt><trkpt lat="45.89138989670436" lon="13.445010895388894"><ele>23.0</ele><time>2026-04-05T16:46:49Z</time></trkpt><trkpt lat="45.891507968174075" lon="13.444843227561513"><ele>23.0</ele><time>2026-04-05T16:46:50Z</time></trkpt><trkpt lat="45.89159963767448" lon="13.444676869180556"><ele>23.0</ele><time>2026-04-05T16:46:51Z</time></trkpt><trkpt lat="45.89166470750833" lon="13.444507602596433"><ele>23.0</ele><time>2026-04-05T16:46:52Z</time></trkpt><trkpt lat="45.891695235352735" lon="13.444326161832146"><ele>23.0</ele><time>2026-04-05T16:46:53Z</time></trkpt><trkpt lat="45.891684887801695" lon="13.444123479060712"><ele>23.0</ele><time>2026-04-05T16:46:54Z</time></trkpt><trkpt lat="45.89163242846869" lon="13.443912215156612"><ele>23.666666666666668</ele><time>2026-04-05T16:46:55Z</time></trkpt><trkpt lat="45.891546382677845" lon="13.443695060241057"><ele>24.333333333333336</ele><time>2026-04-05T16:46:56Z</time></trkpt><trkpt lat="45.89144724328642" lon="13.443477229043173"><ele>25.0</ele><time>2026-04-05T16:46:57Z</time></trkpt><trkpt lat="45.89134167811526" lon="13.44326067691092"><ele>25.0</ele><time>2026-04-05T16:46:58Z</time></trkpt><trkpt lat="45.89123852309651" lon="13.44306793719417"><ele>25.0</ele><time>2026-04-05T16:46:59Z</time></trkpt><trkpt lat="45.89114756209135" lon="13.44290187282301"><ele>25.0</ele><time>2026-04-05T16:47:00Z</time></trkpt><trkpt lat="45.89106607153145" lon="13.442759443314376"><ele>25.0</ele><time>2026-04-05T16:47:01Z</time></trkpt><trkpt lat="45.89099179822875" lon="13.44263116405425"><ele>25.0</ele><time>2026-04-05T16:47:02Z</time></trkpt><trkpt lat="45.89091310624873" lon="13.442503057798255"><ele>25.0</ele><time>2026-04-05T16:47:03Z</time></trkpt><trkpt lat="45.89083789820779" lon="13.44236861715945"><ele>25.0</ele><time>2026-04-05T16:47:04Z</time></trkpt><trkpt lat="45.890767747659254" lon="13.442221764313448"><ele>25.0</ele><time>2026-04-05T16:47:05Z</time></trkpt><trkpt lat="45.89070255671354" lon="13.442064596769486"><ele>25.0</ele><time>2026-04-05T16:47:06Z</time></trkpt><trkpt lat="45.89063996215262" lon="13.44190941433299"><ele>25.0</ele><time>2026-04-05T16:47:07Z</time></trkpt><trkpt lat="45.89056410546736" lon="13.441761621338348"><ele>25.0</ele><time>2026-04-05T16:47:08Z</time></trkpt><trkpt lat="45.89050807271786" lon="13.441592759685081"><ele>25.0</ele><time>2026-04-05T16:47:09Z</time></trkpt><trkpt lat="45.89046195371237" lon="13.441413562100083"><ele>24.5</ele><time>2026-04-05T16:47:10Z</time></trkpt><trkpt lat="45.89041675261423" lon="13.441233351306707"><ele>24.0</ele><time>2026-04-05T16:47:10.999Z</time></trkpt><trkpt lat="45.89037379533337" lon="13.441055497805678"><ele>23.5</ele><time>2026-04-05T16:47:11.999Z</time></trkpt><trkpt lat="45.890322547202885" lon="13.44088226471571"><ele>23.0</ele><time>2026-04-05T16:47:12.999Z</time></trkpt><trkpt lat="45.89027124265941" lon="13.440704241141173"><ele>23.0</ele><time>2026-04-05T16:47:13.999Z</time></trkpt><trkpt lat="45.890200896602664" lon="13.44053805985336"><ele>23.0</ele><time>2026-04-05T16:47:14.999Z</time></trkpt><trkpt lat="45.89013095380207" lon="13.440365499456178"><ele>23.0</ele><time>2026-04-05T16:47:15.999Z</time></trkpt><trkpt lat="45.89004033402718" lon="13.440194394351662"><ele>23.0</ele><time>2026-04-05T16:47:16.999Z</time></trkpt><trkpt lat="45.88997491201722" lon="13.439979700346619"><ele>23.0</ele><time>2026-04-05T16:47:17.999Z</time></trkpt><trkpt lat="45.88989698518757" lon="13.439818119722155"><ele>23.0</ele><time>2026-04-05T16:47:18.999Z</time></trkpt><trkpt lat="45.88985146157683" lon="13.439661977095637"><ele>23.0</ele><time>2026-04-05T16:47:19.999Z</time></trkpt><trkpt lat="45.889830103145144" lon="13.439535031624883"><ele>23.0</ele><time>2026-04-05T16:47:20.999Z</time></trkpt><trkpt lat="45.889820196858224" lon="13.439431747502137"><ele>23.0</ele><time>2026-04-05T16:47:21.999Z</time></trkpt><trkpt lat="45.88984037814663" lon="13.439294356684169"><ele>23.0</ele><time>2026-04-05T16:47:22.999Z</time></trkpt><trkpt lat="45.88996322885866" lon="13.439180702497081"><ele>23.0</ele><time>2026-04-05T16:47:23.999Z</time></trkpt><trkpt lat="45.890050752838874" lon="13.439012784421605"><ele>23.0</ele><time>2026-04-05T16:47:24.999Z</time></trkpt><trkpt lat="45.89013642916469" lon="13.438792080317656"><ele>23.25</ele><time>2026-04-05T16:47:25.999Z</time></trkpt><trkpt lat="45.89020969918157" lon="13.438575727861238"><ele>23.5</ele><time>2026-04-05T16:47:26.999Z</time></trkpt><trkpt lat="45.89028357665924" lon="13.438404855375966"><ele>23.75</ele><time>2026-04-05T16:47:27.999Z</time></trkpt><trkpt lat="45.890374212840946" lon="13.438275801937449"><ele>24.0</ele><time>2026-04-05T16:47:28.999Z</time></trkpt><trkpt lat="45.8904952464598" lon="13.438183177199054"><ele>24.0</ele><time>2026-04-05T16:47:29.999Z</time></trkpt><trkpt lat="45.89063827580292" lon="13.438120713322505"><ele>24.0</ele><time>2026-04-05T16:47:30.999Z</time></trkpt><trkpt lat="45.890745370253036" lon="13.438013424400268"><ele>24.0</ele><time>2026-04-05T16:47:31.999Z</time></trkpt><trkpt lat="45.89083966409581" lon="13.437860611986315"><ele>24.0</ele><time>2026-04-05T16:47:32.999Z</time></trkpt><trkpt lat="45.890923610489935" lon="13.437653254697274"><ele>23.666666666666668</ele><time>2026-04-05T16:47:33.999Z</time></trkpt><trkpt lat="45.89101520044764" lon="13.437431999327499"><ele>23.333333333333336</ele><time>2026-04-05T16:47:34.999Z</time></trkpt><trkpt lat="45.89111271491917" lon="13.437202540859008"><ele>23.0</ele><time>2026-04-05T16:47:35.999Z</time></trkpt><trkpt lat="45.89120970061985" lon="13.43697537553723"><ele>23.0</ele><time>2026-04-05T16:47:36.999Z</time></trkpt><trkpt lat="45.89130343823042" lon="13.43676092155877"><ele>23.0</ele><time>2026-04-05T16:47:37.999Z</time></trkpt><trkpt lat="45.89139248291546" lon="13.436554799026661"><ele>23.0</ele><time>2026-04-05T16:47:39Z</time></trkpt><trkpt lat="45.89147875604661" lon="13.436356161241598"><ele>23.0</ele><time>2026-04-05T16:47:40Z</time></trkpt><trkpt lat="45.891559878087236" lon="13.436164908923894"><ele>23.0</ele><time>2026-04-05T16:47:41Z</time></trkpt><trkpt lat="45.89164085957124" lon="13.435982560327988"><ele>23.0</ele><time>2026-04-05T16:47:42Z</time></trkpt><trkpt lat="45.89171489069057" lon="13.435803080570478"><ele>22.5</ele><time>2026-04-05T16:47:43Z</time></trkpt><trkpt lat="45.891786528670096" lon="13.435635118192856"><ele>22.0</ele><time>2026-04-05T16:47:44Z</time></trkpt><trkpt lat="45.8918547010338" lon="13.435475983514184"><ele>21.5</ele><time>2026-04-05T16:47:45Z</time></trkpt><trkpt lat="45.891926818860334" lon="13.435312630646562"><ele>21.0</ele><time>2026-04-05T16:47:46Z</time></trkpt><trkpt lat="45.89199890560983" lon="13.435151325995838"><ele>21.0</ele><time>2026-04-05T16:47:47Z</time></trkpt><trkpt lat="45.892062926360474" lon="13.435005676536136"><ele>21.0</ele><time>2026-04-05T16:47:48Z</time></trkpt><trkpt lat="45.89211945001142" lon="13.434877731636085"><ele>21.0</ele><time>2026-04-05T16:47:49Z</time></trkpt><trkpt lat="45.89217466093797" lon="13.434761260183373"><ele>21.0</ele><time>2026-04-05T16:47:50Z</time></trkpt><trkpt lat="45.89221434007536" lon="13.434666592059148"><ele>21.0</ele><time>2026-04-05T16:47:51Z</time></trkpt><trkpt lat="45.89225004027557" lon="13.43458606982701"><ele>21.0</ele><time>2026-04-05T16:47:52Z</time></trkpt><trkpt lat="45.89229470268331" lon="13.434488234817637"><ele>21.0</ele><time>2026-04-05T16:47:53Z</time></trkpt><trkpt lat="45.892337890939075" lon="13.43438330476714"><ele>21.0</ele><time>2026-04-05T16:47:54Z</time></trkpt><trkpt lat="45.89238722961014" lon="13.434255232093596"><ele>21.0</ele><time>2026-04-05T16:47:55Z</time></trkpt><trkpt lat="45.89245279517811" lon="13.434098888264272"><ele>21.0</ele><time>2026-04-05T16:47:56Z</time></trkpt><trkpt lat="45.8925264372816" lon="13.433907725717967"><ele>22.0</ele><time>2026-04-05T16:47:57Z</time></trkpt><trkpt lat="45.892620935828056" lon="13.433674111926"><ele>23.0</ele><time>2026-04-05T16:47:58Z</time></trkpt><trkpt lat="45.89273516860904" lon="13.433428873506207"><ele>24.0</ele><time>2026-04-05T16:47:59Z</time></trkpt><trkpt lat="45.89285328557281" lon="13.433173508573963"><ele>23.666666666666668</ele><time>2026-04-05T16:48:00Z</time></trkpt><trkpt lat="45.89296149294786" lon="13.43292061508915"><ele>23.333333333333336</ele><time>2026-04-05T16:48:01Z</time></trkpt><trkpt lat="45.8930664861247" lon="13.432675460197043"><ele>23.0</ele><time>2026-04-05T16:48:02Z</time></trkpt><trkpt lat="45.89317299029934" lon="13.432435424543536"><ele>23.0</ele><time>2026-04-05T16:48:03Z</time></trkpt><trkpt lat="45.893271929532595" lon="13.432204376398957"><ele>23.0</ele><time>2026-04-05T16:48:04Z</time></trkpt><trkpt lat="45.89336857634306" lon="13.431977947548253"><ele>23.0</ele><time>2026-04-05T16:48:05Z</time></trkpt><trkpt lat="45.893466449290536" lon="13.431754636651288"><ele>22.333333333333336</ele><time>2026-04-05T16:48:06Z</time></trkpt><trkpt lat="45.893563782572166" lon="13.4315339624196"><ele>21.666666666666668</ele><time>2026-04-05T16:48:07Z</time></trkpt><trkpt lat="45.893660265836836" lon="13.43131317444045"><ele>21.0</ele><time>2026-04-05T16:48:08Z</time></trkpt><trkpt lat="45.893756824019626" lon="13.43109474691337"><ele>21.0</ele><time>2026-04-05T16:48:09Z</time></trkpt><trkpt lat="45.8938536099437" lon="13.430871042831791"><ele>21.0</ele><time>2026-04-05T16:48:10Z</time></trkpt><trkpt lat="45.89395050608226" lon="13.430641967874315"><ele>21.0</ele><time>2026-04-05T16:48:11Z</time></trkpt><trkpt lat="45.8940506270255" lon="13.430409736026093"><ele>21.0</ele><time>2026-04-05T16:48:12Z</time></trkpt><trkpt lat="45.89415283382389" lon="13.4301746522568"><ele>21.0</ele><time>2026-04-05T16:48:13Z</time></trkpt><trkpt lat="45.89425469249969" lon="13.429931762590716"><ele>21.0</ele><time>2026-04-05T16:48:14Z</time></trkpt><trkpt lat="45.89436079303677" lon="13.429681262419464"><ele>20.0</ele><time>2026-04-05T16:48:15Z</time></trkpt><trkpt lat="45.89447708125584" lon="13.429418512877408"><ele>19.0</ele><time>2026-04-05T16:48:16Z</time></trkpt><trkpt lat="45.89460260903795" lon="13.42913225662991"><ele>19.0</ele><time>2026-04-05T16:48:17Z</time></trkpt><trkpt lat="45.89473893784795" lon="13.42881638962635"><ele>19.0</ele><time>2026-04-05T16:48:18Z</time></trkpt><trkpt lat="45.89488248263051" lon="13.428480180239056"><ele>19.5</ele><time>2026-04-05T16:48:19Z</time></trkpt><trkpt lat="45.895035212568516" lon="13.428130792019337"><ele>20.0</ele><time>2026-04-05T16:48:20Z</time></trkpt><trkpt lat="45.89519150489068" lon="13.427774987072077"><ele>20.0</ele><time>2026-04-05T16:48:21Z</time></trkpt><trkpt lat="45.89535007474439" lon="13.427409747117657"><ele>20.0</ele><time>2026-04-05T16:48:22Z</time></trkpt><trkpt lat="45.8955072833543" lon="13.427040140317665"><ele>20.0</ele><time>2026-04-05T16:48:23Z</time></trkpt><trkpt lat="45.89566386143883" lon="13.426673085521509"><ele>20.0</ele><time>2026-04-05T16:48:24Z</time></trkpt><trkpt lat="45.89582011822823" lon="13.426309758016673"><ele>20.5</ele><time>2026-04-05T16:48:25Z</time></trkpt><trkpt lat="45.89597052904107" lon="13.4259597346773"><ele>21.0</ele><time>2026-04-05T16:48:26Z</time></trkpt><trkpt lat="45.896114984172684" lon="13.425620442572852"><ele>22.5</ele><time>2026-04-05T16:48:27Z</time></trkpt><trkpt lat="45.89625776373695" lon="13.42528983313814"><ele>24.0</ele><time>2026-04-05T16:48:28Z</time></trkpt><trkpt lat="45.89639848602767" lon="13.42496903077185"><ele>24.0</ele><time>2026-04-05T16:48:29Z</time></trkpt><trkpt lat="45.8965312023489" lon="13.424662516843862"><ele>24.0</ele><time>2026-04-05T16:48:30Z</time></trkpt><trkpt lat="45.8966598410342" lon="13.42436737769735"><ele>22.5</ele><time>2026-04-05T16:48:31Z</time></trkpt><trkpt lat="45.8967845684286" lon="13.424079478613072"><ele>21.0</ele><time>2026-04-05T16:48:32Z</time></trkpt><trkpt lat="45.89689987921975" lon="13.423795385048031"><ele>21.0</ele><time>2026-04-05T16:48:33Z</time></trkpt><trkpt lat="45.89700239359322" lon="13.423513770027066"><ele>21.0</ele><time>2026-04-05T16:48:34Z</time></trkpt><trkpt lat="45.89709711688255" lon="13.423254636533187"><ele>21.0</ele><time>2026-04-05T16:48:35Z</time></trkpt><trkpt lat="45.89720361410469" lon="13.423009599204503"><ele>21.666666666666668</ele><time>2026-04-05T16:48:36Z</time></trkpt><trkpt lat="45.89732866198521" lon="13.422791671453648"><ele>22.333333333333336</ele><time>2026-04-05T16:48:37Z</time></trkpt><trkpt lat="45.89748291735068" lon="13.42260049272641"><ele>23.0</ele><time>2026-04-05T16:48:38Z</time></trkpt><trkpt lat="45.8976487870795" lon="13.422411971793476"><ele>23.0</ele><time>2026-04-05T16:48:39Z</time></trkpt><trkpt lat="45.89781216102142" lon="13.42221361413984"><ele>23.0</ele><time>2026-04-05T16:48:40Z</time></trkpt><trkpt lat="45.89797187911466" lon="13.422006670117389"><ele>23.0</ele><time>2026-04-05T16:48:41Z</time></trkpt><trkpt lat="45.898129751131755" lon="13.42181020273263"><ele>23.0</ele><time>2026-04-05T16:48:42Z</time></trkpt><trkpt lat="45.8982858175589" lon="13.421619606234318"><ele>23.0</ele><time>2026-04-05T16:48:43Z</time></trkpt><trkpt lat="45.89843615575429" lon="13.42143264274184"><ele>23.0</ele><time>2026-04-05T16:48:44Z</time></trkpt><trkpt lat="45.898587259430705" lon="13.421252178922776"><ele>23.0</ele><time>2026-04-05T16:48:45Z</time></trkpt><trkpt lat="45.898735593722854" lon="13.421072000723234"><ele>23.0</ele><time>2026-04-05T16:48:46Z</time></trkpt><trkpt lat="45.89888310439158" lon="13.420894860094352"><ele>23.0</ele><time>2026-04-05T16:48:47Z</time></trkpt><trkpt lat="45.89902123211309" lon="13.420726951088545"><ele>23.0</ele><time>2026-04-05T16:48:48Z</time></trkpt><trkpt lat="45.8991502491748" lon="13.420574535454028"><ele>23.0</ele><time>2026-04-05T16:48:49Z</time></trkpt><trkpt lat="45.89927143974994" lon="13.420426971868988"><ele>23.0</ele><time>2026-04-05T16:48:50Z</time></trkpt><trkpt lat="45.89939353335694" lon="13.420279785740775"><ele>23.333333333333336</ele><time>2026-04-05T16:48:51Z</time></trkpt><trkpt lat="45.899516957503444" lon="13.420135223930043"><ele>23.666666666666668</ele><time>2026-04-05T16:48:52Z</time></trkpt><trkpt lat="45.89963969014026" lon="13.419996810989693"><ele>24.0</ele><time>2026-04-05T16:48:53Z</time></trkpt><trkpt lat="45.89974674559942" lon="13.419869880296629"><ele>24.0</ele><time>2026-04-05T16:48:54Z</time></trkpt><trkpt lat="45.899857649698745" lon="13.419741046242137"><ele>24.0</ele><time>2026-04-05T16:48:55Z</time></trkpt><trkpt lat="45.89996243108492" lon="13.419620850301552"><ele>24.0</ele><time>2026-04-05T16:48:56Z</time></trkpt><trkpt lat="45.90005497670284" lon="13.419499998830558"><ele>24.0</ele><time>2026-04-05T16:48:57Z</time></trkpt><trkpt lat="45.90013008128755" lon="13.419356537215396"><ele>24.2</ele><time>2026-04-05T16:48:58Z</time></trkpt><trkpt lat="45.900184106288705" lon="13.419192158921861"><ele>24.4</ele><time>2026-04-05T16:48:59Z</time></trkpt><trkpt lat="45.90022001967518" lon="13.419025256474852"><ele>24.6</ele><time>2026-04-05T16:49:00Z</time></trkpt><trkpt lat="45.90024090790935" lon="13.4188825276388"><ele>24.8</ele><time>2026-04-05T16:49:01Z</time></trkpt><trkpt lat="45.90025157982444" lon="13.41876974240216"><ele>25.0</ele><time>2026-04-05T16:49:02Z</time></trkpt><trkpt lat="45.90025445336129" lon="13.418659827488662"><ele>25.0</ele><time>2026-04-05T16:49:03Z</time></trkpt><trkpt lat="45.900253999235055" lon="13.418498328280855"><ele>25.0</ele><time>2026-04-05T16:49:04Z</time></trkpt><trkpt lat="45.900237376959495" lon="13.41830214811692"><ele>25.0</ele><time>2026-04-05T16:49:05Z</time></trkpt><trkpt lat="45.900205033825436" lon="13.418056139090012"><ele>25.0</ele><time>2026-04-05T16:49:06Z</time></trkpt><trkpt lat="45.90016818929028" lon="13.417770805882554"><ele>25.0</ele><time>2026-04-05T16:49:07Z</time></trkpt><trkpt lat="45.90012757293439" lon="13.417455190715724"><ele>25.0</ele><time>2026-04-05T16:49:08Z</time></trkpt><trkpt lat="45.90009543623147" lon="13.417156104544393"><ele>25.0</ele><time>2026-04-05T16:49:09Z</time></trkpt><trkpt lat="45.900068470757944" lon="13.416901796787178"><ele>25.0</ele><time>2026-04-05T16:49:10Z</time></trkpt><trkpt lat="45.90004264134851" lon="13.416671724074625"><ele>25.0</ele><time>2026-04-05T16:49:11Z</time></trkpt><trkpt lat="45.900019666585344" lon="13.416446243258877"><ele>25.0</ele><time>2026-04-05T16:49:12Z</time></trkpt><trkpt lat="45.89998670641495" lon="13.41624409736952"><ele>24.666666666666668</ele><time>2026-04-05T16:49:13Z</time></trkpt><trkpt lat="45.89993118858441" lon="13.416037674856916"><ele>24.333333333333336</ele><time>2026-04-05T16:49:13.999Z</time></trkpt><trkpt lat="45.8998411204267" lon="13.4158491359209"><ele>24.0</ele><time>2026-04-05T16:49:14.999Z</time></trkpt><trkpt lat="45.899725399261094" lon="13.415664683405826"><ele>24.666666666666664</ele><time>2026-04-05T16:49:15.999Z</time></trkpt><trkpt lat="45.89959607317822" lon="13.415468480145332"><ele>25.333333333333332</ele><time>2026-04-05T16:49:16.999Z</time></trkpt><trkpt lat="45.89944862840081" lon="13.415255801606246"><ele>26.0</ele><time>2026-04-05T16:49:17.999Z</time></trkpt><trkpt lat="45.899286692438885" lon="13.41502114246124"><ele>25.0</ele><time>2026-04-05T16:49:18.999Z</time></trkpt><trkpt lat="45.899111410236024" lon="13.414765016877595"><ele>24.0</ele><time>2026-04-05T16:49:19.999Z</time></trkpt><trkpt lat="45.89892201959713" lon="13.414492408412691"><ele>24.0</ele><time>2026-04-05T16:49:20.999Z</time></trkpt><trkpt lat="45.89871921793174" lon="13.414202446882522"><ele>24.0</ele><time>2026-04-05T16:49:21.999Z</time></trkpt><trkpt lat="45.89850871806835" lon="13.41389970222431"><ele>23.0</ele><time>2026-04-05T16:49:22.999Z</time></trkpt><trkpt lat="45.898293938446606" lon="13.413591100237392"><ele>22.0</ele><time>2026-04-05T16:49:23.999Z</time></trkpt><trkpt lat="45.89807569177079" lon="13.41327618215764"><ele>22.5</ele><time>2026-04-05T16:49:24.999Z</time></trkpt><trkpt lat="45.89785602381807" lon="13.412961986237962"><ele>23.0</ele><time>2026-04-05T16:49:25.999Z</time></trkpt><trkpt lat="45.897634860150866" lon="13.412648479874601"><ele>23.0</ele><time>2026-04-05T16:49:26.999Z</time></trkpt><trkpt lat="45.89741584419798" lon="13.412332812212105"><ele>23.0</ele><time>2026-04-05T16:49:27.999Z</time></trkpt><trkpt lat="45.897199830375385" lon="13.412021633526289"><ele>23.0</ele><time>2026-04-05T16:49:28.999Z</time></trkpt><trkpt lat="45.896986899232104" lon="13.411712902776298"><ele>23.0</ele><time>2026-04-05T16:49:29.999Z</time></trkpt><trkpt lat="45.89677549004824" lon="13.411409999527377"><ele>23.5</ele><time>2026-04-05T16:49:30.999Z</time></trkpt><trkpt lat="45.89656907380023" lon="13.411114393410442"><ele>24.0</ele><time>2026-04-05T16:49:31.999Z</time></trkpt><trkpt lat="45.89636429551642" lon="13.410822210022042"><ele>24.0</ele><time>2026-04-05T16:49:32.999Z</time></trkpt><trkpt lat="45.896165472865356" lon="13.410536037672573"><ele>24.0</ele><time>2026-04-05T16:49:33.999Z</time></trkpt><trkpt lat="45.8959706954669" lon="13.41025506935194"><ele>23.0</ele><time>2026-04-05T16:49:34.999Z</time></trkpt><trkpt lat="45.895781887902565" lon="13.409984258028436"><ele>22.0</ele><time>2026-04-05T16:49:35.999Z</time></trkpt><trkpt lat="45.89559648157071" lon="13.409718776102537"><ele>23.0</ele><time>2026-04-05T16:49:36.999Z</time></trkpt><trkpt lat="45.89541438599659" lon="13.409463612453408"><ele>24.0</ele><time>2026-04-05T16:49:37.999Z</time></trkpt><trkpt lat="45.89523590664311" lon="13.409210806662616"><ele>24.5</ele><time>2026-04-05T16:49:38.999Z</time></trkpt><trkpt lat="45.89505757771053" lon="13.408950243717973"><ele>25.0</ele><time>2026-04-05T16:49:39.999Z</time></trkpt><trkpt lat="45.894883292418015" lon="13.408676725668496"><ele>25.0</ele><time>2026-04-05T16:49:40.999Z</time></trkpt><trkpt lat="45.89472528051531" lon="13.408380904625982"><ele>25.0</ele><time>2026-04-05T16:49:41.999Z</time></trkpt><trkpt lat="45.89458810138125" lon="13.408058551498627"><ele>24.5</ele><time>2026-04-05T16:49:42.999Z</time></trkpt><trkpt lat="45.894476665834176" lon="13.407714067241637"><ele>24.0</ele><time>2026-04-05T16:49:43.999Z</time></trkpt><trkpt lat="45.89438724072823" lon="13.40733130151458"><ele>24.5</ele><time>2026-04-05T16:49:45Z</time></trkpt><trkpt lat="45.894300926242614" lon="13.406917693355966"><ele>25.0</ele><time>2026-04-05T16:49:46Z</time></trkpt><trkpt lat="45.894197421529114" lon="13.406493547484295"><ele>25.5</ele><time>2026-04-05T16:49:47Z</time></trkpt><trkpt lat="45.8940840017464" lon="13.406062914186029"><ele>26.0</ele><time>2026-04-05T16:49:48Z</time></trkpt><trkpt lat="45.89397266546535" lon="13.405611526343248"><ele>25.5</ele><time>2026-04-05T16:49:49Z</time></trkpt><trkpt lat="45.893859058527276" lon="13.405142936110273"><ele>25.0</ele><time>2026-04-05T16:49:50Z</time></trkpt><trkpt lat="45.893742069908136" lon="13.40466333003472"><ele>24.5</ele><time>2026-04-05T16:49:51Z</time></trkpt><trkpt lat="45.89362447500761" lon="13.404175208481593"><ele>24.0</ele><time>2026-04-05T16:49:52Z</time></trkpt><trkpt lat="45.89350172342783" lon="13.403680937560555"><ele>22.0</ele><time>2026-04-05T16:49:53Z</time></trkpt><trkpt lat="45.89337697446212" lon="13.403180787978807"><ele>20.0</ele><time>2026-04-05T16:49:54Z</time></trkpt><trkpt lat="45.89325787168947" lon="13.40268533124931"><ele>20.0</ele><time>2026-04-05T16:49:55Z</time></trkpt><trkpt lat="45.89314201996267" lon="13.402203229439303"><ele>20.0</ele><time>2026-04-05T16:49:56Z</time></trkpt><trkpt lat="45.89302882719982" lon="13.4017284750255"><ele>22.5</ele><time>2026-04-05T16:49:57Z</time></trkpt><trkpt lat="45.89291776513614" lon="13.40126473762834"><ele>25.0</ele><time>2026-04-05T16:49:58Z</time></trkpt><trkpt lat="45.89280413060034" lon="13.400810062193687"><ele>25.0</ele><time>2026-04-05T16:49:59Z</time></trkpt><trkpt lat="45.89269464038158" lon="13.400366391915636"><ele>25.0</ele><time>2026-04-05T16:50:00Z</time></trkpt><trkpt lat="45.892589261198665" lon="13.399939134230873"><ele>24.5</ele><time>2026-04-05T16:50:01Z</time></trkpt><trkpt lat="45.892484260942844" lon="13.399527587360971"><ele>24.0</ele><time>2026-04-05T16:50:02Z</time></trkpt><trkpt lat="45.89238644693026" lon="13.399120862891289"><ele>24.0</ele><time>2026-04-05T16:50:03Z</time></trkpt><trkpt lat="45.89230182581836" lon="13.398726085665814"><ele>24.0</ele><time>2026-04-05T16:50:04Z</time></trkpt><trkpt lat="45.892237650392474" lon="13.39834035019686"><ele>23.5</ele><time>2026-04-05T16:50:05Z</time></trkpt><trkpt lat="45.892199026858464" lon="13.397961042601045"><ele>23.0</ele><time>2026-04-05T16:50:06Z</time></trkpt><trkpt lat="45.89216547101864" lon="13.397573744600514"><ele>23.0</ele><time>2026-04-05T16:50:07Z</time></trkpt><trkpt lat="45.892139411200624" lon="13.397180378724164"><ele>23.0</ele><time>2026-04-05T16:50:08Z</time></trkpt><trkpt lat="45.89211281613767" lon="13.396769639628097"><ele>22.5</ele><time>2026-04-05T16:50:09Z</time></trkpt><trkpt lat="45.89209204182146" lon="13.396335476430352"><ele>22.0</ele><time>2026-04-05T16:50:10Z</time></trkpt><trkpt lat="45.892066869397134" lon="13.395877919388399"><ele>22.5</ele><time>2026-04-05T16:50:11Z</time></trkpt><trkpt lat="45.89202996719715" lon="13.395400829054333"><ele>23.0</ele><time>2026-04-05T16:50:12Z</time></trkpt><trkpt lat="45.892011051634356" lon="13.394898554802703"><ele>23.0</ele><time>2026-04-05T16:50:13Z</time></trkpt><trkpt lat="45.891986814394144" lon="13.39439136984991"><ele>23.0</ele><time>2026-04-05T16:50:14Z</time></trkpt><trkpt lat="45.891958858188076" lon="13.393888874841394"><ele>23.0</ele><time>2026-04-05T16:50:15Z</time></trkpt><trkpt lat="45.891930820271696" lon="13.393396856797864"><ele>23.0</ele><time>2026-04-05T16:50:16Z</time></trkpt><trkpt lat="45.891905172396726" lon="13.392915749867822"><ele>23.0</ele><time>2026-04-05T16:50:17Z</time></trkpt><trkpt lat="45.89188102516816" lon="13.392444549681759"><ele>23.0</ele><time>2026-04-05T16:50:18Z</time></trkpt><trkpt lat="45.89185908617981" lon="13.391986392375877"><ele>22.5</ele><time>2026-04-05T16:50:19Z</time></trkpt><trkpt lat="45.89184157362301" lon="13.39152651328953"><ele>22.0</ele><time>2026-04-05T16:50:20Z</time></trkpt><trkpt lat="45.8918347326828" lon="13.391064658340687"><ele>22.0</ele><time>2026-04-05T16:50:21Z</time></trkpt><trkpt lat="45.89183455158171" lon="13.390593608668475"><ele>22.0</ele><time>2026-04-05T16:50:22Z</time></trkpt><trkpt lat="45.89184066937016" lon="13.390131795581663"><ele>22.0</ele><time>2026-04-05T16:50:23Z</time></trkpt><trkpt lat="45.89185321487559" lon="13.389685932257445"><ele>22.0</ele><time>2026-04-05T16:50:24Z</time></trkpt><trkpt lat="45.89187558446073" lon="13.38925221449884"><ele>22.5</ele><time>2026-04-05T16:50:25Z</time></trkpt><trkpt lat="45.89190744042925" lon="13.388833479451621"><ele>23.0</ele><time>2026-04-05T16:50:26Z</time></trkpt><trkpt lat="45.89194009853577" lon="13.388418506775347"><ele>23.0</ele><time>2026-04-05T16:50:27Z</time></trkpt><trkpt lat="45.891973222888005" lon="13.388010778682078"><ele>23.0</ele><time>2026-04-05T16:50:28Z</time></trkpt><trkpt lat="45.892008151271924" lon="13.38761472297359"><ele>23.0</ele><time>2026-04-05T16:50:29Z</time></trkpt><trkpt lat="45.892048038036805" lon="13.387227757207759"><ele>23.0</ele><time>2026-04-05T16:50:30Z</time></trkpt><trkpt lat="45.8920889350749" lon="13.386844272355296"><ele>22.5</ele><time>2026-04-05T16:50:31Z</time></trkpt><trkpt lat="45.892125282662946" lon="13.386475565441836"><ele>22.0</ele><time>2026-04-05T16:50:32Z</time></trkpt><trkpt lat="45.89215754788233" lon="13.386137695426811"><ele>22.666666666666664</ele><time>2026-04-05T16:50:33Z</time></trkpt><trkpt lat="45.89218006407011" lon="13.385811957374582"><ele>23.333333333333332</ele><time>2026-04-05T16:50:34Z</time></trkpt><trkpt lat="45.89218313485187" lon="13.385493608417004"><ele>24.0</ele><time>2026-04-05T16:50:35Z</time></trkpt><trkpt lat="45.89217237781593" lon="13.385179908937383"><ele>24.333333333333336</ele><time>2026-04-05T16:50:36Z</time></trkpt><trkpt lat="45.89214847231491" lon="13.384893285494043"><ele>24.666666666666668</ele><time>2026-04-05T16:50:37Z</time></trkpt><trkpt lat="45.89211847711762" lon="13.384634167825016"><ele>25.0</ele><time>2026-04-05T16:50:38Z</time></trkpt><trkpt lat="45.89208925097103" lon="13.384395271830986"><ele>25.0</ele><time>2026-04-05T16:50:39Z</time></trkpt><trkpt lat="45.89206344793547" lon="13.384190783946298"><ele>25.0</ele><time>2026-04-05T16:50:40Z</time></trkpt><trkpt lat="45.892045347561414" lon="13.384018311405637"><ele>25.0</ele><time>2026-04-05T16:50:41Z</time></trkpt><trkpt lat="45.892043018168366" lon="13.383874652636521"><ele>25.0</ele><time>2026-04-05T16:50:42Z</time></trkpt><trkpt lat="45.89206772250867" lon="13.38373911102374"><ele>25.0</ele><time>2026-04-05T16:50:43Z</time></trkpt><trkpt lat="45.89205370428917" lon="13.383645645007393"><ele>25.0</ele><time>2026-04-05T16:50:44Z</time></trkpt><trkpt lat="45.89221185064783" lon="13.383542792797043"><ele>25.0</ele><time>2026-04-05T16:50:45Z</time></trkpt><trkpt lat="45.89234041934993" lon="13.383481911453845"><ele>25.0</ele><time>2026-04-05T16:50:46Z</time></trkpt><trkpt lat="45.89251476766474" lon="13.383419726035397"><ele>24.5</ele><time>2026-04-05T16:50:47Z</time></trkpt><trkpt lat="45.89273284894708" lon="13.383330031322897"><ele>24.0</ele><time>2026-04-05T16:50:48Z</time></trkpt><trkpt lat="45.893005821214004" lon="13.383216312864697"><ele>24.0</ele><time>2026-04-05T16:50:49Z</time></trkpt><trkpt lat="45.89333056237639" lon="13.383081034647407"><ele>24.0</ele><time>2026-04-05T16:50:50Z</time></trkpt><trkpt lat="45.89364033320366" lon="13.38295356329596"><ele>24.0</ele><time>2026-04-05T16:50:51Z</time></trkpt><trkpt lat="45.893910091294465" lon="13.382844904131531"><ele>24.0</ele><time>2026-04-05T16:50:52Z</time></trkpt><trkpt lat="45.89415761852532" lon="13.382740872787032"><ele>25.0</ele><time>2026-04-05T16:50:53Z</time></trkpt><trkpt lat="45.89438637944284" lon="13.38264773498207"><ele>26.0</ele><time>2026-04-05T16:50:54Z</time></trkpt><trkpt lat="45.89459957409642" lon="13.382560504362687"><ele>26.0</ele><time>2026-04-05T16:50:55Z</time></trkpt><trkpt lat="45.89479645231732" lon="13.382480418400066"><ele>26.0</ele><time>2026-04-05T16:50:56Z</time></trkpt><trkpt lat="45.894977255068646" lon="13.382402957089923"><ele>26.0</ele><time>2026-04-05T16:50:57Z</time></trkpt><trkpt lat="45.89514712901957" lon="13.382357705114304"><ele>26.0</ele><time>2026-04-05T16:50:58Z</time></trkpt><trkpt lat="45.89529435891979" lon="13.382296349268744"><ele>26.0</ele><time>2026-04-05T16:50:59Z</time></trkpt><trkpt lat="45.8954256023772" lon="13.382241655822524"><ele>26.0</ele><time>2026-04-05T16:51:00Z</time></trkpt><trkpt lat="45.89553722946228" lon="13.382194164985307"><ele>26.0</ele><time>2026-04-05T16:51:01Z</time></trkpt><trkpt lat="45.895626015021136" lon="13.382156461919267"><ele>26.166666666666664</ele><time>2026-04-05T16:51:02Z</time></trkpt><trkpt lat="45.89569413876327" lon="13.38212753305432"><ele>26.333333333333332</ele><time>2026-04-05T16:51:03Z</time></trkpt><trkpt lat="45.89576384971497" lon="13.382097929847808"><ele>26.5</ele><time>2026-04-05T16:51:05Z</time></trkpt><trkpt lat="45.89578095937764" lon="13.381952063301576"><ele>26.666666666666664</ele><time>2026-04-05T16:51:07Z</time></trkpt><trkpt lat="45.89579933691233" lon="13.381827952217183"><ele>26.833333333333332</ele><time>2026-04-05T16:51:10Z</time></trkpt><trkpt lat="45.895817967044415" lon="13.381739467458575"><ele>27.0</ele><time>2026-04-05T16:51:12Z</time></trkpt><trkpt lat="45.89582867594123" lon="13.381638018284844"><ele>27.0</ele><time>2026-04-05T16:51:14Z</time></trkpt><trkpt lat="45.895847736862066" lon="13.381534230708684"><ele>27.0</ele><time>2026-04-05T16:51:16Z</time></trkpt><trkpt lat="45.89587231627016" lon="13.381427018226448"><ele>27.0</ele><time>2026-04-05T16:51:17.999Z</time></trkpt><trkpt lat="45.89590127332896" lon="13.38132188590005"><ele>25.0</ele><time>2026-04-05T16:51:19.999Z</time></trkpt><trkpt lat="45.895938551101324" lon="13.38124547226504"><ele>26.0</ele><time>2026-04-05T16:51:22.999Z</time></trkpt><trkpt lat="45.895947488365664" lon="13.381152887196894"><ele>26.0</ele><time>2026-04-05T16:51:42.999Z</time></trkpt></trkseg></trk></gpx>